<?xml version='1.0' encoding='UTF-8'?><gpx version="1.1" creator="JPX - https://github.com/jenetics/jpx" xmlns="http://www.topografix.com/GPX/1/1"><trk><trkseg><trkpt lat="31.301354514221227" lon="-6.15799518687184"><ele>1485.0</ele><time>2026-05-05T08:21:22.343Z</time></trkpt><trkpt lat="31.301477891917607" lon="-6.157911315743946"><ele>1485.0</ele><time>2026-05-05T08:21:23.343Z</time></trkpt><trkpt lat="31.301412210203715" lon="-6.157873445770611"><ele>1485.0</ele><time>2026-05-05T08:21:26.343Z</time></trkpt><trkpt lat="31.301476355271554" lon="-6.1578514337191566"><ele>1485.0</ele><time>2026-05-05T08:21:27.343Z</time></trkpt><trkpt lat="31.301447630817403" lon="-6.157774966897786"><ele>1485.0</ele><time>2026-05-05T08:21:30.343Z</time></trkpt><trkpt lat="31.301448217438647" lon="-6.157694112343468"><ele>1485.0</ele><time>2026-05-05T08:21:32.343Z</time></trkpt><trkpt lat="31.30144929428583" lon="-6.157593114832971"><ele>1485.0</ele><time>2026-05-05T08:21:34.343Z</time></trkpt><trkpt lat="31.301382883397547" lon="-6.15796341341021"><ele>1485.0</ele><time>2026-05-05T08:23:35.362Z</time></trkpt><trkpt lat="31.301350343886956" lon="-6.157894963583052"><ele>1485.0</ele><time>2026-05-05T08:23:40.004Z</time></trkpt><trkpt lat="31.301402065586846" lon="-6.157841422833521"><ele>1484.5714285714287</ele><time>2026-05-05T08:24:09.001Z</time></trkpt><trkpt lat="31.301477600924283" lon="-6.157851859329579"><ele>1484.1428571428573</ele><time>2026-05-05T08:24:21Z</time></trkpt><trkpt lat="31.301527046871467" lon="-6.1579016580007755"><ele>1483.7142857142858</ele><time>2026-05-05T08:24:26Z</time></trkpt><trkpt lat="31.3015104064513" lon="-6.157989010316649"><ele>1483.2857142857142</ele><time>2026-05-05T08:24:33.999Z</time></trkpt><trkpt lat="31.301485679705813" lon="-6.158067372442498"><ele>1482.857142857143</ele><time>2026-05-05T08:24:39.999Z</time></trkpt><trkpt lat="31.30141551833979" lon="-6.158109972064765"><ele>1482.4285714285713</ele><time>2026-05-05T08:25:08.999Z</time></trkpt><trkpt lat="31.30148432721548" lon="-6.1581248919087885"><ele>1482.0</ele><time>2026-05-05T08:27:04Z</time></trkpt><trkpt lat="31.30149917814882" lon="-6.158041099037896"><ele>1482.0</ele><time>2026-05-05T08:27:06Z</time></trkpt><trkpt lat="31.301514176193937" lon="-6.157961040093539"><ele>1482.0</ele><time>2026-05-05T08:27:08Z</time></trkpt><trkpt lat="31.301507450776356" lon="-6.157881502279416"><ele>1482.0</ele><time>2026-05-05T08:27:10Z</time></trkpt><trkpt lat="31.301445506866738" lon="-6.157813177651879"><ele>1482.0</ele><time>2026-05-05T08:27:12Z</time></trkpt><trkpt lat="31.30140447703597" lon="-6.15774618263352"><ele>1482.0</ele><time>2026-05-05T08:27:14Z</time></trkpt><trkpt lat="31.301356826159026" lon="-6.157679536360721"><ele>1482.0</ele><time>2026-05-05T08:27:16Z</time></trkpt><trkpt lat="31.301316452534206" lon="-6.157591954438633"><ele>1482.5</ele><time>2026-05-05T08:27:18Z</time></trkpt><trkpt lat="31.301268762932033" lon="-6.157521053178932"><ele>1483.0</ele><time>2026-05-05T08:27:20Z</time></trkpt><trkpt lat="31.30120010186889" lon="-6.157492279336014"><ele>1483.5</ele><time>2026-05-05T08:27:22Z</time></trkpt><trkpt lat="31.301108197345457" lon="-6.157516955014493"><ele>1484.0</ele><time>2026-05-05T08:27:24Z</time></trkpt><trkpt lat="31.30101385496223" lon="-6.157500603874113"><ele>1484.5</ele><time>2026-05-05T08:27:26Z</time></trkpt><trkpt lat="31.300934775728052" lon="-6.157430862189751"><ele>1485.0</ele><time>2026-05-05T08:27:28Z</time></trkpt><trkpt lat="31.300831728977265" lon="-6.157384527576126"><ele>1485.0</ele><time>2026-05-05T08:27:30Z</time></trkpt><trkpt lat="31.300713502640487" lon="-6.157379951721831"><ele>1485.0</ele><time>2026-05-05T08:27:32Z</time></trkpt><trkpt lat="31.300653384414517" lon="-6.157418770434904"><ele>1485.0</ele><time>2026-05-05T08:27:33Z</time></trkpt><trkpt lat="31.300585073240985" lon="-6.157462242428747"><ele>1485.0</ele><time>2026-05-05T08:27:34Z</time></trkpt><trkpt lat="31.300518335330022" lon="-6.157502214516549"><ele>1485.0</ele><time>2026-05-05T08:27:35Z</time></trkpt><trkpt lat="31.30045655755228" lon="-6.157534815971178"><ele>1485.0</ele><time>2026-05-05T08:27:36Z</time></trkpt><trkpt lat="31.300408408873512" lon="-6.157588622301079"><ele>1485.1666666666667</ele><time>2026-05-05T08:27:37Z</time></trkpt><trkpt lat="31.30032621002016" lon="-6.157637564587527"><ele>1485.3333333333333</ele><time>2026-05-05T08:27:39Z</time></trkpt><trkpt lat="31.3002552712419" lon="-6.157613594127462"><ele>1485.5</ele><time>2026-05-05T08:27:45Z</time></trkpt><trkpt lat="31.300207627527445" lon="-6.157500668905612"><ele>1485.6666666666665</ele><time>2026-05-05T08:27:46Z</time></trkpt><trkpt lat="31.30022438181061" lon="-6.157422610192154"><ele>1485.8333333333333</ele><time>2026-05-05T08:27:47Z</time></trkpt><trkpt lat="31.300193151404706" lon="-6.157319447129809"><ele>1486.0</ele><time>2026-05-05T08:27:49Z</time></trkpt><trkpt lat="31.300174294015775" lon="-6.157219232329605"><ele>1486.0</ele><time>2026-05-05T08:27:51Z</time></trkpt><trkpt lat="31.300138846793693" lon="-6.157127175436401"><ele>1486.0</ele><time>2026-05-05T08:27:53Z</time></trkpt><trkpt lat="31.300107944803393" lon="-6.157042705526139"><ele>1486.0</ele><time>2026-05-05T08:27:55Z</time></trkpt><trkpt lat="31.30007198749818" lon="-6.1569507586135535"><ele>1486.0</ele><time>2026-05-05T08:27:57Z</time></trkpt><trkpt lat="31.300033461300842" lon="-6.156862048095947"><ele>1486.0</ele><time>2026-05-05T08:27:59Z</time></trkpt><trkpt lat="31.299984720223982" lon="-6.156794689716119"><ele>1486.0</ele><time>2026-05-05T08:28:01Z</time></trkpt><trkpt lat="31.2999445539662" lon="-6.156727537210251"><ele>1486.0</ele><time>2026-05-05T08:28:04Z</time></trkpt><trkpt lat="31.29995225393588" lon="-6.156618213997871"><ele>1486.0</ele><time>2026-05-05T08:28:06Z</time></trkpt><trkpt lat="31.299969774746152" lon="-6.1565464190852675"><ele>1486.0</ele><time>2026-05-05T08:28:07Z</time></trkpt><trkpt lat="31.29999792863869" lon="-6.1564519809694"><ele>1486.0</ele><time>2026-05-05T08:28:08Z</time></trkpt><trkpt lat="31.30002254687691" lon="-6.15635126031556"><ele>1486.0</ele><time>2026-05-05T08:28:09Z</time></trkpt><trkpt lat="31.3000431744178" lon="-6.156229200718331"><ele>1486.0</ele><time>2026-05-05T08:28:10Z</time></trkpt><trkpt lat="31.30005942617619" lon="-6.15610473960971"><ele>1485.8333333333333</ele><time>2026-05-05T08:28:11Z</time></trkpt><trkpt lat="31.300079288789163" lon="-6.155990670953418"><ele>1485.6666666666665</ele><time>2026-05-05T08:28:12Z</time></trkpt><trkpt lat="31.300098430082084" lon="-6.15589733720066"><ele>1485.5</ele><time>2026-05-05T08:28:13Z</time></trkpt><trkpt lat="31.300111296402346" lon="-6.15580035181808"><ele>1485.3333333333333</ele><time>2026-05-05T08:28:14Z</time></trkpt><trkpt lat="31.300128953187205" lon="-6.155698281071111"><ele>1485.1666666666667</ele><time>2026-05-05T08:28:15Z</time></trkpt><trkpt lat="31.30014684372119" lon="-6.15559735418209"><ele>1485.0</ele><time>2026-05-05T08:28:16Z</time></trkpt><trkpt lat="31.30016005847833" lon="-6.155507440031793"><ele>1485.0</ele><time>2026-05-05T08:28:17Z</time></trkpt><trkpt lat="31.30016933269021" lon="-6.155429758777069"><ele>1485.0</ele><time>2026-05-05T08:28:18Z</time></trkpt><trkpt lat="31.300173242991367" lon="-6.155297899902246"><ele>1485.0</ele><time>2026-05-05T08:28:20Z</time></trkpt><trkpt lat="31.300183435867524" lon="-6.1551918005796615"><ele>1485.0</ele><time>2026-05-05T08:28:22Z</time></trkpt><trkpt lat="31.300183348897853" lon="-6.155108745850845"><ele>1485.0</ele><time>2026-05-05T08:28:24Z</time></trkpt><trkpt lat="31.300088877392938" lon="-6.154993207651316"><ele>1485.0</ele><time>2026-05-05T08:28:27Z</time></trkpt><trkpt lat="31.300034627063244" lon="-6.1549447423547905"><ele>1485.0</ele><time>2026-05-05T08:28:28Z</time></trkpt><trkpt lat="31.299960790062347" lon="-6.1549057074064795"><ele>1485.0</ele><time>2026-05-05T08:28:29Z</time></trkpt><trkpt lat="31.29988404103294" lon="-6.1548475444919495"><ele>1485.0</ele><time>2026-05-05T08:28:30Z</time></trkpt><trkpt lat="31.299805312740784" lon="-6.1547859258489215"><ele>1485.0</ele><time>2026-05-05T08:28:31Z</time></trkpt><trkpt lat="31.299733247117405" lon="-6.154707381098141"><ele>1485.0</ele><time>2026-05-05T08:28:32Z</time></trkpt><trkpt lat="31.29964720293447" lon="-6.154638434502917"><ele>1485.4</ele><time>2026-05-05T08:28:33Z</time></trkpt><trkpt lat="31.299562449036674" lon="-6.154594437749818"><ele>1485.8</ele><time>2026-05-05T08:28:34Z</time></trkpt><trkpt lat="31.299489983817534" lon="-6.154537286753779"><ele>1486.1999999999998</ele><time>2026-05-05T08:28:35Z</time></trkpt><trkpt lat="31.299427886085155" lon="-6.154461290590382"><ele>1486.6</ele><time>2026-05-05T08:28:36Z</time></trkpt><trkpt lat="31.299353330068993" lon="-6.154400199506301"><ele>1487.0</ele><time>2026-05-05T08:28:37Z</time></trkpt><trkpt lat="31.299280776962508" lon="-6.154325737775471"><ele>1487.0</ele><time>2026-05-05T08:28:38Z</time></trkpt><trkpt lat="31.29919670280792" lon="-6.154257163626703"><ele>1487.0</ele><time>2026-05-05T08:28:39Z</time></trkpt><trkpt lat="31.299139938534815" lon="-6.154161034325841"><ele>1487.0</ele><time>2026-05-05T08:28:40Z</time></trkpt><trkpt lat="31.299072037240613" lon="-6.154071596999023"><ele>1487.0</ele><time>2026-05-05T08:28:41Z</time></trkpt><trkpt lat="31.29900991078495" lon="-6.153976905499419"><ele>1487.0</ele><time>2026-05-05T08:28:42Z</time></trkpt><trkpt lat="31.298952706916925" lon="-6.153879735866149"><ele>1486.3999999999999</ele><time>2026-05-05T08:28:43Z</time></trkpt><trkpt lat="31.298898852692506" lon="-6.153771573533084"><ele>1485.8</ele><time>2026-05-05T08:28:44Z</time></trkpt><trkpt lat="31.29884735064713" lon="-6.153665537704173"><ele>1485.2</ele><time>2026-05-05T08:28:45Z</time></trkpt><trkpt lat="31.298785971599862" lon="-6.153574953249238"><ele>1484.6</ele><time>2026-05-05T08:28:46Z</time></trkpt><trkpt lat="31.298750990956833" lon="-6.1534700824716175"><ele>1484.0</ele><time>2026-05-05T08:28:47Z</time></trkpt><trkpt lat="31.298698442245637" lon="-6.153378777363827"><ele>1484.0</ele><time>2026-05-05T08:28:48Z</time></trkpt><trkpt lat="31.29865038988943" lon="-6.153281410492897"><ele>1484.0</ele><time>2026-05-05T08:28:49Z</time></trkpt><trkpt lat="31.298602769604514" lon="-6.1531771687328725"><ele>1484.0</ele><time>2026-05-05T08:28:50Z</time></trkpt><trkpt lat="31.29853350601056" lon="-6.153080179973936"><ele>1484.0</ele><time>2026-05-05T08:28:51Z</time></trkpt><trkpt lat="31.298476908169803" lon="-6.152972387642975"><ele>1484.0</ele><time>2026-05-05T08:28:52Z</time></trkpt><trkpt lat="31.29841592410715" lon="-6.152869482443752"><ele>1483.5</ele><time>2026-05-05T08:28:53Z</time></trkpt><trkpt lat="31.298343189781676" lon="-6.152774047637446"><ele>1483.0</ele><time>2026-05-05T08:28:54Z</time></trkpt><trkpt lat="31.298250227952046" lon="-6.152690621877543"><ele>1482.5</ele><time>2026-05-05T08:28:55Z</time></trkpt><trkpt lat="31.29813806196558" lon="-6.1526259684474995"><ele>1482.0</ele><time>2026-05-05T08:28:56Z</time></trkpt><trkpt lat="31.298022701559436" lon="-6.152566807951271"><ele>1482.5</ele><time>2026-05-05T08:28:57Z</time></trkpt><trkpt lat="31.297900400127045" lon="-6.152509281598552"><ele>1483.0</ele><time>2026-05-05T08:28:58Z</time></trkpt><trkpt lat="31.297773879873116" lon="-6.1524554481959"><ele>1483.5</ele><time>2026-05-05T08:28:59Z</time></trkpt><trkpt lat="31.297648226535394" lon="-6.152401862880505"><ele>1484.0</ele><time>2026-05-05T08:29:00Z</time></trkpt><trkpt lat="31.297522017454913" lon="-6.152348349088322"><ele>1484.0</ele><time>2026-05-05T08:29:01Z</time></trkpt><trkpt lat="31.297393292112453" lon="-6.152285311772864"><ele>1484.0</ele><time>2026-05-05T08:29:02Z</time></trkpt><trkpt lat="31.297265574438057" lon="-6.152220677959546"><ele>1484.0</ele><time>2026-05-05T08:29:03Z</time></trkpt><trkpt lat="31.297142440879224" lon="-6.152139200154931"><ele>1484.0</ele><time>2026-05-05T08:29:04Z</time></trkpt><trkpt lat="31.29701434847153" lon="-6.152074229495273"><ele>1482.6666666666667</ele><time>2026-05-05T08:29:05Z</time></trkpt><trkpt lat="31.29687957190875" lon="-6.152009667700304"><ele>1481.3333333333333</ele><time>2026-05-05T08:29:06Z</time></trkpt><trkpt lat="31.296740506453798" lon="-6.151942032736623"><ele>1480.0</ele><time>2026-05-05T08:29:07Z</time></trkpt><trkpt lat="31.296597184388922" lon="-6.151877152092014"><ele>1480.0</ele><time>2026-05-05T08:29:08Z</time></trkpt><trkpt lat="31.29645284952548" lon="-6.151805909338055"><ele>1480.0</ele><time>2026-05-05T08:29:09Z</time></trkpt><trkpt lat="31.296305237050852" lon="-6.151732533564483"><ele>1480.0</ele><time>2026-05-05T08:29:10Z</time></trkpt><trkpt lat="31.296156631981994" lon="-6.151662255866046"><ele>1479.25</ele><time>2026-05-05T08:29:11Z</time></trkpt><trkpt lat="31.296011725138673" lon="-6.151594345565526"><ele>1478.5</ele><time>2026-05-05T08:29:12Z</time></trkpt><trkpt lat="31.295873794852646" lon="-6.151532356581047"><ele>1477.75</ele><time>2026-05-05T08:29:13Z</time></trkpt><trkpt lat="31.295744284419285" lon="-6.151475851782312"><ele>1477.0</ele><time>2026-05-05T08:29:14Z</time></trkpt><trkpt lat="31.295621028444256" lon="-6.151428900876807"><ele>1477.25</ele><time>2026-05-05T08:29:15Z</time></trkpt><trkpt lat="31.29550531532227" lon="-6.151382795349256"><ele>1477.5</ele><time>2026-05-05T08:29:16Z</time></trkpt><trkpt lat="31.295398164085118" lon="-6.151333694845055"><ele>1477.75</ele><time>2026-05-05T08:29:17Z</time></trkpt><trkpt lat="31.29529383207748" lon="-6.15128601200613"><ele>1478.0</ele><time>2026-05-05T08:29:18Z</time></trkpt><trkpt lat="31.29519694694177" lon="-6.151244661097433"><ele>1478.0</ele><time>2026-05-05T08:29:19Z</time></trkpt><trkpt lat="31.2951002593881" lon="-6.1512233271270675"><ele>1478.0</ele><time>2026-05-05T08:29:20Z</time></trkpt><trkpt lat="31.29500836598962" lon="-6.151184996086792"><ele>1478.0</ele><time>2026-05-05T08:29:21Z</time></trkpt><trkpt lat="31.294910161750764" lon="-6.151142464381545"><ele>1478.0</ele><time>2026-05-05T08:29:22Z</time></trkpt><trkpt lat="31.294812233897545" lon="-6.1510817478597835"><ele>1478.0</ele><time>2026-05-05T08:29:23Z</time></trkpt><trkpt lat="31.2947017678438" lon="-6.151034440168525"><ele>1477.75</ele><time>2026-05-05T08:29:24Z</time></trkpt><trkpt lat="31.29458453015118" lon="-6.150984948977859"><ele>1477.5</ele><time>2026-05-05T08:29:25Z</time></trkpt><trkpt lat="31.294458994741667" lon="-6.150956726727283"><ele>1477.25</ele><time>2026-05-05T08:29:26Z</time></trkpt><trkpt lat="31.294332429512238" lon="-6.150912217768918"><ele>1477.0</ele><time>2026-05-05T08:29:27Z</time></trkpt><trkpt lat="31.29420383605415" lon="-6.150866295351393"><ele>1477.0</ele><time>2026-05-05T08:29:28Z</time></trkpt><trkpt lat="31.294075145293387" lon="-6.150802422823632"><ele>1477.0</ele><time>2026-05-05T08:29:29Z</time></trkpt><trkpt lat="31.293940493781676" lon="-6.150757825567352"><ele>1477.0</ele><time>2026-05-05T08:29:30Z</time></trkpt><trkpt lat="31.29381442210482" lon="-6.150712785280214"><ele>1477.0</ele><time>2026-05-05T08:29:31Z</time></trkpt><trkpt lat="31.2936951614128" lon="-6.150661485930277"><ele>1477.0</ele><time>2026-05-05T08:29:32Z</time></trkpt><trkpt lat="31.29357942905325" lon="-6.1506090449876005"><ele>1477.0</ele><time>2026-05-05T08:29:33Z</time></trkpt><trkpt lat="31.293461674991825" lon="-6.150560212084488"><ele>1477.0</ele><time>2026-05-05T08:29:34Z</time></trkpt><trkpt lat="31.29333961886354" lon="-6.150515905707069"><ele>1477.0</ele><time>2026-05-05T08:29:35Z</time></trkpt><trkpt lat="31.293211260570512" lon="-6.150470936278639"><ele>1477.5</ele><time>2026-05-05T08:29:36Z</time></trkpt><trkpt lat="31.293076499241177" lon="-6.150420135554549"><ele>1478.0</ele><time>2026-05-05T08:29:37Z</time></trkpt><trkpt lat="31.29295023844502" lon="-6.150371874132901"><ele>1478.5</ele><time>2026-05-05T08:29:38Z</time></trkpt><trkpt lat="31.292818157821454" lon="-6.15032458893688"><ele>1479.0</ele><time>2026-05-05T08:29:39Z</time></trkpt><trkpt lat="31.29269107577111" lon="-6.150274955121879"><ele>1479.0</ele><time>2026-05-05T08:29:40Z</time></trkpt><trkpt lat="31.292556488470407" lon="-6.1502478039673685"><ele>1479.0</ele><time>2026-05-05T08:29:41Z</time></trkpt><trkpt lat="31.292424701994342" lon="-6.1502242641053595"><ele>1479.0</ele><time>2026-05-05T08:29:42Z</time></trkpt><trkpt lat="31.292292781872483" lon="-6.150198725758163"><ele>1479.0</ele><time>2026-05-05T08:29:43Z</time></trkpt><trkpt lat="31.292168164923417" lon="-6.1501746012314875"><ele>1479.0</ele><time>2026-05-05T08:29:44Z</time></trkpt><trkpt lat="31.292051542740758" lon="-6.150151617493104"><ele>1479.0</ele><time>2026-05-05T08:29:45Z</time></trkpt><trkpt lat="31.291938541494737" lon="-6.150128835894619"><ele>1479.0</ele><time>2026-05-05T08:29:46Z</time></trkpt><trkpt lat="31.291835730362003" lon="-6.150073072684522"><ele>1479.0</ele><time>2026-05-05T08:29:47Z</time></trkpt><trkpt lat="31.29173708284537" lon="-6.150023113067359"><ele>1479.0</ele><time>2026-05-05T08:29:48Z</time></trkpt><trkpt lat="31.29164539798402" lon="-6.149958881808004"><ele>1479.0</ele><time>2026-05-05T08:29:49Z</time></trkpt><trkpt lat="31.2915518346643" lon="-6.149897531713884"><ele>1479.0</ele><time>2026-05-05T08:29:50Z</time></trkpt><trkpt lat="31.291453138095804" lon="-6.149843839102839"><ele>1479.0</ele><time>2026-05-05T08:29:51Z</time></trkpt><trkpt lat="31.291353757715235" lon="-6.149787905937354"><ele>1479.0</ele><time>2026-05-05T08:29:52Z</time></trkpt><trkpt lat="31.291273949170975" lon="-6.149713341121172"><ele>1477.2</ele><time>2026-05-05T08:29:53Z</time></trkpt><trkpt lat="31.291181155306624" lon="-6.149645812371528"><ele>1475.4</ele><time>2026-05-05T08:29:54Z</time></trkpt><trkpt lat="31.291094901714878" lon="-6.149580345421807"><ele>1473.6</ele><time>2026-05-05T08:29:55Z</time></trkpt><trkpt lat="31.29101841653882" lon="-6.149502367260692"><ele>1471.8</ele><time>2026-05-05T08:29:56Z</time></trkpt><trkpt lat="31.290952293074195" lon="-6.1494051155379745"><ele>1470.0</ele><time>2026-05-05T08:29:57Z</time></trkpt><trkpt lat="31.290894417712167" lon="-6.149309281706621"><ele>1470.0</ele><time>2026-05-05T08:29:58Z</time></trkpt><trkpt lat="31.290817821011846" lon="-6.149221835554901"><ele>1470.0</ele><time>2026-05-05T08:29:59Z</time></trkpt><trkpt lat="31.290730464823632" lon="-6.149133645735066"><ele>1470.0</ele><time>2026-05-05T08:30:00Z</time></trkpt><trkpt lat="31.29062485642205" lon="-6.14905650515811"><ele>1470.0</ele><time>2026-05-05T08:30:01Z</time></trkpt><trkpt lat="31.29051144712875" lon="-6.148976821903767"><ele>1469.5</ele><time>2026-05-05T08:30:02Z</time></trkpt><trkpt lat="31.290393312548964" lon="-6.148893981177572"><ele>1469.0</ele><time>2026-05-05T08:30:03Z</time></trkpt><trkpt lat="31.290270010769586" lon="-6.148820024855051"><ele>1468.5</ele><time>2026-05-05T08:30:04Z</time></trkpt><trkpt lat="31.290145689948115" lon="-6.148748671888267"><ele>1468.0</ele><time>2026-05-05T08:30:05Z</time></trkpt><trkpt lat="31.290020869824115" lon="-6.148677240020052"><ele>1468.0</ele><time>2026-05-05T08:30:06Z</time></trkpt><trkpt lat="31.28988322322869" lon="-6.148641606455161"><ele>1468.0</ele><time>2026-05-05T08:30:07Z</time></trkpt><trkpt lat="31.28974385519365" lon="-6.148578577489303"><ele>1468.0</ele><time>2026-05-05T08:30:08Z</time></trkpt><trkpt lat="31.28961070474607" lon="-6.148508062825679"><ele>1468.0</ele><time>2026-05-05T08:30:09Z</time></trkpt><trkpt lat="31.289473292878455" lon="-6.148461925462278"><ele>1467.25</ele><time>2026-05-05T08:30:10Z</time></trkpt><trkpt lat="31.289338075677364" lon="-6.148412438558884"><ele>1466.5</ele><time>2026-05-05T08:30:11Z</time></trkpt><trkpt lat="31.289205553497954" lon="-6.148358670230598"><ele>1465.75</ele><time>2026-05-05T08:30:12Z</time></trkpt><trkpt lat="31.289074153908864" lon="-6.148301412954124"><ele>1465.0</ele><time>2026-05-05T08:30:13Z</time></trkpt><trkpt lat="31.28894749204337" lon="-6.148235796344649"><ele>1465.75</ele><time>2026-05-05T08:30:14Z</time></trkpt><trkpt lat="31.288824952616363" lon="-6.148159053352456"><ele>1466.5</ele><time>2026-05-05T08:30:15Z</time></trkpt><trkpt lat="31.28870883529522" lon="-6.148081854802203"><ele>1467.25</ele><time>2026-05-05T08:30:16Z</time></trkpt><trkpt lat="31.288599514009196" lon="-6.148002210170085"><ele>1468.0</ele><time>2026-05-05T08:30:17Z</time></trkpt><trkpt lat="31.288500124848138" lon="-6.147924506923485"><ele>1468.0</ele><time>2026-05-05T08:30:18Z</time></trkpt><trkpt lat="31.28841001578251" lon="-6.147876755946613"><ele>1468.0</ele><time>2026-05-05T08:30:19Z</time></trkpt><trkpt lat="31.288342025071017" lon="-6.147823030316965"><ele>1468.0</ele><time>2026-05-05T08:30:20Z</time></trkpt><trkpt lat="31.288290637713267" lon="-6.147763866005289"><ele>1468.0</ele><time>2026-05-05T08:30:21Z</time></trkpt><trkpt lat="31.28822670278296" lon="-6.1477219605318485"><ele>1468.0</ele><time>2026-05-05T08:30:22Z</time></trkpt><trkpt lat="31.28815550547325" lon="-6.147675322460258"><ele>1468.0</ele><time>2026-05-05T08:30:23Z</time></trkpt><trkpt lat="31.288079600705665" lon="-6.14760893826868"><ele>1468.0</ele><time>2026-05-05T08:30:24Z</time></trkpt><trkpt lat="31.28799845496557" lon="-6.1475254450113095"><ele>1468.0</ele><time>2026-05-05T08:30:25Z</time></trkpt><trkpt lat="31.287914822125277" lon="-6.147439118775468"><ele>1468.0</ele><time>2026-05-05T08:30:26Z</time></trkpt><trkpt lat="31.28782683928198" lon="-6.147346099360567"><ele>1468.0</ele><time>2026-05-05T08:30:27Z</time></trkpt><trkpt lat="31.28773328850261" lon="-6.147249645283745"><ele>1468.5</ele><time>2026-05-05T08:30:28Z</time></trkpt><trkpt lat="31.28764109038572" lon="-6.14715119461672"><ele>1469.0</ele><time>2026-05-05T08:30:29Z</time></trkpt><trkpt lat="31.287554307414876" lon="-6.147038607976752"><ele>1469.5</ele><time>2026-05-05T08:30:30Z</time></trkpt><trkpt lat="31.287454575187944" lon="-6.146933318244931"><ele>1470.0</ele><time>2026-05-05T08:30:31Z</time></trkpt><trkpt lat="31.287372352929047" lon="-6.146805888519148"><ele>1470.0</ele><time>2026-05-05T08:30:32Z</time></trkpt><trkpt lat="31.28729091681445" lon="-6.146675646275929"><ele>1470.0</ele><time>2026-05-05T08:30:33Z</time></trkpt><trkpt lat="31.28722135084293" lon="-6.146529558481575"><ele>1470.0</ele><time>2026-05-05T08:30:34Z</time></trkpt><trkpt lat="31.2871723889317" lon="-6.146378871208259"><ele>1470.0</ele><time>2026-05-05T08:30:35Z</time></trkpt><trkpt lat="31.28713652648625" lon="-6.146222145944148"><ele>1469.75</ele><time>2026-05-05T08:30:36Z</time></trkpt><trkpt lat="31.287110520078986" lon="-6.146069437669612"><ele>1469.5</ele><time>2026-05-05T08:30:37Z</time></trkpt><trkpt lat="31.28708667365668" lon="-6.1459129436624975"><ele>1469.25</ele><time>2026-05-05T08:30:38Z</time></trkpt><trkpt lat="31.287067166033573" lon="-6.145749993648988"><ele>1469.0</ele><time>2026-05-05T08:30:39Z</time></trkpt><trkpt lat="31.28705377368585" lon="-6.145591011846961"><ele>1470.25</ele><time>2026-05-05T08:30:40Z</time></trkpt><trkpt lat="31.28703994855671" lon="-6.145429906245366"><ele>1471.5</ele><time>2026-05-05T08:30:41Z</time></trkpt><trkpt lat="31.28702413693425" lon="-6.145270875769427"><ele>1472.75</ele><time>2026-05-05T08:30:42Z</time></trkpt><trkpt lat="31.286999103589277" lon="-6.145109241406765"><ele>1474.0</ele><time>2026-05-05T08:30:43Z</time></trkpt><trkpt lat="31.286961848028415" lon="-6.144952080309717"><ele>1474.5</ele><time>2026-05-05T08:30:44Z</time></trkpt><trkpt lat="31.286919971387587" lon="-6.144789522852041"><ele>1475.0</ele><time>2026-05-05T08:30:45Z</time></trkpt><trkpt lat="31.286874866925693" lon="-6.144628131361579"><ele>1475.5</ele><time>2026-05-05T08:30:46Z</time></trkpt><trkpt lat="31.28682606976296" lon="-6.144460727162347"><ele>1476.0</ele><time>2026-05-05T08:30:47Z</time></trkpt><trkpt lat="31.286783370746182" lon="-6.144287374918585"><ele>1476.0</ele><time>2026-05-05T08:30:48Z</time></trkpt><trkpt lat="31.286757593849657" lon="-6.144103917111538"><ele>1476.0</ele><time>2026-05-05T08:30:49Z</time></trkpt><trkpt lat="31.286743846609983" lon="-6.143925467297844"><ele>1476.0</ele><time>2026-05-05T08:30:50Z</time></trkpt><trkpt lat="31.286746338928502" lon="-6.143751820283831"><ele>1477.0</ele><time>2026-05-05T08:30:51Z</time></trkpt><trkpt lat="31.286701620282727" lon="-6.1435948005836"><ele>1478.0</ele><time>2026-05-05T08:30:52Z</time></trkpt><trkpt lat="31.286660354917696" lon="-6.143433849997141"><ele>1479.0</ele><time>2026-05-05T08:30:53Z</time></trkpt><trkpt lat="31.28660284583413" lon="-6.143282012122918"><ele>1480.0</ele><time>2026-05-05T08:30:54Z</time></trkpt><trkpt lat="31.286529546697267" lon="-6.143128121129811"><ele>1480.6666666666665</ele><time>2026-05-05T08:30:55Z</time></trkpt><trkpt lat="31.286445153212636" lon="-6.142976672587871"><ele>1481.3333333333333</ele><time>2026-05-05T08:30:56Z</time></trkpt><trkpt lat="31.286366261243593" lon="-6.142817990729311"><ele>1482.0</ele><time>2026-05-05T08:30:57Z</time></trkpt><trkpt lat="31.286303106950346" lon="-6.142653284745708"><ele>1482.6666666666667</ele><time>2026-05-05T08:30:58Z</time></trkpt><trkpt lat="31.286250532938404" lon="-6.142477931913803"><ele>1483.3333333333335</ele><time>2026-05-05T08:30:59Z</time></trkpt><trkpt lat="31.28622607391097" lon="-6.14228954062525"><ele>1484.0</ele><time>2026-05-05T08:31:00Z</time></trkpt><trkpt lat="31.286203164889514" lon="-6.142106989943749"><ele>1484.0</ele><time>2026-05-05T08:31:01Z</time></trkpt><trkpt lat="31.286184500814638" lon="-6.141923519403452"><ele>1484.0</ele><time>2026-05-05T08:31:02Z</time></trkpt><trkpt lat="31.286155134174916" lon="-6.141739508006852"><ele>1484.0</ele><time>2026-05-05T08:31:03Z</time></trkpt><trkpt lat="31.286142469817104" lon="-6.1415489760968685"><ele>1485.6666666666667</ele><time>2026-05-05T08:31:04Z</time></trkpt><trkpt lat="31.286130795869198" lon="-6.141362580165786"><ele>1487.3333333333333</ele><time>2026-05-05T08:31:05Z</time></trkpt><trkpt lat="31.28611859559332" lon="-6.141184346684431"><ele>1489.0</ele><time>2026-05-05T08:31:06Z</time></trkpt><trkpt lat="31.28610733851355" lon="-6.141018529988666"><ele>1489.0</ele><time>2026-05-05T08:31:07Z</time></trkpt><trkpt lat="31.286097933983477" lon="-6.1408655608062945"><ele>1489.0</ele><time>2026-05-05T08:31:08Z</time></trkpt><trkpt lat="31.28609082626803" lon="-6.140718951470962"><ele>1489.0</ele><time>2026-05-05T08:31:09Z</time></trkpt><trkpt lat="31.286061335834308" lon="-6.140576405991974"><ele>1489.0</ele><time>2026-05-05T08:31:10Z</time></trkpt><trkpt lat="31.286019968247544" lon="-6.140446385203858"><ele>1489.5</ele><time>2026-05-05T08:31:11Z</time></trkpt><trkpt lat="31.285968366457404" lon="-6.140323541592647"><ele>1490.0</ele><time>2026-05-05T08:31:12Z</time></trkpt><trkpt lat="31.285911036980362" lon="-6.1402063968039"><ele>1490.5</ele><time>2026-05-05T08:31:13Z</time></trkpt><trkpt lat="31.285824763385097" lon="-6.140109473301863"><ele>1491.0</ele><time>2026-05-05T08:31:14Z</time></trkpt><trkpt lat="31.285747502637978" lon="-6.139999080531159"><ele>1491.0</ele><time>2026-05-05T08:31:15Z</time></trkpt><trkpt lat="31.285667869821175" lon="-6.139885049695682"><ele>1491.0</ele><time>2026-05-05T08:31:16Z</time></trkpt><trkpt lat="31.28558484427436" lon="-6.139766108901339"><ele>1491.0</ele><time>2026-05-05T08:31:17Z</time></trkpt><trkpt lat="31.285497540677355" lon="-6.1396420463616215"><ele>1491.0</ele><time>2026-05-05T08:31:18Z</time></trkpt><trkpt lat="31.285420257182196" lon="-6.139509518683952"><ele>1491.75</ele><time>2026-05-05T08:31:19Z</time></trkpt><trkpt lat="31.28533212074597" lon="-6.139395001204968"><ele>1492.5</ele><time>2026-05-05T08:31:20Z</time></trkpt><trkpt lat="31.28524971607452" lon="-6.139286200223902"><ele>1493.25</ele><time>2026-05-05T08:31:21Z</time></trkpt><trkpt lat="31.285160175084023" lon="-6.139182499765047"><ele>1494.0</ele><time>2026-05-05T08:31:22Z</time></trkpt><trkpt lat="31.2850649722428" lon="-6.139086914631285"><ele>1493.25</ele><time>2026-05-05T08:31:23Z</time></trkpt><trkpt lat="31.284966065198216" lon="-6.13901197018751"><ele>1492.5</ele><time>2026-05-05T08:31:24Z</time></trkpt><trkpt lat="31.2848652461127" lon="-6.138953347917303"><ele>1491.75</ele><time>2026-05-05T08:31:25Z</time></trkpt><trkpt lat="31.284758436769053" lon="-6.138902628504601"><ele>1491.0</ele><time>2026-05-05T08:31:26Z</time></trkpt><trkpt lat="31.284648471853508" lon="-6.138855617247464"><ele>1491.0</ele><time>2026-05-05T08:31:27Z</time></trkpt><trkpt lat="31.284533839913838" lon="-6.13881224680667"><ele>1491.0</ele><time>2026-05-05T08:31:28Z</time></trkpt><trkpt lat="31.284412197022828" lon="-6.138807173860131"><ele>1491.0</ele><time>2026-05-05T08:31:29Z</time></trkpt><trkpt lat="31.284291282887633" lon="-6.138768579163292"><ele>1491.0</ele><time>2026-05-05T08:31:30Z</time></trkpt><trkpt lat="31.284153930551152" lon="-6.138792935613408"><ele>1491.0</ele><time>2026-05-05T08:31:31Z</time></trkpt><trkpt lat="31.284011899006448" lon="-6.13879620287303"><ele>1491.0</ele><time>2026-05-05T08:31:32Z</time></trkpt><trkpt lat="31.28387052535499" lon="-6.138815270580371"><ele>1491.0</ele><time>2026-05-05T08:31:33Z</time></trkpt><trkpt lat="31.283723600824366" lon="-6.138848348329187"><ele>1491.0</ele><time>2026-05-05T08:31:34Z</time></trkpt><trkpt lat="31.28355015326249" lon="-6.138888869039161"><ele>1490.6666666666667</ele><time>2026-05-05T08:31:35Z</time></trkpt><trkpt lat="31.283370733611825" lon="-6.138930053682164"><ele>1490.3333333333335</ele><time>2026-05-05T08:31:36Z</time></trkpt><trkpt lat="31.283171081465845" lon="-6.138980814032864"><ele>1490.0</ele><time>2026-05-05T08:31:37Z</time></trkpt><trkpt lat="31.28294840973678" lon="-6.139037441359764"><ele>1492.5</ele><time>2026-05-05T08:31:38Z</time></trkpt><trkpt lat="31.28271524633793" lon="-6.139095532716236"><ele>1495.0</ele><time>2026-05-05T08:31:39Z</time></trkpt><trkpt lat="31.28248258749481" lon="-6.139144015516599"><ele>1495.0</ele><time>2026-05-05T08:31:40Z</time></trkpt><trkpt lat="31.282276213289745" lon="-6.139196402797988"><ele>1495.0</ele><time>2026-05-05T08:31:41Z</time></trkpt><trkpt lat="31.282074360652537" lon="-6.139245606646869"><ele>1495.0</ele><time>2026-05-05T08:31:42Z</time></trkpt><trkpt lat="31.281879894817905" lon="-6.139295172995765"><ele>1496.3333333333333</ele><time>2026-05-05T08:31:43Z</time></trkpt><trkpt lat="31.28169258329474" lon="-6.139341992044043"><ele>1497.6666666666667</ele><time>2026-05-05T08:31:44Z</time></trkpt><trkpt lat="31.281512633285402" lon="-6.139381526395298"><ele>1499.0</ele><time>2026-05-05T08:31:45Z</time></trkpt><trkpt lat="31.281343994827015" lon="-6.139409561357376"><ele>1500.0</ele><time>2026-05-05T08:31:46Z</time></trkpt><trkpt lat="31.2811893056391" lon="-6.139425857197545"><ele>1501.0</ele><time>2026-05-05T08:31:47Z</time></trkpt><trkpt lat="31.28103051391741" lon="-6.139438369438328"><ele>1502.0</ele><time>2026-05-05T08:31:48Z</time></trkpt><trkpt lat="31.280881363495862" lon="-6.139446538476021"><ele>1502.0</ele><time>2026-05-05T08:31:49Z</time></trkpt><trkpt lat="31.280748760090912" lon="-6.139440821335004"><ele>1502.0</ele><time>2026-05-05T08:31:50Z</time></trkpt><trkpt lat="31.28062243743552" lon="-6.13945561167729"><ele>1502.0</ele><time>2026-05-05T08:31:51Z</time></trkpt><trkpt lat="31.280475353075463" lon="-6.139429139173969"><ele>1502.0</ele><time>2026-05-05T08:31:52Z</time></trkpt><trkpt lat="31.28034006477111" lon="-6.139415260765168"><ele>1502.75</ele><time>2026-05-05T08:31:53Z</time></trkpt><trkpt lat="31.280223086412846" lon="-6.139388034044424"><ele>1503.5</ele><time>2026-05-05T08:31:54Z</time></trkpt><trkpt lat="31.280113644988482" lon="-6.139339927543965"><ele>1504.25</ele><time>2026-05-05T08:31:55Z</time></trkpt><trkpt lat="31.279997932919656" lon="-6.139295060973285"><ele>1505.0</ele><time>2026-05-05T08:31:56Z</time></trkpt><trkpt lat="31.279890670220343" lon="-6.139222904224265"><ele>1505.0</ele><time>2026-05-05T08:31:57Z</time></trkpt><trkpt lat="31.27978623290837" lon="-6.13914635075876"><ele>1505.0</ele><time>2026-05-05T08:31:58Z</time></trkpt><trkpt lat="31.27968436545658" lon="-6.139071681037431"><ele>1505.0</ele><time>2026-05-05T08:31:59Z</time></trkpt><trkpt lat="31.279571107936277" lon="-6.138988662256202"><ele>1505.0</ele><time>2026-05-05T08:32:00Z</time></trkpt><trkpt lat="31.279467116904073" lon="-6.13889197926293"><ele>1505.5</ele><time>2026-05-05T08:32:01Z</time></trkpt><trkpt lat="31.27935137949593" lon="-6.138807470506766"><ele>1506.0</ele><time>2026-05-05T08:32:02Z</time></trkpt><trkpt lat="31.279224671070345" lon="-6.138734721018913"><ele>1506.5</ele><time>2026-05-05T08:32:03Z</time></trkpt><trkpt lat="31.279100101576002" lon="-6.138643410484975"><ele>1507.0</ele><time>2026-05-05T08:32:04Z</time></trkpt><trkpt lat="31.278974964615113" lon="-6.138551683984949"><ele>1506.3333333333333</ele><time>2026-05-05T08:32:05Z</time></trkpt><trkpt lat="31.278844593103585" lon="-6.1384566685828075"><ele>1505.6666666666667</ele><time>2026-05-05T08:32:06Z</time></trkpt><trkpt lat="31.27871161634123" lon="-6.138359970407435"><ele>1505.0</ele><time>2026-05-05T08:32:07Z</time></trkpt><trkpt lat="31.278573934872135" lon="-6.1382598510799395"><ele>1504.6666666666667</ele><time>2026-05-05T08:32:08Z</time></trkpt><trkpt lat="31.27843975134524" lon="-6.138162319960809"><ele>1504.3333333333333</ele><time>2026-05-05T08:32:09.001Z</time></trkpt><trkpt lat="31.27830635187046" lon="-6.138056531874653"><ele>1504.0</ele><time>2026-05-05T08:32:10.001Z</time></trkpt><trkpt lat="31.278152383096803" lon="-6.137987793727453"><ele>1503.0</ele><time>2026-05-05T08:32:11.001Z</time></trkpt><trkpt lat="31.27799670597649" lon="-6.137920059308437"><ele>1502.0</ele><time>2026-05-05T08:32:12.001Z</time></trkpt><trkpt lat="31.27783510242657" lon="-6.137870371766122"><ele>1501.0</ele><time>2026-05-05T08:32:13.001Z</time></trkpt><trkpt lat="31.277668128796147" lon="-6.1378442940167846"><ele>1501.0</ele><time>2026-05-05T08:32:14.001Z</time></trkpt><trkpt lat="31.27749929213311" lon="-6.13783207032249"><ele>1501.0</ele><time>2026-05-05T08:32:15.001Z</time></trkpt><trkpt lat="31.277331712046884" lon="-6.137820760006465"><ele>1501.0</ele><time>2026-05-05T08:32:16.001Z</time></trkpt><trkpt lat="31.27716129461778" lon="-6.137810423550197"><ele>1500.3333333333333</ele><time>2026-05-05T08:32:17.001Z</time></trkpt><trkpt lat="31.277003171483354" lon="-6.137798054594957"><ele>1499.6666666666667</ele><time>2026-05-05T08:32:18.001Z</time></trkpt><trkpt lat="31.27684180513118" lon="-6.137779737315482"><ele>1499.0</ele><time>2026-05-05T08:32:19.001Z</time></trkpt><trkpt lat="31.276678794538146" lon="-6.137763115778902"><ele>1499.0</ele><time>2026-05-05T08:32:20.001Z</time></trkpt><trkpt lat="31.27651681194129" lon="-6.137743596821633"><ele>1499.0</ele><time>2026-05-05T08:32:21.001Z</time></trkpt><trkpt lat="31.27635027463137" lon="-6.137727538815634"><ele>1499.0</ele><time>2026-05-05T08:32:22.001Z</time></trkpt><trkpt lat="31.276174665201506" lon="-6.137710197158398"><ele>1499.3333333333335</ele><time>2026-05-05T08:32:23.001Z</time></trkpt><trkpt lat="31.27599315804789" lon="-6.1376936799206"><ele>1499.6666666666667</ele><time>2026-05-05T08:32:24.001Z</time></trkpt><trkpt lat="31.275806372907056" lon="-6.137688063194658"><ele>1500.0</ele><time>2026-05-05T08:32:25.001Z</time></trkpt><trkpt lat="31.27562268945122" lon="-6.13769163044529"><ele>1499.3333333333333</ele><time>2026-05-05T08:32:26.001Z</time></trkpt><trkpt lat="31.275430720434017" lon="-6.1377027065579295"><ele>1498.6666666666665</ele><time>2026-05-05T08:32:27.001Z</time></trkpt><trkpt lat="31.275240216336066" lon="-6.137722103396775"><ele>1498.0</ele><time>2026-05-05T08:32:28.001Z</time></trkpt><trkpt lat="31.275051001866547" lon="-6.137743129856549"><ele>1498.0</ele><time>2026-05-05T08:32:29Z</time></trkpt><trkpt lat="31.27486156956379" lon="-6.137765411507188"><ele>1498.0</ele><time>2026-05-05T08:32:30Z</time></trkpt><trkpt lat="31.274671236505057" lon="-6.137787070632364"><ele>1498.0</ele><time>2026-05-05T08:32:31Z</time></trkpt><trkpt lat="31.27448434313805" lon="-6.137807861995375"><ele>1497.6666666666665</ele><time>2026-05-05T08:32:32Z</time></trkpt><trkpt lat="31.274291982979975" lon="-6.137826859123777"><ele>1497.3333333333333</ele><time>2026-05-05T08:32:33Z</time></trkpt><trkpt lat="31.274102617623175" lon="-6.137846285780982"><ele>1497.0</ele><time>2026-05-05T08:32:34Z</time></trkpt><trkpt lat="31.27391378573275" lon="-6.1378633980721355"><ele>1497.0</ele><time>2026-05-05T08:32:35Z</time></trkpt><trkpt lat="31.273722366082556" lon="-6.137881622051"><ele>1497.0</ele><time>2026-05-05T08:32:36Z</time></trkpt><trkpt lat="31.27353215632475" lon="-6.13790087685482"><ele>1497.0</ele><time>2026-05-05T08:32:37Z</time></trkpt><trkpt lat="31.273341041892028" lon="-6.137918346285878"><ele>1497.0</ele><time>2026-05-05T08:32:38Z</time></trkpt><trkpt lat="31.273148446585463" lon="-6.13793187679527"><ele>1497.0</ele><time>2026-05-05T08:32:39Z</time></trkpt><trkpt lat="31.27295351292339" lon="-6.1379404509716595"><ele>1497.0</ele><time>2026-05-05T08:32:40Z</time></trkpt><trkpt lat="31.272759703794083" lon="-6.13794671910337"><ele>1495.6666666666667</ele><time>2026-05-05T08:32:41Z</time></trkpt><trkpt lat="31.27256491137195" lon="-6.137950472282848"><ele>1494.3333333333335</ele><time>2026-05-05T08:32:42Z</time></trkpt><trkpt lat="31.2723687998485" lon="-6.137952734792274"><ele>1493.0</ele><time>2026-05-05T08:32:43Z</time></trkpt><trkpt lat="31.272176532055717" lon="-6.137955334162263"><ele>1492.6666666666667</ele><time>2026-05-05T08:32:44Z</time></trkpt><trkpt lat="31.27197806559453" lon="-6.137953806776293"><ele>1492.3333333333333</ele><time>2026-05-05T08:32:45Z</time></trkpt><trkpt lat="31.271787626397266" lon="-6.137954969203573"><ele>1492.0</ele><time>2026-05-05T08:32:46Z</time></trkpt><trkpt lat="31.271596771780384" lon="-6.137955330836778"><ele>1492.0</ele><time>2026-05-05T08:32:47Z</time></trkpt><trkpt lat="31.27140666953679" lon="-6.137956940377419"><ele>1492.0</ele><time>2026-05-05T08:32:48Z</time></trkpt><trkpt lat="31.271221748644038" lon="-6.137959135239724"><ele>1492.0</ele><time>2026-05-05T08:32:49Z</time></trkpt><trkpt lat="31.271032435711863" lon="-6.137961737213625"><ele>1492.0</ele><time>2026-05-05T08:32:50Z</time></trkpt><trkpt lat="31.270848009522737" lon="-6.137968822168739"><ele>1492.0</ele><time>2026-05-05T08:32:51Z</time></trkpt><trkpt lat="31.270656080826978" lon="-6.137970878249877"><ele>1492.0</ele><time>2026-05-05T08:32:52Z</time></trkpt><trkpt lat="31.270467884323832" lon="-6.137972332000885"><ele>1491.6666666666665</ele><time>2026-05-05T08:32:53Z</time></trkpt><trkpt lat="31.27027820983452" lon="-6.1379698834666065"><ele>1491.3333333333333</ele><time>2026-05-05T08:32:54Z</time></trkpt><trkpt lat="31.270083603859774" lon="-6.137989598123841"><ele>1491.0</ele><time>2026-05-05T08:32:55Z</time></trkpt><trkpt lat="31.269891372041883" lon="-6.137993396293936"><ele>1491.0</ele><time>2026-05-05T08:32:56Z</time></trkpt><trkpt lat="31.269698539491674" lon="-6.1379787219247115"><ele>1491.0</ele><time>2026-05-05T08:32:57Z</time></trkpt><trkpt lat="31.269509916924218" lon="-6.138001170449931"><ele>1491.0</ele><time>2026-05-05T08:32:58Z</time></trkpt><trkpt lat="31.269318080668167" lon="-6.1379977853776895"><ele>1491.0</ele><time>2026-05-05T08:32:59Z</time></trkpt><trkpt lat="31.269128646440436" lon="-6.137991428461968"><ele>1491.0</ele><time>2026-05-05T08:33:00Z</time></trkpt><trkpt lat="31.268945479189554" lon="-6.137971502438721"><ele>1491.0</ele><time>2026-05-05T08:33:01Z</time></trkpt><trkpt lat="31.26876252847699" lon="-6.137932434013194"><ele>1490.0</ele><time>2026-05-05T08:33:02Z</time></trkpt><trkpt lat="31.26859034463382" lon="-6.137831051741138"><ele>1489.0</ele><time>2026-05-05T08:33:03Z</time></trkpt><trkpt lat="31.268413892611868" lon="-6.137749156101076"><ele>1488.0</ele><time>2026-05-05T08:33:04Z</time></trkpt><trkpt lat="31.26823565422628" lon="-6.137664469403605"><ele>1487.6666666666667</ele><time>2026-05-05T08:33:05Z</time></trkpt><trkpt lat="31.268057680116197" lon="-6.137568524044084"><ele>1487.3333333333335</ele><time>2026-05-05T08:33:06Z</time></trkpt><trkpt lat="31.267883526530085" lon="-6.137467413651674"><ele>1487.0</ele><time>2026-05-05T08:33:07Z</time></trkpt><trkpt lat="31.267707576164593" lon="-6.137367123769676"><ele>1487.3333333333335</ele><time>2026-05-05T08:33:08Z</time></trkpt><trkpt lat="31.267527455622886" lon="-6.137268229647211"><ele>1487.6666666666667</ele><time>2026-05-05T08:33:09Z</time></trkpt><trkpt lat="31.267350805461117" lon="-6.137170407981976"><ele>1488.0</ele><time>2026-05-05T08:33:10Z</time></trkpt><trkpt lat="31.26717478088583" lon="-6.137069165047758"><ele>1488.0</ele><time>2026-05-05T08:33:11Z</time></trkpt><trkpt lat="31.266995772702366" lon="-6.136970921802786"><ele>1488.0</ele><time>2026-05-05T08:33:12Z</time></trkpt><trkpt lat="31.26681728098667" lon="-6.136876138395962"><ele>1488.0</ele><time>2026-05-05T08:33:13Z</time></trkpt><trkpt lat="31.26663724591283" lon="-6.136798467605936"><ele>1488.0</ele><time>2026-05-05T08:33:14Z</time></trkpt><trkpt lat="31.26646112817426" lon="-6.136707982196015"><ele>1488.0</ele><time>2026-05-05T08:33:15Z</time></trkpt><trkpt lat="31.266286520776738" lon="-6.136618203143991"><ele>1488.0</ele><time>2026-05-05T08:33:16Z</time></trkpt><trkpt lat="31.26611259405426" lon="-6.136526705841033"><ele>1482.6666666666667</ele><time>2026-05-05T08:33:17Z</time></trkpt><trkpt lat="31.265940134033023" lon="-6.136436221467009"><ele>1477.3333333333335</ele><time>2026-05-05T08:33:18Z</time></trkpt><trkpt lat="31.265762213716975" lon="-6.136391594187571"><ele>1472.0</ele><time>2026-05-05T08:33:19Z</time></trkpt><trkpt lat="31.265585142224552" lon="-6.136370191037183"><ele>1471.0</ele><time>2026-05-05T08:33:20Z</time></trkpt><trkpt lat="31.265408161345754" lon="-6.136386744574681"><ele>1470.0</ele><time>2026-05-05T08:33:21Z</time></trkpt><trkpt lat="31.265227575276043" lon="-6.1364285414965165"><ele>1469.0</ele><time>2026-05-05T08:33:22Z</time></trkpt><trkpt lat="31.265050782544968" lon="-6.136471605577334"><ele>1469.0</ele><time>2026-05-05T08:33:23Z</time></trkpt><trkpt lat="31.26487111079732" lon="-6.136508082087503"><ele>1469.0</ele><time>2026-05-05T08:33:24Z</time></trkpt><trkpt lat="31.264693670150983" lon="-6.1365434502062906"><ele>1469.0</ele><time>2026-05-05T08:33:25Z</time></trkpt><trkpt lat="31.26451324709012" lon="-6.136574073607002"><ele>1470.3333333333335</ele><time>2026-05-05T08:33:26Z</time></trkpt><trkpt lat="31.26433379597815" lon="-6.136604339699635"><ele>1471.6666666666667</ele><time>2026-05-05T08:33:27Z</time></trkpt><trkpt lat="31.264150460952727" lon="-6.136634134375845"><ele>1473.0</ele><time>2026-05-05T08:33:28Z</time></trkpt><trkpt lat="31.263965709746547" lon="-6.136664635715799"><ele>1475.0</ele><time>2026-05-05T08:33:29Z</time></trkpt><trkpt lat="31.263785019622294" lon="-6.136682363383358"><ele>1477.0</ele><time>2026-05-05T08:33:30Z</time></trkpt><trkpt lat="31.263601804570126" lon="-6.136681512798569"><ele>1479.0</ele><time>2026-05-05T08:33:31Z</time></trkpt><trkpt lat="31.26341731847006" lon="-6.136670506203184"><ele>1479.0</ele><time>2026-05-05T08:33:32Z</time></trkpt><trkpt lat="31.26323264569425" lon="-6.136650126932342"><ele>1479.0</ele><time>2026-05-05T08:33:33Z</time></trkpt><trkpt lat="31.263047516015337" lon="-6.136627199071782"><ele>1479.0</ele><time>2026-05-05T08:33:34Z</time></trkpt><trkpt lat="31.26286595818473" lon="-6.136594890003146"><ele>1476.0</ele><time>2026-05-05T08:33:35Z</time></trkpt><trkpt lat="31.26268353109298" lon="-6.136550095589748"><ele>1473.0</ele><time>2026-05-05T08:33:36Z</time></trkpt><trkpt lat="31.262505754181067" lon="-6.136495345932398"><ele>1470.0</ele><time>2026-05-05T08:33:37Z</time></trkpt><trkpt lat="31.26232703718798" lon="-6.136433252129245"><ele>1469.6666666666667</ele><time>2026-05-05T08:33:38Z</time></trkpt><trkpt lat="31.262149239342033" lon="-6.136387076134588"><ele>1469.3333333333335</ele><time>2026-05-05T08:33:39Z</time></trkpt><trkpt lat="31.26198185882306" lon="-6.136307802826902"><ele>1469.0</ele><time>2026-05-05T08:33:40Z</time></trkpt><trkpt lat="31.261810438873496" lon="-6.136251347408398"><ele>1469.0</ele><time>2026-05-05T08:33:41Z</time></trkpt><trkpt lat="31.2616445389518" lon="-6.136195783003836"><ele>1469.0</ele><time>2026-05-05T08:33:42Z</time></trkpt><trkpt lat="31.26148138855647" lon="-6.136141437134652"><ele>1469.0</ele><time>2026-05-05T08:33:43Z</time></trkpt><trkpt lat="31.261321562563392" lon="-6.136084632747475"><ele>1470.6666666666667</ele><time>2026-05-05T08:33:44Z</time></trkpt><trkpt lat="31.261170997563735" lon="-6.136025649628721"><ele>1472.3333333333333</ele><time>2026-05-05T08:33:45Z</time></trkpt><trkpt lat="31.26102187984616" lon="-6.135970702270797"><ele>1474.0</ele><time>2026-05-05T08:33:46Z</time></trkpt><trkpt lat="31.260879691752613" lon="-6.135909055711731"><ele>1474.0</ele><time>2026-05-05T08:33:47Z</time></trkpt><trkpt lat="31.260734172885456" lon="-6.135857497107039"><ele>1474.0</ele><time>2026-05-05T08:33:48Z</time></trkpt><trkpt lat="31.260604103554527" lon="-6.135779126833673"><ele>1474.0</ele><time>2026-05-05T08:33:49Z</time></trkpt><trkpt lat="31.26048008953923" lon="-6.135692654291576"><ele>1474.0</ele><time>2026-05-05T08:33:50Z</time></trkpt><trkpt lat="31.260348629732597" lon="-6.135624704360351"><ele>1469.75</ele><time>2026-05-05T08:33:51Z</time></trkpt><trkpt lat="31.260213587932377" lon="-6.1355593464509415"><ele>1465.5</ele><time>2026-05-05T08:33:52Z</time></trkpt><trkpt lat="31.260074393600853" lon="-6.135519463598733"><ele>1461.25</ele><time>2026-05-05T08:33:53Z</time></trkpt><trkpt lat="31.259932015224923" lon="-6.135499420535526"><ele>1457.0</ele><time>2026-05-05T08:33:54Z</time></trkpt><trkpt lat="31.259798946678867" lon="-6.135483062404532"><ele>1456.75</ele><time>2026-05-05T08:33:55Z</time></trkpt><trkpt lat="31.2596632979989" lon="-6.135465401302299"><ele>1456.5</ele><time>2026-05-05T08:33:56Z</time></trkpt><trkpt lat="31.259528926188885" lon="-6.13544702728333"><ele>1456.25</ele><time>2026-05-05T08:33:57Z</time></trkpt><trkpt lat="31.259389294196364" lon="-6.135423213269998"><ele>1456.0</ele><time>2026-05-05T08:33:58Z</time></trkpt><trkpt lat="31.259244203675326" lon="-6.13539642495304"><ele>1456.0</ele><time>2026-05-05T08:33:59Z</time></trkpt><trkpt lat="31.25910327846085" lon="-6.135375186034662"><ele>1456.0</ele><time>2026-05-05T08:34:00Z</time></trkpt><trkpt lat="31.258963429120673" lon="-6.135362113916921"><ele>1456.0</ele><time>2026-05-05T08:34:01Z</time></trkpt><trkpt lat="31.25882991239348" lon="-6.135368205573363"><ele>1456.0</ele><time>2026-05-05T08:34:02Z</time></trkpt><trkpt lat="31.258700371429896" lon="-6.13539184905672"><ele>1455.8</ele><time>2026-05-05T08:34:03Z</time></trkpt><trkpt lat="31.258580843344344" lon="-6.135419646398868"><ele>1455.6</ele><time>2026-05-05T08:34:04Z</time></trkpt><trkpt lat="31.258478129785072" lon="-6.13544109810942"><ele>1455.4</ele><time>2026-05-05T08:34:05Z</time></trkpt><trkpt lat="31.25839442874863" lon="-6.1354558653279705"><ele>1455.2</ele><time>2026-05-05T08:34:06Z</time></trkpt><trkpt lat="31.258294149284588" lon="-6.135474887827877"><ele>1455.0</ele><time>2026-05-05T08:34:08Z</time></trkpt><trkpt lat="31.258192601912096" lon="-6.1354708687689286"><ele>1455.0</ele><time>2026-05-05T08:34:10Z</time></trkpt><trkpt lat="31.258113844110348" lon="-6.135389384438385"><ele>1455.0</ele><time>2026-05-05T08:34:12Z</time></trkpt><trkpt lat="31.25806090304764" lon="-6.135262534249056"><ele>1455.0</ele><time>2026-05-05T08:34:14Z</time></trkpt><trkpt lat="31.258067836450657" lon="-6.135143963163056"><ele>1455.0</ele><time>2026-05-05T08:34:15.001Z</time></trkpt><trkpt lat="31.258084756640635" lon="-6.13506500423951"><ele>1455.0</ele><time>2026-05-05T08:34:16.001Z</time></trkpt><trkpt lat="31.25813655919088" lon="-6.134990772174626"><ele>1455.0</ele><time>2026-05-05T08:34:17.001Z</time></trkpt><trkpt lat="31.25817442445086" lon="-6.134921552764883"><ele>1455.0</ele><time>2026-05-05T08:34:18.001Z</time></trkpt><trkpt lat="31.258215591193927" lon="-6.1348633880632395"><ele>1455.0</ele><time>2026-05-05T08:34:19.001Z</time></trkpt><trkpt lat="31.258341522798453" lon="-6.134804060664907"><ele>1455.0</ele><time>2026-05-05T08:34:21.001Z</time></trkpt><trkpt lat="31.25841839069318" lon="-6.134805109073404"><ele>1455.0</ele><time>2026-05-05T08:34:22.001Z</time></trkpt><trkpt lat="31.258495183579853" lon="-6.134852402440882"><ele>1455.0</ele><time>2026-05-05T08:34:23.001Z</time></trkpt><trkpt lat="31.258557250828336" lon="-6.134900943959713"><ele>1455.0</ele><time>2026-05-05T08:34:24.001Z</time></trkpt><trkpt lat="31.258611170418884" lon="-6.134953050716315"><ele>1455.0</ele><time>2026-05-05T08:34:25.001Z</time></trkpt><trkpt lat="31.258669553701015" lon="-6.134997676422675"><ele>1455.0</ele><time>2026-05-05T08:34:26.001Z</time></trkpt><trkpt lat="31.258751098044357" lon="-6.135034195063631"><ele>1455.0</ele><time>2026-05-05T08:34:27.001Z</time></trkpt><trkpt lat="31.258847248392488" lon="-6.135045032575823"><ele>1455.0</ele><time>2026-05-05T08:34:28.001Z</time></trkpt><trkpt lat="31.258954685938498" lon="-6.135029669417842"><ele>1455.0</ele><time>2026-05-05T08:34:29.001Z</time></trkpt><trkpt lat="31.25907580607461" lon="-6.1350151116853935"><ele>1455.25</ele><time>2026-05-05T08:34:30.001Z</time></trkpt><trkpt lat="31.25919569996706" lon="-6.135000263010458"><ele>1455.5</ele><time>2026-05-05T08:34:31.001Z</time></trkpt><trkpt lat="31.25930955388021" lon="-6.13498529263045"><ele>1455.75</ele><time>2026-05-05T08:34:32.001Z</time></trkpt><trkpt lat="31.259418050353908" lon="-6.134964296562859"><ele>1456.0</ele><time>2026-05-05T08:34:33.001Z</time></trkpt><trkpt lat="31.2595287285926" lon="-6.134939416470636"><ele>1456.0</ele><time>2026-05-05T08:34:34Z</time></trkpt><trkpt lat="31.259651546177015" lon="-6.134913281961238"><ele>1456.0</ele><time>2026-05-05T08:34:35Z</time></trkpt><trkpt lat="31.25977941736578" lon="-6.134888728752545"><ele>1456.0</ele><time>2026-05-05T08:34:36Z</time></trkpt><trkpt lat="31.259917079882296" lon="-6.134862382789407"><ele>1456.0</ele><time>2026-05-05T08:34:37Z</time></trkpt><trkpt lat="31.26005458448524" lon="-6.134838149289611"><ele>1453.5</ele><time>2026-05-05T08:34:38Z</time></trkpt><trkpt lat="31.260185064633834" lon="-6.134811734413296"><ele>1451.0</ele><time>2026-05-05T08:34:39Z</time></trkpt><trkpt lat="31.260315935773995" lon="-6.134785061138591"><ele>1448.5</ele><time>2026-05-05T08:34:40Z</time></trkpt><trkpt lat="31.260444011820592" lon="-6.134760090137164"><ele>1446.0</ele><time>2026-05-05T08:34:41Z</time></trkpt><trkpt lat="31.260570989017513" lon="-6.1347357942776615"><ele>1446.25</ele><time>2026-05-05T08:34:42Z</time></trkpt><trkpt lat="31.260691182073664" lon="-6.134703559687891"><ele>1446.5</ele><time>2026-05-05T08:34:43Z</time></trkpt><trkpt lat="31.26079502403134" lon="-6.134658623739024"><ele>1446.75</ele><time>2026-05-05T08:34:44Z</time></trkpt><trkpt lat="31.260874754334612" lon="-6.134575361465486"><ele>1447.0</ele><time>2026-05-05T08:34:45Z</time></trkpt><trkpt lat="31.260934950344648" lon="-6.134467859617086"><ele>1447.0</ele><time>2026-05-05T08:34:46Z</time></trkpt><trkpt lat="31.260965532660343" lon="-6.13434215872319"><ele>1447.0</ele><time>2026-05-05T08:34:47Z</time></trkpt><trkpt lat="31.2609575412532" lon="-6.1342144717873754"><ele>1447.0</ele><time>2026-05-05T08:34:48Z</time></trkpt><trkpt lat="31.26089434712053" lon="-6.13409816953806"><ele>1447.0</ele><time>2026-05-05T08:34:49Z</time></trkpt><trkpt lat="31.260792756205525" lon="-6.134033370199007"><ele>1447.3333333333333</ele><time>2026-05-05T08:34:50Z</time></trkpt><trkpt lat="31.260687785549766" lon="-6.133925918098326"><ele>1447.6666666666667</ele><time>2026-05-05T08:34:51Z</time></trkpt><trkpt lat="31.26057656097898" lon="-6.133803388195056"><ele>1448.0</ele><time>2026-05-05T08:34:52Z</time></trkpt><trkpt lat="31.260457245958428" lon="-6.133665037450987"><ele>1448.0</ele><time>2026-05-05T08:34:53Z</time></trkpt><trkpt lat="31.26033184737893" lon="-6.133520828335367"><ele>1448.0</ele><time>2026-05-05T08:34:54Z</time></trkpt><trkpt lat="31.260224252989147" lon="-6.133396584981627"><ele>1448.0</ele><time>2026-05-05T08:34:55Z</time></trkpt><trkpt lat="31.26012555176251" lon="-6.133281166427446"><ele>1448.5</ele><time>2026-05-05T08:34:56Z</time></trkpt><trkpt lat="31.260027066749974" lon="-6.133165293981126"><ele>1449.0</ele><time>2026-05-05T08:34:57Z</time></trkpt><trkpt lat="31.259936041457134" lon="-6.133058099239613"><ele>1449.5</ele><time>2026-05-05T08:34:58Z</time></trkpt><trkpt lat="31.259852910182047" lon="-6.132953699329422"><ele>1450.0</ele><time>2026-05-05T08:34:59Z</time></trkpt><trkpt lat="31.259775503388244" lon="-6.132853828412329"><ele>1448.25</ele><time>2026-05-05T08:35:00Z</time></trkpt><trkpt lat="31.25973672630776" lon="-6.1327275967408745"><ele>1446.5</ele><time>2026-05-05T08:35:01Z</time></trkpt><trkpt lat="31.2596972450803" lon="-6.132610004610212"><ele>1444.75</ele><time>2026-05-05T08:35:02Z</time></trkpt><trkpt lat="31.25965606242666" lon="-6.1324854469115895"><ele>1443.0</ele><time>2026-05-05T08:35:03Z</time></trkpt><trkpt lat="31.259665734753156" lon="-6.132333160445036"><ele>1442.5</ele><time>2026-05-05T08:35:04Z</time></trkpt><trkpt lat="31.259692110200938" lon="-6.132195551466997"><ele>1442.0</ele><time>2026-05-05T08:35:05Z</time></trkpt><trkpt lat="31.259794586282315" lon="-6.132079920910515"><ele>1441.5</ele><time>2026-05-05T08:35:06Z</time></trkpt><trkpt lat="31.259886429232097" lon="-6.131965855099252"><ele>1441.0</ele><time>2026-05-05T08:35:07Z</time></trkpt><trkpt lat="31.259989229711277" lon="-6.131855606214845"><ele>1442.25</ele><time>2026-05-05T08:35:08Z</time></trkpt><trkpt lat="31.260095703376802" lon="-6.131734726028898"><ele>1443.5</ele><time>2026-05-05T08:35:09Z</time></trkpt><trkpt lat="31.260197901870324" lon="-6.131617291567128"><ele>1444.75</ele><time>2026-05-05T08:35:10Z</time></trkpt><trkpt lat="31.260297115653913" lon="-6.131507086478571"><ele>1446.0</ele><time>2026-05-05T08:35:11Z</time></trkpt><trkpt lat="31.260392550359708" lon="-6.131404160233154"><ele>1446.5</ele><time>2026-05-05T08:35:12Z</time></trkpt><trkpt lat="31.26047717365441" lon="-6.131306668685705"><ele>1447.0</ele><time>2026-05-05T08:35:13Z</time></trkpt><trkpt lat="31.260526111872036" lon="-6.131192711492998"><ele>1447.5</ele><time>2026-05-05T08:35:14Z</time></trkpt><trkpt lat="31.260579220200597" lon="-6.131081676327942"><ele>1448.0</ele><time>2026-05-05T08:35:15Z</time></trkpt><trkpt lat="31.26057433965863" lon="-6.130939955537624"><ele>1448.0</ele><time>2026-05-05T08:35:16Z</time></trkpt><trkpt lat="31.260555877000513" lon="-6.130804547693035"><ele>1448.0</ele><time>2026-05-05T08:35:17Z</time></trkpt><trkpt lat="31.260523760765224" lon="-6.130678761535062"><ele>1448.0</ele><time>2026-05-05T08:35:18Z</time></trkpt><trkpt lat="31.26050085436871" lon="-6.130540068716755"><ele>1448.0</ele><time>2026-05-05T08:35:19Z</time></trkpt><trkpt lat="31.26037233847537" lon="-6.130491526337097"><ele>1448.0</ele><time>2026-05-05T08:35:20Z</time></trkpt><trkpt lat="31.26026334747952" lon="-6.13040098005082"><ele>1448.0</ele><time>2026-05-05T08:35:21Z</time></trkpt><trkpt lat="31.260145623486583" lon="-6.130305138734079"><ele>1448.0</ele><time>2026-05-05T08:35:22Z</time></trkpt><trkpt lat="31.260022607308937" lon="-6.130200491095042"><ele>1448.0</ele><time>2026-05-05T08:35:23Z</time></trkpt><trkpt lat="31.259895500534107" lon="-6.130094005988836"><ele>1447.3333333333335</ele><time>2026-05-05T08:35:24Z</time></trkpt><trkpt lat="31.259763126435914" lon="-6.129984144483111"><ele>1446.6666666666667</ele><time>2026-05-05T08:35:25Z</time></trkpt><trkpt lat="31.25963220889792" lon="-6.129873713941057"><ele>1446.0</ele><time>2026-05-05T08:35:26Z</time></trkpt><trkpt lat="31.259495538259635" lon="-6.129759749177115"><ele>1444.6666666666667</ele><time>2026-05-05T08:35:27Z</time></trkpt><trkpt lat="31.25935139037447" lon="-6.129643448244351"><ele>1443.3333333333335</ele><time>2026-05-05T08:35:28Z</time></trkpt><trkpt lat="31.25920611897832" lon="-6.129527467169659"><ele>1442.0</ele><time>2026-05-05T08:35:29Z</time></trkpt><trkpt lat="31.25906170156838" lon="-6.129412159661589"><ele>1440.6666666666667</ele><time>2026-05-05T08:35:30Z</time></trkpt><trkpt lat="31.258913965121863" lon="-6.1292944109126895"><ele>1439.3333333333333</ele><time>2026-05-05T08:35:31Z</time></trkpt><trkpt lat="31.25876751079798" lon="-6.129176855240165"><ele>1438.0</ele><time>2026-05-05T08:35:32Z</time></trkpt><trkpt lat="31.258627264043966" lon="-6.129058716729684"><ele>1438.0</ele><time>2026-05-05T08:35:33Z</time></trkpt><trkpt lat="31.258495671099237" lon="-6.1289420589255625"><ele>1438.0</ele><time>2026-05-05T08:35:34Z</time></trkpt><trkpt lat="31.25837139457409" lon="-6.1288314910882296"><ele>1438.0</ele><time>2026-05-05T08:35:35Z</time></trkpt><trkpt lat="31.2582546107869" lon="-6.128718296327289"><ele>1438.0</ele><time>2026-05-05T08:35:36Z</time></trkpt><trkpt lat="31.258145846410294" lon="-6.128602850643187"><ele>1438.0</ele><time>2026-05-05T08:35:37Z</time></trkpt><trkpt lat="31.25804718065922" lon="-6.128473717601622"><ele>1438.0</ele><time>2026-05-05T08:35:38Z</time></trkpt><trkpt lat="31.257959480631857" lon="-6.1283291058026155"><ele>1438.0</ele><time>2026-05-05T08:35:39Z</time></trkpt><trkpt lat="31.257882343899237" lon="-6.128164052920861"><ele>1437.3333333333333</ele><time>2026-05-05T08:35:40Z</time></trkpt><trkpt lat="31.257806400793122" lon="-6.127995080554802"><ele>1436.6666666666667</ele><time>2026-05-05T08:35:41Z</time></trkpt><trkpt lat="31.257740385118993" lon="-6.1278123440168"><ele>1436.0</ele><time>2026-05-05T08:35:42Z</time></trkpt><trkpt lat="31.257676756202205" lon="-6.127628624986307"><ele>1436.0</ele><time>2026-05-05T08:35:43Z</time></trkpt><trkpt lat="31.257619290329906" lon="-6.127450029972689"><ele>1436.0</ele><time>2026-05-05T08:35:44Z</time></trkpt><trkpt lat="31.257563287433378" lon="-6.1272727645108205"><ele>1436.0</ele><time>2026-05-05T08:35:45Z</time></trkpt><trkpt lat="31.257509966236835" lon="-6.127103177568961"><ele>1436.0</ele><time>2026-05-05T08:35:46Z</time></trkpt><trkpt lat="31.25745503393135" lon="-6.1269441910722096"><ele>1436.0</ele><time>2026-05-05T08:35:47Z</time></trkpt><trkpt lat="31.2573969269498" lon="-6.126792859434051"><ele>1436.0</ele><time>2026-05-05T08:35:48Z</time></trkpt><trkpt lat="31.257333703258393" lon="-6.126657452674079"><ele>1436.0</ele><time>2026-05-05T08:35:49Z</time></trkpt><trkpt lat="31.257263868780196" lon="-6.126532577592523"><ele>1437.25</ele><time>2026-05-05T08:35:50Z</time></trkpt><trkpt lat="31.257182646127198" lon="-6.126405966618122"><ele>1438.5</ele><time>2026-05-05T08:35:51Z</time></trkpt><trkpt lat="31.25709770850748" lon="-6.126283023328935"><ele>1439.75</ele><time>2026-05-05T08:35:52Z</time></trkpt><trkpt lat="31.257008314248534" lon="-6.126185426583479"><ele>1441.0</ele><time>2026-05-05T08:35:53Z</time></trkpt><trkpt lat="31.25691382517169" lon="-6.126110475840833"><ele>1441.0</ele><time>2026-05-05T08:35:54Z</time></trkpt><trkpt lat="31.25681021948739" lon="-6.126057187572815"><ele>1441.0</ele><time>2026-05-05T08:35:55Z</time></trkpt><trkpt lat="31.25668976328311" lon="-6.126004782277689"><ele>1441.0</ele><time>2026-05-05T08:35:56Z</time></trkpt><trkpt lat="31.256574275499098" lon="-6.125969429781351"><ele>1441.0</ele><time>2026-05-05T08:35:57Z</time></trkpt><trkpt lat="31.256468480029614" lon="-6.125937042179951"><ele>1440.1999999999998</ele><time>2026-05-05T08:35:58Z</time></trkpt><trkpt lat="31.256367786944484" lon="-6.125917890739604"><ele>1439.3999999999999</ele><time>2026-05-05T08:35:59Z</time></trkpt><trkpt lat="31.256270015138377" lon="-6.125903451374211"><ele>1438.6</ele><time>2026-05-05T08:36:00Z</time></trkpt><trkpt lat="31.256166583232698" lon="-6.125899414121441"><ele>1437.8</ele><time>2026-05-05T08:36:01Z</time></trkpt><trkpt lat="31.25605189362427" lon="-6.125891509971394"><ele>1437.0</ele><time>2026-05-05T08:36:02Z</time></trkpt><trkpt lat="31.255925510119962" lon="-6.125863455910794"><ele>1437.0</ele><time>2026-05-05T08:36:03Z</time></trkpt><trkpt lat="31.255792788317454" lon="-6.125842188798416"><ele>1437.0</ele><time>2026-05-05T08:36:04Z</time></trkpt><trkpt lat="31.25565353974421" lon="-6.125803504410148"><ele>1437.0</ele><time>2026-05-05T08:36:05Z</time></trkpt><trkpt lat="31.255525028967853" lon="-6.1257583006082506"><ele>1437.0</ele><time>2026-05-05T08:36:06Z</time></trkpt><trkpt lat="31.25540185767455" lon="-6.1257079358943765"><ele>1437.0</ele><time>2026-05-05T08:36:07Z</time></trkpt><trkpt lat="31.255274314522783" lon="-6.12566556175206"><ele>1437.0</ele><time>2026-05-05T08:36:08Z</time></trkpt><trkpt lat="31.255154597093526" lon="-6.1255764055333195"><ele>1437.0</ele><time>2026-05-05T08:36:09Z</time></trkpt><trkpt lat="31.255038540296937" lon="-6.125490886390913"><ele>1437.0</ele><time>2026-05-05T08:36:10Z</time></trkpt><trkpt lat="31.254930983365675" lon="-6.125410196839098"><ele>1437.0</ele><time>2026-05-05T08:36:11Z</time></trkpt><trkpt lat="31.25483053114747" lon="-6.125343670403521"><ele>1437.0</ele><time>2026-05-05T08:36:12Z</time></trkpt><trkpt lat="31.254731933828133" lon="-6.125279471868136"><ele>1437.0</ele><time>2026-05-05T08:36:13Z</time></trkpt><trkpt lat="31.25463838044308" lon="-6.12522005608628"><ele>1437.0</ele><time>2026-05-05T08:36:14Z</time></trkpt><trkpt lat="31.254546516604307" lon="-6.125167390680783"><ele>1437.0</ele><time>2026-05-05T08:36:15Z</time></trkpt><trkpt lat="31.25445549963651" lon="-6.125128666526564"><ele>1436.8</ele><time>2026-05-05T08:36:16Z</time></trkpt><trkpt lat="31.254363704468247" lon="-6.125089957138053"><ele>1436.6</ele><time>2026-05-05T08:36:17Z</time></trkpt><trkpt lat="31.254272618963462" lon="-6.125051546138835"><ele>1436.3999999999999</ele><time>2026-05-05T08:36:18Z</time></trkpt><trkpt lat="31.254185871747495" lon="-6.125052690636919"><ele>1436.1999999999998</ele><time>2026-05-05T08:36:19Z</time></trkpt><trkpt lat="31.254096953058305" lon="-6.125060621961787"><ele>1436.0</ele><time>2026-05-05T08:36:20Z</time></trkpt><trkpt lat="31.254000260243274" lon="-6.1250726239650595"><ele>1436.6</ele><time>2026-05-05T08:36:21.001Z</time></trkpt><trkpt lat="31.253928495400892" lon="-6.125166427665875"><ele>1437.1999999999998</ele><time>2026-05-05T08:36:22.001Z</time></trkpt><trkpt lat="31.253845865504807" lon="-6.125239895760574"><ele>1437.8000000000002</ele><time>2026-05-05T08:36:23.001Z</time></trkpt><trkpt lat="31.25378315250408" lon="-6.125333760788138"><ele>1438.4</ele><time>2026-05-05T08:36:24.001Z</time></trkpt><trkpt lat="31.25372380762903" lon="-6.125438235205082"><ele>1439.0</ele><time>2026-05-05T08:36:25.001Z</time></trkpt><trkpt lat="31.253656277794523" lon="-6.125549839839228"><ele>1439.0</ele><time>2026-05-05T08:36:26.001Z</time></trkpt><trkpt lat="31.2535974999899" lon="-6.125655449729468"><ele>1439.0</ele><time>2026-05-05T08:36:27.001Z</time></trkpt><trkpt lat="31.25353411979804" lon="-6.125753814203217"><ele>1439.0</ele><time>2026-05-05T08:36:28.001Z</time></trkpt><trkpt lat="31.25346961270949" lon="-6.125853328357477"><ele>1439.0</ele><time>2026-05-05T08:36:29.001Z</time></trkpt><trkpt lat="31.25338343862106" lon="-6.125941734569038"><ele>1439.0</ele><time>2026-05-05T08:36:30.001Z</time></trkpt><trkpt lat="31.253291621482294" lon="-6.126016732592088"><ele>1438.75</ele><time>2026-05-05T08:36:31.001Z</time></trkpt><trkpt lat="31.253184954487512" lon="-6.126089519717844"><ele>1438.5</ele><time>2026-05-05T08:36:32.001Z</time></trkpt><trkpt lat="31.25307789298134" lon="-6.126166562795104"><ele>1438.25</ele><time>2026-05-05T08:36:33.001Z</time></trkpt><trkpt lat="31.252959516581015" lon="-6.126250702790953"><ele>1438.0</ele><time>2026-05-05T08:36:34.001Z</time></trkpt><trkpt lat="31.252826256303862" lon="-6.126328130355727"><ele>1436.0</ele><time>2026-05-05T08:36:35.001Z</time></trkpt><trkpt lat="31.252703290698793" lon="-6.126446855201526"><ele>1434.0</ele><time>2026-05-05T08:36:36.001Z</time></trkpt><trkpt lat="31.25257281008793" lon="-6.126548893433655"><ele>1432.0</ele><time>2026-05-05T08:36:37Z</time></trkpt><trkpt lat="31.252442055251308" lon="-6.126638439182259"><ele>1431.75</ele><time>2026-05-05T08:36:38Z</time></trkpt><trkpt lat="31.252330278273476" lon="-6.126731962376463"><ele>1431.5</ele><time>2026-05-05T08:36:39Z</time></trkpt><trkpt lat="31.252220057975574" lon="-6.126821700746907"><ele>1431.25</ele><time>2026-05-05T08:36:40Z</time></trkpt><trkpt lat="31.25211478041045" lon="-6.1269060017779235"><ele>1431.0</ele><time>2026-05-05T08:36:41Z</time></trkpt><trkpt lat="31.252005917728034" lon="-6.126986930966632"><ele>1431.0</ele><time>2026-05-05T08:36:42Z</time></trkpt><trkpt lat="31.251889115866085" lon="-6.127065669359328"><ele>1431.0</ele><time>2026-05-05T08:36:43Z</time></trkpt><trkpt lat="31.25176339610339" lon="-6.12712509640134"><ele>1431.0</ele><time>2026-05-05T08:36:44Z</time></trkpt><trkpt lat="31.251629729251977" lon="-6.127178716118408"><ele>1431.0</ele><time>2026-05-05T08:36:45Z</time></trkpt><trkpt lat="31.251492324559464" lon="-6.127229950217231"><ele>1432.5</ele><time>2026-05-05T08:36:46Z</time></trkpt><trkpt lat="31.25135431906126" lon="-6.12729796442874"><ele>1434.0</ele><time>2026-05-05T08:36:47Z</time></trkpt><trkpt lat="31.251214438368894" lon="-6.1273559516815945"><ele>1435.5</ele><time>2026-05-05T08:36:48Z</time></trkpt><trkpt lat="31.251075491212504" lon="-6.1274126099635176"><ele>1437.0</ele><time>2026-05-05T08:36:49Z</time></trkpt><trkpt lat="31.250930052970407" lon="-6.127462724399952"><ele>1437.6666666666667</ele><time>2026-05-05T08:36:50Z</time></trkpt><trkpt lat="31.25078839052134" lon="-6.127516902821675"><ele>1438.3333333333335</ele><time>2026-05-05T08:36:51Z</time></trkpt><trkpt lat="31.25063342319457" lon="-6.127580467877527"><ele>1439.0</ele><time>2026-05-05T08:36:52Z</time></trkpt><trkpt lat="31.250469092717765" lon="-6.127641777014472"><ele>1440.3333333333335</ele><time>2026-05-05T08:36:53Z</time></trkpt><trkpt lat="31.250309013164287" lon="-6.1276966873343985"><ele>1441.6666666666667</ele><time>2026-05-05T08:36:54Z</time></trkpt><trkpt lat="31.25016437076794" lon="-6.127743404736925"><ele>1443.0</ele><time>2026-05-05T08:36:55Z</time></trkpt><trkpt lat="31.250030983952236" lon="-6.127789378793574"><ele>1443.0</ele><time>2026-05-05T08:36:56Z</time></trkpt><trkpt lat="31.24989599050343" lon="-6.127812356465233"><ele>1443.0</ele><time>2026-05-05T08:36:57Z</time></trkpt><trkpt lat="31.249784674126566" lon="-6.127826324293252"><ele>1443.0</ele><time>2026-05-05T08:36:58Z</time></trkpt><trkpt lat="31.249681759774827" lon="-6.127828433728465"><ele>1443.0</ele><time>2026-05-05T08:36:59Z</time></trkpt><trkpt lat="31.24957105171623" lon="-6.127828054033601"><ele>1442.5</ele><time>2026-05-05T08:37:00Z</time></trkpt><trkpt lat="31.24944625909774" lon="-6.127827626032282"><ele>1442.0</ele><time>2026-05-05T08:37:01Z</time></trkpt><trkpt lat="31.249310925228112" lon="-6.127827161871528"><ele>1441.5</ele><time>2026-05-05T08:37:02Z</time></trkpt><trkpt lat="31.249169075048272" lon="-6.12782610003906"><ele>1441.0</ele><time>2026-05-05T08:37:03Z</time></trkpt><trkpt lat="31.249032431989214" lon="-6.127826017105735"><ele>1440.25</ele><time>2026-05-05T08:37:04Z</time></trkpt><trkpt lat="31.248899128058973" lon="-6.127826017104929"><ele>1439.5</ele><time>2026-05-05T08:37:05Z</time></trkpt><trkpt lat="31.24876821089697" lon="-6.1278260171042"><ele>1438.75</ele><time>2026-05-05T08:37:06Z</time></trkpt><trkpt lat="31.248647862704747" lon="-6.1278260171049554"><ele>1438.0</ele><time>2026-05-05T08:37:07Z</time></trkpt><trkpt lat="31.248531046371845" lon="-6.12782578702864"><ele>1438.0</ele><time>2026-05-05T08:37:08Z</time></trkpt><trkpt lat="31.24841650884471" lon="-6.12782489667309"><ele>1438.0</ele><time>2026-05-05T08:37:09Z</time></trkpt><trkpt lat="31.24830284770753" lon="-6.127824013151377"><ele>1438.0</ele><time>2026-05-05T08:37:10Z</time></trkpt><trkpt lat="31.248187804009838" lon="-6.1278240834671305"><ele>1438.0</ele><time>2026-05-05T08:37:11Z</time></trkpt><trkpt lat="31.248070268529197" lon="-6.127806437215884"><ele>1438.0</ele><time>2026-05-05T08:37:12Z</time></trkpt><trkpt lat="31.24794851730225" lon="-6.1278130061106015"><ele>1438.0</ele><time>2026-05-05T08:37:13Z</time></trkpt><trkpt lat="31.24782763511394" lon="-6.127808878473551"><ele>1438.0</ele><time>2026-05-05T08:37:14Z</time></trkpt><trkpt lat="31.247712883359213" lon="-6.127801236908818"><ele>1438.0</ele><time>2026-05-05T08:37:15Z</time></trkpt><trkpt lat="31.24760277950355" lon="-6.127815359014466"><ele>1438.0</ele><time>2026-05-05T08:37:16Z</time></trkpt><trkpt lat="31.247484489366293" lon="-6.127813811215583"><ele>1438.0</ele><time>2026-05-05T08:37:17Z</time></trkpt><trkpt lat="31.247360883855972" lon="-6.127799277236395"><ele>1438.0</ele><time>2026-05-05T08:37:18Z</time></trkpt><trkpt lat="31.24722606674073" lon="-6.127802765422328"><ele>1438.0</ele><time>2026-05-05T08:37:19Z</time></trkpt><trkpt lat="31.247088083428967" lon="-6.1278084438223335"><ele>1438.75</ele><time>2026-05-05T08:37:20Z</time></trkpt><trkpt lat="31.24695527644695" lon="-6.127806474351044"><ele>1439.5</ele><time>2026-05-05T08:37:21Z</time></trkpt><trkpt lat="31.246822993544498" lon="-6.12780451265274"><ele>1440.25</ele><time>2026-05-05T08:37:22Z</time></trkpt><trkpt lat="31.246688584714004" lon="-6.127802744462066"><ele>1441.0</ele><time>2026-05-05T08:37:23Z</time></trkpt><trkpt lat="31.246560618778947" lon="-6.1278009308404435"><ele>1441.0</ele><time>2026-05-05T08:37:24Z</time></trkpt><trkpt lat="31.246433482602356" lon="-6.1277989702683655"><ele>1441.0</ele><time>2026-05-05T08:37:25Z</time></trkpt><trkpt lat="31.246310284362785" lon="-6.127797586189863"><ele>1441.0</ele><time>2026-05-05T08:37:26Z</time></trkpt><trkpt lat="31.246186972876764" lon="-6.127796141746249"><ele>1441.0</ele><time>2026-05-05T08:37:27Z</time></trkpt><trkpt lat="31.24604904504963" lon="-6.127788123718628"><ele>1441.0</ele><time>2026-05-05T08:37:28Z</time></trkpt><trkpt lat="31.245918929754726" lon="-6.127762554373072"><ele>1441.0</ele><time>2026-05-05T08:37:29Z</time></trkpt><trkpt lat="31.24580007526325" lon="-6.127786897760928"><ele>1441.0</ele><time>2026-05-05T08:37:30Z</time></trkpt><trkpt lat="31.2456881555837" lon="-6.127788059780885"><ele>1441.0</ele><time>2026-05-05T08:37:31Z</time></trkpt><trkpt lat="31.245577906743527" lon="-6.127789150154335"><ele>1441.1999999999998</ele><time>2026-05-05T08:37:32Z</time></trkpt><trkpt lat="31.245474076714416" lon="-6.127790177059581"><ele>1441.3999999999999</ele><time>2026-05-05T08:37:33Z</time></trkpt><trkpt lat="31.24537211231743" lon="-6.12779525275737"><ele>1441.6</ele><time>2026-05-05T08:37:34Z</time></trkpt><trkpt lat="31.245265372391117" lon="-6.1277947109127355"><ele>1441.8</ele><time>2026-05-05T08:37:35Z</time></trkpt><trkpt lat="31.245160686061624" lon="-6.127792896163848"><ele>1442.0</ele><time>2026-05-05T08:37:36Z</time></trkpt><trkpt lat="31.245056508255807" lon="-6.127789935692478"><ele>1442.0</ele><time>2026-05-05T08:37:37Z</time></trkpt><trkpt lat="31.244954021786278" lon="-6.1277876640373155"><ele>1442.0</ele><time>2026-05-05T08:37:38Z</time></trkpt><trkpt lat="31.24484634127108" lon="-6.127784688336752"><ele>1442.0</ele><time>2026-05-05T08:37:39Z</time></trkpt><trkpt lat="31.24474585926177" lon="-6.127781731911958"><ele>1442.0</ele><time>2026-05-05T08:37:40Z</time></trkpt><trkpt lat="31.244647060358883" lon="-6.127778824999684"><ele>1442.0</ele><time>2026-05-05T08:37:41Z</time></trkpt><trkpt lat="31.244549370563753" lon="-6.127776765320554"><ele>1442.3999999999999</ele><time>2026-05-05T08:37:42Z</time></trkpt><trkpt lat="31.2444528681459" lon="-6.127778092710405"><ele>1442.8</ele><time>2026-05-05T08:37:43Z</time></trkpt><trkpt lat="31.244356369442066" lon="-6.127780096838015"><ele>1443.2</ele><time>2026-05-05T08:37:44Z</time></trkpt><trkpt lat="31.24426119086746" lon="-6.12778309876947"><ele>1443.6</ele><time>2026-05-05T08:37:45Z</time></trkpt><trkpt lat="31.244168208521334" lon="-6.127786221487032"><ele>1444.0</ele><time>2026-05-05T08:37:46Z</time></trkpt><trkpt lat="31.244076654998093" lon="-6.127789296290823"><ele>1444.0</ele><time>2026-05-05T08:37:47Z</time></trkpt><trkpt lat="31.243989335949067" lon="-6.1277961998882295"><ele>1444.0</ele><time>2026-05-05T08:37:48Z</time></trkpt><trkpt lat="31.243908963697933" lon="-6.127800990748191"><ele>1444.0</ele><time>2026-05-05T08:37:49Z</time></trkpt><trkpt lat="31.243830892153063" lon="-6.127805241872717"><ele>1444.0</ele><time>2026-05-05T08:37:50Z</time></trkpt><trkpt lat="31.243754785835957" lon="-6.1278094239147585"><ele>1444.0</ele><time>2026-05-05T08:37:51Z</time></trkpt><trkpt lat="31.243682259088345" lon="-6.127813409241761"><ele>1444.0</ele><time>2026-05-05T08:37:52Z</time></trkpt><trkpt lat="31.24361837991756" lon="-6.127816356225737"><ele>1443.6666666666665</ele><time>2026-05-05T08:37:53Z</time></trkpt><trkpt lat="31.24348868750591" lon="-6.127823440465732"><ele>1443.3333333333333</ele><time>2026-05-05T08:37:55Z</time></trkpt><trkpt lat="31.243414856225613" lon="-6.12782749378629"><ele>1443.0</ele><time>2026-05-05T08:37:56Z</time></trkpt><trkpt lat="31.243335598800197" lon="-6.127831844931204"><ele>1442.6666666666667</ele><time>2026-05-05T08:37:57Z</time></trkpt><trkpt lat="31.243252760073283" lon="-6.127839578277116"><ele>1442.3333333333335</ele><time>2026-05-05T08:37:58Z</time></trkpt><trkpt lat="31.243171806971578" lon="-6.127847871568329"><ele>1442.0</ele><time>2026-05-05T08:37:59Z</time></trkpt><trkpt lat="31.24309500802898" lon="-6.1278557446232265"><ele>1441.5</ele><time>2026-05-05T08:38:00Z</time></trkpt><trkpt lat="31.243019253839936" lon="-6.127863509041177"><ele>1441.0</ele><time>2026-05-05T08:38:01Z</time></trkpt><trkpt lat="31.2429444154259" lon="-6.127871179602519"><ele>1440.5</ele><time>2026-05-05T08:38:02Z</time></trkpt><trkpt lat="31.242870193427468" lon="-6.12787878698138"><ele>1440.0</ele><time>2026-05-05T08:38:03Z</time></trkpt><trkpt lat="31.242795126703673" lon="-6.127867574532465"><ele>1439.5</ele><time>2026-05-05T08:38:04Z</time></trkpt><trkpt lat="31.24271768171238" lon="-6.1278770322560865"><ele>1439.0</ele><time>2026-05-05T08:38:05Z</time></trkpt><trkpt lat="31.24263780148714" lon="-6.127902933617811"><ele>1439.0</ele><time>2026-05-05T08:38:06Z</time></trkpt><trkpt lat="31.24255320482882" lon="-6.127911835944672"><ele>1439.0</ele><time>2026-05-05T08:38:07Z</time></trkpt><trkpt lat="31.24246568751266" lon="-6.127921045614986"><ele>1439.0</ele><time>2026-05-05T08:38:08Z</time></trkpt><trkpt lat="31.242376067120773" lon="-6.12793047652308"><ele>1439.0</ele><time>2026-05-05T08:38:09Z</time></trkpt><trkpt lat="31.242288437839527" lon="-6.127940301471401"><ele>1439.0</ele><time>2026-05-05T08:38:10Z</time></trkpt><trkpt lat="31.242202384242194" lon="-6.127949772194877"><ele>1439.0</ele><time>2026-05-05T08:38:11Z</time></trkpt><trkpt lat="31.24211908347032" lon="-6.1279589398178045"><ele>1438.6666666666667</ele><time>2026-05-05T08:38:12Z</time></trkpt><trkpt lat="31.24203608359994" lon="-6.127966846779192"><ele>1438.3333333333335</ele><time>2026-05-05T08:38:13Z</time></trkpt><trkpt lat="31.241955224838126" lon="-6.127975064510366"><ele>1438.0</ele><time>2026-05-05T08:38:14Z</time></trkpt><trkpt lat="31.241874562811027" lon="-6.127983262157166"><ele>1437.6666666666667</ele><time>2026-05-05T08:38:15Z</time></trkpt><trkpt lat="31.241795110212422" lon="-6.127991670151526"><ele>1437.3333333333333</ele><time>2026-05-05T08:38:16Z</time></trkpt><trkpt lat="31.24171588026664" lon="-6.127982528492453"><ele>1437.0</ele><time>2026-05-05T08:38:17Z</time></trkpt><trkpt lat="31.24165311919086" lon="-6.127997963586256"><ele>1437.0</ele><time>2026-05-05T08:38:18Z</time></trkpt><trkpt lat="31.241589066881247" lon="-6.128009054867717"><ele>1437.0</ele><time>2026-05-05T08:38:19Z</time></trkpt><trkpt lat="31.241521335218945" lon="-6.1280180794421355"><ele>1437.0</ele><time>2026-05-05T08:38:20Z</time></trkpt><trkpt lat="31.241452412942103" lon="-6.12802834169552"><ele>1437.0</ele><time>2026-05-05T08:38:21Z</time></trkpt><trkpt lat="31.241381083904514" lon="-6.128035028506868"><ele>1437.0</ele><time>2026-05-05T08:38:22Z</time></trkpt><trkpt lat="31.241308500104022" lon="-6.128041981633634"><ele>1437.0</ele><time>2026-05-05T08:38:23Z</time></trkpt><trkpt lat="31.2412393200768" lon="-6.128061306177541"><ele>1437.0</ele><time>2026-05-05T08:38:24Z</time></trkpt><trkpt lat="31.241165779068503" lon="-6.128071841929326"><ele>1436.8333333333333</ele><time>2026-05-05T08:38:25Z</time></trkpt><trkpt lat="31.24109074539127" lon="-6.128082548597534"><ele>1436.6666666666667</ele><time>2026-05-05T08:38:26Z</time></trkpt><trkpt lat="31.241013355595978" lon="-6.128089890092734"><ele>1436.5</ele><time>2026-05-05T08:38:27.001Z</time></trkpt><trkpt lat="31.24093627475107" lon="-6.128098794520813"><ele>1436.3333333333335</ele><time>2026-05-05T08:38:28.001Z</time></trkpt><trkpt lat="31.240858631088596" lon="-6.128107353494687"><ele>1436.1666666666667</ele><time>2026-05-05T08:38:29Z</time></trkpt><trkpt lat="31.240780001273777" lon="-6.128116055503174"><ele>1436.0</ele><time>2026-05-05T08:38:30.001Z</time></trkpt><trkpt lat="31.240701317468535" lon="-6.128124763492572"><ele>1435.4</ele><time>2026-05-05T08:38:31.001Z</time></trkpt><trkpt lat="31.240622585375505" lon="-6.128133476896261"><ele>1434.8</ele><time>2026-05-05T08:38:32Z</time></trkpt><trkpt lat="31.24054937360089" lon="-6.128141010724784"><ele>1434.2</ele><time>2026-05-05T08:38:33Z</time></trkpt><trkpt lat="31.240444082001396" lon="-6.128151990790536"><ele>1433.6000000000001</ele><time>2026-05-05T08:38:35Z</time></trkpt><trkpt lat="31.24034427698825" lon="-6.128152569413955"><ele>1433.0</ele><time>2026-05-05T08:38:37Z</time></trkpt><trkpt lat="31.24022989777539" lon="-6.128170283407563"><ele>1433.0</ele><time>2026-05-05T08:38:39Z</time></trkpt><trkpt lat="31.240109156681374" lon="-6.1281836856367615"><ele>1433.0</ele><time>2026-05-05T08:38:41Z</time></trkpt><trkpt lat="31.24001191060396" lon="-6.1281944799695784"><ele>1433.0</ele><time>2026-05-05T08:38:43Z</time></trkpt><trkpt lat="31.23993885798986" lon="-6.12820234595236"><ele>1433.0</ele><time>2026-05-05T08:38:48Z</time></trkpt><trkpt lat="31.239842670807807" lon="-6.128212739636296"><ele>1433.0</ele><time>2026-05-05T08:38:51Z</time></trkpt><trkpt lat="31.239723925229114" lon="-6.128225496870953"><ele>1432.0</ele><time>2026-05-05T08:38:53Z</time></trkpt><trkpt lat="31.23965359197469" lon="-6.128233036718601"><ele>1431.0</ele><time>2026-05-05T08:38:54Z</time></trkpt><trkpt lat="31.23958781850591" lon="-6.12824183280724"><ele>1430.0</ele><time>2026-05-05T08:38:55Z</time></trkpt><trkpt lat="31.239523576149782" lon="-6.128249867925737"><ele>1429.0</ele><time>2026-05-05T08:38:56Z</time></trkpt><trkpt lat="31.239459794643434" lon="-6.1282408462025275"><ele>1428.0</ele><time>2026-05-05T08:38:57Z</time></trkpt><trkpt lat="31.239342456581053" lon="-6.128257890798033"><ele>1427.0</ele><time>2026-05-05T08:38:59Z</time></trkpt><trkpt lat="31.23922683140005" lon="-6.128282753281901"><ele>1427.0</ele><time>2026-05-05T08:39:01Z</time></trkpt><trkpt lat="31.239161228361542" lon="-6.128298612811637"><ele>1427.0</ele><time>2026-05-05T08:39:02Z</time></trkpt><trkpt lat="31.239092509912883" lon="-6.128306808036889"><ele>1427.0</ele><time>2026-05-05T08:39:03Z</time></trkpt><trkpt lat="31.239019556781916" lon="-6.128316381986231"><ele>1427.0</ele><time>2026-05-05T08:39:04Z</time></trkpt><trkpt lat="31.238947071702203" lon="-6.128328172272716"><ele>1427.0</ele><time>2026-05-05T08:39:05Z</time></trkpt><trkpt lat="31.238875314974543" lon="-6.12832087638692"><ele>1427.0</ele><time>2026-05-05T08:39:06Z</time></trkpt><trkpt lat="31.238810269299115" lon="-6.12827935264996"><ele>1427.0</ele><time>2026-05-05T08:39:07Z</time></trkpt><trkpt lat="31.238756817942754" lon="-6.128344492294389"><ele>1426.8333333333335</ele><time>2026-05-05T08:39:08Z</time></trkpt><trkpt lat="31.2386544742764" lon="-6.128353995510278"><ele>1426.6666666666667</ele><time>2026-05-05T08:39:09Z</time></trkpt><trkpt lat="31.238579545323365" lon="-6.128358722346829"><ele>1426.5</ele><time>2026-05-05T08:39:10Z</time></trkpt><trkpt lat="31.238505366171562" lon="-6.1283826573776325"><ele>1426.3333333333333</ele><time>2026-05-05T08:39:11Z</time></trkpt><trkpt lat="31.23843169253208" lon="-6.128414117527065"><ele>1426.1666666666665</ele><time>2026-05-05T08:39:12Z</time></trkpt><trkpt lat="31.238350121476255" lon="-6.1284559894990585"><ele>1426.0</ele><time>2026-05-05T08:39:13Z</time></trkpt><trkpt lat="31.23826344407962" lon="-6.128496084182463"><ele>1426.0</ele><time>2026-05-05T08:39:14Z</time></trkpt><trkpt lat="31.2381759912294" lon="-6.128540859903713"><ele>1426.0</ele><time>2026-05-05T08:39:15Z</time></trkpt><trkpt lat="31.238090922029134" lon="-6.128582297361925"><ele>1426.0</ele><time>2026-05-05T08:39:16Z</time></trkpt><trkpt lat="31.238005190796923" lon="-6.128627635909944"><ele>1426.0</ele><time>2026-05-05T08:39:17Z</time></trkpt><trkpt lat="31.23792688821135" lon="-6.128670273436074"><ele>1426.0</ele><time>2026-05-05T08:39:18Z</time></trkpt><trkpt lat="31.23785184110143" lon="-6.12870530494729"><ele>1426.0</ele><time>2026-05-05T08:39:19Z</time></trkpt><trkpt lat="31.237778702011454" lon="-6.128737906007036"><ele>1425.8333333333333</ele><time>2026-05-05T08:39:20Z</time></trkpt><trkpt lat="31.23770584644451" lon="-6.128767460910434"><ele>1425.6666666666665</ele><time>2026-05-05T08:39:21Z</time></trkpt><trkpt lat="31.237631784117774" lon="-6.128816857985848"><ele>1425.5</ele><time>2026-05-05T08:39:22Z</time></trkpt><trkpt lat="31.237557826184087" lon="-6.128834621017444"><ele>1425.3333333333333</ele><time>2026-05-05T08:39:23Z</time></trkpt><trkpt lat="31.237523370318538" lon="-6.128963520148528"><ele>1425.1666666666667</ele><time>2026-05-05T08:39:24Z</time></trkpt><trkpt lat="31.237480592785644" lon="-6.1290599507882755"><ele>1425.0</ele><time>2026-05-05T08:39:25Z</time></trkpt><trkpt lat="31.23743079821683" lon="-6.129140273265992"><ele>1425.0</ele><time>2026-05-05T08:39:26Z</time></trkpt><trkpt lat="31.23738106496024" lon="-6.129218378818869"><ele>1425.0</ele><time>2026-05-05T08:39:27Z</time></trkpt><trkpt lat="31.23732929744487" lon="-6.129296178912196"><ele>1425.0</ele><time>2026-05-05T08:39:28Z</time></trkpt><trkpt lat="31.23727956983345" lon="-6.129373237395509"><ele>1425.0</ele><time>2026-05-05T08:39:29Z</time></trkpt><trkpt lat="31.23722461894137" lon="-6.129451460129777"><ele>1425.0</ele><time>2026-05-05T08:39:30Z</time></trkpt><trkpt lat="31.237175354009153" lon="-6.12953474238957"><ele>1425.0</ele><time>2026-05-05T08:39:31Z</time></trkpt><trkpt lat="31.23712095880477" lon="-6.129618349208789"><ele>1425.0</ele><time>2026-05-05T08:39:32Z</time></trkpt><trkpt lat="31.23706548238497" lon="-6.129701531785627"><ele>1425.0</ele><time>2026-05-05T08:39:33Z</time></trkpt><trkpt lat="31.237010718879688" lon="-6.1297870309921"><ele>1425.0</ele><time>2026-05-05T08:39:34Z</time></trkpt><trkpt lat="31.236955290600275" lon="-6.129867020562214"><ele>1425.0</ele><time>2026-05-05T08:39:35Z</time></trkpt><trkpt lat="31.23690237004648" lon="-6.129950062289133"><ele>1425.0</ele><time>2026-05-05T08:39:36Z</time></trkpt><trkpt lat="31.23684733829057" lon="-6.130040306258077"><ele>1424.2</ele><time>2026-05-05T08:39:37Z</time></trkpt><trkpt lat="31.23679158710656" lon="-6.1301412179877115"><ele>1423.4</ele><time>2026-05-05T08:39:38Z</time></trkpt><trkpt lat="31.23672863856234" lon="-6.130238687792952"><ele>1422.6</ele><time>2026-05-05T08:39:39Z</time></trkpt><trkpt lat="31.23666521314228" lon="-6.130337768598539"><ele>1421.8</ele><time>2026-05-05T08:39:40Z</time></trkpt><trkpt lat="31.236608306703495" lon="-6.130434529912964"><ele>1421.0</ele><time>2026-05-05T08:39:41Z</time></trkpt><trkpt lat="31.236557182040098" lon="-6.130527424795174"><ele>1421.0</ele><time>2026-05-05T08:39:42Z</time></trkpt><trkpt lat="31.236504044393598" lon="-6.130605062351619"><ele>1421.0</ele><time>2026-05-05T08:39:43Z</time></trkpt><trkpt lat="31.236449806253415" lon="-6.130685405948436"><ele>1421.0</ele><time>2026-05-05T08:39:44Z</time></trkpt><trkpt lat="31.236400788809778" lon="-6.130770093598535"><ele>1421.0</ele><time>2026-05-05T08:39:45Z</time></trkpt><trkpt lat="31.236350251509165" lon="-6.130865246140426"><ele>1421.0</ele><time>2026-05-05T08:39:46Z</time></trkpt><trkpt lat="31.236297268249654" lon="-6.130965834076384"><ele>1420.1999999999998</ele><time>2026-05-05T08:39:47Z</time></trkpt><trkpt lat="31.236247677252713" lon="-6.131068860076603"><ele>1419.3999999999999</ele><time>2026-05-05T08:39:48Z</time></trkpt><trkpt lat="31.236196263798664" lon="-6.131168391834746"><ele>1418.6</ele><time>2026-05-05T08:39:49Z</time></trkpt><trkpt lat="31.23614707676233" lon="-6.131268579578433"><ele>1417.8</ele><time>2026-05-05T08:39:50Z</time></trkpt><trkpt lat="31.236096521873883" lon="-6.131371128419622"><ele>1417.0</ele><time>2026-05-05T08:39:51Z</time></trkpt><trkpt lat="31.236047612627363" lon="-6.131472848459685"><ele>1417.6</ele><time>2026-05-05T08:39:52Z</time></trkpt><trkpt lat="31.236000819851576" lon="-6.131567659593285"><ele>1418.1999999999998</ele><time>2026-05-05T08:39:53Z</time></trkpt><trkpt lat="31.23595446005021" lon="-6.131657497136546"><ele>1418.8</ele><time>2026-05-05T08:39:54Z</time></trkpt><trkpt lat="31.235904736410006" lon="-6.131743017017661"><ele>1419.4</ele><time>2026-05-05T08:39:55Z</time></trkpt><trkpt lat="31.235861730890523" lon="-6.131829361758941"><ele>1420.0</ele><time>2026-05-05T08:39:56Z</time></trkpt><trkpt lat="31.235820433404868" lon="-6.131926096059223"><ele>1420.0</ele><time>2026-05-05T08:39:57Z</time></trkpt><trkpt lat="31.235786114028937" lon="-6.132026740060089"><ele>1420.0</ele><time>2026-05-05T08:39:58Z</time></trkpt><trkpt lat="31.235767125654068" lon="-6.132122225576161"><ele>1420.0</ele><time>2026-05-05T08:39:59Z</time></trkpt><trkpt lat="31.23574470337818" lon="-6.132257871021972"><ele>1420.0</ele><time>2026-05-05T08:40:01Z</time></trkpt><trkpt lat="31.235702760107785" lon="-6.13240997383346"><ele>1420.0</ele><time>2026-05-05T08:40:03Z</time></trkpt><trkpt lat="31.235681093207205" lon="-6.132502886847192"><ele>1420.5</ele><time>2026-05-05T08:40:04Z</time></trkpt><trkpt lat="31.235663344485744" lon="-6.132595196461403"><ele>1421.0</ele><time>2026-05-05T08:40:05Z</time></trkpt><trkpt lat="31.235648083151883" lon="-6.13268252158377"><ele>1421.5</ele><time>2026-05-05T08:40:06Z</time></trkpt><trkpt lat="31.235637967890025" lon="-6.13277285240895"><ele>1422.0</ele><time>2026-05-05T08:40:07Z</time></trkpt><trkpt lat="31.235630316534504" lon="-6.1328660974977"><ele>1422.5</ele><time>2026-05-05T08:40:08Z</time></trkpt><trkpt lat="31.23561244330572" lon="-6.132970816229133"><ele>1423.0</ele><time>2026-05-05T08:40:09Z</time></trkpt><trkpt lat="31.235585742191194" lon="-6.133083714904182"><ele>1423.8000000000002</ele><time>2026-05-05T08:40:10Z</time></trkpt><trkpt lat="31.235560689819216" lon="-6.133204240209825"><ele>1424.6</ele><time>2026-05-05T08:40:11Z</time></trkpt><trkpt lat="31.23553821076626" lon="-6.133323401807831"><ele>1425.4</ele><time>2026-05-05T08:40:12Z</time></trkpt><trkpt lat="31.235519358708498" lon="-6.133428136032075"><ele>1426.1999999999998</ele><time>2026-05-05T08:40:13Z</time></trkpt><trkpt lat="31.235501521842583" lon="-6.133527967934773"><ele>1427.0</ele><time>2026-05-05T08:40:14Z</time></trkpt><trkpt lat="31.23547351277628" lon="-6.133616819324582"><ele>1427.3333333333335</ele><time>2026-05-05T08:40:15Z</time></trkpt><trkpt lat="31.235441769088506" lon="-6.133697284481538"><ele>1427.6666666666667</ele><time>2026-05-05T08:40:16Z</time></trkpt><trkpt lat="31.23540326087286" lon="-6.133779492250208"><ele>1428.0</ele><time>2026-05-05T08:40:17Z</time></trkpt><trkpt lat="31.235356081156656" lon="-6.133859261318291"><ele>1428.3333333333333</ele><time>2026-05-05T08:40:18Z</time></trkpt><trkpt lat="31.235298728438334" lon="-6.133934960092906"><ele>1428.6666666666665</ele><time>2026-05-05T08:40:19Z</time></trkpt><trkpt lat="31.23522013903723" lon="-6.134008325813534"><ele>1429.0</ele><time>2026-05-05T08:40:20Z</time></trkpt><trkpt lat="31.235149648022475" lon="-6.134123161669517"><ele>1427.25</ele><time>2026-05-05T08:40:21Z</time></trkpt><trkpt lat="31.235044301840254" lon="-6.134235561418089"><ele>1425.5</ele><time>2026-05-05T08:40:22Z</time></trkpt><trkpt lat="31.23497167064946" lon="-6.134369547074804"><ele>1423.75</ele><time>2026-05-05T08:40:23Z</time></trkpt><trkpt lat="31.23490750255526" lon="-6.13448722274522"><ele>1422.0</ele><time>2026-05-05T08:40:24Z</time></trkpt><trkpt lat="31.234846244822567" lon="-6.134594869710728"><ele>1422.75</ele><time>2026-05-05T08:40:25Z</time></trkpt><trkpt lat="31.23478507088658" lon="-6.1347005183593515"><ele>1423.5</ele><time>2026-05-05T08:40:26Z</time></trkpt><trkpt lat="31.234724451570216" lon="-6.134810859768421"><ele>1424.25</ele><time>2026-05-05T08:40:27Z</time></trkpt><trkpt lat="31.234662348105974" lon="-6.13492685380877"><ele>1425.0</ele><time>2026-05-05T08:40:28Z</time></trkpt><trkpt lat="31.234603317025233" lon="-6.135042192921966"><ele>1425.0</ele><time>2026-05-05T08:40:29Z</time></trkpt><trkpt lat="31.234548949077908" lon="-6.1351658399497655"><ele>1425.0</ele><time>2026-05-05T08:40:30Z</time></trkpt><trkpt lat="31.234496984017387" lon="-6.135295347493449"><ele>1425.0</ele><time>2026-05-05T08:40:31Z</time></trkpt><trkpt lat="31.234449284048324" lon="-6.1354275947944945"><ele>1425.0</ele><time>2026-05-05T08:40:32Z</time></trkpt><trkpt lat="31.234403854783302" lon="-6.13556357691986"><ele>1425.0</ele><time>2026-05-05T08:40:33Z</time></trkpt><trkpt lat="31.234368104963412" lon="-6.135702531499051"><ele>1425.0</ele><time>2026-05-05T08:40:34Z</time></trkpt><trkpt lat="31.234336639487527" lon="-6.135842079222594"><ele>1425.0</ele><time>2026-05-05T08:40:35Z</time></trkpt><trkpt lat="31.234301768383666" lon="-6.1359812329868335"><ele>1425.0</ele><time>2026-05-05T08:40:36Z</time></trkpt><trkpt lat="31.2342533291811" lon="-6.136113080552806"><ele>1425.5</ele><time>2026-05-05T08:40:37Z</time></trkpt><trkpt lat="31.23419151763566" lon="-6.136233363006121"><ele>1426.0</ele><time>2026-05-05T08:40:38Z</time></trkpt><trkpt lat="31.23411859128284" lon="-6.136337970891205"><ele>1426.5</ele><time>2026-05-05T08:40:39Z</time></trkpt><trkpt lat="31.23404297877452" lon="-6.1364442167057005"><ele>1427.0</ele><time>2026-05-05T08:40:40Z</time></trkpt><trkpt lat="31.23396654966496" lon="-6.136557751699229"><ele>1427.0</ele><time>2026-05-05T08:40:41Z</time></trkpt><trkpt lat="31.233886560527008" lon="-6.136671515283319"><ele>1427.0</ele><time>2026-05-05T08:40:42Z</time></trkpt><trkpt lat="31.23379957610607" lon="-6.13678144604403"><ele>1427.0</ele><time>2026-05-05T08:40:43Z</time></trkpt><trkpt lat="31.233716007770862" lon="-6.136884631823355"><ele>1427.0</ele><time>2026-05-05T08:40:44Z</time></trkpt><trkpt lat="31.23362997269626" lon="-6.136975700530688"><ele>1427.0</ele><time>2026-05-05T08:40:45Z</time></trkpt><trkpt lat="31.23353258635014" lon="-6.137056568361189"><ele>1427.0</ele><time>2026-05-05T08:40:46Z</time></trkpt><trkpt lat="31.23341897114062" lon="-6.137119686425566"><ele>1427.0</ele><time>2026-05-05T08:40:47Z</time></trkpt><trkpt lat="31.233298623404572" lon="-6.1371711524433294"><ele>1427.0</ele><time>2026-05-05T08:40:48Z</time></trkpt><trkpt lat="31.233183926238564" lon="-6.137243408084315"><ele>1428.0</ele><time>2026-05-05T08:40:49Z</time></trkpt><trkpt lat="31.233044862227935" lon="-6.137248093771401"><ele>1429.0</ele><time>2026-05-05T08:40:50Z</time></trkpt><trkpt lat="31.232913614647632" lon="-6.137283490225544"><ele>1430.0</ele><time>2026-05-05T08:40:51Z</time></trkpt><trkpt lat="31.23278306045715" lon="-6.13731632692967"><ele>1431.0</ele><time>2026-05-05T08:40:52Z</time></trkpt><trkpt lat="31.232649419681138" lon="-6.137349636079111"><ele>1429.25</ele><time>2026-05-05T08:40:53Z</time></trkpt><trkpt lat="31.23251967079654" lon="-6.137405394150501"><ele>1427.5</ele><time>2026-05-05T08:40:54Z</time></trkpt><trkpt lat="31.23238486128554" lon="-6.137442947816557"><ele>1425.75</ele><time>2026-05-05T08:40:55Z</time></trkpt><trkpt lat="31.232253352435443" lon="-6.137479316489198"><ele>1424.0</ele><time>2026-05-05T08:40:56Z</time></trkpt><trkpt lat="31.232123337818404" lon="-6.137515271925627"><ele>1424.0</ele><time>2026-05-05T08:40:57Z</time></trkpt><trkpt lat="31.232000203171154" lon="-6.137549324708971"><ele>1424.0</ele><time>2026-05-05T08:40:58Z</time></trkpt><trkpt lat="31.23187899958684" lon="-6.137582843468346"><ele>1424.0</ele><time>2026-05-05T08:40:59Z</time></trkpt><trkpt lat="31.231764564828463" lon="-6.137614490302784"><ele>1424.0</ele><time>2026-05-05T08:41:00Z</time></trkpt><trkpt lat="31.23165025057712" lon="-6.137646103811785"><ele>1424.0</ele><time>2026-05-05T08:41:01Z</time></trkpt><trkpt lat="31.2315371584451" lon="-6.137678491653175"><ele>1424.0</ele><time>2026-05-05T08:41:02Z</time></trkpt><trkpt lat="31.231421975162334" lon="-6.137709047214051"><ele>1424.0</ele><time>2026-05-05T08:41:03Z</time></trkpt><trkpt lat="31.23130924369105" lon="-6.137737251548784"><ele>1424.0</ele><time>2026-05-05T08:41:04Z</time></trkpt><trkpt lat="31.231194847037496" lon="-6.137765872435617"><ele>1425.25</ele><time>2026-05-05T08:41:05Z</time></trkpt><trkpt lat="31.231075705613396" lon="-6.137784969739752"><ele>1426.5</ele><time>2026-05-05T08:41:06Z</time></trkpt><trkpt lat="31.230959814494106" lon="-6.137804426740558"><ele>1427.75</ele><time>2026-05-05T08:41:07Z</time></trkpt><trkpt lat="31.23083796210986" lon="-6.137799494154256"><ele>1429.0</ele><time>2026-05-05T08:41:08Z</time></trkpt><trkpt lat="31.23071985452356" lon="-6.13781362851378"><ele>1427.0</ele><time>2026-05-05T08:41:09Z</time></trkpt><trkpt lat="31.2306060346517" lon="-6.137826142722705"><ele>1425.0</ele><time>2026-05-05T08:41:10Z</time></trkpt><trkpt lat="31.230496431133997" lon="-6.13784075078088"><ele>1423.0</ele><time>2026-05-05T08:41:11Z</time></trkpt><trkpt lat="31.23038927519969" lon="-6.137859037112272"><ele>1421.0</ele><time>2026-05-05T08:41:12Z</time></trkpt><trkpt lat="31.230283269516" lon="-6.137885152986183"><ele>1419.0</ele><time>2026-05-05T08:41:13Z</time></trkpt><trkpt lat="31.230179394455643" lon="-6.13792287888442"><ele>1419.0</ele><time>2026-05-05T08:41:14Z</time></trkpt><trkpt lat="31.23008138765284" lon="-6.1379765748660935"><ele>1419.0</ele><time>2026-05-05T08:41:15Z</time></trkpt><trkpt lat="31.23000550593399" lon="-6.1380698450533"><ele>1419.0</ele><time>2026-05-05T08:41:16Z</time></trkpt><trkpt lat="31.229924071057425" lon="-6.138152082874022"><ele>1419.0</ele><time>2026-05-05T08:41:17Z</time></trkpt><trkpt lat="31.229847630480904" lon="-6.138243315766534"><ele>1419.0</ele><time>2026-05-05T08:41:18Z</time></trkpt><trkpt lat="31.229761183694556" lon="-6.138333601153259"><ele>1421.5</ele><time>2026-05-05T08:41:19Z</time></trkpt><trkpt lat="31.22968751119209" lon="-6.1384474718282656"><ele>1424.0</ele><time>2026-05-05T08:41:20Z</time></trkpt><trkpt lat="31.229606269173857" lon="-6.138564746592839"><ele>1426.5</ele><time>2026-05-05T08:41:21Z</time></trkpt><trkpt lat="31.22952402494234" lon="-6.1386892529925055"><ele>1429.0</ele><time>2026-05-05T08:41:22Z</time></trkpt><trkpt lat="31.229440982793104" lon="-6.138817251589382"><ele>1429.0</ele><time>2026-05-05T08:41:23Z</time></trkpt><trkpt lat="31.22935252262444" lon="-6.138946713761031"><ele>1429.0</ele><time>2026-05-05T08:41:24Z</time></trkpt><trkpt lat="31.22925822837734" lon="-6.139073932081181"><ele>1429.0</ele><time>2026-05-05T08:41:25Z</time></trkpt><trkpt lat="31.229182086318115" lon="-6.139217580578571"><ele>1429.0</ele><time>2026-05-05T08:41:26Z</time></trkpt><trkpt lat="31.229091047818272" lon="-6.139352857630611"><ele>1426.6666666666665</ele><time>2026-05-05T08:41:27Z</time></trkpt><trkpt lat="31.228988092079778" lon="-6.139502164809686"><ele>1424.3333333333333</ele><time>2026-05-05T08:41:28Z</time></trkpt><trkpt lat="31.228880608439642" lon="-6.13965243008531"><ele>1422.0</ele><time>2026-05-05T08:41:29Z</time></trkpt><trkpt lat="31.228779355577757" lon="-6.139793630123257"><ele>1422.75</ele><time>2026-05-05T08:41:30Z</time></trkpt><trkpt lat="31.2286836759077" lon="-6.139926314060047"><ele>1423.5</ele><time>2026-05-05T08:41:31Z</time></trkpt><trkpt lat="31.228588648477896" lon="-6.140057874437335"><ele>1424.25</ele><time>2026-05-05T08:41:32Z</time></trkpt><trkpt lat="31.228492181051834" lon="-6.140191637475402"><ele>1425.0</ele><time>2026-05-05T08:41:33Z</time></trkpt><trkpt lat="31.228397476358072" lon="-6.140324194380377"><ele>1425.0</ele><time>2026-05-05T08:41:34Z</time></trkpt><trkpt lat="31.228300202010608" lon="-6.140461223711174"><ele>1425.0</ele><time>2026-05-05T08:41:35Z</time></trkpt><trkpt lat="31.22820458391811" lon="-6.140599664258657"><ele>1425.0</ele><time>2026-05-05T08:41:36Z</time></trkpt><trkpt lat="31.22810840006621" lon="-6.140739744475545"><ele>1429.6666666666667</ele><time>2026-05-05T08:41:37Z</time></trkpt><trkpt lat="31.228008310484768" lon="-6.140877940414029"><ele>1434.3333333333335</ele><time>2026-05-05T08:41:38Z</time></trkpt><trkpt lat="31.22791142147333" lon="-6.141016381414809"><ele>1439.0</ele><time>2026-05-05T08:41:39Z</time></trkpt><trkpt lat="31.227815239763615" lon="-6.141158687444093"><ele>1439.0</ele><time>2026-05-05T08:41:40Z</time></trkpt><trkpt lat="31.227717139955036" lon="-6.141304525445312"><ele>1439.0</ele><time>2026-05-05T08:41:41Z</time></trkpt><trkpt lat="31.227610876022727" lon="-6.141445408747601"><ele>1439.0</ele><time>2026-05-05T08:41:42Z</time></trkpt><trkpt lat="31.227522367855336" lon="-6.141593029403931"><ele>1440.3333333333335</ele><time>2026-05-05T08:41:43Z</time></trkpt><trkpt lat="31.22743154400452" lon="-6.141749543476299"><ele>1441.6666666666667</ele><time>2026-05-05T08:41:44Z</time></trkpt><trkpt lat="31.22733251781964" lon="-6.141899581904329"><ele>1443.0</ele><time>2026-05-05T08:41:45Z</time></trkpt><trkpt lat="31.227243331685973" lon="-6.1420611239738285"><ele>1443.0</ele><time>2026-05-05T08:41:46Z</time></trkpt><trkpt lat="31.227111378144155" lon="-6.142200735156672"><ele>1443.0</ele><time>2026-05-05T08:41:47Z</time></trkpt><trkpt lat="31.22696598735316" lon="-6.142311050760083"><ele>1443.0</ele><time>2026-05-05T08:41:48Z</time></trkpt><trkpt lat="31.226797033336847" lon="-6.142390320555539"><ele>1437.6666666666667</ele><time>2026-05-05T08:41:49Z</time></trkpt><trkpt lat="31.226629837566655" lon="-6.142480669264301"><ele>1432.3333333333335</ele><time>2026-05-05T08:41:50Z</time></trkpt><trkpt lat="31.22646633339516" lon="-6.142588338349736"><ele>1427.0</ele><time>2026-05-05T08:41:51Z</time></trkpt><trkpt lat="31.226299926008203" lon="-6.142678856314376"><ele>1427.0</ele><time>2026-05-05T08:41:52Z</time></trkpt><trkpt lat="31.2261337689895" lon="-6.142769644361266"><ele>1427.0</ele><time>2026-05-05T08:41:53Z</time></trkpt><trkpt lat="31.22597116701491" lon="-6.142860237035325"><ele>1427.0</ele><time>2026-05-05T08:41:54Z</time></trkpt><trkpt lat="31.225810994277605" lon="-6.142950273730609"><ele>1427.0</ele><time>2026-05-05T08:41:55Z</time></trkpt><trkpt lat="31.225651742722107" lon="-6.143047595773026"><ele>1427.0</ele><time>2026-05-05T08:41:56Z</time></trkpt><trkpt lat="31.22549898332363" lon="-6.143147861404377"><ele>1427.0</ele><time>2026-05-05T08:41:57Z</time></trkpt><trkpt lat="31.225349914093677" lon="-6.143261112201381"><ele>1424.6666666666667</ele><time>2026-05-05T08:41:58Z</time></trkpt><trkpt lat="31.225215232048413" lon="-6.143384983505302"><ele>1422.3333333333333</ele><time>2026-05-05T08:41:59Z</time></trkpt><trkpt lat="31.2250858406133" lon="-6.143516308674409"><ele>1420.0</ele><time>2026-05-05T08:42:00Z</time></trkpt><trkpt lat="31.224963953895706" lon="-6.143657053027079"><ele>1420.0</ele><time>2026-05-05T08:42:01Z</time></trkpt><trkpt lat="31.224842745327415" lon="-6.143800246120682"><ele>1420.0</ele><time>2026-05-05T08:42:02Z</time></trkpt><trkpt lat="31.224718116655296" lon="-6.143945774130781"><ele>1420.0</ele><time>2026-05-05T08:42:03Z</time></trkpt><trkpt lat="31.224591052102326" lon="-6.144083588450954"><ele>1420.3333333333333</ele><time>2026-05-05T08:42:04Z</time></trkpt><trkpt lat="31.22444938049806" lon="-6.144205695741314"><ele>1420.6666666666667</ele><time>2026-05-05T08:42:05Z</time></trkpt><trkpt lat="31.22429542353642" lon="-6.144315420601277"><ele>1421.0</ele><time>2026-05-05T08:42:06Z</time></trkpt><trkpt lat="31.22414604897534" lon="-6.144411452484398"><ele>1421.0</ele><time>2026-05-05T08:42:07Z</time></trkpt><trkpt lat="31.2239853389011" lon="-6.144509407482726"><ele>1421.0</ele><time>2026-05-05T08:42:08Z</time></trkpt><trkpt lat="31.223824738471553" lon="-6.144592988009684"><ele>1421.0</ele><time>2026-05-05T08:42:09Z</time></trkpt><trkpt lat="31.223660606270062" lon="-6.144672261938501"><ele>1425.0</ele><time>2026-05-05T08:42:10Z</time></trkpt><trkpt lat="31.223492516987946" lon="-6.1447462711750465"><ele>1429.0</ele><time>2026-05-05T08:42:11Z</time></trkpt><trkpt lat="31.223328240559777" lon="-6.14481939741146"><ele>1433.0</ele><time>2026-05-05T08:42:12Z</time></trkpt><trkpt lat="31.223168233349877" lon="-6.144892301919156"><ele>1427.6666666666667</ele><time>2026-05-05T08:42:13Z</time></trkpt><trkpt lat="31.22301820028294" lon="-6.1449615866996625"><ele>1422.3333333333333</ele><time>2026-05-05T08:42:14Z</time></trkpt><trkpt lat="31.22286512711439" lon="-6.145022581536842"><ele>1417.0</ele><time>2026-05-05T08:42:15Z</time></trkpt><trkpt lat="31.22270855779999" lon="-6.145084469509692"><ele>1417.0</ele><time>2026-05-05T08:42:16Z</time></trkpt><trkpt lat="31.222552141207906" lon="-6.145146297116316"><ele>1417.0</ele><time>2026-05-05T08:42:17Z</time></trkpt><trkpt lat="31.2223909882079" lon="-6.145206520115793"><ele>1417.0</ele><time>2026-05-05T08:42:18Z</time></trkpt><trkpt lat="31.222238237317715" lon="-6.145261601932204"><ele>1418.0</ele><time>2026-05-05T08:42:19Z</time></trkpt><trkpt lat="31.222076914844816" lon="-6.145324910375328"><ele>1419.0</ele><time>2026-05-05T08:42:20Z</time></trkpt><trkpt lat="31.221908952933248" lon="-6.145387728280343"><ele>1420.0</ele><time>2026-05-05T08:42:21Z</time></trkpt><trkpt lat="31.221738465927473" lon="-6.145445763829778"><ele>1420.0</ele><time>2026-05-05T08:42:22Z</time></trkpt><trkpt lat="31.22157302951818" lon="-6.145496428779794"><ele>1420.0</ele><time>2026-05-05T08:42:23Z</time></trkpt><trkpt lat="31.221408938238927" lon="-6.14554540635668"><ele>1420.0</ele><time>2026-05-05T08:42:24Z</time></trkpt><trkpt lat="31.2212435511614" lon="-6.145593933237862"><ele>1422.6666666666665</ele><time>2026-05-05T08:42:25Z</time></trkpt><trkpt lat="31.22107486733134" lon="-6.14564088751537"><ele>1425.3333333333333</ele><time>2026-05-05T08:42:26Z</time></trkpt><trkpt lat="31.220906816924074" lon="-6.145685012098235"><ele>1428.0</ele><time>2026-05-05T08:42:27Z</time></trkpt><trkpt lat="31.220742332086793" lon="-6.145740756016861"><ele>1425.0</ele><time>2026-05-05T08:42:28Z</time></trkpt><trkpt lat="31.22058474836631" lon="-6.145808996944655"><ele>1422.0</ele><time>2026-05-05T08:42:29Z</time></trkpt><trkpt lat="31.220433857828006" lon="-6.145890662144882"><ele>1419.0</ele><time>2026-05-05T08:42:30Z</time></trkpt><trkpt lat="31.220288236545137" lon="-6.145985234449369"><ele>1419.0</ele><time>2026-05-05T08:42:31Z</time></trkpt><trkpt lat="31.22015062761635" lon="-6.146095435371148"><ele>1419.0</ele><time>2026-05-05T08:42:32Z</time></trkpt><trkpt lat="31.220028127517853" lon="-6.146224531004879"><ele>1419.0</ele><time>2026-05-05T08:42:33Z</time></trkpt><trkpt lat="31.219917928009647" lon="-6.146360335909624"><ele>1420.3333333333333</ele><time>2026-05-05T08:42:34Z</time></trkpt><trkpt lat="31.21980482736642" lon="-6.146490859109822"><ele>1421.6666666666665</ele><time>2026-05-05T08:42:35Z</time></trkpt><trkpt lat="31.219706756202264" lon="-6.146633794370173"><ele>1423.0</ele><time>2026-05-05T08:42:36Z</time></trkpt><trkpt lat="31.219605268557114" lon="-6.146768746751303"><ele>1423.0</ele><time>2026-05-05T08:42:37Z</time></trkpt><trkpt lat="31.219512920533166" lon="-6.146913612571494"><ele>1423.0</ele><time>2026-05-05T08:42:38Z</time></trkpt><trkpt lat="31.219387414791992" lon="-6.1470304535515705"><ele>1423.0</ele><time>2026-05-05T08:42:39Z</time></trkpt><trkpt lat="31.21926150698299" lon="-6.147150059068315"><ele>1423.0</ele><time>2026-05-05T08:42:40Z</time></trkpt><trkpt lat="31.219119868326388" lon="-6.147251258711548"><ele>1423.0</ele><time>2026-05-05T08:42:41Z</time></trkpt><trkpt lat="31.218963428792684" lon="-6.147324754016964"><ele>1423.0</ele><time>2026-05-05T08:42:42Z</time></trkpt><trkpt lat="31.21880274785679" lon="-6.147380488018392"><ele>1418.3333333333333</ele><time>2026-05-05T08:42:43Z</time></trkpt><trkpt lat="31.21864609747605" lon="-6.147425412339048"><ele>1413.6666666666667</ele><time>2026-05-05T08:42:44Z</time></trkpt><trkpt lat="31.21849643197022" lon="-6.147462573426419"><ele>1409.0</ele><time>2026-05-05T08:42:45Z</time></trkpt><trkpt lat="31.218348574627417" lon="-6.147497945393049"><ele>1409.0</ele><time>2026-05-05T08:42:46Z</time></trkpt><trkpt lat="31.21820919967473" lon="-6.147552034583964"><ele>1409.0</ele><time>2026-05-05T08:42:47Z</time></trkpt><trkpt lat="31.218066004515357" lon="-6.147587330637453"><ele>1409.0</ele><time>2026-05-05T08:42:48Z</time></trkpt><trkpt lat="31.21791929309928" lon="-6.147623524536051"><ele>1409.0</ele><time>2026-05-05T08:42:49Z</time></trkpt><trkpt lat="31.217774532219995" lon="-6.1476624675904565"><ele>1409.75</ele><time>2026-05-05T08:42:50Z</time></trkpt><trkpt lat="31.217627999702042" lon="-6.147707053494876"><ele>1410.5</ele><time>2026-05-05T08:42:51Z</time></trkpt><trkpt lat="31.217481529521585" lon="-6.147751620429801"><ele>1411.25</ele><time>2026-05-05T08:42:52Z</time></trkpt><trkpt lat="31.21734213994203" lon="-6.147794032932127"><ele>1412.0</ele><time>2026-05-05T08:42:53Z</time></trkpt><trkpt lat="31.217211251702754" lon="-6.147833858697067"><ele>1413.0</ele><time>2026-05-05T08:42:54Z</time></trkpt><trkpt lat="31.21708245619164" lon="-6.147873047718533"><ele>1414.0</ele><time>2026-05-05T08:42:55Z</time></trkpt><trkpt lat="31.216957076019273" lon="-6.14791119751712"><ele>1415.0</ele><time>2026-05-05T08:42:56Z</time></trkpt><trkpt lat="31.216841730795114" lon="-6.1479765690286365"><ele>1416.0</ele><time>2026-05-05T08:42:57Z</time></trkpt><trkpt lat="31.216710727416995" lon="-6.148050053644123"><ele>1416.0</ele><time>2026-05-05T08:42:58Z</time></trkpt><trkpt lat="31.216579379323285" lon="-6.148140400054037"><ele>1416.0</ele><time>2026-05-05T08:42:59Z</time></trkpt><trkpt lat="31.216434170236226" lon="-6.148213782177322"><ele>1416.0</ele><time>2026-05-05T08:43:00Z</time></trkpt><trkpt lat="31.216300166647173" lon="-6.148302210202417"><ele>1416.0</ele><time>2026-05-05T08:43:01Z</time></trkpt><trkpt lat="31.216173219910864" lon="-6.148404162204043"><ele>1416.0</ele><time>2026-05-05T08:43:02Z</time></trkpt><trkpt lat="31.21603533833193" lon="-6.148462692133855"><ele>1416.0</ele><time>2026-05-05T08:43:03Z</time></trkpt><trkpt lat="31.21590728900831" lon="-6.148519062402454"><ele>1416.0</ele><time>2026-05-05T08:43:04Z</time></trkpt><trkpt lat="31.2157778285728" lon="-6.148554275231739"><ele>1415.0</ele><time>2026-05-05T08:43:05Z</time></trkpt><trkpt lat="31.215651661969332" lon="-6.148600342296697"><ele>1414.0</ele><time>2026-05-05T08:43:06Z</time></trkpt><trkpt lat="31.215513109663785" lon="-6.148574248254694"><ele>1413.0</ele><time>2026-05-05T08:43:07Z</time></trkpt><trkpt lat="31.215377465829693" lon="-6.148561317290268"><ele>1412.0</ele><time>2026-05-05T08:43:08Z</time></trkpt><trkpt lat="31.215238319771885" lon="-6.148555447370037"><ele>1412.0</ele><time>2026-05-05T08:43:09Z</time></trkpt><trkpt lat="31.215095900718644" lon="-6.148530335106281"><ele>1412.0</ele><time>2026-05-05T08:43:10Z</time></trkpt><trkpt lat="31.21496091823815" lon="-6.1485065331548565"><ele>1412.0</ele><time>2026-05-05T08:43:11Z</time></trkpt><trkpt lat="31.214832919111714" lon="-6.148483963539749"><ele>1412.0</ele><time>2026-05-05T08:43:12Z</time></trkpt><trkpt lat="31.21471054970446" lon="-6.14847285527775"><ele>1414.0</ele><time>2026-05-05T08:43:13Z</time></trkpt><trkpt lat="31.214598225106577" lon="-6.148460443290685"><ele>1416.0</ele><time>2026-05-05T08:43:14Z</time></trkpt><trkpt lat="31.21450832511229" lon="-6.1484905043060065"><ele>1418.0</ele><time>2026-05-05T08:43:15Z</time></trkpt><trkpt lat="31.214411297018767" lon="-6.1485293648121"><ele>1420.0</ele><time>2026-05-05T08:43:16Z</time></trkpt><trkpt lat="31.214316857458915" lon="-6.1486058161960395"><ele>1422.0</ele><time>2026-05-05T08:43:17Z</time></trkpt><trkpt lat="31.214206723058876" lon="-6.148705783886284"><ele>1422.0</ele><time>2026-05-05T08:43:18Z</time></trkpt><trkpt lat="31.214090275220816" lon="-6.148811482208991"><ele>1422.0</ele><time>2026-05-05T08:43:19Z</time></trkpt><trkpt lat="31.213967240171705" lon="-6.148900587572386"><ele>1422.0</ele><time>2026-05-05T08:43:20Z</time></trkpt><trkpt lat="31.21385781594118" lon="-6.148995114413445"><ele>1422.0</ele><time>2026-05-05T08:43:21Z</time></trkpt><trkpt lat="31.21374498203695" lon="-6.149084132665711"><ele>1419.75</ele><time>2026-05-05T08:43:22Z</time></trkpt><trkpt lat="31.21362203116062" lon="-6.149163221265009"><ele>1417.5</ele><time>2026-05-05T08:43:23Z</time></trkpt><trkpt lat="31.213482397741302" lon="-6.149216981673483"><ele>1415.25</ele><time>2026-05-05T08:43:24Z</time></trkpt><trkpt lat="31.213330546649043" lon="-6.149248274787899"><ele>1413.0</ele><time>2026-05-05T08:43:25Z</time></trkpt><trkpt lat="31.21317542742495" lon="-6.149267361384614"><ele>1411.6666666666667</ele><time>2026-05-05T08:43:26Z</time></trkpt><trkpt lat="31.213015350523666" lon="-6.149271995894635"><ele>1410.3333333333335</ele><time>2026-05-05T08:43:27Z</time></trkpt><trkpt lat="31.21285855837483" lon="-6.14926715714309"><ele>1409.0</ele><time>2026-05-05T08:43:28Z</time></trkpt><trkpt lat="31.212704742138968" lon="-6.149246896192645"><ele>1409.0</ele><time>2026-05-05T08:43:29Z</time></trkpt><trkpt lat="31.21255851944642" lon="-6.1492024418820055"><ele>1409.0</ele><time>2026-05-05T08:43:30Z</time></trkpt><trkpt lat="31.212413623749725" lon="-6.149161235233535"><ele>1409.0</ele><time>2026-05-05T08:43:31Z</time></trkpt><trkpt lat="31.21228391063077" lon="-6.149081784103357"><ele>1409.0</ele><time>2026-05-05T08:43:32Z</time></trkpt><trkpt lat="31.21216037471076" lon="-6.148991365063781"><ele>1409.75</ele><time>2026-05-05T08:43:33Z</time></trkpt><trkpt lat="31.21204242734301" lon="-6.148919763382465"><ele>1410.5</ele><time>2026-05-05T08:43:34Z</time></trkpt><trkpt lat="31.211921015717426" lon="-6.148874017735942"><ele>1411.25</ele><time>2026-05-05T08:43:35Z</time></trkpt><trkpt lat="31.2117907733166" lon="-6.148858715439"><ele>1412.0</ele><time>2026-05-05T08:43:36Z</time></trkpt><trkpt lat="31.211651302153406" lon="-6.148855238632366"><ele>1412.0</ele><time>2026-05-05T08:43:37Z</time></trkpt><trkpt lat="31.21150542705791" lon="-6.148848081919627"><ele>1412.0</ele><time>2026-05-05T08:43:38Z</time></trkpt><trkpt lat="31.21136755274262" lon="-6.148857353794411"><ele>1412.0</ele><time>2026-05-05T08:43:39Z</time></trkpt><trkpt lat="31.211231929071076" lon="-6.148864537253569"><ele>1412.0</ele><time>2026-05-05T08:43:40Z</time></trkpt><trkpt lat="31.211096785989735" lon="-6.148886383754069"><ele>1412.5</ele><time>2026-05-05T08:43:41Z</time></trkpt><trkpt lat="31.210963433315253" lon="-6.148935888729612"><ele>1413.0</ele><time>2026-05-05T08:43:42Z</time></trkpt><trkpt lat="31.21082723456349" lon="-6.149005946869864"><ele>1413.5</ele><time>2026-05-05T08:43:43Z</time></trkpt><trkpt lat="31.210690577071006" lon="-6.149091104206062"><ele>1414.0</ele><time>2026-05-05T08:43:44Z</time></trkpt><trkpt lat="31.21054235223207" lon="-6.149168730779551"><ele>1410.6666666666665</ele><time>2026-05-05T08:43:45Z</time></trkpt><trkpt lat="31.21038616180469" lon="-6.149222606498893"><ele>1407.3333333333333</ele><time>2026-05-05T08:43:46Z</time></trkpt><trkpt lat="31.2102173113754" lon="-6.149239866737253"><ele>1404.0</ele><time>2026-05-05T08:43:47Z</time></trkpt><trkpt lat="31.210051616407938" lon="-6.149243736878228"><ele>1404.0</ele><time>2026-05-05T08:43:48Z</time></trkpt><trkpt lat="31.209886159984716" lon="-6.149257117640525"><ele>1404.0</ele><time>2026-05-05T08:43:49Z</time></trkpt><trkpt lat="31.209725197852272" lon="-6.149270137639279"><ele>1404.0</ele><time>2026-05-05T08:43:50Z</time></trkpt><trkpt lat="31.20956420223393" lon="-6.149282043511608"><ele>1405.3333333333333</ele><time>2026-05-05T08:43:51Z</time></trkpt><trkpt lat="31.20940832471551" lon="-6.149312996921153"><ele>1406.6666666666665</ele><time>2026-05-05T08:43:52Z</time></trkpt><trkpt lat="31.209246991499317" lon="-6.149337878948927"><ele>1408.0</ele><time>2026-05-05T08:43:53Z</time></trkpt><trkpt lat="31.209090526514558" lon="-6.149362010196331"><ele>1409.0</ele><time>2026-05-05T08:43:54Z</time></trkpt><trkpt lat="31.208940397177066" lon="-6.1493801418459055"><ele>1410.0</ele><time>2026-05-05T08:43:55Z</time></trkpt><trkpt lat="31.208803877673784" lon="-6.149421745042996"><ele>1411.0</ele><time>2026-05-05T08:43:56Z</time></trkpt><trkpt lat="31.208670048301737" lon="-6.149466062575004"><ele>1412.0</ele><time>2026-05-05T08:43:57Z</time></trkpt><trkpt lat="31.208554014492154" lon="-6.149549734381765"><ele>1412.0</ele><time>2026-05-05T08:43:58Z</time></trkpt><trkpt lat="31.20844487360055" lon="-6.1496500495999795"><ele>1412.0</ele><time>2026-05-05T08:43:59Z</time></trkpt><trkpt lat="31.208326734977874" lon="-6.149760680450095"><ele>1412.0</ele><time>2026-05-05T08:44:00Z</time></trkpt><trkpt lat="31.20821223674393" lon="-6.149868516739022"><ele>1412.0</ele><time>2026-05-05T08:44:01Z</time></trkpt><trkpt lat="31.20809944821642" lon="-6.149974810722735"><ele>1412.0</ele><time>2026-05-05T08:44:02Z</time></trkpt><trkpt lat="31.207993290161216" lon="-6.150078509609525"><ele>1412.0</ele><time>2026-05-05T08:44:03Z</time></trkpt><trkpt lat="31.207901264999066" lon="-6.150203053747699"><ele>1412.0</ele><time>2026-05-05T08:44:04Z</time></trkpt><trkpt lat="31.20781126641489" lon="-6.150330540940284"><ele>1412.0</ele><time>2026-05-05T08:44:05Z</time></trkpt><trkpt lat="31.207734843823612" lon="-6.150473220437573"><ele>1412.0</ele><time>2026-05-05T08:44:06Z</time></trkpt><trkpt lat="31.20764733648225" lon="-6.15060679458277"><ele>1412.0</ele><time>2026-05-05T08:44:07Z</time></trkpt><trkpt lat="31.207557357183063" lon="-6.150743369890166"><ele>1412.0</ele><time>2026-05-05T08:44:08Z</time></trkpt><trkpt lat="31.207476693524555" lon="-6.150887191156122"><ele>1412.0</ele><time>2026-05-05T08:44:09Z</time></trkpt><trkpt lat="31.20738278955928" lon="-6.151028361854097"><ele>1412.3333333333335</ele><time>2026-05-05T08:44:10Z</time></trkpt><trkpt lat="31.207288010873917" lon="-6.151167350567637"><ele>1412.6666666666667</ele><time>2026-05-05T08:44:11Z</time></trkpt><trkpt lat="31.207192118676517" lon="-6.151307715990315"><ele>1413.0</ele><time>2026-05-05T08:44:12Z</time></trkpt><trkpt lat="31.2070950599295" lon="-6.151449752081429"><ele>1411.0</ele><time>2026-05-05T08:44:13Z</time></trkpt><trkpt lat="31.206997032320395" lon="-6.151593623465083"><ele>1409.0</ele><time>2026-05-05T08:44:14Z</time></trkpt><trkpt lat="31.20689955614531" lon="-6.151736900979631"><ele>1407.0</ele><time>2026-05-05T08:44:15Z</time></trkpt><trkpt lat="31.20679623680141" lon="-6.1518667804420515"><ele>1407.0</ele><time>2026-05-05T08:44:16Z</time></trkpt><trkpt lat="31.206696074745565" lon="-6.151992561778993"><ele>1407.0</ele><time>2026-05-05T08:44:17Z</time></trkpt><trkpt lat="31.206583223521495" lon="-6.152100772104495"><ele>1407.0</ele><time>2026-05-05T08:44:18Z</time></trkpt><trkpt lat="31.20646660246132" lon="-6.152209700117198"><ele>1407.0</ele><time>2026-05-05T08:44:19Z</time></trkpt><trkpt lat="31.206330208473734" lon="-6.152303086915799"><ele>1404.6666666666667</ele><time>2026-05-05T08:44:20Z</time></trkpt><trkpt lat="31.206179386004795" lon="-6.152401800156848"><ele>1402.3333333333335</ele><time>2026-05-05T08:44:21Z</time></trkpt><trkpt lat="31.206024277072082" lon="-6.15245210366838"><ele>1400.0</ele><time>2026-05-05T08:44:22Z</time></trkpt><trkpt lat="31.205885770220206" lon="-6.152534795017929"><ele>1400.0</ele><time>2026-05-05T08:44:23Z</time></trkpt><trkpt lat="31.205745963905883" lon="-6.152595719427873"><ele>1400.0</ele><time>2026-05-05T08:44:24Z</time></trkpt><trkpt lat="31.205623281818855" lon="-6.152673428050408"><ele>1400.0</ele><time>2026-05-05T08:44:25Z</time></trkpt><trkpt lat="31.205503059547983" lon="-6.1527708487369495"><ele>1400.0</ele><time>2026-05-05T08:44:26Z</time></trkpt><trkpt lat="31.205385545706566" lon="-6.152892767576348"><ele>1399.6666666666667</ele><time>2026-05-05T08:44:27Z</time></trkpt><trkpt lat="31.20528089205314" lon="-6.153039859589065"><ele>1399.3333333333333</ele><time>2026-05-05T08:44:28Z</time></trkpt><trkpt lat="31.20517149136372" lon="-6.153192592215339"><ele>1399.0</ele><time>2026-05-05T08:44:29Z</time></trkpt><trkpt lat="31.205066924362754" lon="-6.153351709871076"><ele>1399.0</ele><time>2026-05-05T08:44:30Z</time></trkpt><trkpt lat="31.204958864885384" lon="-6.15351520943936"><ele>1399.0</ele><time>2026-05-05T08:44:31Z</time></trkpt><trkpt lat="31.20484062214917" lon="-6.153663712533369"><ele>1399.0</ele><time>2026-05-05T08:44:32Z</time></trkpt><trkpt lat="31.204748243535114" lon="-6.153835850950098"><ele>1400.6666666666665</ele><time>2026-05-05T08:44:33Z</time></trkpt><trkpt lat="31.204620803088382" lon="-6.1539756224753095"><ele>1402.3333333333333</ele><time>2026-05-05T08:44:34Z</time></trkpt><trkpt lat="31.204506837342507" lon="-6.154129160889895"><ele>1404.0</ele><time>2026-05-05T08:44:35Z</time></trkpt><trkpt lat="31.20438844721174" lon="-6.154278579673379"><ele>1402.6666666666667</ele><time>2026-05-05T08:44:36Z</time></trkpt><trkpt lat="31.204257823273018" lon="-6.154413084327468"><ele>1401.3333333333335</ele><time>2026-05-05T08:44:37Z</time></trkpt><trkpt lat="31.20412161506301" lon="-6.15453750402765"><ele>1400.0</ele><time>2026-05-05T08:44:38Z</time></trkpt><trkpt lat="31.203979184529143" lon="-6.154656463803722"><ele>1400.0</ele><time>2026-05-05T08:44:39Z</time></trkpt><trkpt lat="31.203837334679694" lon="-6.154774928875895"><ele>1400.0</ele><time>2026-05-05T08:44:40Z</time></trkpt><trkpt lat="31.2036909023779" lon="-6.154888345977351"><ele>1400.0</ele><time>2026-05-05T08:44:41Z</time></trkpt><trkpt lat="31.20354084054522" lon="-6.154995384681834"><ele>1400.3333333333335</ele><time>2026-05-05T08:44:42Z</time></trkpt><trkpt lat="31.203395644158018" lon="-6.155118697018077"><ele>1400.6666666666667</ele><time>2026-05-05T08:44:43Z</time></trkpt><trkpt lat="31.20324058496598" lon="-6.155222571679899"><ele>1401.0</ele><time>2026-05-05T08:44:44Z</time></trkpt><trkpt lat="31.2030820729088" lon="-6.155298779197872"><ele>1400.3333333333333</ele><time>2026-05-05T08:44:45Z</time></trkpt><trkpt lat="31.202922814926524" lon="-6.155378623117527"><ele>1399.6666666666665</ele><time>2026-05-05T08:44:46Z</time></trkpt><trkpt lat="31.202765978056313" lon="-6.155454479409474"><ele>1399.0</ele><time>2026-05-05T08:44:47Z</time></trkpt><trkpt lat="31.202608854974077" lon="-6.155536051639568"><ele>1399.0</ele><time>2026-05-05T08:44:48Z</time></trkpt><trkpt lat="31.202453834719673" lon="-6.155616394353846"><ele>1399.0</ele><time>2026-05-05T08:44:49Z</time></trkpt><trkpt lat="31.202296523445614" lon="-6.155697199749458"><ele>1399.0</ele><time>2026-05-05T08:44:50Z</time></trkpt><trkpt lat="31.202146542306053" lon="-6.155795581256772"><ele>1398.0</ele><time>2026-05-05T08:44:51Z</time></trkpt><trkpt lat="31.201992208667093" lon="-6.155881162140981"><ele>1397.0</ele><time>2026-05-05T08:44:52Z</time></trkpt><trkpt lat="31.201843208653468" lon="-6.155973330500184"><ele>1396.0</ele><time>2026-05-05T08:44:53Z</time></trkpt><trkpt lat="31.201697343401804" lon="-6.156055089326448"><ele>1396.0</ele><time>2026-05-05T08:44:54Z</time></trkpt><trkpt lat="31.201570270825908" lon="-6.156159445403588"><ele>1396.0</ele><time>2026-05-05T08:44:55Z</time></trkpt><trkpt lat="31.201446716509103" lon="-6.15625398822508"><ele>1396.0</ele><time>2026-05-05T08:44:56Z</time></trkpt><trkpt lat="31.20131294128647" lon="-6.15639063280745"><ele>1396.3333333333333</ele><time>2026-05-05T08:44:57Z</time></trkpt><trkpt lat="31.201185901167456" lon="-6.156506437176912"><ele>1396.6666666666667</ele><time>2026-05-05T08:44:58Z</time></trkpt><trkpt lat="31.201058762272023" lon="-6.156617769261741"><ele>1397.0</ele><time>2026-05-05T08:44:59Z</time></trkpt><trkpt lat="31.2009350542316" lon="-6.156732667985606"><ele>1396.6666666666667</ele><time>2026-05-05T08:45:00Z</time></trkpt><trkpt lat="31.200807238688583" lon="-6.156848397712827"><ele>1396.3333333333333</ele><time>2026-05-05T08:45:01Z</time></trkpt><trkpt lat="31.200681703506238" lon="-6.156966876574064"><ele>1396.0</ele><time>2026-05-05T08:45:02Z</time></trkpt><trkpt lat="31.20055611197694" lon="-6.157082475595815"><ele>1396.0</ele><time>2026-05-05T08:45:03Z</time></trkpt><trkpt lat="31.200434053949895" lon="-6.157199082498102"><ele>1396.0</ele><time>2026-05-05T08:45:04Z</time></trkpt><trkpt lat="31.200310989933705" lon="-6.157317610722701"><ele>1396.0</ele><time>2026-05-05T08:45:05Z</time></trkpt><trkpt lat="31.200185932484867" lon="-6.1574312943427065"><ele>1394.6666666666665</ele><time>2026-05-05T08:45:06Z</time></trkpt><trkpt lat="31.200060501483648" lon="-6.1575472465174625"><ele>1393.3333333333333</ele><time>2026-05-05T08:45:07Z</time></trkpt><trkpt lat="31.19993007075793" lon="-6.157655653185774"><ele>1392.0</ele><time>2026-05-05T08:45:08Z</time></trkpt><trkpt lat="31.199804898881016" lon="-6.157764593458615"><ele>1391.6666666666667</ele><time>2026-05-05T08:45:09Z</time></trkpt><trkpt lat="31.199682040251613" lon="-6.1578796050330125"><ele>1391.3333333333335</ele><time>2026-05-05T08:45:10Z</time></trkpt><trkpt lat="31.199559223182696" lon="-6.157991253938862"><ele>1391.0</ele><time>2026-05-05T08:45:11Z</time></trkpt><trkpt lat="31.19943319434419" lon="-6.158100752900382"><ele>1391.3333333333335</ele><time>2026-05-05T08:45:12Z</time></trkpt><trkpt lat="31.19930729325662" lon="-6.1582121456629295"><ele>1391.6666666666667</ele><time>2026-05-05T08:45:13Z</time></trkpt><trkpt lat="31.199181272580315" lon="-6.158320573782269"><ele>1392.0</ele><time>2026-05-05T08:45:14Z</time></trkpt><trkpt lat="31.199058290538762" lon="-6.158430073880838"><ele>1392.25</ele><time>2026-05-05T08:45:15Z</time></trkpt><trkpt lat="31.198940173760597" lon="-6.158534912087398"><ele>1392.5</ele><time>2026-05-05T08:45:16Z</time></trkpt><trkpt lat="31.198827938460756" lon="-6.158641037480401"><ele>1392.75</ele><time>2026-05-05T08:45:17Z</time></trkpt><trkpt lat="31.198726287040518" lon="-6.158758245281227"><ele>1393.0</ele><time>2026-05-05T08:45:18Z</time></trkpt><trkpt lat="31.198641851929334" lon="-6.158903246347435"><ele>1392.3333333333333</ele><time>2026-05-05T08:45:19Z</time></trkpt><trkpt lat="31.198568974754853" lon="-6.159062939167005"><ele>1391.6666666666667</ele><time>2026-05-05T08:45:20Z</time></trkpt><trkpt lat="31.19850729377083" lon="-6.159235501565974"><ele>1391.0</ele><time>2026-05-05T08:45:21Z</time></trkpt><trkpt lat="31.1984505993688" lon="-6.159400368977142"><ele>1391.0</ele><time>2026-05-05T08:45:22Z</time></trkpt><trkpt lat="31.19839261242819" lon="-6.159557542293372"><ele>1391.0</ele><time>2026-05-05T08:45:23Z</time></trkpt><trkpt lat="31.19833422712535" lon="-6.159707094801242"><ele>1391.0</ele><time>2026-05-05T08:45:24Z</time></trkpt><trkpt lat="31.198274158253575" lon="-6.159852286419459"><ele>1391.0</ele><time>2026-05-05T08:45:25Z</time></trkpt><trkpt lat="31.198214864589367" lon="-6.159994506176655"><ele>1394.25</ele><time>2026-05-05T08:45:26Z</time></trkpt><trkpt lat="31.198158634474726" lon="-6.160134565128002"><ele>1397.5</ele><time>2026-05-05T08:45:27Z</time></trkpt><trkpt lat="31.198106112242282" lon="-6.160275754916816"><ele>1400.75</ele><time>2026-05-05T08:45:28Z</time></trkpt><trkpt lat="31.198054882237678" lon="-6.160417889576222"><ele>1404.0</ele><time>2026-05-05T08:45:29Z</time></trkpt><trkpt lat="31.198004019439388" lon="-6.160560328736601"><ele>1401.5</ele><time>2026-05-05T08:45:30Z</time></trkpt><trkpt lat="31.197948513684437" lon="-6.1607042314804215"><ele>1399.0</ele><time>2026-05-05T08:45:31Z</time></trkpt><trkpt lat="31.197889126834838" lon="-6.160854331332489"><ele>1396.5</ele><time>2026-05-05T08:45:32Z</time></trkpt><trkpt lat="31.19782703797138" lon="-6.161015753486893"><ele>1394.0</ele><time>2026-05-05T08:45:33Z</time></trkpt><trkpt lat="31.197769188771442" lon="-6.161169016051433"><ele>1394.0</ele><time>2026-05-05T08:45:34Z</time></trkpt><trkpt lat="31.197709198370283" lon="-6.161313091088486"><ele>1394.0</ele><time>2026-05-05T08:45:35Z</time></trkpt><trkpt lat="31.197652372688115" lon="-6.161454164058439"><ele>1394.0</ele><time>2026-05-05T08:45:36Z</time></trkpt><trkpt lat="31.197598783912348" lon="-6.1615907700419115"><ele>1394.0</ele><time>2026-05-05T08:45:37Z</time></trkpt><trkpt lat="31.197545110150674" lon="-6.161724830595973"><ele>1393.75</ele><time>2026-05-05T08:45:38Z</time></trkpt><trkpt lat="31.19749261207482" lon="-6.161856799308577"><ele>1393.5</ele><time>2026-05-05T08:45:39Z</time></trkpt><trkpt lat="31.1974392389853" lon="-6.161987724124861"><ele>1393.25</ele><time>2026-05-05T08:45:40Z</time></trkpt><trkpt lat="31.197386952432584" lon="-6.162119409832146"><ele>1393.0</ele><time>2026-05-05T08:45:41Z</time></trkpt><trkpt lat="31.19733853391345" lon="-6.162256403416402"><ele>1393.0</ele><time>2026-05-05T08:45:42Z</time></trkpt><trkpt lat="31.19729407846385" lon="-6.162395472885108"><ele>1393.0</ele><time>2026-05-05T08:45:43Z</time></trkpt><trkpt lat="31.197250318238073" lon="-6.162531668406485"><ele>1393.0</ele><time>2026-05-05T08:45:44Z</time></trkpt><trkpt lat="31.197209001468444" lon="-6.162667089293318"><ele>1393.0</ele><time>2026-05-05T08:45:45Z</time></trkpt><trkpt lat="31.197171723464695" lon="-6.162802616399744"><ele>1393.0</ele><time>2026-05-05T08:45:46Z</time></trkpt><trkpt lat="31.197134256051918" lon="-6.162937048672771"><ele>1393.0</ele><time>2026-05-05T08:45:47Z</time></trkpt><trkpt lat="31.197100889044346" lon="-6.163075110233529"><ele>1393.0</ele><time>2026-05-05T08:45:48Z</time></trkpt><trkpt lat="31.197067326967968" lon="-6.163221777118993"><ele>1393.0</ele><time>2026-05-05T08:45:49Z</time></trkpt><trkpt lat="31.197045856848256" lon="-6.163382167957467"><ele>1393.3333333333333</ele><time>2026-05-05T08:45:50Z</time></trkpt><trkpt lat="31.19700941611306" lon="-6.1635605374595555"><ele>1393.6666666666667</ele><time>2026-05-05T08:45:51Z</time></trkpt><trkpt lat="31.196962541733903" lon="-6.163734546068729"><ele>1394.0</ele><time>2026-05-05T08:45:52Z</time></trkpt><trkpt lat="31.196935869066845" lon="-6.1639154556139175"><ele>1393.5</ele><time>2026-05-05T08:45:53Z</time></trkpt><trkpt lat="31.196913917523037" lon="-6.164091983060363"><ele>1393.0</ele><time>2026-05-05T08:45:54Z</time></trkpt><trkpt lat="31.196894048651593" lon="-6.164265093254084"><ele>1392.5</ele><time>2026-05-05T08:45:55Z</time></trkpt><trkpt lat="31.19688317997449" lon="-6.164436921855395"><ele>1392.0</ele><time>2026-05-05T08:45:56Z</time></trkpt><trkpt lat="31.196924098224297" lon="-6.164594934301838"><ele>1392.0</ele><time>2026-05-05T08:45:57Z</time></trkpt><trkpt lat="31.196945529095096" lon="-6.164760192315961"><ele>1392.0</ele><time>2026-05-05T08:45:58Z</time></trkpt><trkpt lat="31.19695985901349" lon="-6.16492916528185"><ele>1392.0</ele><time>2026-05-05T08:45:59Z</time></trkpt><trkpt lat="31.19698144710512" lon="-6.1650956415691605"><ele>1392.0</ele><time>2026-05-05T08:46:00Z</time></trkpt><trkpt lat="31.197004934924482" lon="-6.1652650025530455"><ele>1390.6666666666667</ele><time>2026-05-05T08:46:01Z</time></trkpt><trkpt lat="31.197028638507717" lon="-6.165435287472274"><ele>1389.3333333333335</ele><time>2026-05-05T08:46:02Z</time></trkpt><trkpt lat="31.197036452917562" lon="-6.165610358284798"><ele>1388.0</ele><time>2026-05-05T08:46:03Z</time></trkpt><trkpt lat="31.197032061029947" lon="-6.165791018337362"><ele>1388.0</ele><time>2026-05-05T08:46:04Z</time></trkpt><trkpt lat="31.197006518190566" lon="-6.165967338123905"><ele>1388.0</ele><time>2026-05-05T08:46:05Z</time></trkpt><trkpt lat="31.196959070698835" lon="-6.166143568178177"><ele>1388.0</ele><time>2026-05-05T08:46:06Z</time></trkpt><trkpt lat="31.196896419734507" lon="-6.1663089277804755"><ele>1388.0</ele><time>2026-05-05T08:46:07Z</time></trkpt><trkpt lat="31.196820476247556" lon="-6.166470267286166"><ele>1388.0</ele><time>2026-05-05T08:46:08Z</time></trkpt><trkpt lat="31.196735349078853" lon="-6.1666135882361335"><ele>1388.0</ele><time>2026-05-05T08:46:09Z</time></trkpt><trkpt lat="31.196636349512975" lon="-6.166751688125305"><ele>1387.75</ele><time>2026-05-05T08:46:10Z</time></trkpt><trkpt lat="31.196530255185127" lon="-6.166873411996935"><ele>1387.5</ele><time>2026-05-05T08:46:11Z</time></trkpt><trkpt lat="31.196431115552713" lon="-6.1669783902589215"><ele>1387.25</ele><time>2026-05-05T08:46:12Z</time></trkpt><trkpt lat="31.196324231325455" lon="-6.1670718797149835"><ele>1387.0</ele><time>2026-05-05T08:46:13Z</time></trkpt><trkpt lat="31.19622653696608" lon="-6.167156978445857"><ele>1386.5</ele><time>2026-05-05T08:46:14Z</time></trkpt><trkpt lat="31.196128959012878" lon="-6.167241753068731"><ele>1386.0</ele><time>2026-05-05T08:46:15Z</time></trkpt><trkpt lat="31.19606020525066" lon="-6.167343141136528"><ele>1385.5</ele><time>2026-05-05T08:46:16Z</time></trkpt><trkpt lat="31.19600063740411" lon="-6.167444733727388"><ele>1385.0</ele><time>2026-05-05T08:46:17Z</time></trkpt><trkpt lat="31.195937477970674" lon="-6.1675599724108565"><ele>1385.0</ele><time>2026-05-05T08:46:18Z</time></trkpt><trkpt lat="31.195897028601973" lon="-6.167681218809859"><ele>1385.0</ele><time>2026-05-05T08:46:19Z</time></trkpt><trkpt lat="31.195850516817565" lon="-6.16780796167868"><ele>1385.0</ele><time>2026-05-05T08:46:20Z</time></trkpt><trkpt lat="31.195804196812066" lon="-6.167934914674979"><ele>1385.0</ele><time>2026-05-05T08:46:21Z</time></trkpt><trkpt lat="31.195755356568004" lon="-6.168067844531406"><ele>1384.25</ele><time>2026-05-05T08:46:22Z</time></trkpt><trkpt lat="31.195705655953333" lon="-6.16820435525341"><ele>1383.5</ele><time>2026-05-05T08:46:23Z</time></trkpt><trkpt lat="31.195655195622216" lon="-6.168342273196159"><ele>1382.75</ele><time>2026-05-05T08:46:24Z</time></trkpt><trkpt lat="31.195604358410648" lon="-6.168483427080498"><ele>1382.0</ele><time>2026-05-05T08:46:25Z</time></trkpt><trkpt lat="31.1955582033873" lon="-6.16862936941589"><ele>1384.0</ele><time>2026-05-05T08:46:26Z</time></trkpt><trkpt lat="31.19551318931399" lon="-6.168773451780256"><ele>1386.0</ele><time>2026-05-05T08:46:27Z</time></trkpt><trkpt lat="31.195469407232718" lon="-6.168914638515651"><ele>1388.0</ele><time>2026-05-05T08:46:28Z</time></trkpt><trkpt lat="31.195392036534226" lon="-6.1690397886559705"><ele>1390.0</ele><time>2026-05-05T08:46:29Z</time></trkpt><trkpt lat="31.195367074139895" lon="-6.169184467198587"><ele>1390.0</ele><time>2026-05-05T08:46:30Z</time></trkpt><trkpt lat="31.195351994343262" lon="-6.169337872739649"><ele>1390.0</ele><time>2026-05-05T08:46:31Z</time></trkpt><trkpt lat="31.19534905289109" lon="-6.169495439601949"><ele>1390.0</ele><time>2026-05-05T08:46:32Z</time></trkpt><trkpt lat="31.195363615914914" lon="-6.169648708542663"><ele>1390.0</ele><time>2026-05-05T08:46:33Z</time></trkpt><trkpt lat="31.19539792861219" lon="-6.169802983329559"><ele>1388.75</ele><time>2026-05-05T08:46:34Z</time></trkpt><trkpt lat="31.195490723367815" lon="-6.169936895663567"><ele>1387.5</ele><time>2026-05-05T08:46:35Z</time></trkpt><trkpt lat="31.195552106355585" lon="-6.17008916405391"><ele>1386.25</ele><time>2026-05-05T08:46:36Z</time></trkpt><trkpt lat="31.195612705363356" lon="-6.170238177280934"><ele>1385.0</ele><time>2026-05-05T08:46:37Z</time></trkpt><trkpt lat="31.19567063232471" lon="-6.170380321904345"><ele>1382.0</ele><time>2026-05-05T08:46:38Z</time></trkpt><trkpt lat="31.195729016693576" lon="-6.1705231073799895"><ele>1379.0</ele><time>2026-05-05T08:46:39Z</time></trkpt><trkpt lat="31.195789809006687" lon="-6.170671781813015"><ele>1376.0</ele><time>2026-05-05T08:46:40Z</time></trkpt><trkpt lat="31.195852475340676" lon="-6.170831089844408"><ele>1373.0</ele><time>2026-05-05T08:46:41Z</time></trkpt><trkpt lat="31.19591500884149" lon="-6.17099281711925"><ele>1372.5</ele><time>2026-05-05T08:46:42Z</time></trkpt><trkpt lat="31.19597711448079" lon="-6.171153241846011"><ele>1372.0</ele><time>2026-05-05T08:46:43Z</time></trkpt><trkpt lat="31.19603789576531" lon="-6.171312092092293"><ele>1371.5</ele><time>2026-05-05T08:46:44Z</time></trkpt><trkpt lat="31.196097493042274" lon="-6.171467127770398"><ele>1371.0</ele><time>2026-05-05T08:46:45Z</time></trkpt><trkpt lat="31.196155851941523" lon="-6.171618150452791"><ele>1372.0</ele><time>2026-05-05T08:46:46Z</time></trkpt><trkpt lat="31.196214775688254" lon="-6.1717714052088475"><ele>1373.0</ele><time>2026-05-05T08:46:47Z</time></trkpt><trkpt lat="31.196273577538523" lon="-6.1719243429198425"><ele>1374.0</ele><time>2026-05-05T08:46:48Z</time></trkpt><trkpt lat="31.1963321937101" lon="-6.172072254575297"><ele>1375.0</ele><time>2026-05-05T08:46:49Z</time></trkpt><trkpt lat="31.19639673725178" lon="-6.172217711723111"><ele>1375.25</ele><time>2026-05-05T08:46:50Z</time></trkpt><trkpt lat="31.196463650457467" lon="-6.172358061899825"><ele>1375.5</ele><time>2026-05-05T08:46:51Z</time></trkpt><trkpt lat="31.19653900342851" lon="-6.172500163952414"><ele>1375.75</ele><time>2026-05-05T08:46:52Z</time></trkpt><trkpt lat="31.196615448823263" lon="-6.172638908824178"><ele>1376.0</ele><time>2026-05-05T08:46:53Z</time></trkpt><trkpt lat="31.196700490547755" lon="-6.172777320397504"><ele>1377.0</ele><time>2026-05-05T08:46:54Z</time></trkpt><trkpt lat="31.196781508402626" lon="-6.172909915802018"><ele>1378.0</ele><time>2026-05-05T08:46:55Z</time></trkpt><trkpt lat="31.196861394579443" lon="-6.1730399268781255"><ele>1379.0</ele><time>2026-05-05T08:46:56Z</time></trkpt><trkpt lat="31.196944571964284" lon="-6.173164384895535"><ele>1380.0</ele><time>2026-05-05T08:46:57Z</time></trkpt><trkpt lat="31.19702660328207" lon="-6.17328772380549"><ele>1380.0</ele><time>2026-05-05T08:46:58Z</time></trkpt><trkpt lat="31.197107559342644" lon="-6.173408200211996"><ele>1380.0</ele><time>2026-05-05T08:46:59Z</time></trkpt><trkpt lat="31.197187611588628" lon="-6.1735265201823575"><ele>1380.0</ele><time>2026-05-05T08:47:00Z</time></trkpt><trkpt lat="31.197265348939194" lon="-6.173634713907388"><ele>1380.0</ele><time>2026-05-05T08:47:01Z</time></trkpt><trkpt lat="31.197347763613926" lon="-6.173733804670521"><ele>1379.6</ele><time>2026-05-05T08:47:02Z</time></trkpt><trkpt lat="31.197424991267383" lon="-6.173825920578169"><ele>1379.2</ele><time>2026-05-05T08:47:03Z</time></trkpt><trkpt lat="31.197506058065304" lon="-6.173902474304226"><ele>1378.8000000000002</ele><time>2026-05-05T08:47:04Z</time></trkpt><trkpt lat="31.197591010058208" lon="-6.1739847800208905"><ele>1378.4</ele><time>2026-05-05T08:47:05Z</time></trkpt><trkpt lat="31.197679313587358" lon="-6.174059953604362"><ele>1378.0</ele><time>2026-05-05T08:47:06Z</time></trkpt><trkpt lat="31.197770767608123" lon="-6.174133763863018"><ele>1380.5</ele><time>2026-05-05T08:47:07Z</time></trkpt><trkpt lat="31.19786194376601" lon="-6.174207349878908"><ele>1383.0</ele><time>2026-05-05T08:47:08Z</time></trkpt><trkpt lat="31.19795584092843" lon="-6.174277650644488"><ele>1385.5</ele><time>2026-05-05T08:47:09Z</time></trkpt><trkpt lat="31.19805319885008" lon="-6.174349141901217"><ele>1388.0</ele><time>2026-05-05T08:47:10Z</time></trkpt><trkpt lat="31.19814907135406" lon="-6.174419711540616"><ele>1385.75</ele><time>2026-05-05T08:47:11Z</time></trkpt><trkpt lat="31.19824459669331" lon="-6.174489299496063"><ele>1383.5</ele><time>2026-05-05T08:47:12Z</time></trkpt><trkpt lat="31.198341207978515" lon="-6.174560081634769"><ele>1381.25</ele><time>2026-05-05T08:47:13Z</time></trkpt><trkpt lat="31.198438412361874" lon="-6.174631994432067"><ele>1379.0</ele><time>2026-05-05T08:47:14Z</time></trkpt><trkpt lat="31.198537325740713" lon="-6.17471206784228"><ele>1379.0</ele><time>2026-05-05T08:47:15Z</time></trkpt><trkpt lat="31.19863045620643" lon="-6.1747973662334665"><ele>1379.0</ele><time>2026-05-05T08:47:16Z</time></trkpt><trkpt lat="31.1987269037452" lon="-6.174892219603142"><ele>1379.0</ele><time>2026-05-05T08:47:17Z</time></trkpt><trkpt lat="31.198816538503227" lon="-6.174991360115757"><ele>1379.0</ele><time>2026-05-05T08:47:18Z</time></trkpt><trkpt lat="31.198893482713448" lon="-6.175104323867419"><ele>1379.75</ele><time>2026-05-05T08:47:19Z</time></trkpt><trkpt lat="31.19895745044753" lon="-6.175233485156022"><ele>1380.5</ele><time>2026-05-05T08:47:20Z</time></trkpt><trkpt lat="31.199006127113023" lon="-6.175375901341023"><ele>1381.25</ele><time>2026-05-05T08:47:21Z</time></trkpt><trkpt lat="31.199037644659562" lon="-6.175531279217074"><ele>1382.0</ele><time>2026-05-05T08:47:22Z</time></trkpt><trkpt lat="31.199052609495347" lon="-6.175694386151202"><ele>1382.0</ele><time>2026-05-05T08:47:23Z</time></trkpt><trkpt lat="31.199051585773535" lon="-6.17584197295747"><ele>1382.0</ele><time>2026-05-05T08:47:24Z</time></trkpt><trkpt lat="31.199023256747584" lon="-6.176003608338332"><ele>1382.0</ele><time>2026-05-05T08:47:25Z</time></trkpt><trkpt lat="31.198963261975916" lon="-6.176154798615365"><ele>1382.0</ele><time>2026-05-05T08:47:26Z</time></trkpt><trkpt lat="31.198894906759556" lon="-6.176295689354448"><ele>1383.75</ele><time>2026-05-05T08:47:27Z</time></trkpt><trkpt lat="31.198824327824834" lon="-6.176413454388768"><ele>1385.5</ele><time>2026-05-05T08:47:28Z</time></trkpt><trkpt lat="31.198754007753287" lon="-6.176522517775062"><ele>1387.25</ele><time>2026-05-05T08:47:29Z</time></trkpt><trkpt lat="31.19868375702792" lon="-6.176626105803347"><ele>1389.0</ele><time>2026-05-05T08:47:30Z</time></trkpt><trkpt lat="31.19861507377281" lon="-6.1767291947965495"><ele>1389.0</ele><time>2026-05-05T08:47:31Z</time></trkpt><trkpt lat="31.198544618997765" lon="-6.176832588795445"><ele>1389.0</ele><time>2026-05-05T08:47:32Z</time></trkpt><trkpt lat="31.198476659836896" lon="-6.176930345211794"><ele>1389.0</ele><time>2026-05-05T08:47:33Z</time></trkpt><trkpt lat="31.198408970084433" lon="-6.177027714138437"><ele>1389.0</ele><time>2026-05-05T08:47:35Z</time></trkpt><trkpt lat="31.198350797900467" lon="-6.177111003635615"><ele>1389.0</ele><time>2026-05-05T08:47:37Z</time></trkpt><trkpt lat="31.198307703791" lon="-6.177172684850459"><ele>1389.0</ele><time>2026-05-05T08:47:38Z</time></trkpt><trkpt lat="31.19826216650723" lon="-6.177245451931524"><ele>1389.0</ele><time>2026-05-05T08:47:39Z</time></trkpt><trkpt lat="31.1982116851636" lon="-6.177321359788974"><ele>1389.0</ele><time>2026-05-05T08:47:40Z</time></trkpt><trkpt lat="31.198148569402484" lon="-6.177416265891575"><ele>1389.0</ele><time>2026-05-05T08:47:41Z</time></trkpt><trkpt lat="31.19807744469749" lon="-6.1775232146817265"><ele>1389.0</ele><time>2026-05-05T08:47:42Z</time></trkpt><trkpt lat="31.198000837485445" lon="-6.177636462574173"><ele>1388.25</ele><time>2026-05-05T08:47:43Z</time></trkpt><trkpt lat="31.197935048730777" lon="-6.177731550290886"><ele>1387.5</ele><time>2026-05-05T08:47:44Z</time></trkpt><trkpt lat="31.19785107715698" lon="-6.177853409338513"><ele>1386.75</ele><time>2026-05-05T08:47:45Z</time></trkpt><trkpt lat="31.19777086338525" lon="-6.177968417897432"><ele>1386.0</ele><time>2026-05-05T08:47:46Z</time></trkpt><trkpt lat="31.19769224652245" lon="-6.178082502739631"><ele>1387.75</ele><time>2026-05-05T08:47:47Z</time></trkpt><trkpt lat="31.197611860688202" lon="-6.17819876877725"><ele>1389.5</ele><time>2026-05-05T08:47:48Z</time></trkpt><trkpt lat="31.197525021869666" lon="-6.178324199944529"><ele>1391.25</ele><time>2026-05-05T08:47:49Z</time></trkpt><trkpt lat="31.197439761864725" lon="-6.178447258075542"><ele>1393.0</ele><time>2026-05-05T08:47:50Z</time></trkpt><trkpt lat="31.197351015729403" lon="-6.1785753478797805"><ele>1393.25</ele><time>2026-05-05T08:47:51Z</time></trkpt><trkpt lat="31.197259701479226" lon="-6.178706923116535"><ele>1393.5</ele><time>2026-05-05T08:47:52Z</time></trkpt><trkpt lat="31.19716305378998" lon="-6.178844825393111"><ele>1393.75</ele><time>2026-05-05T08:47:53Z</time></trkpt><trkpt lat="31.197066402134148" lon="-6.178978439268279"><ele>1394.0</ele><time>2026-05-05T08:47:54Z</time></trkpt><trkpt lat="31.19697001084383" lon="-6.1791112980190315"><ele>1394.3333333333335</ele><time>2026-05-05T08:47:55Z</time></trkpt><trkpt lat="31.19687212549006" lon="-6.179247350358961"><ele>1394.6666666666667</ele><time>2026-05-05T08:47:56Z</time></trkpt><trkpt lat="31.19677565873537" lon="-6.179381474637483"><ele>1395.0</ele><time>2026-05-05T08:47:57Z</time></trkpt><trkpt lat="31.196681029800313" lon="-6.17951694158047"><ele>1395.0</ele><time>2026-05-05T08:47:58Z</time></trkpt><trkpt lat="31.196590029226083" lon="-6.17965241157459"><ele>1395.0</ele><time>2026-05-05T08:47:59Z</time></trkpt><trkpt lat="31.196492686108687" lon="-6.179796729060092"><ele>1395.0</ele><time>2026-05-05T08:48:00Z</time></trkpt><trkpt lat="31.19639364110656" lon="-6.179943569907085"><ele>1394.6666666666667</ele><time>2026-05-05T08:48:01Z</time></trkpt><trkpt lat="31.19628878396661" lon="-6.180098202552618"><ele>1394.3333333333335</ele><time>2026-05-05T08:48:02Z</time></trkpt><trkpt lat="31.196182010401724" lon="-6.180255403975118"><ele>1394.0</ele><time>2026-05-05T08:48:03Z</time></trkpt><trkpt lat="31.19607599033242" lon="-6.180412430064909"><ele>1394.0</ele><time>2026-05-05T08:48:04Z</time></trkpt><trkpt lat="31.19596900666859" lon="-6.1805708833691515"><ele>1394.0</ele><time>2026-05-05T08:48:05Z</time></trkpt><trkpt lat="31.195861199761474" lon="-6.180730556015426"><ele>1394.0</ele><time>2026-05-05T08:48:06Z</time></trkpt><trkpt lat="31.19575258282645" lon="-6.180891428359496"><ele>1394.3333333333335</ele><time>2026-05-05T08:48:07Z</time></trkpt><trkpt lat="31.195647995170276" lon="-6.1810469891339705"><ele>1394.6666666666667</ele><time>2026-05-05T08:48:08Z</time></trkpt><trkpt lat="31.19554589157782" lon="-6.18119697480643"><ele>1395.0</ele><time>2026-05-05T08:48:09Z</time></trkpt><trkpt lat="31.195445178289113" lon="-6.181343949613284"><ele>1395.0</ele><time>2026-05-05T08:48:10Z</time></trkpt><trkpt lat="31.19534192034345" lon="-6.181493202389561"><ele>1395.0</ele><time>2026-05-05T08:48:11Z</time></trkpt><trkpt lat="31.195242588327954" lon="-6.1816371351384625"><ele>1395.0</ele><time>2026-05-05T08:48:12Z</time></trkpt><trkpt lat="31.19513867530022" lon="-6.181786795700734"><ele>1392.3333333333333</ele><time>2026-05-05T08:48:13Z</time></trkpt><trkpt lat="31.19504254867863" lon="-6.181941638748145"><ele>1389.6666666666665</ele><time>2026-05-05T08:48:14Z</time></trkpt><trkpt lat="31.19494446983349" lon="-6.1821036077030245"><ele>1387.0</ele><time>2026-05-05T08:48:15Z</time></trkpt><trkpt lat="31.194839453497504" lon="-6.182286009382914"><ele>1384.0</ele><time>2026-05-05T08:48:16Z</time></trkpt><trkpt lat="31.194765281934124" lon="-6.182431447900851"><ele>1381.0</ele><time>2026-05-05T08:48:17Z</time></trkpt><trkpt lat="31.194689303013025" lon="-6.182602638504599"><ele>1378.0</ele><time>2026-05-05T08:48:18Z</time></trkpt><trkpt lat="31.194622349834916" lon="-6.182784392933907"><ele>1378.0</ele><time>2026-05-05T08:48:19Z</time></trkpt><trkpt lat="31.194569029080466" lon="-6.182968518596288"><ele>1378.0</ele><time>2026-05-05T08:48:20Z</time></trkpt><trkpt lat="31.194522245290955" lon="-6.183155793064991"><ele>1378.0</ele><time>2026-05-05T08:48:21Z</time></trkpt><trkpt lat="31.194484830456332" lon="-6.183346644593075"><ele>1378.0</ele><time>2026-05-05T08:48:22Z</time></trkpt><trkpt lat="31.194460240378906" lon="-6.183531994035675"><ele>1378.0</ele><time>2026-05-05T08:48:23Z</time></trkpt><trkpt lat="31.194439328468516" lon="-6.1837215080665775"><ele>1378.0</ele><time>2026-05-05T08:48:24Z</time></trkpt><trkpt lat="31.194419233623258" lon="-6.183898501073998"><ele>1379.0</ele><time>2026-05-05T08:48:25Z</time></trkpt><trkpt lat="31.19439914054804" lon="-6.184075989959131"><ele>1380.0</ele><time>2026-05-05T08:48:26Z</time></trkpt><trkpt lat="31.194378961271894" lon="-6.184257629384097"><ele>1381.0</ele><time>2026-05-05T08:48:27Z</time></trkpt><trkpt lat="31.194359884421168" lon="-6.1844313643635545"><ele>1381.0</ele><time>2026-05-05T08:48:28Z</time></trkpt><trkpt lat="31.19434096542893" lon="-6.184605267078719"><ele>1381.0</ele><time>2026-05-05T08:48:29Z</time></trkpt><trkpt lat="31.19432183368506" lon="-6.184779650057864"><ele>1381.0</ele><time>2026-05-05T08:48:30Z</time></trkpt><trkpt lat="31.194301990616776" lon="-6.184952398305789"><ele>1381.0</ele><time>2026-05-05T08:48:31Z</time></trkpt><trkpt lat="31.19428270976464" lon="-6.185124246632099"><ele>1380.6666666666665</ele><time>2026-05-05T08:48:32Z</time></trkpt><trkpt lat="31.19426211104133" lon="-6.1853004926828525"><ele>1380.3333333333333</ele><time>2026-05-05T08:48:33Z</time></trkpt><trkpt lat="31.194241410206825" lon="-6.185477152120122"><ele>1380.0</ele><time>2026-05-05T08:48:34Z</time></trkpt><trkpt lat="31.194220412684334" lon="-6.185653746249914"><ele>1381.0</ele><time>2026-05-05T08:48:35Z</time></trkpt><trkpt lat="31.19419918245085" lon="-6.185826399116147"><ele>1382.0</ele><time>2026-05-05T08:48:36Z</time></trkpt><trkpt lat="31.194179258206415" lon="-6.18599592320787"><ele>1383.0</ele><time>2026-05-05T08:48:37Z</time></trkpt><trkpt lat="31.194164495709316" lon="-6.1861675045014595"><ele>1384.0</ele><time>2026-05-05T08:48:38Z</time></trkpt><trkpt lat="31.194161184720237" lon="-6.186338228767742"><ele>1384.0</ele><time>2026-05-05T08:48:39Z</time></trkpt><trkpt lat="31.19416318605709" lon="-6.1864984348984065"><ele>1384.0</ele><time>2026-05-05T08:48:40Z</time></trkpt><trkpt lat="31.19417140425299" lon="-6.1866694091281085"><ele>1384.0</ele><time>2026-05-05T08:48:41Z</time></trkpt><trkpt lat="31.194190258697592" lon="-6.18683353510934"><ele>1384.0</ele><time>2026-05-05T08:48:42Z</time></trkpt><trkpt lat="31.19421772159134" lon="-6.186998086847946"><ele>1385.25</ele><time>2026-05-05T08:48:43Z</time></trkpt><trkpt lat="31.19424983624409" lon="-6.187161850760185"><ele>1386.5</ele><time>2026-05-05T08:48:44Z</time></trkpt><trkpt lat="31.194294780472095" lon="-6.187313585741154"><ele>1387.75</ele><time>2026-05-05T08:48:45Z</time></trkpt><trkpt lat="31.194340224682087" lon="-6.187465355588742"><ele>1389.0</ele><time>2026-05-05T08:48:46Z</time></trkpt><trkpt lat="31.19438976735966" lon="-6.187609868590178"><ele>1390.0</ele><time>2026-05-05T08:48:47Z</time></trkpt><trkpt lat="31.194445161580894" lon="-6.187739608236118"><ele>1391.0</ele><time>2026-05-05T08:48:48Z</time></trkpt><trkpt lat="31.194508158253644" lon="-6.1878738450528115"><ele>1392.0</ele><time>2026-05-05T08:48:49Z</time></trkpt><trkpt lat="31.194571911020706" lon="-6.188001102502989"><ele>1393.0</ele><time>2026-05-05T08:48:50Z</time></trkpt><trkpt lat="31.194634550203315" lon="-6.188127178713941"><ele>1393.0</ele><time>2026-05-05T08:48:51Z</time></trkpt><trkpt lat="31.194698851227695" lon="-6.188256433713099"><ele>1393.0</ele><time>2026-05-05T08:48:52Z</time></trkpt><trkpt lat="31.19476288797144" lon="-6.188387095938988"><ele>1393.0</ele><time>2026-05-05T08:48:53Z</time></trkpt><trkpt lat="31.194828555186195" lon="-6.188518827241998"><ele>1393.0</ele><time>2026-05-05T08:48:54Z</time></trkpt><trkpt lat="31.1948945890061" lon="-6.188651262593924"><ele>1393.0</ele><time>2026-05-05T08:48:55Z</time></trkpt><trkpt lat="31.19496050511065" lon="-6.188786060550009"><ele>1393.0</ele><time>2026-05-05T08:48:56Z</time></trkpt><trkpt lat="31.19502803402504" lon="-6.188918044493074"><ele>1393.0</ele><time>2026-05-05T08:48:57Z</time></trkpt><trkpt lat="31.195095320521713" lon="-6.189048381684125"><ele>1393.0</ele><time>2026-05-05T08:48:58Z</time></trkpt><trkpt lat="31.19516304810513" lon="-6.1891810417550035"><ele>1393.75</ele><time>2026-05-05T08:48:59Z</time></trkpt><trkpt lat="31.19522922447726" lon="-6.189311421872396"><ele>1394.5</ele><time>2026-05-05T08:49:00Z</time></trkpt><trkpt lat="31.195294958244414" lon="-6.189440463288653"><ele>1395.25</ele><time>2026-05-05T08:49:01Z</time></trkpt><trkpt lat="31.1953627987664" lon="-6.189574045749118"><ele>1396.0</ele><time>2026-05-05T08:49:02Z</time></trkpt><trkpt lat="31.19543065664312" lon="-6.189705747976546"><ele>1396.75</ele><time>2026-05-05T08:49:03Z</time></trkpt><trkpt lat="31.19550208896929" lon="-6.189844107394897"><ele>1397.5</ele><time>2026-05-05T08:49:04Z</time></trkpt><trkpt lat="31.19557426636097" lon="-6.189986938613706"><ele>1398.25</ele><time>2026-05-05T08:49:05Z</time></trkpt><trkpt lat="31.19564895925778" lon="-6.19013263075399"><ele>1399.0</ele><time>2026-05-05T08:49:06Z</time></trkpt><trkpt lat="31.195726726738204" lon="-6.1902849606438535"><ele>1395.6666666666665</ele><time>2026-05-05T08:49:07Z</time></trkpt><trkpt lat="31.195806073942702" lon="-6.190442665776786"><ele>1392.3333333333333</ele><time>2026-05-05T08:49:08Z</time></trkpt><trkpt lat="31.195887689840532" lon="-6.190605094643386"><ele>1389.0</ele><time>2026-05-05T08:49:09Z</time></trkpt><trkpt lat="31.19596894450996" lon="-6.190766508790998"><ele>1385.6666666666667</ele><time>2026-05-05T08:49:10Z</time></trkpt><trkpt lat="31.1960528537542" lon="-6.190932697718529"><ele>1382.3333333333335</ele><time>2026-05-05T08:49:11Z</time></trkpt><trkpt lat="31.196138964121925" lon="-6.191101458361526"><ele>1379.0</ele><time>2026-05-05T08:49:12Z</time></trkpt><trkpt lat="31.19622695273831" lon="-6.191272852723278"><ele>1379.0</ele><time>2026-05-05T08:49:13Z</time></trkpt><trkpt lat="31.196314908495612" lon="-6.191442858103773"><ele>1379.0</ele><time>2026-05-05T08:49:14Z</time></trkpt><trkpt lat="31.196403956657836" lon="-6.191615559281361"><ele>1379.0</ele><time>2026-05-05T08:49:15Z</time></trkpt><trkpt lat="31.196491189708794" lon="-6.1917830940341805"><ele>1377.6666666666667</ele><time>2026-05-05T08:49:16Z</time></trkpt><trkpt lat="31.19657699326919" lon="-6.191947017106647"><ele>1376.3333333333333</ele><time>2026-05-05T08:49:17Z</time></trkpt><trkpt lat="31.196654403045628" lon="-6.192121436444953"><ele>1375.0</ele><time>2026-05-05T08:49:18Z</time></trkpt><trkpt lat="31.19674307090702" lon="-6.1922657827477"><ele>1374.3333333333333</ele><time>2026-05-05T08:49:19Z</time></trkpt><trkpt lat="31.196825179576056" lon="-6.192423116355716"><ele>1373.6666666666667</ele><time>2026-05-05T08:49:20Z</time></trkpt><trkpt lat="31.19690508023279" lon="-6.1925760612242815"><ele>1373.0</ele><time>2026-05-05T08:49:21Z</time></trkpt><trkpt lat="31.196985919417607" lon="-6.192729613784765"><ele>1373.0</ele><time>2026-05-05T08:49:22Z</time></trkpt><trkpt lat="31.19706516480109" lon="-6.192879563627755"><ele>1373.0</ele><time>2026-05-05T08:49:23Z</time></trkpt><trkpt lat="31.197140959456842" lon="-6.193028493364955"><ele>1373.0</ele><time>2026-05-05T08:49:24Z</time></trkpt><trkpt lat="31.197216164657064" lon="-6.1931720008367614"><ele>1373.0</ele><time>2026-05-05T08:49:25Z</time></trkpt><trkpt lat="31.19729157682502" lon="-6.193317348614365"><ele>1372.5</ele><time>2026-05-05T08:49:26Z</time></trkpt><trkpt lat="31.19736861155513" lon="-6.193464421127716"><ele>1372.0</ele><time>2026-05-05T08:49:27Z</time></trkpt><trkpt lat="31.19744415494143" lon="-6.1936095518575796"><ele>1371.5</ele><time>2026-05-05T08:49:28Z</time></trkpt><trkpt lat="31.197519309791275" lon="-6.193753936130716"><ele>1371.0</ele><time>2026-05-05T08:49:29Z</time></trkpt><trkpt lat="31.197596381224077" lon="-6.193902102351554"><ele>1371.0</ele><time>2026-05-05T08:49:30Z</time></trkpt><trkpt lat="31.197675833218174" lon="-6.194057289189257"><ele>1371.0</ele><time>2026-05-05T08:49:31Z</time></trkpt><trkpt lat="31.197754771609855" lon="-6.194216342759589"><ele>1371.0</ele><time>2026-05-05T08:49:32Z</time></trkpt><trkpt lat="31.197835094314673" lon="-6.19437841838969"><ele>1371.0</ele><time>2026-05-05T08:49:33Z</time></trkpt><trkpt lat="31.197910899080348" lon="-6.194545527589338"><ele>1371.0</ele><time>2026-05-05T08:49:34Z</time></trkpt><trkpt lat="31.19798089513232" lon="-6.19470972912006"><ele>1371.0</ele><time>2026-05-05T08:49:35Z</time></trkpt><trkpt lat="31.1980507901646" lon="-6.1948736938714575"><ele>1370.6666666666667</ele><time>2026-05-05T08:49:36Z</time></trkpt><trkpt lat="31.198099718755774" lon="-6.195048880323329"><ele>1370.3333333333335</ele><time>2026-05-05T08:49:37Z</time></trkpt><trkpt lat="31.19814883734251" lon="-6.1952192994645"><ele>1370.0</ele><time>2026-05-05T08:49:38Z</time></trkpt><trkpt lat="31.19819511107284" lon="-6.195398432316539"><ele>1370.0</ele><time>2026-05-05T08:49:39Z</time></trkpt><trkpt lat="31.198232197901206" lon="-6.195572726636033"><ele>1370.0</ele><time>2026-05-05T08:49:40Z</time></trkpt><trkpt lat="31.198269942494928" lon="-6.1957484873706195"><ele>1370.0</ele><time>2026-05-05T08:49:41Z</time></trkpt><trkpt lat="31.198297171380233" lon="-6.195930537653733"><ele>1370.3333333333335</ele><time>2026-05-05T08:49:42Z</time></trkpt><trkpt lat="31.198319381850155" lon="-6.196105757824011"><ele>1370.6666666666667</ele><time>2026-05-05T08:49:43Z</time></trkpt><trkpt lat="31.198333456435947" lon="-6.196288022155959"><ele>1371.0</ele><time>2026-05-05T08:49:44Z</time></trkpt><trkpt lat="31.198340495356994" lon="-6.1964651285306624"><ele>1371.3333333333333</ele><time>2026-05-05T08:49:45Z</time></trkpt><trkpt lat="31.19834188195385" lon="-6.196647537406882"><ele>1371.6666666666665</ele><time>2026-05-05T08:49:46Z</time></trkpt><trkpt lat="31.198332571354555" lon="-6.19682395152315"><ele>1372.0</ele><time>2026-05-05T08:49:47Z</time></trkpt><trkpt lat="31.198318940973007" lon="-6.196998856100843"><ele>1372.0</ele><time>2026-05-05T08:49:48Z</time></trkpt><trkpt lat="31.198301081295334" lon="-6.197167663955418"><ele>1372.0</ele><time>2026-05-05T08:49:49Z</time></trkpt><trkpt lat="31.1982838495902" lon="-6.197330536389844"><ele>1372.0</ele><time>2026-05-05T08:49:50Z</time></trkpt><trkpt lat="31.19826529844781" lon="-6.197497793319927"><ele>1372.0</ele><time>2026-05-05T08:49:51Z</time></trkpt><trkpt lat="31.198225915679597" lon="-6.197666922468904"><ele>1372.25</ele><time>2026-05-05T08:49:52Z</time></trkpt><trkpt lat="31.198179607695778" lon="-6.197826168336829"><ele>1372.5</ele><time>2026-05-05T08:49:53Z</time></trkpt><trkpt lat="31.198141092708145" lon="-6.197991681393382"><ele>1372.75</ele><time>2026-05-05T08:49:54Z</time></trkpt><trkpt lat="31.198098251109606" lon="-6.198158114023475"><ele>1373.0</ele><time>2026-05-05T08:49:55Z</time></trkpt><trkpt lat="31.198073245276646" lon="-6.198329496324027"><ele>1372.0</ele><time>2026-05-05T08:49:56Z</time></trkpt><trkpt lat="31.198029966795875" lon="-6.198496120132235"><ele>1371.0</ele><time>2026-05-05T08:49:57Z</time></trkpt><trkpt lat="31.197985739771287" lon="-6.19866606548088"><ele>1370.0</ele><time>2026-05-05T08:49:58Z</time></trkpt><trkpt lat="31.197941511298833" lon="-6.198836016359023"><ele>1370.0</ele><time>2026-05-05T08:49:59Z</time></trkpt><trkpt lat="31.197898209787024" lon="-6.199002748671859"><ele>1370.0</ele><time>2026-05-05T08:50:00Z</time></trkpt><trkpt lat="31.19785322320349" lon="-6.199176229393603"><ele>1370.0</ele><time>2026-05-05T08:50:01Z</time></trkpt><trkpt lat="31.197807371059458" lon="-6.199346926250155"><ele>1370.0</ele><time>2026-05-05T08:50:02Z</time></trkpt><trkpt lat="31.197759953633756" lon="-6.1995221791645285"><ele>1370.0</ele><time>2026-05-05T08:50:03Z</time></trkpt><trkpt lat="31.19771243360584" lon="-6.199697760963373"><ele>1370.0</ele><time>2026-05-05T08:50:04Z</time></trkpt><trkpt lat="31.19766388261388" lon="-6.199877914473896"><ele>1370.3333333333335</ele><time>2026-05-05T08:50:05Z</time></trkpt><trkpt lat="31.197616209673228" lon="-6.200055822401126"><ele>1370.6666666666667</ele><time>2026-05-05T08:50:06Z</time></trkpt><trkpt lat="31.197567260529137" lon="-6.200238843324534"><ele>1371.0</ele><time>2026-05-05T08:50:07Z</time></trkpt><trkpt lat="31.1975210072547" lon="-6.20041147744898"><ele>1371.0</ele><time>2026-05-05T08:50:08Z</time></trkpt><trkpt lat="31.197475140180284" lon="-6.2005791566624"><ele>1371.0</ele><time>2026-05-05T08:50:09Z</time></trkpt><trkpt lat="31.19743334541773" lon="-6.2007410774977325"><ele>1371.0</ele><time>2026-05-05T08:50:10Z</time></trkpt><trkpt lat="31.19739332054144" lon="-6.200899957493963"><ele>1371.0</ele><time>2026-05-05T08:50:11Z</time></trkpt><trkpt lat="31.197354234878986" lon="-6.201049335476089"><ele>1370.4</ele><time>2026-05-05T08:50:12Z</time></trkpt><trkpt lat="31.197318571163816" lon="-6.201188837500279"><ele>1369.8</ele><time>2026-05-05T08:50:13Z</time></trkpt><trkpt lat="31.197284389232045" lon="-6.201322378804614"><ele>1369.2</ele><time>2026-05-05T08:50:14Z</time></trkpt><trkpt lat="31.19725340839291" lon="-6.2014420146355"><ele>1368.6000000000001</ele><time>2026-05-05T08:50:15Z</time></trkpt><trkpt lat="31.197226164579998" lon="-6.201547220671045"><ele>1368.0</ele><time>2026-05-05T08:50:16Z</time></trkpt><trkpt lat="31.19719995590619" lon="-6.201641311169899"><ele>1368.0</ele><time>2026-05-05T08:50:17Z</time></trkpt><trkpt lat="31.197177739069563" lon="-6.201722966886724"><ele>1368.0</ele><time>2026-05-05T08:50:18Z</time></trkpt><trkpt lat="31.197155443202348" lon="-6.201842526130969"><ele>1368.0</ele><time>2026-05-05T08:50:20Z</time></trkpt><trkpt lat="31.197252007152258" lon="-6.201863163746142"><ele>1368.0</ele><time>2026-05-05T08:50:21Z</time></trkpt><trkpt lat="31.197280202819552" lon="-6.20194764445527"><ele>1368.0</ele><time>2026-05-05T08:50:23Z</time></trkpt><trkpt lat="31.19727605827541" lon="-6.202067923530646"><ele>1368.0</ele><time>2026-05-05T08:50:25Z</time></trkpt><trkpt lat="31.1971767562396" lon="-6.202088649347609"><ele>1368.0</ele><time>2026-05-05T08:50:27Z</time></trkpt><trkpt lat="31.197145881540337" lon="-6.2021582794422345"><ele>1368.0</ele><time>2026-05-05T08:53:42Z</time></trkpt><trkpt lat="31.197116047884432" lon="-6.20231189256296"><ele>1368.0</ele><time>2026-05-05T08:53:44Z</time></trkpt><trkpt lat="31.196998604243756" lon="-6.202297671608069"><ele>1368.0</ele><time>2026-05-05T08:53:46Z</time></trkpt><trkpt lat="31.19697142272491" lon="-6.202367238260946"><ele>1368.8000000000002</ele><time>2026-05-05T08:53:48Z</time></trkpt><trkpt lat="31.196933525759217" lon="-6.2025043289111865"><ele>1369.6</ele><time>2026-05-05T08:53:50Z</time></trkpt><trkpt lat="31.19691108991524" lon="-6.202599165196416"><ele>1370.4</ele><time>2026-05-05T08:53:51Z</time></trkpt><trkpt lat="31.196874458382837" lon="-6.202703053171992"><ele>1371.1999999999998</ele><time>2026-05-05T08:53:52Z</time></trkpt><trkpt lat="31.196842814928278" lon="-6.2027880668806485"><ele>1372.0</ele><time>2026-05-05T08:53:53Z</time></trkpt><trkpt lat="31.19681186629828" lon="-6.202893965600861"><ele>1372.0</ele><time>2026-05-05T08:53:54Z</time></trkpt><trkpt lat="31.19678603068068" lon="-6.2030127445824155"><ele>1372.0</ele><time>2026-05-05T08:53:55Z</time></trkpt><trkpt lat="31.19674859617953" lon="-6.203135600026666"><ele>1372.0</ele><time>2026-05-05T08:53:56Z</time></trkpt><trkpt lat="31.19671351722451" lon="-6.20325470813773"><ele>1372.0</ele><time>2026-05-05T08:53:57Z</time></trkpt><trkpt lat="31.19668022775723" lon="-6.203354939436699"><ele>1372.0</ele><time>2026-05-05T08:53:58Z</time></trkpt><trkpt lat="31.19664000895925" lon="-6.203464086531881"><ele>1372.25</ele><time>2026-05-05T08:53:59Z</time></trkpt><trkpt lat="31.19659502331373" lon="-6.203582526353607"><ele>1372.5</ele><time>2026-05-05T08:54:00Z</time></trkpt><trkpt lat="31.196547905636766" lon="-6.203708306044248"><ele>1372.75</ele><time>2026-05-05T08:54:01Z</time></trkpt><trkpt lat="31.19649564518078" lon="-6.203844712205145"><ele>1373.0</ele><time>2026-05-05T08:54:02Z</time></trkpt><trkpt lat="31.19644082693528" lon="-6.203987854827042"><ele>1373.25</ele><time>2026-05-05T08:54:03Z</time></trkpt><trkpt lat="31.196380771715194" lon="-6.204138033507833"><ele>1373.5</ele><time>2026-05-05T08:54:04Z</time></trkpt><trkpt lat="31.196325055881925" lon="-6.204277312440366"><ele>1373.75</ele><time>2026-05-05T08:54:05Z</time></trkpt><trkpt lat="31.19627001481609" lon="-6.204410473964938"><ele>1374.0</ele><time>2026-05-05T08:54:06Z</time></trkpt><trkpt lat="31.19621341273464" lon="-6.204552010523082"><ele>1374.0</ele><time>2026-05-05T08:54:07Z</time></trkpt><trkpt lat="31.19616365254309" lon="-6.204689283664906"><ele>1374.0</ele><time>2026-05-05T08:54:08Z</time></trkpt><trkpt lat="31.1961039044865" lon="-6.204828739394244"><ele>1374.0</ele><time>2026-05-05T08:54:09Z</time></trkpt><trkpt lat="31.19604205215348" lon="-6.204967822590949"><ele>1374.0</ele><time>2026-05-05T08:54:10Z</time></trkpt><trkpt lat="31.19597862983612" lon="-6.205112984808832"><ele>1372.75</ele><time>2026-05-05T08:54:11Z</time></trkpt><trkpt lat="31.195914203615516" lon="-6.205263038118635"><ele>1371.5</ele><time>2026-05-05T08:54:12Z</time></trkpt><trkpt lat="31.19584743069201" lon="-6.205419814255787"><ele>1370.25</ele><time>2026-05-05T08:54:13Z</time></trkpt><trkpt lat="31.19578410617754" lon="-6.205576371379553"><ele>1369.0</ele><time>2026-05-05T08:54:14Z</time></trkpt><trkpt lat="31.19571278489996" lon="-6.205734456320385"><ele>1368.6666666666665</ele><time>2026-05-05T08:54:15Z</time></trkpt><trkpt lat="31.19564230972069" lon="-6.205892603950763"><ele>1368.3333333333333</ele><time>2026-05-05T08:54:16Z</time></trkpt><trkpt lat="31.19557416040464" lon="-6.2060517994308055"><ele>1368.0</ele><time>2026-05-05T08:54:17Z</time></trkpt><trkpt lat="31.195506931849913" lon="-6.2062105126087275"><ele>1368.0</ele><time>2026-05-05T08:54:18Z</time></trkpt><trkpt lat="31.195456542075167" lon="-6.2063761425209005"><ele>1368.0</ele><time>2026-05-05T08:54:19Z</time></trkpt><trkpt lat="31.19539210167919" lon="-6.2065310713625275"><ele>1368.0</ele><time>2026-05-05T08:54:20Z</time></trkpt><trkpt lat="31.195329842910567" lon="-6.206680353274822"><ele>1368.0</ele><time>2026-05-05T08:54:21Z</time></trkpt><trkpt lat="31.195271117565" lon="-6.206822298184991"><ele>1367.75</ele><time>2026-05-05T08:54:22Z</time></trkpt><trkpt lat="31.195215457622492" lon="-6.206956864287596"><ele>1367.5</ele><time>2026-05-05T08:54:23Z</time></trkpt><trkpt lat="31.19515897817562" lon="-6.20709341162466"><ele>1367.25</ele><time>2026-05-05T08:54:24Z</time></trkpt><trkpt lat="31.195101924723556" lon="-6.207229829765401"><ele>1367.0</ele><time>2026-05-05T08:54:25Z</time></trkpt><trkpt lat="31.195045859165287" lon="-6.207364944371522"><ele>1367.0</ele><time>2026-05-05T08:54:26Z</time></trkpt><trkpt lat="31.19498926747563" lon="-6.207500259191109"><ele>1367.0</ele><time>2026-05-05T08:54:27Z</time></trkpt><trkpt lat="31.194932404061138" lon="-6.2076366812660755"><ele>1367.0</ele><time>2026-05-05T08:54:28Z</time></trkpt><trkpt lat="31.194875678121242" lon="-6.207772890214137"><ele>1367.0</ele><time>2026-05-05T08:54:29Z</time></trkpt><trkpt lat="31.194819263037704" lon="-6.207908737733244"><ele>1367.25</ele><time>2026-05-05T08:54:30Z</time></trkpt><trkpt lat="31.194762861947094" lon="-6.208044541436974"><ele>1367.5</ele><time>2026-05-05T08:54:31Z</time></trkpt><trkpt lat="31.19470668296356" lon="-6.208179778159254"><ele>1367.75</ele><time>2026-05-05T08:54:32Z</time></trkpt><trkpt lat="31.194650967560644" lon="-6.208313857337382"><ele>1368.0</ele><time>2026-05-05T08:54:33Z</time></trkpt><trkpt lat="31.194594118878463" lon="-6.208450455815399"><ele>1368.0</ele><time>2026-05-05T08:54:34Z</time></trkpt><trkpt lat="31.194538025770964" lon="-6.2085850330457815"><ele>1368.0</ele><time>2026-05-05T08:54:35Z</time></trkpt><trkpt lat="31.19448190413412" lon="-6.208719944328451"><ele>1368.0</ele><time>2026-05-05T08:54:36Z</time></trkpt><trkpt lat="31.194425164709113" lon="-6.208856902298081"><ele>1368.0</ele><time>2026-05-05T08:54:37Z</time></trkpt><trkpt lat="31.194368477213764" lon="-6.208993637789635"><ele>1367.75</ele><time>2026-05-05T08:54:38Z</time></trkpt><trkpt lat="31.194311269556877" lon="-6.209131168250564"><ele>1367.5</ele><time>2026-05-05T08:54:39Z</time></trkpt><trkpt lat="31.19425489854325" lon="-6.209265393046184"><ele>1367.25</ele><time>2026-05-05T08:54:40Z</time></trkpt><trkpt lat="31.194197962252783" lon="-6.209402733041902"><ele>1367.0</ele><time>2026-05-05T08:54:41Z</time></trkpt><trkpt lat="31.194140030597463" lon="-6.209542454365556"><ele>1367.0</ele><time>2026-05-05T08:54:42Z</time></trkpt><trkpt lat="31.194081021292774" lon="-6.209683470926018"><ele>1367.0</ele><time>2026-05-05T08:54:43Z</time></trkpt><trkpt lat="31.194021266542087" lon="-6.209828552447211"><ele>1367.0</ele><time>2026-05-05T08:54:44Z</time></trkpt><trkpt lat="31.193959089202814" lon="-6.209977755473145"><ele>1367.0</ele><time>2026-05-05T08:54:45Z</time></trkpt><trkpt lat="31.193896355977433" lon="-6.21012818238131"><ele>1366.75</ele><time>2026-05-05T08:54:46Z</time></trkpt><trkpt lat="31.19383189100695" lon="-6.21028254055188"><ele>1366.5</ele><time>2026-05-05T08:54:47Z</time></trkpt><trkpt lat="31.193768149061103" lon="-6.210437306267567"><ele>1366.25</ele><time>2026-05-05T08:54:48Z</time></trkpt><trkpt lat="31.193702038837376" lon="-6.2105967090322975"><ele>1366.0</ele><time>2026-05-05T08:54:49Z</time></trkpt><trkpt lat="31.19363582980958" lon="-6.210755068339244"><ele>1366.6666666666665</ele><time>2026-05-05T08:54:50Z</time></trkpt><trkpt lat="31.19356809605302" lon="-6.210916240009509"><ele>1367.3333333333333</ele><time>2026-05-05T08:54:51Z</time></trkpt><trkpt lat="31.19350101417494" lon="-6.211078266524268"><ele>1368.0</ele><time>2026-05-05T08:54:52Z</time></trkpt><trkpt lat="31.19343608731827" lon="-6.2112347147715266"><ele>1368.0</ele><time>2026-05-05T08:54:53Z</time></trkpt><trkpt lat="31.19337239370377" lon="-6.2113877380979226"><ele>1368.0</ele><time>2026-05-05T08:54:54Z</time></trkpt><trkpt lat="31.1933065536283" lon="-6.211546209885701"><ele>1368.0</ele><time>2026-05-05T08:54:55Z</time></trkpt><trkpt lat="31.19324096955447" lon="-6.211705164516675"><ele>1368.0</ele><time>2026-05-05T08:54:56Z</time></trkpt><trkpt lat="31.19317203260362" lon="-6.211866162711806"><ele>1368.0</ele><time>2026-05-05T08:54:57Z</time></trkpt><trkpt lat="31.1931023627531" lon="-6.212027874468109"><ele>1368.0</ele><time>2026-05-05T08:54:58Z</time></trkpt><trkpt lat="31.193032768222103" lon="-6.212190581655176"><ele>1368.0</ele><time>2026-05-05T08:54:59Z</time></trkpt><trkpt lat="31.19296252787106" lon="-6.2123548662689645"><ele>1368.0</ele><time>2026-05-05T08:55:00Z</time></trkpt><trkpt lat="31.192893894613924" lon="-6.212514849530905"><ele>1368.0</ele><time>2026-05-05T08:55:01Z</time></trkpt><trkpt lat="31.192828527885386" lon="-6.212666939656045"><ele>1368.0</ele><time>2026-05-05T08:55:02Z</time></trkpt><trkpt lat="31.192765673256744" lon="-6.212815010966009"><ele>1368.0</ele><time>2026-05-05T08:55:03Z</time></trkpt><trkpt lat="31.192703919332168" lon="-6.212960173705507"><ele>1368.0</ele><time>2026-05-05T08:55:04Z</time></trkpt><trkpt lat="31.19264219845211" lon="-6.213106737963835"><ele>1368.0</ele><time>2026-05-05T08:55:05Z</time></trkpt><trkpt lat="31.192581730436995" lon="-6.213250882688704"><ele>1368.0</ele><time>2026-05-05T08:55:06Z</time></trkpt><trkpt lat="31.192520499764896" lon="-6.213396751533859"><ele>1368.0</ele><time>2026-05-05T08:55:07Z</time></trkpt><trkpt lat="31.192459240652514" lon="-6.2135423341967595"><ele>1368.0</ele><time>2026-05-05T08:55:08Z</time></trkpt><trkpt lat="31.19239907615746" lon="-6.213685368743383"><ele>1368.0</ele><time>2026-05-05T08:55:09Z</time></trkpt><trkpt lat="31.192340462825683" lon="-6.213825788688908"><ele>1368.0</ele><time>2026-05-05T08:55:10Z</time></trkpt><trkpt lat="31.192281597274587" lon="-6.213965279407784"><ele>1368.0</ele><time>2026-05-05T08:55:11Z</time></trkpt><trkpt lat="31.19222416975747" lon="-6.214101415322482"><ele>1368.75</ele><time>2026-05-05T08:55:12Z</time></trkpt><trkpt lat="31.192167540168867" lon="-6.214236694988132"><ele>1369.5</ele><time>2026-05-05T08:55:13Z</time></trkpt><trkpt lat="31.192110327778614" lon="-6.214371439520725"><ele>1370.25</ele><time>2026-05-05T08:55:14Z</time></trkpt><trkpt lat="31.192053325713545" lon="-6.214505668901669"><ele>1371.0</ele><time>2026-05-05T08:55:15Z</time></trkpt><trkpt lat="31.191995381988928" lon="-6.2146446561486375"><ele>1371.0</ele><time>2026-05-05T08:55:16Z</time></trkpt><trkpt lat="31.191934718992528" lon="-6.214790142614259"><ele>1371.0</ele><time>2026-05-05T08:55:17Z</time></trkpt><trkpt lat="31.191872126171997" lon="-6.2149383887740575"><ele>1371.0</ele><time>2026-05-05T08:55:18Z</time></trkpt><trkpt lat="31.19181445968308" lon="-6.2150749672344805"><ele>1371.0</ele><time>2026-05-05T08:55:19Z</time></trkpt><trkpt lat="31.191760099332317" lon="-6.215203715449946"><ele>1371.4</ele><time>2026-05-05T08:55:20Z</time></trkpt><trkpt lat="31.191709960177768" lon="-6.215322899228963"><ele>1371.8</ele><time>2026-05-05T08:55:21Z</time></trkpt><trkpt lat="31.191669318857954" lon="-6.2154295423122194"><ele>1372.2</ele><time>2026-05-05T08:55:22Z</time></trkpt><trkpt lat="31.191632825180506" lon="-6.2155293675189816"><ele>1372.6000000000001</ele><time>2026-05-05T08:55:23Z</time></trkpt><trkpt lat="31.19160177528187" lon="-6.215616096239429"><ele>1373.0</ele><time>2026-05-05T08:55:24Z</time></trkpt><trkpt lat="31.191574649706105" lon="-6.215691876308349"><ele>1373.0</ele><time>2026-05-05T08:55:25Z</time></trkpt><trkpt lat="31.19152715962601" lon="-6.215822262882382"><ele>1373.0</ele><time>2026-05-05T08:55:27Z</time></trkpt><trkpt lat="31.19138176111379" lon="-6.215843857672664"><ele>1373.0</ele><time>2026-05-05T08:55:28Z</time></trkpt><trkpt lat="31.191310232287698" lon="-6.215869567245228"><ele>1373.0</ele><time>2026-05-05T08:55:29Z</time></trkpt><trkpt lat="31.19120063037303" lon="-6.215913515611201"><ele>1372.8333333333335</ele><time>2026-05-05T08:55:31Z</time></trkpt><trkpt lat="31.19111758044177" lon="-6.21595036765643"><ele>1372.6666666666667</ele><time>2026-05-05T08:55:33Z</time></trkpt><trkpt lat="31.191007863966643" lon="-6.21597967610227"><ele>1372.5</ele><time>2026-05-05T08:55:35Z</time></trkpt><trkpt lat="31.19095567692624" lon="-6.216022209650768"><ele>1372.3333333333333</ele><time>2026-05-05T08:55:36Z</time></trkpt><trkpt lat="31.190895891907406" lon="-6.216048738276924"><ele>1372.1666666666665</ele><time>2026-05-05T08:55:37Z</time></trkpt><trkpt lat="31.19079626395096" lon="-6.216092946297326"><ele>1372.0</ele><time>2026-05-05T08:55:39Z</time></trkpt><trkpt lat="31.190704337799584" lon="-6.216132411914935"><ele>1371.8333333333333</ele><time>2026-05-05T08:55:41Z</time></trkpt><trkpt lat="31.19060325967007" lon="-6.21613763286503"><ele>1371.6666666666665</ele><time>2026-05-05T08:55:43Z</time></trkpt><trkpt lat="31.190539574388747" lon="-6.21613400777341"><ele>1371.5</ele><time>2026-05-05T08:55:44Z</time></trkpt><trkpt lat="31.190455825657068" lon="-6.216129240647921"><ele>1371.3333333333333</ele><time>2026-05-05T08:55:45Z</time></trkpt><trkpt lat="31.190364544499857" lon="-6.21609685541264"><ele>1371.1666666666667</ele><time>2026-05-05T08:55:46Z</time></trkpt><trkpt lat="31.190267410466923" lon="-6.216049548747175"><ele>1371.0</ele><time>2026-05-05T08:55:47Z</time></trkpt><trkpt lat="31.19015939884291" lon="-6.21599123316457"><ele>1371.0</ele><time>2026-05-05T08:55:48Z</time></trkpt><trkpt lat="31.190059834208054" lon="-6.215882476944664"><ele>1371.0</ele><time>2026-05-05T08:55:49Z</time></trkpt><trkpt lat="31.18996374615526" lon="-6.215789034796589"><ele>1371.0</ele><time>2026-05-05T08:55:50Z</time></trkpt><trkpt lat="31.189865097934696" lon="-6.215691237582288"><ele>1371.0</ele><time>2026-05-05T08:55:51Z</time></trkpt><trkpt lat="31.189777869307413" lon="-6.215601498770406"><ele>1370.25</ele><time>2026-05-05T08:55:52Z</time></trkpt><trkpt lat="31.18969375049865" lon="-6.2155148440111105"><ele>1369.5</ele><time>2026-05-05T08:55:53Z</time></trkpt><trkpt lat="31.189608276946956" lon="-6.215441886519242"><ele>1368.75</ele><time>2026-05-05T08:55:54Z</time></trkpt><trkpt lat="31.189515833320844" lon="-6.215364254648314"><ele>1368.0</ele><time>2026-05-05T08:55:55Z</time></trkpt><trkpt lat="31.189409166864976" lon="-6.215303062503193"><ele>1368.0</ele><time>2026-05-05T08:55:56Z</time></trkpt><trkpt lat="31.18928885150621" lon="-6.215263678030149"><ele>1368.0</ele><time>2026-05-05T08:55:57Z</time></trkpt><trkpt lat="31.189156170029854" lon="-6.215230940426406"><ele>1368.0</ele><time>2026-05-05T08:55:58Z</time></trkpt><trkpt lat="31.189020702748127" lon="-6.2152222276267475"><ele>1368.0</ele><time>2026-05-05T08:55:59Z</time></trkpt><trkpt lat="31.18888728650811" lon="-6.2152110344322695"><ele>1369.0</ele><time>2026-05-05T08:56:00Z</time></trkpt><trkpt lat="31.18875686189481" lon="-6.215200129571826"><ele>1370.0</ele><time>2026-05-05T08:56:01Z</time></trkpt><trkpt lat="31.188634763448768" lon="-6.215190147194455"><ele>1371.0</ele><time>2026-05-05T08:56:02Z</time></trkpt><trkpt lat="31.188513162403428" lon="-6.21517992669045"><ele>1372.0</ele><time>2026-05-05T08:56:03Z</time></trkpt><trkpt lat="31.1883890883209" lon="-6.215169477015579"><ele>1372.0</ele><time>2026-05-05T08:56:04Z</time></trkpt><trkpt lat="31.18826853822836" lon="-6.2151788088459545"><ele>1372.0</ele><time>2026-05-05T08:56:05Z</time></trkpt><trkpt lat="31.18814591071675" lon="-6.215184192884138"><ele>1372.0</ele><time>2026-05-05T08:56:06Z</time></trkpt><trkpt lat="31.18803289377854" lon="-6.2151979613220485"><ele>1372.0</ele><time>2026-05-05T08:56:07Z</time></trkpt><trkpt lat="31.187919214854315" lon="-6.215214863797553"><ele>1372.0</ele><time>2026-05-05T08:56:08Z</time></trkpt><trkpt lat="31.18780599822167" lon="-6.215214284597308"><ele>1372.0</ele><time>2026-05-05T08:56:09Z</time></trkpt><trkpt lat="31.187685836337565" lon="-6.215242432115779"><ele>1372.0</ele><time>2026-05-05T08:56:10Z</time></trkpt><trkpt lat="31.18754568097602" lon="-6.215271325665311"><ele>1372.0</ele><time>2026-05-05T08:56:11Z</time></trkpt><trkpt lat="31.18739521770904" lon="-6.215331673276312"><ele>1372.0</ele><time>2026-05-05T08:56:12Z</time></trkpt><trkpt lat="31.187247323312523" lon="-6.215376951457597"><ele>1372.0</ele><time>2026-05-05T08:56:13Z</time></trkpt><trkpt lat="31.187113052384802" lon="-6.215397896342926"><ele>1372.0</ele><time>2026-05-05T08:56:14Z</time></trkpt><trkpt lat="31.18699958767885" lon="-6.215444310833509"><ele>1372.0</ele><time>2026-05-05T08:56:15Z</time></trkpt><trkpt lat="31.18690484659903" lon="-6.215494851302593"><ele>1372.0</ele><time>2026-05-05T08:56:16Z</time></trkpt><trkpt lat="31.186821458119507" lon="-6.215550205685862"><ele>1372.0</ele><time>2026-05-05T08:56:17Z</time></trkpt><trkpt lat="31.18674274717239" lon="-6.21559478250132"><ele>1372.0</ele><time>2026-05-05T08:56:18Z</time></trkpt><trkpt lat="31.186669716703435" lon="-6.215623115493434"><ele>1372.0</ele><time>2026-05-05T08:56:19Z</time></trkpt><trkpt lat="31.186607616720163" lon="-6.215658921812322"><ele>1372.0</ele><time>2026-05-05T08:56:20Z</time></trkpt><trkpt lat="31.186513087091438" lon="-6.215620148108675"><ele>1372.0</ele><time>2026-05-05T08:56:21Z</time></trkpt><trkpt lat="31.186422827897285" lon="-6.215542540699795"><ele>1373.5</ele><time>2026-05-05T08:56:22Z</time></trkpt><trkpt lat="31.186325075559537" lon="-6.21547090979022"><ele>1375.0</ele><time>2026-05-05T08:56:23Z</time></trkpt><trkpt lat="31.18622449431421" lon="-6.215396819889784"><ele>1376.5</ele><time>2026-05-05T08:56:24Z</time></trkpt><trkpt lat="31.186125430391606" lon="-6.215344500236269"><ele>1378.0</ele><time>2026-05-05T08:56:25Z</time></trkpt><trkpt lat="31.18601892780246" lon="-6.21529273055186"><ele>1378.0</ele><time>2026-05-05T08:56:26Z</time></trkpt><trkpt lat="31.185892804864093" lon="-6.2152433472028585"><ele>1378.0</ele><time>2026-05-05T08:56:27Z</time></trkpt><trkpt lat="31.18576677542515" lon="-6.215193288568251"><ele>1378.0</ele><time>2026-05-05T08:56:28Z</time></trkpt><trkpt lat="31.185653322828443" lon="-6.215150421481631"><ele>1378.0</ele><time>2026-05-05T08:56:29Z</time></trkpt><trkpt lat="31.18553750881187" lon="-6.215109798342692"><ele>1378.0</ele><time>2026-05-05T08:56:30Z</time></trkpt><trkpt lat="31.185421448643638" lon="-6.2149339730037765"><ele>1378.0</ele><time>2026-05-05T08:56:31Z</time></trkpt><trkpt lat="31.185332859842916" lon="-6.214784023882887"><ele>1378.0</ele><time>2026-05-05T08:56:32Z</time></trkpt><trkpt lat="31.185244900373124" lon="-6.214638646831917"><ele>1377.5</ele><time>2026-05-05T08:56:33Z</time></trkpt><trkpt lat="31.185163870168314" lon="-6.21450414339902"><ele>1377.0</ele><time>2026-05-05T08:56:34Z</time></trkpt><trkpt lat="31.18508140420366" lon="-6.21437099383677"><ele>1376.5</ele><time>2026-05-05T08:56:35Z</time></trkpt><trkpt lat="31.184994457629944" lon="-6.2142304496067755"><ele>1376.0</ele><time>2026-05-05T08:56:36Z</time></trkpt><trkpt lat="31.184887181243067" lon="-6.214105000569718"><ele>1375.25</ele><time>2026-05-05T08:56:37Z</time></trkpt><trkpt lat="31.184803871827473" lon="-6.214005205323073"><ele>1374.5</ele><time>2026-05-05T08:56:38Z</time></trkpt><trkpt lat="31.18470517564657" lon="-6.213881782997093"><ele>1373.75</ele><time>2026-05-05T08:56:39Z</time></trkpt><trkpt lat="31.18461905969999" lon="-6.213767849997383"><ele>1373.0</ele><time>2026-05-05T08:56:40Z</time></trkpt><trkpt lat="31.184542620594936" lon="-6.213656533392689"><ele>1374.25</ele><time>2026-05-05T08:56:41Z</time></trkpt><trkpt lat="31.184468914849457" lon="-6.213540817255083"><ele>1375.5</ele><time>2026-05-05T08:56:42Z</time></trkpt><trkpt lat="31.184395600051133" lon="-6.213425716337048"><ele>1376.75</ele><time>2026-05-05T08:56:43Z</time></trkpt><trkpt lat="31.18436763165714" lon="-6.213280309562371"><ele>1378.0</ele><time>2026-05-05T08:56:44Z</time></trkpt><trkpt lat="31.184330844236847" lon="-6.213138095482958"><ele>1378.0</ele><time>2026-05-05T08:56:45Z</time></trkpt><trkpt lat="31.184281705353275" lon="-6.213000397337968"><ele>1378.0</ele><time>2026-05-05T08:56:46Z</time></trkpt><trkpt lat="31.184237034833394" lon="-6.212853488767579"><ele>1378.0</ele><time>2026-05-05T08:56:47Z</time></trkpt><trkpt lat="31.184189190319948" lon="-6.2126974378609985"><ele>1378.0</ele><time>2026-05-05T08:56:48Z</time></trkpt><trkpt lat="31.18413915019684" lon="-6.212535129700901"><ele>1378.0</ele><time>2026-05-05T08:56:49Z</time></trkpt><trkpt lat="31.18408559154176" lon="-6.212362422431829"><ele>1378.0</ele><time>2026-05-05T08:56:50Z</time></trkpt><trkpt lat="31.184036494151037" lon="-6.212202222383583"><ele>1378.0</ele><time>2026-05-05T08:56:51Z</time></trkpt><trkpt lat="31.18396161332501" lon="-6.212078492473019"><ele>1378.0</ele><time>2026-05-05T08:56:52Z</time></trkpt><trkpt lat="31.183878482716317" lon="-6.211961728916445"><ele>1379.25</ele><time>2026-05-05T08:56:53Z</time></trkpt><trkpt lat="31.183793881430976" lon="-6.211844133789602"><ele>1380.5</ele><time>2026-05-05T08:56:54Z</time></trkpt><trkpt lat="31.183712579442346" lon="-6.211734462477016"><ele>1381.75</ele><time>2026-05-05T08:56:55Z</time></trkpt><trkpt lat="31.183624889822642" lon="-6.211656505169755"><ele>1383.0</ele><time>2026-05-05T08:56:56Z</time></trkpt><trkpt lat="31.183547121431726" lon="-6.211586162716227"><ele>1383.0</ele><time>2026-05-05T08:56:57Z</time></trkpt><trkpt lat="31.18348641603869" lon="-6.211523887185986"><ele>1383.0</ele><time>2026-05-05T08:56:58Z</time></trkpt><trkpt lat="31.18338462936953" lon="-6.211562919113059"><ele>1383.0</ele><time>2026-05-05T08:56:59Z</time></trkpt><trkpt lat="31.183293971673137" lon="-6.211592918694475"><ele>1383.0</ele><time>2026-05-05T08:57:00Z</time></trkpt><trkpt lat="31.183199817553927" lon="-6.211602904478098"><ele>1383.0</ele><time>2026-05-05T08:57:01Z</time></trkpt><trkpt lat="31.183100844550236" lon="-6.211602904478048"><ele>1383.0</ele><time>2026-05-05T08:57:02Z</time></trkpt><trkpt lat="31.182998507782862" lon="-6.211602904478539"><ele>1383.0</ele><time>2026-05-05T08:57:03Z</time></trkpt><trkpt lat="31.18289781339521" lon="-6.211602904478328"><ele>1383.0</ele><time>2026-05-05T08:57:04Z</time></trkpt><trkpt lat="31.182788782102964" lon="-6.211603306032829"><ele>1383.0</ele><time>2026-05-05T08:57:05Z</time></trkpt><trkpt lat="31.182679760812814" lon="-6.211593981254031"><ele>1383.0</ele><time>2026-05-05T08:57:06Z</time></trkpt><trkpt lat="31.182572946181935" lon="-6.2115851342276125"><ele>1383.0</ele><time>2026-05-05T08:57:07Z</time></trkpt><trkpt lat="31.18247312944104" lon="-6.211576934311845"><ele>1383.0</ele><time>2026-05-05T08:57:08Z</time></trkpt><trkpt lat="31.18238106239797" lon="-6.211569340169037"><ele>1383.0</ele><time>2026-05-05T08:57:09Z</time></trkpt><trkpt lat="31.182293550401734" lon="-6.211563032195888"><ele>1383.0</ele><time>2026-05-05T08:57:09.999Z</time></trkpt><trkpt lat="31.182214205825183" lon="-6.211558422530967"><ele>1383.0</ele><time>2026-05-05T08:57:10.999Z</time></trkpt><trkpt lat="31.1821380091371" lon="-6.211549488994478"><ele>1383.0</ele><time>2026-05-05T08:57:11.999Z</time></trkpt><trkpt lat="31.182064744815246" lon="-6.211544971522326"><ele>1381.8000000000002</ele><time>2026-05-05T08:57:12.999Z</time></trkpt><trkpt lat="31.18199082704108" lon="-6.211547666282486"><ele>1380.6</ele><time>2026-05-05T08:57:13.999Z</time></trkpt><trkpt lat="31.18191099247316" lon="-6.21156409944679"><ele>1379.4</ele><time>2026-05-05T08:57:14.999Z</time></trkpt><trkpt lat="31.18182288310314" lon="-6.211586389639091"><ele>1378.1999999999998</ele><time>2026-05-05T08:57:15.999Z</time></trkpt><trkpt lat="31.181715750004376" lon="-6.211607617713702"><ele>1377.0</ele><time>2026-05-05T08:57:16.999Z</time></trkpt><trkpt lat="31.181602702435598" lon="-6.211632895644811"><ele>1376.25</ele><time>2026-05-05T08:57:17.999Z</time></trkpt><trkpt lat="31.18148803965433" lon="-6.211648758528439"><ele>1375.5</ele><time>2026-05-05T08:57:18.999Z</time></trkpt><trkpt lat="31.18137226061474" lon="-6.211656290136247"><ele>1374.75</ele><time>2026-05-05T08:57:20Z</time></trkpt><trkpt lat="31.181255863453824" lon="-6.211661800050245"><ele>1374.0</ele><time>2026-05-05T08:57:21Z</time></trkpt><trkpt lat="31.181141077120554" lon="-6.211658660979039"><ele>1374.0</ele><time>2026-05-05T08:57:22Z</time></trkpt><trkpt lat="31.181026272122118" lon="-6.211648845269537"><ele>1374.0</ele><time>2026-05-05T08:57:23Z</time></trkpt><trkpt lat="31.180915577221814" lon="-6.211635207264801"><ele>1374.0</ele><time>2026-05-05T08:57:24Z</time></trkpt><trkpt lat="31.180814293918125" lon="-6.211618378445913"><ele>1374.0</ele><time>2026-05-05T08:57:25Z</time></trkpt><trkpt lat="31.180722131354834" lon="-6.211605399280835"><ele>1374.0</ele><time>2026-05-05T08:57:26Z</time></trkpt><trkpt lat="31.180629457784544" lon="-6.2115885183669395"><ele>1372.8000000000002</ele><time>2026-05-05T08:57:27Z</time></trkpt><trkpt lat="31.180535979713355" lon="-6.211576752879647"><ele>1371.6000000000001</ele><time>2026-05-05T08:57:28Z</time></trkpt><trkpt lat="31.180436333135088" lon="-6.211579221306412"><ele>1370.4</ele><time>2026-05-05T08:57:29Z</time></trkpt><trkpt lat="31.180331325088193" lon="-6.211607739629412"><ele>1369.2</ele><time>2026-05-05T08:57:30Z</time></trkpt><trkpt lat="31.180227733200372" lon="-6.211655475776206"><ele>1368.0</ele><time>2026-05-05T08:57:31Z</time></trkpt><trkpt lat="31.18012430597884" lon="-6.211736492111029"><ele>1368.0</ele><time>2026-05-05T08:57:32Z</time></trkpt><trkpt lat="31.180012195200014" lon="-6.211823573081582"><ele>1368.0</ele><time>2026-05-05T08:57:33Z</time></trkpt><trkpt lat="31.179887664789444" lon="-6.2119074564213355"><ele>1368.0</ele><time>2026-05-05T08:57:34Z</time></trkpt><trkpt lat="31.179770062593608" lon="-6.211990971809429"><ele>1368.0</ele><time>2026-05-05T08:57:35Z</time></trkpt><trkpt lat="31.179652505811617" lon="-6.212067117363572"><ele>1366.75</ele><time>2026-05-05T08:57:36Z</time></trkpt><trkpt lat="31.17952219207999" lon="-6.212112820762867"><ele>1365.5</ele><time>2026-05-05T08:57:37Z</time></trkpt><trkpt lat="31.179384832522047" lon="-6.212114715078756"><ele>1364.25</ele><time>2026-05-05T08:57:38Z</time></trkpt><trkpt lat="31.179247961681508" lon="-6.212125681517304"><ele>1363.0</ele><time>2026-05-05T08:57:39Z</time></trkpt><trkpt lat="31.17911932111962" lon="-6.212117571351064"><ele>1362.5</ele><time>2026-05-05T08:57:40Z</time></trkpt><trkpt lat="31.178992081678402" lon="-6.212110430694644"><ele>1362.0</ele><time>2026-05-05T08:57:41Z</time></trkpt><trkpt lat="31.17887420439595" lon="-6.212143504618271"><ele>1361.5</ele><time>2026-05-05T08:57:42Z</time></trkpt><trkpt lat="31.17877060710378" lon="-6.212214134498356"><ele>1361.0</ele><time>2026-05-05T08:57:43Z</time></trkpt><trkpt lat="31.178669783996494" lon="-6.212297348803832"><ele>1361.0</ele><time>2026-05-05T08:57:44Z</time></trkpt><trkpt lat="31.178567709234976" lon="-6.212373934386445"><ele>1361.0</ele><time>2026-05-05T08:57:45Z</time></trkpt><trkpt lat="31.178429033007102" lon="-6.212424231999008"><ele>1361.0</ele><time>2026-05-05T08:57:46Z</time></trkpt><trkpt lat="31.178271695082792" lon="-6.2123774413556"><ele>1361.0</ele><time>2026-05-05T08:57:47Z</time></trkpt><trkpt lat="31.178123498557017" lon="-6.212358221013269"><ele>1360.3333333333335</ele><time>2026-05-05T08:57:48Z</time></trkpt><trkpt lat="31.177968067019084" lon="-6.2123382553591995"><ele>1359.6666666666667</ele><time>2026-05-05T08:57:49Z</time></trkpt><trkpt lat="31.17781339375204" lon="-6.212318788358217"><ele>1359.0</ele><time>2026-05-05T08:57:50Z</time></trkpt><trkpt lat="31.177652801600335" lon="-6.212299378608314"><ele>1359.0</ele><time>2026-05-05T08:57:51Z</time></trkpt><trkpt lat="31.177487761008692" lon="-6.21227472857023"><ele>1359.0</ele><time>2026-05-05T08:57:52Z</time></trkpt><trkpt lat="31.177321382594652" lon="-6.212250113948323"><ele>1359.0</ele><time>2026-05-05T08:57:53Z</time></trkpt><trkpt lat="31.177160138359973" lon="-6.212200678799988"><ele>1358.0</ele><time>2026-05-05T08:57:54Z</time></trkpt><trkpt lat="31.17700015056816" lon="-6.2121301689351"><ele>1357.0</ele><time>2026-05-05T08:57:55Z</time></trkpt><trkpt lat="31.176844087696548" lon="-6.21204241548062"><ele>1356.0</ele><time>2026-05-05T08:57:56Z</time></trkpt><trkpt lat="31.17669136163117" lon="-6.2119516670395765"><ele>1356.0</ele><time>2026-05-05T08:57:57Z</time></trkpt><trkpt lat="31.176546888515006" lon="-6.211865714906658"><ele>1356.0</ele><time>2026-05-05T08:57:58Z</time></trkpt><trkpt lat="31.176413405203242" lon="-6.211791684269405"><ele>1356.0</ele><time>2026-05-05T08:57:59Z</time></trkpt><trkpt lat="31.17628509085801" lon="-6.211721328918212"><ele>1356.75</ele><time>2026-05-05T08:58:00Z</time></trkpt><trkpt lat="31.17615410738097" lon="-6.211713643724421"><ele>1357.5</ele><time>2026-05-05T08:58:01Z</time></trkpt><trkpt lat="31.176022334702147" lon="-6.211737579414592"><ele>1358.25</ele><time>2026-05-05T08:58:02Z</time></trkpt><trkpt lat="31.175875470009764" lon="-6.211777870238351"><ele>1359.0</ele><time>2026-05-05T08:58:03Z</time></trkpt><trkpt lat="31.175729809740044" lon="-6.211805297930041"><ele>1359.25</ele><time>2026-05-05T08:58:04Z</time></trkpt><trkpt lat="31.17559670339608" lon="-6.211835567876384"><ele>1359.5</ele><time>2026-05-05T08:58:05Z</time></trkpt><trkpt lat="31.175464230077" lon="-6.211835750451098"><ele>1359.75</ele><time>2026-05-05T08:58:06Z</time></trkpt><trkpt lat="31.175338929317753" lon="-6.211793347579779"><ele>1360.0</ele><time>2026-05-05T08:58:07Z</time></trkpt><trkpt lat="31.1752249262125" lon="-6.211688518234538"><ele>1360.0</ele><time>2026-05-05T08:58:08Z</time></trkpt><trkpt lat="31.175127534143954" lon="-6.2115630785882985"><ele>1360.0</ele><time>2026-05-05T08:58:09Z</time></trkpt><trkpt lat="31.175021252402804" lon="-6.211433908318101"><ele>1360.0</ele><time>2026-05-05T08:58:10Z</time></trkpt><trkpt lat="31.17492371138897" lon="-6.211285409014319"><ele>1361.5</ele><time>2026-05-05T08:58:11Z</time></trkpt><trkpt lat="31.174816380610924" lon="-6.211151139153451"><ele>1363.0</ele><time>2026-05-05T08:58:12Z</time></trkpt><trkpt lat="31.174717147635622" lon="-6.211025661384011"><ele>1364.5</ele><time>2026-05-05T08:58:13Z</time></trkpt><trkpt lat="31.174623677652054" lon="-6.210907990710921"><ele>1366.0</ele><time>2026-05-05T08:58:14Z</time></trkpt><trkpt lat="31.174537383903523" lon="-6.210790353134785"><ele>1366.0</ele><time>2026-05-05T08:58:15Z</time></trkpt><trkpt lat="31.17446489427917" lon="-6.210673172897068"><ele>1366.0</ele><time>2026-05-05T08:58:16Z</time></trkpt><trkpt lat="31.174380983505824" lon="-6.210565136329785"><ele>1366.0</ele><time>2026-05-05T08:58:17Z</time></trkpt><trkpt lat="31.17430628225599" lon="-6.210441355508162"><ele>1366.0</ele><time>2026-05-05T08:58:18Z</time></trkpt><trkpt lat="31.174257316333964" lon="-6.210291028389641"><ele>1363.75</ele><time>2026-05-05T08:58:19Z</time></trkpt><trkpt lat="31.174224501373835" lon="-6.210129413665427"><ele>1361.5</ele><time>2026-05-05T08:58:20Z</time></trkpt><trkpt lat="31.174192670142688" lon="-6.2099746839503185"><ele>1359.25</ele><time>2026-05-05T08:58:21Z</time></trkpt><trkpt lat="31.174164968831686" lon="-6.209842994560222"><ele>1357.0</ele><time>2026-05-05T08:58:22Z</time></trkpt><trkpt lat="31.174126751706808" lon="-6.209743138461534"><ele>1356.0</ele><time>2026-05-05T08:58:23Z</time></trkpt><trkpt lat="31.174101144531203" lon="-6.209645305305758"><ele>1355.0</ele><time>2026-05-05T08:58:24Z</time></trkpt><trkpt lat="31.1740953878214" lon="-6.209568051750232"><ele>1354.0</ele><time>2026-05-05T08:58:25Z</time></trkpt><trkpt lat="31.174089790474497" lon="-6.209492935243801"><ele>1353.0</ele><time>2026-05-05T08:58:26Z</time></trkpt><trkpt lat="31.174123120396096" lon="-6.20940422910642"><ele>1352.0</ele><time>2026-05-05T08:58:27Z</time></trkpt><trkpt lat="31.174141980417254" lon="-6.209305648245745"><ele>1351.0</ele><time>2026-05-05T08:58:28Z</time></trkpt><trkpt lat="31.174163489561412" lon="-6.209193220519397"><ele>1351.0</ele><time>2026-05-05T08:58:29Z</time></trkpt><trkpt lat="31.17418330145865" lon="-6.2090951544447766"><ele>1351.0</ele><time>2026-05-05T08:58:30Z</time></trkpt><trkpt lat="31.174199193849237" lon="-6.209022076261449"><ele>1351.0</ele><time>2026-05-05T08:58:46Z</time></trkpt><trkpt lat="31.174180048710458" lon="-6.2091101117820005"><ele>1351.0</ele><time>2026-05-05T08:59:04Z</time></trkpt><trkpt lat="31.174224549447576" lon="-6.209025018360475"><ele>1351.0</ele><time>2026-05-05T08:59:31Z</time></trkpt><trkpt lat="31.174245687364593" lon="-6.208948278503535"><ele>1351.0</ele><time>2026-05-05T08:59:32Z</time></trkpt><trkpt lat="31.174268963347686" lon="-6.208843216907033"><ele>1350.75</ele><time>2026-05-05T08:59:33Z</time></trkpt><trkpt lat="31.174263591032012" lon="-6.208721777889587"><ele>1350.5</ele><time>2026-05-05T08:59:34Z</time></trkpt><trkpt lat="31.174350194842525" lon="-6.208629003637819"><ele>1350.25</ele><time>2026-05-05T08:59:35Z</time></trkpt><trkpt lat="31.174435704937135" lon="-6.208544800602006"><ele>1350.0</ele><time>2026-05-05T08:59:36Z</time></trkpt><trkpt lat="31.174533876128734" lon="-6.208471335388497"><ele>1350.0</ele><time>2026-05-05T08:59:37Z</time></trkpt><trkpt lat="31.17460732153803" lon="-6.208400501604517"><ele>1350.0</ele><time>2026-05-05T08:59:38Z</time></trkpt><trkpt lat="31.174636787417313" lon="-6.208312273872789"><ele>1350.0</ele><time>2026-05-05T08:59:39Z</time></trkpt><trkpt lat="31.17463713364646" lon="-6.208198781229899"><ele>1350.0</ele><time>2026-05-05T08:59:40Z</time></trkpt><trkpt lat="31.17461451051821" lon="-6.208056397691784"><ele>1350.0</ele><time>2026-05-05T08:59:41Z</time></trkpt><trkpt lat="31.174578228629343" lon="-6.207899075986857"><ele>1350.25</ele><time>2026-05-05T08:59:42Z</time></trkpt><trkpt lat="31.174530104024303" lon="-6.207748050845724"><ele>1350.5</ele><time>2026-05-05T08:59:43Z</time></trkpt><trkpt lat="31.1744665252524" lon="-6.20759835805377"><ele>1350.75</ele><time>2026-05-05T08:59:44Z</time></trkpt><trkpt lat="31.174415951588802" lon="-6.207459414265072"><ele>1351.0</ele><time>2026-05-05T08:59:45Z</time></trkpt><trkpt lat="31.174387177131447" lon="-6.207326127447083"><ele>1351.8</ele><time>2026-05-05T08:59:46Z</time></trkpt><trkpt lat="31.174367330315953" lon="-6.207191981878478"><ele>1352.6</ele><time>2026-05-05T08:59:47Z</time></trkpt><trkpt lat="31.174342607670912" lon="-6.207059656064705"><ele>1353.4</ele><time>2026-05-05T08:59:48Z</time></trkpt><trkpt lat="31.174309094755355" lon="-6.2069417666371605"><ele>1354.2</ele><time>2026-05-05T08:59:49Z</time></trkpt><trkpt lat="31.174270940476802" lon="-6.20684640622093"><ele>1355.0</ele><time>2026-05-05T08:59:50Z</time></trkpt><trkpt lat="31.174223251029222" lon="-6.206767058901365"><ele>1355.0</ele><time>2026-05-05T08:59:51Z</time></trkpt><trkpt lat="31.174158521992396" lon="-6.206716938492767"><ele>1355.0</ele><time>2026-05-05T08:59:52Z</time></trkpt><trkpt lat="31.174078392518464" lon="-6.206711936691887"><ele>1355.0</ele><time>2026-05-05T08:59:53Z</time></trkpt><trkpt lat="31.174002878804743" lon="-6.206733412671358"><ele>1355.0</ele><time>2026-05-05T08:59:54Z</time></trkpt><trkpt lat="31.173879509052313" lon="-6.206733071817452"><ele>1355.0</ele><time>2026-05-05T08:59:56Z</time></trkpt><trkpt lat="31.17382021062153" lon="-6.206601732464219"><ele>1355.3333333333335</ele><time>2026-05-05T08:59:57Z</time></trkpt><trkpt lat="31.173778034161366" lon="-6.2064966260195895"><ele>1355.6666666666667</ele><time>2026-05-05T08:59:58Z</time></trkpt><trkpt lat="31.17374000336555" lon="-6.206408182764887"><ele>1356.0</ele><time>2026-05-05T08:59:59Z</time></trkpt><trkpt lat="31.17368967909132" lon="-6.20635557242326"><ele>1356.3333333333333</ele><time>2026-05-05T09:00:00Z</time></trkpt><trkpt lat="31.173608190222243" lon="-6.206350487379938"><ele>1356.6666666666665</ele><time>2026-05-05T09:00:01Z</time></trkpt><trkpt lat="31.173518897494937" lon="-6.206342416504319"><ele>1357.0</ele><time>2026-05-05T09:00:02Z</time></trkpt><trkpt lat="31.173446358581252" lon="-6.206335607719282"><ele>1358.3333333333333</ele><time>2026-05-05T09:00:03Z</time></trkpt><trkpt lat="31.173383514928478" lon="-6.206285243262771"><ele>1359.6666666666665</ele><time>2026-05-05T09:00:04Z</time></trkpt><trkpt lat="31.173346600301606" lon="-6.206209047462005"><ele>1361.0</ele><time>2026-05-05T09:00:05Z</time></trkpt><trkpt lat="31.173307715254413" lon="-6.206122662019376"><ele>1362.3333333333333</ele><time>2026-05-05T09:00:06Z</time></trkpt><trkpt lat="31.17333879720879" lon="-6.206014390150499"><ele>1363.6666666666667</ele><time>2026-05-05T09:00:07Z</time></trkpt><trkpt lat="31.17335433979287" lon="-6.205901613133343"><ele>1365.0</ele><time>2026-05-05T09:00:08Z</time></trkpt><trkpt lat="31.173366944718" lon="-6.205766624071917"><ele>1366.5</ele><time>2026-05-05T09:00:09Z</time></trkpt><trkpt lat="31.17337989006487" lon="-6.205621009139201"><ele>1368.0</ele><time>2026-05-05T09:00:10Z</time></trkpt><trkpt lat="31.173393798323303" lon="-6.205465492655681"><ele>1369.5</ele><time>2026-05-05T09:00:11Z</time></trkpt><trkpt lat="31.173389047971533" lon="-6.205314042041282"><ele>1371.0</ele><time>2026-05-05T09:00:12Z</time></trkpt><trkpt lat="31.173382971641605" lon="-6.205150663893472"><ele>1371.0</ele><time>2026-05-05T09:00:13Z</time></trkpt><trkpt lat="31.173343417017627" lon="-6.2050148969409396"><ele>1371.0</ele><time>2026-05-05T09:00:14Z</time></trkpt><trkpt lat="31.173294232538836" lon="-6.204901402085249"><ele>1371.0</ele><time>2026-05-05T09:00:15Z</time></trkpt><trkpt lat="31.173222592245587" lon="-6.204811857597674"><ele>1371.0</ele><time>2026-05-05T09:00:16Z</time></trkpt><trkpt lat="31.17313580962122" lon="-6.204718999582382"><ele>1373.25</ele><time>2026-05-05T09:00:17Z</time></trkpt><trkpt lat="31.173028031573615" lon="-6.204646777429496"><ele>1375.5</ele><time>2026-05-05T09:00:18Z</time></trkpt><trkpt lat="31.172997832781988" lon="-6.20452539740578"><ele>1377.75</ele><time>2026-05-05T09:00:19Z</time></trkpt><trkpt lat="31.172990950028584" lon="-6.204366486048735"><ele>1380.0</ele><time>2026-05-05T09:00:20Z</time></trkpt><trkpt lat="31.17301185140333" lon="-6.204206491333454"><ele>1380.0</ele><time>2026-05-05T09:00:21Z</time></trkpt><trkpt lat="31.172994652221806" lon="-6.204036449698455"><ele>1380.0</ele><time>2026-05-05T09:00:22Z</time></trkpt><trkpt lat="31.172988239934195" lon="-6.203854830128046"><ele>1380.0</ele><time>2026-05-05T09:00:23Z</time></trkpt><trkpt lat="31.17298005256073" lon="-6.203697920784284"><ele>1380.0</ele><time>2026-05-05T09:00:24Z</time></trkpt><trkpt lat="31.172972910857748" lon="-6.203560709698918"><ele>1380.0</ele><time>2026-05-05T09:00:25Z</time></trkpt><trkpt lat="31.172966622821573" lon="-6.203439095418249"><ele>1380.0</ele><time>2026-05-05T09:00:26Z</time></trkpt><trkpt lat="31.172961934522032" lon="-6.203348419595987"><ele>1380.0</ele><time>2026-05-05T09:00:27Z</time></trkpt><trkpt lat="31.172927686823467" lon="-6.203261508481294"><ele>1380.0</ele><time>2026-05-05T09:00:29Z</time></trkpt><trkpt lat="31.172853778910483" lon="-6.203298001334772"><ele>1380.0</ele><time>2026-05-05T09:00:30Z</time></trkpt><trkpt lat="31.172776275770836" lon="-6.20322169452705"><ele>1380.0</ele><time>2026-05-05T09:00:38Z</time></trkpt><trkpt lat="31.172699830958106" lon="-6.203146429802302"><ele>1379.8</ele><time>2026-05-05T09:00:39Z</time></trkpt><trkpt lat="31.17261648886455" lon="-6.203064374333127"><ele>1379.6</ele><time>2026-05-05T09:00:40Z</time></trkpt><trkpt lat="31.172531297398326" lon="-6.202993516617226"><ele>1379.4</ele><time>2026-05-05T09:00:41Z</time></trkpt><trkpt lat="31.172451405471556" lon="-6.2029404345362344"><ele>1379.2</ele><time>2026-05-05T09:00:42Z</time></trkpt><trkpt lat="31.17236374341679" lon="-6.202900492382905"><ele>1379.0</ele><time>2026-05-05T09:00:43Z</time></trkpt><trkpt lat="31.172260935115926" lon="-6.202856333725747"><ele>1379.0</ele><time>2026-05-05T09:00:44Z</time></trkpt><trkpt lat="31.172153220653193" lon="-6.202819418674558"><ele>1379.0</ele><time>2026-05-05T09:00:45Z</time></trkpt><trkpt lat="31.172042707545327" lon="-6.202787752717967"><ele>1379.0</ele><time>2026-05-05T09:00:46Z</time></trkpt><trkpt lat="31.1719404950186" lon="-6.202758587915299"><ele>1379.0</ele><time>2026-05-05T09:00:47Z</time></trkpt><trkpt lat="31.171831088649938" lon="-6.2027305384052465"><ele>1379.0</ele><time>2026-05-05T09:00:48Z</time></trkpt><trkpt lat="31.17172009040153" lon="-6.202704796526509"><ele>1379.0</ele><time>2026-05-05T09:00:49Z</time></trkpt><trkpt lat="31.171614788652697" lon="-6.202688668412068"><ele>1379.0</ele><time>2026-05-05T09:00:50Z</time></trkpt><trkpt lat="31.171511939628076" lon="-6.202675406810609"><ele>1379.0</ele><time>2026-05-05T09:00:51Z</time></trkpt><trkpt lat="31.17141411351118" lon="-6.2026572941113"><ele>1379.0</ele><time>2026-05-05T09:00:52Z</time></trkpt><trkpt lat="31.171331013445606" lon="-6.2026672675981125"><ele>1379.0</ele><time>2026-05-05T09:00:53Z</time></trkpt><trkpt lat="31.171250097621716" lon="-6.2026736901130635"><ele>1378.8000000000002</ele><time>2026-05-05T09:00:54Z</time></trkpt><trkpt lat="31.17115057146005" lon="-6.202655542336033"><ele>1378.6000000000001</ele><time>2026-05-05T09:00:55Z</time></trkpt><trkpt lat="31.171038434579845" lon="-6.202615903550549"><ele>1378.4</ele><time>2026-05-05T09:00:56Z</time></trkpt><trkpt lat="31.170924569076448" lon="-6.202562663954205"><ele>1378.2</ele><time>2026-05-05T09:00:56.999Z</time></trkpt><trkpt lat="31.17081700129716" lon="-6.202546668387076"><ele>1378.0</ele><time>2026-05-05T09:00:57.999Z</time></trkpt><trkpt lat="31.17070620685368" lon="-6.202463835337113"><ele>1377.2</ele><time>2026-05-05T09:00:58.999Z</time></trkpt><trkpt lat="31.170600311987823" lon="-6.202410513533464"><ele>1376.4</ele><time>2026-05-05T09:00:59.999Z</time></trkpt><trkpt lat="31.170505185411663" lon="-6.202342850300394"><ele>1375.6000000000001</ele><time>2026-05-05T09:01:00.999Z</time></trkpt><trkpt lat="31.17039497596042" lon="-6.202336429135369"><ele>1374.8000000000002</ele><time>2026-05-05T09:01:01.999Z</time></trkpt><trkpt lat="31.17028330854816" lon="-6.202326992787459"><ele>1374.0</ele><time>2026-05-05T09:01:02.999Z</time></trkpt><trkpt lat="31.17017371385897" lon="-6.202283101103846"><ele>1373.6</ele><time>2026-05-05T09:01:03.999Z</time></trkpt><trkpt lat="31.17007454836716" lon="-6.202226892553595"><ele>1373.2</ele><time>2026-05-05T09:01:04.999Z</time></trkpt><trkpt lat="31.1699775308255" lon="-6.2021699988284515"><ele>1372.8</ele><time>2026-05-05T09:01:05.999Z</time></trkpt><trkpt lat="31.16988229099567" lon="-6.2021340724473975"><ele>1372.3999999999999</ele><time>2026-05-05T09:01:06.999Z</time></trkpt><trkpt lat="31.16979182671455" lon="-6.202097321203054"><ele>1372.0</ele><time>2026-05-05T09:01:07.999Z</time></trkpt><trkpt lat="31.16971247782598" lon="-6.202042813597244"><ele>1372.0</ele><time>2026-05-05T09:01:08.999Z</time></trkpt><trkpt lat="31.169627102814157" lon="-6.2019841846817005"><ele>1372.0</ele><time>2026-05-05T09:01:09.999Z</time></trkpt><trkpt lat="31.16953992811813" lon="-6.201924319895869"><ele>1372.0</ele><time>2026-05-05T09:01:10.999Z</time></trkpt><trkpt lat="31.169446018284802" lon="-6.201860655145504"><ele>1372.0</ele><time>2026-05-05T09:01:11.999Z</time></trkpt><trkpt lat="31.16934650583584" lon="-6.2018024653378205"><ele>1372.0</ele><time>2026-05-05T09:01:12.999Z</time></trkpt><trkpt lat="31.169203439036878" lon="-6.201747128144404"><ele>1372.0</ele><time>2026-05-05T09:01:13.999Z</time></trkpt><trkpt lat="31.169056776022508" lon="-6.201766968146484"><ele>1372.0</ele><time>2026-05-05T09:01:14.999Z</time></trkpt><trkpt lat="31.168962960323743" lon="-6.2017757905393225"><ele>1372.0</ele><time>2026-05-05T09:01:15.999Z</time></trkpt><trkpt lat="31.1689165641285" lon="-6.2019833126645665"><ele>1372.0</ele><time>2026-05-05T09:01:16.999Z</time></trkpt><trkpt lat="31.168857044865586" lon="-6.202046034285692"><ele>1372.3999999999999</ele><time>2026-05-05T09:01:17.999Z</time></trkpt><trkpt lat="31.168798578678004" lon="-6.202084387036185"><ele>1372.8</ele><time>2026-05-05T09:01:18.999Z</time></trkpt><trkpt lat="31.168743466716165" lon="-6.202120538477119"><ele>1373.2</ele><time>2026-05-05T09:01:19.999Z</time></trkpt><trkpt lat="31.168670654055973" lon="-6.202125642954261"><ele>1373.6</ele><time>2026-05-05T09:01:20.999Z</time></trkpt><trkpt lat="31.168595053112114" lon="-6.20209776131476"><ele>1374.0</ele><time>2026-05-05T09:01:22.999Z</time></trkpt><trkpt lat="31.168591872044402" lon="-6.20189338455909"><ele>1374.0</ele><time>2026-05-05T09:01:25.999Z</time></trkpt><trkpt lat="31.168638489962646" lon="-6.2017800081583845"><ele>1374.0</ele><time>2026-05-05T09:01:26.999Z</time></trkpt><trkpt lat="31.16868294623492" lon="-6.201658588032675"><ele>1374.0</ele><time>2026-05-05T09:01:27.999Z</time></trkpt><trkpt lat="31.168717872802294" lon="-6.201524273297715"><ele>1374.0</ele><time>2026-05-05T09:01:28.999Z</time></trkpt><trkpt lat="31.168746778040497" lon="-6.2013898741069395"><ele>1375.25</ele><time>2026-05-05T09:01:29.999Z</time></trkpt><trkpt lat="31.168758141138284" lon="-6.201247909341805"><ele>1376.5</ele><time>2026-05-05T09:01:31Z</time></trkpt><trkpt lat="31.1687794511081" lon="-6.20109949984907"><ele>1377.75</ele><time>2026-05-05T09:01:32Z</time></trkpt><trkpt lat="31.168795693109438" lon="-6.2009416327321665"><ele>1379.0</ele><time>2026-05-05T09:01:33Z</time></trkpt><trkpt lat="31.16881064797286" lon="-6.200784251205785"><ele>1378.5</ele><time>2026-05-05T09:01:34Z</time></trkpt><trkpt lat="31.168837479656222" lon="-6.200627218269645"><ele>1378.0</ele><time>2026-05-05T09:01:35Z</time></trkpt><trkpt lat="31.168838639282765" lon="-6.200463744065127"><ele>1377.5</ele><time>2026-05-05T09:01:36Z</time></trkpt><trkpt lat="31.168837867161283" lon="-6.200296866349043"><ele>1377.0</ele><time>2026-05-05T09:01:37Z</time></trkpt><trkpt lat="31.168809789431034" lon="-6.200128204029696"><ele>1377.0</ele><time>2026-05-05T09:01:38Z</time></trkpt><trkpt lat="31.168804295001305" lon="-6.199955178504121"><ele>1377.0</ele><time>2026-05-05T09:01:39Z</time></trkpt><trkpt lat="31.16876723433452" lon="-6.199782861850884"><ele>1377.0</ele><time>2026-05-05T09:01:40Z</time></trkpt><trkpt lat="31.16872141092336" lon="-6.199621078056477"><ele>1377.0</ele><time>2026-05-05T09:01:41Z</time></trkpt><trkpt lat="31.168676158148" lon="-6.199447228301011"><ele>1376.6666666666667</ele><time>2026-05-05T09:01:42Z</time></trkpt><trkpt lat="31.16861918533502" lon="-6.199282982456647"><ele>1376.3333333333335</ele><time>2026-05-05T09:01:43Z</time></trkpt><trkpt lat="31.16855872014236" lon="-6.199122413182962"><ele>1376.0</ele><time>2026-05-05T09:01:44Z</time></trkpt><trkpt lat="31.16849420697482" lon="-6.198955137297659"><ele>1376.0</ele><time>2026-05-05T09:01:45Z</time></trkpt><trkpt lat="31.168418420483203" lon="-6.198789451209164"><ele>1376.0</ele><time>2026-05-05T09:01:46Z</time></trkpt><trkpt lat="31.168337512080555" lon="-6.198642605467117"><ele>1376.0</ele><time>2026-05-05T09:01:47Z</time></trkpt><trkpt lat="31.168246427111225" lon="-6.198502879978931"><ele>1376.25</ele><time>2026-05-05T09:01:48Z</time></trkpt><trkpt lat="31.168150700711617" lon="-6.198369383231482"><ele>1376.5</ele><time>2026-05-05T09:01:49Z</time></trkpt><trkpt lat="31.168050985322438" lon="-6.198240246025344"><ele>1376.75</ele><time>2026-05-05T09:01:50Z</time></trkpt><trkpt lat="31.167951516833465" lon="-6.198113253039492"><ele>1377.0</ele><time>2026-05-05T09:01:51Z</time></trkpt><trkpt lat="31.167844578795478" lon="-6.197996684485534"><ele>1378.0</ele><time>2026-05-05T09:01:52Z</time></trkpt><trkpt lat="31.16773215412168" lon="-6.19788418166993"><ele>1379.0</ele><time>2026-05-05T09:01:53Z</time></trkpt><trkpt lat="31.16761653310262" lon="-6.197780169516687"><ele>1380.0</ele><time>2026-05-05T09:01:54Z</time></trkpt><trkpt lat="31.16749186412859" lon="-6.197685061061668"><ele>1381.0</ele><time>2026-05-05T09:01:55Z</time></trkpt><trkpt lat="31.167367661460247" lon="-6.197601274364154"><ele>1381.5</ele><time>2026-05-05T09:01:56Z</time></trkpt><trkpt lat="31.16723675807068" lon="-6.19751893127916"><ele>1382.0</ele><time>2026-05-05T09:01:57Z</time></trkpt><trkpt lat="31.167105181562956" lon="-6.197447344087277"><ele>1382.5</ele><time>2026-05-05T09:01:58Z</time></trkpt><trkpt lat="31.16697085693473" lon="-6.197380640569096"><ele>1383.0</ele><time>2026-05-05T09:01:59Z</time></trkpt><trkpt lat="31.16683087210724" lon="-6.197319867070532"><ele>1383.0</ele><time>2026-05-05T09:02:00Z</time></trkpt><trkpt lat="31.16668752723028" lon="-6.19726679763237"><ele>1383.0</ele><time>2026-05-05T09:02:01Z</time></trkpt><trkpt lat="31.16654111345246" lon="-6.197212873152933"><ele>1383.0</ele><time>2026-05-05T09:02:02Z</time></trkpt><trkpt lat="31.16638561202685" lon="-6.197192011291663"><ele>1384.3333333333333</ele><time>2026-05-05T09:02:03Z</time></trkpt><trkpt lat="31.166233518034808" lon="-6.197156044872134"><ele>1385.6666666666665</ele><time>2026-05-05T09:02:04Z</time></trkpt><trkpt lat="31.166082968297015" lon="-6.197120443626055"><ele>1387.0</ele><time>2026-05-05T09:02:05Z</time></trkpt><trkpt lat="31.165936376710572" lon="-6.197063825803193"><ele>1387.0</ele><time>2026-05-05T09:02:06Z</time></trkpt><trkpt lat="31.165790603664842" lon="-6.197032413228238"><ele>1387.0</ele><time>2026-05-05T09:02:07Z</time></trkpt><trkpt lat="31.165639635532624" lon="-6.196995330736451"><ele>1387.0</ele><time>2026-05-05T09:02:08Z</time></trkpt><trkpt lat="31.165488806664094" lon="-6.1969597283867115"><ele>1388.0</ele><time>2026-05-05T09:02:09Z</time></trkpt><trkpt lat="31.16533991000147" lon="-6.196923796501476"><ele>1389.0</ele><time>2026-05-05T09:02:10Z</time></trkpt><trkpt lat="31.165189215165952" lon="-6.196888588248462"><ele>1390.0</ele><time>2026-05-05T09:02:11Z</time></trkpt><trkpt lat="31.165045886402552" lon="-6.196851198356073"><ele>1390.0</ele><time>2026-05-05T09:02:12Z</time></trkpt><trkpt lat="31.16491851842516" lon="-6.196816275450821"><ele>1390.0</ele><time>2026-05-05T09:02:13Z</time></trkpt><trkpt lat="31.16481898322389" lon="-6.196791164155666"><ele>1390.0</ele><time>2026-05-05T09:02:14Z</time></trkpt><trkpt lat="31.16474767797332" lon="-6.196778574017717"><ele>1390.0</ele><time>2026-05-05T09:02:15Z</time></trkpt><trkpt lat="31.16468116072022" lon="-6.196750435094042"><ele>1390.0</ele><time>2026-05-05T09:02:17Z</time></trkpt><trkpt lat="31.16477400786753" lon="-6.196701845459455"><ele>1390.0</ele><time>2026-05-05T09:02:21Z</time></trkpt><trkpt lat="31.16483411870647" lon="-6.196744552679913"><ele>1390.0</ele><time>2026-05-05T09:02:22Z</time></trkpt><trkpt lat="31.164915247663473" lon="-6.1967824582207305"><ele>1390.0</ele><time>2026-05-05T09:02:23Z</time></trkpt><trkpt lat="31.164998058780046" lon="-6.196813695660332"><ele>1390.0</ele><time>2026-05-05T09:02:24Z</time></trkpt><trkpt lat="31.165066848452433" lon="-6.196830701679457"><ele>1390.0</ele><time>2026-05-05T09:02:25Z</time></trkpt><trkpt lat="31.165111060826135" lon="-6.1969322954927"><ele>1390.0</ele><time>2026-05-05T09:02:27Z</time></trkpt><trkpt lat="31.16515189397423" lon="-6.1969948545907245"><ele>1390.0</ele><time>2026-05-05T09:02:29Z</time></trkpt><trkpt lat="31.165115504886003" lon="-6.197059568586912"><ele>1390.0</ele><time>2026-05-05T09:02:30Z</time></trkpt><trkpt lat="31.165028658287994" lon="-6.1971196595578535"><ele>1390.0</ele><time>2026-05-05T09:02:31Z</time></trkpt><trkpt lat="31.16494735221256" lon="-6.19716619762302"><ele>1390.0</ele><time>2026-05-05T09:02:32Z</time></trkpt><trkpt lat="31.164878210526762" lon="-6.197237457196044"><ele>1390.0</ele><time>2026-05-05T09:02:33Z</time></trkpt><trkpt lat="31.164807699984294" lon="-6.197297515110506"><ele>1390.0</ele><time>2026-05-05T09:02:34Z</time></trkpt><trkpt lat="31.164736690396154" lon="-6.197332442817258"><ele>1389.5</ele><time>2026-05-05T09:02:35Z</time></trkpt><trkpt lat="31.164674116453728" lon="-6.197365658579426"><ele>1389.0</ele><time>2026-05-05T09:02:36Z</time></trkpt><trkpt lat="31.16460243851121" lon="-6.197377082911324"><ele>1388.5</ele><time>2026-05-05T09:02:37Z</time></trkpt><trkpt lat="31.164522471335882" lon="-6.197362936054715"><ele>1388.0</ele><time>2026-05-05T09:02:38Z</time></trkpt><trkpt lat="31.164450865285858" lon="-6.197364958175976"><ele>1387.5</ele><time>2026-05-05T09:02:39Z</time></trkpt><trkpt lat="31.16438214685723" lon="-6.197364760935332"><ele>1387.0</ele><time>2026-05-05T09:02:40Z</time></trkpt><trkpt lat="31.16426713716192" lon="-6.197344498924198"><ele>1387.0</ele><time>2026-05-05T09:02:42Z</time></trkpt><trkpt lat="31.16421611620351" lon="-6.197428035380653"><ele>1387.0</ele><time>2026-05-05T09:02:43Z</time></trkpt><trkpt lat="31.164147290611552" lon="-6.19743165772502"><ele>1387.0</ele><time>2026-05-05T09:02:44Z</time></trkpt><trkpt lat="31.164073629264177" lon="-6.197434855581008"><ele>1387.0</ele><time>2026-05-05T09:02:45Z</time></trkpt><trkpt lat="31.164007391220984" lon="-6.197436806955359"><ele>1387.0</ele><time>2026-05-05T09:02:46Z</time></trkpt><trkpt lat="31.163914574046643" lon="-6.197480611277981"><ele>1387.0</ele><time>2026-05-05T09:02:48Z</time></trkpt><trkpt lat="31.1638297277208" lon="-6.197569226392395"><ele>1388.5</ele><time>2026-05-05T09:02:50Z</time></trkpt><trkpt lat="31.16376868249506" lon="-6.1976298856451635"><ele>1390.0</ele><time>2026-05-05T09:02:51Z</time></trkpt><trkpt lat="31.163707988659116" lon="-6.197679525086215"><ele>1391.5</ele><time>2026-05-05T09:02:52Z</time></trkpt><trkpt lat="31.16364059609991" lon="-6.197709630638583"><ele>1393.0</ele><time>2026-05-05T09:02:53Z</time></trkpt><trkpt lat="31.163580876819026" lon="-6.197758531151125"><ele>1394.5</ele><time>2026-05-05T09:02:54Z</time></trkpt><trkpt lat="31.163525558840114" lon="-6.197804645051197"><ele>1396.0</ele><time>2026-05-05T09:02:55Z</time></trkpt><trkpt lat="31.163411090771188" lon="-6.1979006083551775"><ele>1396.0</ele><time>2026-05-05T09:02:57Z</time></trkpt><trkpt lat="31.163329605515457" lon="-6.197941792733436"><ele>1396.0</ele><time>2026-05-05T09:02:58Z</time></trkpt><trkpt lat="31.163255537801753" lon="-6.197975105012057"><ele>1396.0</ele><time>2026-05-05T09:02:58.999Z</time></trkpt><trkpt lat="31.163174004858128" lon="-6.197982841036087"><ele>1396.0</ele><time>2026-05-05T09:02:59.999Z</time></trkpt><trkpt lat="31.163100324701677" lon="-6.198020898170325"><ele>1396.0</ele><time>2026-05-05T09:03:00.999Z</time></trkpt><trkpt lat="31.16302506367768" lon="-6.1980404886317"><ele>1396.0</ele><time>2026-05-05T09:03:01.999Z</time></trkpt><trkpt lat="31.16294986350273" lon="-6.198058797020582"><ele>1396.5</ele><time>2026-05-05T09:03:02.999Z</time></trkpt><trkpt lat="31.162876810492506" lon="-6.1980623169066495"><ele>1397.0</ele><time>2026-05-05T09:03:03.999Z</time></trkpt><trkpt lat="31.162800500091514" lon="-6.198083864508123"><ele>1397.5</ele><time>2026-05-05T09:03:04.999Z</time></trkpt><trkpt lat="31.162730991204587" lon="-6.198092608140607"><ele>1398.0</ele><time>2026-05-05T09:03:05.999Z</time></trkpt><trkpt lat="31.16266139405004" lon="-6.1980995479129914"><ele>1398.5</ele><time>2026-05-05T09:03:06.999Z</time></trkpt><trkpt lat="31.162578640782797" lon="-6.198107799542621"><ele>1399.0</ele><time>2026-05-05T09:03:07.999Z</time></trkpt><trkpt lat="31.162492517869154" lon="-6.198112054478361"><ele>1399.0</ele><time>2026-05-05T09:03:08.999Z</time></trkpt><trkpt lat="31.162407911229568" lon="-6.198115932882311"><ele>1399.0</ele><time>2026-05-05T09:03:09.999Z</time></trkpt><trkpt lat="31.162323835201253" lon="-6.198117284600214"><ele>1399.0</ele><time>2026-05-05T09:03:10.999Z</time></trkpt><trkpt lat="31.16224282102187" lon="-6.1981162407117605"><ele>1399.0</ele><time>2026-05-05T09:03:11.999Z</time></trkpt><trkpt lat="31.162164600725244" lon="-6.198112626349747"><ele>1399.0</ele><time>2026-05-05T09:03:12.999Z</time></trkpt><trkpt lat="31.162086422822714" lon="-6.198119772134225"><ele>1399.0</ele><time>2026-05-05T09:03:13.999Z</time></trkpt><trkpt lat="31.16200160125219" lon="-6.198133173967551"><ele>1398.8000000000002</ele><time>2026-05-05T09:03:14.999Z</time></trkpt><trkpt lat="31.161913608859546" lon="-6.1981508399365435"><ele>1398.6000000000001</ele><time>2026-05-05T09:03:15.999Z</time></trkpt><trkpt lat="31.16182395663813" lon="-6.198171609950237"><ele>1398.4</ele><time>2026-05-05T09:03:16.999Z</time></trkpt><trkpt lat="31.161734863755225" lon="-6.198194574125066"><ele>1398.2</ele><time>2026-05-05T09:03:17.999Z</time></trkpt><trkpt lat="31.1616421309474" lon="-6.198207758422475"><ele>1398.0</ele><time>2026-05-05T09:03:18.999Z</time></trkpt><trkpt lat="31.161552298260975" lon="-6.198215651686125"><ele>1397.0</ele><time>2026-05-05T09:03:19.999Z</time></trkpt><trkpt lat="31.161462287733674" lon="-6.198217736568765"><ele>1396.0</ele><time>2026-05-05T09:03:20.999Z</time></trkpt><trkpt lat="31.16137082871481" lon="-6.198219190865318"><ele>1395.0</ele><time>2026-05-05T09:03:21.999Z</time></trkpt><trkpt lat="31.16127860107686" lon="-6.198217944180806"><ele>1394.0</ele><time>2026-05-05T09:03:22.999Z</time></trkpt><trkpt lat="31.161188635977204" lon="-6.198214826189022"><ele>1393.0</ele><time>2026-05-05T09:03:23.999Z</time></trkpt><trkpt lat="31.161088378783163" lon="-6.19817298096368"><ele>1393.2</ele><time>2026-05-05T09:03:24.999Z</time></trkpt><trkpt lat="31.160988192193145" lon="-6.198139485409449"><ele>1393.4</ele><time>2026-05-05T09:03:25.999Z</time></trkpt><trkpt lat="31.160887592488073" lon="-6.1981148100035774"><ele>1393.6000000000001</ele><time>2026-05-05T09:03:26.999Z</time></trkpt><trkpt lat="31.1607858631687" lon="-6.198088986837355"><ele>1393.8000000000002</ele><time>2026-05-05T09:03:27.999Z</time></trkpt><trkpt lat="31.16068315380527" lon="-6.198060898813979"><ele>1394.0</ele><time>2026-05-05T09:03:28.999Z</time></trkpt><trkpt lat="31.1605841480427" lon="-6.198030639683203"><ele>1394.4</ele><time>2026-05-05T09:03:29.999Z</time></trkpt><trkpt lat="31.160477772577714" lon="-6.197997569310644"><ele>1394.8000000000002</ele><time>2026-05-05T09:03:30.999Z</time></trkpt><trkpt lat="31.160374055615264" lon="-6.1979653244889885"><ele>1395.1999999999998</ele><time>2026-05-05T09:03:31.999Z</time></trkpt><trkpt lat="31.160276672048514" lon="-6.19792395082256"><ele>1395.6</ele><time>2026-05-05T09:03:32.999Z</time></trkpt><trkpt lat="31.160165214919473" lon="-6.197917497633159"><ele>1396.0</ele><time>2026-05-05T09:03:33.999Z</time></trkpt><trkpt lat="31.160058690549796" lon="-6.197898117187823"><ele>1396.0</ele><time>2026-05-05T09:03:34.999Z</time></trkpt><trkpt lat="31.159957369427815" lon="-6.197856335339093"><ele>1396.0</ele><time>2026-05-05T09:03:35.999Z</time></trkpt><trkpt lat="31.159856178598908" lon="-6.197799665542602"><ele>1396.0</ele><time>2026-05-05T09:03:37Z</time></trkpt><trkpt lat="31.159758281589077" lon="-6.197768232563624"><ele>1396.0</ele><time>2026-05-05T09:03:38Z</time></trkpt><trkpt lat="31.15967083561827" lon="-6.197743930574644"><ele>1396.0</ele><time>2026-05-05T09:03:39Z</time></trkpt><trkpt lat="31.159581850665145" lon="-6.197719264132587"><ele>1396.8333333333333</ele><time>2026-05-05T09:03:40Z</time></trkpt><trkpt lat="31.159491128049332" lon="-6.197705690624346"><ele>1397.6666666666665</ele><time>2026-05-05T09:03:41Z</time></trkpt><trkpt lat="31.159398291597157" lon="-6.197692499401328"><ele>1398.5</ele><time>2026-05-05T09:03:42Z</time></trkpt><trkpt lat="31.159307644432218" lon="-6.197681574511452"><ele>1399.3333333333333</ele><time>2026-05-05T09:03:43Z</time></trkpt><trkpt lat="31.159228319694673" lon="-6.197677889762044"><ele>1400.1666666666667</ele><time>2026-05-05T09:03:44Z</time></trkpt><trkpt lat="31.159148242371213" lon="-6.19767399975806"><ele>1401.0</ele><time>2026-05-05T09:03:45Z</time></trkpt><trkpt lat="31.159083221264268" lon="-6.197701250241267"><ele>1401.8333333333333</ele><time>2026-05-05T09:03:46Z</time></trkpt><trkpt lat="31.159016442138697" lon="-6.197733594949667"><ele>1402.6666666666667</ele><time>2026-05-05T09:03:47Z</time></trkpt><trkpt lat="31.158941765879508" lon="-6.197768712906046"><ele>1403.5</ele><time>2026-05-05T09:03:48Z</time></trkpt><trkpt lat="31.158894747774397" lon="-6.197846962903762"><ele>1404.3333333333335</ele><time>2026-05-05T09:03:49Z</time></trkpt><trkpt lat="31.158893191120395" lon="-6.197958575920404"><ele>1405.1666666666667</ele><time>2026-05-05T09:03:50Z</time></trkpt><trkpt lat="31.158857377439293" lon="-6.19807341467413"><ele>1406.0</ele><time>2026-05-05T09:03:51Z</time></trkpt><trkpt lat="31.158847471985375" lon="-6.198199255095671"><ele>1406.4</ele><time>2026-05-05T09:03:52Z</time></trkpt><trkpt lat="31.158833503772648" lon="-6.198328000894169"><ele>1406.8</ele><time>2026-05-05T09:03:53Z</time></trkpt><trkpt lat="31.158815030258186" lon="-6.198452198347144"><ele>1407.2</ele><time>2026-05-05T09:03:54Z</time></trkpt><trkpt lat="31.158793898115405" lon="-6.198570545537848"><ele>1407.6000000000001</ele><time>2026-05-05T09:03:55Z</time></trkpt><trkpt lat="31.158766469116685" lon="-6.198670237419265"><ele>1408.0</ele><time>2026-05-05T09:03:56Z</time></trkpt><trkpt lat="31.15873366762795" lon="-6.1987567946762825"><ele>1408.0</ele><time>2026-05-05T09:03:57Z</time></trkpt><trkpt lat="31.158696231532826" lon="-6.198818858777471"><ele>1408.0</ele><time>2026-05-05T09:03:58Z</time></trkpt><trkpt lat="31.158644847616564" lon="-6.198874951837409"><ele>1408.0</ele><time>2026-05-05T09:03:59Z</time></trkpt><trkpt lat="31.158575896277114" lon="-6.198912658273266"><ele>1408.0</ele><time>2026-05-05T09:04:00Z</time></trkpt><trkpt lat="31.15848268442657" lon="-6.198955264193792"><ele>1408.0</ele><time>2026-05-05T09:04:01Z</time></trkpt><trkpt lat="31.15838094256287" lon="-6.198992376135414"><ele>1408.0</ele><time>2026-05-05T09:04:02Z</time></trkpt><trkpt lat="31.158273937582287" lon="-6.199038840549344"><ele>1407.2</ele><time>2026-05-05T09:04:03Z</time></trkpt><trkpt lat="31.158162813010122" lon="-6.199071825304158"><ele>1406.4</ele><time>2026-05-05T09:04:04Z</time></trkpt><trkpt lat="31.15806390286244" lon="-6.199122944329216"><ele>1405.6000000000001</ele><time>2026-05-05T09:04:05Z</time></trkpt><trkpt lat="31.157960825260034" lon="-6.1991570165318075"><ele>1404.8000000000002</ele><time>2026-05-05T09:04:06Z</time></trkpt><trkpt lat="31.157853938358286" lon="-6.19919326401565"><ele>1404.0</ele><time>2026-05-05T09:04:07Z</time></trkpt><trkpt lat="31.157745527202337" lon="-6.199234239422774"><ele>1404.0</ele><time>2026-05-05T09:04:08Z</time></trkpt><trkpt lat="31.157633790863464" lon="-6.199276707883788"><ele>1404.0</ele><time>2026-05-05T09:04:09Z</time></trkpt><trkpt lat="31.15751833429235" lon="-6.199320672188426"><ele>1404.0</ele><time>2026-05-05T09:04:10Z</time></trkpt><trkpt lat="31.157407479946055" lon="-6.19936404614378"><ele>1404.0</ele><time>2026-05-05T09:04:11Z</time></trkpt><trkpt lat="31.157307210473235" lon="-6.199417574078898"><ele>1405.0</ele><time>2026-05-05T09:04:12Z</time></trkpt><trkpt lat="31.157221048329955" lon="-6.199479091475041"><ele>1406.0</ele><time>2026-05-05T09:04:13Z</time></trkpt><trkpt lat="31.157142579369754" lon="-6.1995577277434855"><ele>1407.0</ele><time>2026-05-05T09:04:14Z</time></trkpt><trkpt lat="31.157061948529645" lon="-6.199629940817931"><ele>1408.0</ele><time>2026-05-05T09:04:15Z</time></trkpt><trkpt lat="31.156988424307812" lon="-6.199712345943597"><ele>1409.0</ele><time>2026-05-05T09:04:16Z</time></trkpt><trkpt lat="31.15690407626163" lon="-6.199780982351782"><ele>1409.0</ele><time>2026-05-05T09:04:17Z</time></trkpt><trkpt lat="31.15681068848846" lon="-6.199829789837835"><ele>1409.0</ele><time>2026-05-05T09:04:18Z</time></trkpt><trkpt lat="31.156711339306625" lon="-6.199866727051676"><ele>1409.0</ele><time>2026-05-05T09:04:19Z</time></trkpt><trkpt lat="31.156618249311375" lon="-6.199920086905128"><ele>1409.0</ele><time>2026-05-05T09:04:20Z</time></trkpt><trkpt lat="31.1565198613909" lon="-6.199967703637159"><ele>1409.0</ele><time>2026-05-05T09:04:21Z</time></trkpt><trkpt lat="31.156422049483503" lon="-6.2000148236972334"><ele>1408.4</ele><time>2026-05-05T09:04:22Z</time></trkpt><trkpt lat="31.156329577457168" lon="-6.200061672612691"><ele>1407.8000000000002</ele><time>2026-05-05T09:04:23Z</time></trkpt><trkpt lat="31.156236789484495" lon="-6.200100681386563"><ele>1407.1999999999998</ele><time>2026-05-05T09:04:24Z</time></trkpt><trkpt lat="31.15614026210635" lon="-6.20012371269303"><ele>1406.6</ele><time>2026-05-05T09:04:25Z</time></trkpt><trkpt lat="31.156039431211294" lon="-6.200129970733406"><ele>1406.0</ele><time>2026-05-05T09:04:26Z</time></trkpt><trkpt lat="31.15595435943094" lon="-6.200145942585367"><ele>1406.0</ele><time>2026-05-05T09:04:27Z</time></trkpt><trkpt lat="31.155893017843976" lon="-6.200185728855793"><ele>1406.0</ele><time>2026-05-05T09:04:28Z</time></trkpt><trkpt lat="31.155810711754214" lon="-6.200233768942547"><ele>1406.0</ele><time>2026-05-05T09:04:29Z</time></trkpt><trkpt lat="31.155728860016733" lon="-6.200277415490309"><ele>1406.0</ele><time>2026-05-05T09:04:30Z</time></trkpt><trkpt lat="31.155635629013677" lon="-6.200319534977082"><ele>1406.0</ele><time>2026-05-05T09:04:31Z</time></trkpt><trkpt lat="31.155540419170354" lon="-6.200358593828606"><ele>1406.4</ele><time>2026-05-05T09:04:32Z</time></trkpt><trkpt lat="31.155442747240347" lon="-6.200386579854578"><ele>1406.8</ele><time>2026-05-05T09:04:33Z</time></trkpt><trkpt lat="31.15534318510387" lon="-6.20038346338004"><ele>1407.2</ele><time>2026-05-05T09:04:34Z</time></trkpt><trkpt lat="31.155253689596158" lon="-6.200414380762506"><ele>1407.6000000000001</ele><time>2026-05-05T09:04:35Z</time></trkpt><trkpt lat="31.15515516498696" lon="-6.2003834439848635"><ele>1408.0</ele><time>2026-05-05T09:04:36Z</time></trkpt><trkpt lat="31.15506065263708" lon="-6.2003425338015425"><ele>1408.0</ele><time>2026-05-05T09:04:37Z</time></trkpt><trkpt lat="31.15496228254877" lon="-6.200314183455203"><ele>1408.0</ele><time>2026-05-05T09:04:38Z</time></trkpt><trkpt lat="31.154867838607036" lon="-6.200308301396942"><ele>1408.0</ele><time>2026-05-05T09:04:39Z</time></trkpt><trkpt lat="31.15477854584465" lon="-6.2003232924364"><ele>1408.0</ele><time>2026-05-05T09:04:40Z</time></trkpt><trkpt lat="31.15468026716688" lon="-6.2003388681830245"><ele>1408.0</ele><time>2026-05-05T09:04:41Z</time></trkpt><trkpt lat="31.154585500809425" lon="-6.200347977626489"><ele>1407.5</ele><time>2026-05-05T09:04:42Z</time></trkpt><trkpt lat="31.154497630258142" lon="-6.200348772043822"><ele>1407.0</ele><time>2026-05-05T09:04:43Z</time></trkpt><trkpt lat="31.154414603902" lon="-6.200339469213386"><ele>1406.5</ele><time>2026-05-05T09:04:44Z</time></trkpt><trkpt lat="31.15433237183755" lon="-6.200322302272042"><ele>1406.0</ele><time>2026-05-05T09:04:45Z</time></trkpt><trkpt lat="31.15425901435765" lon="-6.200302876943013"><ele>1405.5</ele><time>2026-05-05T09:04:46Z</time></trkpt><trkpt lat="31.154184301509986" lon="-6.200242432249206"><ele>1405.0</ele><time>2026-05-05T09:04:47Z</time></trkpt><trkpt lat="31.154113456969004" lon="-6.200190131638352"><ele>1405.0</ele><time>2026-05-05T09:04:48Z</time></trkpt><trkpt lat="31.15404246989275" lon="-6.2001385508605615"><ele>1405.0</ele><time>2026-05-05T09:04:49Z</time></trkpt><trkpt lat="31.153963340414787" lon="-6.200106253253254"><ele>1405.0</ele><time>2026-05-05T09:04:50Z</time></trkpt><trkpt lat="31.15388444537454" lon="-6.2001011173372245"><ele>1405.0</ele><time>2026-05-05T09:04:51Z</time></trkpt><trkpt lat="31.153802912295642" lon="-6.200101408006752"><ele>1405.0</ele><time>2026-05-05T09:04:52Z</time></trkpt><trkpt lat="31.153710348214545" lon="-6.200094610080643"><ele>1405.0</ele><time>2026-05-05T09:04:53Z</time></trkpt><trkpt lat="31.15361268441044" lon="-6.200083707586582"><ele>1404.0</ele><time>2026-05-05T09:04:54Z</time></trkpt><trkpt lat="31.153517878141304" lon="-6.200073379161944"><ele>1403.0</ele><time>2026-05-05T09:04:55Z</time></trkpt><trkpt lat="31.153433452159547" lon="-6.200077108309836"><ele>1402.0</ele><time>2026-05-05T09:04:56Z</time></trkpt><trkpt lat="31.15334680439205" lon="-6.200096082327241"><ele>1401.0</ele><time>2026-05-05T09:04:57Z</time></trkpt><trkpt lat="31.15325556408502" lon="-6.200102634527811"><ele>1400.0</ele><time>2026-05-05T09:04:58Z</time></trkpt><trkpt lat="31.15316326633126" lon="-6.200105608346435"><ele>1398.6</ele><time>2026-05-05T09:04:59Z</time></trkpt><trkpt lat="31.15306826492333" lon="-6.200087022003516"><ele>1397.2</ele><time>2026-05-05T09:05:00Z</time></trkpt><trkpt lat="31.15297718642337" lon="-6.200074052275164"><ele>1395.8000000000002</ele><time>2026-05-05T09:05:01Z</time></trkpt><trkpt lat="31.152884862420052" lon="-6.200062969511482"><ele>1394.4</ele><time>2026-05-05T09:05:02Z</time></trkpt><trkpt lat="31.152784557998626" lon="-6.20005836523539"><ele>1393.0</ele><time>2026-05-05T09:05:03Z</time></trkpt><trkpt lat="31.15268592162863" lon="-6.20005383752665"><ele>1393.0</ele><time>2026-05-05T09:05:04Z</time></trkpt><trkpt lat="31.152590268045508" lon="-6.200050180150412"><ele>1393.0</ele><time>2026-05-05T09:05:05Z</time></trkpt><trkpt lat="31.152492473754734" lon="-6.2000393204801805"><ele>1393.0</ele><time>2026-05-05T09:05:06Z</time></trkpt><trkpt lat="31.152409073531505" lon="-6.200026446031474"><ele>1393.0</ele><time>2026-05-05T09:05:07Z</time></trkpt><trkpt lat="31.152316150457732" lon="-6.200004284822009"><ele>1393.0</ele><time>2026-05-05T09:05:08Z</time></trkpt><trkpt lat="31.15221921832902" lon="-6.199975828907963"><ele>1392.0</ele><time>2026-05-05T09:05:09Z</time></trkpt><trkpt lat="31.15212416404583" lon="-6.199946349517075"><ele>1391.0</ele><time>2026-05-05T09:05:10Z</time></trkpt><trkpt lat="31.15203004005921" lon="-6.199921401415686"><ele>1390.0</ele><time>2026-05-05T09:05:11Z</time></trkpt><trkpt lat="31.151943931015815" lon="-6.199920059417392"><ele>1389.0</ele><time>2026-05-05T09:05:12Z</time></trkpt><trkpt lat="31.151860414277618" lon="-6.199925137316959"><ele>1388.0</ele><time>2026-05-05T09:05:13Z</time></trkpt><trkpt lat="31.151780659215586" lon="-6.199912506212494"><ele>1387.0</ele><time>2026-05-05T09:05:14Z</time></trkpt><trkpt lat="31.151708440127155" lon="-6.199947780852316"><ele>1387.0</ele><time>2026-05-05T09:05:15Z</time></trkpt><trkpt lat="31.151638204129114" lon="-6.199976587531836"><ele>1387.0</ele><time>2026-05-05T09:05:16Z</time></trkpt><trkpt lat="31.151578841525623" lon="-6.20001274559351"><ele>1387.0</ele><time>2026-05-05T09:05:16.999Z</time></trkpt><trkpt lat="31.151526612782472" lon="-6.200074718046189"><ele>1387.0</ele><time>2026-05-05T09:05:17.999Z</time></trkpt><trkpt lat="31.151472391393266" lon="-6.200144772135686"><ele>1387.0</ele><time>2026-05-05T09:05:18.999Z</time></trkpt><trkpt lat="31.151416254738294" lon="-6.200211113129886"><ele>1387.0</ele><time>2026-05-05T09:05:19.999Z</time></trkpt><trkpt lat="31.151362216967676" lon="-6.200282601257453"><ele>1385.1999999999998</ele><time>2026-05-05T09:05:20.999Z</time></trkpt><trkpt lat="31.15130998093729" lon="-6.200355510912557"><ele>1383.4</ele><time>2026-05-05T09:05:21.999Z</time></trkpt><trkpt lat="31.15126554399454" lon="-6.200420570726307"><ele>1381.6</ele><time>2026-05-05T09:05:22.999Z</time></trkpt><trkpt lat="31.151185765337885" lon="-6.200534445200571"><ele>1379.8000000000002</ele><time>2026-05-05T09:05:24.999Z</time></trkpt><trkpt lat="31.151063628645836" lon="-6.2005979225804335"><ele>1378.0</ele><time>2026-05-05T09:05:26.999Z</time></trkpt><trkpt lat="31.150980485638396" lon="-6.200598336977954"><ele>1378.0</ele><time>2026-05-05T09:05:27.999Z</time></trkpt><trkpt lat="31.15090894881843" lon="-6.200594645593949"><ele>1378.0</ele><time>2026-05-05T09:05:28.999Z</time></trkpt><trkpt lat="31.150835141022533" lon="-6.200593386150585"><ele>1378.0</ele><time>2026-05-05T09:05:29.999Z</time></trkpt><trkpt lat="31.1507535211251" lon="-6.200593868614622"><ele>1378.0</ele><time>2026-05-05T09:05:30.999Z</time></trkpt><trkpt lat="31.150665562121738" lon="-6.200604918317563"><ele>1378.0</ele><time>2026-05-05T09:05:31.999Z</time></trkpt><trkpt lat="31.150561243748573" lon="-6.200624178082661"><ele>1378.0</ele><time>2026-05-05T09:05:32.999Z</time></trkpt><trkpt lat="31.150454333907753" lon="-6.200638672310028"><ele>1378.0</ele><time>2026-05-05T09:05:33.999Z</time></trkpt><trkpt lat="31.150359439512325" lon="-6.200650816678247"><ele>1378.0</ele><time>2026-05-05T09:05:34.999Z</time></trkpt><trkpt lat="31.150265042953194" lon="-6.200662150392024"><ele>1378.0</ele><time>2026-05-05T09:05:35.999Z</time></trkpt><trkpt lat="31.150164223308" lon="-6.20067425531775"><ele>1378.0</ele><time>2026-05-05T09:05:36.999Z</time></trkpt><trkpt lat="31.150062405993165" lon="-6.200683740158274"><ele>1378.0</ele><time>2026-05-05T09:05:37.999Z</time></trkpt><trkpt lat="31.14997141501744" lon="-6.200688602581289"><ele>1378.0</ele><time>2026-05-05T09:05:38.999Z</time></trkpt><trkpt lat="31.149891645263445" lon="-6.200692707627313"><ele>1378.0</ele><time>2026-05-05T09:05:39.999Z</time></trkpt><trkpt lat="31.149808108562144" lon="-6.200691818381426"><ele>1378.0</ele><time>2026-05-05T09:05:40.999Z</time></trkpt><trkpt lat="31.149717266676515" lon="-6.20066847342711"><ele>1378.0</ele><time>2026-05-05T09:05:41.999Z</time></trkpt><trkpt lat="31.149640317220072" lon="-6.200623712899982"><ele>1378.0</ele><time>2026-05-05T09:05:43Z</time></trkpt><trkpt lat="31.14951751891067" lon="-6.200632524858286"><ele>1379.6666666666665</ele><time>2026-05-05T09:05:45Z</time></trkpt><trkpt lat="31.149432527279853" lon="-6.200641791265804"><ele>1381.3333333333333</ele><time>2026-05-05T09:05:46Z</time></trkpt><trkpt lat="31.14935423107002" lon="-6.2006522035358325"><ele>1383.0</ele><time>2026-05-05T09:05:47Z</time></trkpt><trkpt lat="31.149265545216647" lon="-6.200644446133582"><ele>1384.6666666666667</ele><time>2026-05-05T09:05:48Z</time></trkpt><trkpt lat="31.14919143837708" lon="-6.200622136218477"><ele>1386.3333333333335</ele><time>2026-05-05T09:05:49Z</time></trkpt><trkpt lat="31.149130255249258" lon="-6.200578369019481"><ele>1388.0</ele><time>2026-05-05T09:05:50Z</time></trkpt><trkpt lat="31.149075135748483" lon="-6.200508562776452"><ele>1388.0</ele><time>2026-05-05T09:05:51Z</time></trkpt><trkpt lat="31.149045361899113" lon="-6.200406005771106"><ele>1388.0</ele><time>2026-05-05T09:05:52Z</time></trkpt><trkpt lat="31.148998269627892" lon="-6.200348760955769"><ele>1388.0</ele><time>2026-05-05T09:05:53Z</time></trkpt><trkpt lat="31.148952172221254" lon="-6.200293526028893"><ele>1388.0</ele><time>2026-05-05T09:05:54Z</time></trkpt><trkpt lat="31.14883829584109" lon="-6.200326209546216"><ele>1388.0</ele><time>2026-05-05T09:05:56Z</time></trkpt><trkpt lat="31.14877223128908" lon="-6.200346102621381"><ele>1388.0</ele><time>2026-05-05T09:05:57Z</time></trkpt><trkpt lat="31.148706653772997" lon="-6.200374892617964"><ele>1388.2</ele><time>2026-05-05T09:05:58Z</time></trkpt><trkpt lat="31.148612936970956" lon="-6.20048711030252"><ele>1388.4</ele><time>2026-05-05T09:06:00Z</time></trkpt><trkpt lat="31.148558250404278" lon="-6.20056068859342"><ele>1388.6000000000001</ele><time>2026-05-05T09:06:01Z</time></trkpt><trkpt lat="31.148500890356733" lon="-6.20063786384983"><ele>1388.8000000000002</ele><time>2026-05-05T09:06:02Z</time></trkpt><trkpt lat="31.148428321631336" lon="-6.200699678043157"><ele>1389.0</ele><time>2026-05-05T09:06:03Z</time></trkpt><trkpt lat="31.148364579931332" lon="-6.200777469687055"><ele>1389.4</ele><time>2026-05-05T09:06:04Z</time></trkpt><trkpt lat="31.148301467454935" lon="-6.2008612737935955"><ele>1389.8000000000002</ele><time>2026-05-05T09:06:05Z</time></trkpt><trkpt lat="31.148216642616777" lon="-6.200923474505072"><ele>1390.1999999999998</ele><time>2026-05-05T09:06:06Z</time></trkpt><trkpt lat="31.148149208084966" lon="-6.200997592399559"><ele>1390.6</ele><time>2026-05-05T09:06:07Z</time></trkpt><trkpt lat="31.14809082515989" lon="-6.201080206462207"><ele>1391.0</ele><time>2026-05-05T09:06:08Z</time></trkpt><trkpt lat="31.148025337536765" lon="-6.201152182830466"><ele>1391.0</ele><time>2026-05-05T09:06:09Z</time></trkpt><trkpt lat="31.14797775800293" lon="-6.201242567154494"><ele>1391.0</ele><time>2026-05-05T09:06:10Z</time></trkpt><trkpt lat="31.147931480637464" lon="-6.201333999238562"><ele>1391.0</ele><time>2026-05-05T09:06:11Z</time></trkpt><trkpt lat="31.147884137103375" lon="-6.201431263629516"><ele>1391.0</ele><time>2026-05-05T09:06:12Z</time></trkpt><trkpt lat="31.147831958230647" lon="-6.201515701605483"><ele>1391.0</ele><time>2026-05-05T09:06:13Z</time></trkpt><trkpt lat="31.147793502727847" lon="-6.201615525881959"><ele>1391.6</ele><time>2026-05-05T09:06:14Z</time></trkpt><trkpt lat="31.14775427189788" lon="-6.201716400861048"><ele>1392.1999999999998</ele><time>2026-05-05T09:06:15Z</time></trkpt><trkpt lat="31.14771229415684" lon="-6.201814875778322"><ele>1392.8000000000002</ele><time>2026-05-05T09:06:16Z</time></trkpt><trkpt lat="31.14767575583571" lon="-6.201909162145958"><ele>1393.4</ele><time>2026-05-05T09:06:17Z</time></trkpt><trkpt lat="31.147646216624178" lon="-6.2020109588322985"><ele>1394.0</ele><time>2026-05-05T09:06:18Z</time></trkpt><trkpt lat="31.147623860807823" lon="-6.202117854954489"><ele>1394.0</ele><time>2026-05-05T09:06:19Z</time></trkpt><trkpt lat="31.147608559985844" lon="-6.202224227471792"><ele>1394.0</ele><time>2026-05-05T09:06:20Z</time></trkpt><trkpt lat="31.14758366591066" lon="-6.2023292901510585"><ele>1394.0</ele><time>2026-05-05T09:06:21Z</time></trkpt><trkpt lat="31.147559149626" lon="-6.202433213219279"><ele>1394.0</ele><time>2026-05-05T09:06:22Z</time></trkpt><trkpt lat="31.147528117535252" lon="-6.202533243507994"><ele>1394.0</ele><time>2026-05-05T09:06:23Z</time></trkpt><trkpt lat="31.147496667486497" lon="-6.202635320190808"><ele>1394.0</ele><time>2026-05-05T09:06:24Z</time></trkpt><trkpt lat="31.147465235885335" lon="-6.202729562218698"><ele>1394.0</ele><time>2026-05-05T09:06:25Z</time></trkpt><trkpt lat="31.147436177669174" lon="-6.202801641544519"><ele>1394.0</ele><time>2026-05-05T09:06:26Z</time></trkpt><trkpt lat="31.1473900137217" lon="-6.202861484410271"><ele>1394.0</ele><time>2026-05-05T09:06:27Z</time></trkpt><trkpt lat="31.1473263396479" lon="-6.202909810926732"><ele>1394.0</ele><time>2026-05-05T09:06:28Z</time></trkpt><trkpt lat="31.147245863141507" lon="-6.202941712934124"><ele>1394.0</ele><time>2026-05-05T09:06:29Z</time></trkpt><trkpt lat="31.14716772605763" lon="-6.2029943594594075"><ele>1396.6</ele><time>2026-05-05T09:06:30Z</time></trkpt><trkpt lat="31.147077271959617" lon="-6.203016395835866"><ele>1399.2</ele><time>2026-05-05T09:06:31Z</time></trkpt><trkpt lat="31.146991501220604" lon="-6.203051162866612"><ele>1401.8</ele><time>2026-05-05T09:06:32Z</time></trkpt><trkpt lat="31.146908622762915" lon="-6.203106038021483"><ele>1404.3999999999999</ele><time>2026-05-05T09:06:33Z</time></trkpt><trkpt lat="31.146824149237137" lon="-6.203139599290961"><ele>1407.0</ele><time>2026-05-05T09:06:34Z</time></trkpt><trkpt lat="31.146730702459667" lon="-6.2031525832565295"><ele>1407.0</ele><time>2026-05-05T09:06:35Z</time></trkpt><trkpt lat="31.146647630609138" lon="-6.203195507311492"><ele>1407.0</ele><time>2026-05-05T09:06:36Z</time></trkpt><trkpt lat="31.146568046243694" lon="-6.203225909263946"><ele>1407.0</ele><time>2026-05-05T09:06:37Z</time></trkpt><trkpt lat="31.146490673270684" lon="-6.2032580317275094"><ele>1407.0</ele><time>2026-05-05T09:06:38Z</time></trkpt><trkpt lat="31.146412540997183" lon="-6.203311780172336"><ele>1407.0</ele><time>2026-05-05T09:06:39Z</time></trkpt><trkpt lat="31.146326198427623" lon="-6.203347145496768"><ele>1407.0</ele><time>2026-05-05T09:06:40Z</time></trkpt><trkpt lat="31.146250279451646" lon="-6.203372534965602"><ele>1407.0</ele><time>2026-05-05T09:06:41Z</time></trkpt><trkpt lat="31.146176828407942" lon="-6.203385270966302"><ele>1407.0</ele><time>2026-05-05T09:06:42Z</time></trkpt><trkpt lat="31.14610581401134" lon="-6.2033849971315655"><ele>1407.0</ele><time>2026-05-05T09:06:43Z</time></trkpt><trkpt lat="31.14602678122403" lon="-6.203346434795939"><ele>1407.0</ele><time>2026-05-05T09:06:44Z</time></trkpt><trkpt lat="31.145948141971868" lon="-6.203330344660248"><ele>1407.0</ele><time>2026-05-05T09:06:45Z</time></trkpt><trkpt lat="31.145869925236028" lon="-6.203323574623086"><ele>1407.0</ele><time>2026-05-05T09:06:46Z</time></trkpt><trkpt lat="31.145800597863666" lon="-6.203336744680637"><ele>1407.0</ele><time>2026-05-05T09:06:47Z</time></trkpt><trkpt lat="31.145734313411747" lon="-6.20336142072088"><ele>1407.0</ele><time>2026-05-05T09:06:48Z</time></trkpt><trkpt lat="31.145658964706605" lon="-6.203388048271985"><ele>1407.0</ele><time>2026-05-05T09:06:49Z</time></trkpt><trkpt lat="31.145575791672986" lon="-6.203414385072227"><ele>1407.0</ele><time>2026-05-05T09:06:50Z</time></trkpt><trkpt lat="31.145484003052434" lon="-6.203441610506786"><ele>1407.0</ele><time>2026-05-05T09:06:51Z</time></trkpt><trkpt lat="31.14538787306991" lon="-6.203469894066139"><ele>1407.0</ele><time>2026-05-05T09:06:52Z</time></trkpt><trkpt lat="31.145292033005273" lon="-6.20349733374581"><ele>1406.6666666666667</ele><time>2026-05-05T09:06:53Z</time></trkpt><trkpt lat="31.14519963203719" lon="-6.2035233464165795"><ele>1406.3333333333333</ele><time>2026-05-05T09:06:54Z</time></trkpt><trkpt lat="31.145109770737456" lon="-6.203548085828983"><ele>1406.0</ele><time>2026-05-05T09:06:55Z</time></trkpt><trkpt lat="31.145023304761406" lon="-6.203572492419948"><ele>1405.6666666666665</ele><time>2026-05-05T09:06:56Z</time></trkpt><trkpt lat="31.144940207926094" lon="-6.203598195023052"><ele>1405.3333333333333</ele><time>2026-05-05T09:06:57Z</time></trkpt><trkpt lat="31.14486908915829" lon="-6.20363276722373"><ele>1405.0</ele><time>2026-05-05T09:06:58Z</time></trkpt><trkpt lat="31.144805757549683" lon="-6.20367220348145"><ele>1404.8333333333333</ele><time>2026-05-05T09:06:59Z</time></trkpt><trkpt lat="31.144734122938154" lon="-6.203716144844346"><ele>1404.6666666666665</ele><time>2026-05-05T09:07:00Z</time></trkpt><trkpt lat="31.14466083555872" lon="-6.2037589463092235"><ele>1404.5</ele><time>2026-05-05T09:07:01Z</time></trkpt><trkpt lat="31.14457584729208" lon="-6.203796008830725"><ele>1404.3333333333333</ele><time>2026-05-05T09:07:02Z</time></trkpt><trkpt lat="31.14449463978465" lon="-6.2038316007507985"><ele>1404.1666666666667</ele><time>2026-05-05T09:07:03Z</time></trkpt><trkpt lat="31.144402046983085" lon="-6.20387493248809"><ele>1404.0</ele><time>2026-05-05T09:07:04Z</time></trkpt><trkpt lat="31.144310079459377" lon="-6.203916909705776"><ele>1404.0</ele><time>2026-05-05T09:07:05Z</time></trkpt><trkpt lat="31.14422352056409" lon="-6.203956418203117"><ele>1404.0</ele><time>2026-05-05T09:07:06Z</time></trkpt><trkpt lat="31.144142067840612" lon="-6.203990893914437"><ele>1404.0</ele><time>2026-05-05T09:07:07Z</time></trkpt><trkpt lat="31.144065167024493" lon="-6.204023132140146"><ele>1404.0</ele><time>2026-05-05T09:07:08Z</time></trkpt><trkpt lat="31.143986949136128" lon="-6.204059081534675"><ele>1404.0</ele><time>2026-05-05T09:07:09Z</time></trkpt><trkpt lat="31.14390654817691" lon="-6.204102603598778"><ele>1404.0</ele><time>2026-05-05T09:07:10Z</time></trkpt><trkpt lat="31.143824259427294" lon="-6.204153411452452"><ele>1404.2</ele><time>2026-05-05T09:07:11Z</time></trkpt><trkpt lat="31.14372890011288" lon="-6.2042139141577"><ele>1404.4</ele><time>2026-05-05T09:07:12Z</time></trkpt><trkpt lat="31.143634570402227" lon="-6.204269961044801"><ele>1404.6</ele><time>2026-05-05T09:07:13Z</time></trkpt><trkpt lat="31.14354661501905" lon="-6.204322058541256"><ele>1404.8</ele><time>2026-05-05T09:07:14Z</time></trkpt><trkpt lat="31.143464115505104" lon="-6.204370533859365"><ele>1405.0</ele><time>2026-05-05T09:07:15Z</time></trkpt><trkpt lat="31.14338845702983" lon="-6.204418594069209"><ele>1405.0</ele><time>2026-05-05T09:07:16Z</time></trkpt><trkpt lat="31.14330523609914" lon="-6.204466993002019"><ele>1405.0</ele><time>2026-05-05T09:07:17Z</time></trkpt><trkpt lat="31.14322223179421" lon="-6.204505834057692"><ele>1405.0</ele><time>2026-05-05T09:07:18Z</time></trkpt><trkpt lat="31.143135884131627" lon="-6.204566896007132"><ele>1405.0</ele><time>2026-05-05T09:07:19Z</time></trkpt><trkpt lat="31.14305435560232" lon="-6.204629783446005"><ele>1405.0</ele><time>2026-05-05T09:07:20Z</time></trkpt><trkpt lat="31.142973943957283" lon="-6.20469504075534"><ele>1405.2</ele><time>2026-05-05T09:07:21Z</time></trkpt><trkpt lat="31.142905022268113" lon="-6.204781812515409"><ele>1405.4</ele><time>2026-05-05T09:07:21.999Z</time></trkpt><trkpt lat="31.14283508089515" lon="-6.204869502048592"><ele>1405.6</ele><time>2026-05-05T09:07:22.999Z</time></trkpt><trkpt lat="31.142764244606994" lon="-6.20496138908166"><ele>1405.8</ele><time>2026-05-05T09:07:23.999Z</time></trkpt><trkpt lat="31.142694048861287" lon="-6.205052528401254"><ele>1406.0</ele><time>2026-05-05T09:07:24.999Z</time></trkpt><trkpt lat="31.142626577106828" lon="-6.205141936010158"><ele>1406.0</ele><time>2026-05-05T09:07:25.999Z</time></trkpt><trkpt lat="31.142557173960267" lon="-6.205222065748593"><ele>1406.0</ele><time>2026-05-05T09:07:26.999Z</time></trkpt><trkpt lat="31.142490739984236" lon="-6.2052931605996875"><ele>1406.0</ele><time>2026-05-05T09:07:27.999Z</time></trkpt><trkpt lat="31.142410538182915" lon="-6.2053553031296405"><ele>1406.0</ele><time>2026-05-05T09:07:28.999Z</time></trkpt><trkpt lat="31.142332763615915" lon="-6.205418364605529"><ele>1406.0</ele><time>2026-05-05T09:07:29.999Z</time></trkpt><trkpt lat="31.14226427814847" lon="-6.205493926447762"><ele>1407.4</ele><time>2026-05-05T09:07:30.999Z</time></trkpt><trkpt lat="31.142177972625944" lon="-6.205543290307945"><ele>1408.8</ele><time>2026-05-05T09:07:31.999Z</time></trkpt><trkpt lat="31.14208325826997" lon="-6.205574568653387"><ele>1410.2</ele><time>2026-05-05T09:07:32.999Z</time></trkpt><trkpt lat="31.141989680621958" lon="-6.205588318160232"><ele>1411.6000000000001</ele><time>2026-05-05T09:07:33.999Z</time></trkpt><trkpt lat="31.141907285416256" lon="-6.205610389374034"><ele>1413.0</ele><time>2026-05-05T09:07:34.999Z</time></trkpt><trkpt lat="31.141833641843863" lon="-6.2056330928089265"><ele>1412.5</ele><time>2026-05-05T09:07:35.999Z</time></trkpt><trkpt lat="31.141771747579973" lon="-6.205665203710035"><ele>1412.0</ele><time>2026-05-05T09:07:36.999Z</time></trkpt><trkpt lat="31.14171859051632" lon="-6.205709178920048"><ele>1411.5</ele><time>2026-05-05T09:07:37.999Z</time></trkpt><trkpt lat="31.14166559732203" lon="-6.205764651615797"><ele>1411.0</ele><time>2026-05-05T09:07:38.999Z</time></trkpt><trkpt lat="31.141604445855698" lon="-6.205834907353696"><ele>1410.5</ele><time>2026-05-05T09:07:39.999Z</time></trkpt><trkpt lat="31.141525202061718" lon="-6.2058830839209635"><ele>1410.0</ele><time>2026-05-05T09:07:40.999Z</time></trkpt><trkpt lat="31.141450606914102" lon="-6.205952237143624"><ele>1410.0</ele><time>2026-05-05T09:07:41.999Z</time></trkpt><trkpt lat="31.141363536420265" lon="-6.20600764538327"><ele>1410.0</ele><time>2026-05-05T09:07:42.999Z</time></trkpt><trkpt lat="31.14127688135507" lon="-6.206064686864969"><ele>1410.0</ele><time>2026-05-05T09:07:43.999Z</time></trkpt><trkpt lat="31.141181079717402" lon="-6.206097659946985"><ele>1410.0</ele><time>2026-05-05T09:07:44.999Z</time></trkpt><trkpt lat="31.14108565650979" lon="-6.206145369896616"><ele>1410.0</ele><time>2026-05-05T09:07:45.999Z</time></trkpt><trkpt lat="31.14099528496218" lon="-6.206198062451829"><ele>1410.0</ele><time>2026-05-05T09:07:46.999Z</time></trkpt><trkpt lat="31.140901077848888" lon="-6.206233169660518"><ele>1410.0</ele><time>2026-05-05T09:07:47.999Z</time></trkpt><trkpt lat="31.140809418459085" lon="-6.206267350585973"><ele>1410.0</ele><time>2026-05-05T09:07:49Z</time></trkpt><trkpt lat="31.14071860243778" lon="-6.206281912107365"><ele>1410.0</ele><time>2026-05-05T09:07:50Z</time></trkpt><trkpt lat="31.140634472741702" lon="-6.2063286288766255"><ele>1410.0</ele><time>2026-05-05T09:07:51Z</time></trkpt><trkpt lat="31.140546656193383" lon="-6.206335880575307"><ele>1410.4</ele><time>2026-05-05T09:07:52Z</time></trkpt><trkpt lat="31.140465443225096" lon="-6.206331110514398"><ele>1410.8</ele><time>2026-05-05T09:07:53Z</time></trkpt><trkpt lat="31.140373592702034" lon="-6.20629826081649"><ele>1411.1999999999998</ele><time>2026-05-05T09:07:54Z</time></trkpt><trkpt lat="31.140287871866793" lon="-6.20624350613054"><ele>1411.6</ele><time>2026-05-05T09:07:55Z</time></trkpt><trkpt lat="31.140200090974947" lon="-6.206204362547659"><ele>1412.0</ele><time>2026-05-05T09:07:56Z</time></trkpt><trkpt lat="31.140112014661373" lon="-6.206162699889242"><ele>1412.0</ele><time>2026-05-05T09:07:57Z</time></trkpt><trkpt lat="31.140024795074286" lon="-6.206122093374509"><ele>1412.0</ele><time>2026-05-05T09:07:58Z</time></trkpt><trkpt lat="31.139936241243102" lon="-6.2060875236310515"><ele>1412.0</ele><time>2026-05-05T09:07:59Z</time></trkpt><trkpt lat="31.139856934339903" lon="-6.206009038723869"><ele>1412.0</ele><time>2026-05-05T09:08:00Z</time></trkpt><trkpt lat="31.139761268308348" lon="-6.205972980931672"><ele>1412.0</ele><time>2026-05-05T09:08:01Z</time></trkpt><trkpt lat="31.139664520136847" lon="-6.205927854420697"><ele>1412.6</ele><time>2026-05-05T09:08:02Z</time></trkpt><trkpt lat="31.139568170476064" lon="-6.205876840475617"><ele>1413.1999999999998</ele><time>2026-05-05T09:08:03Z</time></trkpt><trkpt lat="31.13946230639356" lon="-6.2058709778379155"><ele>1413.8</ele><time>2026-05-05T09:08:04Z</time></trkpt><trkpt lat="31.13937452334105" lon="-6.205844728627089"><ele>1414.4</ele><time>2026-05-05T09:08:05Z</time></trkpt><trkpt lat="31.13928183411436" lon="-6.20582225376253"><ele>1415.0</ele><time>2026-05-05T09:08:06Z</time></trkpt><trkpt lat="31.139192116262645" lon="-6.205811226676582"><ele>1415.0</ele><time>2026-05-05T09:08:07Z</time></trkpt><trkpt lat="31.13909947059228" lon="-6.205797785844527"><ele>1415.0</ele><time>2026-05-05T09:08:08Z</time></trkpt><trkpt lat="31.139000027868402" lon="-6.205781728281242"><ele>1415.0</ele><time>2026-05-05T09:08:09Z</time></trkpt><trkpt lat="31.138905632420883" lon="-6.205766324852752"><ele>1415.0</ele><time>2026-05-05T09:08:10Z</time></trkpt><trkpt lat="31.138801546928097" lon="-6.205749701741525"><ele>1415.0</ele><time>2026-05-05T09:08:11Z</time></trkpt><trkpt lat="31.138703324329565" lon="-6.205736339711075"><ele>1415.2</ele><time>2026-05-05T09:08:12Z</time></trkpt><trkpt lat="31.138612933967465" lon="-6.205729878666712"><ele>1415.4</ele><time>2026-05-05T09:08:13Z</time></trkpt><trkpt lat="31.138519839361958" lon="-6.205723224319192"><ele>1415.6</ele><time>2026-05-05T09:08:14Z</time></trkpt><trkpt lat="31.138428328790376" lon="-6.2057166831733745"><ele>1415.8</ele><time>2026-05-05T09:08:15Z</time></trkpt><trkpt lat="31.138330727659625" lon="-6.2057006809605015"><ele>1416.0</ele><time>2026-05-05T09:08:16Z</time></trkpt><trkpt lat="31.138231806314437" lon="-6.205659200035261"><ele>1416.1999999999998</ele><time>2026-05-05T09:08:17Z</time></trkpt><trkpt lat="31.13813380760406" lon="-6.205612558677716"><ele>1416.3999999999999</ele><time>2026-05-05T09:08:18Z</time></trkpt><trkpt lat="31.138042126769133" lon="-6.205566393451377"><ele>1416.6</ele><time>2026-05-05T09:08:19Z</time></trkpt><trkpt lat="31.137952599975794" lon="-6.205517887214995"><ele>1416.8</ele><time>2026-05-05T09:08:20Z</time></trkpt><trkpt lat="31.13786398553401" lon="-6.205470849821354"><ele>1417.0</ele><time>2026-05-05T09:08:21Z</time></trkpt><trkpt lat="31.137783316844295" lon="-6.205430382829986"><ele>1417.0</ele><time>2026-05-05T09:08:22Z</time></trkpt><trkpt lat="31.137716412829455" lon="-6.205402852200653"><ele>1417.0</ele><time>2026-05-05T09:08:23Z</time></trkpt><trkpt lat="31.1375946878569" lon="-6.2053948257286455"><ele>1417.0</ele><time>2026-05-05T09:08:25Z</time></trkpt><trkpt lat="31.137530089138053" lon="-6.20540466869907"><ele>1417.0</ele><time>2026-05-05T09:08:26Z</time></trkpt><trkpt lat="31.13745915884048" lon="-6.205430794844754"><ele>1417.0</ele><time>2026-05-05T09:08:27Z</time></trkpt><trkpt lat="31.137378983159746" lon="-6.205456469802901"><ele>1417.0</ele><time>2026-05-05T09:08:28Z</time></trkpt><trkpt lat="31.137293976486074" lon="-6.205482317441744"><ele>1416.6666666666665</ele><time>2026-05-05T09:08:29Z</time></trkpt><trkpt lat="31.13720685297495" lon="-6.205507064677008"><ele>1416.3333333333333</ele><time>2026-05-05T09:08:30Z</time></trkpt><trkpt lat="31.13712017856925" lon="-6.205525797509067"><ele>1416.0</ele><time>2026-05-05T09:08:31Z</time></trkpt><trkpt lat="31.137040428417087" lon="-6.2055405547336235"><ele>1415.6666666666667</ele><time>2026-05-05T09:08:32Z</time></trkpt><trkpt lat="31.13696171251597" lon="-6.205554982670433"><ele>1415.3333333333335</ele><time>2026-05-05T09:08:33Z</time></trkpt><trkpt lat="31.136882948940343" lon="-6.205567801159805"><ele>1415.0</ele><time>2026-05-05T09:08:34Z</time></trkpt><trkpt lat="31.136800787112158" lon="-6.205585252621866"><ele>1415.0</ele><time>2026-05-05T09:08:35Z</time></trkpt><trkpt lat="31.136729750063758" lon="-6.205605300288118"><ele>1415.0</ele><time>2026-05-05T09:08:36Z</time></trkpt><trkpt lat="31.13665953776659" lon="-6.2056395056748475"><ele>1415.0</ele><time>2026-05-05T09:08:37Z</time></trkpt><trkpt lat="31.13657617786061" lon="-6.205680822433901"><ele>1415.0</ele><time>2026-05-05T09:08:38Z</time></trkpt><trkpt lat="31.136494559381337" lon="-6.205732715571097"><ele>1415.0</ele><time>2026-05-05T09:08:39Z</time></trkpt><trkpt lat="31.136417004611804" lon="-6.205790469512324"><ele>1415.0</ele><time>2026-05-05T09:08:40Z</time></trkpt><trkpt lat="31.136346487335476" lon="-6.2058434569349545"><ele>1415.5</ele><time>2026-05-05T09:08:41Z</time></trkpt><trkpt lat="31.136280457622284" lon="-6.205892399655273"><ele>1416.0</ele><time>2026-05-05T09:08:42Z</time></trkpt><trkpt lat="31.13620708913387" lon="-6.205948471868452"><ele>1416.5</ele><time>2026-05-05T09:08:43Z</time></trkpt><trkpt lat="31.136132953219867" lon="-6.206011593811435"><ele>1417.0</ele><time>2026-05-05T09:08:44Z</time></trkpt><trkpt lat="31.136056751128653" lon="-6.206079556711217"><ele>1417.5</ele><time>2026-05-05T09:08:45Z</time></trkpt><trkpt lat="31.135982747866805" lon="-6.206145886748416"><ele>1418.0</ele><time>2026-05-05T09:08:46Z</time></trkpt><trkpt lat="31.135911505933073" lon="-6.206205835217451"><ele>1418.0</ele><time>2026-05-05T09:08:47Z</time></trkpt><trkpt lat="31.135840586576283" lon="-6.206247816515467"><ele>1418.0</ele><time>2026-05-05T09:08:48Z</time></trkpt><trkpt lat="31.13576364111124" lon="-6.206285975658045"><ele>1418.0</ele><time>2026-05-05T09:08:49Z</time></trkpt><trkpt lat="31.135667542290687" lon="-6.206328619702548"><ele>1418.0</ele><time>2026-05-05T09:08:50Z</time></trkpt><trkpt lat="31.135575007858385" lon="-6.206360491723803"><ele>1418.0</ele><time>2026-05-05T09:08:51Z</time></trkpt><trkpt lat="31.135475791606897" lon="-6.206384711997969"><ele>1419.2</ele><time>2026-05-05T09:08:52Z</time></trkpt><trkpt lat="31.13537858006133" lon="-6.206405021664655"><ele>1420.4</ele><time>2026-05-05T09:08:53Z</time></trkpt><trkpt lat="31.13528299986261" lon="-6.206409787099126"><ele>1421.6000000000001</ele><time>2026-05-05T09:08:54Z</time></trkpt><trkpt lat="31.13519792710181" lon="-6.206405494171641"><ele>1422.8000000000002</ele><time>2026-05-05T09:08:55Z</time></trkpt><trkpt lat="31.135112009260638" lon="-6.206401494171622"><ele>1424.0</ele><time>2026-05-05T09:08:56Z</time></trkpt><trkpt lat="31.13502377895267" lon="-6.20640853229184"><ele>1424.0</ele><time>2026-05-05T09:08:57Z</time></trkpt><trkpt lat="31.13493292160931" lon="-6.206436125842651"><ele>1424.0</ele><time>2026-05-05T09:08:58Z</time></trkpt><trkpt lat="31.134831080711233" lon="-6.206455560959893"><ele>1424.0</ele><time>2026-05-05T09:08:59Z</time></trkpt><trkpt lat="31.13473398921915" lon="-6.206470451618163"><ele>1424.0</ele><time>2026-05-05T09:09:00Z</time></trkpt><trkpt lat="31.13463235190141" lon="-6.206482553078555"><ele>1424.0</ele><time>2026-05-05T09:09:01Z</time></trkpt><trkpt lat="31.134538376595007" lon="-6.2064915531610225"><ele>1423.6666666666667</ele><time>2026-05-05T09:09:02Z</time></trkpt><trkpt lat="31.134447236659927" lon="-6.206494396651802"><ele>1423.3333333333335</ele><time>2026-05-05T09:09:03Z</time></trkpt><trkpt lat="31.134373895963748" lon="-6.206508997838014"><ele>1423.0</ele><time>2026-05-05T09:09:04Z</time></trkpt><trkpt lat="31.13429576982854" lon="-6.206538637933909"><ele>1422.6666666666667</ele><time>2026-05-05T09:09:05Z</time></trkpt><trkpt lat="31.13421053323931" lon="-6.2065702297011445"><ele>1422.3333333333333</ele><time>2026-05-05T09:09:06Z</time></trkpt><trkpt lat="31.13411262029928" lon="-6.206582337959856"><ele>1422.0</ele><time>2026-05-05T09:09:07Z</time></trkpt><trkpt lat="31.13403046535007" lon="-6.206573946469826"><ele>1421.5</ele><time>2026-05-05T09:09:08Z</time></trkpt><trkpt lat="31.13396045988392" lon="-6.206569079616084"><ele>1421.0</ele><time>2026-05-05T09:09:09Z</time></trkpt><trkpt lat="31.133897186241835" lon="-6.206564876435865"><ele>1420.5</ele><time>2026-05-05T09:09:10Z</time></trkpt><trkpt lat="31.133774304229906" lon="-6.206555204758833"><ele>1420.0</ele><time>2026-05-05T09:09:12Z</time></trkpt><trkpt lat="31.13365293902376" lon="-6.206536064572829"><ele>1419.5</ele><time>2026-05-05T09:09:14Z</time></trkpt><trkpt lat="31.13358963698506" lon="-6.206506742248408"><ele>1419.0</ele><time>2026-05-05T09:09:15Z</time></trkpt><trkpt lat="31.133526369726372" lon="-6.206450235221238"><ele>1418.6666666666667</ele><time>2026-05-05T09:09:16Z</time></trkpt><trkpt lat="31.133478192158513" lon="-6.206371555345531"><ele>1418.3333333333333</ele><time>2026-05-05T09:09:17Z</time></trkpt><trkpt lat="31.133431459103562" lon="-6.20629565032594"><ele>1418.0</ele><time>2026-05-05T09:09:18Z</time></trkpt><trkpt lat="31.133389017376373" lon="-6.206221850509026"><ele>1417.6666666666665</ele><time>2026-05-05T09:09:18.999Z</time></trkpt><trkpt lat="31.13334537508676" lon="-6.206139685347096"><ele>1417.3333333333333</ele><time>2026-05-05T09:09:19.999Z</time></trkpt><trkpt lat="31.13330812489893" lon="-6.206070380732968"><ele>1417.0</ele><time>2026-05-05T09:09:20.999Z</time></trkpt><trkpt lat="31.13326830970528" lon="-6.205996994249921"><ele>1417.0</ele><time>2026-05-05T09:09:21.999Z</time></trkpt><trkpt lat="31.13322795767335" lon="-6.205922618478973"><ele>1417.0</ele><time>2026-05-05T09:09:22.999Z</time></trkpt><trkpt lat="31.133191182460322" lon="-6.205848569282459"><ele>1417.0</ele><time>2026-05-05T09:09:23.999Z</time></trkpt><trkpt lat="31.133157329083" lon="-6.205779481496926"><ele>1417.0</ele><time>2026-05-05T09:09:24.999Z</time></trkpt><trkpt lat="31.133097666946906" lon="-6.205671219649837"><ele>1417.0</ele><time>2026-05-05T09:09:26.999Z</time></trkpt><trkpt lat="31.13302516024278" lon="-6.20564075345807"><ele>1417.0</ele><time>2026-05-05T09:09:28.999Z</time></trkpt><trkpt lat="31.13293603245118" lon="-6.205691122745199"><ele>1416.3333333333333</ele><time>2026-05-05T09:09:30.999Z</time></trkpt><trkpt lat="31.132900429628084" lon="-6.205753889390602"><ele>1415.6666666666665</ele><time>2026-05-05T09:09:31.999Z</time></trkpt><trkpt lat="31.13285387819718" lon="-6.205817607575201"><ele>1415.0</ele><time>2026-05-05T09:09:32.999Z</time></trkpt><trkpt lat="31.132795511557877" lon="-6.205889520771925"><ele>1414.3333333333333</ele><time>2026-05-05T09:09:33.999Z</time></trkpt><trkpt lat="31.132717916069705" lon="-6.205938788974434"><ele>1413.6666666666667</ele><time>2026-05-05T09:09:34.999Z</time></trkpt><trkpt lat="31.13265936274678" lon="-6.205998565152045"><ele>1413.0</ele><time>2026-05-05T09:09:35.999Z</time></trkpt><trkpt lat="31.1326041273763" lon="-6.2060423063480705"><ele>1413.0</ele><time>2026-05-05T09:09:36.999Z</time></trkpt><trkpt lat="31.132483032324945" lon="-6.206079594175682"><ele>1413.0</ele><time>2026-05-05T09:09:38.999Z</time></trkpt><trkpt lat="31.132412537626198" lon="-6.2060583919925945"><ele>1413.0</ele><time>2026-05-05T09:09:39.999Z</time></trkpt><trkpt lat="31.13234434272046" lon="-6.205990730747794"><ele>1413.0</ele><time>2026-05-05T09:09:40.999Z</time></trkpt><trkpt lat="31.132284659468034" lon="-6.20590695871388"><ele>1413.0</ele><time>2026-05-05T09:09:41.999Z</time></trkpt><trkpt lat="31.132233606000888" lon="-6.205820949302358"><ele>1414.0</ele><time>2026-05-05T09:09:42.999Z</time></trkpt><trkpt lat="31.13218166403502" lon="-6.205748226887174"><ele>1415.0</ele><time>2026-05-05T09:09:43.999Z</time></trkpt><trkpt lat="31.13212553488387" lon="-6.205700600273952"><ele>1416.0</ele><time>2026-05-05T09:09:44.999Z</time></trkpt><trkpt lat="31.13205329628471" lon="-6.205647834611248"><ele>1417.0</ele><time>2026-05-05T09:09:45.999Z</time></trkpt><trkpt lat="31.131980156020443" lon="-6.205608853840366"><ele>1418.0</ele><time>2026-05-05T09:09:46.999Z</time></trkpt><trkpt lat="31.131901648324735" lon="-6.205580456425484"><ele>1419.0</ele><time>2026-05-05T09:09:47.999Z</time></trkpt><trkpt lat="31.13182989797258" lon="-6.205590610424618"><ele>1419.2</ele><time>2026-05-05T09:09:48.999Z</time></trkpt><trkpt lat="31.131747017481032" lon="-6.205587846382745"><ele>1419.4</ele><time>2026-05-05T09:09:49.999Z</time></trkpt><trkpt lat="31.13165327673921" lon="-6.205575303867276"><ele>1419.6</ele><time>2026-05-05T09:09:50.999Z</time></trkpt><trkpt lat="31.131555614683492" lon="-6.205537004727634"><ele>1419.8</ele><time>2026-05-05T09:09:51.999Z</time></trkpt><trkpt lat="31.131469103132368" lon="-6.205506205195595"><ele>1420.0</ele><time>2026-05-05T09:09:52.999Z</time></trkpt><trkpt lat="31.131391494062985" lon="-6.205481999184353"><ele>1420.8333333333333</ele><time>2026-05-05T09:09:53.999Z</time></trkpt><trkpt lat="31.131305698815204" lon="-6.205457187715265"><ele>1421.6666666666665</ele><time>2026-05-05T09:09:55Z</time></trkpt><trkpt lat="31.13122903630245" lon="-6.205442283499306"><ele>1422.5</ele><time>2026-05-05T09:09:56Z</time></trkpt><trkpt lat="31.131151842094166" lon="-6.2054384931464535"><ele>1423.3333333333333</ele><time>2026-05-05T09:09:57Z</time></trkpt><trkpt lat="31.131082793705247" lon="-6.205455956486719"><ele>1424.1666666666667</ele><time>2026-05-05T09:09:58Z</time></trkpt><trkpt lat="31.131001636399642" lon="-6.205483906556464"><ele>1425.0</ele><time>2026-05-05T09:09:59Z</time></trkpt><trkpt lat="31.13091537371573" lon="-6.205513994931248"><ele>1425.0</ele><time>2026-05-05T09:10:00Z</time></trkpt><trkpt lat="31.130824825797983" lon="-6.2055426741920074"><ele>1425.0</ele><time>2026-05-05T09:10:01Z</time></trkpt><trkpt lat="31.130723050326075" lon="-6.205567509912677"><ele>1425.0</ele><time>2026-05-05T09:10:02Z</time></trkpt><trkpt lat="31.1306266492406" lon="-6.205587395325076"><ele>1425.0</ele><time>2026-05-05T09:10:03Z</time></trkpt><trkpt lat="31.130541463817377" lon="-6.2056103104430855"><ele>1425.0</ele><time>2026-05-05T09:10:04Z</time></trkpt><trkpt lat="31.130457449039515" lon="-6.205636648666968"><ele>1424.4</ele><time>2026-05-05T09:10:05Z</time></trkpt><trkpt lat="31.130366398733926" lon="-6.205670133278671"><ele>1423.8</ele><time>2026-05-05T09:10:06Z</time></trkpt><trkpt lat="31.130265743267447" lon="-6.205706174006461"><ele>1423.1999999999998</ele><time>2026-05-05T09:10:07Z</time></trkpt><trkpt lat="31.130167007762086" lon="-6.2057409447963146"><ele>1422.6</ele><time>2026-05-05T09:10:08Z</time></trkpt><trkpt lat="31.13007153787585" lon="-6.205774259824011"><ele>1422.0</ele><time>2026-05-05T09:10:09Z</time></trkpt><trkpt lat="31.12998340805473" lon="-6.205808595283238"><ele>1422.0</ele><time>2026-05-05T09:10:10Z</time></trkpt><trkpt lat="31.129899364964732" lon="-6.205849783645443"><ele>1422.0</ele><time>2026-05-05T09:10:11Z</time></trkpt><trkpt lat="31.129814495594687" lon="-6.205915496146446"><ele>1422.0</ele><time>2026-05-05T09:10:12Z</time></trkpt><trkpt lat="31.12973653414169" lon="-6.2059941124471125"><ele>1422.0</ele><time>2026-05-05T09:10:13Z</time></trkpt><trkpt lat="31.129661174483996" lon="-6.206084485604227"><ele>1422.0</ele><time>2026-05-05T09:10:14Z</time></trkpt><trkpt lat="31.129588862167093" lon="-6.206170449228375"><ele>1422.1999999999998</ele><time>2026-05-05T09:10:15Z</time></trkpt><trkpt lat="31.12951486005409" lon="-6.2062558015781395"><ele>1422.4</ele><time>2026-05-05T09:10:16Z</time></trkpt><trkpt lat="31.1294487019189" lon="-6.206336118159095"><ele>1422.6</ele><time>2026-05-05T09:10:17Z</time></trkpt><trkpt lat="31.12938202654864" lon="-6.206424379476084"><ele>1422.8000000000002</ele><time>2026-05-05T09:10:18Z</time></trkpt><trkpt lat="31.1293108248635" lon="-6.206504916024702"><ele>1423.0</ele><time>2026-05-05T09:10:19Z</time></trkpt><trkpt lat="31.129235512374287" lon="-6.206571929309725"><ele>1423.8000000000002</ele><time>2026-05-05T09:10:20Z</time></trkpt><trkpt lat="31.129138334197567" lon="-6.206620841563586"><ele>1424.6</ele><time>2026-05-05T09:10:21Z</time></trkpt><trkpt lat="31.129038521503034" lon="-6.206646847109027"><ele>1425.4</ele><time>2026-05-05T09:10:22Z</time></trkpt><trkpt lat="31.128932122323707" lon="-6.206667226423768"><ele>1426.1999999999998</ele><time>2026-05-05T09:10:23Z</time></trkpt><trkpt lat="31.128822269003198" lon="-6.206684351335204"><ele>1427.0</ele><time>2026-05-05T09:10:24Z</time></trkpt><trkpt lat="31.12872226346204" lon="-6.206699412709942"><ele>1427.0</ele><time>2026-05-05T09:10:25Z</time></trkpt><trkpt lat="31.128632131030155" lon="-6.2067134604571095"><ele>1427.0</ele><time>2026-05-05T09:10:26Z</time></trkpt><trkpt lat="31.12854588316922" lon="-6.206722955090195"><ele>1427.0</ele><time>2026-05-05T09:10:27Z</time></trkpt><trkpt lat="31.128454659611748" lon="-6.206731538046423"><ele>1427.0</ele><time>2026-05-05T09:10:28Z</time></trkpt><trkpt lat="31.12835550878785" lon="-6.206731848530263"><ele>1427.0</ele><time>2026-05-05T09:10:29Z</time></trkpt><trkpt lat="31.12826242170613" lon="-6.206737820708548"><ele>1425.8333333333335</ele><time>2026-05-05T09:10:30Z</time></trkpt><trkpt lat="31.128179792890343" lon="-6.206755654822433"><ele>1424.6666666666667</ele><time>2026-05-05T09:10:31Z</time></trkpt><trkpt lat="31.128098806766644" lon="-6.206776398535612"><ele>1423.5</ele><time>2026-05-05T09:10:32Z</time></trkpt><trkpt lat="31.128012054809112" lon="-6.206790510193672"><ele>1422.3333333333333</ele><time>2026-05-05T09:10:33Z</time></trkpt><trkpt lat="31.12793705410574" lon="-6.2068245771242445"><ele>1421.1666666666665</ele><time>2026-05-05T09:10:34Z</time></trkpt><trkpt lat="31.12785719931468" lon="-6.206862525091976"><ele>1420.0</ele><time>2026-05-05T09:10:35Z</time></trkpt><trkpt lat="31.127781864138974" lon="-6.206899312488281"><ele>1420.0</ele><time>2026-05-05T09:10:36Z</time></trkpt><trkpt lat="31.127706707047043" lon="-6.206940629924413"><ele>1420.0</ele><time>2026-05-05T09:10:37Z</time></trkpt><trkpt lat="31.127646783914926" lon="-6.206995848308167"><ele>1420.0</ele><time>2026-05-05T09:10:38Z</time></trkpt><trkpt lat="31.127589604397656" lon="-6.207061447850354"><ele>1420.0</ele><time>2026-05-05T09:10:39Z</time></trkpt><trkpt lat="31.12754298538305" lon="-6.2071358538546475"><ele>1420.0</ele><time>2026-05-05T09:10:40Z</time></trkpt><trkpt lat="31.12749955230253" lon="-6.207213759248313"><ele>1420.0</ele><time>2026-05-05T09:10:41Z</time></trkpt><trkpt lat="31.127466831465654" lon="-6.20729406885823"><ele>1419.3333333333333</ele><time>2026-05-05T09:10:42Z</time></trkpt><trkpt lat="31.12743116058895" lon="-6.207376574646586"><ele>1418.6666666666665</ele><time>2026-05-05T09:10:43Z</time></trkpt><trkpt lat="31.127407388905425" lon="-6.207458506979566"><ele>1418.0</ele><time>2026-05-05T09:10:44Z</time></trkpt><trkpt lat="31.12738377200979" lon="-6.2075309555094655"><ele>1417.3333333333333</ele><time>2026-05-05T09:10:45Z</time></trkpt><trkpt lat="31.1273458703185" lon="-6.207603733851741"><ele>1416.6666666666667</ele><time>2026-05-05T09:10:46Z</time></trkpt><trkpt lat="31.12729250268785" lon="-6.207657450233937"><ele>1416.0</ele><time>2026-05-05T09:10:47Z</time></trkpt><trkpt lat="31.12718375693429" lon="-6.207688035107703"><ele>1416.0</ele><time>2026-05-05T09:10:49Z</time></trkpt><trkpt lat="31.12711938002813" lon="-6.207660063729439"><ele>1416.0</ele><time>2026-05-05T09:10:50Z</time></trkpt><trkpt lat="31.12706697162703" lon="-6.2076042289801485"><ele>1416.0</ele><time>2026-05-05T09:10:51Z</time></trkpt><trkpt lat="31.127033797090927" lon="-6.207522333841533"><ele>1416.0</ele><time>2026-05-05T09:10:52Z</time></trkpt><trkpt lat="31.127008545696977" lon="-6.207428134780828"><ele>1416.0</ele><time>2026-05-05T09:10:53Z</time></trkpt><trkpt lat="31.12697326263915" lon="-6.207336874959016"><ele>1416.0</ele><time>2026-05-05T09:10:54Z</time></trkpt><trkpt lat="31.126917813120098" lon="-6.207250833459877"><ele>1416.0</ele><time>2026-05-05T09:10:55Z</time></trkpt><trkpt lat="31.126852983885367" lon="-6.207171435764215"><ele>1416.0</ele><time>2026-05-05T09:10:56Z</time></trkpt><trkpt lat="31.126789709678654" lon="-6.207095818799614"><ele>1416.0</ele><time>2026-05-05T09:10:57Z</time></trkpt><trkpt lat="31.126725524493693" lon="-6.2070138683889615"><ele>1416.0</ele><time>2026-05-05T09:10:58Z</time></trkpt><trkpt lat="31.126659137528105" lon="-6.206943095397374"><ele>1416.0</ele><time>2026-05-05T09:10:59Z</time></trkpt><trkpt lat="31.126577081687433" lon="-6.206880057550536"><ele>1417.1999999999998</ele><time>2026-05-05T09:11:00Z</time></trkpt><trkpt lat="31.126495523361932" lon="-6.20682246401912"><ele>1418.3999999999999</ele><time>2026-05-05T09:11:01Z</time></trkpt><trkpt lat="31.12641602911381" lon="-6.206751024855777"><ele>1419.6</ele><time>2026-05-05T09:11:02Z</time></trkpt><trkpt lat="31.126357328827634" lon="-6.206676180684752"><ele>1420.8</ele><time>2026-05-05T09:11:03Z</time></trkpt><trkpt lat="31.126303559326548" lon="-6.206593661196856"><ele>1422.0</ele><time>2026-05-05T09:11:04Z</time></trkpt><trkpt lat="31.12624866736043" lon="-6.206513273387414"><ele>1421.3999999999999</ele><time>2026-05-05T09:11:05Z</time></trkpt><trkpt lat="31.12619267579495" lon="-6.206433657568365"><ele>1420.8</ele><time>2026-05-05T09:11:06Z</time></trkpt><trkpt lat="31.126133106107673" lon="-6.206353270567028"><ele>1420.2</ele><time>2026-05-05T09:11:07Z</time></trkpt><trkpt lat="31.12606746105832" lon="-6.206275570927146"><ele>1419.6</ele><time>2026-05-05T09:11:08Z</time></trkpt><trkpt lat="31.125998641712357" lon="-6.206203242284718"><ele>1419.0</ele><time>2026-05-05T09:11:09Z</time></trkpt><trkpt lat="31.125928785300754" lon="-6.206135089872218"><ele>1419.0</ele><time>2026-05-05T09:11:10Z</time></trkpt><trkpt lat="31.125861046378798" lon="-6.206053671481527"><ele>1419.0</ele><time>2026-05-05T09:11:11Z</time></trkpt><trkpt lat="31.12578798573206" lon="-6.20598571149702"><ele>1419.0</ele><time>2026-05-05T09:11:12Z</time></trkpt><trkpt lat="31.125696354671486" lon="-6.205937455424575"><ele>1419.0</ele><time>2026-05-05T09:11:13Z</time></trkpt><trkpt lat="31.125603585873538" lon="-6.205890887438363"><ele>1419.0</ele><time>2026-05-05T09:11:14Z</time></trkpt><trkpt lat="31.12550937171517" lon="-6.205833426151312"><ele>1419.0</ele><time>2026-05-05T09:11:15Z</time></trkpt><trkpt lat="31.125424105454968" lon="-6.205774492618115"><ele>1419.0</ele><time>2026-05-05T09:11:16Z</time></trkpt><trkpt lat="31.125335755647846" lon="-6.205725602340081"><ele>1419.0</ele><time>2026-05-05T09:11:17Z</time></trkpt><trkpt lat="31.1252465682539" lon="-6.205697114604157"><ele>1419.0</ele><time>2026-05-05T09:11:18Z</time></trkpt><trkpt lat="31.125161200127227" lon="-6.205663544023658"><ele>1419.0</ele><time>2026-05-05T09:11:19Z</time></trkpt><trkpt lat="31.1250804702813" lon="-6.20561951284846"><ele>1420.0</ele><time>2026-05-05T09:11:20Z</time></trkpt><trkpt lat="31.1249972300906" lon="-6.205574622199809"><ele>1421.0</ele><time>2026-05-05T09:11:21Z</time></trkpt><trkpt lat="31.12491063442682" lon="-6.205541991811046"><ele>1422.0</ele><time>2026-05-05T09:11:22Z</time></trkpt><trkpt lat="31.124826285481472" lon="-6.2055112643771535"><ele>1423.0</ele><time>2026-05-05T09:11:23Z</time></trkpt><trkpt lat="31.124749663285655" lon="-6.205486341189406"><ele>1424.0</ele><time>2026-05-05T09:11:24Z</time></trkpt><trkpt lat="31.124682496302302" lon="-6.2054595903635255"><ele>1425.0</ele><time>2026-05-05T09:11:25Z</time></trkpt><trkpt lat="31.12462115281106" lon="-6.205409803082641"><ele>1425.0</ele><time>2026-05-05T09:11:25.999Z</time></trkpt><trkpt lat="31.12457582988547" lon="-6.205331600155055"><ele>1425.0</ele><time>2026-05-05T09:11:26.999Z</time></trkpt><trkpt lat="31.124531096049278" lon="-6.205239119428526"><ele>1425.0</ele><time>2026-05-05T09:11:27.999Z</time></trkpt><trkpt lat="31.124481379426708" lon="-6.205144604774549"><ele>1425.0</ele><time>2026-05-05T09:11:28.999Z</time></trkpt><trkpt lat="31.1244301411712" lon="-6.205052032558699"><ele>1425.0</ele><time>2026-05-05T09:11:29.999Z</time></trkpt><trkpt lat="31.124386406736694" lon="-6.204966862316135"><ele>1425.0</ele><time>2026-05-05T09:11:30.999Z</time></trkpt><trkpt lat="31.124337255256144" lon="-6.204878216996093"><ele>1425.8</ele><time>2026-05-05T09:11:31.999Z</time></trkpt><trkpt lat="31.124286503737164" lon="-6.2047856747825065"><ele>1426.6</ele><time>2026-05-05T09:11:32.999Z</time></trkpt><trkpt lat="31.124235103033357" lon="-6.204690500540055"><ele>1427.4</ele><time>2026-05-05T09:11:33.999Z</time></trkpt><trkpt lat="31.1241847046763" lon="-6.204590699592059"><ele>1428.2</ele><time>2026-05-05T09:11:34.999Z</time></trkpt><trkpt lat="31.124132013443266" lon="-6.204490034874132"><ele>1429.0</ele><time>2026-05-05T09:11:35.999Z</time></trkpt><trkpt lat="31.124072970203784" lon="-6.2043857112670215"><ele>1429.0</ele><time>2026-05-05T09:11:36.999Z</time></trkpt><trkpt lat="31.124005916333015" lon="-6.204284603871205"><ele>1429.0</ele><time>2026-05-05T09:11:37.999Z</time></trkpt><trkpt lat="31.12393205716024" lon="-6.204199347835744"><ele>1429.0</ele><time>2026-05-05T09:11:38.999Z</time></trkpt><trkpt lat="31.123856823459683" lon="-6.204128263658045"><ele>1429.0</ele><time>2026-05-05T09:11:39.999Z</time></trkpt><trkpt lat="31.123774893614964" lon="-6.204079215495839"><ele>1429.0</ele><time>2026-05-05T09:11:40.999Z</time></trkpt><trkpt lat="31.12368723303333" lon="-6.204041074876107"><ele>1429.0</ele><time>2026-05-05T09:11:41.999Z</time></trkpt><trkpt lat="31.1235926989193" lon="-6.204005073830626"><ele>1429.0</ele><time>2026-05-05T09:11:42.999Z</time></trkpt><trkpt lat="31.123491790583273" lon="-6.203973020922005"><ele>1429.0</ele><time>2026-05-05T09:11:43.999Z</time></trkpt><trkpt lat="31.123392156764815" lon="-6.203937675559825"><ele>1429.0</ele><time>2026-05-05T09:11:44.999Z</time></trkpt><trkpt lat="31.12329491376326" lon="-6.203893804534595"><ele>1429.0</ele><time>2026-05-05T09:11:45.999Z</time></trkpt><trkpt lat="31.12320053500918" lon="-6.203846589374876"><ele>1430.6</ele><time>2026-05-05T09:11:46.999Z</time></trkpt><trkpt lat="31.12310776619019" lon="-6.203804622659325"><ele>1432.2</ele><time>2026-05-05T09:11:47.999Z</time></trkpt><trkpt lat="31.123021248560274" lon="-6.203768782933231"><ele>1433.8</ele><time>2026-05-05T09:11:48.999Z</time></trkpt><trkpt lat="31.122928513730628" lon="-6.203736852234636"><ele>1435.3999999999999</ele><time>2026-05-05T09:11:49.999Z</time></trkpt><trkpt lat="31.122828426248997" lon="-6.203700520150729"><ele>1437.0</ele><time>2026-05-05T09:11:50.999Z</time></trkpt><trkpt lat="31.12273153755439" lon="-6.203657194816487"><ele>1437.0</ele><time>2026-05-05T09:11:51.999Z</time></trkpt><trkpt lat="31.1226319231358" lon="-6.203606575324295"><ele>1437.0</ele><time>2026-05-05T09:11:52.999Z</time></trkpt><trkpt lat="31.12254074231171" lon="-6.203574776384686"><ele>1437.0</ele><time>2026-05-05T09:11:53.999Z</time></trkpt><trkpt lat="31.1224429328872" lon="-6.203568441824528"><ele>1437.0</ele><time>2026-05-05T09:11:54.999Z</time></trkpt><trkpt lat="31.122333926834212" lon="-6.203587122827097"><ele>1437.0</ele><time>2026-05-05T09:11:55.999Z</time></trkpt><trkpt lat="31.12221837452017" lon="-6.203608517657218"><ele>1437.3999999999999</ele><time>2026-05-05T09:11:56.999Z</time></trkpt><trkpt lat="31.122116214848937" lon="-6.203624603135645"><ele>1437.8</ele><time>2026-05-05T09:11:57.999Z</time></trkpt><trkpt lat="31.12202845376119" lon="-6.203633492888211"><ele>1438.2</ele><time>2026-05-05T09:11:58.999Z</time></trkpt><trkpt lat="31.121945959711567" lon="-6.203636989994124"><ele>1438.6</ele><time>2026-05-05T09:11:59.999Z</time></trkpt><trkpt lat="31.12186257315231" lon="-6.203618018375187"><ele>1439.0</ele><time>2026-05-05T09:12:01Z</time></trkpt><trkpt lat="31.12177936125297" lon="-6.203566450468068"><ele>1439.0</ele><time>2026-05-05T09:12:02Z</time></trkpt><trkpt lat="31.12169162348249" lon="-6.2035031276241055"><ele>1439.0</ele><time>2026-05-05T09:12:03Z</time></trkpt><trkpt lat="31.12159801614407" lon="-6.203443357083297"><ele>1439.0</ele><time>2026-05-05T09:12:04Z</time></trkpt><trkpt lat="31.12151015389449" lon="-6.203386624634893"><ele>1439.0</ele><time>2026-05-05T09:12:05Z</time></trkpt><trkpt lat="31.121425636456685" lon="-6.203329732859864"><ele>1439.0</ele><time>2026-05-05T09:12:06Z</time></trkpt><trkpt lat="31.12133785154963" lon="-6.203281165182556"><ele>1438.6</ele><time>2026-05-05T09:12:07Z</time></trkpt><trkpt lat="31.121257101851842" lon="-6.203231782085421"><ele>1438.2</ele><time>2026-05-05T09:12:08Z</time></trkpt><trkpt lat="31.121181119385312" lon="-6.203166927018898"><ele>1437.8</ele><time>2026-05-05T09:12:09Z</time></trkpt><trkpt lat="31.121101564045333" lon="-6.203108133626215"><ele>1437.3999999999999</ele><time>2026-05-05T09:12:10Z</time></trkpt><trkpt lat="31.12101628741557" lon="-6.203059519778248"><ele>1437.0</ele><time>2026-05-05T09:12:11Z</time></trkpt><trkpt lat="31.120924727746406" lon="-6.20302391225854"><ele>1437.0</ele><time>2026-05-05T09:12:12Z</time></trkpt><trkpt lat="31.120826746050913" lon="-6.203003831940314"><ele>1437.0</ele><time>2026-05-05T09:12:13Z</time></trkpt><trkpt lat="31.120730817618014" lon="-6.202996248348883"><ele>1437.0</ele><time>2026-05-05T09:12:14Z</time></trkpt><trkpt lat="31.120637179981422" lon="-6.203001446546697"><ele>1437.0</ele><time>2026-05-05T09:12:15Z</time></trkpt><trkpt lat="31.12054776579421" lon="-6.203002305383266"><ele>1437.0</ele><time>2026-05-05T09:12:16Z</time></trkpt><trkpt lat="31.120454876374325" lon="-6.203014019660422"><ele>1436.8333333333333</ele><time>2026-05-05T09:12:17Z</time></trkpt><trkpt lat="31.120368477738385" lon="-6.203039452472782"><ele>1436.6666666666667</ele><time>2026-05-05T09:12:18Z</time></trkpt><trkpt lat="31.12028419852015" lon="-6.20307348353751"><ele>1436.5</ele><time>2026-05-05T09:12:19Z</time></trkpt><trkpt lat="31.120203711766244" lon="-6.203117381581092"><ele>1436.3333333333335</ele><time>2026-05-05T09:12:20Z</time></trkpt><trkpt lat="31.12013251393263" lon="-6.203169505102364"><ele>1436.1666666666667</ele><time>2026-05-05T09:12:21Z</time></trkpt><trkpt lat="31.120059852376105" lon="-6.203242189547236"><ele>1436.0</ele><time>2026-05-05T09:12:22Z</time></trkpt><trkpt lat="31.11998407081935" lon="-6.20333310916551"><ele>1438.4</ele><time>2026-05-05T09:12:23Z</time></trkpt><trkpt lat="31.119897193106592" lon="-6.203415372967335"><ele>1440.8</ele><time>2026-05-05T09:12:24Z</time></trkpt><trkpt lat="31.11979811288123" lon="-6.203486961244504"><ele>1443.2</ele><time>2026-05-05T09:12:25Z</time></trkpt><trkpt lat="31.11970496193513" lon="-6.203551845120768"><ele>1445.6000000000001</ele><time>2026-05-05T09:12:26Z</time></trkpt><trkpt lat="31.119619794774774" lon="-6.2036142884467536"><ele>1448.0</ele><time>2026-05-05T09:12:27Z</time></trkpt><trkpt lat="31.119522974760628" lon="-6.203672573661177"><ele>1448.0</ele><time>2026-05-05T09:12:28Z</time></trkpt><trkpt lat="31.119431267073033" lon="-6.203728198671585"><ele>1448.0</ele><time>2026-05-05T09:12:29Z</time></trkpt><trkpt lat="31.11934190971514" lon="-6.203799143834512"><ele>1448.0</ele><time>2026-05-05T09:12:30Z</time></trkpt><trkpt lat="31.11926380611674" lon="-6.203878252667629"><ele>1448.0</ele><time>2026-05-05T09:12:31Z</time></trkpt><trkpt lat="31.119185779738" lon="-6.203951412766837"><ele>1448.0</ele><time>2026-05-05T09:12:32Z</time></trkpt><trkpt lat="31.119103691377997" lon="-6.204011068045093"><ele>1448.0</ele><time>2026-05-05T09:12:33Z</time></trkpt><trkpt lat="31.119025043356714" lon="-6.204076591691767"><ele>1448.0</ele><time>2026-05-05T09:12:34Z</time></trkpt><trkpt lat="31.118945019610702" lon="-6.204136940212956"><ele>1448.0</ele><time>2026-05-05T09:12:35Z</time></trkpt><trkpt lat="31.11885512970473" lon="-6.204175173342253"><ele>1448.0</ele><time>2026-05-05T09:12:36Z</time></trkpt><trkpt lat="31.118757049591565" lon="-6.20419971395535"><ele>1448.0</ele><time>2026-05-05T09:12:37Z</time></trkpt><trkpt lat="31.11864681557493" lon="-6.2042123824048145"><ele>1448.0</ele><time>2026-05-05T09:12:38Z</time></trkpt><trkpt lat="31.118523850199736" lon="-6.204220278479374"><ele>1448.0</ele><time>2026-05-05T09:12:39Z</time></trkpt><trkpt lat="31.118418754625626" lon="-6.20422532206799"><ele>1448.0</ele><time>2026-05-05T09:12:40Z</time></trkpt><trkpt lat="31.118326256396497" lon="-6.204234585455569"><ele>1448.0</ele><time>2026-05-05T09:12:41Z</time></trkpt><trkpt lat="31.118237155314002" lon="-6.204269770144605"><ele>1448.0</ele><time>2026-05-05T09:12:42Z</time></trkpt><trkpt lat="31.118150258389463" lon="-6.204325148680781"><ele>1448.6000000000001</ele><time>2026-05-05T09:12:43Z</time></trkpt><trkpt lat="31.118064372857777" lon="-6.204364664979625"><ele>1449.2</ele><time>2026-05-05T09:12:44Z</time></trkpt><trkpt lat="31.117975774586327" lon="-6.20439262013893"><ele>1449.8</ele><time>2026-05-05T09:12:45Z</time></trkpt><trkpt lat="31.11788753346998" lon="-6.204406256986371"><ele>1450.4</ele><time>2026-05-05T09:12:46Z</time></trkpt><trkpt lat="31.11779279977744" lon="-6.204396199936089"><ele>1451.0</ele><time>2026-05-05T09:12:47Z</time></trkpt><trkpt lat="31.117696918366097" lon="-6.2043836359463835"><ele>1451.0</ele><time>2026-05-05T09:12:48Z</time></trkpt><trkpt lat="31.117602288946976" lon="-6.20437864371347"><ele>1451.0</ele><time>2026-05-05T09:12:49Z</time></trkpt><trkpt lat="31.117516257020323" lon="-6.204370816299198"><ele>1451.0</ele><time>2026-05-05T09:12:50Z</time></trkpt><trkpt lat="31.11743165834833" lon="-6.204349802055409"><ele>1451.0</ele><time>2026-05-05T09:12:51Z</time></trkpt><trkpt lat="31.117347706202636" lon="-6.2043253517558385"><ele>1451.0</ele><time>2026-05-05T09:12:52Z</time></trkpt><trkpt lat="31.11727986947602" lon="-6.204290627728888"><ele>1451.0</ele><time>2026-05-05T09:12:53Z</time></trkpt><trkpt lat="31.117203543526156" lon="-6.204250370465327"><ele>1451.1999999999998</ele><time>2026-05-05T09:12:54Z</time></trkpt><trkpt lat="31.11711830626142" lon="-6.204208971694288"><ele>1451.3999999999999</ele><time>2026-05-05T09:12:55Z</time></trkpt><trkpt lat="31.117031319702292" lon="-6.204168553904903"><ele>1451.6</ele><time>2026-05-05T09:12:56Z</time></trkpt><trkpt lat="31.116940916090652" lon="-6.204119237954592"><ele>1451.8</ele><time>2026-05-05T09:12:57Z</time></trkpt><trkpt lat="31.116860173851236" lon="-6.204057314471227"><ele>1452.0</ele><time>2026-05-05T09:12:58Z</time></trkpt><trkpt lat="31.11678115529123" lon="-6.203996677641939"><ele>1452.0</ele><time>2026-05-05T09:12:59Z</time></trkpt><trkpt lat="31.116709584218018" lon="-6.203940006696104"><ele>1452.0</ele><time>2026-05-05T09:13:00Z</time></trkpt><trkpt lat="31.116648963024378" lon="-6.203891543244241"><ele>1452.0</ele><time>2026-05-05T09:13:01Z</time></trkpt><trkpt lat="31.116581390727152" lon="-6.203853508351489"><ele>1452.0</ele><time>2026-05-05T09:13:02Z</time></trkpt><trkpt lat="31.11650749073234" lon="-6.203838490222733"><ele>1452.0</ele><time>2026-05-05T09:13:03Z</time></trkpt><trkpt lat="31.116420697973147" lon="-6.203835205781452"><ele>1452.0</ele><time>2026-05-05T09:13:04Z</time></trkpt><trkpt lat="31.116322641739128" lon="-6.20384917711081"><ele>1451.6</ele><time>2026-05-05T09:13:05Z</time></trkpt><trkpt lat="31.116220719624916" lon="-6.203860228105696"><ele>1451.1999999999998</ele><time>2026-05-05T09:13:06Z</time></trkpt><trkpt lat="31.11611846980575" lon="-6.203873261461185"><ele>1450.8</ele><time>2026-05-05T09:13:07Z</time></trkpt><trkpt lat="31.116017719298064" lon="-6.203889468689118"><ele>1450.4</ele><time>2026-05-05T09:13:08Z</time></trkpt><trkpt lat="31.11591808944368" lon="-6.203904418111284"><ele>1450.0</ele><time>2026-05-05T09:13:09Z</time></trkpt><trkpt lat="31.115815771753557" lon="-6.203928677403569"><ele>1450.0</ele><time>2026-05-05T09:13:10Z</time></trkpt><trkpt lat="31.11571301934424" lon="-6.203945851482768"><ele>1450.0</ele><time>2026-05-05T09:13:11Z</time></trkpt><trkpt lat="31.11560704109437" lon="-6.203946192014436"><ele>1450.0</ele><time>2026-05-05T09:13:12Z</time></trkpt><trkpt lat="31.115502624144167" lon="-6.2039304306754905"><ele>1450.0</ele><time>2026-05-05T09:13:13Z</time></trkpt><trkpt lat="31.11540250927773" lon="-6.20390271065783"><ele>1450.0</ele><time>2026-05-05T09:13:14Z</time></trkpt><trkpt lat="31.115303889066997" lon="-6.203853767518647"><ele>1450.0</ele><time>2026-05-05T09:13:15Z</time></trkpt><trkpt lat="31.115224105678745" lon="-6.203801486831312"><ele>1450.0</ele><time>2026-05-05T09:13:16Z</time></trkpt><trkpt lat="31.115135730847214" lon="-6.203769657291249"><ele>1450.0</ele><time>2026-05-05T09:13:17Z</time></trkpt><trkpt lat="31.115027698814092" lon="-6.203750357510166"><ele>1450.0</ele><time>2026-05-05T09:13:18Z</time></trkpt><trkpt lat="31.114908007869197" lon="-6.203736637423442"><ele>1450.0</ele><time>2026-05-05T09:13:19Z</time></trkpt><trkpt lat="31.11479466759127" lon="-6.203715751202115"><ele>1449.8</ele><time>2026-05-05T09:13:20Z</time></trkpt><trkpt lat="31.114686295712506" lon="-6.203667312564802"><ele>1449.6</ele><time>2026-05-05T09:13:21Z</time></trkpt><trkpt lat="31.114583537244847" lon="-6.203617346017044"><ele>1449.4</ele><time>2026-05-05T09:13:22Z</time></trkpt><trkpt lat="31.114484994821737" lon="-6.203589912033372"><ele>1449.2</ele><time>2026-05-05T09:13:23Z</time></trkpt><trkpt lat="31.114391985829055" lon="-6.203582729231257"><ele>1449.0</ele><time>2026-05-05T09:13:24Z</time></trkpt><trkpt lat="31.114305278829455" lon="-6.203575971053604"><ele>1449.0</ele><time>2026-05-05T09:13:24.999Z</time></trkpt><trkpt lat="31.114220537714107" lon="-6.203550330077402"><ele>1449.0</ele><time>2026-05-05T09:13:25.999Z</time></trkpt><trkpt lat="31.11413864944674" lon="-6.20350581387024"><ele>1449.0</ele><time>2026-05-05T09:13:26.999Z</time></trkpt><trkpt lat="31.11405246666766" lon="-6.203438987133011"><ele>1449.0</ele><time>2026-05-05T09:13:27.999Z</time></trkpt><trkpt lat="31.113964159918474" lon="-6.203354232567445"><ele>1449.0</ele><time>2026-05-05T09:13:28.999Z</time></trkpt><trkpt lat="31.113869775151432" lon="-6.2032678107306"><ele>1449.4</ele><time>2026-05-05T09:13:29.999Z</time></trkpt><trkpt lat="31.113773245816255" lon="-6.203207903791866"><ele>1449.8000000000002</ele><time>2026-05-05T09:13:30.999Z</time></trkpt><trkpt lat="31.11367297486972" lon="-6.203154671643488"><ele>1450.1999999999998</ele><time>2026-05-05T09:13:31.999Z</time></trkpt><trkpt lat="31.11357822367268" lon="-6.203087389953328"><ele>1450.6</ele><time>2026-05-05T09:13:32.999Z</time></trkpt><trkpt lat="31.113482401020907" lon="-6.203008092604927"><ele>1451.0</ele><time>2026-05-05T09:13:33.999Z</time></trkpt><trkpt lat="31.113394682856374" lon="-6.202923921232203"><ele>1451.4</ele><time>2026-05-05T09:13:34.999Z</time></trkpt><trkpt lat="31.11329824715975" lon="-6.202840852999296"><ele>1451.8</ele><time>2026-05-05T09:13:35.999Z</time></trkpt><trkpt lat="31.113201502430375" lon="-6.202756966518044"><ele>1452.2</ele><time>2026-05-05T09:13:36.999Z</time></trkpt><trkpt lat="31.11312172648569" lon="-6.202679255691337"><ele>1452.6000000000001</ele><time>2026-05-05T09:13:37.999Z</time></trkpt><trkpt lat="31.113045633203672" lon="-6.202603364771182"><ele>1453.0</ele><time>2026-05-05T09:13:38.999Z</time></trkpt><trkpt lat="31.11296600503059" lon="-6.2025246212420955"><ele>1453.0</ele><time>2026-05-05T09:13:39.999Z</time></trkpt><trkpt lat="31.112888297186842" lon="-6.202451909944445"><ele>1453.0</ele><time>2026-05-05T09:13:40.999Z</time></trkpt><trkpt lat="31.112804288713438" lon="-6.202390521432094"><ele>1453.0</ele><time>2026-05-05T09:13:41.999Z</time></trkpt><trkpt lat="31.112711750527872" lon="-6.202349640748066"><ele>1453.0</ele><time>2026-05-05T09:13:42.999Z</time></trkpt><trkpt lat="31.112613165869185" lon="-6.202328101961304"><ele>1453.0</ele><time>2026-05-05T09:13:43.999Z</time></trkpt><trkpt lat="31.11251796110964" lon="-6.202320501238567"><ele>1453.6666666666665</ele><time>2026-05-05T09:13:44.999Z</time></trkpt><trkpt lat="31.112432616232372" lon="-6.202298688570197"><ele>1454.3333333333333</ele><time>2026-05-05T09:13:45.999Z</time></trkpt><trkpt lat="31.11234679236261" lon="-6.202249867208595"><ele>1455.0</ele><time>2026-05-05T09:13:46.999Z</time></trkpt><trkpt lat="31.112259268896572" lon="-6.202204536728176"><ele>1455.6666666666667</ele><time>2026-05-05T09:13:47.999Z</time></trkpt><trkpt lat="31.112175711473032" lon="-6.202188335713873"><ele>1456.3333333333335</ele><time>2026-05-05T09:13:48.999Z</time></trkpt><trkpt lat="31.112093501174165" lon="-6.202190686516115"><ele>1457.0</ele><time>2026-05-05T09:13:49.999Z</time></trkpt><trkpt lat="31.11198299827254" lon="-6.202253442862875"><ele>1457.0</ele><time>2026-05-05T09:13:51.999Z</time></trkpt><trkpt lat="31.111949944185216" lon="-6.202316426525134"><ele>1457.0</ele><time>2026-05-05T09:13:52.999Z</time></trkpt><trkpt lat="31.111918302977667" lon="-6.202455238940723"><ele>1457.0</ele><time>2026-05-05T09:13:54.999Z</time></trkpt><trkpt lat="31.1118970901352" lon="-6.202542974577229"><ele>1457.0</ele><time>2026-05-05T09:13:55.999Z</time></trkpt><trkpt lat="31.1118709616566" lon="-6.202620567992694"><ele>1457.0</ele><time>2026-05-05T09:13:56.999Z</time></trkpt><trkpt lat="31.111835185808204" lon="-6.202685457808085"><ele>1457.0</ele><time>2026-05-05T09:13:57.999Z</time></trkpt><trkpt lat="31.11171959578812" lon="-6.202753986524417"><ele>1456.8</ele><time>2026-05-05T09:13:59.999Z</time></trkpt><trkpt lat="31.111642853528217" lon="-6.20274815653474"><ele>1456.6</ele><time>2026-05-05T09:14:00.999Z</time></trkpt><trkpt lat="31.111551405239396" lon="-6.202722318965683"><ele>1456.3999999999999</ele><time>2026-05-05T09:14:01.999Z</time></trkpt><trkpt lat="31.11144865777433" lon="-6.202684349346226"><ele>1456.1999999999998</ele><time>2026-05-05T09:14:02.999Z</time></trkpt><trkpt lat="31.111343014108193" lon="-6.2026430602709315"><ele>1456.0</ele><time>2026-05-05T09:14:03.999Z</time></trkpt><trkpt lat="31.11122579054882" lon="-6.202603541987288"><ele>1457.4</ele><time>2026-05-05T09:14:04.999Z</time></trkpt><trkpt lat="31.111122376078487" lon="-6.202563289130456"><ele>1458.8</ele><time>2026-05-05T09:14:05.999Z</time></trkpt><trkpt lat="31.11103302180101" lon="-6.202538380125852"><ele>1460.2</ele><time>2026-05-05T09:14:07Z</time></trkpt><trkpt lat="31.110948020697784" lon="-6.202528139775339"><ele>1461.6000000000001</ele><time>2026-05-05T09:14:08Z</time></trkpt><trkpt lat="31.110864400377675" lon="-6.202541672923822"><ele>1463.0</ele><time>2026-05-05T09:14:09Z</time></trkpt><trkpt lat="31.110781859638134" lon="-6.202588261097415"><ele>1465.8000000000002</ele><time>2026-05-05T09:14:10Z</time></trkpt><trkpt lat="31.110719964439053" lon="-6.202667761581236"><ele>1468.6</ele><time>2026-05-05T09:14:11Z</time></trkpt><trkpt lat="31.110672700642887" lon="-6.20276552055967"><ele>1471.4</ele><time>2026-05-05T09:14:12Z</time></trkpt><trkpt lat="31.110624491620797" lon="-6.2028767168478"><ele>1474.1999999999998</ele><time>2026-05-05T09:14:13Z</time></trkpt><trkpt lat="31.110583597064547" lon="-6.202985626826521"><ele>1477.0</ele><time>2026-05-05T09:14:14Z</time></trkpt><trkpt lat="31.110545549913912" lon="-6.203097500616732"><ele>1476.6</ele><time>2026-05-05T09:14:15Z</time></trkpt><trkpt lat="31.110511221382144" lon="-6.203187949547973"><ele>1476.1999999999998</ele><time>2026-05-05T09:14:16Z</time></trkpt><trkpt lat="31.11045197709687" lon="-6.203270089367096"><ele>1475.8</ele><time>2026-05-05T09:14:17Z</time></trkpt><trkpt lat="31.110383725439096" lon="-6.203349219643327"><ele>1475.4</ele><time>2026-05-05T09:14:18Z</time></trkpt><trkpt lat="31.110307172593963" lon="-6.203428945358563"><ele>1475.0</ele><time>2026-05-05T09:14:19Z</time></trkpt><trkpt lat="31.11023166157383" lon="-6.203536131805751"><ele>1475.0</ele><time>2026-05-05T09:14:20Z</time></trkpt><trkpt lat="31.110152826659668" lon="-6.203641860312177"><ele>1475.0</ele><time>2026-05-05T09:14:21Z</time></trkpt><trkpt lat="31.110076977042404" lon="-6.203745975792349"><ele>1475.0</ele><time>2026-05-05T09:14:22Z</time></trkpt><trkpt lat="31.11000791605294" lon="-6.203840690188741"><ele>1475.0</ele><time>2026-05-05T09:14:23Z</time></trkpt><trkpt lat="31.109951973227485" lon="-6.20391702779662"><ele>1475.0</ele><time>2026-05-05T09:14:24Z</time></trkpt><trkpt lat="31.109882014178726" lon="-6.20399082085932"><ele>1476.4</ele><time>2026-05-05T09:14:25Z</time></trkpt><trkpt lat="31.109800218030614" lon="-6.204073802330178"><ele>1477.8</ele><time>2026-05-05T09:14:26Z</time></trkpt><trkpt lat="31.109712570107796" lon="-6.204160981791072"><ele>1479.1999999999998</ele><time>2026-05-05T09:14:27Z</time></trkpt><trkpt lat="31.109641213000216" lon="-6.20424852793335"><ele>1480.6</ele><time>2026-05-05T09:14:28Z</time></trkpt><trkpt lat="31.10957556981902" lon="-6.20432207773239"><ele>1482.0</ele><time>2026-05-05T09:14:29Z</time></trkpt><trkpt lat="31.10950096038384" lon="-6.204381690213681"><ele>1482.0</ele><time>2026-05-05T09:14:30Z</time></trkpt><trkpt lat="31.10941994695787" lon="-6.204438767683965"><ele>1482.0</ele><time>2026-05-05T09:14:31Z</time></trkpt><trkpt lat="31.109356092678084" lon="-6.20451306508783"><ele>1482.0</ele><time>2026-05-05T09:14:32Z</time></trkpt><trkpt lat="31.109304119941136" lon="-6.204612073916048"><ele>1482.0</ele><time>2026-05-05T09:14:33Z</time></trkpt><trkpt lat="31.10924890086514" lon="-6.20470505374548"><ele>1482.0</ele><time>2026-05-05T09:14:34Z</time></trkpt><trkpt lat="31.109186075326196" lon="-6.204796716733689"><ele>1482.6666666666667</ele><time>2026-05-05T09:14:35Z</time></trkpt><trkpt lat="31.1091225619687" lon="-6.204872829698518"><ele>1483.3333333333333</ele><time>2026-05-05T09:14:36Z</time></trkpt><trkpt lat="31.10905762649541" lon="-6.204936585223083"><ele>1484.0</ele><time>2026-05-05T09:14:37Z</time></trkpt><trkpt lat="31.10898850557945" lon="-6.204986790534868"><ele>1484.6666666666665</ele><time>2026-05-05T09:14:38Z</time></trkpt><trkpt lat="31.108907359228045" lon="-6.205026606309723"><ele>1485.3333333333333</ele><time>2026-05-05T09:14:39Z</time></trkpt><trkpt lat="31.108824395366742" lon="-6.205056543678541"><ele>1486.0</ele><time>2026-05-05T09:14:40Z</time></trkpt><trkpt lat="31.108737963320696" lon="-6.205078152641209"><ele>1486.0</ele><time>2026-05-05T09:14:41Z</time></trkpt><trkpt lat="31.10865115668954" lon="-6.20509453378051"><ele>1486.0</ele><time>2026-05-05T09:14:42Z</time></trkpt><trkpt lat="31.10856568688227" lon="-6.205114135487313"><ele>1486.0</ele><time>2026-05-05T09:14:43Z</time></trkpt><trkpt lat="31.10848428136348" lon="-6.2051475436870325"><ele>1486.0</ele><time>2026-05-05T09:14:44Z</time></trkpt><trkpt lat="31.108399602946648" lon="-6.205192783039908"><ele>1486.0</ele><time>2026-05-05T09:14:45Z</time></trkpt><trkpt lat="31.10831887320624" lon="-6.20524831330959"><ele>1486.0</ele><time>2026-05-05T09:14:46Z</time></trkpt><trkpt lat="31.108234297551686" lon="-6.2053076591213525"><ele>1487.1666666666665</ele><time>2026-05-05T09:14:47Z</time></trkpt><trkpt lat="31.10816116205051" lon="-6.205355196186652"><ele>1488.3333333333333</ele><time>2026-05-05T09:14:48Z</time></trkpt><trkpt lat="31.10808836220278" lon="-6.20538106823378"><ele>1489.5</ele><time>2026-05-05T09:14:49Z</time></trkpt><trkpt lat="31.10801867713751" lon="-6.205380418486884"><ele>1490.6666666666667</ele><time>2026-05-05T09:14:50Z</time></trkpt><trkpt lat="31.107929989298757" lon="-6.205373452183337"><ele>1491.8333333333335</ele><time>2026-05-05T09:14:51Z</time></trkpt><trkpt lat="31.107827914295036" lon="-6.205356478559957"><ele>1493.0</ele><time>2026-05-05T09:14:52Z</time></trkpt><trkpt lat="31.10772244749358" lon="-6.205339645593973"><ele>1493.0</ele><time>2026-05-05T09:14:53Z</time></trkpt><trkpt lat="31.10762391739926" lon="-6.20532289763323"><ele>1493.0</ele><time>2026-05-05T09:14:54Z</time></trkpt><trkpt lat="31.107523113388208" lon="-6.205311905405928"><ele>1493.0</ele><time>2026-05-05T09:14:55Z</time></trkpt><trkpt lat="31.10742476770628" lon="-6.205304710878842"><ele>1493.0</ele><time>2026-05-05T09:14:56Z</time></trkpt><trkpt lat="31.107321255710715" lon="-6.205294058305041"><ele>1493.0</ele><time>2026-05-05T09:14:57Z</time></trkpt><trkpt lat="31.107220900071695" lon="-6.20527653267042"><ele>1492.4</ele><time>2026-05-05T09:14:58Z</time></trkpt><trkpt lat="31.10712194772418" lon="-6.205250154625587"><ele>1491.8000000000002</ele><time>2026-05-05T09:14:59Z</time></trkpt><trkpt lat="31.107033597057786" lon="-6.205214468748974"><ele>1491.2</ele><time>2026-05-05T09:15:00Z</time></trkpt><trkpt lat="31.106952292128554" lon="-6.205182871798443"><ele>1490.6</ele><time>2026-05-05T09:15:01Z</time></trkpt><trkpt lat="31.106872295496853" lon="-6.20518337122333"><ele>1490.0</ele><time>2026-05-05T09:15:02Z</time></trkpt><trkpt lat="31.106780895812648" lon="-6.205206243823598"><ele>1490.0</ele><time>2026-05-05T09:15:03Z</time></trkpt><trkpt lat="31.106695509920474" lon="-6.205232701910902"><ele>1490.0</ele><time>2026-05-05T09:15:04Z</time></trkpt><trkpt lat="31.10661032860722" lon="-6.205237178119947"><ele>1490.0</ele><time>2026-05-05T09:15:05Z</time></trkpt><trkpt lat="31.106532776969765" lon="-6.205224787933134"><ele>1490.0</ele><time>2026-05-05T09:15:06Z</time></trkpt><trkpt lat="31.10645698773293" lon="-6.20519147367818"><ele>1490.0</ele><time>2026-05-05T09:15:07Z</time></trkpt><trkpt lat="31.10637023650299" lon="-6.205140101318498"><ele>1490.0</ele><time>2026-05-05T09:15:08Z</time></trkpt><trkpt lat="31.106285169553026" lon="-6.205074359025578"><ele>1490.4</ele><time>2026-05-05T09:15:09Z</time></trkpt><trkpt lat="31.10620651031493" lon="-6.204997684178736"><ele>1490.8</ele><time>2026-05-05T09:15:10Z</time></trkpt><trkpt lat="31.106133538200798" lon="-6.20491097839227"><ele>1491.1999999999998</ele><time>2026-05-05T09:15:11Z</time></trkpt><trkpt lat="31.106072334460343" lon="-6.204823346951757"><ele>1491.6</ele><time>2026-05-05T09:15:12Z</time></trkpt><trkpt lat="31.106010398844276" lon="-6.2047472060469255"><ele>1492.0</ele><time>2026-05-05T09:15:13Z</time></trkpt><trkpt lat="31.10594641757" lon="-6.204674905126204"><ele>1492.0</ele><time>2026-05-05T09:15:14Z</time></trkpt><trkpt lat="31.105891367832243" lon="-6.20460903437781"><ele>1492.0</ele><time>2026-05-05T09:15:15Z</time></trkpt><trkpt lat="31.10583681025578" lon="-6.204545810204675"><ele>1492.0</ele><time>2026-05-05T09:15:16Z</time></trkpt><trkpt lat="31.10576804648363" lon="-6.204490912673045"><ele>1492.0</ele><time>2026-05-05T09:15:17Z</time></trkpt><trkpt lat="31.10567523227854" lon="-6.204461868890823"><ele>1492.0</ele><time>2026-05-05T09:15:18Z</time></trkpt><trkpt lat="31.105563802611623" lon="-6.20444460299398"><ele>1492.0</ele><time>2026-05-05T09:15:19Z</time></trkpt><trkpt lat="31.105452101925078" lon="-6.204430968417163"><ele>1492.0</ele><time>2026-05-05T09:15:20Z</time></trkpt><trkpt lat="31.10534519046633" lon="-6.204422779444137"><ele>1492.0</ele><time>2026-05-05T09:15:21Z</time></trkpt><trkpt lat="31.105244355388002" lon="-6.204409387661337"><ele>1492.0</ele><time>2026-05-05T09:15:21.999Z</time></trkpt><trkpt lat="31.10514849525609" lon="-6.2043793055734"><ele>1492.0</ele><time>2026-05-05T09:15:22.999Z</time></trkpt><trkpt lat="31.105058564865068" lon="-6.204353609556435"><ele>1492.0</ele><time>2026-05-05T09:15:23.999Z</time></trkpt><trkpt lat="31.104983510376773" lon="-6.204341886304683"><ele>1491.8</ele><time>2026-05-05T09:15:24.999Z</time></trkpt><trkpt lat="31.104902939731776" lon="-6.204340464890146"><ele>1491.6</ele><time>2026-05-05T09:15:25.999Z</time></trkpt><trkpt lat="31.104810705587244" lon="-6.204336143778953"><ele>1491.3999999999999</ele><time>2026-05-05T09:15:26.999Z</time></trkpt><trkpt lat="31.1047119224945" lon="-6.20431523244734"><ele>1491.1999999999998</ele><time>2026-05-05T09:15:27.999Z</time></trkpt><trkpt lat="31.104614566785735" lon="-6.204272420509344"><ele>1491.0</ele><time>2026-05-05T09:15:28.999Z</time></trkpt><trkpt lat="31.10450637238525" lon="-6.204225690218622"><ele>1491.0</ele><time>2026-05-05T09:15:29.999Z</time></trkpt><trkpt lat="31.104393056380022" lon="-6.204172928723086"><ele>1491.0</ele><time>2026-05-05T09:15:30.999Z</time></trkpt><trkpt lat="31.10427926597435" lon="-6.204104842563357"><ele>1491.0</ele><time>2026-05-05T09:15:31.999Z</time></trkpt><trkpt lat="31.104177915270544" lon="-6.204020379015944"><ele>1491.0</ele><time>2026-05-05T09:15:32.999Z</time></trkpt><trkpt lat="31.104078320492306" lon="-6.203934576835869"><ele>1491.6</ele><time>2026-05-05T09:15:33.999Z</time></trkpt><trkpt lat="31.10398336701894" lon="-6.203853639889378"><ele>1492.1999999999998</ele><time>2026-05-05T09:15:34.999Z</time></trkpt><trkpt lat="31.10389703396963" lon="-6.203777182379661"><ele>1492.8000000000002</ele><time>2026-05-05T09:15:35.999Z</time></trkpt><trkpt lat="31.103815991338145" lon="-6.2037051504291485"><ele>1493.4</ele><time>2026-05-05T09:15:36.999Z</time></trkpt><trkpt lat="31.10373092200733" lon="-6.20363207267527"><ele>1494.0</ele><time>2026-05-05T09:15:37.999Z</time></trkpt><trkpt lat="31.103645235713703" lon="-6.203571647850962"><ele>1494.0</ele><time>2026-05-05T09:15:38.999Z</time></trkpt><trkpt lat="31.103566068383607" lon="-6.203500147745809"><ele>1494.0</ele><time>2026-05-05T09:15:39.999Z</time></trkpt><trkpt lat="31.103489082952446" lon="-6.203406550276677"><ele>1494.0</ele><time>2026-05-05T09:15:40.999Z</time></trkpt><trkpt lat="31.103403478632796" lon="-6.203312965451481"><ele>1494.0</ele><time>2026-05-05T09:15:41.999Z</time></trkpt><trkpt lat="31.1033129468611" lon="-6.203243109302346"><ele>1494.0</ele><time>2026-05-05T09:15:42.999Z</time></trkpt><trkpt lat="31.103213307931732" lon="-6.203186193884499"><ele>1495.6</ele><time>2026-05-05T09:15:43.999Z</time></trkpt><trkpt lat="31.10311177822909" lon="-6.203129813644029"><ele>1497.2</ele><time>2026-05-05T09:15:44.999Z</time></trkpt><trkpt lat="31.103019393785342" lon="-6.203055519320225"><ele>1498.8</ele><time>2026-05-05T09:15:45.999Z</time></trkpt><trkpt lat="31.102934324367155" lon="-6.202966492296708"><ele>1500.3999999999999</ele><time>2026-05-05T09:15:46.999Z</time></trkpt><trkpt lat="31.102848448636944" lon="-6.202889400126393"><ele>1502.0</ele><time>2026-05-05T09:15:47.999Z</time></trkpt><trkpt lat="31.102761257877614" lon="-6.202841811445924"><ele>1502.0</ele><time>2026-05-05T09:15:48.999Z</time></trkpt><trkpt lat="31.102672597710246" lon="-6.20279547115009"><ele>1502.0</ele><time>2026-05-05T09:15:49.999Z</time></trkpt><trkpt lat="31.10259088327502" lon="-6.202743410099724"><ele>1502.0</ele><time>2026-05-05T09:15:50.999Z</time></trkpt><trkpt lat="31.10252380050662" lon="-6.202681233187492"><ele>1502.0</ele><time>2026-05-05T09:15:51.999Z</time></trkpt><trkpt lat="31.102463324384065" lon="-6.202619353274179"><ele>1502.0</ele><time>2026-05-05T09:15:52.999Z</time></trkpt><trkpt lat="31.102403042248405" lon="-6.202575789894051"><ele>1502.0</ele><time>2026-05-05T09:15:53.999Z</time></trkpt><trkpt lat="31.102327241018834" lon="-6.202543362656922"><ele>1502.1999999999998</ele><time>2026-05-05T09:15:54.999Z</time></trkpt><trkpt lat="31.10223859792313" lon="-6.2025313202554875"><ele>1502.4</ele><time>2026-05-05T09:15:55.999Z</time></trkpt><trkpt lat="31.102139243370825" lon="-6.202529706822818"><ele>1502.6</ele><time>2026-05-05T09:15:56.999Z</time></trkpt><trkpt lat="31.102041805472908" lon="-6.202525319639963"><ele>1502.8000000000002</ele><time>2026-05-05T09:15:57.999Z</time></trkpt><trkpt lat="31.101938829192587" lon="-6.2025123325422795"><ele>1503.0</ele><time>2026-05-05T09:15:58.999Z</time></trkpt><trkpt lat="31.101836944673856" lon="-6.202487365335177"><ele>1503.0</ele><time>2026-05-05T09:15:59.999Z</time></trkpt><trkpt lat="31.10173398604014" lon="-6.202456192160139"><ele>1503.0</ele><time>2026-05-05T09:16:00.999Z</time></trkpt><trkpt lat="31.101631404966287" lon="-6.202427124190484"><ele>1503.0</ele><time>2026-05-05T09:16:01.999Z</time></trkpt><trkpt lat="31.101532770923086" lon="-6.202406663384497"><ele>1503.0</ele><time>2026-05-05T09:16:02.999Z</time></trkpt><trkpt lat="31.101430588813678" lon="-6.202392491700453"><ele>1503.0</ele><time>2026-05-05T09:16:03.999Z</time></trkpt><trkpt lat="31.101332726738843" lon="-6.202376779508258"><ele>1504.3333333333333</ele><time>2026-05-05T09:16:04.999Z</time></trkpt><trkpt lat="31.101236446803558" lon="-6.202364350580716"><ele>1505.6666666666667</ele><time>2026-05-05T09:16:05.999Z</time></trkpt><trkpt lat="31.101147020809147" lon="-6.202366612052918"><ele>1507.0</ele><time>2026-05-05T09:16:06.999Z</time></trkpt><trkpt lat="31.101074991794118" lon="-6.202371379528598"><ele>1508.3333333333335</ele><time>2026-05-05T09:16:07.999Z</time></trkpt><trkpt lat="31.101008207742932" lon="-6.202400989790193"><ele>1509.6666666666667</ele><time>2026-05-05T09:16:08.999Z</time></trkpt><trkpt lat="31.100947947931534" lon="-6.2024513005633"><ele>1511.0</ele><time>2026-05-05T09:16:09.999Z</time></trkpt><trkpt lat="31.10089408368996" lon="-6.202522060376639"><ele>1511.0</ele><time>2026-05-05T09:16:10.999Z</time></trkpt><trkpt lat="31.100848668264746" lon="-6.202597479818611"><ele>1511.0</ele><time>2026-05-05T09:16:11.999Z</time></trkpt><trkpt lat="31.100813276175497" lon="-6.2026843363099715"><ele>1511.0</ele><time>2026-05-05T09:16:13Z</time></trkpt><trkpt lat="31.100776560472436" lon="-6.20277450192374"><ele>1511.0</ele><time>2026-05-05T09:16:14Z</time></trkpt><trkpt lat="31.10073078617028" lon="-6.202850518265847"><ele>1511.0</ele><time>2026-05-05T09:16:15Z</time></trkpt><trkpt lat="31.100684876986538" lon="-6.202908396639868"><ele>1511.0</ele><time>2026-05-05T09:16:16Z</time></trkpt><trkpt lat="31.10059280042453" lon="-6.202980195112367"><ele>1512.5</ele><time>2026-05-05T09:16:18Z</time></trkpt><trkpt lat="31.100519862808728" lon="-6.203001192067613"><ele>1514.0</ele><time>2026-05-05T09:16:19Z</time></trkpt><trkpt lat="31.100433237445888" lon="-6.203005869967086"><ele>1515.5</ele><time>2026-05-05T09:16:20Z</time></trkpt><trkpt lat="31.100346636089988" lon="-6.203008317729725"><ele>1517.0</ele><time>2026-05-05T09:16:21Z</time></trkpt><trkpt lat="31.100261809695823" lon="-6.203024146847923"><ele>1518.5</ele><time>2026-05-05T09:16:22Z</time></trkpt><trkpt lat="31.100186295985324" lon="-6.20304683656712"><ele>1520.0</ele><time>2026-05-05T09:16:23Z</time></trkpt><trkpt lat="31.1001206425859" lon="-6.203077711963358"><ele>1520.0</ele><time>2026-05-05T09:16:24Z</time></trkpt><trkpt lat="31.10001151649967" lon="-6.203135559177996"><ele>1520.0</ele><time>2026-05-05T09:16:26Z</time></trkpt><trkpt lat="31.099917607879444" lon="-6.203189306285512"><ele>1520.0</ele><time>2026-05-05T09:16:28Z</time></trkpt><trkpt lat="31.09984850619709" lon="-6.20323413774226"><ele>1520.0</ele><time>2026-05-05T09:16:30Z</time></trkpt><trkpt lat="31.099766087613762" lon="-6.203257235453487"><ele>1520.0</ele><time>2026-05-05T09:18:32.999Z</time></trkpt><trkpt lat="31.099698982691514" lon="-6.203272317887694"><ele>1517.8333333333335</ele><time>2026-05-05T09:18:33.999Z</time></trkpt><trkpt lat="31.099625293078546" lon="-6.203285238394337"><ele>1515.6666666666667</ele><time>2026-05-05T09:18:34.999Z</time></trkpt><trkpt lat="31.099542031462594" lon="-6.20329058574777"><ele>1513.5</ele><time>2026-05-05T09:18:35.999Z</time></trkpt><trkpt lat="31.099461957880134" lon="-6.203302702141266"><ele>1511.3333333333333</ele><time>2026-05-05T09:18:36.999Z</time></trkpt><trkpt lat="31.09938524753823" lon="-6.203324678587724"><ele>1509.1666666666665</ele><time>2026-05-05T09:18:37.999Z</time></trkpt><trkpt lat="31.099306006343983" lon="-6.2033347960245395"><ele>1507.0</ele><time>2026-05-05T09:18:38.999Z</time></trkpt><trkpt lat="31.099229704220274" lon="-6.203321194432682"><ele>1507.0</ele><time>2026-05-05T09:18:39.999Z</time></trkpt><trkpt lat="31.099156124467605" lon="-6.203287392653872"><ele>1507.0</ele><time>2026-05-05T09:18:40.999Z</time></trkpt><trkpt lat="31.099088404890793" lon="-6.203248871038297"><ele>1507.0</ele><time>2026-05-05T09:18:41.999Z</time></trkpt><trkpt lat="31.099009138436365" lon="-6.203222910589227"><ele>1507.0</ele><time>2026-05-05T09:18:42.999Z</time></trkpt><trkpt lat="31.09893152400575" lon="-6.203222959361189"><ele>1507.0</ele><time>2026-05-05T09:18:43.999Z</time></trkpt><trkpt lat="31.098855100823602" lon="-6.2032364953980075"><ele>1507.0</ele><time>2026-05-05T09:18:44.999Z</time></trkpt><trkpt lat="31.098775182118512" lon="-6.2032734787414086"><ele>1507.5</ele><time>2026-05-05T09:18:45.999Z</time></trkpt><trkpt lat="31.098694953295354" lon="-6.203309219448394"><ele>1508.0</ele><time>2026-05-05T09:18:46.999Z</time></trkpt><trkpt lat="31.09861472397441" lon="-6.203319017449247"><ele>1508.5</ele><time>2026-05-05T09:18:47.999Z</time></trkpt><trkpt lat="31.098523357571104" lon="-6.203319189940734"><ele>1509.0</ele><time>2026-05-05T09:18:48.999Z</time></trkpt><trkpt lat="31.09843637952982" lon="-6.203331471375528"><ele>1509.5</ele><time>2026-05-05T09:18:49.999Z</time></trkpt><trkpt lat="31.098353355793748" lon="-6.2033542767173255"><ele>1510.0</ele><time>2026-05-05T09:18:50.999Z</time></trkpt><trkpt lat="31.09826504126396" lon="-6.203373748221492"><ele>1511.0</ele><time>2026-05-05T09:18:51.999Z</time></trkpt><trkpt lat="31.09818198805067" lon="-6.203393478450415"><ele>1512.0</ele><time>2026-05-05T09:18:52.999Z</time></trkpt><trkpt lat="31.098097771925474" lon="-6.203412618126475"><ele>1513.0</ele><time>2026-05-05T09:18:53.999Z</time></trkpt><trkpt lat="31.09801024346685" lon="-6.20342529401032"><ele>1514.0</ele><time>2026-05-05T09:18:54.999Z</time></trkpt><trkpt lat="31.09791863447085" lon="-6.203418530832946"><ele>1515.0</ele><time>2026-05-05T09:18:55.999Z</time></trkpt><trkpt lat="31.097828932775425" lon="-6.203413183262053"><ele>1516.0</ele><time>2026-05-05T09:18:56.999Z</time></trkpt><trkpt lat="31.097742322572273" lon="-6.2034271087856725"><ele>1516.0</ele><time>2026-05-05T09:18:57.999Z</time></trkpt><trkpt lat="31.097659402970876" lon="-6.203452501537672"><ele>1516.0</ele><time>2026-05-05T09:18:58.999Z</time></trkpt><trkpt lat="31.097580016227155" lon="-6.203479413327127"><ele>1516.0</ele><time>2026-05-05T09:18:59.999Z</time></trkpt><trkpt lat="31.097500563983335" lon="-6.203492197223767"><ele>1516.0</ele><time>2026-05-05T09:19:00.999Z</time></trkpt><trkpt lat="31.097410250353416" lon="-6.203496980868886"><ele>1516.0</ele><time>2026-05-05T09:19:01.999Z</time></trkpt><trkpt lat="31.097325146420424" lon="-6.2035103882619715"><ele>1516.0</ele><time>2026-05-05T09:19:02.999Z</time></trkpt><trkpt lat="31.097240098806807" lon="-6.203523391114286"><ele>1517.1666666666665</ele><time>2026-05-05T09:19:03.999Z</time></trkpt><trkpt lat="31.097158906633215" lon="-6.203530365169665"><ele>1518.3333333333333</ele><time>2026-05-05T09:19:04.999Z</time></trkpt><trkpt lat="31.09707854902923" lon="-6.203543157926288"><ele>1519.5</ele><time>2026-05-05T09:19:05.999Z</time></trkpt><trkpt lat="31.0969945689094" lon="-6.203554435720585"><ele>1520.6666666666667</ele><time>2026-05-05T09:19:06.999Z</time></trkpt><trkpt lat="31.096908540287018" lon="-6.203560642201207"><ele>1521.8333333333335</ele><time>2026-05-05T09:19:07.999Z</time></trkpt><trkpt lat="31.09681881105643" lon="-6.203570258343158"><ele>1523.0</ele><time>2026-05-05T09:19:08.999Z</time></trkpt><trkpt lat="31.096723320237317" lon="-6.203581026110562"><ele>1523.0000000000002</ele><time>2026-05-05T09:19:09.999Z</time></trkpt><trkpt lat="31.09663136078153" lon="-6.203596469738679"><ele>1523.0</ele><time>2026-05-05T09:19:10.999Z</time></trkpt><trkpt lat="31.096553239452902" lon="-6.2036070528693354"><ele>1523.0</ele><time>2026-05-05T09:19:11.999Z</time></trkpt><trkpt lat="31.096482802063242" lon="-6.203612559458967"><ele>1523.0</ele><time>2026-05-05T09:19:12.999Z</time></trkpt><trkpt lat="31.096414774845318" lon="-6.203616430844338"><ele>1523.0</ele><time>2026-05-05T09:19:13.999Z</time></trkpt><trkpt lat="31.096344296474225" lon="-6.203614969462361"><ele>1523.0000000000002</ele><time>2026-05-05T09:19:14.999Z</time></trkpt><trkpt lat="31.09627712068609" lon="-6.203607108748285"><ele>1523.0</ele><time>2026-05-05T09:19:15.999Z</time></trkpt><trkpt lat="31.096205757879396" lon="-6.203583062465845"><ele>1522.3333333333335</ele><time>2026-05-05T09:19:16.999Z</time></trkpt><trkpt lat="31.096130255989113" lon="-6.20355597437203"><ele>1521.6666666666667</ele><time>2026-05-05T09:19:17.999Z</time></trkpt><trkpt lat="31.096054838717645" lon="-6.2035358798185865"><ele>1521.0</ele><time>2026-05-05T09:19:18.999Z</time></trkpt><trkpt lat="31.095978334488333" lon="-6.203515974906277"><ele>1520.3333333333333</ele><time>2026-05-05T09:19:19.999Z</time></trkpt><trkpt lat="31.095901201866887" lon="-6.203501517360561"><ele>1519.6666666666665</ele><time>2026-05-05T09:19:20.999Z</time></trkpt><trkpt lat="31.095823981714055" lon="-6.203483824997047"><ele>1519.0</ele><time>2026-05-05T09:19:21.999Z</time></trkpt><trkpt lat="31.095752370527357" lon="-6.203458794331568"><ele>1518.142857142857</ele><time>2026-05-05T09:19:22.999Z</time></trkpt><trkpt lat="31.09567958908" lon="-6.203437579785735"><ele>1517.2857142857142</ele><time>2026-05-05T09:19:23.999Z</time></trkpt><trkpt lat="31.095608001325566" lon="-6.203423335055341"><ele>1516.4285714285716</ele><time>2026-05-05T09:19:24.999Z</time></trkpt><trkpt lat="31.095534305219314" lon="-6.203430372041328"><ele>1515.5714285714284</ele><time>2026-05-05T09:19:25.999Z</time></trkpt><trkpt lat="31.095464467621508" lon="-6.203435025471547"><ele>1514.7142857142858</ele><time>2026-05-05T09:19:26.999Z</time></trkpt><trkpt lat="31.095391351703885" lon="-6.203429179671438"><ele>1513.857142857143</ele><time>2026-05-05T09:19:27.999Z</time></trkpt><trkpt lat="31.095324369516394" lon="-6.203400403284512"><ele>1513.0</ele><time>2026-05-05T09:19:28.999Z</time></trkpt><trkpt lat="31.095253855228975" lon="-6.2033680842424035"><ele>1513.0</ele><time>2026-05-05T09:19:29.999Z</time></trkpt><trkpt lat="31.095178224680136" lon="-6.203325135101783"><ele>1513.0</ele><time>2026-05-05T09:19:30.999Z</time></trkpt><trkpt lat="31.095109490058316" lon="-6.203308797734717"><ele>1513.0</ele><time>2026-05-05T09:19:31.999Z</time></trkpt><trkpt lat="31.09503015298667" lon="-6.2032872639587175"><ele>1513.0</ele><time>2026-05-05T09:19:32.999Z</time></trkpt><trkpt lat="31.094957938373856" lon="-6.2032523303277864"><ele>1513.0</ele><time>2026-05-05T09:19:33.999Z</time></trkpt><trkpt lat="31.09488387129059" lon="-6.203223688551363"><ele>1513.0</ele><time>2026-05-05T09:19:34.999Z</time></trkpt><trkpt lat="31.094808311927974" lon="-6.203194736763934"><ele>1512.1666666666665</ele><time>2026-05-05T09:19:35.999Z</time></trkpt><trkpt lat="31.09474358938787" lon="-6.203156669884994"><ele>1511.3333333333333</ele><time>2026-05-05T09:19:36.999Z</time></trkpt><trkpt lat="31.094677188317036" lon="-6.203115249867127"><ele>1510.5</ele><time>2026-05-05T09:19:37.999Z</time></trkpt><trkpt lat="31.09460965889898" lon="-6.203066748772076"><ele>1509.6666666666667</ele><time>2026-05-05T09:19:38.999Z</time></trkpt><trkpt lat="31.094536578350247" lon="-6.203018819974951"><ele>1508.8333333333335</ele><time>2026-05-05T09:19:39.999Z</time></trkpt><trkpt lat="31.094467024771628" lon="-6.2029761753276915"><ele>1508.0</ele><time>2026-05-05T09:19:40.999Z</time></trkpt><trkpt lat="31.094398896165075" lon="-6.202934927963699"><ele>1507.9999999999998</ele><time>2026-05-05T09:19:41.999Z</time></trkpt><trkpt lat="31.09433104896061" lon="-6.202907907206809"><ele>1508.0</ele><time>2026-05-05T09:19:42.999Z</time></trkpt><trkpt lat="31.09426379076054" lon="-6.202885330702361"><ele>1508.0</ele><time>2026-05-05T09:19:43.999Z</time></trkpt><trkpt lat="31.094181967640054" lon="-6.202874612981672"><ele>1508.0</ele><time>2026-05-05T09:19:44.999Z</time></trkpt><trkpt lat="31.094109651234454" lon="-6.202866609700235"><ele>1508.0</ele><time>2026-05-05T09:19:45.999Z</time></trkpt><trkpt lat="31.094033421518688" lon="-6.202848839219407"><ele>1507.9999999999998</ele><time>2026-05-05T09:19:46.999Z</time></trkpt><trkpt lat="31.09396754640026" lon="-6.202827736481522"><ele>1508.0</ele><time>2026-05-05T09:19:47.999Z</time></trkpt><trkpt lat="31.093902716780093" lon="-6.202822546857501"><ele>1508.3333333333335</ele><time>2026-05-05T09:19:48.999Z</time></trkpt><trkpt lat="31.093834116160078" lon="-6.2028382078249455"><ele>1508.6666666666667</ele><time>2026-05-05T09:19:49.999Z</time></trkpt><trkpt lat="31.093774620590807" lon="-6.202876524144205"><ele>1509.0</ele><time>2026-05-05T09:19:50.999Z</time></trkpt><trkpt lat="31.09371959460167" lon="-6.202938553273348"><ele>1509.3333333333333</ele><time>2026-05-05T09:19:51.999Z</time></trkpt><trkpt lat="31.093670093464155" lon="-6.203010675146956"><ele>1509.6666666666665</ele><time>2026-05-05T09:19:52.999Z</time></trkpt><trkpt lat="31.093614794462667" lon="-6.203084975936075"><ele>1510.0</ele><time>2026-05-05T09:19:53.999Z</time></trkpt><trkpt lat="31.093553847452092" lon="-6.203144765924189"><ele>1509.3333333333333</ele><time>2026-05-05T09:19:54.999Z</time></trkpt><trkpt lat="31.09348801402372" lon="-6.203202916312875"><ele>1508.6666666666665</ele><time>2026-05-05T09:19:55.999Z</time></trkpt><trkpt lat="31.09342034176542" lon="-6.203254077658845"><ele>1508.0</ele><time>2026-05-05T09:19:56.999Z</time></trkpt><trkpt lat="31.0933488716053" lon="-6.2032961702297635"><ele>1507.3333333333333</ele><time>2026-05-05T09:19:57.999Z</time></trkpt><trkpt lat="31.093267752159495" lon="-6.203326728623138"><ele>1506.6666666666667</ele><time>2026-05-05T09:19:58.999Z</time></trkpt><trkpt lat="31.093187714970824" lon="-6.203349796565043"><ele>1506.0</ele><time>2026-05-05T09:19:59.999Z</time></trkpt><trkpt lat="31.093105555532112" lon="-6.203360278403573"><ele>1506.0</ele><time>2026-05-05T09:20:00.999Z</time></trkpt><trkpt lat="31.0930338460306" lon="-6.203373615439059"><ele>1506.0</ele><time>2026-05-05T09:20:01.999Z</time></trkpt><trkpt lat="31.09296322025134" lon="-6.203409031274655"><ele>1506.0</ele><time>2026-05-05T09:20:02.999Z</time></trkpt><trkpt lat="31.092899536052613" lon="-6.203462681874191"><ele>1506.0</ele><time>2026-05-05T09:20:03.999Z</time></trkpt><trkpt lat="31.092827801357927" lon="-6.2035031854211775"><ele>1506.0</ele><time>2026-05-05T09:20:04.999Z</time></trkpt><trkpt lat="31.092756448355754" lon="-6.203528768006089"><ele>1506.0</ele><time>2026-05-05T09:20:05.999Z</time></trkpt><trkpt lat="31.09269080306187" lon="-6.203548770985215"><ele>1506.0</ele><time>2026-05-05T09:20:06.999Z</time></trkpt><trkpt lat="31.09257645861519" lon="-6.20353452416315"><ele>1506.0</ele><time>2026-05-05T09:20:08.999Z</time></trkpt><trkpt lat="31.092522071621325" lon="-6.2034896202779715"><ele>1506.0</ele><time>2026-05-05T09:20:09.999Z</time></trkpt><trkpt lat="31.09246909699039" lon="-6.2034331797851525"><ele>1506.0</ele><time>2026-05-05T09:20:10.999Z</time></trkpt><trkpt lat="31.092417966927115" lon="-6.203387181460551"><ele>1506.0</ele><time>2026-05-05T09:20:11.999Z</time></trkpt><trkpt lat="31.092315489388774" lon="-6.2033733803119455"><ele>1506.0</ele><time>2026-05-05T09:20:13.999Z</time></trkpt><trkpt lat="31.092252176585152" lon="-6.203391562905814"><ele>1505.3333333333333</ele><time>2026-05-05T09:20:14.999Z</time></trkpt><trkpt lat="31.09218500435666" lon="-6.203401137875783"><ele>1504.6666666666667</ele><time>2026-05-05T09:20:15.999Z</time></trkpt><trkpt lat="31.092118467512776" lon="-6.20340220970335"><ele>1504.0</ele><time>2026-05-05T09:20:16.999Z</time></trkpt><trkpt lat="31.09205198912666" lon="-6.2033870045686275"><ele>1503.3333333333335</ele><time>2026-05-05T09:20:17.999Z</time></trkpt><trkpt lat="31.091945662471755" lon="-6.203359112891808"><ele>1502.6666666666667</ele><time>2026-05-05T09:20:19.999Z</time></trkpt><trkpt lat="31.09183853824365" lon="-6.203345649371448"><ele>1502.0</ele><time>2026-05-05T09:20:21.999Z</time></trkpt><trkpt lat="31.0917292524147" lon="-6.203317984734163"><ele>1502.0</ele><time>2026-05-05T09:20:23.999Z</time></trkpt><trkpt lat="31.091618423208587" lon="-6.203265523799968"><ele>1502.0</ele><time>2026-05-05T09:20:25.999Z</time></trkpt><trkpt lat="31.09150367912086" lon="-6.203204219991064"><ele>1502.0</ele><time>2026-05-05T09:20:27.999Z</time></trkpt><trkpt lat="31.091440537590742" lon="-6.203155256671904"><ele>1502.0</ele><time>2026-05-05T09:20:28.999Z</time></trkpt><trkpt lat="31.091375489617842" lon="-6.203103208957203"><ele>1502.0</ele><time>2026-05-05T09:20:29.999Z</time></trkpt><trkpt lat="31.091308887886182" lon="-6.203054396171966"><ele>1500.5</ele><time>2026-05-05T09:20:30.999Z</time></trkpt><trkpt lat="31.091244181974552" lon="-6.203009272897385"><ele>1499.0</ele><time>2026-05-05T09:20:31.999Z</time></trkpt><trkpt lat="31.09115557915429" lon="-6.202928039649808"><ele>1497.5</ele><time>2026-05-05T09:20:33.999Z</time></trkpt><trkpt lat="31.09112668364699" lon="-6.202805506237773"><ele>1496.0</ele><time>2026-05-05T09:20:35.999Z</time></trkpt><trkpt lat="31.09113086980739" lon="-6.202726700058418"><ele>1494.5</ele><time>2026-05-05T09:20:36.999Z</time></trkpt><trkpt lat="31.091139277898318" lon="-6.202631331539438"><ele>1493.0</ele><time>2026-05-05T09:20:37.999Z</time></trkpt><trkpt lat="31.091149046108356" lon="-6.202534576106943"><ele>1493.0</ele><time>2026-05-05T09:20:38.999Z</time></trkpt><trkpt lat="31.091155594195893" lon="-6.202445791988908"><ele>1493.0</ele><time>2026-05-05T09:20:39.999Z</time></trkpt><trkpt lat="31.09116382223563" lon="-6.202357534165043"><ele>1493.0</ele><time>2026-05-05T09:20:40.999Z</time></trkpt><trkpt lat="31.09118705096795" lon="-6.20221378040731"><ele>1493.0</ele><time>2026-05-05T09:20:42.999Z</time></trkpt><trkpt lat="31.091173501037932" lon="-6.202088230764331"><ele>1493.0</ele><time>2026-05-05T09:20:44.999Z</time></trkpt><trkpt lat="31.091078427484607" lon="-6.202002162274492"><ele>1492.8333333333335</ele><time>2026-05-05T09:20:46.999Z</time></trkpt><trkpt lat="31.09099488854896" lon="-6.2018993912752345"><ele>1492.6666666666667</ele><time>2026-05-05T09:20:48.999Z</time></trkpt><trkpt lat="31.090946430439637" lon="-6.201839108439749"><ele>1492.5</ele><time>2026-05-05T09:20:49.999Z</time></trkpt><trkpt lat="31.090891280766993" lon="-6.201777021193991"><ele>1492.3333333333333</ele><time>2026-05-05T09:20:50.999Z</time></trkpt><trkpt lat="31.090833160050842" lon="-6.20172509759208"><ele>1492.1666666666665</ele><time>2026-05-05T09:20:51.999Z</time></trkpt><trkpt lat="31.090775323044" lon="-6.201677612457225"><ele>1492.0</ele><time>2026-05-05T09:20:52.999Z</time></trkpt><trkpt lat="31.09071951284538" lon="-6.201629094626028"><ele>1492.0</ele><time>2026-05-05T09:20:53.999Z</time></trkpt><trkpt lat="31.090672673350667" lon="-6.201569519081816"><ele>1492.0</ele><time>2026-05-05T09:20:54.999Z</time></trkpt><trkpt lat="31.090636335724643" lon="-6.201495402270309"><ele>1492.0</ele><time>2026-05-05T09:20:55.999Z</time></trkpt><trkpt lat="31.090603796668486" lon="-6.201410490208321"><ele>1492.0</ele><time>2026-05-05T09:20:56.999Z</time></trkpt><trkpt lat="31.090557612375864" lon="-6.2013461441193645"><ele>1492.0</ele><time>2026-05-05T09:20:57.999Z</time></trkpt><trkpt lat="31.090479594000428" lon="-6.201237918350558"><ele>1492.0</ele><time>2026-05-05T09:20:59.999Z</time></trkpt><trkpt lat="31.090420866002134" lon="-6.201110600785317"><ele>1493.1999999999998</ele><time>2026-05-05T09:21:01.999Z</time></trkpt><trkpt lat="31.09041620244498" lon="-6.2009717597387795"><ele>1494.4</ele><time>2026-05-05T09:21:03.999Z</time></trkpt><trkpt lat="31.090466751471734" lon="-6.2008445796943095"><ele>1495.6</ele><time>2026-05-05T09:21:05.999Z</time></trkpt><trkpt lat="31.090533056639728" lon="-6.200739490726081"><ele>1496.8000000000002</ele><time>2026-05-05T09:21:07.999Z</time></trkpt><trkpt lat="31.09058589156956" lon="-6.200648370731906"><ele>1498.0</ele><time>2026-05-05T09:21:09.999Z</time></trkpt><trkpt lat="31.090556795979676" lon="-6.20057673259686"><ele>1498.0</ele><time>2026-05-05T09:21:11.999Z</time></trkpt><trkpt lat="31.090467086023516" lon="-6.200579470285071"><ele>1498.0</ele><time>2026-05-05T09:21:13.999Z</time></trkpt><trkpt lat="31.09036826654455" lon="-6.20065475846808"><ele>1498.0</ele><time>2026-05-05T09:21:15.999Z</time></trkpt><trkpt lat="31.090243679828188" lon="-6.200678706885276"><ele>1498.0</ele><time>2026-05-05T09:21:17.999Z</time></trkpt><trkpt lat="31.090165656538563" lon="-6.200685605930209"><ele>1498.0</ele><time>2026-05-05T09:21:18.999Z</time></trkpt><trkpt lat="31.090091461932143" lon="-6.200705150795591"><ele>1498.0</ele><time>2026-05-05T09:21:19.999Z</time></trkpt><trkpt lat="31.090025081777814" lon="-6.200730683916186"><ele>1498.0</ele><time>2026-05-05T09:21:20.999Z</time></trkpt><trkpt lat="31.089965876574592" lon="-6.200773709657206"><ele>1498.0</ele><time>2026-05-05T09:21:21.999Z</time></trkpt><trkpt lat="31.08990405399589" lon="-6.200807974639797"><ele>1498.0</ele><time>2026-05-05T09:21:22.999Z</time></trkpt><trkpt lat="31.08983830698352" lon="-6.2008277237292"><ele>1498.0</ele><time>2026-05-05T09:21:23.999Z</time></trkpt><trkpt lat="31.089759060860292" lon="-6.20084359724249"><ele>1498.0</ele><time>2026-05-05T09:21:24.999Z</time></trkpt><trkpt lat="31.089684465855612" lon="-6.20086482328827"><ele>1498.0</ele><time>2026-05-05T09:21:25.999Z</time></trkpt><trkpt lat="31.089620842560013" lon="-6.200900612836709"><ele>1497.857142857143</ele><time>2026-05-05T09:21:26.999Z</time></trkpt><trkpt lat="31.089556790366203" lon="-6.200937413122453"><ele>1497.7142857142858</ele><time>2026-05-05T09:21:27.999Z</time></trkpt><trkpt lat="31.08949190352806" lon="-6.200970675370607"><ele>1497.5714285714284</ele><time>2026-05-05T09:21:28.999Z</time></trkpt><trkpt lat="31.089425846173047" lon="-6.201004500862938"><ele>1497.4285714285716</ele><time>2026-05-05T09:21:29.999Z</time></trkpt><trkpt lat="31.08935623416611" lon="-6.201035222550878"><ele>1497.2857142857142</ele><time>2026-05-05T09:21:30.999Z</time></trkpt><trkpt lat="31.089283486909515" lon="-6.201060486638685"><ele>1497.142857142857</ele><time>2026-05-05T09:21:31.999Z</time></trkpt><trkpt lat="31.08920903091155" lon="-6.201071317412739"><ele>1497.0</ele><time>2026-05-05T09:21:32.999Z</time></trkpt><trkpt lat="31.089132710536568" lon="-6.2010773774082715"><ele>1496.5</ele><time>2026-05-05T09:21:33.999Z</time></trkpt><trkpt lat="31.089061860179818" lon="-6.201083240884111"><ele>1496.0</ele><time>2026-05-05T09:21:34.999Z</time></trkpt><trkpt lat="31.088993128626562" lon="-6.2010895327412765"><ele>1495.5</ele><time>2026-05-05T09:21:35.999Z</time></trkpt><trkpt lat="31.088930242695653" lon="-6.201095420168184"><ele>1495.0</ele><time>2026-05-05T09:21:36.999Z</time></trkpt><trkpt lat="31.08882619367356" lon="-6.201102832323899"><ele>1494.5</ele><time>2026-05-05T09:21:38.999Z</time></trkpt><trkpt lat="31.088706621432415" lon="-6.201098442330223"><ele>1494.0</ele><time>2026-05-05T09:21:40.999Z</time></trkpt><trkpt lat="31.08860152521358" lon="-6.201048437474593"><ele>1494.0</ele><time>2026-05-05T09:21:42.999Z</time></trkpt><trkpt lat="31.08852166335895" lon="-6.200966068989043"><ele>1494.0</ele><time>2026-05-05T09:21:44.999Z</time></trkpt><trkpt lat="31.088455098579765" lon="-6.20088484951098"><ele>1494.0</ele><time>2026-05-05T09:21:46.999Z</time></trkpt><trkpt lat="31.088365832527483" lon="-6.200839495687771"><ele>1494.0</ele><time>2026-05-05T09:21:48.999Z</time></trkpt><trkpt lat="31.08826376568252" lon="-6.200859387319046"><ele>1494.0</ele><time>2026-05-05T09:21:50.999Z</time></trkpt><trkpt lat="31.08817773866057" lon="-6.200913917753293"><ele>1494.8000000000002</ele><time>2026-05-05T09:21:52.999Z</time></trkpt><trkpt lat="31.088092833309428" lon="-6.201010607109479"><ele>1495.6000000000001</ele><time>2026-05-05T09:21:54.999Z</time></trkpt><trkpt lat="31.08808312198032" lon="-6.201135365065129"><ele>1496.4</ele><time>2026-05-05T09:21:56.999Z</time></trkpt><trkpt lat="31.088085919489096" lon="-6.201211972620397"><ele>1497.2</ele><time>2026-05-05T09:21:57.999Z</time></trkpt><trkpt lat="31.08811675804925" lon="-6.201349811468461"><ele>1498.0</ele><time>2026-05-05T09:21:59.999Z</time></trkpt><trkpt lat="31.08815979086408" lon="-6.201481297055396"><ele>1498.0</ele><time>2026-05-05T09:22:01.999Z</time></trkpt><trkpt lat="31.088154155827265" lon="-6.201619782860252"><ele>1498.0</ele><time>2026-05-05T09:22:03.999Z</time></trkpt><trkpt lat="31.088069886725037" lon="-6.201701462181313"><ele>1498.0</ele><time>2026-05-05T09:22:05.999Z</time></trkpt><trkpt lat="31.088011511969043" lon="-6.201741490573837"><ele>1498.0</ele><time>2026-05-05T09:22:06.999Z</time></trkpt><trkpt lat="31.08794253902984" lon="-6.201777486141628"><ele>1498.0</ele><time>2026-05-05T09:22:07.999Z</time></trkpt><trkpt lat="31.087875776275787" lon="-6.201787028893968"><ele>1498.0</ele><time>2026-05-05T09:22:08.999Z</time></trkpt><trkpt lat="31.087751411659404" lon="-6.201776322243662"><ele>1498.0</ele><time>2026-05-05T09:22:10.999Z</time></trkpt><trkpt lat="31.087623885653404" lon="-6.201728058503714"><ele>1498.0</ele><time>2026-05-05T09:22:12.999Z</time></trkpt><trkpt lat="31.087556195800644" lon="-6.201703663641983"><ele>1498.0</ele><time>2026-05-05T09:22:13.999Z</time></trkpt><trkpt lat="31.087443659907276" lon="-6.201668152776739"><ele>1498.0</ele><time>2026-05-05T09:22:15.999Z</time></trkpt><trkpt lat="31.087325174238135" lon="-6.201703590702848"><ele>1498.0</ele><time>2026-05-05T09:22:17.999Z</time></trkpt><trkpt lat="31.087235718327907" lon="-6.2017915860678485"><ele>1498.6000000000001</ele><time>2026-05-05T09:22:19.999Z</time></trkpt><trkpt lat="31.087172565913406" lon="-6.201901222394864"><ele>1499.2</ele><time>2026-05-05T09:22:21.999Z</time></trkpt><trkpt lat="31.08708205405092" lon="-6.201994298130412"><ele>1499.8</ele><time>2026-05-05T09:22:23.999Z</time></trkpt><trkpt lat="31.087000880272388" lon="-6.202069979751826"><ele>1500.4</ele><time>2026-05-05T09:22:25.999Z</time></trkpt><trkpt lat="31.086926968254108" lon="-6.2021259118948695"><ele>1501.0</ele><time>2026-05-05T09:22:27.999Z</time></trkpt><trkpt lat="31.086859752967904" lon="-6.202113059539506"><ele>1501.0</ele><time>2026-05-05T09:22:30Z</time></trkpt><trkpt lat="31.086823129439125" lon="-6.202033488760349"><ele>1501.0</ele><time>2026-05-05T09:22:32Z</time></trkpt><trkpt lat="31.086809854315096" lon="-6.201885884969888"><ele>1501.0</ele><time>2026-05-05T09:22:34Z</time></trkpt><trkpt lat="31.086811378783757" lon="-6.201798498041274"><ele>1501.0</ele><time>2026-05-05T09:22:35Z</time></trkpt><trkpt lat="31.086796695289785" lon="-6.2016704501928395"><ele>1501.0</ele><time>2026-05-05T09:22:37Z</time></trkpt><trkpt lat="31.086760384615953" lon="-6.201607864679975"><ele>1501.0</ele><time>2026-05-05T09:22:38Z</time></trkpt><trkpt lat="31.08671622459587" lon="-6.201546247580526"><ele>1501.0</ele><time>2026-05-05T09:22:39Z</time></trkpt><trkpt lat="31.086654640081402" lon="-6.201495886161058"><ele>1501.0</ele><time>2026-05-05T09:22:40Z</time></trkpt><trkpt lat="31.0865505628683" lon="-6.20139988303074"><ele>1501.0</ele><time>2026-05-05T09:22:42Z</time></trkpt><trkpt lat="31.086490401762727" lon="-6.201362918099066"><ele>1501.0</ele><time>2026-05-05T09:22:43Z</time></trkpt><trkpt lat="31.086374009588788" lon="-6.201366382290562"><ele>1502.8333333333333</ele><time>2026-05-05T09:22:45Z</time></trkpt><trkpt lat="31.086303525528997" lon="-6.201391133196807"><ele>1504.6666666666665</ele><time>2026-05-05T09:22:46Z</time></trkpt><trkpt lat="31.086227807096098" lon="-6.201412437569525"><ele>1506.5</ele><time>2026-05-05T09:22:47Z</time></trkpt><trkpt lat="31.086148882336165" lon="-6.201404640747358"><ele>1508.3333333333333</ele><time>2026-05-05T09:22:48Z</time></trkpt><trkpt lat="31.08606935112492" lon="-6.2013825288351425"><ele>1510.1666666666667</ele><time>2026-05-05T09:22:49Z</time></trkpt><trkpt lat="31.085993410779416" lon="-6.201365694304756"><ele>1512.0</ele><time>2026-05-05T09:22:50Z</time></trkpt><trkpt lat="31.085919426987324" lon="-6.201346044204403"><ele>1512.0</ele><time>2026-05-05T09:22:51Z</time></trkpt><trkpt lat="31.085843741878488" lon="-6.201326076094464"><ele>1512.0</ele><time>2026-05-05T09:22:52Z</time></trkpt><trkpt lat="31.085769662285095" lon="-6.2012903250741775"><ele>1512.0</ele><time>2026-05-05T09:22:53Z</time></trkpt><trkpt lat="31.085701077725364" lon="-6.2012443238628725"><ele>1512.0</ele><time>2026-05-05T09:22:54Z</time></trkpt><trkpt lat="31.085637195509726" lon="-6.201196708733427"><ele>1512.0</ele><time>2026-05-05T09:22:55Z</time></trkpt><trkpt lat="31.085582468323476" lon="-6.20113559166079"><ele>1512.0</ele><time>2026-05-05T09:22:56Z</time></trkpt><trkpt lat="31.085543769133256" lon="-6.201066240845786"><ele>1513.5</ele><time>2026-05-05T09:22:57Z</time></trkpt><trkpt lat="31.085500460780402" lon="-6.200979830377109"><ele>1515.0</ele><time>2026-05-05T09:22:58Z</time></trkpt><trkpt lat="31.085453917667927" lon="-6.2009009288684185"><ele>1516.5</ele><time>2026-05-05T09:22:59Z</time></trkpt><trkpt lat="31.085401709383806" lon="-6.20083255161206"><ele>1518.0</ele><time>2026-05-05T09:23:00Z</time></trkpt><trkpt lat="31.085345348121262" lon="-6.200774845087478"><ele>1519.5</ele><time>2026-05-05T09:23:01Z</time></trkpt><trkpt lat="31.085281474329093" lon="-6.200718383759908"><ele>1521.0</ele><time>2026-05-05T09:23:02Z</time></trkpt><trkpt lat="31.085224265288517" lon="-6.200681344086995"><ele>1521.0</ele><time>2026-05-05T09:23:03Z</time></trkpt><trkpt lat="31.085158820030703" lon="-6.200665140226311"><ele>1521.0</ele><time>2026-05-05T09:23:04Z</time></trkpt><trkpt lat="31.08509163681914" lon="-6.20067935791021"><ele>1521.0</ele><time>2026-05-05T09:23:05Z</time></trkpt><trkpt lat="31.085027092723454" lon="-6.200715029563576"><ele>1521.0</ele><time>2026-05-05T09:23:06Z</time></trkpt><trkpt lat="31.084904842999208" lon="-6.200759522834583"><ele>1521.0</ele><time>2026-05-05T09:23:08Z</time></trkpt><trkpt lat="31.084829798518694" lon="-6.200746568904551"><ele>1521.0</ele><time>2026-05-05T09:23:09Z</time></trkpt><trkpt lat="31.084753567804984" lon="-6.200722517366091"><ele>1522.6666666666667</ele><time>2026-05-05T09:23:10Z</time></trkpt><trkpt lat="31.084684243412458" lon="-6.200694553533134"><ele>1524.3333333333333</ele><time>2026-05-05T09:23:11Z</time></trkpt><trkpt lat="31.084620710417095" lon="-6.200657008838069"><ele>1526.0</ele><time>2026-05-05T09:23:12Z</time></trkpt><trkpt lat="31.08456969860395" lon="-6.20060565566247"><ele>1527.6666666666665</ele><time>2026-05-05T09:23:13Z</time></trkpt><trkpt lat="31.084464028484664" lon="-6.2005208460347925"><ele>1529.3333333333333</ele><time>2026-05-05T09:23:14.999Z</time></trkpt><trkpt lat="31.08440303680938" lon="-6.200494749815402"><ele>1531.0</ele><time>2026-05-05T09:23:15.999Z</time></trkpt><trkpt lat="31.08427835075087" lon="-6.200459802591273"><ele>1531.0</ele><time>2026-05-05T09:23:17.999Z</time></trkpt><trkpt lat="31.084171135505667" lon="-6.200419398111644"><ele>1531.0</ele><time>2026-05-05T09:23:19.999Z</time></trkpt><trkpt lat="31.084096292529235" lon="-6.200324516566296"><ele>1531.0</ele><time>2026-05-05T09:23:21.999Z</time></trkpt><trkpt lat="31.084053901859754" lon="-6.200190175791875"><ele>1531.0</ele><time>2026-05-05T09:23:23.999Z</time></trkpt><trkpt lat="31.083984663796816" lon="-6.200077025138047"><ele>1532.4</ele><time>2026-05-05T09:23:25.999Z</time></trkpt><trkpt lat="31.083886943431164" lon="-6.200036913578585"><ele>1533.8</ele><time>2026-05-05T09:23:27.999Z</time></trkpt><trkpt lat="31.08379531397326" lon="-6.200077039346086"><ele>1535.2</ele><time>2026-05-05T09:23:29.999Z</time></trkpt><trkpt lat="31.08375619616884" lon="-6.200200235686349"><ele>1536.6000000000001</ele><time>2026-05-05T09:23:31.999Z</time></trkpt><trkpt lat="31.08371801219249" lon="-6.200304950060507"><ele>1538.0</ele><time>2026-05-05T09:23:33.999Z</time></trkpt><trkpt lat="31.083653828630947" lon="-6.200385674968139"><ele>1537.9999999999998</ele><time>2026-05-05T09:23:35.999Z</time></trkpt><trkpt lat="31.083574008082124" lon="-6.200427707104284"><ele>1538.0</ele><time>2026-05-05T09:23:37.999Z</time></trkpt><trkpt lat="31.083486546055813" lon="-6.20040926672829"><ele>1538.0</ele><time>2026-05-05T09:23:39.999Z</time></trkpt><trkpt lat="31.08342410831104" lon="-6.200377741812158"><ele>1538.0</ele><time>2026-05-05T09:23:40.999Z</time></trkpt><trkpt lat="31.083352178351632" lon="-6.200340085275877"><ele>1537.9999999999998</ele><time>2026-05-05T09:23:41.999Z</time></trkpt><trkpt lat="31.0832734004913" lon="-6.200309608742465"><ele>1538.0</ele><time>2026-05-05T09:23:42.999Z</time></trkpt><trkpt lat="31.083184196521547" lon="-6.200303254788217"><ele>1539.4999999999998</ele><time>2026-05-05T09:23:43.999Z</time></trkpt><trkpt lat="31.083095180308355" lon="-6.200330670803957"><ele>1541.0</ele><time>2026-05-05T09:23:44.999Z</time></trkpt><trkpt lat="31.083018370997568" lon="-6.200372786608763"><ele>1542.5</ele><time>2026-05-05T09:23:45.999Z</time></trkpt><trkpt lat="31.082941634011394" lon="-6.200432050403709"><ele>1544.0</ele><time>2026-05-05T09:23:46.999Z</time></trkpt><trkpt lat="31.08286589153118" lon="-6.200493701424359"><ele>1545.4999999999998</ele><time>2026-05-05T09:23:47.999Z</time></trkpt><trkpt lat="31.082797443953652" lon="-6.200558049016744"><ele>1547.0</ele><time>2026-05-05T09:23:48.999Z</time></trkpt><trkpt lat="31.08272351854922" lon="-6.200617951932892"><ele>1546.6666666666665</ele><time>2026-05-05T09:23:49.999Z</time></trkpt><trkpt lat="31.082655190120228" lon="-6.200682295716723"><ele>1546.3333333333333</ele><time>2026-05-05T09:23:50.999Z</time></trkpt><trkpt lat="31.082599995550705" lon="-6.200743474765726"><ele>1546.0</ele><time>2026-05-05T09:23:51.999Z</time></trkpt><trkpt lat="31.082490316704845" lon="-6.200822190334163"><ele>1545.6666666666665</ele><time>2026-05-05T09:23:53.999Z</time></trkpt><trkpt lat="31.0824245297919" lon="-6.200813280646985"><ele>1545.3333333333333</ele><time>2026-05-05T09:23:54.999Z</time></trkpt><trkpt lat="31.082357399465696" lon="-6.200785349694308"><ele>1545.0</ele><time>2026-05-05T09:23:55.999Z</time></trkpt><trkpt lat="31.082299066505406" lon="-6.200732424919578"><ele>1547.1666666666667</ele><time>2026-05-05T09:23:56.999Z</time></trkpt><trkpt lat="31.082251454369068" lon="-6.2006632944409406"><ele>1549.3333333333335</ele><time>2026-05-05T09:23:57.999Z</time></trkpt><trkpt lat="31.08221455525283" lon="-6.200592291295056"><ele>1551.5</ele><time>2026-05-05T09:23:58.999Z</time></trkpt><trkpt lat="31.0821809131661" lon="-6.200505563385935"><ele>1553.6666666666667</ele><time>2026-05-05T09:23:59.999Z</time></trkpt><trkpt lat="31.08214172729127" lon="-6.200411586168052"><ele>1555.8333333333335</ele><time>2026-05-05T09:24:00.999Z</time></trkpt><trkpt lat="31.08209239102358" lon="-6.200320787788976"><ele>1558.0</ele><time>2026-05-05T09:24:01.999Z</time></trkpt><trkpt lat="31.082038839571585" lon="-6.200234897404617"><ele>1558.0000000000002</ele><time>2026-05-05T09:24:02.999Z</time></trkpt><trkpt lat="31.081980493696847" lon="-6.200163369799946"><ele>1558.0</ele><time>2026-05-05T09:24:03.999Z</time></trkpt><trkpt lat="31.081912613021167" lon="-6.200112247029466"><ele>1558.0</ele><time>2026-05-05T09:24:04.999Z</time></trkpt><trkpt lat="31.081845341405586" lon="-6.2000653945879725"><ele>1558.0</ele><time>2026-05-05T09:24:05.999Z</time></trkpt><trkpt lat="31.081773608739237" lon="-6.2000403574332354"><ele>1558.0000000000002</ele><time>2026-05-05T09:24:06.999Z</time></trkpt><trkpt lat="31.081690805483124" lon="-6.200027807383829"><ele>1558.0</ele><time>2026-05-05T09:24:07.999Z</time></trkpt><trkpt lat="31.081608376292827" lon="-6.2000299641628125"><ele>1559.0000000000002</ele><time>2026-05-05T09:24:08.999Z</time></trkpt><trkpt lat="31.08152484777326" lon="-6.200024142138506"><ele>1560.0</ele><time>2026-05-05T09:24:09.999Z</time></trkpt><trkpt lat="31.081445044050373" lon="-6.200034959756116"><ele>1561.0</ele><time>2026-05-05T09:24:10.999Z</time></trkpt><trkpt lat="31.08137799701683" lon="-6.200064827319008"><ele>1562.0</ele><time>2026-05-05T09:24:11.999Z</time></trkpt><trkpt lat="31.081318352536908" lon="-6.200112700930636"><ele>1563.0000000000002</ele><time>2026-05-05T09:24:12.999Z</time></trkpt><trkpt lat="31.081261407251183" lon="-6.200173570077631"><ele>1564.0</ele><time>2026-05-05T09:24:13.999Z</time></trkpt><trkpt lat="31.0812060748911" lon="-6.200239360711047"><ele>1564.0000000000002</ele><time>2026-05-05T09:24:14.999Z</time></trkpt><trkpt lat="31.081157939665985" lon="-6.200311927711716"><ele>1564.0</ele><time>2026-05-05T09:24:15.999Z</time></trkpt><trkpt lat="31.08112665229285" lon="-6.200394744338858"><ele>1564.0</ele><time>2026-05-05T09:24:16.999Z</time></trkpt><trkpt lat="31.081106102070134" lon="-6.2004845418319725"><ele>1564.0</ele><time>2026-05-05T09:24:17.999Z</time></trkpt><trkpt lat="31.081101272946814" lon="-6.200584014328112"><ele>1564.0000000000002</ele><time>2026-05-05T09:24:18.999Z</time></trkpt><trkpt lat="31.081095944859324" lon="-6.200675906210721"><ele>1564.0</ele><time>2026-05-05T09:24:19.999Z</time></trkpt><trkpt lat="31.08108656813109" lon="-6.200760243899033"><ele>1563.8333333333335</ele><time>2026-05-05T09:24:20.999Z</time></trkpt><trkpt lat="31.081065736250007" lon="-6.200847502437713"><ele>1563.6666666666667</ele><time>2026-05-05T09:24:21.999Z</time></trkpt><trkpt lat="31.08102843167788" lon="-6.200932131873242"><ele>1563.5</ele><time>2026-05-05T09:24:22.999Z</time></trkpt><trkpt lat="31.0809764151462" lon="-6.201015149069231"><ele>1563.3333333333335</ele><time>2026-05-05T09:24:23.999Z</time></trkpt><trkpt lat="31.080910862134274" lon="-6.201078319556015"><ele>1563.1666666666667</ele><time>2026-05-05T09:24:24.999Z</time></trkpt><trkpt lat="31.080856028014512" lon="-6.201145669825745"><ele>1563.0</ele><time>2026-05-05T09:24:25.999Z</time></trkpt><trkpt lat="31.080817339917502" lon="-6.201228187416594"><ele>1563.0</ele><time>2026-05-05T09:24:26.999Z</time></trkpt><trkpt lat="31.080791739374657" lon="-6.201319369254015"><ele>1563.0</ele><time>2026-05-05T09:24:27.999Z</time></trkpt><trkpt lat="31.08078286219963" lon="-6.201417919487642"><ele>1563.0</ele><time>2026-05-05T09:24:28.999Z</time></trkpt><trkpt lat="31.080784658858736" lon="-6.201521089995049"><ele>1563.0</ele><time>2026-05-05T09:24:29.999Z</time></trkpt><trkpt lat="31.080780095651942" lon="-6.2016214476755875"><ele>1563.0</ele><time>2026-05-05T09:24:30.999Z</time></trkpt><trkpt lat="31.080766037699906" lon="-6.201716072217405"><ele>1563.0</ele><time>2026-05-05T09:24:31.999Z</time></trkpt><trkpt lat="31.08074024452962" lon="-6.201809796429428"><ele>1562.3333333333333</ele><time>2026-05-05T09:24:32.999Z</time></trkpt><trkpt lat="31.080711750837807" lon="-6.20189878924559"><ele>1561.6666666666665</ele><time>2026-05-05T09:24:33.999Z</time></trkpt><trkpt lat="31.08068191414791" lon="-6.201986616568333"><ele>1561.0</ele><time>2026-05-05T09:24:34.999Z</time></trkpt><trkpt lat="31.080640837468604" lon="-6.202072868995051"><ele>1560.3333333333333</ele><time>2026-05-05T09:24:36Z</time></trkpt><trkpt lat="31.080591501024557" lon="-6.202156533629017"><ele>1559.6666666666665</ele><time>2026-05-05T09:24:37Z</time></trkpt><trkpt lat="31.08054202680978" lon="-6.202237449788537"><ele>1559.0</ele><time>2026-05-05T09:24:38Z</time></trkpt><trkpt lat="31.08049211925743" lon="-6.202316904801002"><ele>1558.6666666666665</ele><time>2026-05-05T09:24:39Z</time></trkpt><trkpt lat="31.080435098627152" lon="-6.202391959505341"><ele>1558.3333333333333</ele><time>2026-05-05T09:24:40Z</time></trkpt><trkpt lat="31.08037683264857" lon="-6.202469115945555"><ele>1558.0</ele><time>2026-05-05T09:24:41Z</time></trkpt><trkpt lat="31.080319535503914" lon="-6.202539433580281"><ele>1557.6666666666665</ele><time>2026-05-05T09:24:42Z</time></trkpt><trkpt lat="31.080256603349316" lon="-6.202589005296255"><ele>1557.3333333333333</ele><time>2026-05-05T09:24:43Z</time></trkpt><trkpt lat="31.08018758438522" lon="-6.202619133287245"><ele>1557.0</ele><time>2026-05-05T09:24:44Z</time></trkpt><trkpt lat="31.080122937605097" lon="-6.202635977156355"><ele>1557.0</ele><time>2026-05-05T09:24:45Z</time></trkpt><trkpt lat="31.080060488456613" lon="-6.202653783544306"><ele>1557.0</ele><time>2026-05-05T09:24:46Z</time></trkpt><trkpt lat="31.079954983421615" lon="-6.202740239538868"><ele>1557.0</ele><time>2026-05-05T09:24:48Z</time></trkpt><trkpt lat="31.07989707015567" lon="-6.202774503801863"><ele>1557.0</ele><time>2026-05-05T09:24:49Z</time></trkpt><trkpt lat="31.079825978405495" lon="-6.202785910637087"><ele>1557.0</ele><time>2026-05-05T09:24:50Z</time></trkpt><trkpt lat="31.079748330271315" lon="-6.202765552208293"><ele>1557.0</ele><time>2026-05-05T09:24:51Z</time></trkpt><trkpt lat="31.0796698873034" lon="-6.202727594167801"><ele>1556.3999999999999</ele><time>2026-05-05T09:24:52Z</time></trkpt><trkpt lat="31.07960362954395" lon="-6.202674056772106"><ele>1555.8</ele><time>2026-05-05T09:24:53Z</time></trkpt><trkpt lat="31.079547783348644" lon="-6.20261937596754"><ele>1555.2</ele><time>2026-05-05T09:24:54Z</time></trkpt><trkpt lat="31.079490055538432" lon="-6.202568668653703"><ele>1554.6</ele><time>2026-05-05T09:24:55Z</time></trkpt><trkpt lat="31.079384404692767" lon="-6.20248865921765"><ele>1554.0</ele><time>2026-05-05T09:24:57Z</time></trkpt><trkpt lat="31.07925979490526" lon="-6.202479267658397"><ele>1554.0</ele><time>2026-05-05T09:24:59Z</time></trkpt><trkpt lat="31.079194704020143" lon="-6.202524816643206"><ele>1554.0</ele><time>2026-05-05T09:25:00Z</time></trkpt><trkpt lat="31.07912456422597" lon="-6.202582127924395"><ele>1554.0</ele><time>2026-05-05T09:25:01Z</time></trkpt><trkpt lat="31.07904803113921" lon="-6.202633406429876"><ele>1554.0</ele><time>2026-05-05T09:25:02Z</time></trkpt><trkpt lat="31.07896287759455" lon="-6.202676651196401"><ele>1554.0</ele><time>2026-05-05T09:25:03Z</time></trkpt><trkpt lat="31.078873408042433" lon="-6.202714344938095"><ele>1554.0</ele><time>2026-05-05T09:25:04Z</time></trkpt><trkpt lat="31.07877826637086" lon="-6.20274260590842"><ele>1554.4</ele><time>2026-05-05T09:25:05Z</time></trkpt><trkpt lat="31.078678581298625" lon="-6.2027513902928995"><ele>1554.8000000000002</ele><time>2026-05-05T09:25:06Z</time></trkpt><trkpt lat="31.078577593397956" lon="-6.20273773557395"><ele>1555.1999999999998</ele><time>2026-05-05T09:25:07Z</time></trkpt><trkpt lat="31.078470414478442" lon="-6.202716207878509"><ele>1555.6</ele><time>2026-05-05T09:25:08Z</time></trkpt><trkpt lat="31.078363285820352" lon="-6.2026916128581915"><ele>1556.0</ele><time>2026-05-05T09:25:09Z</time></trkpt><trkpt lat="31.078257573641608" lon="-6.20267691609626"><ele>1556.1999999999998</ele><time>2026-05-05T09:25:10Z</time></trkpt><trkpt lat="31.07816101972772" lon="-6.202671575098141"><ele>1556.3999999999999</ele><time>2026-05-05T09:25:11Z</time></trkpt><trkpt lat="31.078060420204295" lon="-6.202673769437762"><ele>1556.6</ele><time>2026-05-05T09:25:12Z</time></trkpt><trkpt lat="31.077956737701896" lon="-6.202677623391366"><ele>1556.8</ele><time>2026-05-05T09:25:13Z</time></trkpt><trkpt lat="31.07785844627566" lon="-6.202670269166595"><ele>1557.0</ele><time>2026-05-05T09:25:14Z</time></trkpt><trkpt lat="31.077769286003626" lon="-6.202649743303265"><ele>1557.0</ele><time>2026-05-05T09:25:15Z</time></trkpt><trkpt lat="31.077676140422632" lon="-6.2026186579038365"><ele>1557.0</ele><time>2026-05-05T09:25:15.999Z</time></trkpt><trkpt lat="31.0775856559298" lon="-6.202605864398194"><ele>1557.0</ele><time>2026-05-05T09:25:16.999Z</time></trkpt><trkpt lat="31.07749399037149" lon="-6.202604599527703"><ele>1557.0</ele><time>2026-05-05T09:25:17.999Z</time></trkpt><trkpt lat="31.077397310327076" lon="-6.202611516581284"><ele>1557.0</ele><time>2026-05-05T09:25:18.999Z</time></trkpt><trkpt lat="31.077299861383537" lon="-6.202615350282043"><ele>1557.0</ele><time>2026-05-05T09:25:19.999Z</time></trkpt><trkpt lat="31.077194972750593" lon="-6.202614382285758"><ele>1557.0</ele><time>2026-05-05T09:25:20.999Z</time></trkpt><trkpt lat="31.077089372534488" lon="-6.2026051094780295"><ele>1557.0</ele><time>2026-05-05T09:25:21.999Z</time></trkpt><trkpt lat="31.076980507110513" lon="-6.202597694369901"><ele>1557.0</ele><time>2026-05-05T09:25:22.999Z</time></trkpt><trkpt lat="31.07687550027812" lon="-6.20260057243511"><ele>1557.0</ele><time>2026-05-05T09:25:23.999Z</time></trkpt><trkpt lat="31.076769165663134" lon="-6.202605651187573"><ele>1557.0</ele><time>2026-05-05T09:25:24.999Z</time></trkpt><trkpt lat="31.076662590970102" lon="-6.2026094388988025"><ele>1557.0</ele><time>2026-05-05T09:25:25.999Z</time></trkpt><trkpt lat="31.076554940129668" lon="-6.20260934305396"><ele>1557.0</ele><time>2026-05-05T09:25:26.999Z</time></trkpt><trkpt lat="31.07644840765754" lon="-6.202609241125985"><ele>1557.0</ele><time>2026-05-05T09:25:27.999Z</time></trkpt><trkpt lat="31.076341393211024" lon="-6.202612227318315"><ele>1557.0</ele><time>2026-05-05T09:25:28.999Z</time></trkpt><trkpt lat="31.07623179627763" lon="-6.202612434406101"><ele>1557.8</ele><time>2026-05-05T09:25:29.999Z</time></trkpt><trkpt lat="31.07612379421846" lon="-6.202612163972045"><ele>1558.6</ele><time>2026-05-05T09:25:30.999Z</time></trkpt><trkpt lat="31.076014611469656" lon="-6.202614504382649"><ele>1559.3999999999999</ele><time>2026-05-05T09:25:31.999Z</time></trkpt><trkpt lat="31.075907291681098" lon="-6.20261371808099"><ele>1560.1999999999998</ele><time>2026-05-05T09:25:32.999Z</time></trkpt><trkpt lat="31.075794230448672" lon="-6.202612876589538"><ele>1561.0</ele><time>2026-05-05T09:25:33.999Z</time></trkpt><trkpt lat="31.075683250115702" lon="-6.202612612850288"><ele>1561.6</ele><time>2026-05-05T09:25:34.999Z</time></trkpt><trkpt lat="31.07556990263677" lon="-6.202605682355779"><ele>1562.1999999999998</ele><time>2026-05-05T09:25:35.999Z</time></trkpt><trkpt lat="31.075464618687487" lon="-6.202597498612859"><ele>1562.8000000000002</ele><time>2026-05-05T09:25:36.999Z</time></trkpt><trkpt lat="31.07536104235327" lon="-6.202584431316557"><ele>1563.4</ele><time>2026-05-05T09:25:37.999Z</time></trkpt><trkpt lat="31.075273433278618" lon="-6.202577749422199"><ele>1564.0</ele><time>2026-05-05T09:25:38.999Z</time></trkpt><trkpt lat="31.075183516969712" lon="-6.202596191383541"><ele>1564.0</ele><time>2026-05-05T09:25:39.999Z</time></trkpt><trkpt lat="31.07509320144332" lon="-6.20264117815185"><ele>1564.0</ele><time>2026-05-05T09:25:40.999Z</time></trkpt><trkpt lat="31.0749954273299" lon="-6.2026803274545035"><ele>1564.0</ele><time>2026-05-05T09:25:41.999Z</time></trkpt><trkpt lat="31.074892113782052" lon="-6.202719688576936"><ele>1564.0</ele><time>2026-05-05T09:25:42.999Z</time></trkpt><trkpt lat="31.07478522937246" lon="-6.202757040347935"><ele>1564.0</ele><time>2026-05-05T09:25:43.999Z</time></trkpt><trkpt lat="31.074675160496533" lon="-6.202784883060459"><ele>1564.6</ele><time>2026-05-05T09:25:44.999Z</time></trkpt><trkpt lat="31.07456679534483" lon="-6.2028085712564955"><ele>1565.2</ele><time>2026-05-05T09:25:45.999Z</time></trkpt><trkpt lat="31.07445919592589" lon="-6.202842960015922"><ele>1565.8</ele><time>2026-05-05T09:25:46.999Z</time></trkpt><trkpt lat="31.074357945768064" lon="-6.202882644242915"><ele>1566.3999999999999</ele><time>2026-05-05T09:25:47.999Z</time></trkpt><trkpt lat="31.0742537109859" lon="-6.20291199749943"><ele>1567.0</ele><time>2026-05-05T09:25:48.999Z</time></trkpt><trkpt lat="31.074149251280136" lon="-6.202943816340168"><ele>1566.8</ele><time>2026-05-05T09:25:49.999Z</time></trkpt><trkpt lat="31.0740452364842" lon="-6.202972070270569"><ele>1566.6</ele><time>2026-05-05T09:25:50.999Z</time></trkpt><trkpt lat="31.073950632927083" lon="-6.202994260124713"><ele>1566.3999999999999</ele><time>2026-05-05T09:25:51.999Z</time></trkpt><trkpt lat="31.07385824394957" lon="-6.203008209998541"><ele>1566.1999999999998</ele><time>2026-05-05T09:25:52.999Z</time></trkpt><trkpt lat="31.073758710525187" lon="-6.203012234447331"><ele>1566.0</ele><time>2026-05-05T09:25:53.999Z</time></trkpt><trkpt lat="31.073653258495014" lon="-6.203001075132344"><ele>1566.0</ele><time>2026-05-05T09:25:54.999Z</time></trkpt><trkpt lat="31.07355108550693" lon="-6.202980483906566"><ele>1566.0</ele><time>2026-05-05T09:25:55.999Z</time></trkpt><trkpt lat="31.073443492247904" lon="-6.2029499074093915"><ele>1566.0</ele><time>2026-05-05T09:25:56.999Z</time></trkpt><trkpt lat="31.073343590889383" lon="-6.202930975217192"><ele>1566.0</ele><time>2026-05-05T09:25:57.999Z</time></trkpt><trkpt lat="31.073252868085497" lon="-6.202936588940225"><ele>1566.0</ele><time>2026-05-05T09:25:58.999Z</time></trkpt><trkpt lat="31.07315685202182" lon="-6.202954012554996"><ele>1566.1999999999998</ele><time>2026-05-05T09:25:59.999Z</time></trkpt><trkpt lat="31.073063749712404" lon="-6.202966532952829"><ele>1566.3999999999999</ele><time>2026-05-05T09:26:00.999Z</time></trkpt><trkpt lat="31.07296530690751" lon="-6.2029749868057245"><ele>1566.6</ele><time>2026-05-05T09:26:01.999Z</time></trkpt><trkpt lat="31.07286012775133" lon="-6.20296780762959"><ele>1566.8</ele><time>2026-05-05T09:26:02.999Z</time></trkpt><trkpt lat="31.072746986527065" lon="-6.202947443947757"><ele>1567.0</ele><time>2026-05-05T09:26:03.999Z</time></trkpt><trkpt lat="31.07263188923244" lon="-6.202926664676979"><ele>1567.0</ele><time>2026-05-05T09:26:04.999Z</time></trkpt><trkpt lat="31.072520910191628" lon="-6.202905489323216"><ele>1567.0</ele><time>2026-05-05T09:26:05.999Z</time></trkpt><trkpt lat="31.07242096153888" lon="-6.2028869194463345"><ele>1567.0</ele><time>2026-05-05T09:26:06.999Z</time></trkpt><trkpt lat="31.072339518651667" lon="-6.2028749546736455"><ele>1567.0</ele><time>2026-05-05T09:26:07.999Z</time></trkpt><trkpt lat="31.072261155315307" lon="-6.2028662086533215"><ele>1567.0</ele><time>2026-05-05T09:26:08.999Z</time></trkpt><trkpt lat="31.07218282405466" lon="-6.202851362017626"><ele>1567.5000000000002</ele><time>2026-05-05T09:26:09.999Z</time></trkpt><trkpt lat="31.072099442043076" lon="-6.2028304287946385"><ele>1568.0</ele><time>2026-05-05T09:26:10.999Z</time></trkpt><trkpt lat="31.072009246501977" lon="-6.202800940279283"><ele>1568.5</ele><time>2026-05-05T09:26:11.999Z</time></trkpt><trkpt lat="31.071943238116685" lon="-6.202768022145893"><ele>1569.0</ele><time>2026-05-05T09:26:12.999Z</time></trkpt><trkpt lat="31.071876642623856" lon="-6.202736487320312"><ele>1569.5000000000002</ele><time>2026-05-05T09:26:13.999Z</time></trkpt><trkpt lat="31.071805451815745" lon="-6.202711214743293"><ele>1570.0</ele><time>2026-05-05T09:26:14.999Z</time></trkpt><trkpt lat="31.071732353253456" lon="-6.20269214931857"><ele>1570.0000000000002</ele><time>2026-05-05T09:26:15.999Z</time></trkpt><trkpt lat="31.071653595462124" lon="-6.202683814257364"><ele>1570.0</ele><time>2026-05-05T09:26:16.999Z</time></trkpt><trkpt lat="31.071573147095624" lon="-6.202685973954585"><ele>1570.0</ele><time>2026-05-05T09:26:17.999Z</time></trkpt><trkpt lat="31.071485705781352" lon="-6.202694653722278"><ele>1570.0</ele><time>2026-05-05T09:26:18.999Z</time></trkpt><trkpt lat="31.071401514712846" lon="-6.202695863609587"><ele>1570.0000000000002</ele><time>2026-05-05T09:26:19.999Z</time></trkpt><trkpt lat="31.071314999253453" lon="-6.20268713576639"><ele>1570.0</ele><time>2026-05-05T09:26:20.999Z</time></trkpt><trkpt lat="31.071220773487752" lon="-6.202671153252547"><ele>1571.2</ele><time>2026-05-05T09:26:21.999Z</time></trkpt><trkpt lat="31.071132055989974" lon="-6.202660853068841"><ele>1572.4</ele><time>2026-05-05T09:26:22.999Z</time></trkpt><trkpt lat="31.071041137344903" lon="-6.202655369070495"><ele>1573.6</ele><time>2026-05-05T09:26:23.999Z</time></trkpt><trkpt lat="31.070950483183452" lon="-6.202654356265029"><ele>1574.8</ele><time>2026-05-05T09:26:24.999Z</time></trkpt><trkpt lat="31.070853901444707" lon="-6.202653958688168"><ele>1576.0</ele><time>2026-05-05T09:26:25.999Z</time></trkpt><trkpt lat="31.0707584842015" lon="-6.2026640877198345"><ele>1576.6666666666667</ele><time>2026-05-05T09:26:26.999Z</time></trkpt><trkpt lat="31.070670845157807" lon="-6.202677725213184"><ele>1577.3333333333335</ele><time>2026-05-05T09:26:27.999Z</time></trkpt><trkpt lat="31.07059212825648" lon="-6.202702134427636"><ele>1578.0</ele><time>2026-05-05T09:26:28.999Z</time></trkpt><trkpt lat="31.070517496194377" lon="-6.20273991663568"><ele>1578.6666666666665</ele><time>2026-05-05T09:26:29.999Z</time></trkpt><trkpt lat="31.070442948586166" lon="-6.202776267298672"><ele>1579.3333333333333</ele><time>2026-05-05T09:26:30.999Z</time></trkpt><trkpt lat="31.070354712051802" lon="-6.202784617163145"><ele>1580.0</ele><time>2026-05-05T09:26:31.999Z</time></trkpt><trkpt lat="31.070252611057636" lon="-6.202776234370084"><ele>1580.0</ele><time>2026-05-05T09:26:32.999Z</time></trkpt><trkpt lat="31.0701563548297" lon="-6.202768794078987"><ele>1580.0</ele><time>2026-05-05T09:26:33.999Z</time></trkpt><trkpt lat="31.07006343911659" lon="-6.202774685435038"><ele>1580.0</ele><time>2026-05-05T09:26:34.999Z</time></trkpt><trkpt lat="31.06996905859604" lon="-6.202772330576487"><ele>1580.0</ele><time>2026-05-05T09:26:35.999Z</time></trkpt><trkpt lat="31.069873205549488" lon="-6.202758674470317"><ele>1580.0</ele><time>2026-05-05T09:26:36.999Z</time></trkpt><trkpt lat="31.069778961269073" lon="-6.202758573665709"><ele>1580.6666666666665</ele><time>2026-05-05T09:26:37.999Z</time></trkpt><trkpt lat="31.069693536485648" lon="-6.202773561229623"><ele>1581.3333333333333</ele><time>2026-05-05T09:26:38.999Z</time></trkpt><trkpt lat="31.069607069766267" lon="-6.202775852596828"><ele>1582.0</ele><time>2026-05-05T09:26:39.999Z</time></trkpt><trkpt lat="31.069521882386262" lon="-6.202757433022507"><ele>1582.6666666666665</ele><time>2026-05-05T09:26:40.999Z</time></trkpt><trkpt lat="31.069436827460947" lon="-6.202721006249161"><ele>1583.3333333333333</ele><time>2026-05-05T09:26:42Z</time></trkpt><trkpt lat="31.069349198539392" lon="-6.202673560679902"><ele>1584.0</ele><time>2026-05-05T09:26:43Z</time></trkpt><trkpt lat="31.069263938586445" lon="-6.202626354316083"><ele>1584.0</ele><time>2026-05-05T09:26:44Z</time></trkpt><trkpt lat="31.069177110531175" lon="-6.2025906978428065"><ele>1584.0</ele><time>2026-05-05T09:26:45Z</time></trkpt><trkpt lat="31.069081703120013" lon="-6.202573263488096"><ele>1584.0</ele><time>2026-05-05T09:26:46Z</time></trkpt><trkpt lat="31.068981400221777" lon="-6.202566911854024"><ele>1584.0</ele><time>2026-05-05T09:26:47Z</time></trkpt><trkpt lat="31.06887535971953" lon="-6.202562301549916"><ele>1584.0</ele><time>2026-05-05T09:26:48Z</time></trkpt><trkpt lat="31.068778764878285" lon="-6.202549001405768"><ele>1584.6666666666667</ele><time>2026-05-05T09:26:49Z</time></trkpt><trkpt lat="31.068693333670666" lon="-6.202537197188273"><ele>1585.3333333333335</ele><time>2026-05-05T09:26:50Z</time></trkpt><trkpt lat="31.06861477881661" lon="-6.202529900353574"><ele>1586.0</ele><time>2026-05-05T09:26:51Z</time></trkpt><trkpt lat="31.068547130910932" lon="-6.202502577784776"><ele>1586.6666666666667</ele><time>2026-05-05T09:26:52Z</time></trkpt><trkpt lat="31.068484548137334" lon="-6.202445261821637"><ele>1587.3333333333335</ele><time>2026-05-05T09:26:53Z</time></trkpt><trkpt lat="31.068422750910567" lon="-6.202381867902841"><ele>1588.0</ele><time>2026-05-05T09:26:54Z</time></trkpt><trkpt lat="31.06835785900644" lon="-6.2023282496577705"><ele>1588.1666666666667</ele><time>2026-05-05T09:26:55Z</time></trkpt><trkpt lat="31.068286044933437" lon="-6.202299917279996"><ele>1588.3333333333335</ele><time>2026-05-05T09:26:56Z</time></trkpt><trkpt lat="31.068219726430314" lon="-6.202296833849861"><ele>1588.5</ele><time>2026-05-05T09:26:57Z</time></trkpt><trkpt lat="31.068139095001364" lon="-6.202290290644106"><ele>1588.6666666666665</ele><time>2026-05-05T09:26:58Z</time></trkpt><trkpt lat="31.068054887496125" lon="-6.2022892947969535"><ele>1588.8333333333333</ele><time>2026-05-05T09:26:59Z</time></trkpt><trkpt lat="31.0679585483559" lon="-6.202286644218086"><ele>1589.0</ele><time>2026-05-05T09:27:00Z</time></trkpt><trkpt lat="31.06787464709211" lon="-6.202278351149557"><ele>1588.9999999999998</ele><time>2026-05-05T09:27:01Z</time></trkpt><trkpt lat="31.06780005364241" lon="-6.202271629007125"><ele>1589.0</ele><time>2026-05-05T09:27:02Z</time></trkpt><trkpt lat="31.06772898474813" lon="-6.202272590923625"><ele>1589.0</ele><time>2026-05-05T09:27:03Z</time></trkpt><trkpt lat="31.067644904546665" lon="-6.202272320053116"><ele>1589.0</ele><time>2026-05-05T09:27:04Z</time></trkpt><trkpt lat="31.067562897341944" lon="-6.202278520620908"><ele>1588.9999999999998</ele><time>2026-05-05T09:27:05Z</time></trkpt><trkpt lat="31.067472732646895" lon="-6.202285978341737"><ele>1589.0</ele><time>2026-05-05T09:27:06Z</time></trkpt><trkpt lat="31.067389981491512" lon="-6.202292096094111"><ele>1588.3333333333333</ele><time>2026-05-05T09:27:07Z</time></trkpt><trkpt lat="31.067311776205926" lon="-6.202304141086563"><ele>1587.6666666666665</ele><time>2026-05-05T09:27:08Z</time></trkpt><trkpt lat="31.067236643227798" lon="-6.202312783262895"><ele>1587.0</ele><time>2026-05-05T09:27:09Z</time></trkpt><trkpt lat="31.067149710574725" lon="-6.202314653375968"><ele>1586.3333333333335</ele><time>2026-05-05T09:27:10Z</time></trkpt><trkpt lat="31.067067166328343" lon="-6.202327163095368"><ele>1585.6666666666667</ele><time>2026-05-05T09:27:11Z</time></trkpt><trkpt lat="31.066987555287877" lon="-6.202349764009297"><ele>1585.0</ele><time>2026-05-05T09:27:12Z</time></trkpt><trkpt lat="31.06690460209869" lon="-6.2023637276358405"><ele>1585.0</ele><time>2026-05-05T09:27:13Z</time></trkpt><trkpt lat="31.066814936255835" lon="-6.202367142994787"><ele>1585.0</ele><time>2026-05-05T09:27:14Z</time></trkpt><trkpt lat="31.066718869000265" lon="-6.202366714939682"><ele>1585.0</ele><time>2026-05-05T09:27:15Z</time></trkpt><trkpt lat="31.066626841400396" lon="-6.202359256042893"><ele>1585.0</ele><time>2026-05-05T09:27:16Z</time></trkpt><trkpt lat="31.06653189403043" lon="-6.202364065720125"><ele>1585.0</ele><time>2026-05-05T09:27:17Z</time></trkpt><trkpt lat="31.066440189546984" lon="-6.202387944191904"><ele>1585.2</ele><time>2026-05-05T09:27:18Z</time></trkpt><trkpt lat="31.066350921069013" lon="-6.202421545923776"><ele>1585.4</ele><time>2026-05-05T09:27:19Z</time></trkpt><trkpt lat="31.066267973999548" lon="-6.2024532689662"><ele>1585.6</ele><time>2026-05-05T09:27:20Z</time></trkpt><trkpt lat="31.06617858363743" lon="-6.202493435339688"><ele>1585.8</ele><time>2026-05-05T09:27:21Z</time></trkpt><trkpt lat="31.066089850622298" lon="-6.2025349828898495"><ele>1586.0</ele><time>2026-05-05T09:27:22Z</time></trkpt><trkpt lat="31.066000958446452" lon="-6.202570270383831"><ele>1585.9999999999998</ele><time>2026-05-05T09:27:22.999Z</time></trkpt><trkpt lat="31.06591469059015" lon="-6.202601621960375"><ele>1586.0</ele><time>2026-05-05T09:27:23.999Z</time></trkpt><trkpt lat="31.065832688374385" lon="-6.202631858312582"><ele>1586.0</ele><time>2026-05-05T09:27:24.999Z</time></trkpt><trkpt lat="31.065747239395648" lon="-6.202652932694669"><ele>1586.0</ele><time>2026-05-05T09:27:25.999Z</time></trkpt><trkpt lat="31.06565956133837" lon="-6.202664323870507"><ele>1585.9999999999998</ele><time>2026-05-05T09:27:26.999Z</time></trkpt><trkpt lat="31.065575168017176" lon="-6.202670230107211"><ele>1586.0</ele><time>2026-05-05T09:27:27.999Z</time></trkpt><trkpt lat="31.065490672805034" lon="-6.202676647217592"><ele>1585.4999999999998</ele><time>2026-05-05T09:27:28.999Z</time></trkpt><trkpt lat="31.06540767497449" lon="-6.202679591050127"><ele>1585.0</ele><time>2026-05-05T09:27:29.999Z</time></trkpt><trkpt lat="31.065330627103336" lon="-6.202660884351795"><ele>1584.5</ele><time>2026-05-05T09:27:30.999Z</time></trkpt><trkpt lat="31.065248351635283" lon="-6.202642725469138"><ele>1584.0</ele><time>2026-05-05T09:27:31.999Z</time></trkpt><trkpt lat="31.065164392879133" lon="-6.202637026942283"><ele>1583.4999999999998</ele><time>2026-05-05T09:27:32.999Z</time></trkpt><trkpt lat="31.06508399277116" lon="-6.202633800181294"><ele>1583.0</ele><time>2026-05-05T09:27:33.999Z</time></trkpt><trkpt lat="31.065010320185678" lon="-6.202629968502888"><ele>1582.1666666666665</ele><time>2026-05-05T09:27:34.999Z</time></trkpt><trkpt lat="31.064943178521485" lon="-6.202616464408573"><ele>1581.3333333333333</ele><time>2026-05-05T09:27:35.999Z</time></trkpt><trkpt lat="31.064880187026493" lon="-6.2025865687668205"><ele>1580.5</ele><time>2026-05-05T09:27:36.999Z</time></trkpt><trkpt lat="31.064814866833796" lon="-6.202545749513226"><ele>1579.6666666666665</ele><time>2026-05-05T09:27:37.999Z</time></trkpt><trkpt lat="31.064748056713125" lon="-6.202493384027411"><ele>1578.8333333333333</ele><time>2026-05-05T09:27:38.999Z</time></trkpt><trkpt lat="31.06468362086393" lon="-6.202442717434941"><ele>1578.0</ele><time>2026-05-05T09:27:39.999Z</time></trkpt><trkpt lat="31.06460848372067" lon="-6.202404243820695"><ele>1578.0</ele><time>2026-05-05T09:27:40.999Z</time></trkpt><trkpt lat="31.064528295750492" lon="-6.20239859643322"><ele>1578.0</ele><time>2026-05-05T09:27:41.999Z</time></trkpt><trkpt lat="31.06444221467488" lon="-6.202395661503374"><ele>1578.0</ele><time>2026-05-05T09:27:42.999Z</time></trkpt><trkpt lat="31.064351157525817" lon="-6.202397476771963"><ele>1578.0</ele><time>2026-05-05T09:27:43.999Z</time></trkpt><trkpt lat="31.064262624603984" lon="-6.2023967971367195"><ele>1578.0</ele><time>2026-05-05T09:27:44.999Z</time></trkpt><trkpt lat="31.064178863852526" lon="-6.202396055947789"><ele>1578.0</ele><time>2026-05-05T09:27:45.999Z</time></trkpt><trkpt lat="31.064106016428383" lon="-6.202390020671643"><ele>1577.6000000000001</ele><time>2026-05-05T09:27:46.999Z</time></trkpt><trkpt lat="31.064031682527208" lon="-6.202376782022243"><ele>1577.2</ele><time>2026-05-05T09:27:47.999Z</time></trkpt><trkpt lat="31.063952613817797" lon="-6.202368313397252"><ele>1576.8</ele><time>2026-05-05T09:27:48.999Z</time></trkpt><trkpt lat="31.06387858399354" lon="-6.202360042173247"><ele>1576.4</ele><time>2026-05-05T09:27:49.999Z</time></trkpt><trkpt lat="31.063768253858793" lon="-6.202289882287045"><ele>1576.0</ele><time>2026-05-05T09:27:51.999Z</time></trkpt><trkpt lat="31.06365024241821" lon="-6.202245282029838"><ele>1576.7142857142858</ele><time>2026-05-05T09:27:53.999Z</time></trkpt><trkpt lat="31.063575151694963" lon="-6.202240998606753"><ele>1577.4285714285716</ele><time>2026-05-05T09:27:54.999Z</time></trkpt><trkpt lat="31.063508950117093" lon="-6.202239534303676"><ele>1578.142857142857</ele><time>2026-05-05T09:27:55.999Z</time></trkpt><trkpt lat="31.06343222532143" lon="-6.202220079955068"><ele>1578.857142857143</ele><time>2026-05-05T09:27:56.999Z</time></trkpt><trkpt lat="31.06335997497644" lon="-6.2021976176820415"><ele>1579.5714285714284</ele><time>2026-05-05T09:27:57.999Z</time></trkpt><trkpt lat="31.063280551399103" lon="-6.202183019301253"><ele>1580.2857142857142</ele><time>2026-05-05T09:27:58.999Z</time></trkpt><trkpt lat="31.06320923658725" lon="-6.202160328387175"><ele>1581.0</ele><time>2026-05-05T09:27:59.999Z</time></trkpt><trkpt lat="31.06314238703939" lon="-6.202124222862595"><ele>1581.0</ele><time>2026-05-05T09:28:00.999Z</time></trkpt><trkpt lat="31.063073943825675" lon="-6.202082090798871"><ele>1581.0</ele><time>2026-05-05T09:28:01.999Z</time></trkpt><trkpt lat="31.063009639078558" lon="-6.202042707305663"><ele>1581.0</ele><time>2026-05-05T09:28:02.999Z</time></trkpt><trkpt lat="31.062939215086175" lon="-6.2020104715994995"><ele>1581.0</ele><time>2026-05-05T09:28:03.999Z</time></trkpt><trkpt lat="31.062867591303647" lon="-6.20198709185804"><ele>1581.0</ele><time>2026-05-05T09:28:04.999Z</time></trkpt><trkpt lat="31.062786436892186" lon="-6.201980012954389"><ele>1581.0</ele><time>2026-05-05T09:28:05.999Z</time></trkpt><trkpt lat="31.062709616494573" lon="-6.201970292500825"><ele>1581.0</ele><time>2026-05-05T09:28:06.999Z</time></trkpt><trkpt lat="31.062630050875402" lon="-6.2019561275674855"><ele>1581.0</ele><time>2026-05-05T09:28:07.999Z</time></trkpt><trkpt lat="31.062549081104162" lon="-6.201930358104319"><ele>1581.0</ele><time>2026-05-05T09:28:08.999Z</time></trkpt><trkpt lat="31.062463908689118" lon="-6.201889205184209"><ele>1581.0</ele><time>2026-05-05T09:28:09.999Z</time></trkpt><trkpt lat="31.062377627780858" lon="-6.201838964812112"><ele>1581.0</ele><time>2026-05-05T09:28:10.999Z</time></trkpt><trkpt lat="31.062293075646846" lon="-6.201783001683375"><ele>1580.8333333333333</ele><time>2026-05-05T09:28:11.999Z</time></trkpt><trkpt lat="31.062214586421565" lon="-6.201721982324987"><ele>1580.6666666666665</ele><time>2026-05-05T09:28:12.999Z</time></trkpt><trkpt lat="31.062138179455445" lon="-6.20166813542767"><ele>1580.5</ele><time>2026-05-05T09:28:13.999Z</time></trkpt><trkpt lat="31.06206117891383" lon="-6.201626173964024"><ele>1580.3333333333333</ele><time>2026-05-05T09:28:14.999Z</time></trkpt><trkpt lat="31.061990050983923" lon="-6.201583550396392"><ele>1580.1666666666665</ele><time>2026-05-05T09:28:15.999Z</time></trkpt><trkpt lat="31.06192015651561" lon="-6.201537214036361"><ele>1580.0</ele><time>2026-05-05T09:28:16.999Z</time></trkpt><trkpt lat="31.061851389713013" lon="-6.201494100515468"><ele>1580.1666666666665</ele><time>2026-05-05T09:28:17.999Z</time></trkpt><trkpt lat="31.06178474785689" lon="-6.2014418869362835"><ele>1580.3333333333333</ele><time>2026-05-05T09:28:18.999Z</time></trkpt><trkpt lat="31.061718222646267" lon="-6.201383667813336"><ele>1580.5</ele><time>2026-05-05T09:28:19.999Z</time></trkpt><trkpt lat="31.061645099719783" lon="-6.2013261743040715"><ele>1580.6666666666665</ele><time>2026-05-05T09:28:20.999Z</time></trkpt><trkpt lat="31.06157036274536" lon="-6.201269951412993"><ele>1580.8333333333333</ele><time>2026-05-05T09:28:21.999Z</time></trkpt><trkpt lat="31.061499901500117" lon="-6.201209861158989"><ele>1581.0</ele><time>2026-05-05T09:28:22.999Z</time></trkpt><trkpt lat="31.061434598811143" lon="-6.2011466445762276"><ele>1581.0</ele><time>2026-05-05T09:28:23.999Z</time></trkpt><trkpt lat="31.061364439185233" lon="-6.201094345808018"><ele>1581.0</ele><time>2026-05-05T09:28:24.999Z</time></trkpt><trkpt lat="31.061289567875225" lon="-6.201055168669038"><ele>1581.0</ele><time>2026-05-05T09:28:25.999Z</time></trkpt><trkpt lat="31.061207582661993" lon="-6.201017329494523"><ele>1581.0</ele><time>2026-05-05T09:28:26.999Z</time></trkpt><trkpt lat="31.06112316151935" lon="-6.200974421672508"><ele>1581.0</ele><time>2026-05-05T09:28:27.999Z</time></trkpt><trkpt lat="31.061042337233246" lon="-6.200929481454127"><ele>1581.0</ele><time>2026-05-05T09:28:28.999Z</time></trkpt><trkpt lat="31.060961197203675" lon="-6.200888247677815"><ele>1581.0</ele><time>2026-05-05T09:28:29.999Z</time></trkpt><trkpt lat="31.060885170139915" lon="-6.20084932318383"><ele>1581.0</ele><time>2026-05-05T09:28:30.999Z</time></trkpt><trkpt lat="31.060799691115136" lon="-6.2008053117703135"><ele>1581.0</ele><time>2026-05-05T09:28:31.999Z</time></trkpt><trkpt lat="31.060721567001405" lon="-6.200756551736318"><ele>1581.0</ele><time>2026-05-05T09:28:32.999Z</time></trkpt><trkpt lat="31.060644567485422" lon="-6.20070670209249"><ele>1581.0</ele><time>2026-05-05T09:28:33.999Z</time></trkpt><trkpt lat="31.060569733843828" lon="-6.200663384314013"><ele>1581.0</ele><time>2026-05-05T09:28:34.999Z</time></trkpt><trkpt lat="31.06048027130885" lon="-6.200626951455429"><ele>1581.0</ele><time>2026-05-05T09:28:35.999Z</time></trkpt><trkpt lat="31.060395582666644" lon="-6.200591759696281"><ele>1581.0</ele><time>2026-05-05T09:28:36.999Z</time></trkpt><trkpt lat="31.060312886783652" lon="-6.200557796790651"><ele>1581.0</ele><time>2026-05-05T09:28:37.999Z</time></trkpt><trkpt lat="31.060238526633263" lon="-6.200518478094529"><ele>1581.0</ele><time>2026-05-05T09:28:38.999Z</time></trkpt><trkpt lat="31.060171963321856" lon="-6.200471636067738"><ele>1581.0</ele><time>2026-05-05T09:28:39.999Z</time></trkpt><trkpt lat="31.060105322966514" lon="-6.200423250677379"><ele>1581.0</ele><time>2026-05-05T09:28:40.999Z</time></trkpt><trkpt lat="31.060041298124634" lon="-6.200357019363562"><ele>1581.0</ele><time>2026-05-05T09:28:41.999Z</time></trkpt><trkpt lat="31.059985228175606" lon="-6.200292456350829"><ele>1581.0</ele><time>2026-05-05T09:28:42.999Z</time></trkpt><trkpt lat="31.059935912011664" lon="-6.200215777986621"><ele>1581.0</ele><time>2026-05-05T09:28:43.999Z</time></trkpt><trkpt lat="31.059891197680816" lon="-6.200144428112075"><ele>1581.0</ele><time>2026-05-05T09:28:44.999Z</time></trkpt><trkpt lat="31.059841864743056" lon="-6.200069998871984"><ele>1581.0</ele><time>2026-05-05T09:28:45.999Z</time></trkpt><trkpt lat="31.059798542603783" lon="-6.199989634012607"><ele>1581.0</ele><time>2026-05-05T09:28:47Z</time></trkpt><trkpt lat="31.059751011474027" lon="-6.1999175406953215"><ele>1580.5</ele><time>2026-05-05T09:28:48Z</time></trkpt><trkpt lat="31.0596996405077" lon="-6.199844193028238"><ele>1580.0</ele><time>2026-05-05T09:28:49Z</time></trkpt><trkpt lat="31.059646402963793" lon="-6.19977959173987"><ele>1579.5</ele><time>2026-05-05T09:28:50Z</time></trkpt><trkpt lat="31.05959177316196" lon="-6.199712134629317"><ele>1579.0</ele><time>2026-05-05T09:28:51Z</time></trkpt><trkpt lat="31.059541242748253" lon="-6.199644377668358"><ele>1578.5</ele><time>2026-05-05T09:28:52Z</time></trkpt><trkpt lat="31.059489508307887" lon="-6.199576378079722"><ele>1578.0</ele><time>2026-05-05T09:28:53Z</time></trkpt><trkpt lat="31.059445976558077" lon="-6.199515979243657"><ele>1578.0</ele><time>2026-05-05T09:28:54Z</time></trkpt><trkpt lat="31.059398206575075" lon="-6.199454715081834"><ele>1578.0</ele><time>2026-05-05T09:28:55Z</time></trkpt><trkpt lat="31.0593452427759" lon="-6.1994023320926015"><ele>1578.0</ele><time>2026-05-05T09:28:56Z</time></trkpt><trkpt lat="31.059242045405668" lon="-6.19934206241177"><ele>1578.0</ele><time>2026-05-05T09:28:58Z</time></trkpt><trkpt lat="31.059127658469965" lon="-6.199335844371191"><ele>1578.0</ele><time>2026-05-05T09:29:00Z</time></trkpt><trkpt lat="31.059030466507448" lon="-6.199316083757073"><ele>1577.8333333333333</ele><time>2026-05-05T09:29:02Z</time></trkpt><trkpt lat="31.058927079000895" lon="-6.199274307797408"><ele>1577.6666666666665</ele><time>2026-05-05T09:29:04Z</time></trkpt><trkpt lat="31.0588592149943" lon="-6.199231669961272"><ele>1577.5</ele><time>2026-05-05T09:29:05Z</time></trkpt><trkpt lat="31.058798660497555" lon="-6.199186760909101"><ele>1577.3333333333333</ele><time>2026-05-05T09:29:06Z</time></trkpt><trkpt lat="31.0587509705886" lon="-6.199136037415022"><ele>1577.1666666666665</ele><time>2026-05-05T09:29:07Z</time></trkpt><trkpt lat="31.058697671262518" lon="-6.199069585102551"><ele>1577.0</ele><time>2026-05-05T09:29:08Z</time></trkpt><trkpt lat="31.058652125067116" lon="-6.199009408645095"><ele>1577.1666666666665</ele><time>2026-05-05T09:29:09Z</time></trkpt><trkpt lat="31.058605061110416" lon="-6.198947502760038"><ele>1577.3333333333333</ele><time>2026-05-05T09:29:10Z</time></trkpt><trkpt lat="31.058557907743616" lon="-6.19889454803262"><ele>1577.5</ele><time>2026-05-05T09:29:11Z</time></trkpt><trkpt lat="31.058465762799884" lon="-6.198835294439457"><ele>1577.6666666666665</ele><time>2026-05-05T09:29:13Z</time></trkpt><trkpt lat="31.05834612603738" lon="-6.1987870468598505"><ele>1577.8333333333333</ele><time>2026-05-05T09:29:15Z</time></trkpt><trkpt lat="31.058284206658396" lon="-6.19873901394655"><ele>1578.0</ele><time>2026-05-05T09:29:16Z</time></trkpt><trkpt lat="31.05821786018008" lon="-6.198676958970251"><ele>1578.142857142857</ele><time>2026-05-05T09:29:17Z</time></trkpt><trkpt lat="31.058161142087084" lon="-6.198610069144491"><ele>1578.2857142857142</ele><time>2026-05-05T09:29:18Z</time></trkpt><trkpt lat="31.058113635074605" lon="-6.198547762614405"><ele>1578.4285714285716</ele><time>2026-05-05T09:29:19Z</time></trkpt><trkpt lat="31.058065770384136" lon="-6.198481453040887"><ele>1578.5714285714284</ele><time>2026-05-05T09:29:20Z</time></trkpt><trkpt lat="31.05801326351428" lon="-6.198426337339109"><ele>1578.7142857142858</ele><time>2026-05-05T09:29:21Z</time></trkpt><trkpt lat="31.057956546127464" lon="-6.19837420891765"><ele>1578.857142857143</ele><time>2026-05-05T09:29:22Z</time></trkpt><trkpt lat="31.057890952588657" lon="-6.198327068760362"><ele>1579.0</ele><time>2026-05-05T09:29:23Z</time></trkpt><trkpt lat="31.05782210706254" lon="-6.198282482540723"><ele>1579.0000000000002</ele><time>2026-05-05T09:29:24Z</time></trkpt><trkpt lat="31.05775108678912" lon="-6.1982428392036155"><ele>1579.0</ele><time>2026-05-05T09:29:25Z</time></trkpt><trkpt lat="31.057676197148588" lon="-6.198199228660278"><ele>1579.0</ele><time>2026-05-05T09:29:25.999Z</time></trkpt><trkpt lat="31.057608899934802" lon="-6.198146862583149"><ele>1579.0</ele><time>2026-05-05T09:29:26.999Z</time></trkpt><trkpt lat="31.057552953190385" lon="-6.198079314125908"><ele>1579.0000000000002</ele><time>2026-05-05T09:29:27.999Z</time></trkpt><trkpt lat="31.05750435400911" lon="-6.198002962162154"><ele>1579.0</ele><time>2026-05-05T09:29:28.999Z</time></trkpt><trkpt lat="31.057465725633524" lon="-6.197916810270303"><ele>1578.0000000000002</ele><time>2026-05-05T09:29:29.999Z</time></trkpt><trkpt lat="31.057443694394856" lon="-6.197826166640803"><ele>1577.0</ele><time>2026-05-05T09:29:30.999Z</time></trkpt><trkpt lat="31.057423966223062" lon="-6.197735641508558"><ele>1576.0</ele><time>2026-05-05T09:29:31.999Z</time></trkpt><trkpt lat="31.05740707855381" lon="-6.197654010511056"><ele>1575.0</ele><time>2026-05-05T09:29:32.999Z</time></trkpt><trkpt lat="31.057401754622074" lon="-6.19757210183969"><ele>1574.0</ele><time>2026-05-05T09:29:33.999Z</time></trkpt><trkpt lat="31.05738600656011" lon="-6.197497874158639"><ele>1573.0000000000002</ele><time>2026-05-05T09:29:34.999Z</time></trkpt><trkpt lat="31.057359289507385" lon="-6.1974266010493615"><ele>1572.0</ele><time>2026-05-05T09:29:35.999Z</time></trkpt><trkpt lat="31.05732594826188" lon="-6.197363475486637"><ele>1572.5</ele><time>2026-05-05T09:29:36.999Z</time></trkpt><trkpt lat="31.05728974861659" lon="-6.1972941917515545"><ele>1573.0</ele><time>2026-05-05T09:29:37.999Z</time></trkpt><trkpt lat="31.057256825774388" lon="-6.197225820637329"><ele>1573.5</ele><time>2026-05-05T09:29:38.999Z</time></trkpt><trkpt lat="31.057184156181002" lon="-6.197118202315213"><ele>1574.0</ele><time>2026-05-05T09:29:40.999Z</time></trkpt><trkpt lat="31.057137954755518" lon="-6.197067520488762"><ele>1574.5</ele><time>2026-05-05T09:29:41.999Z</time></trkpt><trkpt lat="31.05708685959894" lon="-6.197023693082215"><ele>1575.0</ele><time>2026-05-05T09:29:42.999Z</time></trkpt><trkpt lat="31.057009890421956" lon="-6.1969042598877495"><ele>1575.0</ele><time>2026-05-05T09:29:44.999Z</time></trkpt><trkpt lat="31.056977047310962" lon="-6.196833729299938"><ele>1575.0</ele><time>2026-05-05T09:29:45.999Z</time></trkpt><trkpt lat="31.056945131280653" lon="-6.196768341286082"><ele>1575.0</ele><time>2026-05-05T09:29:46.999Z</time></trkpt><trkpt lat="31.056911760244315" lon="-6.196702504872133"><ele>1575.0</ele><time>2026-05-05T09:29:47.999Z</time></trkpt><trkpt lat="31.056873893043672" lon="-6.196629629922188"><ele>1575.0</ele><time>2026-05-05T09:29:48.999Z</time></trkpt><trkpt lat="31.056838630089846" lon="-6.196554893847668"><ele>1575.0</ele><time>2026-05-05T09:29:49.999Z</time></trkpt><trkpt lat="31.056807634882368" lon="-6.196485212478073"><ele>1575.0</ele><time>2026-05-05T09:29:50.999Z</time></trkpt><trkpt lat="31.056776959811813" lon="-6.196414936782969"><ele>1575.0</ele><time>2026-05-05T09:29:51.999Z</time></trkpt><trkpt lat="31.056720360632767" lon="-6.196275605899009"><ele>1575.0</ele><time>2026-05-05T09:29:53.999Z</time></trkpt><trkpt lat="31.056689662307374" lon="-6.196198553168283"><ele>1575.0</ele><time>2026-05-05T09:29:54.999Z</time></trkpt><trkpt lat="31.056657981340823" lon="-6.196121653621059"><ele>1575.0</ele><time>2026-05-05T09:29:55.999Z</time></trkpt><trkpt lat="31.056624906184847" lon="-6.196048757543017"><ele>1575.0</ele><time>2026-05-05T09:29:56.999Z</time></trkpt><trkpt lat="31.056593678405473" lon="-6.195975489735366"><ele>1575.0</ele><time>2026-05-05T09:29:57.999Z</time></trkpt><trkpt lat="31.056538600071438" lon="-6.195842407712242"><ele>1574.3333333333333</ele><time>2026-05-05T09:29:59.999Z</time></trkpt><trkpt lat="31.05649890016431" lon="-6.195755042686292"><ele>1573.6666666666665</ele><time>2026-05-05T09:30:00.999Z</time></trkpt><trkpt lat="31.056459715170405" lon="-6.195674543255041"><ele>1573.0</ele><time>2026-05-05T09:30:01.999Z</time></trkpt><trkpt lat="31.05641268728361" lon="-6.195590737880848"><ele>1572.3333333333333</ele><time>2026-05-05T09:30:02.999Z</time></trkpt><trkpt lat="31.05637114457797" lon="-6.195507882977856"><ele>1571.6666666666665</ele><time>2026-05-05T09:30:03.999Z</time></trkpt><trkpt lat="31.056330802131157" lon="-6.195437715650305"><ele>1571.0</ele><time>2026-05-05T09:30:04.999Z</time></trkpt><trkpt lat="31.056294684573988" lon="-6.195374015511162"><ele>1571.0</ele><time>2026-05-05T09:30:05.999Z</time></trkpt><trkpt lat="31.0562373453538" lon="-6.1952583966502255"><ele>1571.0</ele><time>2026-05-05T09:30:07.999Z</time></trkpt><trkpt lat="31.056178163342015" lon="-6.1951319769925695"><ele>1571.0</ele><time>2026-05-05T09:30:09.999Z</time></trkpt><trkpt lat="31.05615019103743" lon="-6.19506239819052"><ele>1571.0</ele><time>2026-05-05T09:30:10.999Z</time></trkpt><trkpt lat="31.056119598245804" lon="-6.194933765654799"><ele>1571.0</ele><time>2026-05-05T09:30:12.999Z</time></trkpt><trkpt lat="31.056138997237632" lon="-6.194815421765942"><ele>1571.6</ele><time>2026-05-05T09:30:14.999Z</time></trkpt><trkpt lat="31.05618677395657" lon="-6.19467422125928"><ele>1572.1999999999998</ele><time>2026-05-05T09:30:16.999Z</time></trkpt><trkpt lat="31.056212481515264" lon="-6.194592329306083"><ele>1572.8000000000002</ele><time>2026-05-05T09:30:17.999Z</time></trkpt><trkpt lat="31.056240691040923" lon="-6.194501961505838"><ele>1573.4</ele><time>2026-05-05T09:30:18.999Z</time></trkpt><trkpt lat="31.056254603459653" lon="-6.194406815594663"><ele>1574.0</ele><time>2026-05-05T09:30:19.999Z</time></trkpt><trkpt lat="31.056265487101896" lon="-6.194312385330337"><ele>1573.9999999999998</ele><time>2026-05-05T09:30:20.999Z</time></trkpt><trkpt lat="31.05628734566892" lon="-6.19422147336626"><ele>1574.0</ele><time>2026-05-05T09:30:21.999Z</time></trkpt><trkpt lat="31.056316673600854" lon="-6.194126573883635"><ele>1574.0</ele><time>2026-05-05T09:30:22.999Z</time></trkpt><trkpt lat="31.056344173253635" lon="-6.194044469635333"><ele>1574.0</ele><time>2026-05-05T09:30:23.999Z</time></trkpt><trkpt lat="31.056360019452544" lon="-6.19396815247962"><ele>1573.9999999999998</ele><time>2026-05-05T09:30:24.999Z</time></trkpt><trkpt lat="31.05639961844286" lon="-6.19384710409585"><ele>1574.0</ele><time>2026-05-05T09:30:26.999Z</time></trkpt><trkpt lat="31.056429082568265" lon="-6.193763969851413"><ele>1573.9999999999998</ele><time>2026-05-05T09:30:27.999Z</time></trkpt><trkpt lat="31.05644869818833" lon="-6.193666529644578"><ele>1574.0</ele><time>2026-05-05T09:30:28.999Z</time></trkpt><trkpt lat="31.056465838536187" lon="-6.1935685490658905"><ele>1574.0</ele><time>2026-05-05T09:30:29.999Z</time></trkpt><trkpt lat="31.056475631697676" lon="-6.193472448008194"><ele>1574.0</ele><time>2026-05-05T09:30:30.999Z</time></trkpt><trkpt lat="31.056481832819294" lon="-6.193373145086296"><ele>1573.9999999999998</ele><time>2026-05-05T09:30:31.999Z</time></trkpt><trkpt lat="31.056486768320635" lon="-6.193276820716668"><ele>1574.0</ele><time>2026-05-05T09:30:32.999Z</time></trkpt><trkpt lat="31.056486501731783" lon="-6.193178457088191"><ele>1574.6666666666665</ele><time>2026-05-05T09:30:33.999Z</time></trkpt><trkpt lat="31.056482040401068" lon="-6.1930784695778485"><ele>1575.3333333333333</ele><time>2026-05-05T09:30:34.999Z</time></trkpt><trkpt lat="31.056472892377865" lon="-6.192978181619392"><ele>1576.0</ele><time>2026-05-05T09:30:35.999Z</time></trkpt><trkpt lat="31.0564652277544" lon="-6.1928743594579805"><ele>1576.6666666666665</ele><time>2026-05-05T09:30:36.999Z</time></trkpt><trkpt lat="31.05645878374989" lon="-6.1927679885719265"><ele>1577.3333333333333</ele><time>2026-05-05T09:30:38Z</time></trkpt><trkpt lat="31.05644790482099" lon="-6.192661777905327"><ele>1578.0</ele><time>2026-05-05T09:30:39Z</time></trkpt><trkpt lat="31.0564324442194" lon="-6.192557569696979"><ele>1578.0</ele><time>2026-05-05T09:30:40Z</time></trkpt><trkpt lat="31.0564118824067" lon="-6.192454738235419"><ele>1578.0</ele><time>2026-05-05T09:30:41Z</time></trkpt><trkpt lat="31.05639347058788" lon="-6.19235410622176"><ele>1578.0</ele><time>2026-05-05T09:30:42Z</time></trkpt><trkpt lat="31.056376084852833" lon="-6.1922503600989005"><ele>1578.0</ele><time>2026-05-05T09:30:43Z</time></trkpt><trkpt lat="31.05635991036069" lon="-6.192152207395811"><ele>1578.0</ele><time>2026-05-05T09:30:44Z</time></trkpt><trkpt lat="31.056346570092874" lon="-6.192054186407394"><ele>1578.0</ele><time>2026-05-05T09:30:45Z</time></trkpt><trkpt lat="31.056333406682164" lon="-6.191957584685614"><ele>1578.0</ele><time>2026-05-05T09:30:46Z</time></trkpt><trkpt lat="31.056319207184814" lon="-6.191859864813486"><ele>1578.0</ele><time>2026-05-05T09:30:47Z</time></trkpt><trkpt lat="31.056304585397132" lon="-6.191761894009225"><ele>1578.0</ele><time>2026-05-05T09:30:48Z</time></trkpt><trkpt lat="31.056286387181647" lon="-6.191666441518431"><ele>1578.0</ele><time>2026-05-05T09:30:49Z</time></trkpt><trkpt lat="31.056263154473868" lon="-6.191574139427485"><ele>1578.0</ele><time>2026-05-05T09:30:50Z</time></trkpt><trkpt lat="31.05623224024956" lon="-6.191485118478688"><ele>1578.0</ele><time>2026-05-05T09:30:51Z</time></trkpt><trkpt lat="31.05619546745279" lon="-6.191402014932505"><ele>1578.8333333333333</ele><time>2026-05-05T09:30:52Z</time></trkpt><trkpt lat="31.05615447330505" lon="-6.191321750053622"><ele>1579.6666666666665</ele><time>2026-05-05T09:30:53.001Z</time></trkpt><trkpt lat="31.056109903081396" lon="-6.19124202524713"><ele>1580.5</ele><time>2026-05-05T09:30:54.001Z</time></trkpt><trkpt lat="31.056065610740912" lon="-6.191157391274198"><ele>1581.3333333333333</ele><time>2026-05-05T09:30:55.001Z</time></trkpt><trkpt lat="31.05602216097987" lon="-6.191070113693587"><ele>1582.1666666666665</ele><time>2026-05-05T09:30:56.001Z</time></trkpt><trkpt lat="31.055983385558406" lon="-6.190980695007429"><ele>1583.0</ele><time>2026-05-05T09:30:57.001Z</time></trkpt><trkpt lat="31.05595079663743" lon="-6.190886337689883"><ele>1583.0</ele><time>2026-05-05T09:30:58.001Z</time></trkpt><trkpt lat="31.05591992808993" lon="-6.190787768593667"><ele>1583.0</ele><time>2026-05-05T09:30:59.001Z</time></trkpt><trkpt lat="31.055882354617054" lon="-6.190693940349525"><ele>1583.0</ele><time>2026-05-05T09:31:00.001Z</time></trkpt><trkpt lat="31.055847692927195" lon="-6.190593923564961"><ele>1583.0</ele><time>2026-05-05T09:31:01.001Z</time></trkpt><trkpt lat="31.055814571984843" lon="-6.190493809148223"><ele>1583.0</ele><time>2026-05-05T09:31:02.001Z</time></trkpt><trkpt lat="31.055777703838324" lon="-6.190391080703242"><ele>1583.0</ele><time>2026-05-05T09:31:03.001Z</time></trkpt><trkpt lat="31.055739030599337" lon="-6.190291525692647"><ele>1583.0</ele><time>2026-05-05T09:31:04.001Z</time></trkpt><trkpt lat="31.055705044147643" lon="-6.190193405141228"><ele>1583.0</ele><time>2026-05-05T09:31:05.001Z</time></trkpt><trkpt lat="31.055671288537486" lon="-6.190103505886837"><ele>1583.0</ele><time>2026-05-05T09:31:06.001Z</time></trkpt><trkpt lat="31.055634769223882" lon="-6.190002748368405"><ele>1583.0</ele><time>2026-05-05T09:31:07.001Z</time></trkpt><trkpt lat="31.055597369382863" lon="-6.189904778095399"><ele>1583.6666666666665</ele><time>2026-05-05T09:31:08.001Z</time></trkpt><trkpt lat="31.055561257817125" lon="-6.189813904708917"><ele>1584.3333333333333</ele><time>2026-05-05T09:31:09.001Z</time></trkpt><trkpt lat="31.055529115652515" lon="-6.189722712846427"><ele>1585.0</ele><time>2026-05-05T09:31:10.001Z</time></trkpt><trkpt lat="31.055495517781065" lon="-6.189627184486038"><ele>1585.6666666666665</ele><time>2026-05-05T09:31:11.001Z</time></trkpt><trkpt lat="31.055461619885623" lon="-6.189528304146291"><ele>1586.3333333333333</ele><time>2026-05-05T09:31:12.001Z</time></trkpt><trkpt lat="31.055423041788" lon="-6.189433097384223"><ele>1587.0</ele><time>2026-05-05T09:31:13.001Z</time></trkpt><trkpt lat="31.055383255243232" lon="-6.1893385058729455"><ele>1587.0</ele><time>2026-05-05T09:31:14.001Z</time></trkpt><trkpt lat="31.055338877956807" lon="-6.189246835657039"><ele>1587.0</ele><time>2026-05-05T09:31:15.001Z</time></trkpt><trkpt lat="31.055295360870375" lon="-6.189155389622355"><ele>1587.0</ele><time>2026-05-05T09:31:16.001Z</time></trkpt><trkpt lat="31.05525398348765" lon="-6.189061832412768"><ele>1587.0</ele><time>2026-05-05T09:31:17.001Z</time></trkpt><trkpt lat="31.05521937326195" lon="-6.188965006750079"><ele>1587.0</ele><time>2026-05-05T09:31:18.001Z</time></trkpt><trkpt lat="31.05519284957822" lon="-6.1888661333539154"><ele>1587.0</ele><time>2026-05-05T09:31:19.001Z</time></trkpt><trkpt lat="31.055172248603217" lon="-6.188763405888143"><ele>1586.8</ele><time>2026-05-05T09:31:20.001Z</time></trkpt><trkpt lat="31.055155220528395" lon="-6.188663155149061"><ele>1586.6</ele><time>2026-05-05T09:31:21.001Z</time></trkpt><trkpt lat="31.055140680939687" lon="-6.188559507767563"><ele>1586.3999999999999</ele><time>2026-05-05T09:31:22.001Z</time></trkpt><trkpt lat="31.05512483859498" lon="-6.188455277920375"><ele>1586.1999999999998</ele><time>2026-05-05T09:31:23.001Z</time></trkpt><trkpt lat="31.055104108447775" lon="-6.188352089920207"><ele>1586.0</ele><time>2026-05-05T09:31:24.001Z</time></trkpt><trkpt lat="31.055078697307078" lon="-6.188244681609175"><ele>1586.3333333333333</ele><time>2026-05-05T09:31:25.001Z</time></trkpt><trkpt lat="31.055054214674914" lon="-6.188140441144357"><ele>1586.6666666666665</ele><time>2026-05-05T09:31:26.001Z</time></trkpt><trkpt lat="31.055040587406996" lon="-6.188042666257149"><ele>1587.0</ele><time>2026-05-05T09:31:27Z</time></trkpt><trkpt lat="31.05503099359078" lon="-6.187939157716239"><ele>1587.3333333333335</ele><time>2026-05-05T09:31:28Z</time></trkpt><trkpt lat="31.055024155023062" lon="-6.187839001436515"><ele>1587.6666666666667</ele><time>2026-05-05T09:31:29Z</time></trkpt><trkpt lat="31.055018220088403" lon="-6.187739574125144"><ele>1588.0</ele><time>2026-05-05T09:31:30Z</time></trkpt><trkpt lat="31.055013996679843" lon="-6.187637703336342"><ele>1588.0000000000002</ele><time>2026-05-05T09:31:31Z</time></trkpt><trkpt lat="31.055008277994627" lon="-6.187533831577659"><ele>1588.0</ele><time>2026-05-05T09:31:32Z</time></trkpt><trkpt lat="31.055003649667665" lon="-6.187428609305835"><ele>1588.0</ele><time>2026-05-05T09:31:33Z</time></trkpt><trkpt lat="31.054998524055968" lon="-6.187324138573961"><ele>1588.0</ele><time>2026-05-05T09:31:34Z</time></trkpt><trkpt lat="31.05499593769091" lon="-6.18722235903909"><ele>1588.0000000000002</ele><time>2026-05-05T09:31:35Z</time></trkpt><trkpt lat="31.05499167061819" lon="-6.187119391173151"><ele>1588.0</ele><time>2026-05-05T09:31:36Z</time></trkpt><trkpt lat="31.054986817238447" lon="-6.187015049592576"><ele>1588.0000000000002</ele><time>2026-05-05T09:31:37Z</time></trkpt><trkpt lat="31.05498447676625" lon="-6.18691941415114"><ele>1588.0</ele><time>2026-05-05T09:31:38Z</time></trkpt><trkpt lat="31.054982311527866" lon="-6.18682978706748"><ele>1588.0</ele><time>2026-05-05T09:31:39Z</time></trkpt><trkpt lat="31.054984510788497" lon="-6.186740931687356"><ele>1588.0</ele><time>2026-05-05T09:31:40Z</time></trkpt><trkpt lat="31.05498710008032" lon="-6.186655442706092"><ele>1588.0000000000002</ele><time>2026-05-05T09:31:41Z</time></trkpt><trkpt lat="31.054987450553" lon="-6.186561615277173"><ele>1588.0</ele><time>2026-05-05T09:31:42Z</time></trkpt><trkpt lat="31.054983878779552" lon="-6.186464958512663"><ele>1589.0000000000002</ele><time>2026-05-05T09:31:43Z</time></trkpt><trkpt lat="31.054983622829912" lon="-6.186374334269254"><ele>1590.0</ele><time>2026-05-05T09:31:44Z</time></trkpt><trkpt lat="31.054994757243918" lon="-6.186276184711454"><ele>1591.0</ele><time>2026-05-05T09:31:45Z</time></trkpt><trkpt lat="31.055007157096767" lon="-6.186181596121858"><ele>1592.0</ele><time>2026-05-05T09:31:46Z</time></trkpt><trkpt lat="31.055016114667076" lon="-6.18608839465704"><ele>1593.0000000000002</ele><time>2026-05-05T09:31:47Z</time></trkpt><trkpt lat="31.055013625045447" lon="-6.185997392512714"><ele>1594.0</ele><time>2026-05-05T09:31:48Z</time></trkpt><trkpt lat="31.054997766327045" lon="-6.185922292929369"><ele>1594.0</ele><time>2026-05-05T09:31:49Z</time></trkpt><trkpt lat="31.054965579663346" lon="-6.185805123212667"><ele>1594.0</ele><time>2026-05-05T09:31:51Z</time></trkpt><trkpt lat="31.05493177605239" lon="-6.185709116129096"><ele>1594.0</ele><time>2026-05-05T09:31:53Z</time></trkpt><trkpt lat="31.05491750880882" lon="-6.185584978228071"><ele>1594.0</ele><time>2026-05-05T09:31:55Z</time></trkpt><trkpt lat="31.05492661513939" lon="-6.185462201356751"><ele>1594.0</ele><time>2026-05-05T09:31:57Z</time></trkpt><trkpt lat="31.05495968569563" lon="-6.185320117888279"><ele>1594.0000000000002</ele><time>2026-05-05T09:31:59Z</time></trkpt><trkpt lat="31.05496131345334" lon="-6.185241907646754"><ele>1594.0</ele><time>2026-05-05T09:32:00Z</time></trkpt><trkpt lat="31.0549276476224" lon="-6.185102333908595"><ele>1594.0</ele><time>2026-05-05T09:32:02Z</time></trkpt><trkpt lat="31.05490526067355" lon="-6.185032740510124"><ele>1594.0</ele><time>2026-05-05T09:32:03Z</time></trkpt><trkpt lat="31.054883275336685" lon="-6.184959048999853"><ele>1594.0000000000002</ele><time>2026-05-05T09:32:04Z</time></trkpt><trkpt lat="31.05486361849674" lon="-6.184884982741553"><ele>1594.0</ele><time>2026-05-05T09:32:05Z</time></trkpt><trkpt lat="31.054839978997187" lon="-6.184804981373709"><ele>1593.8000000000002</ele><time>2026-05-05T09:32:06Z</time></trkpt><trkpt lat="31.054820698255014" lon="-6.184720424857857"><ele>1593.6000000000001</ele><time>2026-05-05T09:32:07Z</time></trkpt><trkpt lat="31.054762463972416" lon="-6.184593501781306"><ele>1593.4</ele><time>2026-05-05T09:32:09Z</time></trkpt><trkpt lat="31.054734741633222" lon="-6.184526151702056"><ele>1593.2</ele><time>2026-05-05T09:32:10Z</time></trkpt><trkpt lat="31.054713017481923" lon="-6.1844547643335765"><ele>1593.0</ele><time>2026-05-05T09:32:11Z</time></trkpt><trkpt lat="31.05468724375168" lon="-6.184310498746718"><ele>1593.0</ele><time>2026-05-05T09:32:13Z</time></trkpt><trkpt lat="31.05466926880918" lon="-6.184233105017746"><ele>1593.0</ele><time>2026-05-05T09:32:14Z</time></trkpt><trkpt lat="31.0546520413072" lon="-6.184093222350508"><ele>1593.0</ele><time>2026-05-05T09:32:16Z</time></trkpt><trkpt lat="31.05460116699755" lon="-6.183966011773081"><ele>1593.0</ele><time>2026-05-05T09:32:18Z</time></trkpt><trkpt lat="31.054559661274748" lon="-6.183902713035221"><ele>1593.0</ele><time>2026-05-05T09:32:19Z</time></trkpt><trkpt lat="31.054518337745233" lon="-6.183841389394431"><ele>1593.0</ele><time>2026-05-05T09:32:20Z</time></trkpt><trkpt lat="31.054477732202205" lon="-6.183767294926693"><ele>1593.6666666666667</ele><time>2026-05-05T09:32:21Z</time></trkpt><trkpt lat="31.054438870607253" lon="-6.183690632059421"><ele>1594.3333333333335</ele><time>2026-05-05T09:32:22Z</time></trkpt><trkpt lat="31.054406320700526" lon="-6.1836134362494946"><ele>1595.0</ele><time>2026-05-05T09:32:23Z</time></trkpt><trkpt lat="31.054373346281025" lon="-6.183538379133117"><ele>1595.6666666666667</ele><time>2026-05-05T09:32:24Z</time></trkpt><trkpt lat="31.054343986175493" lon="-6.18346908505436"><ele>1596.3333333333335</ele><time>2026-05-05T09:32:25Z</time></trkpt><trkpt lat="31.054293109227608" lon="-6.183336826606542"><ele>1597.0</ele><time>2026-05-05T09:32:27Z</time></trkpt><trkpt lat="31.054258355344228" lon="-6.18320637998777"><ele>1596.8</ele><time>2026-05-05T09:32:29Z</time></trkpt><trkpt lat="31.054247909828668" lon="-6.183127463851117"><ele>1596.6</ele><time>2026-05-05T09:32:30Z</time></trkpt><trkpt lat="31.054210707648178" lon="-6.18299597726461"><ele>1596.3999999999999</ele><time>2026-05-05T09:32:32Z</time></trkpt><trkpt lat="31.054168519110174" lon="-6.182871086274076"><ele>1596.1999999999998</ele><time>2026-05-05T09:32:34Z</time></trkpt><trkpt lat="31.054118745861057" lon="-6.182731915909182"><ele>1596.0</ele><time>2026-05-05T09:32:36Z</time></trkpt><trkpt lat="31.054095017301808" lon="-6.182652599074146"><ele>1596.5</ele><time>2026-05-05T09:32:37Z</time></trkpt><trkpt lat="31.054079800861587" lon="-6.182570966185018"><ele>1597.0</ele><time>2026-05-05T09:32:38Z</time></trkpt><trkpt lat="31.054070699498247" lon="-6.182488348993069"><ele>1597.5</ele><time>2026-05-05T09:32:39Z</time></trkpt><trkpt lat="31.05404382787464" lon="-6.182344027835835"><ele>1598.0</ele><time>2026-05-05T09:32:41Z</time></trkpt><trkpt lat="31.05402705317006" lon="-6.182270406401863"><ele>1598.5</ele><time>2026-05-05T09:32:42Z</time></trkpt><trkpt lat="31.054005149253513" lon="-6.182191699443163"><ele>1599.0</ele><time>2026-05-05T09:32:43Z</time></trkpt><trkpt lat="31.05397833436533" lon="-6.1821200687810025"><ele>1599.2857142857142</ele><time>2026-05-05T09:32:44Z</time></trkpt><trkpt lat="31.053962500102735" lon="-6.182042548052976"><ele>1599.5714285714284</ele><time>2026-05-05T09:32:45Z</time></trkpt><trkpt lat="31.053958395691115" lon="-6.181959805167151"><ele>1599.8571428571427</ele><time>2026-05-05T09:32:46Z</time></trkpt><trkpt lat="31.053948390553735" lon="-6.181872265194548"><ele>1600.142857142857</ele><time>2026-05-05T09:32:47Z</time></trkpt><trkpt lat="31.053938073990942" lon="-6.181782964422472"><ele>1600.4285714285716</ele><time>2026-05-05T09:32:48Z</time></trkpt><trkpt lat="31.053932419956208" lon="-6.181692075495006"><ele>1600.7142857142856</ele><time>2026-05-05T09:32:49Z</time></trkpt><trkpt lat="31.053925872555368" lon="-6.1816014641846415"><ele>1601.0</ele><time>2026-05-05T09:32:50Z</time></trkpt><trkpt lat="31.05392684419712" lon="-6.1815153460045735"><ele>1601.1666666666665</ele><time>2026-05-05T09:32:51Z</time></trkpt><trkpt lat="31.053934982528222" lon="-6.181425305267142"><ele>1601.3333333333333</ele><time>2026-05-05T09:32:52Z</time></trkpt><trkpt lat="31.05394583250685" lon="-6.1813369289856945"><ele>1601.5</ele><time>2026-05-05T09:32:53Z</time></trkpt><trkpt lat="31.053957994100678" lon="-6.18124776156346"><ele>1601.6666666666665</ele><time>2026-05-05T09:32:54Z</time></trkpt><trkpt lat="31.05396893565796" lon="-6.181158374801748"><ele>1601.8333333333333</ele><time>2026-05-05T09:32:55Z</time></trkpt><trkpt lat="31.053983714194853" lon="-6.181070003285199"><ele>1602.0</ele><time>2026-05-05T09:32:56Z</time></trkpt><trkpt lat="31.05400287491773" lon="-6.180985206198714"><ele>1602.0</ele><time>2026-05-05T09:32:57Z</time></trkpt><trkpt lat="31.054027142724" lon="-6.180898815675773"><ele>1602.0</ele><time>2026-05-05T09:32:58Z</time></trkpt><trkpt lat="31.054061197488334" lon="-6.1808185286931465"><ele>1602.0</ele><time>2026-05-05T09:32:59.001Z</time></trkpt><trkpt lat="31.05409988435802" lon="-6.180738080747348"><ele>1602.0</ele><time>2026-05-05T09:33:00.001Z</time></trkpt><trkpt lat="31.054141050469113" lon="-6.180661845930038"><ele>1602.0</ele><time>2026-05-05T09:33:01.001Z</time></trkpt><trkpt lat="31.054187763898767" lon="-6.180589688593766"><ele>1602.0</ele><time>2026-05-05T09:33:02.001Z</time></trkpt><trkpt lat="31.05424077128523" lon="-6.180515433777764"><ele>1603.5</ele><time>2026-05-05T09:33:03.001Z</time></trkpt><trkpt lat="31.054293002685267" lon="-6.180445878192991"><ele>1605.0</ele><time>2026-05-05T09:33:04.001Z</time></trkpt><trkpt lat="31.05434280778216" lon="-6.1803682589627345"><ele>1606.5</ele><time>2026-05-05T09:33:05.001Z</time></trkpt><trkpt lat="31.05438993592347" lon="-6.180290990874857"><ele>1608.0</ele><time>2026-05-05T09:33:06.001Z</time></trkpt><trkpt lat="31.054442025315538" lon="-6.180214336379997"><ele>1609.5</ele><time>2026-05-05T09:33:07.001Z</time></trkpt><trkpt lat="31.05449283103751" lon="-6.180138332543518"><ele>1611.0</ele><time>2026-05-05T09:33:08.001Z</time></trkpt><trkpt lat="31.05454982315556" lon="-6.180062229837873"><ele>1611.0</ele><time>2026-05-05T09:33:09.001Z</time></trkpt><trkpt lat="31.05460773280952" lon="-6.179991248839601"><ele>1611.0</ele><time>2026-05-05T09:33:10.001Z</time></trkpt><trkpt lat="31.05466951089519" lon="-6.179920596331902"><ele>1611.0</ele><time>2026-05-05T09:33:11.001Z</time></trkpt><trkpt lat="31.054734568877752" lon="-6.179853883603901"><ele>1611.0</ele><time>2026-05-05T09:33:12.001Z</time></trkpt><trkpt lat="31.054794964411972" lon="-6.1797890223016845"><ele>1611.0</ele><time>2026-05-05T09:33:13.001Z</time></trkpt><trkpt lat="31.05486105687158" lon="-6.179722990939479"><ele>1611.0</ele><time>2026-05-05T09:33:14.001Z</time></trkpt><trkpt lat="31.054923647222367" lon="-6.17966511086769"><ele>1613.0</ele><time>2026-05-05T09:33:15.001Z</time></trkpt><trkpt lat="31.054981407129876" lon="-6.1796049190707665"><ele>1615.0</ele><time>2026-05-05T09:33:16.001Z</time></trkpt><trkpt lat="31.055042078329247" lon="-6.179541835085508"><ele>1617.0</ele><time>2026-05-05T09:33:17.001Z</time></trkpt><trkpt lat="31.05509698033375" lon="-6.17947652429709"><ele>1619.0</ele><time>2026-05-05T09:33:18.001Z</time></trkpt><trkpt lat="31.055141199495946" lon="-6.179408855229882"><ele>1621.0</ele><time>2026-05-05T09:33:19.001Z</time></trkpt><trkpt lat="31.05518785789602" lon="-6.179347731462347"><ele>1623.0</ele><time>2026-05-05T09:33:20.001Z</time></trkpt><trkpt lat="31.055243530578895" lon="-6.179284449239298"><ele>1623.0</ele><time>2026-05-05T09:33:21.001Z</time></trkpt><trkpt lat="31.055293250766535" lon="-6.179213191687092"><ele>1623.0</ele><time>2026-05-05T09:33:22.001Z</time></trkpt><trkpt lat="31.055346369956837" lon="-6.1791460969689735"><ele>1623.0</ele><time>2026-05-05T09:33:23.001Z</time></trkpt><trkpt lat="31.055398815759787" lon="-6.179078819880717"><ele>1623.0</ele><time>2026-05-05T09:33:24.001Z</time></trkpt><trkpt lat="31.055451223250948" lon="-6.179020016630771"><ele>1623.0</ele><time>2026-05-05T09:33:25.001Z</time></trkpt><trkpt lat="31.05549633859101" lon="-6.178968572108945"><ele>1623.0</ele><time>2026-05-05T09:33:26.001Z</time></trkpt><trkpt lat="31.055541110243404" lon="-6.178912456911483"><ele>1623.0</ele><time>2026-05-05T09:33:27.001Z</time></trkpt><trkpt lat="31.055585869082567" lon="-6.1788515758839555"><ele>1623.75</ele><time>2026-05-05T09:33:28Z</time></trkpt><trkpt lat="31.055670517933496" lon="-6.1787655108160235"><ele>1624.5</ele><time>2026-05-05T09:33:30Z</time></trkpt><trkpt lat="31.055766276366384" lon="-6.178691299657522"><ele>1625.25</ele><time>2026-05-05T09:33:32Z</time></trkpt><trkpt lat="31.055838263480382" lon="-6.178584390790266"><ele>1626.0</ele><time>2026-05-05T09:33:34Z</time></trkpt><trkpt lat="31.055902900392237" lon="-6.178466898828755"><ele>1626.0</ele><time>2026-05-05T09:33:36Z</time></trkpt><trkpt lat="31.05595614987162" lon="-6.178348838868028"><ele>1626.0</ele><time>2026-05-05T09:33:38Z</time></trkpt><trkpt lat="31.056045646639106" lon="-6.178247776627217"><ele>1626.0</ele><time>2026-05-05T09:33:40Z</time></trkpt><trkpt lat="31.056129959340716" lon="-6.178146897520953"><ele>1626.0</ele><time>2026-05-05T09:33:42Z</time></trkpt><trkpt lat="31.056177353875302" lon="-6.178098353030244"><ele>1626.0</ele><time>2026-05-05T09:33:43Z</time></trkpt><trkpt lat="31.05627421202181" lon="-6.178022943792505"><ele>1630.4</ele><time>2026-05-05T09:33:45Z</time></trkpt><trkpt lat="31.056346242849084" lon="-6.177915280695602"><ele>1634.8</ele><time>2026-05-05T09:33:47Z</time></trkpt><trkpt lat="31.05640066034269" lon="-6.177795603307018"><ele>1639.2</ele><time>2026-05-05T09:33:49Z</time></trkpt><trkpt lat="31.05645021236426" lon="-6.177668510594438"><ele>1643.6000000000001</ele><time>2026-05-05T09:33:51Z</time></trkpt><trkpt lat="31.0564850188763" lon="-6.177601038697169"><ele>1648.0</ele><time>2026-05-05T09:33:52Z</time></trkpt><trkpt lat="31.056534626203387" lon="-6.177534790193361"><ele>1648.0000000000002</ele><time>2026-05-05T09:33:53Z</time></trkpt><trkpt lat="31.05658459710797" lon="-6.1774715322509675"><ele>1648.0</ele><time>2026-05-05T09:33:54Z</time></trkpt><trkpt lat="31.056654005987326" lon="-6.177367975137891"><ele>1648.0</ele><time>2026-05-05T09:33:56Z</time></trkpt><trkpt lat="31.0567337280234" lon="-6.1772596213729365"><ele>1648.0</ele><time>2026-05-05T09:33:58Z</time></trkpt><trkpt lat="31.056782711983203" lon="-6.177197826133243"><ele>1648.0000000000002</ele><time>2026-05-05T09:33:59Z</time></trkpt><trkpt lat="31.056828158095904" lon="-6.177142101719949"><ele>1648.0</ele><time>2026-05-05T09:34:00Z</time></trkpt><trkpt lat="31.056880103167263" lon="-6.177081437669637"><ele>1647.8333333333335</ele><time>2026-05-05T09:34:01Z</time></trkpt><trkpt lat="31.05692812045867" lon="-6.1770264641211"><ele>1647.6666666666667</ele><time>2026-05-05T09:34:02Z</time></trkpt><trkpt lat="31.056975196134857" lon="-6.176971900655034"><ele>1647.5</ele><time>2026-05-05T09:34:03Z</time></trkpt><trkpt lat="31.05706488121351" lon="-6.176863258863528"><ele>1647.3333333333335</ele><time>2026-05-05T09:34:05Z</time></trkpt><trkpt lat="31.05710283623678" lon="-6.176797647565277"><ele>1647.1666666666667</ele><time>2026-05-05T09:34:06Z</time></trkpt><trkpt lat="31.057131745383447" lon="-6.17672951937792"><ele>1647.0</ele><time>2026-05-05T09:34:07Z</time></trkpt><trkpt lat="31.057161232472577" lon="-6.17666023478363"><ele>1647.0</ele><time>2026-05-05T09:34:08Z</time></trkpt><trkpt lat="31.057194002650466" lon="-6.176594766622886"><ele>1647.0</ele><time>2026-05-05T09:34:09Z</time></trkpt><trkpt lat="31.057234244225228" lon="-6.176530462700857"><ele>1647.0</ele><time>2026-05-05T09:34:10Z</time></trkpt><trkpt lat="31.057269641532507" lon="-6.176466477197311"><ele>1647.0</ele><time>2026-05-05T09:34:11Z</time></trkpt><trkpt lat="31.057334618690422" lon="-6.176337378495335"><ele>1647.0</ele><time>2026-05-05T09:34:13Z</time></trkpt><trkpt lat="31.057374924214116" lon="-6.17627151117777"><ele>1647.0</ele><time>2026-05-05T09:34:14Z</time></trkpt><trkpt lat="31.05741615369696" lon="-6.176207497166269"><ele>1646.0</ele><time>2026-05-05T09:34:15Z</time></trkpt><trkpt lat="31.057455043398946" lon="-6.176138786647033"><ele>1645.0</ele><time>2026-05-05T09:34:16Z</time></trkpt><trkpt lat="31.057494500610805" lon="-6.176077630569312"><ele>1644.0</ele><time>2026-05-05T09:34:17Z</time></trkpt><trkpt lat="31.05753103241898" lon="-6.176013969782128"><ele>1643.0</ele><time>2026-05-05T09:34:18Z</time></trkpt><trkpt lat="31.05758707790026" lon="-6.175906816889319"><ele>1642.0</ele><time>2026-05-05T09:34:20Z</time></trkpt><trkpt lat="31.057664214927023" lon="-6.175793395248438"><ele>1641.0</ele><time>2026-05-05T09:34:22Z</time></trkpt><trkpt lat="31.057727264079066" lon="-6.175718740579699"><ele>1645.8571428571427</ele><time>2026-05-05T09:34:23Z</time></trkpt><trkpt lat="31.057778978788377" lon="-6.175627537217139"><ele>1650.7142857142858</ele><time>2026-05-05T09:34:25Z</time></trkpt><trkpt lat="31.057824688476757" lon="-6.175568121560659"><ele>1655.5714285714284</ele><time>2026-05-05T09:34:26Z</time></trkpt><trkpt lat="31.057868364767263" lon="-6.175511003794962"><ele>1660.4285714285713</ele><time>2026-05-05T09:34:27Z</time></trkpt><trkpt lat="31.057920158899776" lon="-6.1754571371288485"><ele>1665.2857142857142</ele><time>2026-05-05T09:34:28Z</time></trkpt><trkpt lat="31.057968681569722" lon="-6.175407690834225"><ele>1670.142857142857</ele><time>2026-05-05T09:34:29Z</time></trkpt><trkpt lat="31.058025390526065" lon="-6.175372070717231"><ele>1675.0</ele><time>2026-05-05T09:34:30Z</time></trkpt><trkpt lat="31.058129185838432" lon="-6.175308214675586"><ele>1675.0000000000002</ele><time>2026-05-05T09:34:32Z</time></trkpt><trkpt lat="31.05821916004686" lon="-6.175216834928166"><ele>1675.0</ele><time>2026-05-05T09:34:34Z</time></trkpt><trkpt lat="31.058265918766907" lon="-6.175156919552761"><ele>1675.0</ele><time>2026-05-05T09:34:35Z</time></trkpt><trkpt lat="31.058305513123898" lon="-6.175092559758939"><ele>1675.0</ele><time>2026-05-05T09:34:36Z</time></trkpt><trkpt lat="31.058348600495" lon="-6.175024354439166"><ele>1675.0000000000002</ele><time>2026-05-05T09:34:37Z</time></trkpt><trkpt lat="31.058392267813115" lon="-6.174953520690889"><ele>1675.0</ele><time>2026-05-05T09:34:38Z</time></trkpt><trkpt lat="31.058437969262652" lon="-6.174880982328554"><ele>1673.7142857142858</ele><time>2026-05-05T09:34:39Z</time></trkpt><trkpt lat="31.05848444737657" lon="-6.174807570810412"><ele>1672.4285714285713</ele><time>2026-05-05T09:34:40Z</time></trkpt><trkpt lat="31.058521129325044" lon="-6.174732341441568"><ele>1671.142857142857</ele><time>2026-05-05T09:34:41Z</time></trkpt><trkpt lat="31.05856229006311" lon="-6.174661061225487"><ele>1669.857142857143</ele><time>2026-05-05T09:34:42Z</time></trkpt><trkpt lat="31.0586145358445" lon="-6.174595079045095"><ele>1668.5714285714284</ele><time>2026-05-05T09:34:43Z</time></trkpt><trkpt lat="31.05866575417034" lon="-6.174540500689525"><ele>1667.2857142857142</ele><time>2026-05-05T09:34:44Z</time></trkpt><trkpt lat="31.058715850070772" lon="-6.174477725919796"><ele>1666.0</ele><time>2026-05-05T09:34:45Z</time></trkpt><trkpt lat="31.058761016749845" lon="-6.174415280909253"><ele>1666.0000000000002</ele><time>2026-05-05T09:34:46Z</time></trkpt><trkpt lat="31.058844122803897" lon="-6.174318166186285"><ele>1666.0</ele><time>2026-05-05T09:34:48Z</time></trkpt><trkpt lat="31.058929533147875" lon="-6.174218006856663"><ele>1666.0</ele><time>2026-05-05T09:34:50Z</time></trkpt><trkpt lat="31.05897669313685" lon="-6.174158217854576"><ele>1666.0</ele><time>2026-05-05T09:34:51Z</time></trkpt><trkpt lat="31.05902076106088" lon="-6.17410476425335"><ele>1666.0000000000002</ele><time>2026-05-05T09:34:52Z</time></trkpt><trkpt lat="31.059067675487903" lon="-6.174045746569146"><ele>1666.0</ele><time>2026-05-05T09:34:53Z</time></trkpt><trkpt lat="31.059144500456274" lon="-6.1739279771250395"><ele>1664.7142857142858</ele><time>2026-05-05T09:34:55Z</time></trkpt><trkpt lat="31.05917999321735" lon="-6.173859899447755"><ele>1663.4285714285716</ele><time>2026-05-05T09:34:56Z</time></trkpt><trkpt lat="31.059214180859517" lon="-6.1737872218611525"><ele>1662.142857142857</ele><time>2026-05-05T09:34:57Z</time></trkpt><trkpt lat="31.05925092788947" lon="-6.173721075850896"><ele>1660.857142857143</ele><time>2026-05-05T09:34:58Z</time></trkpt><trkpt lat="31.05929848050803" lon="-6.173656051295777"><ele>1659.5714285714287</ele><time>2026-05-05T09:34:59Z</time></trkpt><trkpt lat="31.05934947188824" lon="-6.173595939288122"><ele>1658.2857142857142</ele><time>2026-05-05T09:35:00Z</time></trkpt><trkpt lat="31.059402542109698" lon="-6.173538996959463"><ele>1657.0</ele><time>2026-05-05T09:35:01Z</time></trkpt><trkpt lat="31.059449293585423" lon="-6.173482914783814"><ele>1657.0</ele><time>2026-05-05T09:35:02Z</time></trkpt><trkpt lat="31.059494128569092" lon="-6.173418463116723"><ele>1657.0</ele><time>2026-05-05T09:35:03Z</time></trkpt><trkpt lat="31.05953547590514" lon="-6.173353210968862"><ele>1657.0</ele><time>2026-05-05T09:35:04Z</time></trkpt><trkpt lat="31.059577686622657" lon="-6.173291055967553"><ele>1657.0</ele><time>2026-05-05T09:35:05.001Z</time></trkpt><trkpt lat="31.05961532010767" lon="-6.173226583630035"><ele>1657.0</ele><time>2026-05-05T09:35:06.001Z</time></trkpt><trkpt lat="31.059654302342263" lon="-6.173160746531131"><ele>1657.0</ele><time>2026-05-05T09:35:07.001Z</time></trkpt><trkpt lat="31.059688663744318" lon="-6.173093582132599"><ele>1657.0</ele><time>2026-05-05T09:35:08.001Z</time></trkpt><trkpt lat="31.059744380253296" lon="-6.172971593584302"><ele>1659.6</ele><time>2026-05-05T09:35:10.001Z</time></trkpt><trkpt lat="31.059818152651697" lon="-6.172892946203775"><ele>1662.1999999999998</ele><time>2026-05-05T09:35:12.001Z</time></trkpt><trkpt lat="31.059900089447044" lon="-6.1727917576897156"><ele>1664.8</ele><time>2026-05-05T09:35:14.001Z</time></trkpt><trkpt lat="31.05992441402248" lon="-6.172653966809052"><ele>1667.4</ele><time>2026-05-05T09:35:16.001Z</time></trkpt><trkpt lat="31.059929196464747" lon="-6.1725777684184"><ele>1670.0</ele><time>2026-05-05T09:35:17.001Z</time></trkpt><trkpt lat="31.059932042883627" lon="-6.172498338856995"><ele>1669.9999999999998</ele><time>2026-05-05T09:35:18.001Z</time></trkpt><trkpt lat="31.059948370219686" lon="-6.172420342598811"><ele>1670.0</ele><time>2026-05-05T09:35:19.001Z</time></trkpt><trkpt lat="31.059973070322908" lon="-6.172335939545936"><ele>1670.0</ele><time>2026-05-05T09:35:20.001Z</time></trkpt><trkpt lat="31.059992846229832" lon="-6.172262589571999"><ele>1670.0</ele><time>2026-05-05T09:35:21.001Z</time></trkpt><trkpt lat="31.060019157779443" lon="-6.172120725375528"><ele>1669.9999999999998</ele><time>2026-05-05T09:35:23.001Z</time></trkpt><trkpt lat="31.06003893050441" lon="-6.172040656746239"><ele>1670.0</ele><time>2026-05-05T09:35:24.001Z</time></trkpt><trkpt lat="31.06006763742369" lon="-6.171968451567739"><ele>1668.7142857142858</ele><time>2026-05-05T09:35:25Z</time></trkpt><trkpt lat="31.06010644202882" lon="-6.171902799203155"><ele>1667.4285714285716</ele><time>2026-05-05T09:35:26Z</time></trkpt><trkpt lat="31.060138795705598" lon="-6.17183826553915"><ele>1666.1428571428573</ele><time>2026-05-05T09:35:27Z</time></trkpt><trkpt lat="31.060173319754266" lon="-6.171766401175611"><ele>1664.857142857143</ele><time>2026-05-05T09:35:28Z</time></trkpt><trkpt lat="31.06020717366897" lon="-6.171689119818371"><ele>1663.5714285714284</ele><time>2026-05-05T09:35:29Z</time></trkpt><trkpt lat="31.06024060775964" lon="-6.171618700901039"><ele>1662.2857142857144</ele><time>2026-05-05T09:35:30Z</time></trkpt><trkpt lat="31.060276708394802" lon="-6.171552457304128"><ele>1661.0</ele><time>2026-05-05T09:35:31Z</time></trkpt><trkpt lat="31.060318253085278" lon="-6.171484274528311"><ele>1660.9999999999998</ele><time>2026-05-05T09:35:32Z</time></trkpt><trkpt lat="31.060353706335604" lon="-6.171412955789179"><ele>1661.0</ele><time>2026-05-05T09:35:33Z</time></trkpt><trkpt lat="31.060391652833296" lon="-6.171337505178042"><ele>1661.0</ele><time>2026-05-05T09:35:34Z</time></trkpt><trkpt lat="31.06042022971069" lon="-6.171264815620945"><ele>1661.0</ele><time>2026-05-05T09:35:35Z</time></trkpt><trkpt lat="31.060452730628704" lon="-6.171132134834885"><ele>1660.9999999999998</ele><time>2026-05-05T09:35:37Z</time></trkpt><trkpt lat="31.060467090465387" lon="-6.171060047999629"><ele>1661.0</ele><time>2026-05-05T09:35:38Z</time></trkpt><trkpt lat="31.060500046474093" lon="-6.170919738236223"><ele>1661.0</ele><time>2026-05-05T09:35:40Z</time></trkpt><trkpt lat="31.060525618317932" lon="-6.170842695791922"><ele>1661.0</ele><time>2026-05-05T09:35:41Z</time></trkpt><trkpt lat="31.060555621995107" lon="-6.170764519725517"><ele>1661.0</ele><time>2026-05-05T09:35:42Z</time></trkpt><trkpt lat="31.060582451233227" lon="-6.1706912983577835"><ele>1661.0</ele><time>2026-05-05T09:35:43Z</time></trkpt><trkpt lat="31.06060211101114" lon="-6.170621356360713"><ele>1661.0</ele><time>2026-05-05T09:35:44Z</time></trkpt><trkpt lat="31.06061356831307" lon="-6.170543412649162"><ele>1661.0</ele><time>2026-05-05T09:35:45Z</time></trkpt><trkpt lat="31.060603049897043" lon="-6.170469841003173"><ele>1661.0</ele><time>2026-05-05T09:35:46Z</time></trkpt><trkpt lat="31.06055786303124" lon="-6.170331262535019"><ele>1660.4999999999998</ele><time>2026-05-05T09:35:48Z</time></trkpt><trkpt lat="31.06056409922539" lon="-6.170230558958624"><ele>1660.0</ele><time>2026-05-05T09:35:50Z</time></trkpt><trkpt lat="31.060619384158706" lon="-6.17011060302175"><ele>1659.5</ele><time>2026-05-05T09:35:52Z</time></trkpt><trkpt lat="31.060650595097233" lon="-6.170040828904868"><ele>1659.0</ele><time>2026-05-05T09:35:53Z</time></trkpt><trkpt lat="31.06069576540846" lon="-6.169982743384266"><ele>1658.4999999999998</ele><time>2026-05-05T09:35:54Z</time></trkpt><trkpt lat="31.060741168127166" lon="-6.169921869802137"><ele>1658.0</ele><time>2026-05-05T09:35:55Z</time></trkpt><trkpt lat="31.060803788083714" lon="-6.169783270210166"><ele>1657.9999999999998</ele><time>2026-05-05T09:35:57Z</time></trkpt><trkpt lat="31.06084605478307" lon="-6.169710907392537"><ele>1658.0</ele><time>2026-05-05T09:35:58Z</time></trkpt><trkpt lat="31.060884848272043" lon="-6.169637452327291"><ele>1658.0</ele><time>2026-05-05T09:35:59Z</time></trkpt><trkpt lat="31.06092782954466" lon="-6.169563216808195"><ele>1658.0</ele><time>2026-05-05T09:36:00Z</time></trkpt><trkpt lat="31.060972515156823" lon="-6.169488234312085"><ele>1657.9999999999998</ele><time>2026-05-05T09:36:01Z</time></trkpt><trkpt lat="31.061016205464398" lon="-6.169410125145092"><ele>1658.0</ele><time>2026-05-05T09:36:02Z</time></trkpt><trkpt lat="31.06105272229483" lon="-6.169340400663508"><ele>1658.0</ele><time>2026-05-05T09:36:03Z</time></trkpt><trkpt lat="31.061088998196652" lon="-6.1692686528854335"><ele>1658.0</ele><time>2026-05-05T09:36:04Z</time></trkpt><trkpt lat="31.0611264789165" lon="-6.169200498033032"><ele>1658.0</ele><time>2026-05-05T09:36:05Z</time></trkpt><trkpt lat="31.0611708486261" lon="-6.169140950182062"><ele>1658.0</ele><time>2026-05-05T09:36:06Z</time></trkpt><trkpt lat="31.061219745184612" lon="-6.169082417514798"><ele>1658.0</ele><time>2026-05-05T09:36:07Z</time></trkpt><trkpt lat="31.061277270851704" lon="-6.169026175960351"><ele>1658.0</ele><time>2026-05-05T09:36:08Z</time></trkpt><trkpt lat="31.061331755309165" lon="-6.168968145267933"><ele>1658.0</ele><time>2026-05-05T09:36:09Z</time></trkpt><trkpt lat="31.061372461897758" lon="-6.1689103701247"><ele>1658.9999999999998</ele><time>2026-05-05T09:36:10Z</time></trkpt><trkpt lat="31.06141203190686" lon="-6.168777021603814"><ele>1660.0</ele><time>2026-05-05T09:36:12Z</time></trkpt><trkpt lat="31.0614338656332" lon="-6.168705123347214"><ele>1661.0</ele><time>2026-05-05T09:36:13Z</time></trkpt><trkpt lat="31.06145743258188" lon="-6.1686283081178654"><ele>1662.0</ele><time>2026-05-05T09:36:14Z</time></trkpt><trkpt lat="31.06149227976424" lon="-6.1685563805567005"><ele>1662.9999999999998</ele><time>2026-05-05T09:36:15Z</time></trkpt><trkpt lat="31.061537901409803" lon="-6.168486084107409"><ele>1664.0</ele><time>2026-05-05T09:36:16Z</time></trkpt><trkpt lat="31.06159217705965" lon="-6.168428815317271"><ele>1663.857142857143</ele><time>2026-05-05T09:36:17Z</time></trkpt><trkpt lat="31.061658329946308" lon="-6.168379987940801"><ele>1663.7142857142858</ele><time>2026-05-05T09:36:18Z</time></trkpt><trkpt lat="31.06172890421472" lon="-6.168339631039429"><ele>1663.5714285714287</ele><time>2026-05-05T09:36:19Z</time></trkpt><trkpt lat="31.06179580682222" lon="-6.168309643991721"><ele>1663.4285714285716</ele><time>2026-05-05T09:36:20Z</time></trkpt><trkpt lat="31.06185886608523" lon="-6.168278287889804"><ele>1663.2857142857142</ele><time>2026-05-05T09:36:21Z</time></trkpt><trkpt lat="31.06192232913179" lon="-6.1682427867483645"><ele>1663.1428571428573</ele><time>2026-05-05T09:36:22Z</time></trkpt><trkpt lat="31.06198512439154" lon="-6.168202858631589"><ele>1663.0</ele><time>2026-05-05T09:36:23Z</time></trkpt><trkpt lat="31.062043321787137" lon="-6.168163695706581"><ele>1663.0</ele><time>2026-05-05T09:36:24Z</time></trkpt><trkpt lat="31.06211940466426" lon="-6.168065717086574"><ele>1663.0</ele><time>2026-05-05T09:36:26Z</time></trkpt><trkpt lat="31.062142819321274" lon="-6.167994688375632"><ele>1663.0</ele><time>2026-05-05T09:36:27Z</time></trkpt><trkpt lat="31.062175190263122" lon="-6.167844884165454"><ele>1663.0</ele><time>2026-05-05T09:36:29Z</time></trkpt><trkpt lat="31.062193365506925" lon="-6.16776235979655"><ele>1663.0</ele><time>2026-05-05T09:36:30Z</time></trkpt><trkpt lat="31.0622023619834" lon="-6.167677356202096"><ele>1663.0000000000002</ele><time>2026-05-05T09:36:31Z</time></trkpt><trkpt lat="31.062237104680197" lon="-6.167602992232207"><ele>1663.0</ele><time>2026-05-05T09:36:32Z</time></trkpt><trkpt lat="31.062266015709202" lon="-6.16752112897897"><ele>1663.0</ele><time>2026-05-05T09:36:33Z</time></trkpt><trkpt lat="31.06229783144847" lon="-6.167440411022428"><ele>1663.0</ele><time>2026-05-05T09:36:34Z</time></trkpt><trkpt lat="31.06232761032552" lon="-6.167356228753544"><ele>1663.0</ele><time>2026-05-05T09:36:35Z</time></trkpt><trkpt lat="31.06235908112153" lon="-6.167282927967803"><ele>1663.0000000000002</ele><time>2026-05-05T09:36:36Z</time></trkpt><trkpt lat="31.062385420713028" lon="-6.167207712257352"><ele>1663.0</ele><time>2026-05-05T09:36:37Z</time></trkpt><trkpt lat="31.062408382080175" lon="-6.167127929315407"><ele>1663.0000000000002</ele><time>2026-05-05T09:36:38Z</time></trkpt><trkpt lat="31.0624326806138" lon="-6.167044516639992"><ele>1663.0</ele><time>2026-05-05T09:36:39Z</time></trkpt><trkpt lat="31.062464886386653" lon="-6.1669629588033885"><ele>1663.0</ele><time>2026-05-05T09:36:40Z</time></trkpt><trkpt lat="31.06250268953702" lon="-6.166878020132717"><ele>1663.0</ele><time>2026-05-05T09:36:41Z</time></trkpt><trkpt lat="31.062543309691716" lon="-6.166798079773641"><ele>1663.0000000000002</ele><time>2026-05-05T09:36:42Z</time></trkpt><trkpt lat="31.062581075970016" lon="-6.1667184068419205"><ele>1663.0</ele><time>2026-05-05T09:36:43Z</time></trkpt><trkpt lat="31.06261692670262" lon="-6.166632435388581"><ele>1663.0000000000002</ele><time>2026-05-05T09:36:44Z</time></trkpt><trkpt lat="31.062663199062683" lon="-6.1665385396960835"><ele>1663.0</ele><time>2026-05-05T09:36:45Z</time></trkpt><trkpt lat="31.062708798993608" lon="-6.166450756863183"><ele>1663.0</ele><time>2026-05-05T09:36:46Z</time></trkpt><trkpt lat="31.062760189532593" lon="-6.166375095748472"><ele>1663.0</ele><time>2026-05-05T09:36:47Z</time></trkpt><trkpt lat="31.062809191343533" lon="-6.166304479500527"><ele>1663.0000000000002</ele><time>2026-05-05T09:36:48Z</time></trkpt><trkpt lat="31.062859209551167" lon="-6.166234337921981"><ele>1663.0</ele><time>2026-05-05T09:36:49Z</time></trkpt><trkpt lat="31.062906958130405" lon="-6.1661631000699515"><ele>1663.3333333333335</ele><time>2026-05-05T09:36:50Z</time></trkpt><trkpt lat="31.06295620669122" lon="-6.166079311599803"><ele>1663.6666666666667</ele><time>2026-05-05T09:36:51Z</time></trkpt><trkpt lat="31.063007727496963" lon="-6.165997393012785"><ele>1664.0</ele><time>2026-05-05T09:36:52Z</time></trkpt><trkpt lat="31.063058016990905" lon="-6.165914051946048"><ele>1664.3333333333335</ele><time>2026-05-05T09:36:53Z</time></trkpt><trkpt lat="31.063097908380133" lon="-6.165828065662102"><ele>1664.6666666666667</ele><time>2026-05-05T09:36:54Z</time></trkpt><trkpt lat="31.063130061149113" lon="-6.165748468025597"><ele>1665.0</ele><time>2026-05-05T09:36:55Z</time></trkpt><trkpt lat="31.063164761615052" lon="-6.165665676555365"><ele>1665.3333333333333</ele><time>2026-05-05T09:36:56Z</time></trkpt><trkpt lat="31.063206223687235" lon="-6.165591932687037"><ele>1665.6666666666665</ele><time>2026-05-05T09:36:57Z</time></trkpt><trkpt lat="31.06326155106802" lon="-6.165519869269044"><ele>1666.0</ele><time>2026-05-05T09:36:58Z</time></trkpt><trkpt lat="31.06331953693018" lon="-6.165453710759598"><ele>1666.3333333333333</ele><time>2026-05-05T09:36:59Z</time></trkpt><trkpt lat="31.063378009568634" lon="-6.165384016593543"><ele>1666.6666666666665</ele><time>2026-05-05T09:37:00Z</time></trkpt><trkpt lat="31.063435416411" lon="-6.165310547417352"><ele>1667.0</ele><time>2026-05-05T09:37:01Z</time></trkpt><trkpt lat="31.06349247115074" lon="-6.165239630913179"><ele>1666.9999999999998</ele><time>2026-05-05T09:37:02Z</time></trkpt><trkpt lat="31.063552076914313" lon="-6.165164799449074"><ele>1667.0</ele><time>2026-05-05T09:37:03Z</time></trkpt><trkpt lat="31.06361141383798" lon="-6.165089905132173"><ele>1667.0</ele><time>2026-05-05T09:37:04Z</time></trkpt><trkpt lat="31.063671468008547" lon="-6.165016144400353"><ele>1667.0</ele><time>2026-05-05T09:37:05Z</time></trkpt><trkpt lat="31.06373262529329" lon="-6.164944037420044"><ele>1666.9999999999998</ele><time>2026-05-05T09:37:06Z</time></trkpt><trkpt lat="31.063788976109326" lon="-6.1648752838814636"><ele>1667.0</ele><time>2026-05-05T09:37:07Z</time></trkpt><trkpt lat="31.06384172145439" lon="-6.164808293006096"><ele>1666.9999999999998</ele><time>2026-05-05T09:37:08Z</time></trkpt><trkpt lat="31.063900951775164" lon="-6.164733763230294"><ele>1667.0</ele><time>2026-05-05T09:37:09Z</time></trkpt><trkpt lat="31.063962221186962" lon="-6.164667330277768"><ele>1667.0</ele><time>2026-05-05T09:37:10Z</time></trkpt><trkpt lat="31.06403141413007" lon="-6.164603447620839"><ele>1667.0</ele><time>2026-05-05T09:37:11.001Z</time></trkpt><trkpt lat="31.064102685018273" lon="-6.164536116326619"><ele>1666.9999999999998</ele><time>2026-05-05T09:37:12.001Z</time></trkpt><trkpt lat="31.064167110110418" lon="-6.164468178084637"><ele>1667.0</ele><time>2026-05-05T09:37:13.001Z</time></trkpt><trkpt lat="31.064225861421985" lon="-6.164405652258069"><ele>1666.4999999999998</ele><time>2026-05-05T09:37:14.001Z</time></trkpt><trkpt lat="31.064283863674284" lon="-6.16433898183126"><ele>1666.0</ele><time>2026-05-05T09:37:15.001Z</time></trkpt><trkpt lat="31.064345416914627" lon="-6.1642667791521095"><ele>1665.5</ele><time>2026-05-05T09:37:16.001Z</time></trkpt><trkpt lat="31.06439880970565" lon="-6.164188000929492"><ele>1665.0</ele><time>2026-05-05T09:37:17.001Z</time></trkpt><trkpt lat="31.064445705001887" lon="-6.164108993263804"><ele>1664.4999999999998</ele><time>2026-05-05T09:37:18.001Z</time></trkpt><trkpt lat="31.064492132330983" lon="-6.1640299494109625"><ele>1664.0</ele><time>2026-05-05T09:37:19Z</time></trkpt><trkpt lat="31.06453752382105" lon="-6.1639593275857925"><ele>1663.8333333333333</ele><time>2026-05-05T09:37:20Z</time></trkpt><trkpt lat="31.06456948391555" lon="-6.163878771268341"><ele>1663.6666666666665</ele><time>2026-05-05T09:37:21Z</time></trkpt><trkpt lat="31.064605604250122" lon="-6.163793628218942"><ele>1663.5</ele><time>2026-05-05T09:37:22Z</time></trkpt><trkpt lat="31.064651966817475" lon="-6.163717384574639"><ele>1663.3333333333335</ele><time>2026-05-05T09:37:23Z</time></trkpt><trkpt lat="31.06469975158607" lon="-6.163635132242036"><ele>1663.1666666666667</ele><time>2026-05-05T09:37:24Z</time></trkpt><trkpt lat="31.06474276987371" lon="-6.16353491841414"><ele>1663.0</ele><time>2026-05-05T09:37:25Z</time></trkpt><trkpt lat="31.06478131884885" lon="-6.16344005765574"><ele>1663.0000000000002</ele><time>2026-05-05T09:37:26Z</time></trkpt><trkpt lat="31.06481995333484" lon="-6.163352315856468"><ele>1663.0</ele><time>2026-05-05T09:37:27Z</time></trkpt><trkpt lat="31.06485765347232" lon="-6.163270242359235"><ele>1663.0</ele><time>2026-05-05T09:37:28Z</time></trkpt><trkpt lat="31.06490114627746" lon="-6.163186450785356"><ele>1663.0</ele><time>2026-05-05T09:37:29Z</time></trkpt><trkpt lat="31.06493709634386" lon="-6.163097156471316"><ele>1663.0000000000002</ele><time>2026-05-05T09:37:30Z</time></trkpt><trkpt lat="31.064967703640853" lon="-6.163015495833813"><ele>1663.0</ele><time>2026-05-05T09:37:31Z</time></trkpt><trkpt lat="31.06499698347157" lon="-6.16293698721764"><ele>1662.3333333333335</ele><time>2026-05-05T09:37:32Z</time></trkpt><trkpt lat="31.065020316240204" lon="-6.162862467207919"><ele>1661.6666666666667</ele><time>2026-05-05T09:37:33Z</time></trkpt><trkpt lat="31.065049627367266" lon="-6.162785475064952"><ele>1661.0</ele><time>2026-05-05T09:37:34Z</time></trkpt><trkpt lat="31.065081410133732" lon="-6.162698238805629"><ele>1660.3333333333335</ele><time>2026-05-05T09:37:35Z</time></trkpt><trkpt lat="31.06511602691762" lon="-6.162609833459333"><ele>1659.6666666666667</ele><time>2026-05-05T09:37:36Z</time></trkpt><trkpt lat="31.065149427738067" lon="-6.162525332891282"><ele>1659.0</ele><time>2026-05-05T09:37:37Z</time></trkpt><trkpt lat="31.065184750307413" lon="-6.162446311152041"><ele>1659.0</ele><time>2026-05-05T09:37:38Z</time></trkpt><trkpt lat="31.065222981110566" lon="-6.16236781495424"><ele>1659.0</ele><time>2026-05-05T09:37:39Z</time></trkpt><trkpt lat="31.065243620285955" lon="-6.16229467386838"><ele>1659.0</ele><time>2026-05-05T09:37:40Z</time></trkpt><trkpt lat="31.065275279993823" lon="-6.162203968729398"><ele>1659.0</ele><time>2026-05-05T09:37:41Z</time></trkpt><trkpt lat="31.065306193918556" lon="-6.162106419136907"><ele>1659.0</ele><time>2026-05-05T09:37:42Z</time></trkpt><trkpt lat="31.065333808651648" lon="-6.1620042272381825"><ele>1659.0</ele><time>2026-05-05T09:37:43Z</time></trkpt><trkpt lat="31.065357386567467" lon="-6.161906919072091"><ele>1659.0</ele><time>2026-05-05T09:37:44Z</time></trkpt><trkpt lat="31.065384023676597" lon="-6.161812330417434"><ele>1659.0</ele><time>2026-05-05T09:37:45Z</time></trkpt><trkpt lat="31.06540671317398" lon="-6.161715613152308"><ele>1659.0</ele><time>2026-05-05T09:37:46Z</time></trkpt><trkpt lat="31.06542913574571" lon="-6.161617104933637"><ele>1659.0</ele><time>2026-05-05T09:37:47Z</time></trkpt><trkpt lat="31.065456570423823" lon="-6.161511771321822"><ele>1659.0</ele><time>2026-05-05T09:37:48Z</time></trkpt><trkpt lat="31.065485874864418" lon="-6.1614068182073245"><ele>1659.0</ele><time>2026-05-05T09:37:49Z</time></trkpt><trkpt lat="31.06551342974856" lon="-6.161301234365589"><ele>1659.0</ele><time>2026-05-05T09:37:50Z</time></trkpt><trkpt lat="31.065543816491317" lon="-6.161197010843032"><ele>1659.0</ele><time>2026-05-05T09:37:51Z</time></trkpt><trkpt lat="31.065573241984847" lon="-6.161092388839381"><ele>1659.0</ele><time>2026-05-05T09:37:52Z</time></trkpt><trkpt lat="31.065597581254558" lon="-6.160989442260867"><ele>1659.0</ele><time>2026-05-05T09:37:53Z</time></trkpt><trkpt lat="31.065621887286852" lon="-6.1608920371614335"><ele>1659.0</ele><time>2026-05-05T09:37:54Z</time></trkpt><trkpt lat="31.065640279668425" lon="-6.1607930654949365"><ele>1659.1666666666667</ele><time>2026-05-05T09:37:55Z</time></trkpt><trkpt lat="31.065658278949087" lon="-6.160688710945224"><ele>1659.3333333333335</ele><time>2026-05-05T09:37:56Z</time></trkpt><trkpt lat="31.06567954430809" lon="-6.1605858919246"><ele>1659.5</ele><time>2026-05-05T09:37:57Z</time></trkpt><trkpt lat="31.06570444929188" lon="-6.160487360969528"><ele>1659.6666666666667</ele><time>2026-05-05T09:37:58Z</time></trkpt><trkpt lat="31.065732560927156" lon="-6.1603914192754505"><ele>1659.8333333333335</ele><time>2026-05-05T09:37:59Z</time></trkpt><trkpt lat="31.065762195464245" lon="-6.160297695453456"><ele>1660.0</ele><time>2026-05-05T09:38:00Z</time></trkpt><trkpt lat="31.065792959544638" lon="-6.160200827969773"><ele>1658.8333333333335</ele><time>2026-05-05T09:38:01Z</time></trkpt><trkpt lat="31.06582270665307" lon="-6.160101287137277"><ele>1657.6666666666667</ele><time>2026-05-05T09:38:02Z</time></trkpt><trkpt lat="31.06585289596674" lon="-6.160001873077948"><ele>1656.5</ele><time>2026-05-05T09:38:03Z</time></trkpt><trkpt lat="31.06588217649102" lon="-6.159909336899346"><ele>1655.3333333333335</ele><time>2026-05-05T09:38:04Z</time></trkpt><trkpt lat="31.06591156758435" lon="-6.159816670982641"><ele>1654.1666666666667</ele><time>2026-05-05T09:38:05Z</time></trkpt><trkpt lat="31.06593830476365" lon="-6.15972234555908"><ele>1653.0</ele><time>2026-05-05T09:38:06Z</time></trkpt><trkpt lat="31.065961817090468" lon="-6.159626896056682"><ele>1652.5</ele><time>2026-05-05T09:38:07Z</time></trkpt><trkpt lat="31.065985299608624" lon="-6.159537750803141"><ele>1652.0</ele><time>2026-05-05T09:38:08Z</time></trkpt><trkpt lat="31.066008605282335" lon="-6.159450784953353"><ele>1651.5</ele><time>2026-05-05T09:38:09Z</time></trkpt><trkpt lat="31.066038453406883" lon="-6.159369823910057"><ele>1651.0</ele><time>2026-05-05T09:38:10Z</time></trkpt><trkpt lat="31.06607351490814" lon="-6.159282166965806"><ele>1650.5</ele><time>2026-05-05T09:38:11Z</time></trkpt><trkpt lat="31.066112395426146" lon="-6.159190657490081"><ele>1650.0</ele><time>2026-05-05T09:38:12Z</time></trkpt><trkpt lat="31.0661516651224" lon="-6.159102029689637"><ele>1651.0</ele><time>2026-05-05T09:38:13Z</time></trkpt><trkpt lat="31.066189364128128" lon="-6.159016055518971"><ele>1652.0</ele><time>2026-05-05T09:38:14Z</time></trkpt><trkpt lat="31.066225902276855" lon="-6.158936345440059"><ele>1653.0</ele><time>2026-05-05T09:38:15Z</time></trkpt><trkpt lat="31.06625486188046" lon="-6.158866830252864"><ele>1654.0</ele><time>2026-05-05T09:38:16Z</time></trkpt><trkpt lat="31.066292845756788" lon="-6.158737718378444"><ele>1655.0</ele><time>2026-05-05T09:38:18Z</time></trkpt><trkpt lat="31.06631054127659" lon="-6.1586651147982385"><ele>1656.0</ele><time>2026-05-05T09:38:19Z</time></trkpt><trkpt lat="31.066323429325262" lon="-6.158575906828733"><ele>1656.0</ele><time>2026-05-05T09:38:20Z</time></trkpt><trkpt lat="31.0663325611345" lon="-6.158480044123548"><ele>1656.0</ele><time>2026-05-05T09:38:21Z</time></trkpt><trkpt lat="31.066341946303577" lon="-6.158375162646635"><ele>1656.0</ele><time>2026-05-05T09:38:22Z</time></trkpt><trkpt lat="31.066351939705836" lon="-6.158281678227244"><ele>1656.0</ele><time>2026-05-05T09:38:23Z</time></trkpt><trkpt lat="31.0663570909527" lon="-6.158180221521519"><ele>1656.0</ele><time>2026-05-05T09:38:24Z</time></trkpt><trkpt lat="31.066351652870175" lon="-6.158081915697156"><ele>1656.0</ele><time>2026-05-05T09:38:25Z</time></trkpt><trkpt lat="31.066337155825444" lon="-6.157984252182273"><ele>1656.1666666666667</ele><time>2026-05-05T09:38:26Z</time></trkpt><trkpt lat="31.06631320445595" lon="-6.157882703073836"><ele>1656.3333333333335</ele><time>2026-05-05T09:38:27Z</time></trkpt><trkpt lat="31.066280964686566" lon="-6.157788617527019"><ele>1656.5</ele><time>2026-05-05T09:38:28Z</time></trkpt><trkpt lat="31.066245048988385" lon="-6.15770173861206"><ele>1656.6666666666667</ele><time>2026-05-05T09:38:29Z</time></trkpt><trkpt lat="31.066205653146948" lon="-6.157613148507676"><ele>1656.8333333333335</ele><time>2026-05-05T09:38:30Z</time></trkpt><trkpt lat="31.06615986519436" lon="-6.1575195385230135"><ele>1657.0</ele><time>2026-05-05T09:38:31Z</time></trkpt><trkpt lat="31.06611434555659" lon="-6.157416450749418"><ele>1656.6</ele><time>2026-05-05T09:38:32Z</time></trkpt><trkpt lat="31.066075550423083" lon="-6.157305803863937"><ele>1656.1999999999998</ele><time>2026-05-05T09:38:33Z</time></trkpt><trkpt lat="31.066040339594597" lon="-6.157200664504594"><ele>1655.8</ele><time>2026-05-05T09:38:34Z</time></trkpt><trkpt lat="31.06600635029771" lon="-6.157096025111464"><ele>1655.4</ele><time>2026-05-05T09:38:35Z</time></trkpt><trkpt lat="31.065975196100887" lon="-6.156994815208279"><ele>1655.0</ele><time>2026-05-05T09:38:36Z</time></trkpt><trkpt lat="31.065940997359345" lon="-6.156891936588287"><ele>1654.9999999999998</ele><time>2026-05-05T09:38:37Z</time></trkpt><trkpt lat="31.065910023479546" lon="-6.156794864279394"><ele>1655.0</ele><time>2026-05-05T09:38:38Z</time></trkpt><trkpt lat="31.065873395506593" lon="-6.156699853107999"><ele>1655.0</ele><time>2026-05-05T09:38:39Z</time></trkpt><trkpt lat="31.06583398232961" lon="-6.156609314443575"><ele>1655.0</ele><time>2026-05-05T09:38:40Z</time></trkpt><trkpt lat="31.06579460735912" lon="-6.156524382045592"><ele>1654.9999999999998</ele><time>2026-05-05T09:38:41Z</time></trkpt><trkpt lat="31.065765421563075" lon="-6.156435825080358"><ele>1655.0</ele><time>2026-05-05T09:38:42Z</time></trkpt><trkpt lat="31.06575172312169" lon="-6.156350340375186"><ele>1655.4999999999998</ele><time>2026-05-05T09:38:43Z</time></trkpt><trkpt lat="31.0657558004273" lon="-6.156262300258995"><ele>1656.0</ele><time>2026-05-05T09:38:44Z</time></trkpt><trkpt lat="31.065760152347128" lon="-6.156164232497529"><ele>1656.5</ele><time>2026-05-05T09:38:45Z</time></trkpt><trkpt lat="31.065743189703884" lon="-6.15607071089475"><ele>1657.0</ele><time>2026-05-05T09:38:46Z</time></trkpt><trkpt lat="31.065714851432357" lon="-6.155987195816741"><ele>1657.4999999999998</ele><time>2026-05-05T09:38:47Z</time></trkpt><trkpt lat="31.065689250433152" lon="-6.155914476502142"><ele>1658.0</ele><time>2026-05-05T09:38:48Z</time></trkpt><trkpt lat="31.065620778634223" lon="-6.155789212558032"><ele>1657.9999999999998</ele><time>2026-05-05T09:38:50Z</time></trkpt><trkpt lat="31.065526397477246" lon="-6.155708678921467"><ele>1658.0</ele><time>2026-05-05T09:38:52Z</time></trkpt><trkpt lat="31.065459630046316" lon="-6.155695649456296"><ele>1658.0</ele><time>2026-05-05T09:38:53Z</time></trkpt><trkpt lat="31.06538458933397" lon="-6.1556980118704585"><ele>1658.0</ele><time>2026-05-05T09:38:54Z</time></trkpt><trkpt lat="31.065309570230138" lon="-6.155700777560501"><ele>1657.9999999999998</ele><time>2026-05-05T09:38:55Z</time></trkpt><trkpt lat="31.065237190162392" lon="-6.155693795622127"><ele>1658.0</ele><time>2026-05-05T09:38:56Z</time></trkpt><trkpt lat="31.06513697356189" lon="-6.155636472747324"><ele>1656.8000000000002</ele><time>2026-05-05T09:38:58Z</time></trkpt><trkpt lat="31.06506749355602" lon="-6.15551147562014"><ele>1655.6</ele><time>2026-05-05T09:39:00Z</time></trkpt><trkpt lat="31.065041796322884" lon="-6.155427977370116"><ele>1654.4</ele><time>2026-05-05T09:39:01Z</time></trkpt><trkpt lat="31.065031962232638" lon="-6.1553497966961865"><ele>1653.1999999999998</ele><time>2026-05-05T09:39:02Z</time></trkpt><trkpt lat="31.065041396929946" lon="-6.1552226088541335"><ele>1652.0</ele><time>2026-05-05T09:39:04Z</time></trkpt><trkpt lat="31.064995512536374" lon="-6.1551308952765655"><ele>1652.25</ele><time>2026-05-05T09:39:06Z</time></trkpt><trkpt lat="31.0648763865988" lon="-6.155069651672011"><ele>1652.5</ele><time>2026-05-05T09:39:08Z</time></trkpt><trkpt lat="31.064794972874633" lon="-6.154979033639333"><ele>1652.75</ele><time>2026-05-05T09:39:10Z</time></trkpt><trkpt lat="31.064705655764417" lon="-6.154886132661078"><ele>1653.0</ele><time>2026-05-05T09:39:12Z</time></trkpt><trkpt lat="31.06458833159534" lon="-6.154867451336151"><ele>1653.0</ele><time>2026-05-05T09:39:14Z</time></trkpt><trkpt lat="31.064517114545602" lon="-6.154869488707423"><ele>1653.0</ele><time>2026-05-05T09:39:15Z</time></trkpt><trkpt lat="31.064446347783903" lon="-6.154860354910414"><ele>1653.0</ele><time>2026-05-05T09:39:16Z</time></trkpt><trkpt lat="31.064379299272105" lon="-6.1548331570446715"><ele>1653.0</ele><time>2026-05-05T09:39:17Z</time></trkpt><trkpt lat="31.06431571574377" lon="-6.154793900614875"><ele>1653.0</ele><time>2026-05-05T09:39:18Z</time></trkpt><trkpt lat="31.064205741470577" lon="-6.154747021604782"><ele>1653.0</ele><time>2026-05-05T09:39:20Z</time></trkpt><trkpt lat="31.06412186808316" lon="-6.154693559616655"><ele>1653.3333333333333</ele><time>2026-05-05T09:39:22Z</time></trkpt><trkpt lat="31.064088839221554" lon="-6.154594168855717"><ele>1653.6666666666665</ele><time>2026-05-05T09:39:24Z</time></trkpt><trkpt lat="31.064022061622925" lon="-6.154508073986902"><ele>1654.0</ele><time>2026-05-05T09:39:26Z</time></trkpt><trkpt lat="31.063965770972047" lon="-6.154471585107453"><ele>1654.3333333333333</ele><time>2026-05-05T09:39:27Z</time></trkpt><trkpt lat="31.06390262500963" lon="-6.154429847417449"><ele>1654.6666666666665</ele><time>2026-05-05T09:39:28Z</time></trkpt><trkpt lat="31.06383617002978" lon="-6.154389553260498"><ele>1655.0</ele><time>2026-05-05T09:39:29Z</time></trkpt><trkpt lat="31.063766795248508" lon="-6.154350847459977"><ele>1654.9999999999998</ele><time>2026-05-05T09:39:30Z</time></trkpt><trkpt lat="31.063699265391325" lon="-6.154315116541932"><ele>1655.0</ele><time>2026-05-05T09:39:31Z</time></trkpt><trkpt lat="31.063620882737702" lon="-6.154279850875836"><ele>1655.0</ele><time>2026-05-05T09:39:32Z</time></trkpt><trkpt lat="31.063540995395464" lon="-6.154249983065746"><ele>1655.0</ele><time>2026-05-05T09:39:33Z</time></trkpt><trkpt lat="31.063462231265046" lon="-6.154229163294039"><ele>1654.9999999999998</ele><time>2026-05-05T09:39:34Z</time></trkpt><trkpt lat="31.063383205933977" lon="-6.154214650886304"><ele>1655.0</ele><time>2026-05-05T09:39:35Z</time></trkpt><trkpt lat="31.063305093712152" lon="-6.154206430156688"><ele>1655.6666666666665</ele><time>2026-05-05T09:39:36Z</time></trkpt><trkpt lat="31.06323591161227" lon="-6.154211278594373"><ele>1656.3333333333333</ele><time>2026-05-05T09:39:37Z</time></trkpt><trkpt lat="31.063165503495867" lon="-6.154236928197613"><ele>1657.0</ele><time>2026-05-05T09:39:38Z</time></trkpt><trkpt lat="31.063103858564038" lon="-6.15428036004931"><ele>1657.6666666666665</ele><time>2026-05-05T09:39:39Z</time></trkpt><trkpt lat="31.063048638017648" lon="-6.154336479561974"><ele>1658.3333333333333</ele><time>2026-05-05T09:39:40Z</time></trkpt><trkpt lat="31.062992449784197" lon="-6.154409311661429"><ele>1659.0</ele><time>2026-05-05T09:39:41Z</time></trkpt><trkpt lat="31.062931308091102" lon="-6.154479539548583"><ele>1659.0</ele><time>2026-05-05T09:39:42Z</time></trkpt><trkpt lat="31.06285919511525" lon="-6.154542876056107"><ele>1659.0</ele><time>2026-05-05T09:39:43Z</time></trkpt><trkpt lat="31.062777856153886" lon="-6.154589115314793"><ele>1659.0</ele><time>2026-05-05T09:39:44Z</time></trkpt><trkpt lat="31.062683039979234" lon="-6.15462333949993"><ele>1659.0</ele><time>2026-05-05T09:39:45Z</time></trkpt><trkpt lat="31.062574933139" lon="-6.154661595498324"><ele>1659.0</ele><time>2026-05-05T09:39:46Z</time></trkpt><trkpt lat="31.062468946231284" lon="-6.154708044143792"><ele>1659.2</ele><time>2026-05-05T09:39:47Z</time></trkpt><trkpt lat="31.062371363721333" lon="-6.154752966253606"><ele>1659.4</ele><time>2026-05-05T09:39:48Z</time></trkpt><trkpt lat="31.062273958721356" lon="-6.154790657329472"><ele>1659.6</ele><time>2026-05-05T09:39:49Z</time></trkpt><trkpt lat="31.062176740415364" lon="-6.15482191426168"><ele>1659.8</ele><time>2026-05-05T09:39:50Z</time></trkpt><trkpt lat="31.062083897278878" lon="-6.1548441005920145"><ele>1660.0</ele><time>2026-05-05T09:39:51Z</time></trkpt><trkpt lat="31.061986901484744" lon="-6.154871489522827"><ele>1660.4</ele><time>2026-05-05T09:39:52Z</time></trkpt><trkpt lat="31.06189483156306" lon="-6.154895585478622"><ele>1660.8</ele><time>2026-05-05T09:39:53Z</time></trkpt><trkpt lat="31.061804442370786" lon="-6.154919200437237"><ele>1661.1999999999998</ele><time>2026-05-05T09:39:54Z</time></trkpt><trkpt lat="31.061713052834573" lon="-6.154931349295977"><ele>1661.6</ele><time>2026-05-05T09:39:55Z</time></trkpt><trkpt lat="31.061619160139177" lon="-6.154936480096452"><ele>1662.0</ele><time>2026-05-05T09:39:56Z</time></trkpt><trkpt lat="31.061524593411082" lon="-6.154944492219928"><ele>1662.0</ele><time>2026-05-05T09:39:57Z</time></trkpt><trkpt lat="31.06143537585492" lon="-6.154963287224712"><ele>1662.0</ele><time>2026-05-05T09:39:58Z</time></trkpt><trkpt lat="31.061344918371816" lon="-6.15498559658704"><ele>1662.0</ele><time>2026-05-05T09:39:59Z</time></trkpt><trkpt lat="31.061259203484756" lon="-6.155012388596074"><ele>1662.0</ele><time>2026-05-05T09:40:00Z</time></trkpt><trkpt lat="31.0611685846967" lon="-6.155045831373735"><ele>1662.0</ele><time>2026-05-05T09:40:01Z</time></trkpt><trkpt lat="31.06107611082003" lon="-6.1550751677966495"><ele>1662.0</ele><time>2026-05-05T09:40:02Z</time></trkpt><trkpt lat="31.06097942933352" lon="-6.155099362859265"><ele>1662.0</ele><time>2026-05-05T09:40:03Z</time></trkpt><trkpt lat="31.060882163002553" lon="-6.1551241952715126"><ele>1662.0</ele><time>2026-05-05T09:40:04Z</time></trkpt><trkpt lat="31.06078219864114" lon="-6.15515281149953"><ele>1662.0</ele><time>2026-05-05T09:40:05Z</time></trkpt><trkpt lat="31.060683241821273" lon="-6.15518303305396"><ele>1662.0</ele><time>2026-05-05T09:40:06Z</time></trkpt><trkpt lat="31.060583858193173" lon="-6.155216310158232"><ele>1662.1999999999998</ele><time>2026-05-05T09:40:07Z</time></trkpt><trkpt lat="31.060485903494065" lon="-6.155253856799815"><ele>1662.4</ele><time>2026-05-05T09:40:08Z</time></trkpt><trkpt lat="31.060389005261445" lon="-6.155286641398591"><ele>1662.6</ele><time>2026-05-05T09:40:09Z</time></trkpt><trkpt lat="31.060291601447975" lon="-6.155309372474741"><ele>1662.8000000000002</ele><time>2026-05-05T09:40:10Z</time></trkpt><trkpt lat="31.060194456524833" lon="-6.155325114900766"><ele>1663.0</ele><time>2026-05-05T09:40:11Z</time></trkpt><trkpt lat="31.060093042303183" lon="-6.1553491923557635"><ele>1663.0</ele><time>2026-05-05T09:40:12Z</time></trkpt><trkpt lat="31.059997074079238" lon="-6.155379930811898"><ele>1663.0</ele><time>2026-05-05T09:40:13Z</time></trkpt><trkpt lat="31.05990447584938" lon="-6.155413961554036"><ele>1663.0</ele><time>2026-05-05T09:40:14Z</time></trkpt><trkpt lat="31.059816442541607" lon="-6.155446202850144"><ele>1663.0</ele><time>2026-05-05T09:40:15Z</time></trkpt><trkpt lat="31.059731134670354" lon="-6.155469161004366"><ele>1663.0</ele><time>2026-05-05T09:40:16Z</time></trkpt><trkpt lat="31.059645409935392" lon="-6.155483974647003"><ele>1664.4</ele><time>2026-05-05T09:40:17Z</time></trkpt><trkpt lat="31.0595584877047" lon="-6.155505833089891"><ele>1665.8000000000002</ele><time>2026-05-05T09:40:18Z</time></trkpt><trkpt lat="31.05946854485865" lon="-6.155530766298852"><ele>1667.2</ele><time>2026-05-05T09:40:19Z</time></trkpt><trkpt lat="31.059384647843018" lon="-6.155569793049283"><ele>1668.6</ele><time>2026-05-05T09:40:20Z</time></trkpt><trkpt lat="31.059300431173156" lon="-6.155613875548716"><ele>1670.0</ele><time>2026-05-05T09:40:21Z</time></trkpt><trkpt lat="31.05921553512869" lon="-6.155655138105072"><ele>1669.6</ele><time>2026-05-05T09:40:22Z</time></trkpt><trkpt lat="31.0591457193292" lon="-6.155704137435589"><ele>1669.2</ele><time>2026-05-05T09:40:23Z</time></trkpt><trkpt lat="31.059070545555386" lon="-6.155770268275773"><ele>1668.8000000000002</ele><time>2026-05-05T09:40:24Z</time></trkpt><trkpt lat="31.058989794728422" lon="-6.155830614650013"><ele>1668.4</ele><time>2026-05-05T09:40:25Z</time></trkpt><trkpt lat="31.05891134610155" lon="-6.155887250731701"><ele>1668.0</ele><time>2026-05-05T09:40:26Z</time></trkpt><trkpt lat="31.058825151168666" lon="-6.155941626989291"><ele>1668.0</ele><time>2026-05-05T09:40:27Z</time></trkpt><trkpt lat="31.05872998076272" lon="-6.155993754430375"><ele>1668.0</ele><time>2026-05-05T09:40:28Z</time></trkpt><trkpt lat="31.058626559541036" lon="-6.15604763336243"><ele>1668.0</ele><time>2026-05-05T09:40:29Z</time></trkpt><trkpt lat="31.058516628494797" lon="-6.156095656505247"><ele>1668.0</ele><time>2026-05-05T09:40:30Z</time></trkpt><trkpt lat="31.05841228134115" lon="-6.156130724774147"><ele>1668.0</ele><time>2026-05-05T09:40:31Z</time></trkpt><trkpt lat="31.058313163758484" lon="-6.156165517086363"><ele>1668.6000000000001</ele><time>2026-05-05T09:40:32Z</time></trkpt><trkpt lat="31.058215459703792" lon="-6.156200723325908"><ele>1669.2</ele><time>2026-05-05T09:40:33Z</time></trkpt><trkpt lat="31.058110467604152" lon="-6.156230853463795"><ele>1669.8</ele><time>2026-05-05T09:40:34Z</time></trkpt><trkpt lat="31.05799382526808" lon="-6.156256367665611"><ele>1670.4</ele><time>2026-05-05T09:40:35Z</time></trkpt><trkpt lat="31.05788326898046" lon="-6.156278730700252"><ele>1671.0</ele><time>2026-05-05T09:40:36Z</time></trkpt><trkpt lat="31.057777377393883" lon="-6.156303541744767"><ele>1671.0</ele><time>2026-05-05T09:40:37Z</time></trkpt><trkpt lat="31.057663104980737" lon="-6.156336716091051"><ele>1671.0</ele><time>2026-05-05T09:40:38Z</time></trkpt><trkpt lat="31.057559501870855" lon="-6.156365686821836"><ele>1671.0</ele><time>2026-05-05T09:40:39Z</time></trkpt><trkpt lat="31.057466927894865" lon="-6.156395638880439"><ele>1671.0</ele><time>2026-05-05T09:40:40Z</time></trkpt><trkpt lat="31.057386425075645" lon="-6.156432055265945"><ele>1671.0</ele><time>2026-05-05T09:40:41Z</time></trkpt><trkpt lat="31.05729700465646" lon="-6.156474732333045"><ele>1670.6666666666667</ele><time>2026-05-05T09:40:42Z</time></trkpt><trkpt lat="31.05721076210058" lon="-6.156499434630523"><ele>1670.3333333333335</ele><time>2026-05-05T09:40:43Z</time></trkpt><trkpt lat="31.05713645119469" lon="-6.156524457601991"><ele>1670.0</ele><time>2026-05-05T09:40:44Z</time></trkpt><trkpt lat="31.05707071493854" lon="-6.156557758188185"><ele>1669.6666666666667</ele><time>2026-05-05T09:40:45Z</time></trkpt><trkpt lat="31.05701525576655" lon="-6.156619657733782"><ele>1669.3333333333335</ele><time>2026-05-05T09:40:46Z</time></trkpt><trkpt lat="31.056968779975577" lon="-6.156690199007541"><ele>1669.0</ele><time>2026-05-05T09:40:47Z</time></trkpt><trkpt lat="31.056890700334137" lon="-6.156767798569417"><ele>1669.0</ele><time>2026-05-05T09:40:48Z</time></trkpt><trkpt lat="31.056802310789532" lon="-6.156853879108678"><ele>1669.0</ele><time>2026-05-05T09:40:49Z</time></trkpt><trkpt lat="31.056705264896106" lon="-6.156941702848122"><ele>1669.0</ele><time>2026-05-05T09:40:50Z</time></trkpt><trkpt lat="31.05662277455003" lon="-6.157026788304454"><ele>1669.0</ele><time>2026-05-05T09:40:51Z</time></trkpt><trkpt lat="31.056538334389437" lon="-6.157109328077971"><ele>1669.4</ele><time>2026-05-05T09:40:52Z</time></trkpt><trkpt lat="31.056447121241604" lon="-6.157174464862281"><ele>1669.8000000000002</ele><time>2026-05-05T09:40:53Z</time></trkpt><trkpt lat="31.056350489656836" lon="-6.15723206631246"><ele>1670.1999999999998</ele><time>2026-05-05T09:40:54Z</time></trkpt><trkpt lat="31.056255838072957" lon="-6.157291012295847"><ele>1670.6</ele><time>2026-05-05T09:40:55Z</time></trkpt><trkpt lat="31.056171614122924" lon="-6.157347016155827"><ele>1671.0</ele><time>2026-05-05T09:40:56Z</time></trkpt><trkpt lat="31.05608445412549" lon="-6.157393675761473"><ele>1671.4</ele><time>2026-05-05T09:40:57Z</time></trkpt><trkpt lat="31.055989004168243" lon="-6.157430613962453"><ele>1671.8</ele><time>2026-05-05T09:40:58Z</time></trkpt><trkpt lat="31.05588757270199" lon="-6.157471383072851"><ele>1672.2</ele><time>2026-05-05T09:40:59Z</time></trkpt><trkpt lat="31.0557841128496" lon="-6.157522151057205"><ele>1672.6000000000001</ele><time>2026-05-05T09:41:00Z</time></trkpt><trkpt lat="31.0556857628665" lon="-6.157582847717745"><ele>1673.0</ele><time>2026-05-05T09:41:01Z</time></trkpt><trkpt lat="31.055586420631432" lon="-6.157646686043428"><ele>1673.0</ele><time>2026-05-05T09:41:02Z</time></trkpt><trkpt lat="31.055487877319994" lon="-6.1577006462611426"><ele>1673.0</ele><time>2026-05-05T09:41:03Z</time></trkpt><trkpt lat="31.05539311848552" lon="-6.157747039648014"><ele>1673.0</ele><time>2026-05-05T09:41:04Z</time></trkpt><trkpt lat="31.05529545234867" lon="-6.157794739345136"><ele>1673.0</ele><time>2026-05-05T09:41:05Z</time></trkpt><trkpt lat="31.055199537900638" lon="-6.157844420718584"><ele>1673.0</ele><time>2026-05-05T09:41:06Z</time></trkpt><trkpt lat="31.05510383958367" lon="-6.157897200593096"><ele>1673.0</ele><time>2026-05-05T09:41:07Z</time></trkpt><trkpt lat="31.055008853578723" lon="-6.157944854844042"><ele>1673.0</ele><time>2026-05-05T09:41:08Z</time></trkpt><trkpt lat="31.05491966526933" lon="-6.157989473901972"><ele>1673.0</ele><time>2026-05-05T09:41:09Z</time></trkpt><trkpt lat="31.0548354814407" lon="-6.158029631178292"><ele>1673.0</ele><time>2026-05-05T09:41:10Z</time></trkpt><trkpt lat="31.05474947683879" lon="-6.158066563637167"><ele>1673.0</ele><time>2026-05-05T09:41:11Z</time></trkpt><trkpt lat="31.054661839258145" lon="-6.158104588493618"><ele>1673.2</ele><time>2026-05-05T09:41:12Z</time></trkpt><trkpt lat="31.054573958582044" lon="-6.1581453041038285"><ele>1673.4</ele><time>2026-05-05T09:41:13Z</time></trkpt><trkpt lat="31.054484805049473" lon="-6.1581946643672385"><ele>1673.6000000000001</ele><time>2026-05-05T09:41:14Z</time></trkpt><trkpt lat="31.054393500575728" lon="-6.1582514252134075"><ele>1673.8000000000002</ele><time>2026-05-05T09:41:15Z</time></trkpt><trkpt lat="31.054312131618016" lon="-6.158301204960055"><ele>1674.0</ele><time>2026-05-05T09:41:16Z</time></trkpt><trkpt lat="31.054235854306885" lon="-6.15834714828532"><ele>1674.2857142857142</ele><time>2026-05-05T09:41:17Z</time></trkpt><trkpt lat="31.054166222451652" lon="-6.158388956469536"><ele>1674.5714285714287</ele><time>2026-05-05T09:41:18Z</time></trkpt><trkpt lat="31.054101596788012" lon="-6.158429636040841"><ele>1674.8571428571427</ele><time>2026-05-05T09:41:19Z</time></trkpt><trkpt lat="31.054041224956393" lon="-6.158457328036624"><ele>1675.142857142857</ele><time>2026-05-05T09:41:20Z</time></trkpt><trkpt lat="31.053976376169985" lon="-6.158473906914744"><ele>1675.4285714285713</ele><time>2026-05-05T09:41:21Z</time></trkpt><trkpt lat="31.053906830219287" lon="-6.158465427967581"><ele>1675.7142857142856</ele><time>2026-05-05T09:41:22Z</time></trkpt><trkpt lat="31.05384739417133" lon="-6.158432498774646"><ele>1676.0</ele><time>2026-05-05T09:41:23Z</time></trkpt><trkpt lat="31.053780531974443" lon="-6.158332917982541"><ele>1676.1999999999998</ele><time>2026-05-05T09:41:25Z</time></trkpt><trkpt lat="31.053758483838678" lon="-6.158230235273676"><ele>1676.3999999999999</ele><time>2026-05-05T09:41:28Z</time></trkpt><trkpt lat="31.053703087360162" lon="-6.158134676273406"><ele>1676.6</ele><time>2026-05-05T09:41:30Z</time></trkpt><trkpt lat="31.053577848384304" lon="-6.15811723975709"><ele>1676.8</ele><time>2026-05-05T09:41:32Z</time></trkpt><trkpt lat="31.053504032245204" lon="-6.158136510031218"><ele>1677.0</ele><time>2026-05-05T09:41:33Z</time></trkpt><trkpt lat="31.053417119913636" lon="-6.158157167459531"><ele>1677.8</ele><time>2026-05-05T09:41:34Z</time></trkpt><trkpt lat="31.053328526062657" lon="-6.158176209121992"><ele>1678.6</ele><time>2026-05-05T09:41:35Z</time></trkpt><trkpt lat="31.05323223144071" lon="-6.158196125786281"><ele>1679.3999999999999</ele><time>2026-05-05T09:41:36Z</time></trkpt><trkpt lat="31.053135749387987" lon="-6.158212048821815"><ele>1680.1999999999998</ele><time>2026-05-05T09:41:37Z</time></trkpt><trkpt lat="31.053039574647514" lon="-6.15822994069031"><ele>1681.0</ele><time>2026-05-05T09:41:38Z</time></trkpt><trkpt lat="31.052941112881552" lon="-6.158259166747282"><ele>1681.1999999999998</ele><time>2026-05-05T09:41:39Z</time></trkpt><trkpt lat="31.052846728623276" lon="-6.15830809279188"><ele>1681.3999999999999</ele><time>2026-05-05T09:41:40Z</time></trkpt><trkpt lat="31.05274980301181" lon="-6.158361636436802"><ele>1681.6</ele><time>2026-05-05T09:41:41Z</time></trkpt><trkpt lat="31.05265519180558" lon="-6.158423308037981"><ele>1681.8</ele><time>2026-05-05T09:41:42Z</time></trkpt><trkpt lat="31.05255828204295" lon="-6.158488453899821"><ele>1682.0</ele><time>2026-05-05T09:41:43Z</time></trkpt><trkpt lat="31.052453997181672" lon="-6.1585496306082295"><ele>1683.5</ele><time>2026-05-05T09:41:44Z</time></trkpt><trkpt lat="31.05235094798066" lon="-6.158609799167988"><ele>1685.0</ele><time>2026-05-05T09:41:45Z</time></trkpt><trkpt lat="31.052250201308343" lon="-6.158675743576868"><ele>1686.5</ele><time>2026-05-05T09:41:46Z</time></trkpt><trkpt lat="31.052155285240502" lon="-6.15874999075396"><ele>1688.0</ele><time>2026-05-05T09:41:47Z</time></trkpt><trkpt lat="31.05206478209459" lon="-6.158826115236458"><ele>1688.0</ele><time>2026-05-05T09:41:48Z</time></trkpt><trkpt lat="31.051976036442717" lon="-6.158908299155822"><ele>1688.0</ele><time>2026-05-05T09:41:49Z</time></trkpt><trkpt lat="31.05188765979796" lon="-6.158983356370997"><ele>1688.0</ele><time>2026-05-05T09:41:50Z</time></trkpt><trkpt lat="31.051798831916752" lon="-6.159050994035097"><ele>1688.0</ele><time>2026-05-05T09:41:51Z</time></trkpt><trkpt lat="31.051714232809452" lon="-6.159113416756233"><ele>1688.0</ele><time>2026-05-05T09:41:52Z</time></trkpt><trkpt lat="31.05163364653702" lon="-6.1591706139332905"><ele>1687.8333333333333</ele><time>2026-05-05T09:41:53Z</time></trkpt><trkpt lat="31.051552408985632" lon="-6.1592165654853686"><ele>1687.6666666666665</ele><time>2026-05-05T09:41:54Z</time></trkpt><trkpt lat="31.0514707655903" lon="-6.159260526317503"><ele>1687.5</ele><time>2026-05-05T09:41:55Z</time></trkpt><trkpt lat="31.05139386836899" lon="-6.159290466875715"><ele>1687.3333333333335</ele><time>2026-05-05T09:41:56Z</time></trkpt><trkpt lat="31.05131925116162" lon="-6.159317216557959"><ele>1687.1666666666667</ele><time>2026-05-05T09:41:57Z</time></trkpt><trkpt lat="31.05125148242308" lon="-6.159343894916966"><ele>1687.0</ele><time>2026-05-05T09:41:58Z</time></trkpt><trkpt lat="31.05118294247751" lon="-6.159371184616267"><ele>1687.0000000000002</ele><time>2026-05-05T09:41:59Z</time></trkpt><trkpt lat="31.051102930125314" lon="-6.159397612215116"><ele>1687.0</ele><time>2026-05-05T09:42:00Z</time></trkpt><trkpt lat="31.051020300717703" lon="-6.159431404379163"><ele>1687.0</ele><time>2026-05-05T09:42:01Z</time></trkpt><trkpt lat="31.050932271978944" lon="-6.15946828451923"><ele>1687.0</ele><time>2026-05-05T09:42:02Z</time></trkpt><trkpt lat="31.050846045265136" lon="-6.159500287427199"><ele>1687.0000000000002</ele><time>2026-05-05T09:42:03Z</time></trkpt><trkpt lat="31.050761632693625" lon="-6.159529348843999"><ele>1687.0</ele><time>2026-05-05T09:42:04Z</time></trkpt><trkpt lat="31.050676191269687" lon="-6.159559813512682"><ele>1687.6</ele><time>2026-05-05T09:42:05Z</time></trkpt><trkpt lat="31.050588892703423" lon="-6.159594649232269"><ele>1688.1999999999998</ele><time>2026-05-05T09:42:06Z</time></trkpt><trkpt lat="31.050501731161546" lon="-6.159634749359364"><ele>1688.8</ele><time>2026-05-05T09:42:07Z</time></trkpt><trkpt lat="31.05040557476594" lon="-6.159682053986369"><ele>1689.4</ele><time>2026-05-05T09:42:08Z</time></trkpt><trkpt lat="31.050314999782763" lon="-6.159736320949872"><ele>1690.0</ele><time>2026-05-05T09:42:09Z</time></trkpt><trkpt lat="31.05022210323163" lon="-6.159790657867602"><ele>1690.0</ele><time>2026-05-05T09:42:10Z</time></trkpt><trkpt lat="31.05012152242562" lon="-6.159848385945012"><ele>1690.0</ele><time>2026-05-05T09:42:11Z</time></trkpt><trkpt lat="31.05002625580892" lon="-6.159905126287815"><ele>1690.0</ele><time>2026-05-05T09:42:12Z</time></trkpt><trkpt lat="31.049927886374956" lon="-6.159960284571332"><ele>1690.0</ele><time>2026-05-05T09:42:13Z</time></trkpt><trkpt lat="31.049829367477358" lon="-6.160018252461536"><ele>1690.0</ele><time>2026-05-05T09:42:14Z</time></trkpt><trkpt lat="31.04973196017245" lon="-6.160072919728887"><ele>1690.4</ele><time>2026-05-05T09:42:15Z</time></trkpt><trkpt lat="31.049632092779436" lon="-6.160124800898766"><ele>1690.8</ele><time>2026-05-05T09:42:16Z</time></trkpt><trkpt lat="31.049531310464133" lon="-6.160171949924231"><ele>1691.1999999999998</ele><time>2026-05-05T09:42:17Z</time></trkpt><trkpt lat="31.049431542546635" lon="-6.160223511329294"><ele>1691.6</ele><time>2026-05-05T09:42:18Z</time></trkpt><trkpt lat="31.04933138121635" lon="-6.160271276710772"><ele>1692.0</ele><time>2026-05-05T09:42:19Z</time></trkpt><trkpt lat="31.04922905682613" lon="-6.160318980002636"><ele>1693.8</ele><time>2026-05-05T09:42:20Z</time></trkpt><trkpt lat="31.049125449922553" lon="-6.16036334547117"><ele>1695.6</ele><time>2026-05-05T09:42:21Z</time></trkpt><trkpt lat="31.049024484793197" lon="-6.160412010739002"><ele>1697.3999999999999</ele><time>2026-05-05T09:42:22Z</time></trkpt><trkpt lat="31.048930442825043" lon="-6.16046259227848"><ele>1699.1999999999998</ele><time>2026-05-05T09:42:23Z</time></trkpt><trkpt lat="31.048832769239993" lon="-6.160510901632431"><ele>1701.0</ele><time>2026-05-05T09:42:24Z</time></trkpt><trkpt lat="31.04873295292648" lon="-6.1605580542933005"><ele>1701.0</ele><time>2026-05-05T09:42:25Z</time></trkpt><trkpt lat="31.04863620055622" lon="-6.160601808752912"><ele>1701.0</ele><time>2026-05-05T09:42:26Z</time></trkpt><trkpt lat="31.048539709769116" lon="-6.160651222061076"><ele>1701.0</ele><time>2026-05-05T09:42:27Z</time></trkpt><trkpt lat="31.04844825621706" lon="-6.160703153866363"><ele>1701.0</ele><time>2026-05-05T09:42:28Z</time></trkpt><trkpt lat="31.048359419383566" lon="-6.16076369773474"><ele>1701.0</ele><time>2026-05-05T09:42:29Z</time></trkpt><trkpt lat="31.048272575447545" lon="-6.16082827492757"><ele>1702.8</ele><time>2026-05-05T09:42:30Z</time></trkpt><trkpt lat="31.04819101464716" lon="-6.1609077056023"><ele>1704.6</ele><time>2026-05-05T09:42:31Z</time></trkpt><trkpt lat="31.048119718046543" lon="-6.160995538117725"><ele>1706.4</ele><time>2026-05-05T09:42:32Z</time></trkpt><trkpt lat="31.048047299466294" lon="-6.161100467973294"><ele>1708.2</ele><time>2026-05-05T09:42:33Z</time></trkpt><trkpt lat="31.047975130814194" lon="-6.161198623231608"><ele>1710.0</ele><time>2026-05-05T09:42:34Z</time></trkpt><trkpt lat="31.047898311459065" lon="-6.161296229244016"><ele>1710.0</ele><time>2026-05-05T09:42:35Z</time></trkpt><trkpt lat="31.047821521473175" lon="-6.161385523119443"><ele>1710.0</ele><time>2026-05-05T09:42:36Z</time></trkpt><trkpt lat="31.047754931892275" lon="-6.161478216001006"><ele>1710.0</ele><time>2026-05-05T09:42:37Z</time></trkpt><trkpt lat="31.047690043998077" lon="-6.161573302105152"><ele>1710.0</ele><time>2026-05-05T09:42:38Z</time></trkpt><trkpt lat="31.047624983999242" lon="-6.161668553746003"><ele>1710.0</ele><time>2026-05-05T09:42:39Z</time></trkpt><trkpt lat="31.04756261535087" lon="-6.161772455514188"><ele>1708.8</ele><time>2026-05-05T09:42:40Z</time></trkpt><trkpt lat="31.047501129597777" lon="-6.161878905905242"><ele>1707.6</ele><time>2026-05-05T09:42:41Z</time></trkpt><trkpt lat="31.04744025736492" lon="-6.161975031059399"><ele>1706.4</ele><time>2026-05-05T09:42:42Z</time></trkpt><trkpt lat="31.047384013345845" lon="-6.162056721483964"><ele>1705.2</ele><time>2026-05-05T09:42:43Z</time></trkpt><trkpt lat="31.047329843328583" lon="-6.162129736077495"><ele>1704.0</ele><time>2026-05-05T09:42:44Z</time></trkpt><trkpt lat="31.04726699619785" lon="-6.162200760699004"><ele>1703.6666666666667</ele><time>2026-05-05T09:42:45Z</time></trkpt><trkpt lat="31.047207647385516" lon="-6.1622610615691915"><ele>1703.3333333333335</ele><time>2026-05-05T09:42:46Z</time></trkpt><trkpt lat="31.047149187804568" lon="-6.1623199313161585"><ele>1703.0</ele><time>2026-05-05T09:42:47Z</time></trkpt><trkpt lat="31.047087515668785" lon="-6.162385131767388"><ele>1702.6666666666667</ele><time>2026-05-05T09:42:48Z</time></trkpt><trkpt lat="31.047023183390795" lon="-6.162448139061422"><ele>1702.3333333333335</ele><time>2026-05-05T09:42:49Z</time></trkpt><trkpt lat="31.04694827963818" lon="-6.162517011104692"><ele>1702.0</ele><time>2026-05-05T09:42:50Z</time></trkpt><trkpt lat="31.046864084117836" lon="-6.162594807406424"><ele>1702.0</ele><time>2026-05-05T09:42:51Z</time></trkpt><trkpt lat="31.046774816353658" lon="-6.162667815589059"><ele>1702.0</ele><time>2026-05-05T09:42:52Z</time></trkpt><trkpt lat="31.046683886196842" lon="-6.162740407370795"><ele>1702.0</ele><time>2026-05-05T09:42:53Z</time></trkpt><trkpt lat="31.046589765225352" lon="-6.162815038665479"><ele>1702.0</ele><time>2026-05-05T09:42:54Z</time></trkpt><trkpt lat="31.046496544378016" lon="-6.162887988807472"><ele>1702.0</ele><time>2026-05-05T09:42:55Z</time></trkpt><trkpt lat="31.04640314044875" lon="-6.162961848714581"><ele>1701.8</ele><time>2026-05-05T09:42:56Z</time></trkpt><trkpt lat="31.04631156665319" lon="-6.1630350056546535"><ele>1701.6</ele><time>2026-05-05T09:42:57Z</time></trkpt><trkpt lat="31.046222339001805" lon="-6.163106839078266"><ele>1701.3999999999999</ele><time>2026-05-05T09:42:58Z</time></trkpt><trkpt lat="31.04612977530977" lon="-6.163181309502827"><ele>1701.1999999999998</ele><time>2026-05-05T09:42:59Z</time></trkpt><trkpt lat="31.046038483230245" lon="-6.163255904348327"><ele>1701.0</ele><time>2026-05-05T09:43:00Z</time></trkpt><trkpt lat="31.045952478622606" lon="-6.163323960444231"><ele>1700.8</ele><time>2026-05-05T09:43:01Z</time></trkpt><trkpt lat="31.045868946341866" lon="-6.1633851854277255"><ele>1700.6</ele><time>2026-05-05T09:43:02Z</time></trkpt><trkpt lat="31.04578910072986" lon="-6.163443500647268"><ele>1700.4</ele><time>2026-05-05T09:43:03Z</time></trkpt><trkpt lat="31.045701963841648" lon="-6.163507303184614"><ele>1700.2</ele><time>2026-05-05T09:43:04Z</time></trkpt><trkpt lat="31.04562585487072" lon="-6.163563389488318"><ele>1700.0</ele><time>2026-05-05T09:43:05Z</time></trkpt><trkpt lat="31.045550229744162" lon="-6.163611575896975"><ele>1699.9999999999998</ele><time>2026-05-05T09:43:06Z</time></trkpt><trkpt lat="31.045481933822376" lon="-6.1636538918156845"><ele>1700.0</ele><time>2026-05-05T09:43:07Z</time></trkpt><trkpt lat="31.04541587264457" lon="-6.163706791238869"><ele>1700.0</ele><time>2026-05-05T09:43:08Z</time></trkpt><trkpt lat="31.045353970731654" lon="-6.163771576962418"><ele>1700.0</ele><time>2026-05-05T09:43:09Z</time></trkpt><trkpt lat="31.045295057366697" lon="-6.163845501196437"><ele>1699.9999999999998</ele><time>2026-05-05T09:43:10Z</time></trkpt><trkpt lat="31.04523077952784" lon="-6.163925699649545"><ele>1700.0</ele><time>2026-05-05T09:43:11Z</time></trkpt><trkpt lat="31.045153143463025" lon="-6.164006654520475"><ele>1701.0</ele><time>2026-05-05T09:43:12Z</time></trkpt><trkpt lat="31.04507248970484" lon="-6.164075081397597"><ele>1702.0</ele><time>2026-05-05T09:43:13Z</time></trkpt><trkpt lat="31.044986748748887" lon="-6.164150997040273"><ele>1703.0</ele><time>2026-05-05T09:43:14Z</time></trkpt><trkpt lat="31.044902515291284" lon="-6.164225234003818"><ele>1704.0</ele><time>2026-05-05T09:43:15Z</time></trkpt><trkpt lat="31.04481423634534" lon="-6.164302556454331"><ele>1705.0</ele><time>2026-05-05T09:43:16Z</time></trkpt><trkpt lat="31.044724788577383" lon="-6.164377229322219"><ele>1705.0</ele><time>2026-05-05T09:43:17Z</time></trkpt><trkpt lat="31.04464655522414" lon="-6.164445126898756"><ele>1705.0</ele><time>2026-05-05T09:43:18Z</time></trkpt><trkpt lat="31.04456685559356" lon="-6.164511565707923"><ele>1705.0</ele><time>2026-05-05T09:43:19Z</time></trkpt><trkpt lat="31.044488352214778" lon="-6.164572661161923"><ele>1705.0</ele><time>2026-05-05T09:43:20Z</time></trkpt><trkpt lat="31.04440876412633" lon="-6.16462199621113"><ele>1705.0</ele><time>2026-05-05T09:43:21Z</time></trkpt><trkpt lat="31.044334181808505" lon="-6.164671996698343"><ele>1705.0</ele><time>2026-05-05T09:43:22Z</time></trkpt><trkpt lat="31.044257383394967" lon="-6.164737351125435"><ele>1705.0</ele><time>2026-05-05T09:43:23Z</time></trkpt><trkpt lat="31.044192585951098" lon="-6.1648089010154585"><ele>1705.0</ele><time>2026-05-05T09:43:24Z</time></trkpt><trkpt lat="31.044136276584524" lon="-6.164900058084728"><ele>1705.0</ele><time>2026-05-05T09:43:25Z</time></trkpt><trkpt lat="31.04408793974012" lon="-6.164998101093051"><ele>1705.0</ele><time>2026-05-05T09:43:26Z</time></trkpt><trkpt lat="31.04404874346363" lon="-6.1651040786540126"><ele>1707.0</ele><time>2026-05-05T09:43:27Z</time></trkpt><trkpt lat="31.044006799358304" lon="-6.165206495286892"><ele>1709.0</ele><time>2026-05-05T09:43:28Z</time></trkpt><trkpt lat="31.043967468449615" lon="-6.165309450034419"><ele>1711.0</ele><time>2026-05-05T09:43:29Z</time></trkpt><trkpt lat="31.043926212649506" lon="-6.165414910624109"><ele>1713.0</ele><time>2026-05-05T09:43:30Z</time></trkpt><trkpt lat="31.043886101354833" lon="-6.165514678950191"><ele>1715.0</ele><time>2026-05-05T09:43:31Z</time></trkpt><trkpt lat="31.04384411326957" lon="-6.165613271869661"><ele>1710.2</ele><time>2026-05-05T09:43:32Z</time></trkpt><trkpt lat="31.04378868475367" lon="-6.165715171847341"><ele>1705.4</ele><time>2026-05-05T09:43:33Z</time></trkpt><trkpt lat="31.043734377977223" lon="-6.1658165003935155"><ele>1700.6</ele><time>2026-05-05T09:43:34Z</time></trkpt><trkpt lat="31.043683436345994" lon="-6.1659153189158005"><ele>1695.8</ele><time>2026-05-05T09:43:35Z</time></trkpt><trkpt lat="31.043628790717918" lon="-6.166014579793042"><ele>1691.0</ele><time>2026-05-05T09:43:36Z</time></trkpt><trkpt lat="31.04358417863491" lon="-6.166100159618281"><ele>1690.9999999999998</ele><time>2026-05-05T09:43:37Z</time></trkpt><trkpt lat="31.043534016471924" lon="-6.166180861563677"><ele>1691.0</ele><time>2026-05-05T09:43:38Z</time></trkpt><trkpt lat="31.043479518597845" lon="-6.16625638092428"><ele>1691.0</ele><time>2026-05-05T09:43:39Z</time></trkpt><trkpt lat="31.0434182390306" lon="-6.166324477648473"><ele>1691.0</ele><time>2026-05-05T09:43:40Z</time></trkpt><trkpt lat="31.04335476357574" lon="-6.166391427714225"><ele>1690.9999999999998</ele><time>2026-05-05T09:43:41Z</time></trkpt><trkpt lat="31.043288064377265" lon="-6.166445220480734"><ele>1691.0</ele><time>2026-05-05T09:43:42Z</time></trkpt><trkpt lat="31.043214262375216" lon="-6.166496764637934"><ele>1690.0000000000002</ele><time>2026-05-05T09:43:43Z</time></trkpt><trkpt lat="31.043137533095933" lon="-6.166540605497973"><ele>1689.0</ele><time>2026-05-05T09:43:44Z</time></trkpt><trkpt lat="31.04307100009485" lon="-6.166587218524127"><ele>1688.0</ele><time>2026-05-05T09:43:45Z</time></trkpt><trkpt lat="31.0430023012629" lon="-6.166629803003444"><ele>1687.0</ele><time>2026-05-05T09:43:46Z</time></trkpt><trkpt lat="31.042939479739204" lon="-6.1666629798912505"><ele>1686.0</ele><time>2026-05-05T09:43:47Z</time></trkpt><trkpt lat="31.042880379376726" lon="-6.166694578534695"><ele>1685.0000000000002</ele><time>2026-05-05T09:43:48Z</time></trkpt><trkpt lat="31.042821489080374" lon="-6.166727269198384"><ele>1684.0</ele><time>2026-05-05T09:43:49Z</time></trkpt><trkpt lat="31.042757784992446" lon="-6.166759165318995"><ele>1684.0</ele><time>2026-05-05T09:43:50Z</time></trkpt><trkpt lat="31.04269421854263" lon="-6.166788972651151"><ele>1684.0</ele><time>2026-05-05T09:43:51Z</time></trkpt><trkpt lat="31.042564209135403" lon="-6.166846457644442"><ele>1684.0</ele><time>2026-05-05T09:43:53Z</time></trkpt><trkpt lat="31.042504003977424" lon="-6.1668760394756506"><ele>1684.0</ele><time>2026-05-05T09:43:54Z</time></trkpt><trkpt lat="31.042395891401142" lon="-6.1669384682159585"><ele>1684.0</ele><time>2026-05-05T09:43:56Z</time></trkpt><trkpt lat="31.042336511386512" lon="-6.166965515980778"><ele>1686.2</ele><time>2026-05-05T09:43:57Z</time></trkpt><trkpt lat="31.04222265690334" lon="-6.167021980875175"><ele>1688.4</ele><time>2026-05-05T09:43:59Z</time></trkpt><trkpt lat="31.04215553731829" lon="-6.167054761803409"><ele>1690.6</ele><time>2026-05-05T09:44:00Z</time></trkpt><trkpt lat="31.042038572567446" lon="-6.167132796200953"><ele>1692.8</ele><time>2026-05-05T09:44:02Z</time></trkpt><trkpt lat="31.041974668359437" lon="-6.167185178001817"><ele>1695.0</ele><time>2026-05-05T09:44:03Z</time></trkpt><trkpt lat="31.04189925809088" lon="-6.1672301524475035"><ele>1695.0</ele><time>2026-05-05T09:44:04Z</time></trkpt><trkpt lat="31.041824278581174" lon="-6.167267123187036"><ele>1695.0</ele><time>2026-05-05T09:44:05Z</time></trkpt><trkpt lat="31.041756621679582" lon="-6.1673031918609365"><ele>1695.0</ele><time>2026-05-05T09:44:06Z</time></trkpt><trkpt lat="31.04168679892765" lon="-6.167332360908493"><ele>1695.0</ele><time>2026-05-05T09:44:07Z</time></trkpt><trkpt lat="31.041615240625184" lon="-6.167361263833865"><ele>1695.0</ele><time>2026-05-05T09:44:08Z</time></trkpt><trkpt lat="31.041539892614395" lon="-6.167390275446111"><ele>1695.0</ele><time>2026-05-05T09:44:09Z</time></trkpt><trkpt lat="31.041463724363897" lon="-6.167432731908162"><ele>1692.8333333333333</ele><time>2026-05-05T09:44:10Z</time></trkpt><trkpt lat="31.04139372624172" lon="-6.167477731855252"><ele>1690.6666666666665</ele><time>2026-05-05T09:44:11Z</time></trkpt><trkpt lat="31.041322320483307" lon="-6.167527142589818"><ele>1688.5</ele><time>2026-05-05T09:44:12Z</time></trkpt><trkpt lat="31.041251509902544" lon="-6.167577624178015"><ele>1686.3333333333333</ele><time>2026-05-05T09:44:13Z</time></trkpt><trkpt lat="31.04119204451998" lon="-6.1676309127970335"><ele>1684.1666666666665</ele><time>2026-05-05T09:44:14Z</time></trkpt><trkpt lat="31.041132282934893" lon="-6.16768700354583"><ele>1682.0</ele><time>2026-05-05T09:44:15Z</time></trkpt><trkpt lat="31.041081318406768" lon="-6.16775966654993"><ele>1681.9999999999998</ele><time>2026-05-05T09:44:16Z</time></trkpt><trkpt lat="31.041023413878886" lon="-6.167819959766664"><ele>1682.0</ele><time>2026-05-05T09:44:17Z</time></trkpt><trkpt lat="31.04095142963256" lon="-6.167867414944029"><ele>1682.0</ele><time>2026-05-05T09:44:18Z</time></trkpt><trkpt lat="31.04087526326894" lon="-6.167915550671907"><ele>1682.0</ele><time>2026-05-05T09:44:19Z</time></trkpt><trkpt lat="31.040792987892164" lon="-6.167973780281261"><ele>1681.9999999999998</ele><time>2026-05-05T09:44:20Z</time></trkpt><trkpt lat="31.040709438149435" lon="-6.168033795134277"><ele>1682.0</ele><time>2026-05-05T09:44:21Z</time></trkpt><trkpt lat="31.040624030207866" lon="-6.168092016498941"><ele>1683.0</ele><time>2026-05-05T09:44:22Z</time></trkpt><trkpt lat="31.040540498968326" lon="-6.1681441414279705"><ele>1684.0</ele><time>2026-05-05T09:44:23Z</time></trkpt><trkpt lat="31.04045733371473" lon="-6.168195330179781"><ele>1685.0</ele><time>2026-05-05T09:44:24Z</time></trkpt><trkpt lat="31.040377777217522" lon="-6.168246705521708"><ele>1686.0</ele><time>2026-05-05T09:44:25Z</time></trkpt><trkpt lat="31.040300581802448" lon="-6.168317993945837"><ele>1687.0</ele><time>2026-05-05T09:44:26Z</time></trkpt><trkpt lat="31.040220338936543" lon="-6.16838563679314"><ele>1684.6</ele><time>2026-05-05T09:44:27Z</time></trkpt><trkpt lat="31.04013995549676" lon="-6.168451805128278"><ele>1682.1999999999998</ele><time>2026-05-05T09:44:28Z</time></trkpt><trkpt lat="31.040065414653004" lon="-6.168514289641252"><ele>1679.8</ele><time>2026-05-05T09:44:29Z</time></trkpt><trkpt lat="31.039988651314097" lon="-6.168578144257758"><ele>1677.4</ele><time>2026-05-05T09:44:30Z</time></trkpt><trkpt lat="31.039915798928114" lon="-6.168640985675679"><ele>1675.0</ele><time>2026-05-05T09:44:31Z</time></trkpt><trkpt lat="31.03984791612661" lon="-6.1687067978489925"><ele>1675.0</ele><time>2026-05-05T09:44:32Z</time></trkpt><trkpt lat="31.03978307939423" lon="-6.1687763718646655"><ele>1675.0</ele><time>2026-05-05T09:44:33Z</time></trkpt><trkpt lat="31.039717584271575" lon="-6.168847005530103"><ele>1675.0</ele><time>2026-05-05T09:44:34Z</time></trkpt><trkpt lat="31.039656164899583" lon="-6.168924363215584"><ele>1675.0</ele><time>2026-05-05T09:44:35Z</time></trkpt><trkpt lat="31.039590868776358" lon="-6.169002458867192"><ele>1675.0</ele><time>2026-05-05T09:44:36Z</time></trkpt><trkpt lat="31.039520482309797" lon="-6.169070728835245"><ele>1673.4</ele><time>2026-05-05T09:44:37Z</time></trkpt><trkpt lat="31.03944816959211" lon="-6.169129284254766"><ele>1671.8</ele><time>2026-05-05T09:44:38Z</time></trkpt><trkpt lat="31.039373246687084" lon="-6.169188539790266"><ele>1670.1999999999998</ele><time>2026-05-05T09:44:39Z</time></trkpt><trkpt lat="31.03929900236234" lon="-6.169253690042468"><ele>1668.6</ele><time>2026-05-05T09:44:40Z</time></trkpt><trkpt lat="31.039231993156694" lon="-6.169325495889248"><ele>1667.0</ele><time>2026-05-05T09:44:41Z</time></trkpt><trkpt lat="31.039163709418816" lon="-6.169396023086156"><ele>1668.6666666666665</ele><time>2026-05-05T09:44:42Z</time></trkpt><trkpt lat="31.039101732155512" lon="-6.169458056382106"><ele>1670.3333333333333</ele><time>2026-05-05T09:44:43Z</time></trkpt><trkpt lat="31.039043421835917" lon="-6.169526174360956"><ele>1672.0</ele><time>2026-05-05T09:44:44Z</time></trkpt><trkpt lat="31.03898732121451" lon="-6.169597041621675"><ele>1673.6666666666665</ele><time>2026-05-05T09:44:45Z</time></trkpt><trkpt lat="31.03892435974046" lon="-6.169665901069111"><ele>1675.3333333333333</ele><time>2026-05-05T09:44:46Z</time></trkpt><trkpt lat="31.03885384190623" lon="-6.169727406231688"><ele>1677.0</ele><time>2026-05-05T09:44:47Z</time></trkpt><trkpt lat="31.038780411483664" lon="-6.169799547552634"><ele>1674.0</ele><time>2026-05-05T09:44:48Z</time></trkpt><trkpt lat="31.038713390685313" lon="-6.16987778887482"><ele>1671.0</ele><time>2026-05-05T09:44:49Z</time></trkpt><trkpt lat="31.03863898961843" lon="-6.169954828792953"><ele>1668.0</ele><time>2026-05-05T09:44:50Z</time></trkpt><trkpt lat="31.038571909331843" lon="-6.1700348500394275"><ele>1665.0</ele><time>2026-05-05T09:44:51Z</time></trkpt><trkpt lat="31.038505199726035" lon="-6.170114174465484"><ele>1662.0</ele><time>2026-05-05T09:44:52Z</time></trkpt><trkpt lat="31.038436718028432" lon="-6.1701974800653385"><ele>1662.0</ele><time>2026-05-05T09:44:53Z</time></trkpt><trkpt lat="31.038371842266073" lon="-6.1702707375396715"><ele>1662.0</ele><time>2026-05-05T09:44:54Z</time></trkpt><trkpt lat="31.03830263851205" lon="-6.17034993349375"><ele>1662.0</ele><time>2026-05-05T09:44:55Z</time></trkpt><trkpt lat="31.038234347514667" lon="-6.1704359335643915"><ele>1662.0</ele><time>2026-05-05T09:44:56Z</time></trkpt><trkpt lat="31.038163265192804" lon="-6.170515620965795"><ele>1662.0</ele><time>2026-05-05T09:44:57Z</time></trkpt><trkpt lat="31.038096613753925" lon="-6.1705825280908595"><ele>1661.8333333333333</ele><time>2026-05-05T09:44:58Z</time></trkpt><trkpt lat="31.038029222365505" lon="-6.170652331389331"><ele>1661.6666666666665</ele><time>2026-05-05T09:44:59Z</time></trkpt><trkpt lat="31.037971119195284" lon="-6.170718453919519"><ele>1661.5</ele><time>2026-05-05T09:45:00Z</time></trkpt><trkpt lat="31.03791682918619" lon="-6.170782290742758"><ele>1661.3333333333333</ele><time>2026-05-05T09:45:01Z</time></trkpt><trkpt lat="31.037856253238346" lon="-6.170831586405748"><ele>1661.1666666666665</ele><time>2026-05-05T09:45:02Z</time></trkpt><trkpt lat="31.037786342992856" lon="-6.170871671581652"><ele>1661.0</ele><time>2026-05-05T09:45:03Z</time></trkpt><trkpt lat="31.03771315405746" lon="-6.170899367668565"><ele>1660.1999999999998</ele><time>2026-05-05T09:45:04Z</time></trkpt><trkpt lat="31.037642824824072" lon="-6.170918775062783"><ele>1659.3999999999999</ele><time>2026-05-05T09:45:05Z</time></trkpt><trkpt lat="31.03751674237701" lon="-6.170949857079441"><ele>1658.6</ele><time>2026-05-05T09:45:07Z</time></trkpt><trkpt lat="31.037451978693525" lon="-6.1709621867014155"><ele>1657.8</ele><time>2026-05-05T09:45:08Z</time></trkpt><trkpt lat="31.037339822973596" lon="-6.170992289326638"><ele>1657.0</ele><time>2026-05-05T09:45:10Z</time></trkpt><trkpt lat="31.037253631243694" lon="-6.171048092674468"><ele>1659.142857142857</ele><time>2026-05-05T09:45:12Z</time></trkpt><trkpt lat="31.037189789178345" lon="-6.171081813387981"><ele>1661.2857142857144</ele><time>2026-05-05T09:45:13Z</time></trkpt><trkpt lat="31.037125522858595" lon="-6.171118021658105"><ele>1663.4285714285716</ele><time>2026-05-05T09:45:14Z</time></trkpt><trkpt lat="31.037059027275117" lon="-6.1711542852559855"><ele>1665.5714285714284</ele><time>2026-05-05T09:45:15Z</time></trkpt><trkpt lat="31.03699933119068" lon="-6.171189636785654"><ele>1667.7142857142858</ele><time>2026-05-05T09:45:16Z</time></trkpt><trkpt lat="31.03694484227354" lon="-6.17123417276776"><ele>1669.857142857143</ele><time>2026-05-05T09:45:17Z</time></trkpt><trkpt lat="31.036891090570098" lon="-6.17127864394556"><ele>1672.0</ele><time>2026-05-05T09:45:18Z</time></trkpt><trkpt lat="31.03678757878602" lon="-6.171381153409289"><ele>1672.0000000000002</ele><time>2026-05-05T09:45:20Z</time></trkpt><trkpt lat="31.036735471927567" lon="-6.1714413092666955"><ele>1672.0</ele><time>2026-05-05T09:45:21Z</time></trkpt><trkpt lat="31.03668181785355" lon="-6.17150426290516"><ele>1672.0</ele><time>2026-05-05T09:45:22Z</time></trkpt><trkpt lat="31.036627070969452" lon="-6.1715689044106625"><ele>1672.0</ele><time>2026-05-05T09:45:23Z</time></trkpt><trkpt lat="31.036567655173027" lon="-6.171633056473023"><ele>1672.0000000000002</ele><time>2026-05-05T09:45:24Z</time></trkpt><trkpt lat="31.03650799275292" lon="-6.171687940531365"><ele>1672.0</ele><time>2026-05-05T09:45:25Z</time></trkpt><trkpt lat="31.03644652440148" lon="-6.171743432617772"><ele>1672.8333333333335</ele><time>2026-05-05T09:45:26Z</time></trkpt><trkpt lat="31.036388195814148" lon="-6.171798320871996"><ele>1673.6666666666667</ele><time>2026-05-05T09:45:27Z</time></trkpt><trkpt lat="31.03632867424297" lon="-6.1718489873512965"><ele>1674.5</ele><time>2026-05-05T09:45:28Z</time></trkpt><trkpt lat="31.036269702668612" lon="-6.171906590878801"><ele>1675.3333333333335</ele><time>2026-05-05T09:45:29Z</time></trkpt><trkpt lat="31.036203846279" lon="-6.1719688108727935"><ele>1676.1666666666667</ele><time>2026-05-05T09:45:30Z</time></trkpt><trkpt lat="31.036140183839848" lon="-6.172037796712097"><ele>1677.0</ele><time>2026-05-05T09:45:31Z</time></trkpt><trkpt lat="31.036080685147468" lon="-6.172107837361978"><ele>1677.0</ele><time>2026-05-05T09:45:32Z</time></trkpt><trkpt lat="31.036025191791847" lon="-6.172179827543249"><ele>1677.0</ele><time>2026-05-05T09:45:33Z</time></trkpt><trkpt lat="31.035972301775207" lon="-6.172242856053706"><ele>1677.0</ele><time>2026-05-05T09:45:34Z</time></trkpt><trkpt lat="31.035916184481408" lon="-6.172307362972331"><ele>1677.0</ele><time>2026-05-05T09:45:35Z</time></trkpt><trkpt lat="31.035863822001076" lon="-6.172368788714702"><ele>1677.0</ele><time>2026-05-05T09:45:36Z</time></trkpt><trkpt lat="31.035805149179552" lon="-6.172425820502747"><ele>1677.0</ele><time>2026-05-05T09:45:37Z</time></trkpt><trkpt lat="31.035741167926375" lon="-6.172481816331336"><ele>1679.8</ele><time>2026-05-05T09:45:38Z</time></trkpt><trkpt lat="31.03568178618316" lon="-6.172541718978868"><ele>1682.6</ele><time>2026-05-05T09:45:39Z</time></trkpt><trkpt lat="31.03561684593623" lon="-6.172610335315282"><ele>1685.3999999999999</ele><time>2026-05-05T09:45:40Z</time></trkpt><trkpt lat="31.035545794817047" lon="-6.1726858332599726"><ele>1688.1999999999998</ele><time>2026-05-05T09:45:41Z</time></trkpt><trkpt lat="31.035472006658015" lon="-6.1727613833922526"><ele>1691.0</ele><time>2026-05-05T09:45:42Z</time></trkpt><trkpt lat="31.035406731542288" lon="-6.17283413264934"><ele>1690.9999999999998</ele><time>2026-05-05T09:45:43Z</time></trkpt><trkpt lat="31.03535266244808" lon="-6.1729120900471885"><ele>1691.0</ele><time>2026-05-05T09:45:44Z</time></trkpt><trkpt lat="31.035302554012787" lon="-6.172996685217269"><ele>1691.0</ele><time>2026-05-05T09:45:45Z</time></trkpt><trkpt lat="31.035256596074785" lon="-6.17308429193483"><ele>1691.0</ele><time>2026-05-05T09:45:46Z</time></trkpt><trkpt lat="31.0352084272083" lon="-6.173170523711032"><ele>1690.9999999999998</ele><time>2026-05-05T09:45:47Z</time></trkpt><trkpt lat="31.03515129942695" lon="-6.173250082896352"><ele>1691.0</ele><time>2026-05-05T09:45:48Z</time></trkpt><trkpt lat="31.03509477875711" lon="-6.173324725422545"><ele>1689.6666666666665</ele><time>2026-05-05T09:45:49Z</time></trkpt><trkpt lat="31.03503796496518" lon="-6.173393149215491"><ele>1688.3333333333333</ele><time>2026-05-05T09:45:50Z</time></trkpt><trkpt lat="31.034974431307173" lon="-6.173449631765176"><ele>1687.0</ele><time>2026-05-05T09:45:51Z</time></trkpt><trkpt lat="31.034907678767325" lon="-6.173485192994634"><ele>1685.6666666666665</ele><time>2026-05-05T09:45:52Z</time></trkpt><trkpt lat="31.03484335735836" lon="-6.173499845513695"><ele>1684.3333333333333</ele><time>2026-05-05T09:45:53Z</time></trkpt><trkpt lat="31.034779577937645" lon="-6.1734982164062835"><ele>1683.0</ele><time>2026-05-05T09:45:54Z</time></trkpt><trkpt lat="31.0346613357265" lon="-6.173506689277761"><ele>1683.0</ele><time>2026-05-05T09:45:56Z</time></trkpt><trkpt lat="31.034556726359757" lon="-6.173588302821602"><ele>1683.0</ele><time>2026-05-05T09:45:58Z</time></trkpt><trkpt lat="31.034520934890605" lon="-6.173657189838945"><ele>1683.0</ele><time>2026-05-05T09:45:59Z</time></trkpt><trkpt lat="31.034490783473405" lon="-6.173729116523636"><ele>1683.0</ele><time>2026-05-05T09:46:00Z</time></trkpt><trkpt lat="31.034444050204208" lon="-6.173808188859437"><ele>1683.0</ele><time>2026-05-05T09:46:01Z</time></trkpt><trkpt lat="31.03439342625981" lon="-6.173882767422832"><ele>1683.0</ele><time>2026-05-05T09:46:02Z</time></trkpt><trkpt lat="31.034339283115127" lon="-6.1739583426755775"><ele>1681.8333333333333</ele><time>2026-05-05T09:46:03Z</time></trkpt><trkpt lat="31.034287745866447" lon="-6.1740310559731295"><ele>1680.6666666666665</ele><time>2026-05-05T09:46:04Z</time></trkpt><trkpt lat="31.034242497062934" lon="-6.174106064340785"><ele>1679.5</ele><time>2026-05-05T09:46:05Z</time></trkpt><trkpt lat="31.03419998546925" lon="-6.174177968091465"><ele>1678.3333333333333</ele><time>2026-05-05T09:46:06Z</time></trkpt><trkpt lat="31.034155003202688" lon="-6.174252998563906"><ele>1677.1666666666665</ele><time>2026-05-05T09:46:07Z</time></trkpt><trkpt lat="31.034104758394214" lon="-6.174320731588757"><ele>1676.0</ele><time>2026-05-05T09:46:08Z</time></trkpt><trkpt lat="31.034042461180302" lon="-6.174387470228136"><ele>1680.8333333333333</ele><time>2026-05-05T09:46:09Z</time></trkpt><trkpt lat="31.03399280574641" lon="-6.174465237490125"><ele>1685.6666666666665</ele><time>2026-05-05T09:46:10Z</time></trkpt><trkpt lat="31.03396027275533" lon="-6.174537124541958"><ele>1690.5</ele><time>2026-05-05T09:46:11Z</time></trkpt><trkpt lat="31.033931929304696" lon="-6.17461382867163"><ele>1695.3333333333335</ele><time>2026-05-05T09:46:12Z</time></trkpt><trkpt lat="31.033901716257787" lon="-6.174683687740038"><ele>1700.1666666666667</ele><time>2026-05-05T09:46:13Z</time></trkpt><trkpt lat="31.033862177366405" lon="-6.1747489294198035"><ele>1705.0</ele><time>2026-05-05T09:46:14Z</time></trkpt><trkpt lat="31.033779132203957" lon="-6.174851887221651"><ele>1703.8</ele><time>2026-05-05T09:46:16Z</time></trkpt><trkpt lat="31.033666403147407" lon="-6.174883792022951"><ele>1702.6</ele><time>2026-05-05T09:46:18Z</time></trkpt><trkpt lat="31.033602585542486" lon="-6.174871883499756"><ele>1701.4</ele><time>2026-05-05T09:46:19Z</time></trkpt><trkpt lat="31.033536569765428" lon="-6.174863152547962"><ele>1700.2</ele><time>2026-05-05T09:46:20Z</time></trkpt><trkpt lat="31.033415317324344" lon="-6.174884424165211"><ele>1699.0</ele><time>2026-05-05T09:46:22Z</time></trkpt><trkpt lat="31.03329924893573" lon="-6.17493385893821"><ele>1699.0000000000002</ele><time>2026-05-05T09:46:24Z</time></trkpt><trkpt lat="31.033229649501248" lon="-6.174961909490077"><ele>1699.0</ele><time>2026-05-05T09:46:25Z</time></trkpt><trkpt lat="31.03315917084119" lon="-6.174988433341568"><ele>1699.0</ele><time>2026-05-05T09:46:26Z</time></trkpt><trkpt lat="31.03309262222371" lon="-6.175017340326811"><ele>1699.0</ele><time>2026-05-05T09:46:27Z</time></trkpt><trkpt lat="31.032986849225985" lon="-6.175040810223088"><ele>1699.0000000000002</ele><time>2026-05-05T09:46:29Z</time></trkpt><trkpt lat="31.03291511369005" lon="-6.174983028508874"><ele>1699.0</ele><time>2026-05-05T09:46:32Z</time></trkpt><trkpt lat="31.032880670862802" lon="-6.174904334406257"><ele>1702.6</ele><time>2026-05-05T09:46:34Z</time></trkpt><trkpt lat="31.03282190805269" lon="-6.174804824073717"><ele>1706.2</ele><time>2026-05-05T09:46:36Z</time></trkpt><trkpt lat="31.03273663156529" lon="-6.174712963806862"><ele>1709.7999999999997</ele><time>2026-05-05T09:46:38Z</time></trkpt><trkpt lat="31.03267732390731" lon="-6.174669700485008"><ele>1713.3999999999999</ele><time>2026-05-05T09:46:39Z</time></trkpt><trkpt lat="31.032572622621622" lon="-6.174648871101516"><ele>1717.0</ele><time>2026-05-05T09:46:41Z</time></trkpt><trkpt lat="31.03246543565824" lon="-6.174708702343783"><ele>1717.0000000000002</ele><time>2026-05-05T09:46:43Z</time></trkpt><trkpt lat="31.032417562606447" lon="-6.174771377465448"><ele>1717.0</ele><time>2026-05-05T09:46:44Z</time></trkpt><trkpt lat="31.03237832411534" lon="-6.174850198720945"><ele>1717.0</ele><time>2026-05-05T09:46:45Z</time></trkpt><trkpt lat="31.032356063556694" lon="-6.17493608451845"><ele>1717.0</ele><time>2026-05-05T09:46:46Z</time></trkpt><trkpt lat="31.032340469963785" lon="-6.175022388093564"><ele>1717.0000000000002</ele><time>2026-05-05T09:46:47Z</time></trkpt><trkpt lat="31.032295833972135" lon="-6.1751112862841175"><ele>1717.0</ele><time>2026-05-05T09:46:48Z</time></trkpt><trkpt lat="31.03225818967301" lon="-6.175199931053595"><ele>1717.0</ele><time>2026-05-05T09:46:49Z</time></trkpt><trkpt lat="31.032237663480213" lon="-6.17527822067613"><ele>1717.0</ele><time>2026-05-05T09:46:50Z</time></trkpt><trkpt lat="31.032236448987884" lon="-6.175369467049146"><ele>1717.0</ele><time>2026-05-05T09:46:51Z</time></trkpt><trkpt lat="31.032239364112293" lon="-6.175468573370411"><ele>1717.0</ele><time>2026-05-05T09:46:52Z</time></trkpt><trkpt lat="31.03224021948919" lon="-6.1755507384990045"><ele>1717.0</ele><time>2026-05-05T09:46:53Z</time></trkpt><trkpt lat="31.032234613372403" lon="-6.175629843133392"><ele>1717.0</ele><time>2026-05-05T09:46:54Z</time></trkpt><trkpt lat="31.032214319928" lon="-6.17570825350202"><ele>1717.0</ele><time>2026-05-05T09:46:55Z</time></trkpt><trkpt lat="31.03218863039033" lon="-6.175794201467095"><ele>1716.8</ele><time>2026-05-05T09:46:56Z</time></trkpt><trkpt lat="31.032165301809712" lon="-6.175871744515631"><ele>1716.6</ele><time>2026-05-05T09:46:57Z</time></trkpt><trkpt lat="31.03214375367615" lon="-6.175949006104334"><ele>1716.3999999999999</ele><time>2026-05-05T09:46:58Z</time></trkpt><trkpt lat="31.0320991184448" lon="-6.176070200553944"><ele>1716.1999999999998</ele><time>2026-05-05T09:47:00Z</time></trkpt><trkpt lat="31.03199575220992" lon="-6.176160533048764"><ele>1716.0</ele><time>2026-05-05T09:47:02Z</time></trkpt><trkpt lat="31.03193540270187" lon="-6.176201581428434"><ele>1716.0</ele><time>2026-05-05T09:47:03Z</time></trkpt><trkpt lat="31.031872270793993" lon="-6.176237147207699"><ele>1716.0</ele><time>2026-05-05T09:47:04Z</time></trkpt><trkpt lat="31.031808358676503" lon="-6.176277562083201"><ele>1716.0</ele><time>2026-05-05T09:47:05Z</time></trkpt><trkpt lat="31.03173705363041" lon="-6.176332808715804"><ele>1716.0</ele><time>2026-05-05T09:47:06Z</time></trkpt><trkpt lat="31.031659198104595" lon="-6.176383066167981"><ele>1716.0</ele><time>2026-05-05T09:47:07Z</time></trkpt><trkpt lat="31.0315839037433" lon="-6.176430946012998"><ele>1716.0</ele><time>2026-05-05T09:47:08Z</time></trkpt><trkpt lat="31.03151193741694" lon="-6.176467095101405"><ele>1716.1999999999998</ele><time>2026-05-05T09:47:09Z</time></trkpt><trkpt lat="31.03144927814742" lon="-6.176500350927474"><ele>1716.3999999999999</ele><time>2026-05-05T09:47:10Z</time></trkpt><trkpt lat="31.03133381468952" lon="-6.176566722352796"><ele>1716.6</ele><time>2026-05-05T09:47:12Z</time></trkpt><trkpt lat="31.03127237646294" lon="-6.1766029483492915"><ele>1716.8</ele><time>2026-05-05T09:47:13Z</time></trkpt><trkpt lat="31.03115847116203" lon="-6.176658247152663"><ele>1717.0</ele><time>2026-05-05T09:47:15Z</time></trkpt><trkpt lat="31.031095328225934" lon="-6.176670741886873"><ele>1717.0</ele><time>2026-05-05T09:47:16Z</time></trkpt><trkpt lat="31.031020971186187" lon="-6.17662975503362"><ele>1716.9999999999998</ele><time>2026-05-05T09:47:18Z</time></trkpt><trkpt lat="31.031010069448293" lon="-6.17654500155958"><ele>1716.9999999999998</ele><time>2026-05-05T09:47:20Z</time></trkpt><trkpt lat="31.03104218841045" lon="-6.1763932787312035"><ele>1717.0</ele><time>2026-05-05T09:47:22Z</time></trkpt><trkpt lat="31.031064178367973" lon="-6.17630579995069"><ele>1717.0</ele><time>2026-05-05T09:47:23Z</time></trkpt><trkpt lat="31.031090922076785" lon="-6.17618375776758"><ele>1717.0000000000002</ele><time>2026-05-05T09:47:24Z</time></trkpt><trkpt lat="31.03111203100342" lon="-6.176070994316187"><ele>1717.0</ele><time>2026-05-05T09:47:25Z</time></trkpt><trkpt lat="31.031127197227857" lon="-6.175967147045887"><ele>1717.0</ele><time>2026-05-05T09:47:26Z</time></trkpt><trkpt lat="31.031147928412075" lon="-6.175869841354597"><ele>1717.0</ele><time>2026-05-05T09:47:27Z</time></trkpt><trkpt lat="31.03116912935225" lon="-6.175775192685685"><ele>1717.0000000000002</ele><time>2026-05-05T09:47:28Z</time></trkpt><trkpt lat="31.031181707419886" lon="-6.175678922932374"><ele>1717.0</ele><time>2026-05-05T09:47:29Z</time></trkpt><trkpt lat="31.031192651385535" lon="-6.175577688475781"><ele>1717.3333333333335</ele><time>2026-05-05T09:47:30Z</time></trkpt><trkpt lat="31.031201036508964" lon="-6.175481653418061"><ele>1717.6666666666667</ele><time>2026-05-05T09:47:31Z</time></trkpt><trkpt lat="31.0311994170867" lon="-6.175392391963937"><ele>1718.0</ele><time>2026-05-05T09:47:32Z</time></trkpt><trkpt lat="31.031194159246517" lon="-6.175307380490683"><ele>1718.3333333333335</ele><time>2026-05-05T09:47:33Z</time></trkpt><trkpt lat="31.031185224048063" lon="-6.175223355900661"><ele>1718.6666666666667</ele><time>2026-05-05T09:47:34Z</time></trkpt><trkpt lat="31.03116877606749" lon="-6.175141670966854"><ele>1719.0</ele><time>2026-05-05T09:47:35Z</time></trkpt><trkpt lat="31.031133641753403" lon="-6.175057614769842"><ele>1719.0</ele><time>2026-05-05T09:47:36Z</time></trkpt><trkpt lat="31.031079233380993" lon="-6.174985783505551"><ele>1719.0</ele><time>2026-05-05T09:47:37Z</time></trkpt><trkpt lat="31.03101918371752" lon="-6.174924085288596"><ele>1719.0</ele><time>2026-05-05T09:47:38Z</time></trkpt><trkpt lat="31.030953832528468" lon="-6.1748603838028595"><ele>1719.0</ele><time>2026-05-05T09:47:39Z</time></trkpt><trkpt lat="31.030884626270943" lon="-6.174798120792229"><ele>1719.0</ele><time>2026-05-05T09:47:40Z</time></trkpt><trkpt lat="31.03081463024155" lon="-6.174740653885721"><ele>1719.0</ele><time>2026-05-05T09:47:41Z</time></trkpt><trkpt lat="31.030744276368193" lon="-6.174683454137613"><ele>1720.2</ele><time>2026-05-05T09:47:42Z</time></trkpt><trkpt lat="31.030669220722903" lon="-6.174624816287011"><ele>1721.4</ele><time>2026-05-05T09:47:43Z</time></trkpt><trkpt lat="31.03059111953081" lon="-6.174575219716717"><ele>1722.6</ele><time>2026-05-05T09:47:44Z</time></trkpt><trkpt lat="31.03051549583637" lon="-6.174524330524845"><ele>1723.8</ele><time>2026-05-05T09:47:45Z</time></trkpt><trkpt lat="31.030449923093247" lon="-6.174476026949226"><ele>1725.0</ele><time>2026-05-05T09:47:46Z</time></trkpt><trkpt lat="31.03034083457165" lon="-6.174420362260724"><ele>1725.0</ele><time>2026-05-05T09:47:48Z</time></trkpt><trkpt lat="31.03026703249049" lon="-6.17439941433575"><ele>1725.0</ele><time>2026-05-05T09:47:49Z</time></trkpt><trkpt lat="31.030190726560903" lon="-6.1743735527395245"><ele>1725.0</ele><time>2026-05-05T09:47:50Z</time></trkpt><trkpt lat="31.030116548473398" lon="-6.174344068375024"><ele>1725.0</ele><time>2026-05-05T09:47:51Z</time></trkpt><trkpt lat="31.030045228581997" lon="-6.174313950192863"><ele>1725.0</ele><time>2026-05-05T09:47:52Z</time></trkpt><trkpt lat="31.029973953902825" lon="-6.174275422233361"><ele>1725.0</ele><time>2026-05-05T09:47:53Z</time></trkpt><trkpt lat="31.02989864439725" lon="-6.174232676119671"><ele>1724.1666666666667</ele><time>2026-05-05T09:47:54Z</time></trkpt><trkpt lat="31.02982546427417" lon="-6.174194565980146"><ele>1723.3333333333335</ele><time>2026-05-05T09:47:55Z</time></trkpt><trkpt lat="31.029762212712836" lon="-6.1741586524650796"><ele>1722.5</ele><time>2026-05-05T09:47:56Z</time></trkpt><trkpt lat="31.029704646044436" lon="-6.174124350722397"><ele>1721.6666666666667</ele><time>2026-05-05T09:47:57Z</time></trkpt><trkpt lat="31.029639032463237" lon="-6.1740763331375454"><ele>1720.8333333333335</ele><time>2026-05-05T09:47:58Z</time></trkpt><trkpt lat="31.029568185718244" lon="-6.174026705572454"><ele>1720.0</ele><time>2026-05-05T09:47:59Z</time></trkpt><trkpt lat="31.029492368533962" lon="-6.1739880854353935"><ele>1721.1666666666667</ele><time>2026-05-05T09:48:00Z</time></trkpt><trkpt lat="31.029407596390453" lon="-6.173970003039811"><ele>1722.3333333333335</ele><time>2026-05-05T09:48:01Z</time></trkpt><trkpt lat="31.029319180144075" lon="-6.173947915763332"><ele>1723.5</ele><time>2026-05-05T09:48:02Z</time></trkpt><trkpt lat="31.02923383517864" lon="-6.173930428728675"><ele>1724.6666666666665</ele><time>2026-05-05T09:48:03Z</time></trkpt><trkpt lat="31.029147702652285" lon="-6.1739207550178925"><ele>1725.8333333333333</ele><time>2026-05-05T09:48:04Z</time></trkpt><trkpt lat="31.029057586334076" lon="-6.173916635995346"><ele>1727.0</ele><time>2026-05-05T09:48:05Z</time></trkpt><trkpt lat="31.02897827956934" lon="-6.17391209159332"><ele>1726.9999999999998</ele><time>2026-05-05T09:48:06Z</time></trkpt><trkpt lat="31.028907050330204" lon="-6.173915424348093"><ele>1727.0</ele><time>2026-05-05T09:48:07Z</time></trkpt><trkpt lat="31.028842436132617" lon="-6.1739104499940565"><ele>1727.0</ele><time>2026-05-05T09:48:08Z</time></trkpt><trkpt lat="31.02873638097832" lon="-6.1739033488980075"><ele>1727.0</ele><time>2026-05-05T09:48:10Z</time></trkpt><trkpt lat="31.028633077082134" lon="-6.173858365633128"><ele>1726.9999999999998</ele><time>2026-05-05T09:48:12Z</time></trkpt><trkpt lat="31.028582011655462" lon="-6.173813059494508"><ele>1727.0</ele><time>2026-05-05T09:48:13Z</time></trkpt><trkpt lat="31.028527248593342" lon="-6.173767944327897"><ele>1727.0</ele><time>2026-05-05T09:48:14Z</time></trkpt><trkpt lat="31.028469260777964" lon="-6.173733203237105"><ele>1726.9999999999998</ele><time>2026-05-05T09:48:15Z</time></trkpt><trkpt lat="31.02835415557349" lon="-6.173674496080952"><ele>1726.9999999999998</ele><time>2026-05-05T09:48:17Z</time></trkpt><trkpt lat="31.0282570168944" lon="-6.173620632139674"><ele>1727.0</ele><time>2026-05-05T09:48:19Z</time></trkpt><trkpt lat="31.02819359259473" lon="-6.173534322289744"><ele>1727.0</ele><time>2026-05-05T09:48:21Z</time></trkpt><trkpt lat="31.02817501807736" lon="-6.17340196754938"><ele>1728.1999999999998</ele><time>2026-05-05T09:48:23Z</time></trkpt><trkpt lat="31.02817729743892" lon="-6.173272215546332"><ele>1729.3999999999999</ele><time>2026-05-05T09:48:25Z</time></trkpt><trkpt lat="31.028093604480997" lon="-6.17318113470977"><ele>1730.6000000000001</ele><time>2026-05-05T09:48:27Z</time></trkpt><trkpt lat="31.02802201913258" lon="-6.173080597750718"><ele>1731.8000000000002</ele><time>2026-05-05T09:48:29Z</time></trkpt><trkpt lat="31.027963282482887" lon="-6.172996326407461"><ele>1733.0</ele><time>2026-05-05T09:48:31Z</time></trkpt><trkpt lat="31.02785669125603" lon="-6.1729966385702335"><ele>1733.0</ele><time>2026-05-05T09:48:33Z</time></trkpt><trkpt lat="31.02779710388193" lon="-6.173106083282798"><ele>1733.0000000000002</ele><time>2026-05-05T09:48:35Z</time></trkpt><trkpt lat="31.02778572040709" lon="-6.1732638781710305"><ele>1733.0000000000002</ele><time>2026-05-05T09:48:37Z</time></trkpt><trkpt lat="31.027783196398662" lon="-6.173349788919816"><ele>1733.0</ele><time>2026-05-05T09:48:38Z</time></trkpt><trkpt lat="31.027787421480625" lon="-6.173440141779282"><ele>1733.0</ele><time>2026-05-05T09:48:39Z</time></trkpt><trkpt lat="31.027801716657063" lon="-6.173520452808224"><ele>1732.9999999999998</ele><time>2026-05-05T09:48:40Z</time></trkpt><trkpt lat="31.02780484660796" lon="-6.173668921423164"><ele>1733.0</ele><time>2026-05-05T09:48:42Z</time></trkpt><trkpt lat="31.027785618014992" lon="-6.173759492651336"><ele>1733.0</ele><time>2026-05-05T09:48:43Z</time></trkpt><trkpt lat="31.027763109685907" lon="-6.173848672505884"><ele>1733.0</ele><time>2026-05-05T09:48:44Z</time></trkpt><trkpt lat="31.027737706060805" lon="-6.173940738662048"><ele>1732.9999999999998</ele><time>2026-05-05T09:48:45Z</time></trkpt><trkpt lat="31.02771580409846" lon="-6.174028486518426"><ele>1733.0</ele><time>2026-05-05T09:48:46Z</time></trkpt><trkpt lat="31.027697580855637" lon="-6.174103607704389"><ele>1732.9999999999998</ele><time>2026-05-05T09:48:47Z</time></trkpt><trkpt lat="31.027675607009016" lon="-6.1741727179694434"><ele>1733.0</ele><time>2026-05-05T09:48:48Z</time></trkpt><trkpt lat="31.02764426783237" lon="-6.17425413974412"><ele>1733.0</ele><time>2026-05-05T09:48:49Z</time></trkpt><trkpt lat="31.027599645579755" lon="-6.174319394325085"><ele>1733.0</ele><time>2026-05-05T09:48:50Z</time></trkpt><trkpt lat="31.02755888511939" lon="-6.174399711927398"><ele>1732.9999999999998</ele><time>2026-05-05T09:48:51Z</time></trkpt><trkpt lat="31.027520069451064" lon="-6.174483121334054"><ele>1733.0</ele><time>2026-05-05T09:48:52Z</time></trkpt><trkpt lat="31.027491284227413" lon="-6.1745700464397295"><ele>1733.4285714285716</ele><time>2026-05-05T09:48:53Z</time></trkpt><trkpt lat="31.027468036567193" lon="-6.174660784825497"><ele>1733.857142857143</ele><time>2026-05-05T09:48:54Z</time></trkpt><trkpt lat="31.027454938059066" lon="-6.174735991992602"><ele>1734.2857142857142</ele><time>2026-05-05T09:48:55Z</time></trkpt><trkpt lat="31.027428761026233" lon="-6.174803703402625"><ele>1734.7142857142858</ele><time>2026-05-05T09:48:56Z</time></trkpt><trkpt lat="31.027383410888834" lon="-6.17485617762621"><ele>1735.142857142857</ele><time>2026-05-05T09:48:57Z</time></trkpt><trkpt lat="31.02731706649887" lon="-6.174895085096391"><ele>1735.5714285714287</ele><time>2026-05-05T09:48:58Z</time></trkpt><trkpt lat="31.02723572156114" lon="-6.174914306937289"><ele>1736.0</ele><time>2026-05-05T09:48:59Z</time></trkpt><trkpt lat="31.027154034045594" lon="-6.174928671860309"><ele>1735.9999999999998</ele><time>2026-05-05T09:49:00Z</time></trkpt><trkpt lat="31.027071812461784" lon="-6.1749392668466525"><ele>1736.0</ele><time>2026-05-05T09:49:01Z</time></trkpt><trkpt lat="31.026994041078297" lon="-6.174939393378306"><ele>1736.0</ele><time>2026-05-05T09:49:02Z</time></trkpt><trkpt lat="31.026910508255316" lon="-6.174931880231578"><ele>1736.0</ele><time>2026-05-05T09:49:03Z</time></trkpt><trkpt lat="31.02682928742325" lon="-6.174917223882283"><ele>1735.9999999999998</ele><time>2026-05-05T09:49:04Z</time></trkpt><trkpt lat="31.026756474171812" lon="-6.174906956970162"><ele>1736.0</ele><time>2026-05-05T09:49:05Z</time></trkpt><trkpt lat="31.026658723014418" lon="-6.17485324808173"><ele>1737.1666666666665</ele><time>2026-05-05T09:49:07Z</time></trkpt><trkpt lat="31.026633449082855" lon="-6.17471955877345"><ele>1738.3333333333333</ele><time>2026-05-05T09:49:09Z</time></trkpt><trkpt lat="31.02664197350521" lon="-6.174639220925731"><ele>1739.5</ele><time>2026-05-05T09:49:10Z</time></trkpt><trkpt lat="31.026659203442616" lon="-6.174552421539513"><ele>1740.6666666666665</ele><time>2026-05-05T09:49:11Z</time></trkpt><trkpt lat="31.026668659610696" lon="-6.174464703948962"><ele>1741.8333333333333</ele><time>2026-05-05T09:49:12Z</time></trkpt><trkpt lat="31.02668089294082" lon="-6.174371609766089"><ele>1743.0</ele><time>2026-05-05T09:49:13Z</time></trkpt><trkpt lat="31.02668867251724" lon="-6.174280156732897"><ele>1743.0</ele><time>2026-05-05T09:49:14Z</time></trkpt><trkpt lat="31.02669530902919" lon="-6.1741828226067765"><ele>1743.0</ele><time>2026-05-05T09:49:15Z</time></trkpt><trkpt lat="31.026697185389747" lon="-6.174082514763759"><ele>1743.0</ele><time>2026-05-05T09:49:16Z</time></trkpt><trkpt lat="31.026697595935744" lon="-6.173984463836307"><ele>1743.0</ele><time>2026-05-05T09:49:17Z</time></trkpt><trkpt lat="31.0266940304144" lon="-6.1738952056200285"><ele>1743.0</ele><time>2026-05-05T09:49:18Z</time></trkpt><trkpt lat="31.026689966549714" lon="-6.173798289560921"><ele>1743.0</ele><time>2026-05-05T09:49:19Z</time></trkpt><trkpt lat="31.026685572657428" lon="-6.173699170749668"><ele>1744.0</ele><time>2026-05-05T09:49:20Z</time></trkpt><trkpt lat="31.026678966764827" lon="-6.1736082595935775"><ele>1745.0</ele><time>2026-05-05T09:49:21Z</time></trkpt><trkpt lat="31.02667026224084" lon="-6.1735257179047816"><ele>1746.0</ele><time>2026-05-05T09:49:22Z</time></trkpt><trkpt lat="31.02667062543719" lon="-6.173437932971471"><ele>1747.0</ele><time>2026-05-05T09:49:23Z</time></trkpt><trkpt lat="31.026678592160852" lon="-6.173355812924081"><ele>1748.0</ele><time>2026-05-05T09:49:24Z</time></trkpt><trkpt lat="31.026691972418327" lon="-6.173275007389184"><ele>1749.0</ele><time>2026-05-05T09:49:25Z</time></trkpt><trkpt lat="31.026698662684364" lon="-6.173197866100431"><ele>1750.0</ele><time>2026-05-05T09:49:26Z</time></trkpt><trkpt lat="31.02668565172748" lon="-6.173082349935827"><ele>1750.1666666666667</ele><time>2026-05-05T09:49:28Z</time></trkpt><trkpt lat="31.02664612556871" lon="-6.17302271293329"><ele>1750.3333333333335</ele><time>2026-05-05T09:49:29Z</time></trkpt><trkpt lat="31.026596976651028" lon="-6.1729633933953725"><ele>1750.5</ele><time>2026-05-05T09:49:30Z</time></trkpt><trkpt lat="31.026539069649314" lon="-6.172899606981082"><ele>1750.6666666666665</ele><time>2026-05-05T09:49:31Z</time></trkpt><trkpt lat="31.0264826217357" lon="-6.172831204868207"><ele>1750.8333333333333</ele><time>2026-05-05T09:49:32Z</time></trkpt><trkpt lat="31.026433416940392" lon="-6.1727628321434915"><ele>1751.0</ele><time>2026-05-05T09:49:33Z</time></trkpt><trkpt lat="31.02639720114443" lon="-6.172671125464805"><ele>1751.6666666666665</ele><time>2026-05-05T09:49:34Z</time></trkpt><trkpt lat="31.02636574439252" lon="-6.172570818302731"><ele>1752.3333333333333</ele><time>2026-05-05T09:49:35Z</time></trkpt><trkpt lat="31.026337592566342" lon="-6.1724754126035295"><ele>1753.0</ele><time>2026-05-05T09:49:36Z</time></trkpt><trkpt lat="31.026302972411333" lon="-6.17237535099929"><ele>1753.6666666666665</ele><time>2026-05-05T09:49:37Z</time></trkpt><trkpt lat="31.026266854475864" lon="-6.172281660596475"><ele>1754.3333333333333</ele><time>2026-05-05T09:49:38Z</time></trkpt><trkpt lat="31.026237097989654" lon="-6.172193526320165"><ele>1755.0</ele><time>2026-05-05T09:49:39Z</time></trkpt><trkpt lat="31.026208883384207" lon="-6.172101069684932"><ele>1755.3333333333333</ele><time>2026-05-05T09:49:40Z</time></trkpt><trkpt lat="31.026179240147346" lon="-6.172009474147189"><ele>1755.6666666666665</ele><time>2026-05-05T09:49:41Z</time></trkpt><trkpt lat="31.026151451101615" lon="-6.171916246035874"><ele>1756.0</ele><time>2026-05-05T09:49:42Z</time></trkpt><trkpt lat="31.02612861073287" lon="-6.171822428485843"><ele>1756.3333333333333</ele><time>2026-05-05T09:49:43Z</time></trkpt><trkpt lat="31.026100047821856" lon="-6.171734298696098"><ele>1756.6666666666665</ele><time>2026-05-05T09:49:44Z</time></trkpt><trkpt lat="31.026054781736658" lon="-6.171655513447651"><ele>1757.0</ele><time>2026-05-05T09:49:45Z</time></trkpt><trkpt lat="31.026011126821253" lon="-6.171588775852424"><ele>1757.8333333333333</ele><time>2026-05-05T09:49:46Z</time></trkpt><trkpt lat="31.025937526890104" lon="-6.17148505331463"><ele>1758.6666666666665</ele><time>2026-05-05T09:49:48Z</time></trkpt><trkpt lat="31.025897109441246" lon="-6.171427517793651"><ele>1759.5</ele><time>2026-05-05T09:49:49Z</time></trkpt><trkpt lat="31.02586311662692" lon="-6.171361990446568"><ele>1760.3333333333335</ele><time>2026-05-05T09:49:50Z</time></trkpt><trkpt lat="31.025843202321862" lon="-6.171285407828253"><ele>1761.1666666666667</ele><time>2026-05-05T09:49:51Z</time></trkpt><trkpt lat="31.02582999890328" lon="-6.171193682600285"><ele>1762.0</ele><time>2026-05-05T09:49:52Z</time></trkpt><trkpt lat="31.025812296539698" lon="-6.171098564622279"><ele>1760.6666666666667</ele><time>2026-05-05T09:49:53Z</time></trkpt><trkpt lat="31.025774487066446" lon="-6.17100328346707"><ele>1759.3333333333335</ele><time>2026-05-05T09:49:54Z</time></trkpt><trkpt lat="31.025733094594457" lon="-6.170918463320782"><ele>1758.0</ele><time>2026-05-05T09:49:55Z</time></trkpt><trkpt lat="31.02569961851481" lon="-6.17082877089567"><ele>1756.6666666666665</ele><time>2026-05-05T09:49:56Z</time></trkpt><trkpt lat="31.025665905316227" lon="-6.170737201111587"><ele>1755.3333333333333</ele><time>2026-05-05T09:49:57Z</time></trkpt><trkpt lat="31.025635644812247" lon="-6.170649717069531"><ele>1754.0</ele><time>2026-05-05T09:49:58Z</time></trkpt><trkpt lat="31.0256147531264" lon="-6.170559460519254"><ele>1753.9999999999998</ele><time>2026-05-05T09:49:59Z</time></trkpt><trkpt lat="31.02559150574956" lon="-6.170461338044046"><ele>1754.0</ele><time>2026-05-05T09:50:00Z</time></trkpt><trkpt lat="31.025561351979704" lon="-6.1703695769601214"><ele>1754.0</ele><time>2026-05-05T09:50:01Z</time></trkpt><trkpt lat="31.025530106329423" lon="-6.170278113295254"><ele>1754.0</ele><time>2026-05-05T09:50:02Z</time></trkpt><trkpt lat="31.025495509263664" lon="-6.1701874283694425"><ele>1753.9999999999998</ele><time>2026-05-05T09:50:03Z</time></trkpt><trkpt lat="31.025463675687114" lon="-6.1701002639835085"><ele>1754.0</ele><time>2026-05-05T09:50:04Z</time></trkpt><trkpt lat="31.02542797501678" lon="-6.170016767595379"><ele>1753.9999999999998</ele><time>2026-05-05T09:50:05Z</time></trkpt><trkpt lat="31.025397863004674" lon="-6.169929333550772"><ele>1754.0</ele><time>2026-05-05T09:50:06Z</time></trkpt><trkpt lat="31.0253805737187" lon="-6.169835227557442"><ele>1754.0</ele><time>2026-05-05T09:50:07Z</time></trkpt><trkpt lat="31.025352954623763" lon="-6.169733287821165"><ele>1754.0</ele><time>2026-05-05T09:50:08Z</time></trkpt><trkpt lat="31.025356811954918" lon="-6.1696504945126565"><ele>1753.9999999999998</ele><time>2026-05-05T09:50:09Z</time></trkpt><trkpt lat="31.025347235140572" lon="-6.1695598122670985"><ele>1754.0</ele><time>2026-05-05T09:50:10Z</time></trkpt><trkpt lat="31.025340806312734" lon="-6.1694762304463735"><ele>1753.9999999999998</ele><time>2026-05-05T09:50:11Z</time></trkpt><trkpt lat="31.025340838559426" lon="-6.1693946087549"><ele>1754.0</ele><time>2026-05-05T09:50:12Z</time></trkpt><trkpt lat="31.025347654202157" lon="-6.169307036583752"><ele>1754.0</ele><time>2026-05-05T09:50:13Z</time></trkpt><trkpt lat="31.025360531452332" lon="-6.169215737569826"><ele>1754.0</ele><time>2026-05-05T09:50:14Z</time></trkpt><trkpt lat="31.025382865464092" lon="-6.169124456316022"><ele>1753.9999999999998</ele><time>2026-05-05T09:50:15Z</time></trkpt><trkpt lat="31.025416968615183" lon="-6.169033564345255"><ele>1754.0</ele><time>2026-05-05T09:50:16Z</time></trkpt><trkpt lat="31.025452512352633" lon="-6.168943396282773"><ele>1753.9999999999998</ele><time>2026-05-05T09:50:17Z</time></trkpt><trkpt lat="31.02548683838045" lon="-6.168850222976924"><ele>1754.0</ele><time>2026-05-05T09:50:18Z</time></trkpt><trkpt lat="31.025514289843642" lon="-6.168758289160162"><ele>1754.0</ele><time>2026-05-05T09:50:19Z</time></trkpt><trkpt lat="31.025533241020092" lon="-6.1686666743814085"><ele>1754.0</ele><time>2026-05-05T09:50:20Z</time></trkpt><trkpt lat="31.025565241745632" lon="-6.168577145721134"><ele>1753.9999999999998</ele><time>2026-05-05T09:50:21Z</time></trkpt><trkpt lat="31.025600375782595" lon="-6.168492750734595"><ele>1754.0</ele><time>2026-05-05T09:50:22Z</time></trkpt><trkpt lat="31.02564379552713" lon="-6.168404598263987"><ele>1753.9999999999998</ele><time>2026-05-05T09:50:23Z</time></trkpt><trkpt lat="31.02568215885517" lon="-6.168318754452543"><ele>1754.0</ele><time>2026-05-05T09:50:24Z</time></trkpt><trkpt lat="31.02571593198867" lon="-6.168228361524466"><ele>1754.0</ele><time>2026-05-05T09:50:25Z</time></trkpt><trkpt lat="31.02573779712887" lon="-6.168130930198184"><ele>1754.0</ele><time>2026-05-05T09:50:26Z</time></trkpt><trkpt lat="31.025767737022612" lon="-6.168047210305287"><ele>1753.9999999999998</ele><time>2026-05-05T09:50:27Z</time></trkpt><trkpt lat="31.02580332894414" lon="-6.167967333009521"><ele>1754.0</ele><time>2026-05-05T09:50:28Z</time></trkpt><trkpt lat="31.025845957707805" lon="-6.1678850227613315"><ele>1755.8333333333333</ele><time>2026-05-05T09:50:29Z</time></trkpt><trkpt lat="31.02588502283227" lon="-6.167803500684598"><ele>1757.6666666666665</ele><time>2026-05-05T09:50:30Z</time></trkpt><trkpt lat="31.025915281582567" lon="-6.167726035189177"><ele>1759.5</ele><time>2026-05-05T09:50:31Z</time></trkpt><trkpt lat="31.02594392021809" lon="-6.1676536766746946"><ele>1761.3333333333335</ele><time>2026-05-05T09:50:32Z</time></trkpt><trkpt lat="31.02597218609188" lon="-6.167524270498189"><ele>1763.1666666666667</ele><time>2026-05-05T09:50:34Z</time></trkpt><trkpt lat="31.02591796373993" lon="-6.167420663505726"><ele>1765.0</ele><time>2026-05-05T09:50:36Z</time></trkpt><trkpt lat="31.02578444654291" lon="-6.167397968691696"><ele>1765.3333333333335</ele><time>2026-05-05T09:50:38Z</time></trkpt><trkpt lat="31.025695966622976" lon="-6.167381244752223"><ele>1765.6666666666667</ele><time>2026-05-05T09:50:39Z</time></trkpt><trkpt lat="31.025608885104774" lon="-6.167360574042896"><ele>1766.0</ele><time>2026-05-05T09:50:40Z</time></trkpt><trkpt lat="31.0255278811544" lon="-6.1673496805314905"><ele>1766.3333333333335</ele><time>2026-05-05T09:50:41Z</time></trkpt><trkpt lat="31.02544505438429" lon="-6.1673502573203915"><ele>1766.6666666666667</ele><time>2026-05-05T09:50:42Z</time></trkpt><trkpt lat="31.02536825486287" lon="-6.167369522118291"><ele>1767.0</ele><time>2026-05-05T09:50:43Z</time></trkpt><trkpt lat="31.025284402277027" lon="-6.167396286115303"><ele>1766.9999999999998</ele><time>2026-05-05T09:50:44Z</time></trkpt><trkpt lat="31.025209914882282" lon="-6.1674176095528175"><ele>1767.0</ele><time>2026-05-05T09:50:45Z</time></trkpt><trkpt lat="31.025139503114605" lon="-6.1674475779704645"><ele>1767.0</ele><time>2026-05-05T09:50:46Z</time></trkpt><trkpt lat="31.0250804084928" lon="-6.167474606210696"><ele>1767.0</ele><time>2026-05-05T09:50:47Z</time></trkpt><trkpt lat="31.02501517578735" lon="-6.167493440573276"><ele>1767.0</ele><time>2026-05-05T09:50:48Z</time></trkpt><trkpt lat="31.024951619461458" lon="-6.16752066446717"><ele>1766.9999999999998</ele><time>2026-05-05T09:50:49Z</time></trkpt><trkpt lat="31.024891649455174" lon="-6.167553604845559"><ele>1767.0</ele><time>2026-05-05T09:50:50Z</time></trkpt><trkpt lat="31.02481307167994" lon="-6.16761235303745"><ele>1765.6</ele><time>2026-05-05T09:50:52Z</time></trkpt><trkpt lat="31.024751554456792" lon="-6.167592234846451"><ele>1764.1999999999998</ele><time>2026-05-05T09:50:54Z</time></trkpt><trkpt lat="31.02471495517717" lon="-6.1675073467518065"><ele>1762.8</ele><time>2026-05-05T09:50:56Z</time></trkpt><trkpt lat="31.02470602600089" lon="-6.16738826632944"><ele>1761.4</ele><time>2026-05-05T09:50:58Z</time></trkpt><trkpt lat="31.024730803023047" lon="-6.167244129787849"><ele>1760.0</ele><time>2026-05-05T09:51:00Z</time></trkpt><trkpt lat="31.02473919185795" lon="-6.167154585206717"><ele>1759.8333333333333</ele><time>2026-05-05T09:51:01Z</time></trkpt><trkpt lat="31.02475009094216" lon="-6.167060034399341"><ele>1759.6666666666665</ele><time>2026-05-05T09:51:02Z</time></trkpt><trkpt lat="31.02476765793276" lon="-6.166963972268141"><ele>1759.5</ele><time>2026-05-05T09:51:03Z</time></trkpt><trkpt lat="31.02479719011432" lon="-6.1668719150369276"><ele>1759.3333333333335</ele><time>2026-05-05T09:51:04Z</time></trkpt><trkpt lat="31.024831529388578" lon="-6.166778772500458"><ele>1759.1666666666667</ele><time>2026-05-05T09:51:05Z</time></trkpt><trkpt lat="31.024877170654406" lon="-6.166690297663964"><ele>1759.0</ele><time>2026-05-05T09:51:06Z</time></trkpt><trkpt lat="31.024922176282423" lon="-6.166610383017643"><ele>1759.0000000000002</ele><time>2026-05-05T09:51:07Z</time></trkpt><trkpt lat="31.024960467560124" lon="-6.166535388327896"><ele>1759.0</ele><time>2026-05-05T09:51:08Z</time></trkpt><trkpt lat="31.024999296130144" lon="-6.166465150002175"><ele>1759.0</ele><time>2026-05-05T09:51:09Z</time></trkpt><trkpt lat="31.025045109743257" lon="-6.166397634640377"><ele>1759.0</ele><time>2026-05-05T09:51:10Z</time></trkpt><trkpt lat="31.025099615110378" lon="-6.166328592547102"><ele>1759.0000000000002</ele><time>2026-05-05T09:51:11Z</time></trkpt><trkpt lat="31.025157666382267" lon="-6.166263959280206"><ele>1759.0</ele><time>2026-05-05T09:51:12Z</time></trkpt><trkpt lat="31.02521961170264" lon="-6.1662050621595474"><ele>1760.0000000000002</ele><time>2026-05-05T09:51:13Z</time></trkpt><trkpt lat="31.025292690160004" lon="-6.1661356923834125"><ele>1761.0</ele><time>2026-05-05T09:51:14Z</time></trkpt><trkpt lat="31.02535815561397" lon="-6.1660681697434105"><ele>1762.0</ele><time>2026-05-05T09:51:15Z</time></trkpt><trkpt lat="31.02542105562992" lon="-6.166008401345828"><ele>1763.0</ele><time>2026-05-05T09:51:16Z</time></trkpt><trkpt lat="31.025478885559362" lon="-6.165943941159468"><ele>1764.0000000000002</ele><time>2026-05-05T09:51:17Z</time></trkpt><trkpt lat="31.025533343021657" lon="-6.165871167814347"><ele>1765.0</ele><time>2026-05-05T09:51:18Z</time></trkpt><trkpt lat="31.025588634577012" lon="-6.165790400380041"><ele>1765.0000000000002</ele><time>2026-05-05T09:51:19Z</time></trkpt><trkpt lat="31.02564293841786" lon="-6.165700986605783"><ele>1765.0</ele><time>2026-05-05T09:51:20Z</time></trkpt><trkpt lat="31.02569705670334" lon="-6.165619244048532"><ele>1765.0</ele><time>2026-05-05T09:51:21Z</time></trkpt><trkpt lat="31.025753539667832" lon="-6.165544566022895"><ele>1765.0</ele><time>2026-05-05T09:51:22Z</time></trkpt><trkpt lat="31.025803382342662" lon="-6.165476589033845"><ele>1765.0000000000002</ele><time>2026-05-05T09:51:23Z</time></trkpt><trkpt lat="31.025852112712396" lon="-6.165403548904688"><ele>1765.0</ele><time>2026-05-05T09:51:24Z</time></trkpt><trkpt lat="31.0258874210044" lon="-6.165321989833807"><ele>1766.1666666666667</ele><time>2026-05-05T09:51:25Z</time></trkpt><trkpt lat="31.025910516489283" lon="-6.165235602489085"><ele>1767.3333333333335</ele><time>2026-05-05T09:51:26Z</time></trkpt><trkpt lat="31.025914772937284" lon="-6.165147928127788"><ele>1768.5</ele><time>2026-05-05T09:51:27Z</time></trkpt><trkpt lat="31.025908229042557" lon="-6.16505404920172"><ele>1769.6666666666665</ele><time>2026-05-05T09:51:28Z</time></trkpt><trkpt lat="31.025896318602687" lon="-6.164964916220537"><ele>1770.8333333333333</ele><time>2026-05-05T09:51:29Z</time></trkpt><trkpt lat="31.025893939327887" lon="-6.164874585131622"><ele>1772.0</ele><time>2026-05-05T09:51:30Z</time></trkpt><trkpt lat="31.025886627436268" lon="-6.164787041500855"><ele>1772.4285714285716</ele><time>2026-05-05T09:51:31Z</time></trkpt><trkpt lat="31.02586752334585" lon="-6.164702193564005"><ele>1772.857142857143</ele><time>2026-05-05T09:51:32Z</time></trkpt><trkpt lat="31.025845885680237" lon="-6.164625206490134"><ele>1773.2857142857142</ele><time>2026-05-05T09:51:33Z</time></trkpt><trkpt lat="31.02583557934196" lon="-6.164543431168184"><ele>1773.7142857142858</ele><time>2026-05-05T09:51:34Z</time></trkpt><trkpt lat="31.025842651931544" lon="-6.164464867715352"><ele>1774.142857142857</ele><time>2026-05-05T09:51:35Z</time></trkpt><trkpt lat="31.025863209930108" lon="-6.1643802101341585"><ele>1774.5714285714287</ele><time>2026-05-05T09:51:36Z</time></trkpt><trkpt lat="31.025889936427504" lon="-6.164286237293242"><ele>1775.0</ele><time>2026-05-05T09:51:37Z</time></trkpt><trkpt lat="31.025920469620022" lon="-6.1641952687462505"><ele>1774.9999999999998</ele><time>2026-05-05T09:51:38Z</time></trkpt><trkpt lat="31.02595881854401" lon="-6.164110334904246"><ele>1775.0</ele><time>2026-05-05T09:51:39Z</time></trkpt><trkpt lat="31.02599492585968" lon="-6.164030604008077"><ele>1775.0</ele><time>2026-05-05T09:51:40Z</time></trkpt><trkpt lat="31.02601783242706" lon="-6.163937804590556"><ele>1775.0</ele><time>2026-05-05T09:51:41Z</time></trkpt><trkpt lat="31.026025731385698" lon="-6.163847475479831"><ele>1774.9999999999998</ele><time>2026-05-05T09:51:42Z</time></trkpt><trkpt lat="31.026025313643363" lon="-6.163749249996236"><ele>1775.0</ele><time>2026-05-05T09:51:43Z</time></trkpt><trkpt lat="31.02602238741829" lon="-6.163668431071558"><ele>1775.4</ele><time>2026-05-05T09:51:44Z</time></trkpt><trkpt lat="31.026017356473545" lon="-6.16359316538025"><ele>1775.8</ele><time>2026-05-05T09:51:45Z</time></trkpt><trkpt lat="31.025989362173167" lon="-6.163457775477733"><ele>1776.1999999999998</ele><time>2026-05-05T09:51:47Z</time></trkpt><trkpt lat="31.025911013154015" lon="-6.163351018040671"><ele>1776.6</ele><time>2026-05-05T09:51:49Z</time></trkpt><trkpt lat="31.02580764060311" lon="-6.163314895281886"><ele>1777.0</ele><time>2026-05-05T09:51:51Z</time></trkpt><trkpt lat="31.025681554663713" lon="-6.163388742075942"><ele>1777.0000000000002</ele><time>2026-05-05T09:51:53Z</time></trkpt><trkpt lat="31.025619175236816" lon="-6.16345130570273"><ele>1777.0</ele><time>2026-05-05T09:51:54Z</time></trkpt><trkpt lat="31.02556039370976" lon="-6.16350290896017"><ele>1777.0</ele><time>2026-05-05T09:51:55Z</time></trkpt><trkpt lat="31.02548961461105" lon="-6.1635381748308316"><ele>1777.0</ele><time>2026-05-05T09:51:56Z</time></trkpt><trkpt lat="31.02541302573332" lon="-6.16355755479358"><ele>1777.0000000000002</ele><time>2026-05-05T09:51:57Z</time></trkpt><trkpt lat="31.025334726115045" lon="-6.1635644486161105"><ele>1777.0</ele><time>2026-05-05T09:51:58Z</time></trkpt><trkpt lat="31.025249479755335" lon="-6.163571112383398"><ele>1777.0</ele><time>2026-05-05T09:51:59Z</time></trkpt><trkpt lat="31.02516523619803" lon="-6.163566464000191"><ele>1777.0</ele><time>2026-05-05T09:52:00Z</time></trkpt><trkpt lat="31.025088566655466" lon="-6.16355003654064"><ele>1777.0</ele><time>2026-05-05T09:52:01Z</time></trkpt><trkpt lat="31.02502004863952" lon="-6.163532183829055"><ele>1777.0</ele><time>2026-05-05T09:52:02Z</time></trkpt><trkpt lat="31.024948462160683" lon="-6.163509937900124"><ele>1777.0</ele><time>2026-05-05T09:52:03Z</time></trkpt><trkpt lat="31.02488286608223" lon="-6.163489842893477"><ele>1777.0</ele><time>2026-05-05T09:52:04Z</time></trkpt><trkpt lat="31.024824763775527" lon="-6.163460583610935"><ele>1777.0</ele><time>2026-05-05T09:52:05Z</time></trkpt><trkpt lat="31.024717843814674" lon="-6.1633747234223595"><ele>1777.3333333333335</ele><time>2026-05-05T09:52:07Z</time></trkpt><trkpt lat="31.024661631095384" lon="-6.163308752752375"><ele>1777.6666666666667</ele><time>2026-05-05T09:52:08Z</time></trkpt><trkpt lat="31.02461111590843" lon="-6.163239247755146"><ele>1778.0</ele><time>2026-05-05T09:52:09Z</time></trkpt><trkpt lat="31.02455983240708" lon="-6.1631759688958345"><ele>1778.3333333333335</ele><time>2026-05-05T09:52:10Z</time></trkpt><trkpt lat="31.024507164573688" lon="-6.163121938511134"><ele>1778.6666666666667</ele><time>2026-05-05T09:52:11Z</time></trkpt><trkpt lat="31.024447019411618" lon="-6.163056050140529"><ele>1779.0</ele><time>2026-05-05T09:52:12Z</time></trkpt><trkpt lat="31.024394822249622" lon="-6.162977864231401"><ele>1779.0</ele><time>2026-05-05T09:52:13Z</time></trkpt><trkpt lat="31.024346811617473" lon="-6.162909230404255"><ele>1779.0</ele><time>2026-05-05T09:52:14Z</time></trkpt><trkpt lat="31.02429049095449" lon="-6.162849282041932"><ele>1779.0</ele><time>2026-05-05T09:52:15Z</time></trkpt><trkpt lat="31.024227687768196" lon="-6.162785273253296"><ele>1779.0</ele><time>2026-05-05T09:52:16Z</time></trkpt><trkpt lat="31.024163606739936" lon="-6.162719806133261"><ele>1779.0</ele><time>2026-05-05T09:52:17Z</time></trkpt><trkpt lat="31.024104004236953" lon="-6.1626591289888095"><ele>1779.0</ele><time>2026-05-05T09:52:18Z</time></trkpt><trkpt lat="31.024041860178226" lon="-6.162601991091159"><ele>1778.1666666666667</ele><time>2026-05-05T09:52:19Z</time></trkpt><trkpt lat="31.02398047938262" lon="-6.1625481427075215"><ele>1777.3333333333335</ele><time>2026-05-05T09:52:20Z</time></trkpt><trkpt lat="31.023920123217806" lon="-6.162490719502632"><ele>1776.5</ele><time>2026-05-05T09:52:21Z</time></trkpt><trkpt lat="31.02386395668611" lon="-6.1624297977005655"><ele>1775.6666666666667</ele><time>2026-05-05T09:52:22Z</time></trkpt><trkpt lat="31.023807827758223" lon="-6.162365937961421"><ele>1774.8333333333335</ele><time>2026-05-05T09:52:23Z</time></trkpt><trkpt lat="31.023751554566484" lon="-6.162302564764641"><ele>1774.0</ele><time>2026-05-05T09:52:24Z</time></trkpt><trkpt lat="31.02369524236449" lon="-6.162244765995976"><ele>1774.0000000000002</ele><time>2026-05-05T09:52:25Z</time></trkpt><trkpt lat="31.023634527803345" lon="-6.162204270305401"><ele>1774.0</ele><time>2026-05-05T09:52:26Z</time></trkpt><trkpt lat="31.02356527209267" lon="-6.1621826106353295"><ele>1774.0</ele><time>2026-05-05T09:52:27Z</time></trkpt><trkpt lat="31.02348243376593" lon="-6.162161819690204"><ele>1774.0</ele><time>2026-05-05T09:52:28Z</time></trkpt><trkpt lat="31.02339996176193" lon="-6.162139706706593"><ele>1774.0000000000002</ele><time>2026-05-05T09:52:29Z</time></trkpt><trkpt lat="31.023316402717953" lon="-6.162118549310389"><ele>1774.0</ele><time>2026-05-05T09:52:30Z</time></trkpt><trkpt lat="31.023238441981686" lon="-6.162103139440354"><ele>1773.4285714285713</ele><time>2026-05-05T09:52:31Z</time></trkpt><trkpt lat="31.023164487320024" lon="-6.162087115682362"><ele>1772.857142857143</ele><time>2026-05-05T09:52:32Z</time></trkpt><trkpt lat="31.023092782895983" lon="-6.162064649130195"><ele>1772.2857142857142</ele><time>2026-05-05T09:52:33Z</time></trkpt><trkpt lat="31.023029566726" lon="-6.1620367145341"><ele>1771.7142857142858</ele><time>2026-05-05T09:52:34Z</time></trkpt><trkpt lat="31.02297027835383" lon="-6.162000964025842"><ele>1771.142857142857</ele><time>2026-05-05T09:52:35Z</time></trkpt><trkpt lat="31.022915459557613" lon="-6.1619547144557085"><ele>1770.5714285714284</ele><time>2026-05-05T09:52:36Z</time></trkpt><trkpt lat="31.022853295766197" lon="-6.161903307494462"><ele>1770.0</ele><time>2026-05-05T09:52:37Z</time></trkpt><trkpt lat="31.022782356731838" lon="-6.161849995850562"><ele>1770.0</ele><time>2026-05-05T09:52:38Z</time></trkpt><trkpt lat="31.022709777495017" lon="-6.161799185053822"><ele>1770.0</ele><time>2026-05-05T09:52:39Z</time></trkpt><trkpt lat="31.022637474035296" lon="-6.161755394871565"><ele>1770.0</ele><time>2026-05-05T09:52:40Z</time></trkpt><trkpt lat="31.022567429649825" lon="-6.161713932781089"><ele>1770.0</ele><time>2026-05-05T09:52:41Z</time></trkpt><trkpt lat="31.022496155154876" lon="-6.161669434059461"><ele>1770.0</ele><time>2026-05-05T09:52:42Z</time></trkpt><trkpt lat="31.022425174597892" lon="-6.161624055629903"><ele>1770.0</ele><time>2026-05-05T09:52:43Z</time></trkpt><trkpt lat="31.02235400573795" lon="-6.161574532141138"><ele>1771.0</ele><time>2026-05-05T09:52:44Z</time></trkpt><trkpt lat="31.0222782689122" lon="-6.161521090560193"><ele>1772.0</ele><time>2026-05-05T09:52:45Z</time></trkpt><trkpt lat="31.022201879460646" lon="-6.161464513300988"><ele>1773.0</ele><time>2026-05-05T09:52:46Z</time></trkpt><trkpt lat="31.02213031565575" lon="-6.16142129202416"><ele>1774.0</ele><time>2026-05-05T09:52:47Z</time></trkpt><trkpt lat="31.022060154289047" lon="-6.161385302758177"><ele>1775.0</ele><time>2026-05-05T09:52:48Z</time></trkpt><trkpt lat="31.02198675561458" lon="-6.161340445267346"><ele>1776.0</ele><time>2026-05-05T09:52:49Z</time></trkpt><trkpt lat="31.021910155462052" lon="-6.161288263307519"><ele>1776.0</ele><time>2026-05-05T09:52:50Z</time></trkpt><trkpt lat="31.02182437686656" lon="-6.161238941393897"><ele>1776.0</ele><time>2026-05-05T09:52:51Z</time></trkpt><trkpt lat="31.021738995076593" lon="-6.161197182855902"><ele>1776.0</ele><time>2026-05-05T09:52:52Z</time></trkpt><trkpt lat="31.021659549667714" lon="-6.161158708285646"><ele>1776.0</ele><time>2026-05-05T09:52:53Z</time></trkpt><trkpt lat="31.02157851026911" lon="-6.161122792955437"><ele>1776.0</ele><time>2026-05-05T09:52:54Z</time></trkpt><trkpt lat="31.021504754699638" lon="-6.161086690193589"><ele>1776.0</ele><time>2026-05-05T09:52:55Z</time></trkpt><trkpt lat="31.021430345122024" lon="-6.161051522843563"><ele>1774.8333333333333</ele><time>2026-05-05T09:52:56Z</time></trkpt><trkpt lat="31.021362369937783" lon="-6.161003200335025"><ele>1773.6666666666665</ele><time>2026-05-05T09:52:57Z</time></trkpt><trkpt lat="31.021302469621887" lon="-6.1609395000493485"><ele>1772.5</ele><time>2026-05-05T09:52:58Z</time></trkpt><trkpt lat="31.021240057798952" lon="-6.160870187284988"><ele>1771.3333333333333</ele><time>2026-05-05T09:52:59Z</time></trkpt><trkpt lat="31.02117672849576" lon="-6.160799669781208"><ele>1770.1666666666665</ele><time>2026-05-05T09:53:00Z</time></trkpt><trkpt lat="31.02112132830093" lon="-6.160741365951188"><ele>1769.0</ele><time>2026-05-05T09:53:01Z</time></trkpt><trkpt lat="31.021064293051868" lon="-6.1607001245740385"><ele>1769.3333333333333</ele><time>2026-05-05T09:53:02Z</time></trkpt><trkpt lat="31.020999324079686" lon="-6.160673169611529"><ele>1769.6666666666665</ele><time>2026-05-05T09:53:03Z</time></trkpt><trkpt lat="31.0209256112399" lon="-6.160643315348417"><ele>1770.0</ele><time>2026-05-05T09:53:04Z</time></trkpt><trkpt lat="31.020863438042607" lon="-6.160607883718821"><ele>1770.3333333333335</ele><time>2026-05-05T09:53:05Z</time></trkpt><trkpt lat="31.020796258063328" lon="-6.160559938818599"><ele>1770.6666666666667</ele><time>2026-05-05T09:53:06Z</time></trkpt><trkpt lat="31.020727325390265" lon="-6.160503273508817"><ele>1771.0</ele><time>2026-05-05T09:53:07Z</time></trkpt><trkpt lat="31.02065939965956" lon="-6.160442125238017"><ele>1771.0000000000002</ele><time>2026-05-05T09:53:08Z</time></trkpt><trkpt lat="31.02059594986707" lon="-6.160378682429373"><ele>1771.0</ele><time>2026-05-05T09:53:09Z</time></trkpt><trkpt lat="31.020540059353987" lon="-6.16031147741061"><ele>1771.0</ele><time>2026-05-05T09:53:10Z</time></trkpt><trkpt lat="31.020486233079225" lon="-6.160229349358347"><ele>1771.0</ele><time>2026-05-05T09:53:11Z</time></trkpt><trkpt lat="31.020437418894065" lon="-6.160144960868344"><ele>1771.0000000000002</ele><time>2026-05-05T09:53:12Z</time></trkpt><trkpt lat="31.020400543875354" lon="-6.160065172526911"><ele>1771.0</ele><time>2026-05-05T09:53:13Z</time></trkpt><trkpt lat="31.0203628391296" lon="-6.159988682273174"><ele>1771.0</ele><time>2026-05-05T09:53:14Z</time></trkpt><trkpt lat="31.020330592214446" lon="-6.159914256062597"><ele>1771.0</ele><time>2026-05-05T09:53:15Z</time></trkpt><trkpt lat="31.020310894875614" lon="-6.159841448518606"><ele>1771.0</ele><time>2026-05-05T09:53:16Z</time></trkpt><trkpt lat="31.02029406232393" lon="-6.159751670641814"><ele>1771.0</ele><time>2026-05-05T09:53:17Z</time></trkpt><trkpt lat="31.02027692346583" lon="-6.159671523873919"><ele>1771.0</ele><time>2026-05-05T09:53:18Z</time></trkpt><trkpt lat="31.020260183397813" lon="-6.159582425874856"><ele>1771.0</ele><time>2026-05-05T09:53:19Z</time></trkpt><trkpt lat="31.0202594037996" lon="-6.159494871492439"><ele>1771.0</ele><time>2026-05-05T09:53:20Z</time></trkpt><trkpt lat="31.02027446943951" lon="-6.15940410279015"><ele>1771.8333333333335</ele><time>2026-05-05T09:53:21Z</time></trkpt><trkpt lat="31.02029999676714" lon="-6.159316233836743"><ele>1772.6666666666667</ele><time>2026-05-05T09:53:22Z</time></trkpt><trkpt lat="31.020334479981127" lon="-6.159231126670328"><ele>1773.5</ele><time>2026-05-05T09:53:23Z</time></trkpt><trkpt lat="31.020373415947276" lon="-6.1591444710854875"><ele>1774.3333333333335</ele><time>2026-05-05T09:53:24Z</time></trkpt><trkpt lat="31.02041870786039" lon="-6.159054467587465"><ele>1775.1666666666667</ele><time>2026-05-05T09:53:25Z</time></trkpt><trkpt lat="31.020472148645958" lon="-6.158950072097203"><ele>1776.0</ele><time>2026-05-05T09:53:26Z</time></trkpt><trkpt lat="31.0205277420071" lon="-6.1588445431606695"><ele>1777.0</ele><time>2026-05-05T09:53:27Z</time></trkpt><trkpt lat="31.02057088512976" lon="-6.158737517981148"><ele>1778.0</ele><time>2026-05-05T09:53:28Z</time></trkpt><trkpt lat="31.020623407958052" lon="-6.158635047832305"><ele>1779.0</ele><time>2026-05-05T09:53:29Z</time></trkpt><trkpt lat="31.020688247465355" lon="-6.158537216720987"><ele>1780.0</ele><time>2026-05-05T09:53:30Z</time></trkpt><trkpt lat="31.020753173660804" lon="-6.158436729084291"><ele>1781.0</ele><time>2026-05-05T09:53:31Z</time></trkpt><trkpt lat="31.02081428484802" lon="-6.1583326360254365"><ele>1781.1999999999998</ele><time>2026-05-05T09:53:32Z</time></trkpt><trkpt lat="31.020871893326134" lon="-6.158226998380156"><ele>1781.3999999999999</ele><time>2026-05-05T09:53:33Z</time></trkpt><trkpt lat="31.020932248083767" lon="-6.15811943197463"><ele>1781.6</ele><time>2026-05-05T09:53:34Z</time></trkpt><trkpt lat="31.020981181761087" lon="-6.158020481870827"><ele>1781.8</ele><time>2026-05-05T09:53:35Z</time></trkpt><trkpt lat="31.021022632431613" lon="-6.157915838000685"><ele>1782.0</ele><time>2026-05-05T09:53:36Z</time></trkpt><trkpt lat="31.021060982474083" lon="-6.157818901017005"><ele>1782.0</ele><time>2026-05-05T09:53:37Z</time></trkpt><trkpt lat="31.021104759278515" lon="-6.1577279688989774"><ele>1781.9999999999998</ele><time>2026-05-05T09:53:38Z</time></trkpt><trkpt lat="31.021157195027122" lon="-6.157637125573155"><ele>1781.9999999999998</ele><time>2026-05-05T09:53:39Z</time></trkpt><trkpt lat="31.02121646158832" lon="-6.157554395645542"><ele>1782.0</ele><time>2026-05-05T09:53:40Z</time></trkpt><trkpt lat="31.021276213044793" lon="-6.157469095386136"><ele>1782.0</ele><time>2026-05-05T09:53:41Z</time></trkpt><trkpt lat="31.021336960325332" lon="-6.157394822384626"><ele>1783.0</ele><time>2026-05-05T09:53:42Z</time></trkpt><trkpt lat="31.02139682432453" lon="-6.15731487569538"><ele>1783.9999999999998</ele><time>2026-05-05T09:53:43Z</time></trkpt><trkpt lat="31.02146288550762" lon="-6.1572328542364385"><ele>1784.9999999999998</ele><time>2026-05-05T09:53:44Z</time></trkpt><trkpt lat="31.02153083187835" lon="-6.157149464517114"><ele>1786.0</ele><time>2026-05-05T09:53:45Z</time></trkpt><trkpt lat="31.021596284298546" lon="-6.157062821316507"><ele>1787.0</ele><time>2026-05-05T09:53:46Z</time></trkpt><trkpt lat="31.02166386344712" lon="-6.156969743511891"><ele>1787.0</ele><time>2026-05-05T09:53:47Z</time></trkpt><trkpt lat="31.02173848702106" lon="-6.156884055594365"><ele>1786.9999999999998</ele><time>2026-05-05T09:53:48Z</time></trkpt><trkpt lat="31.021817165370535" lon="-6.156802281538777"><ele>1786.9999999999998</ele><time>2026-05-05T09:53:49Z</time></trkpt><trkpt lat="31.021898357908203" lon="-6.156724244628431"><ele>1787.0</ele><time>2026-05-05T09:53:50Z</time></trkpt><trkpt lat="31.021981291732658" lon="-6.156643400520102"><ele>1787.0</ele><time>2026-05-05T09:53:51Z</time></trkpt><trkpt lat="31.02205799691094" lon="-6.156553511376235"><ele>1788.1999999999998</ele><time>2026-05-05T09:53:52Z</time></trkpt><trkpt lat="31.02213082919648" lon="-6.156464717301146"><ele>1789.3999999999999</ele><time>2026-05-05T09:53:53Z</time></trkpt><trkpt lat="31.022199730979132" lon="-6.156365342110241"><ele>1790.6000000000001</ele><time>2026-05-05T09:53:54Z</time></trkpt><trkpt lat="31.022265287153285" lon="-6.15626589902717"><ele>1791.8000000000002</ele><time>2026-05-05T09:53:55Z</time></trkpt><trkpt lat="31.0223249878647" lon="-6.156175867993907"><ele>1793.0</ele><time>2026-05-05T09:53:56Z</time></trkpt><trkpt lat="31.022383039992587" lon="-6.156077835762093"><ele>1793.0</ele><time>2026-05-05T09:53:57Z</time></trkpt><trkpt lat="31.022430017892816" lon="-6.155976560791442"><ele>1793.0000000000002</ele><time>2026-05-05T09:53:58Z</time></trkpt><trkpt lat="31.02247926107555" lon="-6.155868376464754"><ele>1793.0000000000002</ele><time>2026-05-05T09:53:59Z</time></trkpt><trkpt lat="31.022534701091104" lon="-6.155763254580984"><ele>1793.0</ele><time>2026-05-05T09:54:00Z</time></trkpt><trkpt lat="31.022596657138298" lon="-6.155668354410478"><ele>1793.0</ele><time>2026-05-05T09:54:01Z</time></trkpt><trkpt lat="31.022662656377605" lon="-6.15556968870477"><ele>1795.2</ele><time>2026-05-05T09:54:02Z</time></trkpt><trkpt lat="31.02272702264854" lon="-6.155477467215738"><ele>1797.4</ele><time>2026-05-05T09:54:03Z</time></trkpt><trkpt lat="31.022794376849124" lon="-6.155388792787314"><ele>1799.6000000000001</ele><time>2026-05-05T09:54:04Z</time></trkpt><trkpt lat="31.02286026936754" lon="-6.15529817585214"><ele>1801.8000000000002</ele><time>2026-05-05T09:54:05Z</time></trkpt><trkpt lat="31.02292375850892" lon="-6.155206352331506"><ele>1804.0</ele><time>2026-05-05T09:54:06Z</time></trkpt><trkpt lat="31.022984507050797" lon="-6.155115175827983"><ele>1804.0</ele><time>2026-05-05T09:54:07Z</time></trkpt><trkpt lat="31.023044902633536" lon="-6.155026969391821"><ele>1804.0</ele><time>2026-05-05T09:54:08Z</time></trkpt><trkpt lat="31.023106388826726" lon="-6.154930936048641"><ele>1804.0</ele><time>2026-05-05T09:54:09Z</time></trkpt><trkpt lat="31.02317380566936" lon="-6.154840054022287"><ele>1804.0</ele><time>2026-05-05T09:54:10Z</time></trkpt><trkpt lat="31.023241882834338" lon="-6.154759865407769"><ele>1804.0</ele><time>2026-05-05T09:54:11Z</time></trkpt><trkpt lat="31.023311245352037" lon="-6.15468308218103"><ele>1805.2</ele><time>2026-05-05T09:54:12Z</time></trkpt><trkpt lat="31.02338415405731" lon="-6.154612261228724"><ele>1806.4</ele><time>2026-05-05T09:54:13Z</time></trkpt><trkpt lat="31.023464756639346" lon="-6.1545504548678736"><ele>1807.6</ele><time>2026-05-05T09:54:14Z</time></trkpt><trkpt lat="31.02355345484208" lon="-6.1544812563644715"><ele>1808.8</ele><time>2026-05-05T09:54:15Z</time></trkpt><trkpt lat="31.02364357447339" lon="-6.154415091413568"><ele>1810.0</ele><time>2026-05-05T09:54:16Z</time></trkpt><trkpt lat="31.023711485418623" lon="-6.154371034503712"><ele>1810.0</ele><time>2026-05-05T09:54:17Z</time></trkpt><trkpt lat="31.02376308638198" lon="-6.154322062227603"><ele>1809.9999999999998</ele><time>2026-05-05T09:54:18Z</time></trkpt><trkpt lat="31.023804664731966" lon="-6.15425877605279"><ele>1810.0</ele><time>2026-05-05T09:54:19Z</time></trkpt><trkpt lat="31.023839837296478" lon="-6.154184238976933"><ele>1810.0</ele><time>2026-05-05T09:54:20Z</time></trkpt><trkpt lat="31.023865680282924" lon="-6.154116760929672"><ele>1809.9999999999998</ele><time>2026-05-05T09:54:21Z</time></trkpt><trkpt lat="31.023884044327485" lon="-6.154043208264325"><ele>1810.0</ele><time>2026-05-05T09:54:22Z</time></trkpt><trkpt lat="31.023898161680155" lon="-6.153963797096862"><ele>1810.0</ele><time>2026-05-05T09:54:23Z</time></trkpt><trkpt lat="31.02392346797697" lon="-6.153887363946441"><ele>1811.0</ele><time>2026-05-05T09:54:24Z</time></trkpt><trkpt lat="31.023947638656836" lon="-6.153816841895832"><ele>1812.0</ele><time>2026-05-05T09:54:25Z</time></trkpt><trkpt lat="31.02396714423673" lon="-6.153743930388918"><ele>1813.0</ele><time>2026-05-05T09:54:26Z</time></trkpt><trkpt lat="31.023972445568337" lon="-6.153625101820293"><ele>1814.0</ele><time>2026-05-05T09:54:28Z</time></trkpt><trkpt lat="31.023952715772275" lon="-6.1535257098820395"><ele>1815.0</ele><time>2026-05-05T09:54:39Z</time></trkpt><trkpt lat="31.023944126344777" lon="-6.153374271073039"><ele>1815.0</ele><time>2026-05-05T09:54:41Z</time></trkpt><trkpt lat="31.023936392039346" lon="-6.1532957582991274"><ele>1815.0</ele><time>2026-05-05T09:54:42Z</time></trkpt><trkpt lat="31.023901010696108" lon="-6.153168601152253"><ele>1815.0</ele><time>2026-05-05T09:54:44Z</time></trkpt><trkpt lat="31.023863842280438" lon="-6.153107422248586"><ele>1815.0</ele><time>2026-05-05T09:54:45Z</time></trkpt><trkpt lat="31.02382456009508" lon="-6.1530491516174655"><ele>1815.0</ele><time>2026-05-05T09:54:46Z</time></trkpt><trkpt lat="31.023786007407054" lon="-6.15298705059156"><ele>1815.0</ele><time>2026-05-05T09:54:47Z</time></trkpt><trkpt lat="31.02375408355652" lon="-6.152847761098648"><ele>1814.1428571428573</ele><time>2026-05-05T09:54:49Z</time></trkpt><trkpt lat="31.02373968029603" lon="-6.152766646102013"><ele>1813.2857142857142</ele><time>2026-05-05T09:54:50Z</time></trkpt><trkpt lat="31.023731511525536" lon="-6.152682966760445"><ele>1812.4285714285716</ele><time>2026-05-05T09:54:51Z</time></trkpt><trkpt lat="31.023725573368242" lon="-6.152601032424598"><ele>1811.5714285714287</ele><time>2026-05-05T09:54:52Z</time></trkpt><trkpt lat="31.023735350460495" lon="-6.152521630878498"><ele>1810.7142857142858</ele><time>2026-05-05T09:54:53Z</time></trkpt><trkpt lat="31.02375292791891" lon="-6.152444881901683"><ele>1809.857142857143</ele><time>2026-05-05T09:54:54Z</time></trkpt><trkpt lat="31.023756328527213" lon="-6.152363486078923"><ele>1809.0</ele><time>2026-05-05T09:54:55Z</time></trkpt><trkpt lat="31.023748219985077" lon="-6.152285558738398"><ele>1809.0</ele><time>2026-05-05T09:54:56Z</time></trkpt><trkpt lat="31.023757731881222" lon="-6.1522122546567415"><ele>1809.0000000000002</ele><time>2026-05-05T09:54:57Z</time></trkpt><trkpt lat="31.023773874602334" lon="-6.152139885603982"><ele>1809.0</ele><time>2026-05-05T09:54:58Z</time></trkpt><trkpt lat="31.023808198217154" lon="-6.152064919052986"><ele>1809.0</ele><time>2026-05-05T09:54:59Z</time></trkpt><trkpt lat="31.023856284759887" lon="-6.1520013671767435"><ele>1809.0000000000002</ele><time>2026-05-05T09:55:00Z</time></trkpt><trkpt lat="31.023913765276145" lon="-6.151948498047698"><ele>1809.0</ele><time>2026-05-05T09:55:01Z</time></trkpt><trkpt lat="31.023971825374907" lon="-6.151904947619651"><ele>1809.0</ele><time>2026-05-05T09:55:02Z</time></trkpt><trkpt lat="31.024032450254598" lon="-6.151879383037528"><ele>1809.0</ele><time>2026-05-05T09:55:03Z</time></trkpt><trkpt lat="31.024102742578943" lon="-6.151866623872857"><ele>1809.0</ele><time>2026-05-05T09:55:04Z</time></trkpt><trkpt lat="31.02417479348281" lon="-6.151853669358979"><ele>1809.0</ele><time>2026-05-05T09:55:05Z</time></trkpt><trkpt lat="31.024253941739648" lon="-6.1518208985842655"><ele>1809.0</ele><time>2026-05-05T09:55:06Z</time></trkpt><trkpt lat="31.02435044587831" lon="-6.151786726034951"><ele>1809.0</ele><time>2026-05-05T09:55:07Z</time></trkpt><trkpt lat="31.024436898216504" lon="-6.15174283192086"><ele>1809.0</ele><time>2026-05-05T09:55:08Z</time></trkpt><trkpt lat="31.02452087634701" lon="-6.151695182422104"><ele>1810.0</ele><time>2026-05-05T09:55:09Z</time></trkpt><trkpt lat="31.024602328642956" lon="-6.151649246112022"><ele>1811.0</ele><time>2026-05-05T09:55:10Z</time></trkpt><trkpt lat="31.024681097203725" lon="-6.151609829391174"><ele>1812.0</ele><time>2026-05-05T09:55:11Z</time></trkpt><trkpt lat="31.024757168528858" lon="-6.151571586271268"><ele>1813.0</ele><time>2026-05-05T09:55:12Z</time></trkpt><trkpt lat="31.024831137638163" lon="-6.151529492197129"><ele>1814.0</ele><time>2026-05-05T09:55:13Z</time></trkpt><trkpt lat="31.02490550510208" lon="-6.151481495690767"><ele>1815.0</ele><time>2026-05-05T09:55:14Z</time></trkpt><trkpt lat="31.024986929236665" lon="-6.151431792139062"><ele>1810.8333333333333</ele><time>2026-05-05T09:55:15Z</time></trkpt><trkpt lat="31.02507205723496" lon="-6.1513967339771884"><ele>1806.6666666666665</ele><time>2026-05-05T09:55:16Z</time></trkpt><trkpt lat="31.02515298002974" lon="-6.151355452597623"><ele>1802.5</ele><time>2026-05-05T09:55:17Z</time></trkpt><trkpt lat="31.025226449444627" lon="-6.151300962594357"><ele>1798.3333333333333</ele><time>2026-05-05T09:55:18Z</time></trkpt><trkpt lat="31.02528226125581" lon="-6.1512340812938895"><ele>1794.1666666666665</ele><time>2026-05-05T09:55:19Z</time></trkpt><trkpt lat="31.025323435553634" lon="-6.151153733568838"><ele>1790.0</ele><time>2026-05-05T09:55:20Z</time></trkpt><trkpt lat="31.02536857583591" lon="-6.15106447389615"><ele>1790.0</ele><time>2026-05-05T09:55:21Z</time></trkpt><trkpt lat="31.02542431141858" lon="-6.150974523998941"><ele>1790.0</ele><time>2026-05-05T09:55:22Z</time></trkpt><trkpt lat="31.025475421825305" lon="-6.150894503200179"><ele>1790.0</ele><time>2026-05-05T09:55:23Z</time></trkpt><trkpt lat="31.02552562503458" lon="-6.150811609386296"><ele>1790.0</ele><time>2026-05-05T09:55:24Z</time></trkpt><trkpt lat="31.025570466296287" lon="-6.150721141614294"><ele>1790.0</ele><time>2026-05-05T09:55:25Z</time></trkpt><trkpt lat="31.025615185115335" lon="-6.15062602605994"><ele>1788.2</ele><time>2026-05-05T09:55:26Z</time></trkpt><trkpt lat="31.02566219857325" lon="-6.150530799111838"><ele>1786.4</ele><time>2026-05-05T09:55:27Z</time></trkpt><trkpt lat="31.02572275192722" lon="-6.150439563561277"><ele>1784.6</ele><time>2026-05-05T09:55:28Z</time></trkpt><trkpt lat="31.025792967360445" lon="-6.150359137707899"><ele>1782.8</ele><time>2026-05-05T09:55:29Z</time></trkpt><trkpt lat="31.0258682452301" lon="-6.150284411176185"><ele>1781.0</ele><time>2026-05-05T09:55:30Z</time></trkpt><trkpt lat="31.025936126119625" lon="-6.150197677759545"><ele>1781.0</ele><time>2026-05-05T09:55:31Z</time></trkpt><trkpt lat="31.0260004346269" lon="-6.150104696053254"><ele>1781.0</ele><time>2026-05-05T09:55:32Z</time></trkpt><trkpt lat="31.026068421152132" lon="-6.150008735872739"><ele>1781.0</ele><time>2026-05-05T09:55:33Z</time></trkpt><trkpt lat="31.026131192337363" lon="-6.149918636755763"><ele>1781.0</ele><time>2026-05-05T09:55:34Z</time></trkpt><trkpt lat="31.026187107330912" lon="-6.149831094298329"><ele>1781.0</ele><time>2026-05-05T09:55:35Z</time></trkpt><trkpt lat="31.026230720837166" lon="-6.1497462342847085"><ele>1780.9999999999998</ele><time>2026-05-05T09:55:36Z</time></trkpt><trkpt lat="31.02625935246665" lon="-6.14967055990641"><ele>1781.0</ele><time>2026-05-05T09:55:37Z</time></trkpt><trkpt lat="31.026275813455875" lon="-6.149592438745235"><ele>1781.0</ele><time>2026-05-05T09:55:38Z</time></trkpt><trkpt lat="31.02627769949508" lon="-6.149507334612839"><ele>1781.0</ele><time>2026-05-05T09:55:39Z</time></trkpt><trkpt lat="31.02627068827109" lon="-6.149409588401216"><ele>1780.9999999999998</ele><time>2026-05-05T09:55:40Z</time></trkpt><trkpt lat="31.026257393618494" lon="-6.149303533393937"><ele>1781.0</ele><time>2026-05-05T09:55:41Z</time></trkpt><trkpt lat="31.026241687816984" lon="-6.149203129193118"><ele>1780.9999999999998</ele><time>2026-05-05T09:55:42Z</time></trkpt><trkpt lat="31.026229974947853" lon="-6.149106422950083"><ele>1781.0</ele><time>2026-05-05T09:55:43Z</time></trkpt><trkpt lat="31.026214348401567" lon="-6.149004246992682"><ele>1781.0</ele><time>2026-05-05T09:55:44Z</time></trkpt><trkpt lat="31.026200330234694" lon="-6.14891046940849"><ele>1781.0</ele><time>2026-05-05T09:55:45Z</time></trkpt><trkpt lat="31.026186089747505" lon="-6.148811220997399"><ele>1780.9999999999998</ele><time>2026-05-05T09:55:46Z</time></trkpt><trkpt lat="31.0261810113215" lon="-6.148730352447857"><ele>1781.0</ele><time>2026-05-05T09:55:47Z</time></trkpt><trkpt lat="31.026182658854843" lon="-6.148626051936929"><ele>1779.75</ele><time>2026-05-05T09:55:49Z</time></trkpt><trkpt lat="31.026170546727794" lon="-6.148429540021364"><ele>1778.5</ele><time>2026-05-05T09:59:09Z</time></trkpt><trkpt lat="31.02614434814544" lon="-6.148326294236181"><ele>1777.25</ele><time>2026-05-05T09:59:10Z</time></trkpt><trkpt lat="31.026106372353375" lon="-6.148223172726582"><ele>1776.0</ele><time>2026-05-05T09:59:11Z</time></trkpt><trkpt lat="31.026061815694813" lon="-6.14812282787795"><ele>1775.3333333333333</ele><time>2026-05-05T09:59:12Z</time></trkpt><trkpt lat="31.02601508953862" lon="-6.148035736593899"><ele>1774.6666666666665</ele><time>2026-05-05T09:59:13Z</time></trkpt><trkpt lat="31.02596676236867" lon="-6.14795820745028"><ele>1774.0</ele><time>2026-05-05T09:59:14Z</time></trkpt><trkpt lat="31.025913911452474" lon="-6.147877755224457"><ele>1773.3333333333333</ele><time>2026-05-05T09:59:15Z</time></trkpt><trkpt lat="31.02586149881245" lon="-6.147798263960077"><ele>1772.6666666666665</ele><time>2026-05-05T09:59:16Z</time></trkpt><trkpt lat="31.025803581738085" lon="-6.147723307731776"><ele>1772.0</ele><time>2026-05-05T09:59:17Z</time></trkpt><trkpt lat="31.025759125940937" lon="-6.147652194603499"><ele>1773.142857142857</ele><time>2026-05-05T09:59:18Z</time></trkpt><trkpt lat="31.025729025355833" lon="-6.147571087702054"><ele>1774.2857142857142</ele><time>2026-05-05T09:59:19Z</time></trkpt><trkpt lat="31.02570469538653" lon="-6.147486265175846"><ele>1775.4285714285716</ele><time>2026-05-05T09:59:20Z</time></trkpt><trkpt lat="31.025683311845647" lon="-6.147399445947081"><ele>1776.5714285714284</ele><time>2026-05-05T09:59:21Z</time></trkpt><trkpt lat="31.025658891963488" lon="-6.147320304497772"><ele>1777.7142857142856</ele><time>2026-05-05T09:59:22Z</time></trkpt><trkpt lat="31.02563835033642" lon="-6.147236437152595"><ele>1778.857142857143</ele><time>2026-05-05T09:59:23Z</time></trkpt><trkpt lat="31.025631975084924" lon="-6.14715668286558"><ele>1780.0</ele><time>2026-05-05T09:59:24Z</time></trkpt><trkpt lat="31.025638858879507" lon="-6.147070022557335"><ele>1780.0</ele><time>2026-05-05T09:59:25Z</time></trkpt><trkpt lat="31.025663652359377" lon="-6.146991303082857"><ele>1780.0</ele><time>2026-05-05T09:59:26Z</time></trkpt><trkpt lat="31.02570256738943" lon="-6.146927470637553"><ele>1780.0</ele><time>2026-05-05T09:59:27Z</time></trkpt><trkpt lat="31.025747394441176" lon="-6.146865891146042"><ele>1780.0</ele><time>2026-05-05T09:59:28Z</time></trkpt><trkpt lat="31.02577219923236" lon="-6.146797094751941"><ele>1780.0</ele><time>2026-05-05T09:59:29Z</time></trkpt><trkpt lat="31.025781504797184" lon="-6.146720402341639"><ele>1780.0</ele><time>2026-05-05T09:59:30Z</time></trkpt><trkpt lat="31.025783970217866" lon="-6.146634727401312"><ele>1780.0</ele><time>2026-05-05T09:59:31Z</time></trkpt><trkpt lat="31.02579005964193" lon="-6.146546030405739"><ele>1780.857142857143</ele><time>2026-05-05T09:59:32Z</time></trkpt><trkpt lat="31.025813079346957" lon="-6.146456013631874"><ele>1781.7142857142856</ele><time>2026-05-05T09:59:33Z</time></trkpt><trkpt lat="31.025840972974976" lon="-6.146368608633387"><ele>1782.5714285714284</ele><time>2026-05-05T09:59:33.999Z</time></trkpt><trkpt lat="31.02586218999893" lon="-6.146284955739035"><ele>1783.4285714285716</ele><time>2026-05-05T09:59:34.999Z</time></trkpt><trkpt lat="31.025884581822712" lon="-6.146205285092131"><ele>1784.2857142857142</ele><time>2026-05-05T09:59:35.999Z</time></trkpt><trkpt lat="31.025906319730883" lon="-6.146123080764894"><ele>1785.142857142857</ele><time>2026-05-05T09:59:36.999Z</time></trkpt><trkpt lat="31.0259313528758" lon="-6.146048543814925"><ele>1786.0</ele><time>2026-05-05T09:59:37.999Z</time></trkpt><trkpt lat="31.02596683051943" lon="-6.145970703089035"><ele>1786.0</ele><time>2026-05-05T09:59:38.999Z</time></trkpt><trkpt lat="31.02599579379991" lon="-6.145893107082409"><ele>1786.0</ele><time>2026-05-05T09:59:39.999Z</time></trkpt><trkpt lat="31.02602121517307" lon="-6.145808399776898"><ele>1786.0</ele><time>2026-05-05T09:59:40.999Z</time></trkpt><trkpt lat="31.026049995461396" lon="-6.1457321983001405"><ele>1786.0</ele><time>2026-05-05T09:59:41.999Z</time></trkpt><trkpt lat="31.02607635790578" lon="-6.1456596488967365"><ele>1786.0</ele><time>2026-05-05T09:59:42.999Z</time></trkpt><trkpt lat="31.026104857793168" lon="-6.145579288705917"><ele>1786.0</ele><time>2026-05-05T09:59:43.999Z</time></trkpt><trkpt lat="31.026125976391015" lon="-6.14550416102435"><ele>1786.0</ele><time>2026-05-05T09:59:44.999Z</time></trkpt><trkpt lat="31.026148475033395" lon="-6.145432997933202"><ele>1787.4285714285716</ele><time>2026-05-05T09:59:45.999Z</time></trkpt><trkpt lat="31.026165561720415" lon="-6.1453497188136055"><ele>1788.857142857143</ele><time>2026-05-05T09:59:46.999Z</time></trkpt><trkpt lat="31.02618269024334" lon="-6.145270474756367"><ele>1790.2857142857142</ele><time>2026-05-05T09:59:47.999Z</time></trkpt><trkpt lat="31.026217147496908" lon="-6.145197736186947"><ele>1791.7142857142858</ele><time>2026-05-05T09:59:48.999Z</time></trkpt><trkpt lat="31.026252785071133" lon="-6.145120678732799"><ele>1793.1428571428569</ele><time>2026-05-05T09:59:49.999Z</time></trkpt><trkpt lat="31.026283543642315" lon="-6.145049027057737"><ele>1794.5714285714284</ele><time>2026-05-05T09:59:50.999Z</time></trkpt><trkpt lat="31.026317085422328" lon="-6.144977300473975"><ele>1796.0</ele><time>2026-05-05T09:59:51.999Z</time></trkpt><trkpt lat="31.026347874829973" lon="-6.144906686840407"><ele>1797.4999999999998</ele><time>2026-05-05T09:59:52.999Z</time></trkpt><trkpt lat="31.026360994103413" lon="-6.14481257637086"><ele>1799.0</ele><time>2026-05-05T09:59:54.999Z</time></trkpt><trkpt lat="31.026307963133533" lon="-6.144745990025099"><ele>1800.5</ele><time>2026-05-05T09:59:56.999Z</time></trkpt><trkpt lat="31.02619227887953" lon="-6.1447483914692596"><ele>1802.0</ele><time>2026-05-05T09:59:58.999Z</time></trkpt><trkpt lat="31.026115383539175" lon="-6.144763082818128"><ele>1803.4999999999998</ele><time>2026-05-05T09:59:59.999Z</time></trkpt><trkpt lat="31.026027324770485" lon="-6.1447728412229665"><ele>1805.0</ele><time>2026-05-05T10:00:00.999Z</time></trkpt><trkpt lat="31.025944194699445" lon="-6.144786939602211"><ele>1805.0</ele><time>2026-05-05T10:00:01.999Z</time></trkpt><trkpt lat="31.025881409821462" lon="-6.144804786664123"><ele>1805.0</ele><time>2026-05-05T10:00:02.999Z</time></trkpt><trkpt lat="31.025805961627444" lon="-6.1448961401236915"><ele>1805.0</ele><time>2026-05-05T10:00:04.999Z</time></trkpt><trkpt lat="31.02575889231368" lon="-6.1450223563064235"><ele>1805.0</ele><time>2026-05-05T10:00:06.999Z</time></trkpt><trkpt lat="31.025684851489853" lon="-6.145091600626529"><ele>1805.0</ele><time>2026-05-05T10:00:08.999Z</time></trkpt><trkpt lat="31.02559530861821" lon="-6.145077559656328"><ele>1804.2</ele><time>2026-05-05T10:00:10.999Z</time></trkpt><trkpt lat="31.025531058150094" lon="-6.144989807853799"><ele>1803.4</ele><time>2026-05-05T10:00:12.999Z</time></trkpt><trkpt lat="31.025478321886553" lon="-6.144855303757688"><ele>1802.6</ele><time>2026-05-05T10:00:14.999Z</time></trkpt><trkpt lat="31.025440797951312" lon="-6.14479098180725"><ele>1801.8</ele><time>2026-05-05T10:00:15.999Z</time></trkpt><trkpt lat="31.02538003410137" lon="-6.144664023711304"><ele>1801.0</ele><time>2026-05-05T10:00:18Z</time></trkpt><trkpt lat="31.02534439103452" lon="-6.144583369227599"><ele>1801.0000000000002</ele><time>2026-05-05T10:00:19Z</time></trkpt><trkpt lat="31.025318050690224" lon="-6.144489160089705"><ele>1801.0</ele><time>2026-05-05T10:00:20Z</time></trkpt><trkpt lat="31.02529974860322" lon="-6.1443923650206935"><ele>1801.0</ele><time>2026-05-05T10:00:21Z</time></trkpt><trkpt lat="31.02528661232911" lon="-6.144298588939705"><ele>1801.0</ele><time>2026-05-05T10:00:22Z</time></trkpt><trkpt lat="31.02527371663346" lon="-6.144197526679316"><ele>1801.0000000000002</ele><time>2026-05-05T10:00:23Z</time></trkpt><trkpt lat="31.025261984960725" lon="-6.144097687920152"><ele>1801.0</ele><time>2026-05-05T10:00:24Z</time></trkpt><trkpt lat="31.02525550942029" lon="-6.143997342203349"><ele>1801.1666666666667</ele><time>2026-05-05T10:00:25Z</time></trkpt><trkpt lat="31.025257839525768" lon="-6.143902309348513"><ele>1801.3333333333335</ele><time>2026-05-05T10:00:26Z</time></trkpt><trkpt lat="31.0252725528113" lon="-6.1438066783945375"><ele>1801.5</ele><time>2026-05-05T10:00:27Z</time></trkpt><trkpt lat="31.02529725577855" lon="-6.1437125238661565"><ele>1801.6666666666665</ele><time>2026-05-05T10:00:28Z</time></trkpt><trkpt lat="31.025315028617214" lon="-6.143613347426571"><ele>1801.8333333333333</ele><time>2026-05-05T10:00:29Z</time></trkpt><trkpt lat="31.025323340103622" lon="-6.143520062740826"><ele>1802.0</ele><time>2026-05-05T10:00:30Z</time></trkpt><trkpt lat="31.02531550142028" lon="-6.143437845783167"><ele>1801.9999999999998</ele><time>2026-05-05T10:00:31Z</time></trkpt><trkpt lat="31.02528222430367" lon="-6.143363077243119"><ele>1802.0</ele><time>2026-05-05T10:00:32Z</time></trkpt><trkpt lat="31.025240292997555" lon="-6.143288191972397"><ele>1802.0</ele><time>2026-05-05T10:00:33Z</time></trkpt><trkpt lat="31.025201923422383" lon="-6.143214057408133"><ele>1802.0</ele><time>2026-05-05T10:00:34Z</time></trkpt><trkpt lat="31.025178235230257" lon="-6.1431201407271265"><ele>1801.9999999999998</ele><time>2026-05-05T10:00:35Z</time></trkpt><trkpt lat="31.02516475822551" lon="-6.143019854168157"><ele>1802.0</ele><time>2026-05-05T10:00:36Z</time></trkpt><trkpt lat="31.025147851088583" lon="-6.14291613893385"><ele>1802.6</ele><time>2026-05-05T10:00:37Z</time></trkpt><trkpt lat="31.025127806886694" lon="-6.14281544879795"><ele>1803.1999999999998</ele><time>2026-05-05T10:00:38Z</time></trkpt><trkpt lat="31.025112217495998" lon="-6.142712517352873"><ele>1803.8</ele><time>2026-05-05T10:00:39Z</time></trkpt><trkpt lat="31.025101858928235" lon="-6.142603341114467"><ele>1804.4</ele><time>2026-05-05T10:00:40Z</time></trkpt><trkpt lat="31.025095602190675" lon="-6.142492161350473"><ele>1805.0</ele><time>2026-05-05T10:00:41Z</time></trkpt><trkpt lat="31.02508807233699" lon="-6.1423850332542775"><ele>1806.6666666666665</ele><time>2026-05-05T10:00:42Z</time></trkpt><trkpt lat="31.025083597251214" lon="-6.14228878052838"><ele>1808.3333333333333</ele><time>2026-05-05T10:00:43Z</time></trkpt><trkpt lat="31.025070952174207" lon="-6.142192670640064"><ele>1810.0</ele><time>2026-05-05T10:00:44Z</time></trkpt><trkpt lat="31.025044899176393" lon="-6.142100942192163"><ele>1811.6666666666665</ele><time>2026-05-05T10:00:45Z</time></trkpt><trkpt lat="31.02501483553587" lon="-6.142007241702383"><ele>1813.3333333333333</ele><time>2026-05-05T10:00:46Z</time></trkpt><trkpt lat="31.024987188105175" lon="-6.141913133208554"><ele>1815.0</ele><time>2026-05-05T10:00:47Z</time></trkpt><trkpt lat="31.024963553123442" lon="-6.141816518946023"><ele>1815.6666666666667</ele><time>2026-05-05T10:00:48Z</time></trkpt><trkpt lat="31.02493521336138" lon="-6.141721620808378"><ele>1816.3333333333335</ele><time>2026-05-05T10:00:49Z</time></trkpt><trkpt lat="31.0249049320681" lon="-6.141628422731078"><ele>1817.0</ele><time>2026-05-05T10:00:50Z</time></trkpt><trkpt lat="31.02488383909534" lon="-6.141534024359707"><ele>1817.6666666666667</ele><time>2026-05-05T10:00:51Z</time></trkpt><trkpt lat="31.02486264460304" lon="-6.141438712528341"><ele>1818.3333333333335</ele><time>2026-05-05T10:00:52Z</time></trkpt><trkpt lat="31.0248372966143" lon="-6.141354251543215"><ele>1819.0</ele><time>2026-05-05T10:00:53Z</time></trkpt><trkpt lat="31.024808161539756" lon="-6.14127367985577"><ele>1819.3333333333335</ele><time>2026-05-05T10:00:54Z</time></trkpt><trkpt lat="31.024786322968247" lon="-6.141195551344509"><ele>1819.6666666666667</ele><time>2026-05-05T10:00:55Z</time></trkpt><trkpt lat="31.02477726210777" lon="-6.141105182876353"><ele>1820.0</ele><time>2026-05-05T10:00:56Z</time></trkpt><trkpt lat="31.024779411713276" lon="-6.141016744294605"><ele>1820.3333333333335</ele><time>2026-05-05T10:00:57Z</time></trkpt><trkpt lat="31.024796165147844" lon="-6.140934578598185"><ele>1820.6666666666667</ele><time>2026-05-05T10:00:58Z</time></trkpt><trkpt lat="31.02487987324898" lon="-6.140809656722193"><ele>1821.0</ele><time>2026-05-05T10:01:00Z</time></trkpt><trkpt lat="31.02493981068239" lon="-6.140755073456883"><ele>1821.8333333333333</ele><time>2026-05-05T10:01:01Z</time></trkpt><trkpt lat="31.02499805399177" lon="-6.140692657152271"><ele>1822.6666666666665</ele><time>2026-05-05T10:01:02Z</time></trkpt><trkpt lat="31.025039542438748" lon="-6.1406282026872905"><ele>1823.5</ele><time>2026-05-05T10:01:03Z</time></trkpt><trkpt lat="31.02508027396833" lon="-6.14056635936002"><ele>1824.3333333333333</ele><time>2026-05-05T10:01:04Z</time></trkpt><trkpt lat="31.0251669192023" lon="-6.1404767867548316"><ele>1825.1666666666665</ele><time>2026-05-05T10:01:06Z</time></trkpt><trkpt lat="31.02519030299142" lon="-6.1403553113495"><ele>1826.0</ele><time>2026-05-05T10:01:08Z</time></trkpt><trkpt lat="31.025178236606145" lon="-6.140275527581589"><ele>1825.9999999999998</ele><time>2026-05-05T10:01:09Z</time></trkpt><trkpt lat="31.025156681708925" lon="-6.140192905027122"><ele>1826.0</ele><time>2026-05-05T10:01:10Z</time></trkpt><trkpt lat="31.02512171813674" lon="-6.140115241981127"><ele>1826.0</ele><time>2026-05-05T10:01:11Z</time></trkpt><trkpt lat="31.025077364070533" lon="-6.14004978172224"><ele>1826.0</ele><time>2026-05-05T10:01:12Z</time></trkpt><trkpt lat="31.025041117685035" lon="-6.139984320603896"><ele>1825.9999999999998</ele><time>2026-05-05T10:01:13Z</time></trkpt><trkpt lat="31.025020966417152" lon="-6.139913629011785"><ele>1826.0</ele><time>2026-05-05T10:01:14Z</time></trkpt><trkpt lat="31.025018099083965" lon="-6.139796335567181"><ele>1826.0</ele><time>2026-05-05T10:01:16Z</time></trkpt><trkpt lat="31.025010548147588" lon="-6.139663103462988"><ele>1826.0</ele><time>2026-05-05T10:01:18Z</time></trkpt><trkpt lat="31.02502196642095" lon="-6.1395108086160235"><ele>1826.0</ele><time>2026-05-05T10:01:20Z</time></trkpt><trkpt lat="31.025067358902024" lon="-6.13937188173827"><ele>1826.0</ele><time>2026-05-05T10:01:22Z</time></trkpt><trkpt lat="31.025097792333117" lon="-6.139292451659446"><ele>1826.0</ele><time>2026-05-05T10:01:23Z</time></trkpt><trkpt lat="31.025136268934787" lon="-6.139214200540426"><ele>1826.0</ele><time>2026-05-05T10:01:24Z</time></trkpt><trkpt lat="31.025163841571054" lon="-6.139135309294382"><ele>1826.0</ele><time>2026-05-05T10:01:25Z</time></trkpt><trkpt lat="31.02520706198876" lon="-6.138976091630034"><ele>1826.0</ele><time>2026-05-05T10:01:27Z</time></trkpt><trkpt lat="31.025232576306056" lon="-6.138894822608675"><ele>1826.0</ele><time>2026-05-05T10:01:28Z</time></trkpt><trkpt lat="31.02527381838748" lon="-6.138809546792859"><ele>1826.0</ele><time>2026-05-05T10:01:29Z</time></trkpt><trkpt lat="31.025310106666684" lon="-6.138721619554776"><ele>1826.1428571428569</ele><time>2026-05-05T10:01:30Z</time></trkpt><trkpt lat="31.025338456013916" lon="-6.138640060746984"><ele>1826.2857142857142</ele><time>2026-05-05T10:01:31Z</time></trkpt><trkpt lat="31.025354792421183" lon="-6.138557839914076"><ele>1826.4285714285713</ele><time>2026-05-05T10:01:32Z</time></trkpt><trkpt lat="31.025365988788373" lon="-6.138460774142499"><ele>1826.5714285714284</ele><time>2026-05-05T10:01:33Z</time></trkpt><trkpt lat="31.025374506536213" lon="-6.138378458285976"><ele>1826.7142857142858</ele><time>2026-05-05T10:01:34Z</time></trkpt><trkpt lat="31.02538395411488" lon="-6.1382882481109915"><ele>1826.857142857143</ele><time>2026-05-05T10:01:35Z</time></trkpt><trkpt lat="31.025387237483322" lon="-6.138208015944442"><ele>1827.0</ele><time>2026-05-05T10:01:36Z</time></trkpt><trkpt lat="31.025380786152063" lon="-6.138131904388193"><ele>1828.5</ele><time>2026-05-05T10:01:37Z</time></trkpt><trkpt lat="31.02533950487717" lon="-6.1379857005624805"><ele>1830.0</ele><time>2026-05-05T10:01:39Z</time></trkpt><trkpt lat="31.025281625964524" lon="-6.137922482291395"><ele>1831.5</ele><time>2026-05-05T10:01:40Z</time></trkpt><trkpt lat="31.02521072768028" lon="-6.137881377211446"><ele>1833.0</ele><time>2026-05-05T10:01:41Z</time></trkpt><trkpt lat="31.025144400631607" lon="-6.137842121899167"><ele>1834.5</ele><time>2026-05-05T10:01:42Z</time></trkpt><trkpt lat="31.025081463796333" lon="-6.137779755286303"><ele>1836.0</ele><time>2026-05-05T10:01:43Z</time></trkpt><trkpt lat="31.025023017478027" lon="-6.1377065199600835"><ele>1837.1666666666667</ele><time>2026-05-05T10:01:44Z</time></trkpt><trkpt lat="31.024964426994863" lon="-6.137635612383436"><ele>1838.3333333333335</ele><time>2026-05-05T10:01:45Z</time></trkpt><trkpt lat="31.024905879909756" lon="-6.137568098218646"><ele>1839.5</ele><time>2026-05-05T10:01:46Z</time></trkpt><trkpt lat="31.02485515866754" lon="-6.137497092343971"><ele>1840.6666666666667</ele><time>2026-05-05T10:01:47Z</time></trkpt><trkpt lat="31.024818274936507" lon="-6.137419202955256"><ele>1841.8333333333335</ele><time>2026-05-05T10:01:48Z</time></trkpt><trkpt lat="31.024795582487123" lon="-6.1373391420167955"><ele>1843.0</ele><time>2026-05-05T10:01:49Z</time></trkpt><trkpt lat="31.024759669168674" lon="-6.137202482503412"><ele>1843.0</ele><time>2026-05-05T10:01:51Z</time></trkpt><trkpt lat="31.024731760763174" lon="-6.137126272822538"><ele>1843.0</ele><time>2026-05-05T10:01:52Z</time></trkpt><trkpt lat="31.02470004457916" lon="-6.137035917946078"><ele>1843.0</ele><time>2026-05-05T10:01:53Z</time></trkpt><trkpt lat="31.024689508305134" lon="-6.136948489956444"><ele>1843.0</ele><time>2026-05-05T10:01:54Z</time></trkpt><trkpt lat="31.02468471854664" lon="-6.1368610087159245"><ele>1843.0</ele><time>2026-05-05T10:01:55Z</time></trkpt><trkpt lat="31.024681533289616" lon="-6.136780921232964"><ele>1843.0</ele><time>2026-05-05T10:01:56Z</time></trkpt><trkpt lat="31.024673643298517" lon="-6.136706405788785"><ele>1843.0</ele><time>2026-05-05T10:01:56.999Z</time></trkpt><trkpt lat="31.02464663414528" lon="-6.136630909370542"><ele>1843.4</ele><time>2026-05-05T10:01:57.999Z</time></trkpt><trkpt lat="31.02461111595841" lon="-6.136552822820525"><ele>1843.8000000000002</ele><time>2026-05-05T10:01:58.999Z</time></trkpt><trkpt lat="31.024571117299125" lon="-6.136482863839442"><ele>1844.2</ele><time>2026-05-05T10:01:59.999Z</time></trkpt><trkpt lat="31.024490286163324" lon="-6.136371909006003"><ele>1844.6</ele><time>2026-05-05T10:02:01.999Z</time></trkpt><trkpt lat="31.02444500033697" lon="-6.136269816746657"><ele>1845.0</ele><time>2026-05-05T10:02:03.999Z</time></trkpt><trkpt lat="31.02449812617844" lon="-6.13615435845477"><ele>1845.0</ele><time>2026-05-05T10:02:05.999Z</time></trkpt><trkpt lat="31.024556517803695" lon="-6.136108406959389"><ele>1845.0</ele><time>2026-05-05T10:02:06.999Z</time></trkpt><trkpt lat="31.024618483439642" lon="-6.136055171527639"><ele>1845.0</ele><time>2026-05-05T10:02:07.999Z</time></trkpt><trkpt lat="31.024677272360407" lon="-6.135952610857048"><ele>1845.0</ele><time>2026-05-05T10:02:09.999Z</time></trkpt><trkpt lat="31.024639797998482" lon="-6.135841384459615"><ele>1845.0</ele><time>2026-05-05T10:02:11.999Z</time></trkpt><trkpt lat="31.02451499927664" lon="-6.135765210646178"><ele>1845.0</ele><time>2026-05-05T10:02:13.999Z</time></trkpt><trkpt lat="31.02443800202281" lon="-6.1357285811029305"><ele>1845.0</ele><time>2026-05-05T10:02:14.999Z</time></trkpt><trkpt lat="31.024363573839018" lon="-6.135699679361859"><ele>1845.0</ele><time>2026-05-05T10:02:15.999Z</time></trkpt><trkpt lat="31.024287032793158" lon="-6.135674391206755"><ele>1845.0</ele><time>2026-05-05T10:02:16.999Z</time></trkpt><trkpt lat="31.02421980889198" lon="-6.135646245654585"><ele>1845.0</ele><time>2026-05-05T10:02:17.999Z</time></trkpt><trkpt lat="31.02413897323517" lon="-6.135619379379936"><ele>1845.0</ele><time>2026-05-05T10:02:18.999Z</time></trkpt><trkpt lat="31.024061294727137" lon="-6.135589577119177"><ele>1847.4285714285713</ele><time>2026-05-05T10:02:19.999Z</time></trkpt><trkpt lat="31.023988641017052" lon="-6.135557411841659"><ele>1849.8571428571427</ele><time>2026-05-05T10:02:20.999Z</time></trkpt><trkpt lat="31.023914717179526" lon="-6.135524422624894"><ele>1852.2857142857142</ele><time>2026-05-05T10:02:21.999Z</time></trkpt><trkpt lat="31.02384549278058" lon="-6.135486991797659"><ele>1854.7142857142858</ele><time>2026-05-05T10:02:23Z</time></trkpt><trkpt lat="31.023777911981153" lon="-6.135445619988924"><ele>1857.142857142857</ele><time>2026-05-05T10:02:24Z</time></trkpt><trkpt lat="31.023717092214287" lon="-6.1354182814840765"><ele>1859.5714285714284</ele><time>2026-05-05T10:02:25Z</time></trkpt><trkpt lat="31.02364981488698" lon="-6.135402863185633"><ele>1862.0</ele><time>2026-05-05T10:02:26Z</time></trkpt><trkpt lat="31.023586878878767" lon="-6.135397725742039"><ele>1861.9999999999998</ele><time>2026-05-05T10:02:27Z</time></trkpt><trkpt lat="31.023511833062244" lon="-6.135387826168737"><ele>1862.0</ele><time>2026-05-05T10:02:28Z</time></trkpt><trkpt lat="31.02343094259272" lon="-6.135375909807116"><ele>1862.0</ele><time>2026-05-05T10:02:29Z</time></trkpt><trkpt lat="31.02335391487577" lon="-6.1353631702157125"><ele>1862.0</ele><time>2026-05-05T10:02:30Z</time></trkpt><trkpt lat="31.02327552229783" lon="-6.135359584599289"><ele>1861.9999999999998</ele><time>2026-05-05T10:02:31Z</time></trkpt><trkpt lat="31.02319627868759" lon="-6.135356981240088"><ele>1862.0</ele><time>2026-05-05T10:02:32Z</time></trkpt><trkpt lat="31.023120312973813" lon="-6.135346446507454"><ele>1862.3333333333333</ele><time>2026-05-05T10:02:33Z</time></trkpt><trkpt lat="31.023049917435248" lon="-6.135324786087978"><ele>1862.6666666666665</ele><time>2026-05-05T10:02:34Z</time></trkpt><trkpt lat="31.022983183556704" lon="-6.135285306903103"><ele>1863.0</ele><time>2026-05-05T10:02:35Z</time></trkpt><trkpt lat="31.02290207309508" lon="-6.135243094724272"><ele>1863.3333333333335</ele><time>2026-05-05T10:02:36Z</time></trkpt><trkpt lat="31.022819630145406" lon="-6.135212596496676"><ele>1863.6666666666667</ele><time>2026-05-05T10:02:37Z</time></trkpt><trkpt lat="31.02274381375644" lon="-6.13518972197205"><ele>1864.0</ele><time>2026-05-05T10:02:38Z</time></trkpt><trkpt lat="31.022674509556943" lon="-6.135152652302104"><ele>1864.0000000000002</ele><time>2026-05-05T10:02:39Z</time></trkpt><trkpt lat="31.022607006940003" lon="-6.135102309290526"><ele>1864.0</ele><time>2026-05-05T10:02:40Z</time></trkpt><trkpt lat="31.0225365563607" lon="-6.135046584997228"><ele>1864.0</ele><time>2026-05-05T10:02:41Z</time></trkpt><trkpt lat="31.022473029176556" lon="-6.134985161618223"><ele>1864.0</ele><time>2026-05-05T10:02:42Z</time></trkpt><trkpt lat="31.022420724592575" lon="-6.134914746492026"><ele>1864.0000000000002</ele><time>2026-05-05T10:02:43Z</time></trkpt><trkpt lat="31.022367896936572" lon="-6.134851468948613"><ele>1864.0</ele><time>2026-05-05T10:02:44Z</time></trkpt><trkpt lat="31.022306947896208" lon="-6.1348033086995315"><ele>1860.4</ele><time>2026-05-05T10:02:45Z</time></trkpt><trkpt lat="31.022246029644283" lon="-6.134760212481295"><ele>1856.8000000000002</ele><time>2026-05-05T10:02:46Z</time></trkpt><trkpt lat="31.02218856074479" lon="-6.1347282836864"><ele>1853.1999999999998</ele><time>2026-05-05T10:02:47Z</time></trkpt><trkpt lat="31.02208225201541" lon="-6.134714441158571"><ele>1849.6</ele><time>2026-05-05T10:02:49Z</time></trkpt><trkpt lat="31.02196526119815" lon="-6.134736964115216"><ele>1846.0</ele><time>2026-05-05T10:02:51Z</time></trkpt><trkpt lat="31.021868629081055" lon="-6.134797222817716"><ele>1846.0000000000002</ele><time>2026-05-05T10:02:53Z</time></trkpt><trkpt lat="31.021782178643186" lon="-6.134793058632225"><ele>1846.0</ele><time>2026-05-05T10:02:55Z</time></trkpt><trkpt lat="31.02174577257036" lon="-6.134698196890116"><ele>1846.0</ele><time>2026-05-05T10:02:57Z</time></trkpt><trkpt lat="31.021789960796703" lon="-6.134574503768656"><ele>1846.0</ele><time>2026-05-05T10:02:59Z</time></trkpt><trkpt lat="31.021826053060835" lon="-6.1345062860403505"><ele>1846.0000000000002</ele><time>2026-05-05T10:03:00Z</time></trkpt><trkpt lat="31.021868296411053" lon="-6.1344369035289175"><ele>1846.0</ele><time>2026-05-05T10:03:01Z</time></trkpt><trkpt lat="31.021908536327963" lon="-6.134375648973127"><ele>1846.0</ele><time>2026-05-05T10:03:02Z</time></trkpt><trkpt lat="31.02195525949973" lon="-6.13430539063215"><ele>1846.0</ele><time>2026-05-05T10:03:03Z</time></trkpt><trkpt lat="31.021991772641254" lon="-6.134238320581982"><ele>1846.0</ele><time>2026-05-05T10:03:04Z</time></trkpt><trkpt lat="31.022019307119624" lon="-6.134132211670545"><ele>1846.0</ele><time>2026-05-05T10:03:06Z</time></trkpt><trkpt lat="31.02202976500871" lon="-6.134059243068476"><ele>1846.0</ele><time>2026-05-05T10:03:15Z</time></trkpt><trkpt lat="31.022049370572546" lon="-6.133973106116138"><ele>1846.0</ele><time>2026-05-05T10:03:17Z</time></trkpt><trkpt lat="31.022071557509157" lon="-6.133898329076109"><ele>1846.0</ele><time>2026-05-05T10:03:18Z</time></trkpt><trkpt lat="31.02208720191729" lon="-6.133805800623593"><ele>1843.8333333333335</ele><time>2026-05-05T10:03:19Z</time></trkpt><trkpt lat="31.022098871899402" lon="-6.133716795303523"><ele>1841.6666666666667</ele><time>2026-05-05T10:03:20Z</time></trkpt><trkpt lat="31.022100484792702" lon="-6.133630412531109"><ele>1839.5</ele><time>2026-05-05T10:03:21Z</time></trkpt><trkpt lat="31.02210618168912" lon="-6.133554238221401"><ele>1837.3333333333335</ele><time>2026-05-05T10:03:22Z</time></trkpt><trkpt lat="31.02211404614557" lon="-6.133476142572635"><ele>1835.1666666666667</ele><time>2026-05-05T10:03:23Z</time></trkpt><trkpt lat="31.022151231867408" lon="-6.133354842606274"><ele>1833.0</ele><time>2026-05-05T10:03:25Z</time></trkpt><trkpt lat="31.022192433600154" lon="-6.133299055247856"><ele>1833.0</ele><time>2026-05-05T10:03:26Z</time></trkpt><trkpt lat="31.022238741419827" lon="-6.133234114486723"><ele>1833.0</ele><time>2026-05-05T10:03:27Z</time></trkpt><trkpt lat="31.022293416715613" lon="-6.133172880709577"><ele>1833.0</ele><time>2026-05-05T10:03:28Z</time></trkpt><trkpt lat="31.022354206482106" lon="-6.133113130681534"><ele>1833.0</ele><time>2026-05-05T10:03:29Z</time></trkpt><trkpt lat="31.022413032758553" lon="-6.133055940362818"><ele>1833.0</ele><time>2026-05-05T10:03:30Z</time></trkpt><trkpt lat="31.02247204889561" lon="-6.132993594452201"><ele>1833.0</ele><time>2026-05-05T10:03:31Z</time></trkpt><trkpt lat="31.02252937859538" lon="-6.13293203387965"><ele>1833.6666666666667</ele><time>2026-05-05T10:03:32Z</time></trkpt><trkpt lat="31.022584665309967" lon="-6.132869014266142"><ele>1834.3333333333335</ele><time>2026-05-05T10:03:33Z</time></trkpt><trkpt lat="31.02263848875002" lon="-6.13280502926465"><ele>1835.0</ele><time>2026-05-05T10:03:34Z</time></trkpt><trkpt lat="31.022693157208767" lon="-6.132738433151413"><ele>1835.6666666666667</ele><time>2026-05-05T10:03:35Z</time></trkpt><trkpt lat="31.022753658473402" lon="-6.132663956287033"><ele>1836.3333333333335</ele><time>2026-05-05T10:03:36Z</time></trkpt><trkpt lat="31.022806573631833" lon="-6.132595782558061"><ele>1837.0</ele><time>2026-05-05T10:03:37Z</time></trkpt><trkpt lat="31.022856186989127" lon="-6.132532398103283"><ele>1837.0000000000002</ele><time>2026-05-05T10:03:38Z</time></trkpt><trkpt lat="31.02290907690513" lon="-6.132469708783014"><ele>1837.0</ele><time>2026-05-05T10:03:39Z</time></trkpt><trkpt lat="31.02296619258793" lon="-6.132403218669039"><ele>1837.0</ele><time>2026-05-05T10:03:40Z</time></trkpt><trkpt lat="31.023023347020345" lon="-6.132330640646317"><ele>1837.0</ele><time>2026-05-05T10:03:41Z</time></trkpt><trkpt lat="31.023075527420087" lon="-6.1322624977352955"><ele>1837.0000000000002</ele><time>2026-05-05T10:03:42Z</time></trkpt><trkpt lat="31.02312631654906" lon="-6.132200011107356"><ele>1837.0</ele><time>2026-05-05T10:03:43Z</time></trkpt><trkpt lat="31.02316898603643" lon="-6.132134329200236"><ele>1836.5000000000002</ele><time>2026-05-05T10:03:44Z</time></trkpt><trkpt lat="31.02320998994143" lon="-6.132059578913473"><ele>1836.0</ele><time>2026-05-05T10:03:45Z</time></trkpt><trkpt lat="31.02325637701546" lon="-6.131974901298101"><ele>1835.5</ele><time>2026-05-05T10:03:46Z</time></trkpt><trkpt lat="31.0233046961531" lon="-6.131887229090446"><ele>1835.0</ele><time>2026-05-05T10:03:47Z</time></trkpt><trkpt lat="31.023349370366017" lon="-6.131791121967508"><ele>1834.5000000000002</ele><time>2026-05-05T10:03:48Z</time></trkpt><trkpt lat="31.02338087316267" lon="-6.131697822253176"><ele>1834.0</ele><time>2026-05-05T10:03:49Z</time></trkpt><trkpt lat="31.023409495394073" lon="-6.131606788785918"><ele>1831.5000000000002</ele><time>2026-05-05T10:03:50Z</time></trkpt><trkpt lat="31.023439549642443" lon="-6.131520166758444"><ele>1829.0</ele><time>2026-05-05T10:03:51Z</time></trkpt><trkpt lat="31.023475400004774" lon="-6.131438454183646"><ele>1826.5</ele><time>2026-05-05T10:03:52Z</time></trkpt><trkpt lat="31.02351360566506" lon="-6.131357968230142"><ele>1824.0</ele><time>2026-05-05T10:03:53Z</time></trkpt><trkpt lat="31.02354822493372" lon="-6.131273383678019"><ele>1821.5000000000002</ele><time>2026-05-05T10:03:54Z</time></trkpt><trkpt lat="31.023580807618398" lon="-6.1311801473071"><ele>1819.0</ele><time>2026-05-05T10:03:55Z</time></trkpt><trkpt lat="31.023621985015026" lon="-6.131089669177288"><ele>1819.0000000000002</ele><time>2026-05-05T10:03:56Z</time></trkpt><trkpt lat="31.023665181028935" lon="-6.130999187131881"><ele>1819.0</ele><time>2026-05-05T10:03:57Z</time></trkpt><trkpt lat="31.023708440717467" lon="-6.130912044407395"><ele>1819.0</ele><time>2026-05-05T10:03:58Z</time></trkpt><trkpt lat="31.023740287390638" lon="-6.130821360337201"><ele>1819.0</ele><time>2026-05-05T10:03:59Z</time></trkpt><trkpt lat="31.023751608290905" lon="-6.130739918062268"><ele>1819.0000000000002</ele><time>2026-05-05T10:04:00Z</time></trkpt><trkpt lat="31.023758459200575" lon="-6.130661427900689"><ele>1819.0</ele><time>2026-05-05T10:04:01Z</time></trkpt><trkpt lat="31.02377233951298" lon="-6.130584084998335"><ele>1817.428571428571</ele><time>2026-05-05T10:04:02Z</time></trkpt><trkpt lat="31.023796577742168" lon="-6.130507064371008"><ele>1815.8571428571427</ele><time>2026-05-05T10:04:03Z</time></trkpt><trkpt lat="31.023821367804235" lon="-6.130435096128904"><ele>1814.2857142857142</ele><time>2026-05-05T10:04:04Z</time></trkpt><trkpt lat="31.023830727991903" lon="-6.1303540499206575"><ele>1812.7142857142856</ele><time>2026-05-05T10:04:05Z</time></trkpt><trkpt lat="31.02383353007849" lon="-6.130260947267634"><ele>1811.1428571428569</ele><time>2026-05-05T10:04:06Z</time></trkpt><trkpt lat="31.023852281000067" lon="-6.130181574240892"><ele>1809.5714285714287</ele><time>2026-05-05T10:04:07Z</time></trkpt><trkpt lat="31.023872942558267" lon="-6.130105301347349"><ele>1808.0</ele><time>2026-05-05T10:04:08Z</time></trkpt><trkpt lat="31.02387515349277" lon="-6.130028406856141"><ele>1808.0</ele><time>2026-05-05T10:04:09Z</time></trkpt><trkpt lat="31.023873893379967" lon="-6.129953654238922"><ele>1808.0000000000002</ele><time>2026-05-05T10:04:10Z</time></trkpt><trkpt lat="31.023873203312526" lon="-6.129812518533651"><ele>1808.0000000000002</ele><time>2026-05-05T10:04:12Z</time></trkpt><trkpt lat="31.02382177039259" lon="-6.129715474548108"><ele>1808.0</ele><time>2026-05-05T10:04:14Z</time></trkpt><trkpt lat="31.023715685772032" lon="-6.12972849186119"><ele>1808.0</ele><time>2026-05-05T10:04:16Z</time></trkpt><trkpt lat="31.023592155787316" lon="-6.129748095914086"><ele>1807.5</ele><time>2026-05-05T10:04:18Z</time></trkpt><trkpt lat="31.0234673511529" lon="-6.129716329869434"><ele>1807.0</ele><time>2026-05-05T10:04:20Z</time></trkpt><trkpt lat="31.023374367410547" lon="-6.129625028203457"><ele>1806.5</ele><time>2026-05-05T10:04:22Z</time></trkpt><trkpt lat="31.023355840991684" lon="-6.129479278839092"><ele>1806.0</ele><time>2026-05-05T10:04:23.999Z</time></trkpt><trkpt lat="31.02335952028235" lon="-6.129384854595274"><ele>1806.0</ele><time>2026-05-05T10:04:24.999Z</time></trkpt><trkpt lat="31.023362796414567" lon="-6.1292832916322695"><ele>1806.0</ele><time>2026-05-05T10:04:25.999Z</time></trkpt><trkpt lat="31.02335919168131" lon="-6.129183994516536"><ele>1806.0</ele><time>2026-05-05T10:04:26.999Z</time></trkpt><trkpt lat="31.0233608098952" lon="-6.129091378893968"><ele>1806.0</ele><time>2026-05-05T10:04:27.999Z</time></trkpt><trkpt lat="31.02336754167559" lon="-6.12899243112499"><ele>1806.0</ele><time>2026-05-05T10:04:29Z</time></trkpt><trkpt lat="31.023372030126477" lon="-6.12889718123669"><ele>1806.0</ele><time>2026-05-05T10:04:30Z</time></trkpt><trkpt lat="31.023377829724566" lon="-6.12879883444794"><ele>1803.8333333333333</ele><time>2026-05-05T10:04:31Z</time></trkpt><trkpt lat="31.023386374743147" lon="-6.128712216058903"><ele>1801.6666666666665</ele><time>2026-05-05T10:04:32Z</time></trkpt><trkpt lat="31.023402132917155" lon="-6.128623029066493"><ele>1799.5</ele><time>2026-05-05T10:04:33Z</time></trkpt><trkpt lat="31.023428905490015" lon="-6.128530940484033"><ele>1797.3333333333333</ele><time>2026-05-05T10:04:34Z</time></trkpt><trkpt lat="31.02346501069082" lon="-6.128443471795894"><ele>1795.1666666666665</ele><time>2026-05-05T10:04:35Z</time></trkpt><trkpt lat="31.023501981738466" lon="-6.128350266021124"><ele>1793.0</ele><time>2026-05-05T10:04:36Z</time></trkpt><trkpt lat="31.02353105711281" lon="-6.128264603727065"><ele>1792.0000000000002</ele><time>2026-05-05T10:04:37Z</time></trkpt><trkpt lat="31.02355445454343" lon="-6.128184165421044"><ele>1791.0</ele><time>2026-05-05T10:04:38Z</time></trkpt><trkpt lat="31.02357196058163" lon="-6.128105821567088"><ele>1790.0</ele><time>2026-05-05T10:04:39Z</time></trkpt><trkpt lat="31.023587189452268" lon="-6.128029744916031"><ele>1789.0</ele><time>2026-05-05T10:04:40Z</time></trkpt><trkpt lat="31.023587099318956" lon="-6.127952656447819"><ele>1788.0</ele><time>2026-05-05T10:04:41Z</time></trkpt><trkpt lat="31.02356185888334" lon="-6.127875155526131"><ele>1787.0</ele><time>2026-05-05T10:04:42Z</time></trkpt><trkpt lat="31.02352322229675" lon="-6.12779923227888"><ele>1786.0</ele><time>2026-05-05T10:04:43Z</time></trkpt><trkpt lat="31.02347898200065" lon="-6.1277245212556"><ele>1786.0000000000002</ele><time>2026-05-05T10:04:44Z</time></trkpt><trkpt lat="31.023422509149565" lon="-6.1276497491244415"><ele>1786.0</ele><time>2026-05-05T10:04:45Z</time></trkpt><trkpt lat="31.023358705457397" lon="-6.127576924913403"><ele>1786.0</ele><time>2026-05-05T10:04:46Z</time></trkpt><trkpt lat="31.023287677466964" lon="-6.12751646069464"><ele>1786.0</ele><time>2026-05-05T10:04:47Z</time></trkpt><trkpt lat="31.02321207453431" lon="-6.127462127650304"><ele>1786.0000000000002</ele><time>2026-05-05T10:04:48Z</time></trkpt><trkpt lat="31.023132734152906" lon="-6.127419659136852"><ele>1786.0</ele><time>2026-05-05T10:04:49Z</time></trkpt><trkpt lat="31.023049482513905" lon="-6.12738127217082"><ele>1784.8333333333335</ele><time>2026-05-05T10:04:50Z</time></trkpt><trkpt lat="31.022966954515905" lon="-6.127348484655989"><ele>1783.6666666666667</ele><time>2026-05-05T10:04:51Z</time></trkpt><trkpt lat="31.022883647308547" lon="-6.1273161739057675"><ele>1782.5</ele><time>2026-05-05T10:04:52Z</time></trkpt><trkpt lat="31.022801170518033" lon="-6.127292101504821"><ele>1781.3333333333335</ele><time>2026-05-05T10:04:53Z</time></trkpt><trkpt lat="31.022715275467615" lon="-6.127277626989225"><ele>1780.1666666666667</ele><time>2026-05-05T10:04:54Z</time></trkpt><trkpt lat="31.022634494375094" lon="-6.127265469442049"><ele>1779.0</ele><time>2026-05-05T10:04:55Z</time></trkpt><trkpt lat="31.02255225452828" lon="-6.127257847188911"><ele>1778.5</ele><time>2026-05-05T10:04:56Z</time></trkpt><trkpt lat="31.022468428294136" lon="-6.127253195162843"><ele>1778.0</ele><time>2026-05-05T10:04:57Z</time></trkpt><trkpt lat="31.02238392656636" lon="-6.127249998179863"><ele>1777.5</ele><time>2026-05-05T10:04:58Z</time></trkpt><trkpt lat="31.022290580515833" lon="-6.127248210352188"><ele>1777.0</ele><time>2026-05-05T10:04:59Z</time></trkpt><trkpt lat="31.022205484414542" lon="-6.12724137103302"><ele>1776.5</ele><time>2026-05-05T10:05:00Z</time></trkpt><trkpt lat="31.022118174441683" lon="-6.127231286521855"><ele>1776.0</ele><time>2026-05-05T10:05:01Z</time></trkpt><trkpt lat="31.02202847700867" lon="-6.127220400114064"><ele>1776.0</ele><time>2026-05-05T10:05:02Z</time></trkpt><trkpt lat="31.021943387829232" lon="-6.127212598747804"><ele>1776.0</ele><time>2026-05-05T10:05:03Z</time></trkpt><trkpt lat="31.02186184525398" lon="-6.127219918914837"><ele>1776.0</ele><time>2026-05-05T10:05:04Z</time></trkpt><trkpt lat="31.021786200878672" lon="-6.127232797780046"><ele>1776.0</ele><time>2026-05-05T10:05:05Z</time></trkpt><trkpt lat="31.021712593330573" lon="-6.127238646915165"><ele>1776.0</ele><time>2026-05-05T10:05:06Z</time></trkpt><trkpt lat="31.021631381999157" lon="-6.127231585270059"><ele>1776.0</ele><time>2026-05-05T10:05:07Z</time></trkpt><trkpt lat="31.021559731754493" lon="-6.127219344320704"><ele>1776.0</ele><time>2026-05-05T10:05:08Z</time></trkpt><trkpt lat="31.021490886104104" lon="-6.127225413437911"><ele>1776.0</ele><time>2026-05-05T10:05:09Z</time></trkpt><trkpt lat="31.021422215947727" lon="-6.127250655184707"><ele>1776.0</ele><time>2026-05-05T10:05:10Z</time></trkpt><trkpt lat="31.02135110099931" lon="-6.1272786225354725"><ele>1776.0</ele><time>2026-05-05T10:05:11Z</time></trkpt><trkpt lat="31.0212809015361" lon="-6.127310232051011"><ele>1776.0</ele><time>2026-05-05T10:05:12Z</time></trkpt><trkpt lat="31.021206399686996" lon="-6.127329923067646"><ele>1776.0</ele><time>2026-05-05T10:05:13Z</time></trkpt><trkpt lat="31.021123062133277" lon="-6.127334149156436"><ele>1776.0</ele><time>2026-05-05T10:05:14Z</time></trkpt><trkpt lat="31.021042596556192" lon="-6.127324978249163"><ele>1776.0</ele><time>2026-05-05T10:05:15Z</time></trkpt><trkpt lat="31.020965574885427" lon="-6.127303084615414"><ele>1776.0</ele><time>2026-05-05T10:05:16Z</time></trkpt><trkpt lat="31.0208877160335" lon="-6.12728700080822"><ele>1776.0</ele><time>2026-05-05T10:05:17Z</time></trkpt><trkpt lat="31.02081232156811" lon="-6.127281823491905"><ele>1776.0</ele><time>2026-05-05T10:05:18Z</time></trkpt><trkpt lat="31.020736943608572" lon="-6.1272563697023825"><ele>1776.0</ele><time>2026-05-05T10:05:19Z</time></trkpt><trkpt lat="31.02065784787057" lon="-6.12720288372219"><ele>1775.0</ele><time>2026-05-05T10:05:20Z</time></trkpt><trkpt lat="31.0205639695814" lon="-6.127149867975976"><ele>1774.0</ele><time>2026-05-05T10:05:21Z</time></trkpt><trkpt lat="31.02046172069807" lon="-6.127110700652021"><ele>1773.0</ele><time>2026-05-05T10:05:22Z</time></trkpt><trkpt lat="31.02036954574723" lon="-6.127071157672311"><ele>1772.0</ele><time>2026-05-05T10:05:23Z</time></trkpt><trkpt lat="31.02029191470685" lon="-6.127025359777274"><ele>1771.0</ele><time>2026-05-05T10:05:24Z</time></trkpt><trkpt lat="31.020210635940334" lon="-6.126976504697175"><ele>1771.0000000000002</ele><time>2026-05-05T10:05:25Z</time></trkpt><trkpt lat="31.020126250187264" lon="-6.126945909307567"><ele>1771.0</ele><time>2026-05-05T10:05:26Z</time></trkpt><trkpt lat="31.020043047953365" lon="-6.126930360027078"><ele>1771.0</ele><time>2026-05-05T10:05:27Z</time></trkpt><trkpt lat="31.019967613689396" lon="-6.126911672289919"><ele>1771.0</ele><time>2026-05-05T10:05:28Z</time></trkpt><trkpt lat="31.019900157881718" lon="-6.1268821020099296"><ele>1771.0000000000002</ele><time>2026-05-05T10:05:29Z</time></trkpt><trkpt lat="31.019841389653074" lon="-6.126834336727625"><ele>1771.0</ele><time>2026-05-05T10:05:30Z</time></trkpt><trkpt lat="31.01978681189778" lon="-6.126771592336253"><ele>1769.8333333333335</ele><time>2026-05-05T10:05:31Z</time></trkpt><trkpt lat="31.01973418407569" lon="-6.126693039276758"><ele>1768.6666666666667</ele><time>2026-05-05T10:05:32Z</time></trkpt><trkpt lat="31.0196795395151" lon="-6.126603163127149"><ele>1767.5</ele><time>2026-05-05T10:05:33Z</time></trkpt><trkpt lat="31.019621392607494" lon="-6.126512115582871"><ele>1766.3333333333335</ele><time>2026-05-05T10:05:34Z</time></trkpt><trkpt lat="31.019575856343984" lon="-6.126429060627762"><ele>1765.1666666666667</ele><time>2026-05-05T10:05:35Z</time></trkpt><trkpt lat="31.019539864680883" lon="-6.126345466765737"><ele>1764.0</ele><time>2026-05-05T10:05:36Z</time></trkpt><trkpt lat="31.01951696042767" lon="-6.126246559535969"><ele>1764.0</ele><time>2026-05-05T10:05:37Z</time></trkpt><trkpt lat="31.019487198581377" lon="-6.1261598757507345"><ele>1764.0</ele><time>2026-05-05T10:05:38Z</time></trkpt><trkpt lat="31.019456695444575" lon="-6.12608739145627"><ele>1764.0</ele><time>2026-05-05T10:05:39Z</time></trkpt><trkpt lat="31.019428136573456" lon="-6.126019861337688"><ele>1764.0</ele><time>2026-05-05T10:05:40Z</time></trkpt><trkpt lat="31.019406364569257" lon="-6.125943756371349"><ele>1764.0</ele><time>2026-05-05T10:05:41Z</time></trkpt><trkpt lat="31.019389310462504" lon="-6.125864001430512"><ele>1764.0</ele><time>2026-05-05T10:05:42Z</time></trkpt><trkpt lat="31.019379758351203" lon="-6.1257796598305925"><ele>1764.0</ele><time>2026-05-05T10:05:43Z</time></trkpt><trkpt lat="31.01937091360659" lon="-6.125690507136007"><ele>1763.1666666666667</ele><time>2026-05-05T10:05:44Z</time></trkpt><trkpt lat="31.019365296850136" lon="-6.1256011824099765"><ele>1762.3333333333335</ele><time>2026-05-05T10:05:45Z</time></trkpt><trkpt lat="31.019356390822516" lon="-6.125505853536159"><ele>1761.5</ele><time>2026-05-05T10:05:46Z</time></trkpt><trkpt lat="31.019347189806304" lon="-6.125414174115387"><ele>1760.6666666666667</ele><time>2026-05-05T10:05:47Z</time></trkpt><trkpt lat="31.01933613393967" lon="-6.125307184194195"><ele>1759.8333333333335</ele><time>2026-05-05T10:05:48Z</time></trkpt><trkpt lat="31.019324241655667" lon="-6.125185335292548"><ele>1759.0</ele><time>2026-05-05T10:05:49Z</time></trkpt><trkpt lat="31.019313550256715" lon="-6.125059771803515"><ele>1759.0</ele><time>2026-05-05T10:05:50Z</time></trkpt><trkpt lat="31.01929480213877" lon="-6.1249407826830655"><ele>1759.0</ele><time>2026-05-05T10:05:51Z</time></trkpt><trkpt lat="31.019272262696116" lon="-6.124832821135822"><ele>1759.0</ele><time>2026-05-05T10:05:52Z</time></trkpt><trkpt lat="31.019244173014858" lon="-6.124721864802688"><ele>1759.0</ele><time>2026-05-05T10:05:53Z</time></trkpt><trkpt lat="31.019222941094682" lon="-6.1246092690085"><ele>1759.0</ele><time>2026-05-05T10:05:54Z</time></trkpt><trkpt lat="31.019216625419663" lon="-6.1244968717070245"><ele>1758.2</ele><time>2026-05-05T10:05:55Z</time></trkpt><trkpt lat="31.019208212926962" lon="-6.124388190996849"><ele>1757.4</ele><time>2026-05-05T10:05:56Z</time></trkpt><trkpt lat="31.019189606365476" lon="-6.124267998629228"><ele>1756.6</ele><time>2026-05-05T10:05:57Z</time></trkpt><trkpt lat="31.019176630116803" lon="-6.124156339824782"><ele>1755.8</ele><time>2026-05-05T10:05:58Z</time></trkpt><trkpt lat="31.01915319266567" lon="-6.124052074820955"><ele>1755.0</ele><time>2026-05-05T10:05:59Z</time></trkpt><trkpt lat="31.019122881880545" lon="-6.123946562609208"><ele>1753.6</ele><time>2026-05-05T10:06:00Z</time></trkpt><trkpt lat="31.019088828209274" lon="-6.123849385902923"><ele>1752.2</ele><time>2026-05-05T10:06:01Z</time></trkpt><trkpt lat="31.019053093839773" lon="-6.123748609317965"><ele>1750.8000000000002</ele><time>2026-05-05T10:06:02Z</time></trkpt><trkpt lat="31.019007362230273" lon="-6.123648341473852"><ele>1749.4</ele><time>2026-05-05T10:06:03Z</time></trkpt><trkpt lat="31.018951032838384" lon="-6.123557613515832"><ele>1748.0</ele><time>2026-05-05T10:06:04Z</time></trkpt><trkpt lat="31.01889150702095" lon="-6.123467889519554"><ele>1748.0</ele><time>2026-05-05T10:06:05Z</time></trkpt><trkpt lat="31.018832959854524" lon="-6.123372890982196"><ele>1748.0000000000002</ele><time>2026-05-05T10:06:06Z</time></trkpt><trkpt lat="31.018784242925694" lon="-6.123267139094417"><ele>1748.0000000000002</ele><time>2026-05-05T10:06:07Z</time></trkpt><trkpt lat="31.018738584363696" lon="-6.123158975871665"><ele>1748.0</ele><time>2026-05-05T10:06:08Z</time></trkpt><trkpt lat="31.018692274289425" lon="-6.1230491241550595"><ele>1748.0</ele><time>2026-05-05T10:06:09Z</time></trkpt><trkpt lat="31.01864111876877" lon="-6.122936546901552"><ele>1747.2</ele><time>2026-05-05T10:06:10Z</time></trkpt><trkpt lat="31.01858974340325" lon="-6.12281921101317"><ele>1746.4</ele><time>2026-05-05T10:06:11Z</time></trkpt><trkpt lat="31.018539145438034" lon="-6.122702837964588"><ele>1745.6000000000001</ele><time>2026-05-05T10:06:12Z</time></trkpt><trkpt lat="31.01848826956498" lon="-6.122595651990076"><ele>1744.8000000000002</ele><time>2026-05-05T10:06:13Z</time></trkpt><trkpt lat="31.018435218824745" lon="-6.122481741272848"><ele>1744.0</ele><time>2026-05-05T10:06:14Z</time></trkpt><trkpt lat="31.018379359252716" lon="-6.12237227644806"><ele>1744.0</ele><time>2026-05-05T10:06:15Z</time></trkpt><trkpt lat="31.018322301005192" lon="-6.122266732127535"><ele>1744.0</ele><time>2026-05-05T10:06:16Z</time></trkpt><trkpt lat="31.018264858388164" lon="-6.12215854071026"><ele>1744.0</ele><time>2026-05-05T10:06:17Z</time></trkpt><trkpt lat="31.018216355889837" lon="-6.122040804837227"><ele>1744.0</ele><time>2026-05-05T10:06:18Z</time></trkpt><trkpt lat="31.018185351541128" lon="-6.12191788872175"><ele>1744.0</ele><time>2026-05-05T10:06:19Z</time></trkpt><trkpt lat="31.018161343598475" lon="-6.121794748164422"><ele>1743.8000000000002</ele><time>2026-05-05T10:06:20Z</time></trkpt><trkpt lat="31.018137856786996" lon="-6.1216758898501675"><ele>1743.6000000000001</ele><time>2026-05-05T10:06:21Z</time></trkpt><trkpt lat="31.01810378278139" lon="-6.12156320986746"><ele>1743.4</ele><time>2026-05-05T10:06:22Z</time></trkpt><trkpt lat="31.018076779476353" lon="-6.121443891183117"><ele>1743.2</ele><time>2026-05-05T10:06:23Z</time></trkpt><trkpt lat="31.018047426158997" lon="-6.121316154285634"><ele>1743.0</ele><time>2026-05-05T10:06:24Z</time></trkpt><trkpt lat="31.01800968384913" lon="-6.121177685380902"><ele>1742.4</ele><time>2026-05-05T10:06:25Z</time></trkpt><trkpt lat="31.017976937651504" lon="-6.1210405210372745"><ele>1741.8000000000002</ele><time>2026-05-05T10:06:26Z</time></trkpt><trkpt lat="31.01795125089267" lon="-6.120913820646029"><ele>1741.2</ele><time>2026-05-05T10:06:27Z</time></trkpt><trkpt lat="31.01792593277185" lon="-6.120795994999605"><ele>1740.6</ele><time>2026-05-05T10:06:28Z</time></trkpt><trkpt lat="31.017904096583596" lon="-6.120707174527329"><ele>1740.0</ele><time>2026-05-05T10:06:29Z</time></trkpt><trkpt lat="31.01787999429554" lon="-6.120629840719085"><ele>1739.3333333333333</ele><time>2026-05-05T10:06:30Z</time></trkpt><trkpt lat="31.017847852796788" lon="-6.120557410130597"><ele>1738.6666666666665</ele><time>2026-05-05T10:06:31Z</time></trkpt><trkpt lat="31.01781814079562" lon="-6.120473911066236"><ele>1738.0</ele><time>2026-05-05T10:06:32Z</time></trkpt><trkpt lat="31.017781115398886" lon="-6.120387132730601"><ele>1737.3333333333333</ele><time>2026-05-05T10:06:33Z</time></trkpt><trkpt lat="31.017749798381058" lon="-6.120315997622485"><ele>1736.6666666666665</ele><time>2026-05-05T10:06:33.999Z</time></trkpt><trkpt lat="31.01764352632294" lon="-6.120232022874474"><ele>1736.0</ele><time>2026-05-05T10:06:36Z</time></trkpt><trkpt lat="31.017536418824186" lon="-6.120164958347972"><ele>1735.9999999999998</ele><time>2026-05-05T10:06:38Z</time></trkpt><trkpt lat="31.01749973548009" lon="-6.120031863560507"><ele>1736.0</ele><time>2026-05-05T10:06:40Z</time></trkpt><trkpt lat="31.017489749082948" lon="-6.119954606112961"><ele>1736.0</ele><time>2026-05-05T10:06:41Z</time></trkpt><trkpt lat="31.017483984002386" lon="-6.119873582901555"><ele>1736.0</ele><time>2026-05-05T10:06:42Z</time></trkpt><trkpt lat="31.017475469574727" lon="-6.119777043620455"><ele>1735.9999999999998</ele><time>2026-05-05T10:06:43Z</time></trkpt><trkpt lat="31.01747162123137" lon="-6.1196784441464285"><ele>1736.0</ele><time>2026-05-05T10:06:44Z</time></trkpt><trkpt lat="31.017479583256183" lon="-6.1195824514944555"><ele>1736.9999999999998</ele><time>2026-05-05T10:06:45Z</time></trkpt><trkpt lat="31.017494022079692" lon="-6.1194879838302345"><ele>1738.0</ele><time>2026-05-05T10:06:46Z</time></trkpt><trkpt lat="31.017514329338674" lon="-6.119402563705049"><ele>1739.0</ele><time>2026-05-05T10:06:47Z</time></trkpt><trkpt lat="31.017526526295306" lon="-6.119327703374557"><ele>1740.0</ele><time>2026-05-05T10:06:48Z</time></trkpt><trkpt lat="31.017552785901316" lon="-6.119243252262552"><ele>1740.9999999999998</ele><time>2026-05-05T10:06:49Z</time></trkpt><trkpt lat="31.017566510628065" lon="-6.119153681715794"><ele>1742.0</ele><time>2026-05-05T10:06:50Z</time></trkpt><trkpt lat="31.01757510940167" lon="-6.1190473889869414"><ele>1742.1999999999998</ele><time>2026-05-05T10:06:51Z</time></trkpt><trkpt lat="31.01757720432619" lon="-6.118932885941651"><ele>1742.3999999999999</ele><time>2026-05-05T10:06:52Z</time></trkpt><trkpt lat="31.01757104591708" lon="-6.118807914134601"><ele>1742.6000000000001</ele><time>2026-05-05T10:06:53Z</time></trkpt><trkpt lat="31.017561279570742" lon="-6.118686284588973"><ele>1742.8000000000002</ele><time>2026-05-05T10:06:54Z</time></trkpt><trkpt lat="31.017545986431596" lon="-6.118565110526047"><ele>1743.0</ele><time>2026-05-05T10:06:55Z</time></trkpt><trkpt lat="31.01753181702175" lon="-6.118451733400743"><ele>1743.0</ele><time>2026-05-05T10:06:56Z</time></trkpt><trkpt lat="31.01752119490418" lon="-6.11834505939224"><ele>1743.0000000000002</ele><time>2026-05-05T10:06:57Z</time></trkpt><trkpt lat="31.01750916439964" lon="-6.1182386158730555"><ele>1743.0000000000002</ele><time>2026-05-05T10:06:58Z</time></trkpt><trkpt lat="31.017492691264756" lon="-6.118119717246521"><ele>1743.0</ele><time>2026-05-05T10:06:59Z</time></trkpt><trkpt lat="31.017468717251" lon="-6.1180129462050425"><ele>1743.0</ele><time>2026-05-05T10:07:00Z</time></trkpt><trkpt lat="31.01742515150763" lon="-6.117910571155434"><ele>1744.8000000000002</ele><time>2026-05-05T10:07:01Z</time></trkpt><trkpt lat="31.01736121029223" lon="-6.117814677104522"><ele>1746.6000000000001</ele><time>2026-05-05T10:07:02Z</time></trkpt><trkpt lat="31.017289815932255" lon="-6.117728043245559"><ele>1748.3999999999999</ele><time>2026-05-05T10:07:03Z</time></trkpt><trkpt lat="31.017207075034822" lon="-6.1176266875948695"><ele>1750.1999999999998</ele><time>2026-05-05T10:07:04Z</time></trkpt><trkpt lat="31.017141430884823" lon="-6.117520540720061"><ele>1752.0</ele><time>2026-05-05T10:07:05Z</time></trkpt><trkpt lat="31.01707578432833" lon="-6.117406073264153"><ele>1751.8333333333333</ele><time>2026-05-05T10:07:06Z</time></trkpt><trkpt lat="31.017014896098285" lon="-6.11730163174676"><ele>1751.6666666666665</ele><time>2026-05-05T10:07:07Z</time></trkpt><trkpt lat="31.016967455803794" lon="-6.117212224131834"><ele>1751.5</ele><time>2026-05-05T10:07:08Z</time></trkpt><trkpt lat="31.01693626122976" lon="-6.117139073695076"><ele>1751.3333333333333</ele><time>2026-05-05T10:07:09Z</time></trkpt><trkpt lat="31.016912282103426" lon="-6.117063843422978"><ele>1751.1666666666665</ele><time>2026-05-05T10:07:10Z</time></trkpt><trkpt lat="31.016872395307423" lon="-6.116970969258478"><ele>1751.0</ele><time>2026-05-05T10:07:11Z</time></trkpt><trkpt lat="31.01682545706364" lon="-6.116859281028217"><ele>1751.0</ele><time>2026-05-05T10:07:12Z</time></trkpt><trkpt lat="31.0167782431896" lon="-6.116744184765459"><ele>1751.0</ele><time>2026-05-05T10:07:13Z</time></trkpt><trkpt lat="31.016728755406277" lon="-6.11663888007953"><ele>1751.0</ele><time>2026-05-05T10:07:14Z</time></trkpt><trkpt lat="31.01667978364278" lon="-6.11653536967744"><ele>1751.0</ele><time>2026-05-05T10:07:15Z</time></trkpt><trkpt lat="31.01663249697386" lon="-6.116431647712319"><ele>1751.0</ele><time>2026-05-05T10:07:16Z</time></trkpt><trkpt lat="31.016585378787013" lon="-6.11633163509761"><ele>1749.4999999999998</ele><time>2026-05-05T10:07:17Z</time></trkpt><trkpt lat="31.016533315846665" lon="-6.116243085489577"><ele>1748.0</ele><time>2026-05-05T10:07:18Z</time></trkpt><trkpt lat="31.016488659818116" lon="-6.116158432351921"><ele>1746.5</ele><time>2026-05-05T10:07:19Z</time></trkpt><trkpt lat="31.01644529170711" lon="-6.116077195001542"><ele>1745.0</ele><time>2026-05-05T10:07:20Z</time></trkpt><trkpt lat="31.01640196979495" lon="-6.115993781241613"><ele>1743.4999999999998</ele><time>2026-05-05T10:07:21Z</time></trkpt><trkpt lat="31.016359873663593" lon="-6.115915101336398"><ele>1742.0</ele><time>2026-05-05T10:07:22Z</time></trkpt><trkpt lat="31.016322714694425" lon="-6.115848632165056"><ele>1742.0</ele><time>2026-05-05T10:07:23Z</time></trkpt><trkpt lat="31.01628649557821" lon="-6.115776313486881"><ele>1741.9999999999998</ele><time>2026-05-05T10:07:24Z</time></trkpt><trkpt lat="31.016242760256684" lon="-6.115695722900076"><ele>1741.9999999999998</ele><time>2026-05-05T10:07:25Z</time></trkpt><trkpt lat="31.016193014326703" lon="-6.1156022048280185"><ele>1742.0</ele><time>2026-05-05T10:07:26Z</time></trkpt><trkpt lat="31.016127688399735" lon="-6.115499874743354"><ele>1742.0</ele><time>2026-05-05T10:07:27Z</time></trkpt><trkpt lat="31.016065124375444" lon="-6.115392670378247"><ele>1742.1999999999998</ele><time>2026-05-05T10:07:28Z</time></trkpt><trkpt lat="31.01600832809695" lon="-6.1152894140271385"><ele>1742.3999999999999</ele><time>2026-05-05T10:07:29Z</time></trkpt><trkpt lat="31.01595838599033" lon="-6.115186321540818"><ele>1742.6000000000001</ele><time>2026-05-05T10:07:30Z</time></trkpt><trkpt lat="31.015904673598516" lon="-6.115070963902917"><ele>1742.8000000000002</ele><time>2026-05-05T10:07:31Z</time></trkpt><trkpt lat="31.01585254107398" lon="-6.114956192720866"><ele>1743.0</ele><time>2026-05-05T10:07:32Z</time></trkpt><trkpt lat="31.015798501497923" lon="-6.114859803519042"><ele>1743.0</ele><time>2026-05-05T10:07:33Z</time></trkpt><trkpt lat="31.015739637664034" lon="-6.114770443289173"><ele>1743.0000000000002</ele><time>2026-05-05T10:07:34Z</time></trkpt><trkpt lat="31.015689451932968" lon="-6.114690974415267"><ele>1743.0000000000002</ele><time>2026-05-05T10:07:35Z</time></trkpt><trkpt lat="31.01564037673222" lon="-6.1146359618981005"><ele>1743.0</ele><time>2026-05-05T10:07:36Z</time></trkpt><trkpt lat="31.01559049308198" lon="-6.114586346118517"><ele>1743.0</ele><time>2026-05-05T10:07:37Z</time></trkpt><trkpt lat="31.015509201946724" lon="-6.114450973400464"><ele>1743.0</ele><time>2026-05-05T10:07:39Z</time></trkpt><trkpt lat="31.01545548501281" lon="-6.114363680667412"><ele>1743.0000000000002</ele><time>2026-05-05T10:07:40Z</time></trkpt><trkpt lat="31.01539302775919" lon="-6.114264699431488"><ele>1743.0000000000002</ele><time>2026-05-05T10:07:41Z</time></trkpt><trkpt lat="31.01533187812351" lon="-6.114159631798185"><ele>1743.0</ele><time>2026-05-05T10:07:42Z</time></trkpt><trkpt lat="31.015274263595295" lon="-6.114051738443117"><ele>1743.0</ele><time>2026-05-05T10:07:43Z</time></trkpt><trkpt lat="31.015230949048465" lon="-6.113940035198357"><ele>1743.0</ele><time>2026-05-05T10:07:44Z</time></trkpt><trkpt lat="31.015190490445022" lon="-6.113815056204175"><ele>1743.0000000000002</ele><time>2026-05-05T10:07:45Z</time></trkpt><trkpt lat="31.015156864557422" lon="-6.113697871502054"><ele>1743.0000000000002</ele><time>2026-05-05T10:07:46Z</time></trkpt><trkpt lat="31.015121013831457" lon="-6.113587284682841"><ele>1743.0</ele><time>2026-05-05T10:07:47Z</time></trkpt><trkpt lat="31.01507803988199" lon="-6.11347895522608"><ele>1743.0</ele><time>2026-05-05T10:07:48Z</time></trkpt><trkpt lat="31.01503735913871" lon="-6.113361491915955"><ele>1743.0</ele><time>2026-05-05T10:07:49Z</time></trkpt><trkpt lat="31.015003772007436" lon="-6.113260846193127"><ele>1743.0000000000002</ele><time>2026-05-05T10:07:50Z</time></trkpt><trkpt lat="31.014971116963725" lon="-6.113159142920645"><ele>1743.0000000000002</ele><time>2026-05-05T10:07:51Z</time></trkpt><trkpt lat="31.01493952578612" lon="-6.113074319264142"><ele>1743.0</ele><time>2026-05-05T10:07:52Z</time></trkpt><trkpt lat="31.014910579374185" lon="-6.112995769160357"><ele>1743.0</ele><time>2026-05-05T10:07:53Z</time></trkpt><trkpt lat="31.014885003005535" lon="-6.112866473988582"><ele>1743.8000000000002</ele><time>2026-05-05T10:07:55Z</time></trkpt><trkpt lat="31.01495334530687" lon="-6.112735037464436"><ele>1744.6000000000001</ele><time>2026-05-05T10:07:57Z</time></trkpt><trkpt lat="31.01502296197441" lon="-6.112664598105256"><ele>1745.3999999999999</ele><time>2026-05-05T10:07:58Z</time></trkpt><trkpt lat="31.015105296563835" lon="-6.112579023823803"><ele>1746.1999999999998</ele><time>2026-05-05T10:07:59Z</time></trkpt><trkpt lat="31.015191722930336" lon="-6.112500797551373"><ele>1747.0</ele><time>2026-05-05T10:08:00Z</time></trkpt><trkpt lat="31.015273382182627" lon="-6.112424064303543"><ele>1748.1999999999998</ele><time>2026-05-05T10:08:01Z</time></trkpt><trkpt lat="31.015338938275914" lon="-6.112339325228663"><ele>1749.3999999999999</ele><time>2026-05-05T10:08:02Z</time></trkpt><trkpt lat="31.015376397195293" lon="-6.112241016311158"><ele>1750.6000000000001</ele><time>2026-05-05T10:08:03Z</time></trkpt><trkpt lat="31.01539659390857" lon="-6.112130138426184"><ele>1751.8000000000002</ele><time>2026-05-05T10:08:04Z</time></trkpt><trkpt lat="31.015403954003524" lon="-6.111993258865778"><ele>1753.0</ele><time>2026-05-05T10:08:05Z</time></trkpt><trkpt lat="31.015416484441086" lon="-6.111843114273967"><ele>1753.0</ele><time>2026-05-05T10:08:06Z</time></trkpt><trkpt lat="31.015427458866977" lon="-6.111693451207596"><ele>1753.0</ele><time>2026-05-05T10:08:07Z</time></trkpt><trkpt lat="31.01543838580853" lon="-6.1115425481135786"><ele>1753.0</ele><time>2026-05-05T10:08:08Z</time></trkpt><trkpt lat="31.015455165407268" lon="-6.1114072966327235"><ele>1753.0</ele><time>2026-05-05T10:08:09Z</time></trkpt><trkpt lat="31.01545984738537" lon="-6.111272066477143"><ele>1753.4</ele><time>2026-05-05T10:08:10Z</time></trkpt><trkpt lat="31.01546043267073" lon="-6.1111396649033205"><ele>1753.8000000000002</ele><time>2026-05-05T10:08:11Z</time></trkpt><trkpt lat="31.01546757928709" lon="-6.111014200552655"><ele>1754.2</ele><time>2026-05-05T10:08:12Z</time></trkpt><trkpt lat="31.015479732841" lon="-6.11089256057826"><ele>1754.6</ele><time>2026-05-05T10:08:13Z</time></trkpt><trkpt lat="31.015486796557564" lon="-6.110774176092876"><ele>1755.0</ele><time>2026-05-05T10:08:14Z</time></trkpt><trkpt lat="31.015481613202017" lon="-6.11063778948832"><ele>1755.0</ele><time>2026-05-05T10:08:15Z</time></trkpt><trkpt lat="31.01547921607942" lon="-6.110489925252628"><ele>1755.0</ele><time>2026-05-05T10:08:16Z</time></trkpt><trkpt lat="31.01547883861042" lon="-6.110324890127594"><ele>1755.0</ele><time>2026-05-05T10:08:17Z</time></trkpt><trkpt lat="31.015471770352903" lon="-6.110162924275311"><ele>1755.0</ele><time>2026-05-05T10:08:18Z</time></trkpt><trkpt lat="31.015455629999014" lon="-6.110025086386692"><ele>1754.4</ele><time>2026-05-05T10:08:19Z</time></trkpt><trkpt lat="31.015435223836853" lon="-6.109902362810115"><ele>1753.8</ele><time>2026-05-05T10:08:20Z</time></trkpt><trkpt lat="31.015415742391745" lon="-6.109809991444561"><ele>1753.1999999999998</ele><time>2026-05-05T10:08:21Z</time></trkpt><trkpt lat="31.015395685580167" lon="-6.1097170134144445"><ele>1752.6</ele><time>2026-05-05T10:08:22Z</time></trkpt><trkpt lat="31.015384613052877" lon="-6.109610403837839"><ele>1752.0</ele><time>2026-05-05T10:08:23Z</time></trkpt><trkpt lat="31.015384170021093" lon="-6.109487454245239"><ele>1752.0</ele><time>2026-05-05T10:08:24Z</time></trkpt><trkpt lat="31.015385129346416" lon="-6.109353001240931"><ele>1751.9999999999998</ele><time>2026-05-05T10:08:25Z</time></trkpt><trkpt lat="31.01538383771012" lon="-6.10921478170435"><ele>1751.9999999999998</ele><time>2026-05-05T10:08:26Z</time></trkpt><trkpt lat="31.01538204676023" lon="-6.109082800296765"><ele>1752.0</ele><time>2026-05-05T10:08:27Z</time></trkpt><trkpt lat="31.01537836774643" lon="-6.108966480112472"><ele>1752.0</ele><time>2026-05-05T10:08:28Z</time></trkpt><trkpt lat="31.015368117622526" lon="-6.108841071218204"><ele>1752.8</ele><time>2026-05-05T10:08:29Z</time></trkpt><trkpt lat="31.015366859464805" lon="-6.108720532366289"><ele>1753.6</ele><time>2026-05-05T10:08:30Z</time></trkpt><trkpt lat="31.01535997430268" lon="-6.108611203758977"><ele>1754.3999999999999</ele><time>2026-05-05T10:08:30.999Z</time></trkpt><trkpt lat="31.015340860705024" lon="-6.108517717911183"><ele>1755.1999999999998</ele><time>2026-05-05T10:08:31.999Z</time></trkpt><trkpt lat="31.015311585632272" lon="-6.10842841500196"><ele>1756.0</ele><time>2026-05-05T10:08:32.999Z</time></trkpt><trkpt lat="31.01525914329058" lon="-6.108336120014393"><ele>1756.0</ele><time>2026-05-05T10:08:33.999Z</time></trkpt><trkpt lat="31.015196340532725" lon="-6.108242507306585"><ele>1756.0</ele><time>2026-05-05T10:08:34.999Z</time></trkpt><trkpt lat="31.01513675438561" lon="-6.1081531094053645"><ele>1756.0</ele><time>2026-05-05T10:08:35.999Z</time></trkpt><trkpt lat="31.015080843529425" lon="-6.1080688085331865"><ele>1756.0</ele><time>2026-05-05T10:08:36.999Z</time></trkpt><trkpt lat="31.01502847290807" lon="-6.107980975474994"><ele>1756.0</ele><time>2026-05-05T10:08:37.999Z</time></trkpt><trkpt lat="31.014975491601895" lon="-6.107882909607305"><ele>1756.0</ele><time>2026-05-05T10:08:38.999Z</time></trkpt><trkpt lat="31.014921316902445" lon="-6.107790612887928"><ele>1756.0</ele><time>2026-05-05T10:08:39.999Z</time></trkpt><trkpt lat="31.014866335917823" lon="-6.107700401692795"><ele>1756.0</ele><time>2026-05-05T10:08:41Z</time></trkpt><trkpt lat="31.0148036541107" lon="-6.107598730287863"><ele>1756.0</ele><time>2026-05-05T10:08:42Z</time></trkpt><trkpt lat="31.014736142891238" lon="-6.107485636843925"><ele>1756.0</ele><time>2026-05-05T10:08:43Z</time></trkpt><trkpt lat="31.014664277630274" lon="-6.107363202816633"><ele>1756.25</ele><time>2026-05-05T10:08:44Z</time></trkpt><trkpt lat="31.01459836246676" lon="-6.107245535922036"><ele>1756.5</ele><time>2026-05-05T10:08:45Z</time></trkpt><trkpt lat="31.01453408319013" lon="-6.107125136471857"><ele>1756.75</ele><time>2026-05-05T10:08:46Z</time></trkpt><trkpt lat="31.014477626744295" lon="-6.106993363080184"><ele>1757.0</ele><time>2026-05-05T10:08:47Z</time></trkpt><trkpt lat="31.01441742522606" lon="-6.1068612091273256"><ele>1757.0</ele><time>2026-05-05T10:08:48Z</time></trkpt><trkpt lat="31.01434780504171" lon="-6.106715698241427"><ele>1757.0</ele><time>2026-05-05T10:08:49Z</time></trkpt><trkpt lat="31.0142822576085" lon="-6.106567016580159"><ele>1757.0</ele><time>2026-05-05T10:08:50Z</time></trkpt><trkpt lat="31.014217111993464" lon="-6.106414730592894"><ele>1757.0</ele><time>2026-05-05T10:08:51Z</time></trkpt><trkpt lat="31.014152070158588" lon="-6.1062511239838075"><ele>1757.0</ele><time>2026-05-05T10:08:52Z</time></trkpt><trkpt lat="31.014083505825703" lon="-6.106080093480666"><ele>1757.0</ele><time>2026-05-05T10:08:53Z</time></trkpt><trkpt lat="31.014015408468474" lon="-6.105908272724002"><ele>1757.0</ele><time>2026-05-05T10:08:54Z</time></trkpt><trkpt lat="31.01394903881308" lon="-6.105734846082754"><ele>1757.0</ele><time>2026-05-05T10:08:55Z</time></trkpt><trkpt lat="31.013886819220165" lon="-6.10554974026104"><ele>1757.0</ele><time>2026-05-05T10:08:56Z</time></trkpt><trkpt lat="31.013833644051033" lon="-6.105363930328838"><ele>1757.0</ele><time>2026-05-05T10:08:57Z</time></trkpt><trkpt lat="31.013785928874235" lon="-6.105190964289173"><ele>1757.0</ele><time>2026-05-05T10:08:58Z</time></trkpt><trkpt lat="31.013744669375733" lon="-6.105018863931188"><ele>1757.0</ele><time>2026-05-05T10:08:59Z</time></trkpt><trkpt lat="31.013701248845603" lon="-6.104851384279766"><ele>1757.0</ele><time>2026-05-05T10:09:00Z</time></trkpt><trkpt lat="31.01365496792584" lon="-6.1046804978323745"><ele>1757.3333333333333</ele><time>2026-05-05T10:09:01Z</time></trkpt><trkpt lat="31.01360156005289" lon="-6.104502013454236"><ele>1757.6666666666665</ele><time>2026-05-05T10:09:02Z</time></trkpt><trkpt lat="31.013537109325316" lon="-6.104317629974774"><ele>1758.0</ele><time>2026-05-05T10:09:03Z</time></trkpt><trkpt lat="31.01347011853771" lon="-6.104143109742218"><ele>1757.75</ele><time>2026-05-05T10:09:04Z</time></trkpt><trkpt lat="31.013406272236523" lon="-6.103983844862632"><ele>1757.5</ele><time>2026-05-05T10:09:05Z</time></trkpt><trkpt lat="31.013344438830604" lon="-6.1038343782174245"><ele>1757.25</ele><time>2026-05-05T10:09:06Z</time></trkpt><trkpt lat="31.01328693586292" lon="-6.103694433983485"><ele>1757.0</ele><time>2026-05-05T10:09:07Z</time></trkpt><trkpt lat="31.01323140121562" lon="-6.103553498645971"><ele>1757.0</ele><time>2026-05-05T10:09:08Z</time></trkpt><trkpt lat="31.01317645962054" lon="-6.1034121302756414"><ele>1757.0</ele><time>2026-05-05T10:09:09Z</time></trkpt><trkpt lat="31.013121978797177" lon="-6.103266541374796"><ele>1757.0</ele><time>2026-05-05T10:09:10Z</time></trkpt><trkpt lat="31.01306380992477" lon="-6.1031211003424595"><ele>1757.0</ele><time>2026-05-05T10:09:11Z</time></trkpt><trkpt lat="31.013008490900724" lon="-6.102974494235554"><ele>1758.25</ele><time>2026-05-05T10:09:12Z</time></trkpt><trkpt lat="31.012953237585368" lon="-6.1028267449089135"><ele>1759.5</ele><time>2026-05-05T10:09:13Z</time></trkpt><trkpt lat="31.01289521837754" lon="-6.1026725109761095"><ele>1760.75</ele><time>2026-05-05T10:09:14Z</time></trkpt><trkpt lat="31.01283129797009" lon="-6.10250976434233"><ele>1762.0</ele><time>2026-05-05T10:09:15Z</time></trkpt><trkpt lat="31.01276458446981" lon="-6.102341342571158"><ele>1763.6666666666667</ele><time>2026-05-05T10:09:16Z</time></trkpt><trkpt lat="31.012699894052684" lon="-6.102164426888158"><ele>1765.3333333333335</ele><time>2026-05-05T10:09:17Z</time></trkpt><trkpt lat="31.01263356236383" lon="-6.101987849208884"><ele>1767.0</ele><time>2026-05-05T10:09:18Z</time></trkpt><trkpt lat="31.012569388886565" lon="-6.1018159323341905"><ele>1767.0</ele><time>2026-05-05T10:09:19Z</time></trkpt><trkpt lat="31.012511946906614" lon="-6.10163903244974"><ele>1767.0</ele><time>2026-05-05T10:09:20Z</time></trkpt><trkpt lat="31.012461223274077" lon="-6.101453867059782"><ele>1767.0</ele><time>2026-05-05T10:09:21Z</time></trkpt><trkpt lat="31.012419561945116" lon="-6.10126198911323"><ele>1768.3333333333335</ele><time>2026-05-05T10:09:22Z</time></trkpt><trkpt lat="31.012385427897364" lon="-6.101060478881259"><ele>1769.6666666666667</ele><time>2026-05-05T10:09:23Z</time></trkpt><trkpt lat="31.012356084610612" lon="-6.100851512504008"><ele>1771.0</ele><time>2026-05-05T10:09:24Z</time></trkpt><trkpt lat="31.012336990051953" lon="-6.100652918203334"><ele>1772.5</ele><time>2026-05-05T10:09:25Z</time></trkpt><trkpt lat="31.012323886024603" lon="-6.1004783182427"><ele>1774.0</ele><time>2026-05-05T10:09:26Z</time></trkpt><trkpt lat="31.01231696647386" lon="-6.1003088739311595"><ele>1775.5</ele><time>2026-05-05T10:09:27Z</time></trkpt><trkpt lat="31.012301405029937" lon="-6.1001326177478505"><ele>1777.0</ele><time>2026-05-05T10:09:28Z</time></trkpt><trkpt lat="31.01228754186638" lon="-6.099959888326574"><ele>1778.25</ele><time>2026-05-05T10:09:29Z</time></trkpt><trkpt lat="31.012278276037623" lon="-6.09979664118592"><ele>1779.5</ele><time>2026-05-05T10:09:30Z</time></trkpt><trkpt lat="31.01226405526091" lon="-6.099642196831929"><ele>1780.75</ele><time>2026-05-05T10:09:31Z</time></trkpt><trkpt lat="31.01224918258049" lon="-6.099486658359248"><ele>1782.0</ele><time>2026-05-05T10:09:32Z</time></trkpt><trkpt lat="31.012240321887173" lon="-6.099326950080233"><ele>1782.0</ele><time>2026-05-05T10:09:33Z</time></trkpt><trkpt lat="31.012226981373196" lon="-6.099159314183107"><ele>1782.0</ele><time>2026-05-05T10:09:34Z</time></trkpt><trkpt lat="31.01221510914562" lon="-6.0989907303021"><ele>1782.0</ele><time>2026-05-05T10:09:35Z</time></trkpt><trkpt lat="31.012214061824245" lon="-6.098831319353441"><ele>1782.0</ele><time>2026-05-05T10:09:36Z</time></trkpt><trkpt lat="31.0122080103181" lon="-6.098667797725974"><ele>1782.75</ele><time>2026-05-05T10:09:37Z</time></trkpt><trkpt lat="31.012199461538113" lon="-6.0985041545660446"><ele>1783.5</ele><time>2026-05-05T10:09:38Z</time></trkpt><trkpt lat="31.01219711333959" lon="-6.098336529656167"><ele>1784.25</ele><time>2026-05-05T10:09:39Z</time></trkpt><trkpt lat="31.01219293262392" lon="-6.098166331970501"><ele>1785.0</ele><time>2026-05-05T10:09:40Z</time></trkpt><trkpt lat="31.01218584646166" lon="-6.097996977047246"><ele>1786.75</ele><time>2026-05-05T10:09:41Z</time></trkpt><trkpt lat="31.012182517237" lon="-6.097823878916565"><ele>1788.5</ele><time>2026-05-05T10:09:42Z</time></trkpt><trkpt lat="31.012177229952496" lon="-6.097648647835732"><ele>1790.25</ele><time>2026-05-05T10:09:43Z</time></trkpt><trkpt lat="31.012173729172424" lon="-6.097479301450127"><ele>1792.0</ele><time>2026-05-05T10:09:44Z</time></trkpt><trkpt lat="31.012176161358102" lon="-6.097311545929332"><ele>1793.5</ele><time>2026-05-05T10:09:45Z</time></trkpt><trkpt lat="31.012179897888146" lon="-6.097155016917383"><ele>1795.0</ele><time>2026-05-05T10:09:46Z</time></trkpt><trkpt lat="31.01218206235595" lon="-6.097014675396319"><ele>1796.5</ele><time>2026-05-05T10:09:47Z</time></trkpt><trkpt lat="31.01218420414718" lon="-6.096889434148419"><ele>1798.0</ele><time>2026-05-05T10:09:48Z</time></trkpt><trkpt lat="31.012181169777307" lon="-6.096750370579131"><ele>1798.0</ele><time>2026-05-05T10:09:49Z</time></trkpt><trkpt lat="31.012169636694047" lon="-6.096607186201701"><ele>1798.0</ele><time>2026-05-05T10:09:50Z</time></trkpt><trkpt lat="31.012156161781007" lon="-6.0964561109366135"><ele>1798.0</ele><time>2026-05-05T10:09:51Z</time></trkpt><trkpt lat="31.012140876658837" lon="-6.096296868531588"><ele>1798.0</ele><time>2026-05-05T10:09:52Z</time></trkpt><trkpt lat="31.012122235340758" lon="-6.096144250404488"><ele>1799.75</ele><time>2026-05-05T10:09:53Z</time></trkpt><trkpt lat="31.012103360467165" lon="-6.095983718440193"><ele>1801.5</ele><time>2026-05-05T10:09:54Z</time></trkpt><trkpt lat="31.012083414139813" lon="-6.09582280362191"><ele>1803.25</ele><time>2026-05-05T10:09:55Z</time></trkpt><trkpt lat="31.01206207866596" lon="-6.095662715023367"><ele>1805.0</ele><time>2026-05-05T10:09:56Z</time></trkpt><trkpt lat="31.012040011259078" lon="-6.095499118902418"><ele>1807.0</ele><time>2026-05-05T10:09:57Z</time></trkpt><trkpt lat="31.01201537586373" lon="-6.095338526553741"><ele>1809.0</ele><time>2026-05-05T10:09:58Z</time></trkpt><trkpt lat="31.01198287888296" lon="-6.095183680447221"><ele>1811.0</ele><time>2026-05-05T10:09:59Z</time></trkpt><trkpt lat="31.01194555233086" lon="-6.0950379878497"><ele>1813.0</ele><time>2026-05-05T10:10:00Z</time></trkpt><trkpt lat="31.011902764549678" lon="-6.094898480037354"><ele>1817.0</ele><time>2026-05-05T10:10:01Z</time></trkpt><trkpt lat="31.0118542598552" lon="-6.09476872260955"><ele>1821.0</ele><time>2026-05-05T10:10:02Z</time></trkpt><trkpt lat="31.011805971349165" lon="-6.094635191378282"><ele>1825.0</ele><time>2026-05-05T10:10:03Z</time></trkpt><trkpt lat="31.011751674879875" lon="-6.094505478078088"><ele>1829.0</ele><time>2026-05-05T10:10:04Z</time></trkpt><trkpt lat="31.01169148731392" lon="-6.094376163765963"><ele>1829.5</ele><time>2026-05-05T10:10:05Z</time></trkpt><trkpt lat="31.011632851009143" lon="-6.094242409458592"><ele>1830.0</ele><time>2026-05-05T10:10:06Z</time></trkpt><trkpt lat="31.011574217932232" lon="-6.094113026977958"><ele>1830.5</ele><time>2026-05-05T10:10:07Z</time></trkpt><trkpt lat="31.011518194414613" lon="-6.093983852503425"><ele>1831.0</ele><time>2026-05-05T10:10:08Z</time></trkpt><trkpt lat="31.01146903457323" lon="-6.093837075435383"><ele>1831.0</ele><time>2026-05-05T10:10:09Z</time></trkpt><trkpt lat="31.011426502048224" lon="-6.093673115875828"><ele>1831.0</ele><time>2026-05-05T10:10:10Z</time></trkpt><trkpt lat="31.011395205153402" lon="-6.093498191663708"><ele>1831.0</ele><time>2026-05-05T10:10:11Z</time></trkpt><trkpt lat="31.011367575394228" lon="-6.093318420520975"><ele>1833.0</ele><time>2026-05-05T10:10:12Z</time></trkpt><trkpt lat="31.011336795900274" lon="-6.093156714151065"><ele>1835.0</ele><time>2026-05-05T10:10:13Z</time></trkpt><trkpt lat="31.01129758380955" lon="-6.092998693431875"><ele>1837.0</ele><time>2026-05-05T10:10:14Z</time></trkpt><trkpt lat="31.01125586637694" lon="-6.092843739179403"><ele>1839.0</ele><time>2026-05-05T10:10:15Z</time></trkpt><trkpt lat="31.01120613163561" lon="-6.092694682781369"><ele>1839.0</ele><time>2026-05-05T10:10:16Z</time></trkpt><trkpt lat="31.011152019417878" lon="-6.09255333079881"><ele>1839.0</ele><time>2026-05-05T10:10:17Z</time></trkpt><trkpt lat="31.011086039548143" lon="-6.092408661062873"><ele>1839.0</ele><time>2026-05-05T10:10:18Z</time></trkpt><trkpt lat="31.01101421952225" lon="-6.092275593664347"><ele>1839.0</ele><time>2026-05-05T10:10:19Z</time></trkpt><trkpt lat="31.010941777532906" lon="-6.092148158611077"><ele>1841.5</ele><time>2026-05-05T10:10:20Z</time></trkpt><trkpt lat="31.010873959505044" lon="-6.09202053770869"><ele>1844.0</ele><time>2026-05-05T10:10:21Z</time></trkpt><trkpt lat="31.010806231554913" lon="-6.091882503800528"><ele>1846.5</ele><time>2026-05-05T10:10:22Z</time></trkpt><trkpt lat="31.01073922307279" lon="-6.091748465716345"><ele>1849.0</ele><time>2026-05-05T10:10:23Z</time></trkpt><trkpt lat="31.010673241763165" lon="-6.091622200320777"><ele>1850.8000000000002</ele><time>2026-05-05T10:10:24Z</time></trkpt><trkpt lat="31.010615502369205" lon="-6.091504425354696"><ele>1852.6000000000001</ele><time>2026-05-05T10:10:25Z</time></trkpt><trkpt lat="31.01056828747969" lon="-6.0913898076347115"><ele>1854.4</ele><time>2026-05-05T10:10:26Z</time></trkpt><trkpt lat="31.010532922146123" lon="-6.091286006500531"><ele>1856.2</ele><time>2026-05-05T10:10:26.999Z</time></trkpt><trkpt lat="31.010506680104942" lon="-6.091193105896431"><ele>1858.0</ele><time>2026-05-05T10:10:27.999Z</time></trkpt><trkpt lat="31.010483602317663" lon="-6.091110231958778"><ele>1858.0000000000002</ele><time>2026-05-05T10:10:28.999Z</time></trkpt><trkpt lat="31.010446990738757" lon="-6.091039989114874"><ele>1858.0</ele><time>2026-05-05T10:10:29.999Z</time></trkpt><trkpt lat="31.010387784368984" lon="-6.090981542805309"><ele>1858.0</ele><time>2026-05-05T10:10:30.999Z</time></trkpt><trkpt lat="31.010313908024994" lon="-6.0909438428971265"><ele>1858.0</ele><time>2026-05-05T10:10:31.999Z</time></trkpt><trkpt lat="31.010235571335244" lon="-6.090921543100042"><ele>1858.0000000000002</ele><time>2026-05-05T10:10:32.999Z</time></trkpt><trkpt lat="31.01015244751816" lon="-6.09091999632913"><ele>1858.0</ele><time>2026-05-05T10:10:33.999Z</time></trkpt><trkpt lat="31.010068930984307" lon="-6.090936898285174"><ele>1858.0000000000002</ele><time>2026-05-05T10:10:34.999Z</time></trkpt><trkpt lat="31.009994169187006" lon="-6.0909715203845565"><ele>1858.0</ele><time>2026-05-05T10:10:35.999Z</time></trkpt><trkpt lat="31.009931425730073" lon="-6.091028466584816"><ele>1858.0</ele><time>2026-05-05T10:10:36.999Z</time></trkpt><trkpt lat="31.009884921838296" lon="-6.091116645482831"><ele>1858.0</ele><time>2026-05-05T10:10:37.999Z</time></trkpt><trkpt lat="31.009852589909165" lon="-6.0912218534535105"><ele>1858.0000000000002</ele><time>2026-05-05T10:10:38.999Z</time></trkpt><trkpt lat="31.009827997671618" lon="-6.091333409096684"><ele>1858.0</ele><time>2026-05-05T10:10:39.999Z</time></trkpt><trkpt lat="31.00980028539863" lon="-6.091430438689891"><ele>1859.4</ele><time>2026-05-05T10:10:40.999Z</time></trkpt><trkpt lat="31.009760017211313" lon="-6.091508093576361"><ele>1860.8000000000002</ele><time>2026-05-05T10:10:41.999Z</time></trkpt><trkpt lat="31.009698254520522" lon="-6.091573840214443"><ele>1862.2</ele><time>2026-05-05T10:10:42.999Z</time></trkpt><trkpt lat="31.00962229359188" lon="-6.09164277848396"><ele>1863.6</ele><time>2026-05-05T10:10:43.999Z</time></trkpt><trkpt lat="31.009530356207097" lon="-6.09171254274315"><ele>1865.0</ele><time>2026-05-05T10:10:44.999Z</time></trkpt><trkpt lat="31.009442752237312" lon="-6.091771585578772"><ele>1864.9999999999998</ele><time>2026-05-05T10:10:45.999Z</time></trkpt><trkpt lat="31.009358387970998" lon="-6.091829763184671"><ele>1865.0</ele><time>2026-05-05T10:10:47Z</time></trkpt><trkpt lat="31.009290353695977" lon="-6.091892310923424"><ele>1865.0</ele><time>2026-05-05T10:10:48Z</time></trkpt><trkpt lat="31.009239985313556" lon="-6.0919630233805195"><ele>1865.0</ele><time>2026-05-05T10:10:49Z</time></trkpt><trkpt lat="31.009204354115223" lon="-6.09204971605636"><ele>1864.9999999999998</ele><time>2026-05-05T10:10:50Z</time></trkpt><trkpt lat="31.00918575667333" lon="-6.092146669645412"><ele>1865.0</ele><time>2026-05-05T10:10:51Z</time></trkpt><trkpt lat="31.00919156833703" lon="-6.092246726127112"><ele>1865.0</ele><time>2026-05-05T10:10:52Z</time></trkpt><trkpt lat="31.00920264930883" lon="-6.092353169305114"><ele>1865.0</ele><time>2026-05-05T10:10:53Z</time></trkpt><trkpt lat="31.0092047240907" lon="-6.092457454041094"><ele>1865.0</ele><time>2026-05-05T10:10:54Z</time></trkpt><trkpt lat="31.00918501709126" lon="-6.092557446400877"><ele>1865.0</ele><time>2026-05-05T10:10:55Z</time></trkpt><trkpt lat="31.009140758891803" lon="-6.092652227258471"><ele>1865.0</ele><time>2026-05-05T10:10:56Z</time></trkpt><trkpt lat="31.009081938003288" lon="-6.092744143074942"><ele>1868.0</ele><time>2026-05-05T10:10:57Z</time></trkpt><trkpt lat="31.00900814411333" lon="-6.092829314680451"><ele>1871.0</ele><time>2026-05-05T10:10:58Z</time></trkpt><trkpt lat="31.0089298407207" lon="-6.0929088651763"><ele>1874.0</ele><time>2026-05-05T10:10:59Z</time></trkpt><trkpt lat="31.00884948106118" lon="-6.092986088316796"><ele>1877.0</ele><time>2026-05-05T10:11:00Z</time></trkpt><trkpt lat="31.008759758361332" lon="-6.0930562472861665"><ele>1880.0</ele><time>2026-05-05T10:11:01Z</time></trkpt><trkpt lat="31.0086628806132" lon="-6.093116291185785"><ele>1880.0</ele><time>2026-05-05T10:11:02Z</time></trkpt><trkpt lat="31.0085706608732" lon="-6.093192492510673"><ele>1880.0</ele><time>2026-05-05T10:11:03Z</time></trkpt><trkpt lat="31.008491010043617" lon="-6.093294635487598"><ele>1880.0</ele><time>2026-05-05T10:11:04Z</time></trkpt><trkpt lat="31.008425610675218" lon="-6.09340684499346"><ele>1880.0</ele><time>2026-05-05T10:11:05Z</time></trkpt><trkpt lat="31.008376618868947" lon="-6.093516190028811"><ele>1885.2</ele><time>2026-05-05T10:11:06Z</time></trkpt><trkpt lat="31.008325468206145" lon="-6.093622186039664"><ele>1890.4</ele><time>2026-05-05T10:11:07Z</time></trkpt><trkpt lat="31.008259123359444" lon="-6.093721446987363"><ele>1895.6</ele><time>2026-05-05T10:11:08Z</time></trkpt><trkpt lat="31.008189026953737" lon="-6.093824675245921"><ele>1900.8</ele><time>2026-05-05T10:11:09Z</time></trkpt><trkpt lat="31.00811076916459" lon="-6.09392142647221"><ele>1906.0</ele><time>2026-05-05T10:11:10Z</time></trkpt><trkpt lat="31.008035615371128" lon="-6.094022432119308"><ele>1903.8</ele><time>2026-05-05T10:11:11Z</time></trkpt><trkpt lat="31.007966955841937" lon="-6.094123735249072"><ele>1901.6</ele><time>2026-05-05T10:11:12Z</time></trkpt><trkpt lat="31.007904580394538" lon="-6.094222340351176"><ele>1899.4</ele><time>2026-05-05T10:11:13Z</time></trkpt><trkpt lat="31.00783405418232" lon="-6.094315946754687"><ele>1897.2</ele><time>2026-05-05T10:11:14Z</time></trkpt><trkpt lat="31.00774981304496" lon="-6.0943997793035525"><ele>1895.0</ele><time>2026-05-05T10:11:15Z</time></trkpt><trkpt lat="31.007657682619737" lon="-6.0944757915374"><ele>1895.0</ele><time>2026-05-05T10:11:16Z</time></trkpt><trkpt lat="31.007557808500977" lon="-6.094542223025095"><ele>1895.0</ele><time>2026-05-05T10:11:17Z</time></trkpt><trkpt lat="31.007457020780713" lon="-6.094609831379017"><ele>1895.0</ele><time>2026-05-05T10:11:18Z</time></trkpt><trkpt lat="31.00736084961889" lon="-6.094679767285862"><ele>1895.0</ele><time>2026-05-05T10:11:19Z</time></trkpt><trkpt lat="31.00726339227925" lon="-6.09474709479691"><ele>1895.6</ele><time>2026-05-05T10:11:20Z</time></trkpt><trkpt lat="31.007164735229775" lon="-6.0948108314878136"><ele>1896.2</ele><time>2026-05-05T10:11:21Z</time></trkpt><trkpt lat="31.007069590871254" lon="-6.094874129468718"><ele>1896.8000000000002</ele><time>2026-05-05T10:11:22Z</time></trkpt><trkpt lat="31.00697324839033" lon="-6.0949309711543025"><ele>1897.4</ele><time>2026-05-05T10:11:23Z</time></trkpt><trkpt lat="31.006867871607408" lon="-6.094985997884831"><ele>1898.0</ele><time>2026-05-05T10:11:24Z</time></trkpt><trkpt lat="31.00675275919608" lon="-6.095039466344877"><ele>1903.75</ele><time>2026-05-05T10:11:25Z</time></trkpt><trkpt lat="31.006639027599775" lon="-6.0950876817153254"><ele>1909.5</ele><time>2026-05-05T10:11:26Z</time></trkpt><trkpt lat="31.006529957185396" lon="-6.0951292909621815"><ele>1915.25</ele><time>2026-05-05T10:11:27Z</time></trkpt><trkpt lat="31.006422297279453" lon="-6.095163037319377"><ele>1921.0</ele><time>2026-05-05T10:11:28Z</time></trkpt><trkpt lat="31.006319384588796" lon="-6.09519135508633"><ele>1921.0</ele><time>2026-05-05T10:11:29Z</time></trkpt><trkpt lat="31.006217727138324" lon="-6.095236665277599"><ele>1921.0</ele><time>2026-05-05T10:11:30Z</time></trkpt><trkpt lat="31.006121659223147" lon="-6.095303537786432"><ele>1921.0</ele><time>2026-05-05T10:11:31Z</time></trkpt><trkpt lat="31.006035009892805" lon="-6.095375993301044"><ele>1921.0</ele><time>2026-05-05T10:11:32Z</time></trkpt><trkpt lat="31.00594715285336" lon="-6.095436719686528"><ele>1921.0</ele><time>2026-05-05T10:11:33Z</time></trkpt><trkpt lat="31.00584343218823" lon="-6.095475805811529"><ele>1928.0</ele><time>2026-05-05T10:11:34Z</time></trkpt><trkpt lat="31.005738157282543" lon="-6.095502996154703"><ele>1935.0</ele><time>2026-05-05T10:11:35Z</time></trkpt><trkpt lat="31.005621964955182" lon="-6.095525333591503"><ele>1942.0</ele><time>2026-05-05T10:11:36Z</time></trkpt><trkpt lat="31.005498799594573" lon="-6.095544774923972"><ele>1949.0</ele><time>2026-05-05T10:11:37Z</time></trkpt><trkpt lat="31.00537351197795" lon="-6.095572014753708"><ele>1949.0</ele><time>2026-05-05T10:11:38Z</time></trkpt><trkpt lat="31.00525255914996" lon="-6.095596200316212"><ele>1949.0</ele><time>2026-05-05T10:11:39Z</time></trkpt><trkpt lat="31.005140398899602" lon="-6.0956418507807975"><ele>1949.0</ele><time>2026-05-05T10:11:40Z</time></trkpt><trkpt lat="31.005039803826815" lon="-6.095695759466154"><ele>1949.0</ele><time>2026-05-05T10:11:41Z</time></trkpt><trkpt lat="31.00494483416748" lon="-6.095768812062857"><ele>1946.5</ele><time>2026-05-05T10:11:42Z</time></trkpt><trkpt lat="31.004864384475642" lon="-6.095847865193214"><ele>1944.0</ele><time>2026-05-05T10:11:43Z</time></trkpt><trkpt lat="31.00477603212484" lon="-6.095933105088488"><ele>1941.5</ele><time>2026-05-05T10:11:44Z</time></trkpt><trkpt lat="31.004689912156202" lon="-6.096038276133305"><ele>1939.0</ele><time>2026-05-05T10:11:45Z</time></trkpt><trkpt lat="31.004600132342034" lon="-6.096142385380043"><ele>1939.0</ele><time>2026-05-05T10:11:46Z</time></trkpt><trkpt lat="31.004504379277726" lon="-6.096245660341089"><ele>1939.0</ele><time>2026-05-05T10:11:47Z</time></trkpt><trkpt lat="31.004412666580613" lon="-6.096348160768785"><ele>1939.0</ele><time>2026-05-05T10:11:48Z</time></trkpt><trkpt lat="31.004328793353203" lon="-6.096455386779719"><ele>1939.0</ele><time>2026-05-05T10:11:49Z</time></trkpt><trkpt lat="31.004256348209907" lon="-6.096571118581864"><ele>1935.75</ele><time>2026-05-05T10:11:50Z</time></trkpt><trkpt lat="31.004198550866366" lon="-6.096695260880623"><ele>1932.5</ele><time>2026-05-05T10:11:51Z</time></trkpt><trkpt lat="31.004153058210743" lon="-6.096825921586998"><ele>1929.25</ele><time>2026-05-05T10:11:52Z</time></trkpt><trkpt lat="31.004109441318075" lon="-6.09694466793257"><ele>1926.0</ele><time>2026-05-05T10:11:53Z</time></trkpt><trkpt lat="31.004072766541686" lon="-6.09707143439869"><ele>1926.0</ele><time>2026-05-05T10:11:54Z</time></trkpt><trkpt lat="31.004047676470282" lon="-6.097205419471269"><ele>1926.0</ele><time>2026-05-05T10:11:55Z</time></trkpt><trkpt lat="31.00402581682469" lon="-6.09733936533428"><ele>1926.0</ele><time>2026-05-05T10:11:56Z</time></trkpt><trkpt lat="31.00400308195514" lon="-6.097461723093307"><ele>1926.0</ele><time>2026-05-05T10:11:57Z</time></trkpt><trkpt lat="31.003976581374012" lon="-6.097576796815263"><ele>1926.0</ele><time>2026-05-05T10:11:58Z</time></trkpt><trkpt lat="31.00393874500409" lon="-6.097689482413135"><ele>1926.1999999999998</ele><time>2026-05-05T10:11:59Z</time></trkpt><trkpt lat="31.003886489858164" lon="-6.097796053384093"><ele>1926.3999999999999</ele><time>2026-05-05T10:12:00Z</time></trkpt><trkpt lat="31.003827797373855" lon="-6.097905391833232"><ele>1926.6</ele><time>2026-05-05T10:12:01Z</time></trkpt><trkpt lat="31.003763051326704" lon="-6.098008478156041"><ele>1926.8</ele><time>2026-05-05T10:12:02Z</time></trkpt><trkpt lat="31.003697994400298" lon="-6.098109409208627"><ele>1927.0</ele><time>2026-05-05T10:12:03Z</time></trkpt><trkpt lat="31.003633969950982" lon="-6.098202604018959"><ele>1924.1999999999998</ele><time>2026-05-05T10:12:04Z</time></trkpt><trkpt lat="31.00356708420696" lon="-6.098277795433923"><ele>1921.3999999999999</ele><time>2026-05-05T10:12:05Z</time></trkpt><trkpt lat="31.003493259090593" lon="-6.098330349200357"><ele>1918.6000000000001</ele><time>2026-05-05T10:12:06Z</time></trkpt><trkpt lat="31.00340825210745" lon="-6.0983625250981195"><ele>1915.8000000000002</ele><time>2026-05-05T10:12:07Z</time></trkpt><trkpt lat="31.003317597864992" lon="-6.098378622837399"><ele>1913.0</ele><time>2026-05-05T10:12:08Z</time></trkpt><trkpt lat="31.00322449153035" lon="-6.098373142846015"><ele>1910.0</ele><time>2026-05-05T10:12:09Z</time></trkpt><trkpt lat="31.00313829900181" lon="-6.098342492592718"><ele>1907.0000000000002</ele><time>2026-05-05T10:12:10Z</time></trkpt><trkpt lat="31.003061612548194" lon="-6.098280544710767"><ele>1904.0000000000002</ele><time>2026-05-05T10:12:11Z</time></trkpt><trkpt lat="31.00300063368945" lon="-6.09819844066538"><ele>1901.0</ele><time>2026-05-05T10:12:12Z</time></trkpt><trkpt lat="31.002958052839215" lon="-6.098093421967997"><ele>1898.0</ele><time>2026-05-05T10:12:13Z</time></trkpt><trkpt lat="31.002935450595615" lon="-6.097978037410353"><ele>1898.0</ele><time>2026-05-05T10:12:14Z</time></trkpt><trkpt lat="31.002928198036138" lon="-6.097842737090743"><ele>1898.0</ele><time>2026-05-05T10:12:15Z</time></trkpt><trkpt lat="31.002920799944285" lon="-6.097700769022234"><ele>1898.0</ele><time>2026-05-05T10:12:16Z</time></trkpt><trkpt lat="31.00292530997092" lon="-6.097567490683655"><ele>1898.0</ele><time>2026-05-05T10:12:17Z</time></trkpt><trkpt lat="31.002951089105906" lon="-6.097432584407669"><ele>1897.0</ele><time>2026-05-05T10:12:18Z</time></trkpt><trkpt lat="31.002983320990396" lon="-6.097300089357444"><ele>1896.0000000000002</ele><time>2026-05-05T10:12:19Z</time></trkpt><trkpt lat="31.00300710501329" lon="-6.097186715675136"><ele>1895.0000000000002</ele><time>2026-05-05T10:12:20Z</time></trkpt><trkpt lat="31.00304159313006" lon="-6.097079177924638"><ele>1894.0</ele><time>2026-05-05T10:12:21Z</time></trkpt><trkpt lat="31.003084943866074" lon="-6.09696925493153"><ele>1893.0</ele><time>2026-05-05T10:12:22Z</time></trkpt><trkpt lat="31.0031426648965" lon="-6.096859879093736"><ele>1893.0</ele><time>2026-05-05T10:12:23Z</time></trkpt><trkpt lat="31.003205928603638" lon="-6.096751034750129"><ele>1893.0</ele><time>2026-05-05T10:12:24Z</time></trkpt><trkpt lat="31.003273222461196" lon="-6.096631779851966"><ele>1893.0</ele><time>2026-05-05T10:12:25Z</time></trkpt><trkpt lat="31.003339412987714" lon="-6.0965161642448304"><ele>1893.0</ele><time>2026-05-05T10:12:26Z</time></trkpt><trkpt lat="31.003406626220066" lon="-6.096394419920579"><ele>1900.75</ele><time>2026-05-05T10:12:27Z</time></trkpt><trkpt lat="31.00346797917412" lon="-6.096273320503748"><ele>1908.5</ele><time>2026-05-05T10:12:28Z</time></trkpt><trkpt lat="31.003528409120516" lon="-6.096151357745414"><ele>1916.25</ele><time>2026-05-05T10:12:29Z</time></trkpt><trkpt lat="31.003582473560332" lon="-6.096027226389156"><ele>1924.0</ele><time>2026-05-05T10:12:29.999Z</time></trkpt><trkpt lat="31.003622465447894" lon="-6.0959119885548665"><ele>1924.0</ele><time>2026-05-05T10:12:30.999Z</time></trkpt><trkpt lat="31.003653616027364" lon="-6.095790285860906"><ele>1924.0</ele><time>2026-05-05T10:12:31.999Z</time></trkpt><trkpt lat="31.003672098373013" lon="-6.095667203839688"><ele>1924.0</ele><time>2026-05-05T10:12:32.999Z</time></trkpt><trkpt lat="31.003677703613295" lon="-6.095548320409809"><ele>1924.0</ele><time>2026-05-05T10:12:33.999Z</time></trkpt><trkpt lat="31.003679692275263" lon="-6.095423645348694"><ele>1924.0</ele><time>2026-05-05T10:12:34.999Z</time></trkpt><trkpt lat="31.00367421062101" lon="-6.095308441222248"><ele>1925.8333333333335</ele><time>2026-05-05T10:12:35.999Z</time></trkpt><trkpt lat="31.003666518313015" lon="-6.095193145761525"><ele>1927.6666666666667</ele><time>2026-05-05T10:12:36.999Z</time></trkpt><trkpt lat="31.003655652454306" lon="-6.095074239810373"><ele>1929.5</ele><time>2026-05-05T10:12:37.999Z</time></trkpt><trkpt lat="31.003645322459988" lon="-6.094964982176676"><ele>1931.3333333333335</ele><time>2026-05-05T10:12:38.999Z</time></trkpt><trkpt lat="31.003632361511798" lon="-6.094885149652535"><ele>1933.1666666666667</ele><time>2026-05-05T10:12:39.999Z</time></trkpt><trkpt lat="31.003602480518794" lon="-6.09481827695314"><ele>1935.0</ele><time>2026-05-05T10:12:40.999Z</time></trkpt><trkpt lat="31.003541597208333" lon="-6.094759708640076"><ele>1939.8</ele><time>2026-05-05T10:12:41.999Z</time></trkpt><trkpt lat="31.003461288287355" lon="-6.094723004937604"><ele>1944.6</ele><time>2026-05-05T10:12:42.999Z</time></trkpt><trkpt lat="31.00337611440176" lon="-6.094707670708268"><ele>1949.4</ele><time>2026-05-05T10:12:43.999Z</time></trkpt><trkpt lat="31.00327740115784" lon="-6.094709059740823"><ele>1954.2</ele><time>2026-05-05T10:12:44.999Z</time></trkpt><trkpt lat="31.003175397520657" lon="-6.094723980202207"><ele>1959.0</ele><time>2026-05-05T10:12:45.999Z</time></trkpt><trkpt lat="31.003070206385907" lon="-6.094745445065615"><ele>1959.0</ele><time>2026-05-05T10:12:46.999Z</time></trkpt><trkpt lat="31.002977899672334" lon="-6.094751700537347"><ele>1959.0</ele><time>2026-05-05T10:12:47.999Z</time></trkpt><trkpt lat="31.002887840443556" lon="-6.094730285369883"><ele>1959.0</ele><time>2026-05-05T10:12:48.999Z</time></trkpt><trkpt lat="31.002795361849742" lon="-6.0946955853634615"><ele>1959.0</ele><time>2026-05-05T10:12:49.999Z</time></trkpt><trkpt lat="31.002705212723463" lon="-6.094648950204237"><ele>1959.0</ele><time>2026-05-05T10:12:50.999Z</time></trkpt><trkpt lat="31.00261061653645" lon="-6.094593372250988"><ele>1959.0</ele><time>2026-05-05T10:12:51.999Z</time></trkpt><trkpt lat="31.0025139424324" lon="-6.094526250671967"><ele>1959.0</ele><time>2026-05-05T10:12:53Z</time></trkpt><trkpt lat="31.002416632785888" lon="-6.094450201659423"><ele>1959.0</ele><time>2026-05-05T10:12:54Z</time></trkpt><trkpt lat="31.002321527797623" lon="-6.0943659710254705"><ele>1959.0</ele><time>2026-05-05T10:12:55Z</time></trkpt><trkpt lat="31.00222808016726" lon="-6.09427697893085"><ele>1953.0</ele><time>2026-05-05T10:12:56Z</time></trkpt><trkpt lat="31.00213994325982" lon="-6.094176927726591"><ele>1947.0</ele><time>2026-05-05T10:12:57Z</time></trkpt><trkpt lat="31.002059428609282" lon="-6.094068925703982"><ele>1941.0</ele><time>2026-05-05T10:12:58Z</time></trkpt><trkpt lat="31.0019856829127" lon="-6.093961194764978"><ele>1935.0</ele><time>2026-05-05T10:12:59Z</time></trkpt><trkpt lat="31.001922387606857" lon="-6.093863333287827"><ele>1935.0</ele><time>2026-05-05T10:13:00Z</time></trkpt><trkpt lat="31.001866299876376" lon="-6.093775864359302"><ele>1935.0</ele><time>2026-05-05T10:13:01Z</time></trkpt><trkpt lat="31.00181869654911" lon="-6.0936829790244165"><ele>1935.0</ele><time>2026-05-05T10:13:02Z</time></trkpt><trkpt lat="31.001786432464492" lon="-6.093591700014184"><ele>1935.0</ele><time>2026-05-05T10:13:03Z</time></trkpt><trkpt lat="31.001777169652627" lon="-6.093494718813982"><ele>1935.0</ele><time>2026-05-05T10:13:04Z</time></trkpt><trkpt lat="31.001785990585432" lon="-6.093386718523677"><ele>1935.0</ele><time>2026-05-05T10:13:05Z</time></trkpt><trkpt lat="31.001809071660023" lon="-6.0932723192773475"><ele>1933.8</ele><time>2026-05-05T10:13:06Z</time></trkpt><trkpt lat="31.00184126199654" lon="-6.093157338462278"><ele>1932.6</ele><time>2026-05-05T10:13:07Z</time></trkpt><trkpt lat="31.00188229484718" lon="-6.093048966227868"><ele>1931.4</ele><time>2026-05-05T10:13:08Z</time></trkpt><trkpt lat="31.00193186408502" lon="-6.0929456983787516"><ele>1930.2</ele><time>2026-05-05T10:13:09Z</time></trkpt><trkpt lat="31.001982041972163" lon="-6.0928435220768575"><ele>1929.0</ele><time>2026-05-05T10:13:10Z</time></trkpt><trkpt lat="31.002038571742354" lon="-6.09273862813791"><ele>1929.0</ele><time>2026-05-05T10:13:11Z</time></trkpt><trkpt lat="31.00210420902847" lon="-6.0926366174813875"><ele>1929.0</ele><time>2026-05-05T10:13:12Z</time></trkpt><trkpt lat="31.002175995065702" lon="-6.092534441028001"><ele>1929.0</ele><time>2026-05-05T10:13:13Z</time></trkpt><trkpt lat="31.002252036430843" lon="-6.092434195767785"><ele>1929.0</ele><time>2026-05-05T10:13:14Z</time></trkpt><trkpt lat="31.002329312133885" lon="-6.092338990548028"><ele>1928.2</ele><time>2026-05-05T10:13:15Z</time></trkpt><trkpt lat="31.00240510578061" lon="-6.0922434014765905"><ele>1927.4</ele><time>2026-05-05T10:13:16Z</time></trkpt><trkpt lat="31.00248314871819" lon="-6.092146457791104"><ele>1926.6</ele><time>2026-05-05T10:13:17Z</time></trkpt><trkpt lat="31.002560123709685" lon="-6.092052997280052"><ele>1925.8</ele><time>2026-05-05T10:13:18Z</time></trkpt><trkpt lat="31.002634177318054" lon="-6.091954984601753"><ele>1925.0</ele><time>2026-05-05T10:13:19Z</time></trkpt><trkpt lat="31.002708349500594" lon="-6.091854569633842"><ele>1928.5</ele><time>2026-05-05T10:13:20Z</time></trkpt><trkpt lat="31.00278500724108" lon="-6.091752835691395"><ele>1932.0</ele><time>2026-05-05T10:13:21Z</time></trkpt><trkpt lat="31.002867734972003" lon="-6.0916608196145665"><ele>1935.5</ele><time>2026-05-05T10:13:22Z</time></trkpt><trkpt lat="31.002952937848356" lon="-6.091574317711841"><ele>1939.0</ele><time>2026-05-05T10:13:23Z</time></trkpt><trkpt lat="31.003032212409124" lon="-6.091489864898647"><ele>1939.0</ele><time>2026-05-05T10:13:24Z</time></trkpt><trkpt lat="31.003108003493068" lon="-6.091400756514894"><ele>1939.0</ele><time>2026-05-05T10:13:25Z</time></trkpt><trkpt lat="31.003169146723522" lon="-6.091311149181204"><ele>1939.0</ele><time>2026-05-05T10:13:26Z</time></trkpt><trkpt lat="31.003224520028255" lon="-6.091216746059484"><ele>1939.0</ele><time>2026-05-05T10:13:27Z</time></trkpt><trkpt lat="31.003271614653503" lon="-6.091113026482241"><ele>1939.0</ele><time>2026-05-05T10:13:28Z</time></trkpt><trkpt lat="31.003326800293046" lon="-6.0910138005429975"><ele>1941.6</ele><time>2026-05-05T10:13:29Z</time></trkpt><trkpt lat="31.00339554563064" lon="-6.090916058131946"><ele>1944.2</ele><time>2026-05-05T10:13:30Z</time></trkpt><trkpt lat="31.00347130702654" lon="-6.09082051066545"><ele>1946.7999999999997</ele><time>2026-05-05T10:13:31Z</time></trkpt><trkpt lat="31.003539153008525" lon="-6.090716553024138"><ele>1949.3999999999999</ele><time>2026-05-05T10:13:32Z</time></trkpt><trkpt lat="31.003598519817068" lon="-6.090603262535477"><ele>1952.0</ele><time>2026-05-05T10:13:33Z</time></trkpt><trkpt lat="31.003657591600287" lon="-6.090487655735057"><ele>1952.0</ele><time>2026-05-05T10:13:34Z</time></trkpt><trkpt lat="31.003720701398375" lon="-6.090371001486668"><ele>1952.0</ele><time>2026-05-05T10:13:35Z</time></trkpt><trkpt lat="31.003783380198485" lon="-6.09024963892439"><ele>1952.0</ele><time>2026-05-05T10:13:36Z</time></trkpt><trkpt lat="31.00384748410843" lon="-6.090132985005643"><ele>1952.0</ele><time>2026-05-05T10:13:37Z</time></trkpt><trkpt lat="31.003906203401126" lon="-6.090021233732115"><ele>1953.0</ele><time>2026-05-05T10:13:38Z</time></trkpt><trkpt lat="31.003953891462444" lon="-6.089908847690414"><ele>1953.9999999999998</ele><time>2026-05-05T10:13:39Z</time></trkpt><trkpt lat="31.004001924088364" lon="-6.089799106802606"><ele>1954.9999999999998</ele><time>2026-05-05T10:13:40Z</time></trkpt><trkpt lat="31.00406483635938" lon="-6.089695791660381"><ele>1956.0</ele><time>2026-05-05T10:13:41Z</time></trkpt><trkpt lat="31.004141117042153" lon="-6.089601349241355"><ele>1957.0</ele><time>2026-05-05T10:13:42Z</time></trkpt><trkpt lat="31.0042206119218" lon="-6.089513791821815"><ele>1957.0</ele><time>2026-05-05T10:13:43Z</time></trkpt><trkpt lat="31.00430985230015" lon="-6.089431804444927"><ele>1957.0</ele><time>2026-05-05T10:13:44Z</time></trkpt><trkpt lat="31.00440485155035" lon="-6.089356549186837"><ele>1957.0</ele><time>2026-05-05T10:13:45Z</time></trkpt><trkpt lat="31.004501018644447" lon="-6.089276750176549"><ele>1957.0</ele><time>2026-05-05T10:13:46Z</time></trkpt><trkpt lat="31.004595956875086" lon="-6.089197243526831"><ele>1957.0</ele><time>2026-05-05T10:13:47Z</time></trkpt><trkpt lat="31.00469101031231" lon="-6.089119124326095"><ele>1956.9999999999998</ele><time>2026-05-05T10:13:48Z</time></trkpt><trkpt lat="31.004783298128682" lon="-6.089047728003514"><ele>1956.9999999999998</ele><time>2026-05-05T10:13:49Z</time></trkpt><trkpt lat="31.004875315489734" lon="-6.088979343299717"><ele>1957.0</ele><time>2026-05-05T10:13:50Z</time></trkpt><trkpt lat="31.004977067159647" lon="-6.088922200723578"><ele>1957.0</ele><time>2026-05-05T10:13:51Z</time></trkpt><trkpt lat="31.00508497480029" lon="-6.088872722953614"><ele>1957.0</ele><time>2026-05-05T10:13:52Z</time></trkpt><trkpt lat="31.00519242766977" lon="-6.088830064159198"><ele>1956.9999999999998</ele><time>2026-05-05T10:13:53Z</time></trkpt><trkpt lat="31.005303061703053" lon="-6.088797395775281"><ele>1956.9999999999998</ele><time>2026-05-05T10:13:54Z</time></trkpt><trkpt lat="31.005404696940023" lon="-6.088766559547682"><ele>1957.0</ele><time>2026-05-05T10:13:55Z</time></trkpt><trkpt lat="31.005511640215897" lon="-6.088733427093962"><ele>1957.0</ele><time>2026-05-05T10:13:56Z</time></trkpt><trkpt lat="31.005620424696268" lon="-6.0886918454288494"><ele>1957.0</ele><time>2026-05-05T10:13:57Z</time></trkpt><trkpt lat="31.005726626183524" lon="-6.088651435903997"><ele>1956.9999999999998</ele><time>2026-05-05T10:13:58Z</time></trkpt><trkpt lat="31.005827073566184" lon="-6.088620449201242"><ele>1956.9999999999998</ele><time>2026-05-05T10:13:59Z</time></trkpt><trkpt lat="31.005921514536595" lon="-6.088591440598934"><ele>1957.0</ele><time>2026-05-05T10:14:00Z</time></trkpt><trkpt lat="31.006014342160217" lon="-6.088575880294084"><ele>1957.0</ele><time>2026-05-05T10:14:01Z</time></trkpt><trkpt lat="31.00610400913795" lon="-6.088562538845996"><ele>1958.3333333333335</ele><time>2026-05-05T10:14:02Z</time></trkpt><trkpt lat="31.006175806123988" lon="-6.088539037423092"><ele>1959.6666666666667</ele><time>2026-05-05T10:14:03Z</time></trkpt><trkpt lat="31.006247431272758" lon="-6.088513408666697"><ele>1961.0</ele><time>2026-05-05T10:14:04Z</time></trkpt><trkpt lat="31.006318002264727" lon="-6.088468564543566"><ele>1962.3333333333335</ele><time>2026-05-05T10:14:05Z</time></trkpt><trkpt lat="31.00638399009295" lon="-6.0884053983966595"><ele>1963.6666666666667</ele><time>2026-05-05T10:14:06Z</time></trkpt><trkpt lat="31.0064258862818" lon="-6.088318974003565"><ele>1965.0</ele><time>2026-05-05T10:14:07Z</time></trkpt><trkpt lat="31.006442882520997" lon="-6.088213540517229"><ele>1965.8</ele><time>2026-05-05T10:14:08Z</time></trkpt><trkpt lat="31.006442678986215" lon="-6.0881007170423445"><ele>1966.6</ele><time>2026-05-05T10:14:09Z</time></trkpt><trkpt lat="31.00642239706416" lon="-6.087971519364637"><ele>1967.4</ele><time>2026-05-05T10:14:10Z</time></trkpt><trkpt lat="31.006386186632138" lon="-6.087843173003004"><ele>1968.2</ele><time>2026-05-05T10:14:11Z</time></trkpt><trkpt lat="31.006323688064676" lon="-6.087717828669582"><ele>1969.0</ele><time>2026-05-05T10:14:12Z</time></trkpt><trkpt lat="31.00624951720847" lon="-6.0875853749532824"><ele>1969.0</ele><time>2026-05-05T10:14:13Z</time></trkpt><trkpt lat="31.006169137155055" lon="-6.087464208055295"><ele>1969.0</ele><time>2026-05-05T10:14:14Z</time></trkpt><trkpt lat="31.006093527755198" lon="-6.087346655693324"><ele>1969.0</ele><time>2026-05-05T10:14:15Z</time></trkpt><trkpt lat="31.006020011948763" lon="-6.087235681677569"><ele>1969.0</ele><time>2026-05-05T10:14:16Z</time></trkpt><trkpt lat="31.00594314236189" lon="-6.087131306234511"><ele>1969.8000000000002</ele><time>2026-05-05T10:14:17Z</time></trkpt><trkpt lat="31.005875187191723" lon="-6.08703140544436"><ele>1970.6000000000001</ele><time>2026-05-05T10:14:18Z</time></trkpt><trkpt lat="31.005814223122307" lon="-6.0869407055806075"><ele>1971.4</ele><time>2026-05-05T10:14:19Z</time></trkpt><trkpt lat="31.00574272014722" lon="-6.086839515758301"><ele>1972.2</ele><time>2026-05-05T10:14:20Z</time></trkpt><trkpt lat="31.005667716793646" lon="-6.086745307920932"><ele>1973.0</ele><time>2026-05-05T10:14:21Z</time></trkpt><trkpt lat="31.005592411353952" lon="-6.086649250093572"><ele>1976.25</ele><time>2026-05-05T10:14:22Z</time></trkpt><trkpt lat="31.005515651531507" lon="-6.086549198299788"><ele>1979.5</ele><time>2026-05-05T10:14:22.999Z</time></trkpt><trkpt lat="31.0054383126964" lon="-6.086439506197148"><ele>1982.75</ele><time>2026-05-05T10:14:23.999Z</time></trkpt><trkpt lat="31.005371365786857" lon="-6.086336794912653"><ele>1986.0</ele><time>2026-05-05T10:14:24.999Z</time></trkpt><trkpt lat="31.005298485518935" lon="-6.0862331992516365"><ele>1986.0</ele><time>2026-05-05T10:14:25.999Z</time></trkpt><trkpt lat="31.005216051796957" lon="-6.086154971722977"><ele>1986.0</ele><time>2026-05-05T10:14:26.999Z</time></trkpt><trkpt lat="31.005129164327315" lon="-6.0860827192088065"><ele>1986.0</ele><time>2026-05-05T10:14:27.999Z</time></trkpt><trkpt lat="31.005031524069512" lon="-6.086028871530908"><ele>1986.0</ele><time>2026-05-05T10:14:28.999Z</time></trkpt><trkpt lat="31.004930456882025" lon="-6.085992709951516"><ele>1986.0</ele><time>2026-05-05T10:14:29.999Z</time></trkpt><trkpt lat="31.004816445368025" lon="-6.085966261133352"><ele>1985.1999999999998</ele><time>2026-05-05T10:14:30.999Z</time></trkpt><trkpt lat="31.0047022465034" lon="-6.085951099301801"><ele>1984.3999999999999</ele><time>2026-05-05T10:14:31.999Z</time></trkpt><trkpt lat="31.004595864894856" lon="-6.085937152528077"><ele>1983.6</ele><time>2026-05-05T10:14:32.999Z</time></trkpt><trkpt lat="31.004502080103588" lon="-6.085921948918376"><ele>1982.8</ele><time>2026-05-05T10:14:33.999Z</time></trkpt><trkpt lat="31.004418591305583" lon="-6.085892728917561"><ele>1982.0</ele><time>2026-05-05T10:14:34.999Z</time></trkpt><trkpt lat="31.004345628794862" lon="-6.08584776016842"><ele>1982.0000000000002</ele><time>2026-05-05T10:14:35.999Z</time></trkpt><trkpt lat="31.004283701579794" lon="-6.085790354112023"><ele>1982.0</ele><time>2026-05-05T10:14:36.999Z</time></trkpt><trkpt lat="31.004243794821328" lon="-6.085716824741649"><ele>1982.0000000000002</ele><time>2026-05-05T10:14:37.999Z</time></trkpt><trkpt lat="31.00423347151477" lon="-6.08563842541645"><ele>1982.0000000000002</ele><time>2026-05-05T10:14:38.999Z</time></trkpt><trkpt lat="31.00424490788806" lon="-6.085564282515394"><ele>1982.0</ele><time>2026-05-05T10:14:39.999Z</time></trkpt><trkpt lat="31.00427176066471" lon="-6.0854862193567625"><ele>1982.0000000000002</ele><time>2026-05-05T10:14:40.999Z</time></trkpt><trkpt lat="31.004311394346267" lon="-6.085407601007122"><ele>1982.0000000000002</ele><time>2026-05-05T10:14:41.999Z</time></trkpt><trkpt lat="31.004348673591938" lon="-6.085327442773046"><ele>1983.1428571428573</ele><time>2026-05-05T10:14:42.999Z</time></trkpt><trkpt lat="31.00436736131289" lon="-6.085252811464365"><ele>1984.2857142857142</ele><time>2026-05-05T10:14:43.999Z</time></trkpt><trkpt lat="31.00435637979428" lon="-6.085178767477661"><ele>1985.4285714285716</ele><time>2026-05-05T10:14:44.999Z</time></trkpt><trkpt lat="31.004318389750583" lon="-6.085119299978835"><ele>1986.5714285714287</ele><time>2026-05-05T10:14:45.999Z</time></trkpt><trkpt lat="31.0042633398028" lon="-6.085073753397143"><ele>1987.7142857142858</ele><time>2026-05-05T10:14:46.999Z</time></trkpt><trkpt lat="31.00418696664244" lon="-6.085039711154985"><ele>1988.857142857143</ele><time>2026-05-05T10:14:47.999Z</time></trkpt><trkpt lat="31.00410184900798" lon="-6.085028024083024"><ele>1990.0</ele><time>2026-05-05T10:14:48.999Z</time></trkpt><trkpt lat="31.004012629252024" lon="-6.085022037204791"><ele>1990.0</ele><time>2026-05-05T10:14:49.999Z</time></trkpt><trkpt lat="31.00391952191656" lon="-6.085011805290981"><ele>1990.0</ele><time>2026-05-05T10:14:50.999Z</time></trkpt><trkpt lat="31.003834526901617" lon="-6.084975393506382"><ele>1990.0</ele><time>2026-05-05T10:14:51.999Z</time></trkpt><trkpt lat="31.003742350022744" lon="-6.084909391489533"><ele>1990.0</ele><time>2026-05-05T10:14:52.999Z</time></trkpt><trkpt lat="31.003642913574637" lon="-6.084819791235695"><ele>1990.0</ele><time>2026-05-05T10:14:53.999Z</time></trkpt><trkpt lat="31.003537825910296" lon="-6.084724615990304"><ele>1992.5</ele><time>2026-05-05T10:14:54.999Z</time></trkpt><trkpt lat="31.003427694245623" lon="-6.084621848773755"><ele>1995.0</ele><time>2026-05-05T10:14:55.999Z</time></trkpt><trkpt lat="31.003332282827312" lon="-6.08454056957694"><ele>1997.5</ele><time>2026-05-05T10:14:56.999Z</time></trkpt><trkpt lat="31.0032479085064" lon="-6.0844699353383405"><ele>2000.0</ele><time>2026-05-05T10:14:57.999Z</time></trkpt><trkpt lat="31.003165046653827" lon="-6.084398863291564"><ele>2000.0</ele><time>2026-05-05T10:14:59Z</time></trkpt><trkpt lat="31.00308987717898" lon="-6.084330793527251"><ele>2000.0</ele><time>2026-05-05T10:15:00Z</time></trkpt><trkpt lat="31.003015403132938" lon="-6.084251740478617"><ele>2000.0</ele><time>2026-05-05T10:15:01Z</time></trkpt><trkpt lat="31.00295160146291" lon="-6.084179047514012"><ele>2000.0</ele><time>2026-05-05T10:15:02Z</time></trkpt><trkpt lat="31.00288848168033" lon="-6.084100931176486"><ele>2000.0</ele><time>2026-05-05T10:15:03Z</time></trkpt><trkpt lat="31.0028186062791" lon="-6.084031286367631"><ele>2004.6</ele><time>2026-05-05T10:15:04Z</time></trkpt><trkpt lat="31.00274445948696" lon="-6.083976249214399"><ele>2009.2</ele><time>2026-05-05T10:15:05Z</time></trkpt><trkpt lat="31.002657141831406" lon="-6.083938622202612"><ele>2013.8000000000002</ele><time>2026-05-05T10:15:06Z</time></trkpt><trkpt lat="31.00255727120789" lon="-6.083908162160126"><ele>2018.4</ele><time>2026-05-05T10:15:07Z</time></trkpt><trkpt lat="31.002461526608972" lon="-6.083886217704955"><ele>2023.0</ele><time>2026-05-05T10:15:08Z</time></trkpt><trkpt lat="31.002355200458535" lon="-6.083874729986984"><ele>2023.0</ele><time>2026-05-05T10:15:09Z</time></trkpt><trkpt lat="31.00224983675932" lon="-6.083865657617888"><ele>2023.0000000000002</ele><time>2026-05-05T10:15:10Z</time></trkpt><trkpt lat="31.00215495582919" lon="-6.08386031272325"><ele>2023.0000000000002</ele><time>2026-05-05T10:15:11Z</time></trkpt><trkpt lat="31.00206800468317" lon="-6.083833753110652"><ele>2023.0</ele><time>2026-05-05T10:15:12Z</time></trkpt><trkpt lat="31.00197899741993" lon="-6.083786655298742"><ele>2023.0</ele><time>2026-05-05T10:15:13Z</time></trkpt><trkpt lat="31.001902045624675" lon="-6.083743504476843"><ele>2023.0</ele><time>2026-05-05T10:15:14Z</time></trkpt><trkpt lat="31.001829719694978" lon="-6.0836714842690025"><ele>2023.0000000000002</ele><time>2026-05-05T10:15:15Z</time></trkpt><trkpt lat="31.001765069628405" lon="-6.083612017817779"><ele>2023.0000000000002</ele><time>2026-05-05T10:15:16Z</time></trkpt><trkpt lat="31.001683246030108" lon="-6.083543417276076"><ele>2023.0</ele><time>2026-05-05T10:15:17Z</time></trkpt><trkpt lat="31.00160404866213" lon="-6.083484188282435"><ele>2023.0</ele><time>2026-05-05T10:15:18Z</time></trkpt><trkpt lat="31.00151660892404" lon="-6.083422301025344"><ele>2020.5</ele><time>2026-05-05T10:15:19Z</time></trkpt><trkpt lat="31.001422989954456" lon="-6.083362602885649"><ele>2018.0</ele><time>2026-05-05T10:15:20Z</time></trkpt><trkpt lat="31.001313760908936" lon="-6.083304737769039"><ele>2015.5</ele><time>2026-05-05T10:15:21Z</time></trkpt><trkpt lat="31.001196761920642" lon="-6.083252704912454"><ele>2013.0</ele><time>2026-05-05T10:15:22Z</time></trkpt><trkpt lat="31.00108829639232" lon="-6.083210260199407"><ele>2019.8000000000002</ele><time>2026-05-05T10:15:23Z</time></trkpt><trkpt lat="31.0009783725967" lon="-6.0831924409310085"><ele>2026.6000000000001</ele><time>2026-05-05T10:15:24Z</time></trkpt><trkpt lat="31.000867545996293" lon="-6.083197990720975"><ele>2033.3999999999999</ele><time>2026-05-05T10:15:25Z</time></trkpt><trkpt lat="31.000761221575193" lon="-6.083222938099464"><ele>2040.1999999999998</ele><time>2026-05-05T10:15:26Z</time></trkpt><trkpt lat="31.00065833732716" lon="-6.083242426547495"><ele>2047.0</ele><time>2026-05-05T10:15:27Z</time></trkpt><trkpt lat="31.00055255167403" lon="-6.0832405216182925"><ele>2047.0</ele><time>2026-05-05T10:15:28Z</time></trkpt><trkpt lat="31.000442832241976" lon="-6.083213691953312"><ele>2047.0</ele><time>2026-05-05T10:15:29Z</time></trkpt><trkpt lat="31.00032325460382" lon="-6.083166332974747"><ele>2047.0</ele><time>2026-05-05T10:15:30Z</time></trkpt><trkpt lat="31.00021947808924" lon="-6.083116247210268"><ele>2047.0</ele><time>2026-05-05T10:15:31Z</time></trkpt><trkpt lat="31.000123179718898" lon="-6.083072169148821"><ele>2047.0</ele><time>2026-05-05T10:15:32Z</time></trkpt><trkpt lat="31.000039622103387" lon="-6.083048059519493"><ele>2046.9999999999998</ele><time>2026-05-05T10:15:33Z</time></trkpt><trkpt lat="30.999948344135614" lon="-6.083040323900324"><ele>2046.9999999999998</ele><time>2026-05-05T10:15:34Z</time></trkpt><trkpt lat="30.999856872131257" lon="-6.083064829475705"><ele>2047.0</ele><time>2026-05-05T10:15:35Z</time></trkpt><trkpt lat="30.999770811642716" lon="-6.083114533438844"><ele>2047.0</ele><time>2026-05-05T10:15:36Z</time></trkpt><trkpt lat="30.9996730200011" lon="-6.083192409367168"><ele>2039.75</ele><time>2026-05-05T10:15:37Z</time></trkpt><trkpt lat="30.99956928767019" lon="-6.0832716141916885"><ele>2032.5</ele><time>2026-05-05T10:15:38Z</time></trkpt><trkpt lat="30.99945601233728" lon="-6.083334007420265"><ele>2025.25</ele><time>2026-05-05T10:15:39Z</time></trkpt><trkpt lat="30.999340610696343" lon="-6.0833939612141315"><ele>2018.0</ele><time>2026-05-05T10:15:40Z</time></trkpt><trkpt lat="30.999234434831305" lon="-6.083456996799152"><ele>2021.5</ele><time>2026-05-05T10:15:41Z</time></trkpt><trkpt lat="30.999126659755134" lon="-6.083533788303752"><ele>2025.0</ele><time>2026-05-05T10:15:42Z</time></trkpt><trkpt lat="30.99902478950975" lon="-6.083611621028695"><ele>2028.5</ele><time>2026-05-05T10:15:43Z</time></trkpt><trkpt lat="30.99891552424209" lon="-6.0836843814421115"><ele>2032.0</ele><time>2026-05-05T10:15:44Z</time></trkpt><trkpt lat="30.998795296021576" lon="-6.083750917557589"><ele>2032.0</ele><time>2026-05-05T10:15:45Z</time></trkpt><trkpt lat="30.998666594141415" lon="-6.083811704748247"><ele>2032.0</ele><time>2026-05-05T10:15:46Z</time></trkpt><trkpt lat="30.998539181029027" lon="-6.083864792905884"><ele>2032.0</ele><time>2026-05-05T10:15:47Z</time></trkpt><trkpt lat="30.99840862983013" lon="-6.083917764377403"><ele>2032.0</ele><time>2026-05-05T10:15:48Z</time></trkpt><trkpt lat="30.998277458695433" lon="-6.083967596456752"><ele>2029.25</ele><time>2026-05-05T10:15:49Z</time></trkpt><trkpt lat="30.99815022813996" lon="-6.084025806247707"><ele>2026.5</ele><time>2026-05-05T10:15:50Z</time></trkpt><trkpt lat="30.998022964971973" lon="-6.084092730027866"><ele>2023.75</ele><time>2026-05-05T10:15:51Z</time></trkpt><trkpt lat="30.997892021770475" lon="-6.084153657127121"><ele>2021.0</ele><time>2026-05-05T10:15:52Z</time></trkpt><trkpt lat="30.99776270056749" lon="-6.084201067592697"><ele>2021.0</ele><time>2026-05-05T10:15:53Z</time></trkpt><trkpt lat="30.997641442786204" lon="-6.084246878823315"><ele>2021.0</ele><time>2026-05-05T10:15:54Z</time></trkpt><trkpt lat="30.99753283822226" lon="-6.08428967997084"><ele>2021.0</ele><time>2026-05-05T10:15:55Z</time></trkpt><trkpt lat="30.997413457664948" lon="-6.084326331055244"><ele>2021.0</ele><time>2026-05-05T10:15:56Z</time></trkpt><trkpt lat="30.99729896405507" lon="-6.0843448094395525"><ele>2023.5</ele><time>2026-05-05T10:15:57Z</time></trkpt><trkpt lat="30.997186284741566" lon="-6.084349157387151"><ele>2026.0</ele><time>2026-05-05T10:15:58Z</time></trkpt><trkpt lat="30.997068415555955" lon="-6.08433462956032"><ele>2028.5</ele><time>2026-05-05T10:15:59Z</time></trkpt><trkpt lat="30.996946987589496" lon="-6.084296822947482"><ele>2031.0</ele><time>2026-05-05T10:16:00Z</time></trkpt><trkpt lat="30.996822522926735" lon="-6.0842443001327435"><ele>2031.0</ele><time>2026-05-05T10:16:01Z</time></trkpt><trkpt lat="30.99669293860651" lon="-6.0841757790239415"><ele>2031.0</ele><time>2026-05-05T10:16:02Z</time></trkpt><trkpt lat="30.996567963061857" lon="-6.0840916769523705"><ele>2031.0</ele><time>2026-05-05T10:16:03Z</time></trkpt><trkpt lat="30.996452409809965" lon="-6.0840140826778155"><ele>2031.0</ele><time>2026-05-05T10:16:04Z</time></trkpt><trkpt lat="30.996350854154002" lon="-6.08394849302004"><ele>2033.8</ele><time>2026-05-05T10:16:05Z</time></trkpt><trkpt lat="30.99625683031177" lon="-6.083895838901796"><ele>2036.6</ele><time>2026-05-05T10:16:06Z</time></trkpt><trkpt lat="30.996172198464134" lon="-6.083850620872672"><ele>2039.4</ele><time>2026-05-05T10:16:07Z</time></trkpt><trkpt lat="30.996081941940282" lon="-6.083791874205079"><ele>2042.2</ele><time>2026-05-05T10:16:08Z</time></trkpt><trkpt lat="30.995988657480932" lon="-6.0837253101964"><ele>2045.0</ele><time>2026-05-05T10:16:09Z</time></trkpt><trkpt lat="30.99589664310011" lon="-6.0836415483562165"><ele>2042.5</ele><time>2026-05-05T10:16:10Z</time></trkpt><trkpt lat="30.995806228022985" lon="-6.0835535540323935"><ele>2040.0</ele><time>2026-05-05T10:16:11Z</time></trkpt><trkpt lat="30.9957154024232" lon="-6.083463630022509"><ele>2037.5</ele><time>2026-05-05T10:16:12Z</time></trkpt><trkpt lat="30.995617707486353" lon="-6.083371259658307"><ele>2035.0</ele><time>2026-05-05T10:16:13Z</time></trkpt><trkpt lat="30.995516656530903" lon="-6.083275288835879"><ele>2037.0</ele><time>2026-05-05T10:16:14Z</time></trkpt><trkpt lat="30.99541099137198" lon="-6.08318051871664"><ele>2039.0</ele><time>2026-05-05T10:16:15Z</time></trkpt><trkpt lat="30.995306675715483" lon="-6.083084078717301"><ele>2041.0</ele><time>2026-05-05T10:16:16Z</time></trkpt><trkpt lat="30.99521401093306" lon="-6.082994604734171"><ele>2043.0</ele><time>2026-05-05T10:16:17Z</time></trkpt><trkpt lat="30.995139709067843" lon="-6.08290537387149"><ele>2043.0</ele><time>2026-05-05T10:16:18Z</time></trkpt><trkpt lat="30.99508796736267" lon="-6.082807608943979"><ele>2043.0</ele><time>2026-05-05T10:16:19Z</time></trkpt><trkpt lat="30.995048291185167" lon="-6.082707710070381"><ele>2043.0</ele><time>2026-05-05T10:16:20Z</time></trkpt><trkpt lat="30.995010717866307" lon="-6.082627571705858"><ele>2043.0</ele><time>2026-05-05T10:16:20.999Z</time></trkpt><trkpt lat="30.99496177838308" lon="-6.082571569068662"><ele>2043.0</ele><time>2026-05-05T10:16:21.999Z</time></trkpt><trkpt lat="30.994893809236704" lon="-6.08252375383047"><ele>2043.0</ele><time>2026-05-05T10:16:22.999Z</time></trkpt><trkpt lat="30.99481283425768" lon="-6.082496026706139"><ele>2041.0</ele><time>2026-05-05T10:16:23.999Z</time></trkpt><trkpt lat="30.994714903550562" lon="-6.08248806407738"><ele>2039.0000000000002</ele><time>2026-05-05T10:16:24.999Z</time></trkpt><trkpt lat="30.994610087965967" lon="-6.082495632853194"><ele>2037.0000000000002</ele><time>2026-05-05T10:16:25.999Z</time></trkpt><trkpt lat="30.994511277436622" lon="-6.082507093192342"><ele>2035.0</ele><time>2026-05-05T10:16:26.999Z</time></trkpt><trkpt lat="30.994409847295522" lon="-6.0825100611902"><ele>2033.0</ele><time>2026-05-05T10:16:27.999Z</time></trkpt><trkpt lat="30.99431246084041" lon="-6.082507336399125"><ele>2033.0</ele><time>2026-05-05T10:16:28.999Z</time></trkpt><trkpt lat="30.99422161249357" lon="-6.082494990266945"><ele>2033.0000000000002</ele><time>2026-05-05T10:16:29.999Z</time></trkpt><trkpt lat="30.99412612240325" lon="-6.082472996971877"><ele>2033.0000000000002</ele><time>2026-05-05T10:16:30.999Z</time></trkpt><trkpt lat="30.994030017246793" lon="-6.082453269078981"><ele>2033.0</ele><time>2026-05-05T10:16:31.999Z</time></trkpt><trkpt lat="30.993934963279013" lon="-6.082432323357306"><ele>2033.0</ele><time>2026-05-05T10:16:32.999Z</time></trkpt><trkpt lat="30.993839019458342" lon="-6.082420624499057"><ele>2028.8000000000002</ele><time>2026-05-05T10:16:33.999Z</time></trkpt><trkpt lat="30.99373834673675" lon="-6.082414036071804"><ele>2024.6000000000001</ele><time>2026-05-05T10:16:34.999Z</time></trkpt><trkpt lat="30.993636429496906" lon="-6.082399851453178"><ele>2020.3999999999999</ele><time>2026-05-05T10:16:35.999Z</time></trkpt><trkpt lat="30.993542381813793" lon="-6.08238409348604"><ele>2016.1999999999998</ele><time>2026-05-05T10:16:36.999Z</time></trkpt><trkpt lat="30.993432540806253" lon="-6.082376234453915"><ele>2012.0</ele><time>2026-05-05T10:16:37.999Z</time></trkpt><trkpt lat="30.993325721355028" lon="-6.082365249665894"><ele>2010.6</ele><time>2026-05-05T10:16:38.999Z</time></trkpt><trkpt lat="30.993227830317686" lon="-6.082358373519939"><ele>2009.1999999999998</ele><time>2026-05-05T10:16:39.999Z</time></trkpt><trkpt lat="30.993121577415923" lon="-6.082341007801534"><ele>2007.8</ele><time>2026-05-05T10:16:40.999Z</time></trkpt><trkpt lat="30.99303323104609" lon="-6.082332576863261"><ele>2006.4</ele><time>2026-05-05T10:16:41.999Z</time></trkpt><trkpt lat="30.992930902502447" lon="-6.082325483504568"><ele>2005.0</ele><time>2026-05-05T10:16:42.999Z</time></trkpt><trkpt lat="30.992837254199323" lon="-6.0823188785472855"><ele>2005.0</ele><time>2026-05-05T10:16:43.999Z</time></trkpt><trkpt lat="30.992750952417992" lon="-6.082310214872345"><ele>2005.0</ele><time>2026-05-05T10:16:44.999Z</time></trkpt><trkpt lat="30.992660643822717" lon="-6.082303794147947"><ele>2005.0</ele><time>2026-05-05T10:16:45.999Z</time></trkpt><trkpt lat="30.992581650405405" lon="-6.082297858891697"><ele>2005.0</ele><time>2026-05-05T10:16:46.999Z</time></trkpt><trkpt lat="30.992486508103713" lon="-6.082285278542792"><ele>2005.0</ele><time>2026-05-05T10:16:47.999Z</time></trkpt><trkpt lat="30.99238835430231" lon="-6.082253155242213"><ele>2003.2</ele><time>2026-05-05T10:16:48.999Z</time></trkpt><trkpt lat="30.9922984589999" lon="-6.082213443442635"><ele>2001.4</ele><time>2026-05-05T10:16:49.999Z</time></trkpt><trkpt lat="30.99221228035774" lon="-6.082178807976777"><ele>1999.6</ele><time>2026-05-05T10:16:50.999Z</time></trkpt><trkpt lat="30.992117648487948" lon="-6.082140570291519"><ele>1997.8</ele><time>2026-05-05T10:16:51.999Z</time></trkpt><trkpt lat="30.99202777506493" lon="-6.082107993538067"><ele>1996.0</ele><time>2026-05-05T10:16:52.999Z</time></trkpt><trkpt lat="30.991938251368158" lon="-6.082082104060194"><ele>1996.0</ele><time>2026-05-05T10:16:53.999Z</time></trkpt><trkpt lat="30.991843193262916" lon="-6.082058792481054"><ele>1996.0</ele><time>2026-05-05T10:16:54.999Z</time></trkpt><trkpt lat="30.99175243489563" lon="-6.082036523370393"><ele>1996.0</ele><time>2026-05-05T10:16:55.999Z</time></trkpt><trkpt lat="30.99165595352082" lon="-6.0820149645697885"><ele>1996.0</ele><time>2026-05-05T10:16:56.999Z</time></trkpt><trkpt lat="30.991557117344126" lon="-6.081988696815914"><ele>1996.0</ele><time>2026-05-05T10:16:57.999Z</time></trkpt><trkpt lat="30.991466547019474" lon="-6.081977892586178"><ele>1995.0</ele><time>2026-05-05T10:16:58.999Z</time></trkpt><trkpt lat="30.991375043144323" lon="-6.081961625979665"><ele>1994.0</ele><time>2026-05-05T10:16:59.999Z</time></trkpt><trkpt lat="30.991280938407566" lon="-6.081956197961894"><ele>1993.0</ele><time>2026-05-05T10:17:00.999Z</time></trkpt><trkpt lat="30.99118717381076" lon="-6.081944719003849"><ele>1992.0</ele><time>2026-05-05T10:17:01.999Z</time></trkpt><trkpt lat="30.991092292582824" lon="-6.081928133189823"><ele>1991.0</ele><time>2026-05-05T10:17:02.999Z</time></trkpt><trkpt lat="30.990996885018912" lon="-6.081903902156544"><ele>1991.0</ele><time>2026-05-05T10:17:03.999Z</time></trkpt><trkpt lat="30.990899990458523" lon="-6.081874349818473"><ele>1991.0</ele><time>2026-05-05T10:17:05Z</time></trkpt><trkpt lat="30.990803690428457" lon="-6.08184071703105"><ele>1991.0</ele><time>2026-05-05T10:17:06Z</time></trkpt><trkpt lat="30.99071037538028" lon="-6.08180930896103"><ele>1991.0</ele><time>2026-05-05T10:17:07Z</time></trkpt><trkpt lat="30.99062344673249" lon="-6.081786297325018"><ele>1991.0</ele><time>2026-05-05T10:17:08Z</time></trkpt><trkpt lat="30.99053694006978" lon="-6.081770802140635"><ele>1990.1999999999998</ele><time>2026-05-05T10:17:09Z</time></trkpt><trkpt lat="30.990444985607777" lon="-6.081753783973873"><ele>1989.3999999999999</ele><time>2026-05-05T10:17:10Z</time></trkpt><trkpt lat="30.990351086124058" lon="-6.081748093718886"><ele>1988.6</ele><time>2026-05-05T10:17:11Z</time></trkpt><trkpt lat="30.99026245361502" lon="-6.0817435676424685"><ele>1987.8</ele><time>2026-05-05T10:17:12Z</time></trkpt><trkpt lat="30.990194913214253" lon="-6.081736108486812"><ele>1987.0</ele><time>2026-05-05T10:17:13Z</time></trkpt><trkpt lat="30.99008899594763" lon="-6.081694476092488"><ele>1987.0000000000002</ele><time>2026-05-05T10:17:15Z</time></trkpt><trkpt lat="30.990042079474428" lon="-6.0816395311966875"><ele>1987.0</ele><time>2026-05-05T10:17:16Z</time></trkpt><trkpt lat="30.990013471423648" lon="-6.081567226675812"><ele>1987.0</ele><time>2026-05-05T10:17:17Z</time></trkpt><trkpt lat="30.99001426621425" lon="-6.081493682119496"><ele>1987.0</ele><time>2026-05-05T10:17:18Z</time></trkpt><trkpt lat="30.990033209479478" lon="-6.081412874873328"><ele>1987.0000000000002</ele><time>2026-05-05T10:17:19Z</time></trkpt><trkpt lat="30.990063728945557" lon="-6.081306899020015"><ele>1987.0</ele><time>2026-05-05T10:17:20Z</time></trkpt><trkpt lat="30.99010236811169" lon="-6.081211561268835"><ele>1985.3333333333335</ele><time>2026-05-05T10:17:21Z</time></trkpt><trkpt lat="30.99013158309933" lon="-6.081121598989044"><ele>1983.6666666666667</ele><time>2026-05-05T10:17:22Z</time></trkpt><trkpt lat="30.990165528155522" lon="-6.081042896263828"><ele>1982.0</ele><time>2026-05-05T10:17:23Z</time></trkpt><trkpt lat="30.99020209489525" lon="-6.08096387561516"><ele>1980.3333333333335</ele><time>2026-05-05T10:17:24Z</time></trkpt><trkpt lat="30.990235804733864" lon="-6.080877783207338"><ele>1978.6666666666667</ele><time>2026-05-05T10:17:25Z</time></trkpt><trkpt lat="30.990255631653113" lon="-6.080792647944689"><ele>1977.0</ele><time>2026-05-05T10:17:26Z</time></trkpt><trkpt lat="30.99025871526" lon="-6.080703125904971"><ele>1976.6666666666667</ele><time>2026-05-05T10:17:27Z</time></trkpt><trkpt lat="30.990254873509937" lon="-6.080613160367569"><ele>1976.3333333333335</ele><time>2026-05-05T10:17:28Z</time></trkpt><trkpt lat="30.990250948060574" lon="-6.080518822951969"><ele>1976.0</ele><time>2026-05-05T10:17:29Z</time></trkpt><trkpt lat="30.990246787738403" lon="-6.080423836312118"><ele>1975.6666666666667</ele><time>2026-05-05T10:17:30Z</time></trkpt><trkpt lat="30.990247271408585" lon="-6.080327986120841"><ele>1975.3333333333335</ele><time>2026-05-05T10:17:31Z</time></trkpt><trkpt lat="30.99025241253696" lon="-6.0802322777377835"><ele>1975.0</ele><time>2026-05-05T10:17:32Z</time></trkpt><trkpt lat="30.990270636707837" lon="-6.0801389074167975"><ele>1975.0000000000002</ele><time>2026-05-05T10:17:33Z</time></trkpt><trkpt lat="30.990298207361313" lon="-6.080049710413518"><ele>1975.0</ele><time>2026-05-05T10:17:34Z</time></trkpt><trkpt lat="30.990340849837025" lon="-6.079978083622232"><ele>1975.0</ele><time>2026-05-05T10:17:35Z</time></trkpt><trkpt lat="30.990378386611305" lon="-6.079907409194019"><ele>1975.0</ele><time>2026-05-05T10:17:36Z</time></trkpt><trkpt lat="30.990400072593232" lon="-6.079835970817838"><ele>1975.0000000000002</ele><time>2026-05-05T10:17:37Z</time></trkpt><trkpt lat="30.990408043222896" lon="-6.079746475454092"><ele>1975.0</ele><time>2026-05-05T10:17:38Z</time></trkpt><trkpt lat="30.990398194715862" lon="-6.079651830513288"><ele>1977.6</ele><time>2026-05-05T10:17:39Z</time></trkpt><trkpt lat="30.99036299323499" lon="-6.0795479471891"><ele>1980.2</ele><time>2026-05-05T10:17:40Z</time></trkpt><trkpt lat="30.990320008309318" lon="-6.079445171754872"><ele>1982.8000000000002</ele><time>2026-05-05T10:17:41Z</time></trkpt><trkpt lat="30.99026292772113" lon="-6.079343665445874"><ele>1985.4</ele><time>2026-05-05T10:17:42Z</time></trkpt><trkpt lat="30.990188675283893" lon="-6.0792426858783415"><ele>1988.0</ele><time>2026-05-05T10:17:43Z</time></trkpt><trkpt lat="30.990103143442354" lon="-6.079149448008638"><ele>1988.25</ele><time>2026-05-05T10:17:44Z</time></trkpt><trkpt lat="30.99001067985466" lon="-6.079056888799847"><ele>1988.5</ele><time>2026-05-05T10:17:45Z</time></trkpt><trkpt lat="30.989914582242154" lon="-6.078963124087114"><ele>1988.75</ele><time>2026-05-05T10:17:46Z</time></trkpt><trkpt lat="30.989814328431255" lon="-6.078882701127125"><ele>1989.0</ele><time>2026-05-05T10:17:47Z</time></trkpt><trkpt lat="30.98971151121602" lon="-6.07881505164147"><ele>1989.0</ele><time>2026-05-05T10:17:48Z</time></trkpt><trkpt lat="30.989601043838004" lon="-6.078742566935494"><ele>1989.0</ele><time>2026-05-05T10:17:49Z</time></trkpt><trkpt lat="30.989500354419317" lon="-6.078652407779156"><ele>1989.0</ele><time>2026-05-05T10:17:50Z</time></trkpt><trkpt lat="30.98940740548311" lon="-6.0785672365770695"><ele>1989.0</ele><time>2026-05-05T10:17:51Z</time></trkpt><trkpt lat="30.98931928634223" lon="-6.078486882538817"><ele>1989.0</ele><time>2026-05-05T10:17:52Z</time></trkpt><trkpt lat="30.989235572897396" lon="-6.078409016103963"><ele>1989.0</ele><time>2026-05-05T10:17:53Z</time></trkpt><trkpt lat="30.989157441137376" lon="-6.078318238277038"><ele>1989.0</ele><time>2026-05-05T10:17:54Z</time></trkpt><trkpt lat="30.989065342779675" lon="-6.078214470317717"><ele>1989.0</ele><time>2026-05-05T10:17:55Z</time></trkpt><trkpt lat="30.988962529516463" lon="-6.078105518000101"><ele>1987.25</ele><time>2026-05-05T10:17:56Z</time></trkpt><trkpt lat="30.988854636180186" lon="-6.077997278089532"><ele>1985.5</ele><time>2026-05-05T10:17:57Z</time></trkpt><trkpt lat="30.98873756339111" lon="-6.077898826345367"><ele>1983.75</ele><time>2026-05-05T10:17:58Z</time></trkpt><trkpt lat="30.98861498912036" lon="-6.077796358572115"><ele>1982.0</ele><time>2026-05-05T10:17:59Z</time></trkpt><trkpt lat="30.988490136167282" lon="-6.077706769296234"><ele>1982.0</ele><time>2026-05-05T10:18:00Z</time></trkpt><trkpt lat="30.98837231446637" lon="-6.077622808280441"><ele>1982.0</ele><time>2026-05-05T10:18:01Z</time></trkpt><trkpt lat="30.98825502913212" lon="-6.077549327343696"><ele>1982.0</ele><time>2026-05-05T10:18:02Z</time></trkpt><trkpt lat="30.9881497992507" lon="-6.077471051542967"><ele>1982.0</ele><time>2026-05-05T10:18:03Z</time></trkpt><trkpt lat="30.98805395541782" lon="-6.077377485291845"><ele>1979.75</ele><time>2026-05-05T10:18:04Z</time></trkpt><trkpt lat="30.987955998056677" lon="-6.0772733199957605"><ele>1977.5</ele><time>2026-05-05T10:18:05Z</time></trkpt><trkpt lat="30.98787028333231" lon="-6.077166770972882"><ele>1975.25</ele><time>2026-05-05T10:18:06Z</time></trkpt><trkpt lat="30.98778169611172" lon="-6.077065355902523"><ele>1973.0</ele><time>2026-05-05T10:18:07Z</time></trkpt><trkpt lat="30.987696978132686" lon="-6.076962612135602"><ele>1973.0</ele><time>2026-05-05T10:18:08Z</time></trkpt><trkpt lat="30.987615727458582" lon="-6.076855447246573"><ele>1973.0</ele><time>2026-05-05T10:18:09Z</time></trkpt><trkpt lat="30.987543827967382" lon="-6.0767540751611975"><ele>1973.0</ele><time>2026-05-05T10:18:10Z</time></trkpt><trkpt lat="30.987460508852944" lon="-6.076645289449772"><ele>1973.0</ele><time>2026-05-05T10:18:11Z</time></trkpt><trkpt lat="30.987381805619293" lon="-6.076546661893148"><ele>1970.6666666666665</ele><time>2026-05-05T10:18:12Z</time></trkpt><trkpt lat="30.987315811957178" lon="-6.076457180235227"><ele>1968.3333333333333</ele><time>2026-05-05T10:18:13Z</time></trkpt><trkpt lat="30.98725715181205" lon="-6.076377132826816"><ele>1966.0</ele><time>2026-05-05T10:18:14Z</time></trkpt><trkpt lat="30.987197347498867" lon="-6.0763040852811905"><ele>1963.6666666666665</ele><time>2026-05-05T10:18:15Z</time></trkpt><trkpt lat="30.98713648511" lon="-6.076235857030767"><ele>1961.3333333333333</ele><time>2026-05-05T10:18:16Z</time></trkpt><trkpt lat="30.987082371313903" lon="-6.0761719467105"><ele>1959.0</ele><time>2026-05-05T10:18:17Z</time></trkpt><trkpt lat="30.98702893171396" lon="-6.076106209500692"><ele>1959.0</ele><time>2026-05-05T10:18:18Z</time></trkpt><trkpt lat="30.98698280513764" lon="-6.0760532332661485"><ele>1959.0</ele><time>2026-05-05T10:18:19Z</time></trkpt><trkpt lat="30.986942499951606" lon="-6.07599473618084"><ele>1959.0</ele><time>2026-05-05T10:18:20Z</time></trkpt><trkpt lat="30.986855001504523" lon="-6.075894920511862"><ele>1959.0</ele><time>2026-05-05T10:18:21.999Z</time></trkpt><trkpt lat="30.986779618401403" lon="-6.07583943374886"><ele>1959.0</ele><time>2026-05-05T10:18:23.999Z</time></trkpt><trkpt lat="30.98671856750844" lon="-6.075797290176732"><ele>1959.0</ele><time>2026-05-05T10:18:25.999Z</time></trkpt><trkpt lat="30.9866564223414" lon="-6.075755369568126"><ele>1957.0</ele><time>2026-05-05T10:19:43Z</time></trkpt><trkpt lat="30.98655028149712" lon="-6.075714028528363"><ele>1955.0</ele><time>2026-05-05T10:19:45Z</time></trkpt><trkpt lat="30.98646118157624" lon="-6.07566768601069"><ele>1953.0</ele><time>2026-05-05T10:19:46Z</time></trkpt><trkpt lat="30.986361126542548" lon="-6.075626920865829"><ele>1951.0</ele><time>2026-05-05T10:19:47Z</time></trkpt><trkpt lat="30.986264625867786" lon="-6.075584116759635"><ele>1949.0</ele><time>2026-05-05T10:19:48Z</time></trkpt><trkpt lat="30.986169188257794" lon="-6.0755212146763675"><ele>1949.0</ele><time>2026-05-05T10:19:49Z</time></trkpt><trkpt lat="30.986079720014544" lon="-6.0754390324996"><ele>1949.0</ele><time>2026-05-05T10:19:50Z</time></trkpt><trkpt lat="30.985989593265376" lon="-6.0753551761212226"><ele>1949.0</ele><time>2026-05-05T10:19:51Z</time></trkpt><trkpt lat="30.985894315495063" lon="-6.075268546833393"><ele>1949.0</ele><time>2026-05-05T10:19:52Z</time></trkpt><trkpt lat="30.985799984267782" lon="-6.075185277229082"><ele>1947.5</ele><time>2026-05-05T10:19:53Z</time></trkpt><trkpt lat="30.985708222767805" lon="-6.075104800119681"><ele>1946.0</ele><time>2026-05-05T10:19:54Z</time></trkpt><trkpt lat="30.9856180984042" lon="-6.075014666030462"><ele>1944.5</ele><time>2026-05-05T10:19:55Z</time></trkpt><trkpt lat="30.985531675524484" lon="-6.074920023715578"><ele>1943.0</ele><time>2026-05-05T10:19:56Z</time></trkpt><trkpt lat="30.98545459374993" lon="-6.074814272887386"><ele>1941.75</ele><time>2026-05-05T10:19:57Z</time></trkpt><trkpt lat="30.985381371272297" lon="-6.074698635244494"><ele>1940.5</ele><time>2026-05-05T10:19:58Z</time></trkpt><trkpt lat="30.985310331976677" lon="-6.074593198585217"><ele>1939.25</ele><time>2026-05-05T10:19:59Z</time></trkpt><trkpt lat="30.985238767911977" lon="-6.0744835637568455"><ele>1938.0</ele><time>2026-05-05T10:20:00Z</time></trkpt><trkpt lat="30.985164206488548" lon="-6.074376289167389"><ele>1938.0</ele><time>2026-05-05T10:20:01Z</time></trkpt><trkpt lat="30.985089368282008" lon="-6.074279826862552"><ele>1938.0</ele><time>2026-05-05T10:20:02Z</time></trkpt><trkpt lat="30.985001243254445" lon="-6.074180977321319"><ele>1938.0</ele><time>2026-05-05T10:20:03Z</time></trkpt><trkpt lat="30.98490684218142" lon="-6.074095409616278"><ele>1938.0</ele><time>2026-05-05T10:20:04Z</time></trkpt><trkpt lat="30.984810867882402" lon="-6.074014071102713"><ele>1936.0</ele><time>2026-05-05T10:20:05Z</time></trkpt><trkpt lat="30.984706294434794" lon="-6.0739261038265635"><ele>1934.0</ele><time>2026-05-05T10:20:06Z</time></trkpt><trkpt lat="30.984599914120803" lon="-6.073843009429946"><ele>1932.0</ele><time>2026-05-05T10:20:07Z</time></trkpt><trkpt lat="30.984488925494556" lon="-6.073760462509755"><ele>1930.0</ele><time>2026-05-05T10:20:08Z</time></trkpt><trkpt lat="30.984376329753957" lon="-6.0736839146792185"><ele>1930.0</ele><time>2026-05-05T10:20:09Z</time></trkpt><trkpt lat="30.984264870972698" lon="-6.073608756174963"><ele>1930.0</ele><time>2026-05-05T10:20:10Z</time></trkpt><trkpt lat="30.98415268129002" lon="-6.073532446255225"><ele>1930.0</ele><time>2026-05-05T10:20:11Z</time></trkpt><trkpt lat="30.984045859652618" lon="-6.073463449435633"><ele>1930.0</ele><time>2026-05-05T10:20:12Z</time></trkpt><trkpt lat="30.98394374045337" lon="-6.073402351114553"><ele>1929.75</ele><time>2026-05-05T10:20:13Z</time></trkpt><trkpt lat="30.983837905817488" lon="-6.073351629444163"><ele>1929.5</ele><time>2026-05-05T10:20:13.999Z</time></trkpt><trkpt lat="30.983718622165508" lon="-6.073314394658769"><ele>1929.25</ele><time>2026-05-05T10:20:14.999Z</time></trkpt><trkpt lat="30.983584731820677" lon="-6.073282167932494"><ele>1929.0</ele><time>2026-05-05T10:20:15.999Z</time></trkpt><trkpt lat="30.98344784198731" lon="-6.07326599940043"><ele>1928.5</ele><time>2026-05-05T10:20:16.999Z</time></trkpt><trkpt lat="30.98332239783042" lon="-6.073245204427083"><ele>1928.0</ele><time>2026-05-05T10:20:17.999Z</time></trkpt><trkpt lat="30.983205522622175" lon="-6.073232865794713"><ele>1927.5</ele><time>2026-05-05T10:20:18.999Z</time></trkpt><trkpt lat="30.983091591036715" lon="-6.073227845991405"><ele>1927.0</ele><time>2026-05-05T10:20:19.999Z</time></trkpt><trkpt lat="30.982994000656856" lon="-6.073224129993284"><ele>1927.0000000000002</ele><time>2026-05-05T10:20:20.999Z</time></trkpt><trkpt lat="30.982911067459128" lon="-6.073239304274214"><ele>1927.0</ele><time>2026-05-05T10:20:21.999Z</time></trkpt><trkpt lat="30.98284349175631" lon="-6.07327428271105"><ele>1927.0</ele><time>2026-05-05T10:20:22.999Z</time></trkpt><trkpt lat="30.982775113155974" lon="-6.073329329141027"><ele>1927.0</ele><time>2026-05-05T10:20:23.999Z</time></trkpt><trkpt lat="30.98271219399553" lon="-6.07340665722837"><ele>1927.0000000000002</ele><time>2026-05-05T10:20:24.999Z</time></trkpt><trkpt lat="30.98263436707229" lon="-6.073505646967288"><ele>1927.0</ele><time>2026-05-05T10:20:25.999Z</time></trkpt><trkpt lat="30.98255321555682" lon="-6.073595371046726"><ele>1926.6</ele><time>2026-05-05T10:20:26.999Z</time></trkpt><trkpt lat="30.982489241961883" lon="-6.073663963709012"><ele>1926.1999999999998</ele><time>2026-05-05T10:20:27.999Z</time></trkpt><trkpt lat="30.982421934262263" lon="-6.07372912144871"><ele>1925.8</ele><time>2026-05-05T10:20:29.999Z</time></trkpt><trkpt lat="30.982360935662435" lon="-6.073789299207641"><ele>1925.4</ele><time>2026-05-05T10:20:38.999Z</time></trkpt><trkpt lat="30.982254729150686" lon="-6.073896030009057"><ele>1925.0</ele><time>2026-05-05T10:20:40.999Z</time></trkpt><trkpt lat="30.982179331956818" lon="-6.073975090677168"><ele>1925.0</ele><time>2026-05-05T10:20:41.999Z</time></trkpt><trkpt lat="30.9820984831423" lon="-6.074056841854535"><ele>1925.0</ele><time>2026-05-05T10:20:42.999Z</time></trkpt><trkpt lat="30.982005316512417" lon="-6.074143731403705"><ele>1925.0</ele><time>2026-05-05T10:20:43.999Z</time></trkpt><trkpt lat="30.981902776044244" lon="-6.074229865223725"><ele>1925.0</ele><time>2026-05-05T10:20:44.999Z</time></trkpt><trkpt lat="30.981796002089126" lon="-6.074308090765215"><ele>1926.25</ele><time>2026-05-05T10:20:45.999Z</time></trkpt><trkpt lat="30.98169951352011" lon="-6.074377357011952"><ele>1927.5</ele><time>2026-05-05T10:20:46.999Z</time></trkpt><trkpt lat="30.98159973385975" lon="-6.07443538625659"><ele>1928.75</ele><time>2026-05-05T10:20:47.999Z</time></trkpt><trkpt lat="30.981493959872747" lon="-6.074490461157719"><ele>1930.0</ele><time>2026-05-05T10:20:48.999Z</time></trkpt><trkpt lat="30.981384762982668" lon="-6.07454924568171"><ele>1930.0</ele><time>2026-05-05T10:20:49.999Z</time></trkpt><trkpt lat="30.981283457815476" lon="-6.074611864373353"><ele>1930.0</ele><time>2026-05-05T10:20:50.999Z</time></trkpt><trkpt lat="30.98118882473551" lon="-6.07468603070917"><ele>1930.0</ele><time>2026-05-05T10:20:51.999Z</time></trkpt><trkpt lat="30.981086954764688" lon="-6.074770214339572"><ele>1930.0</ele><time>2026-05-05T10:20:52.999Z</time></trkpt><trkpt lat="30.98097946205527" lon="-6.07484399321659"><ele>1930.0</ele><time>2026-05-05T10:20:53.999Z</time></trkpt><trkpt lat="30.980878611917397" lon="-6.074918902805222"><ele>1930.0</ele><time>2026-05-05T10:20:54.999Z</time></trkpt><trkpt lat="30.9807769914977" lon="-6.075004319034904"><ele>1930.0</ele><time>2026-05-05T10:20:55.999Z</time></trkpt><trkpt lat="30.980681454007115" lon="-6.0750886872271455"><ele>1930.0</ele><time>2026-05-05T10:20:56.999Z</time></trkpt><trkpt lat="30.980576548063627" lon="-6.075173373075794"><ele>1932.75</ele><time>2026-05-05T10:20:57.999Z</time></trkpt><trkpt lat="30.98047187069166" lon="-6.075257148950257"><ele>1935.5</ele><time>2026-05-05T10:20:58.999Z</time></trkpt><trkpt lat="30.980365717165267" lon="-6.075343672561536"><ele>1938.25</ele><time>2026-05-05T10:20:59.999Z</time></trkpt><trkpt lat="30.980252420412135" lon="-6.075432160467398"><ele>1941.0</ele><time>2026-05-05T10:21:00.999Z</time></trkpt><trkpt lat="30.980130834947865" lon="-6.0755327223203"><ele>1940.0</ele><time>2026-05-05T10:21:01.999Z</time></trkpt><trkpt lat="30.980014551642146" lon="-6.075621640202918"><ele>1939.0</ele><time>2026-05-05T10:21:02.999Z</time></trkpt><trkpt lat="30.97990535691245" lon="-6.075704117461245"><ele>1938.0</ele><time>2026-05-05T10:21:03.999Z</time></trkpt><trkpt lat="30.979789589026463" lon="-6.0757839727732845"><ele>1937.0</ele><time>2026-05-05T10:21:04.999Z</time></trkpt><trkpt lat="30.979677755438825" lon="-6.075868623102217"><ele>1939.25</ele><time>2026-05-05T10:21:05.999Z</time></trkpt><trkpt lat="30.979566166525288" lon="-6.075955033183333"><ele>1941.5</ele><time>2026-05-05T10:21:06.999Z</time></trkpt><trkpt lat="30.97945800328748" lon="-6.0760455093714505"><ele>1943.75</ele><time>2026-05-05T10:21:07.999Z</time></trkpt><trkpt lat="30.979362562370085" lon="-6.0761374294213955"><ele>1946.0</ele><time>2026-05-05T10:21:08.999Z</time></trkpt><trkpt lat="30.97927702596677" lon="-6.076233111707629"><ele>1946.0</ele><time>2026-05-05T10:21:09.999Z</time></trkpt><trkpt lat="30.97918749876298" lon="-6.076322885780013"><ele>1946.0</ele><time>2026-05-05T10:21:10.999Z</time></trkpt><trkpt lat="30.979089522926653" lon="-6.076414174661026"><ele>1946.0</ele><time>2026-05-05T10:21:11.999Z</time></trkpt><trkpt lat="30.978994666595348" lon="-6.076484187694211"><ele>1946.0</ele><time>2026-05-05T10:21:12.999Z</time></trkpt><trkpt lat="30.978889977154726" lon="-6.076540284611093"><ele>1944.5</ele><time>2026-05-05T10:21:13.999Z</time></trkpt><trkpt lat="30.97877532403529" lon="-6.076580855943389"><ele>1943.0</ele><time>2026-05-05T10:21:14.999Z</time></trkpt><trkpt lat="30.978646827627646" lon="-6.076605526723547"><ele>1941.5</ele><time>2026-05-05T10:21:16Z</time></trkpt><trkpt lat="30.978513469958923" lon="-6.0766237475366305"><ele>1940.0</ele><time>2026-05-05T10:21:17Z</time></trkpt><trkpt lat="30.978390810706255" lon="-6.076656055961104"><ele>1941.4</ele><time>2026-05-05T10:21:18Z</time></trkpt><trkpt lat="30.978272754358" lon="-6.076695329578178"><ele>1942.8</ele><time>2026-05-05T10:21:19Z</time></trkpt><trkpt lat="30.97816502113073" lon="-6.07673740100169"><ele>1944.1999999999998</ele><time>2026-05-05T10:21:20Z</time></trkpt><trkpt lat="30.97807158232285" lon="-6.076775542209423"><ele>1945.6</ele><time>2026-05-05T10:21:21Z</time></trkpt><trkpt lat="30.977982289593655" lon="-6.07681343672847"><ele>1947.0</ele><time>2026-05-05T10:21:22Z</time></trkpt><trkpt lat="30.97789305517702" lon="-6.0768486972155875"><ele>1947.0</ele><time>2026-05-05T10:21:23Z</time></trkpt><trkpt lat="30.977804546837895" lon="-6.076861724662001"><ele>1947.0</ele><time>2026-05-05T10:21:24Z</time></trkpt><trkpt lat="30.977710543408733" lon="-6.076864793631057"><ele>1947.0</ele><time>2026-05-05T10:21:25Z</time></trkpt><trkpt lat="30.97762004998389" lon="-6.076853987890361"><ele>1947.0</ele><time>2026-05-05T10:21:26Z</time></trkpt><trkpt lat="30.97754208683829" lon="-6.076821025577207"><ele>1947.0</ele><time>2026-05-05T10:21:27Z</time></trkpt><trkpt lat="30.97747174330855" lon="-6.076760648296827"><ele>1947.0</ele><time>2026-05-05T10:21:28Z</time></trkpt><trkpt lat="30.977420100578232" lon="-6.076677547537205"><ele>1948.6</ele><time>2026-05-05T10:21:29Z</time></trkpt><trkpt lat="30.977390240085416" lon="-6.076590977381848"><ele>1950.1999999999998</ele><time>2026-05-05T10:21:30Z</time></trkpt><trkpt lat="30.977377471725223" lon="-6.076492942561606"><ele>1951.8</ele><time>2026-05-05T10:21:31Z</time></trkpt><trkpt lat="30.977380712355878" lon="-6.076376922788189"><ele>1953.4</ele><time>2026-05-05T10:21:32Z</time></trkpt><trkpt lat="30.977396790339057" lon="-6.076245657083272"><ele>1955.0</ele><time>2026-05-05T10:21:33Z</time></trkpt><trkpt lat="30.977422607167334" lon="-6.076100409318841"><ele>1955.0</ele><time>2026-05-05T10:21:34Z</time></trkpt><trkpt lat="30.977464353360368" lon="-6.075960675928722"><ele>1955.0</ele><time>2026-05-05T10:21:35Z</time></trkpt><trkpt lat="30.97751548509161" lon="-6.075823133923243"><ele>1955.0</ele><time>2026-05-05T10:21:36Z</time></trkpt><trkpt lat="30.977580984364415" lon="-6.07569489827938"><ele>1955.0</ele><time>2026-05-05T10:21:37Z</time></trkpt><trkpt lat="30.97765876872661" lon="-6.075575104575655"><ele>1954.0</ele><time>2026-05-05T10:21:38Z</time></trkpt><trkpt lat="30.977749324831187" lon="-6.075470064536115"><ele>1953.0</ele><time>2026-05-05T10:21:39Z</time></trkpt><trkpt lat="30.977837588580115" lon="-6.075349005795686"><ele>1952.0</ele><time>2026-05-05T10:21:40Z</time></trkpt><trkpt lat="30.977911054127187" lon="-6.075217120805016"><ele>1951.0</ele><time>2026-05-05T10:21:41Z</time></trkpt><trkpt lat="30.977979544358103" lon="-6.075082304546874"><ele>1951.0</ele><time>2026-05-05T10:21:42Z</time></trkpt><trkpt lat="30.97804811095632" lon="-6.074949440723575"><ele>1951.0</ele><time>2026-05-05T10:21:43Z</time></trkpt><trkpt lat="30.9781061038064" lon="-6.074821364539699"><ele>1951.0</ele><time>2026-05-05T10:21:44Z</time></trkpt><trkpt lat="30.9781591110593" lon="-6.074687011221089"><ele>1951.0</ele><time>2026-05-05T10:21:45Z</time></trkpt><trkpt lat="30.978213376315274" lon="-6.074566775906038"><ele>1953.25</ele><time>2026-05-05T10:21:46Z</time></trkpt><trkpt lat="30.978288582549467" lon="-6.074449058306158"><ele>1955.5</ele><time>2026-05-05T10:21:47Z</time></trkpt><trkpt lat="30.978380586679457" lon="-6.074331157669412"><ele>1957.75</ele><time>2026-05-05T10:21:48Z</time></trkpt><trkpt lat="30.97846864682845" lon="-6.074213131538678"><ele>1960.0</ele><time>2026-05-05T10:21:49Z</time></trkpt><trkpt lat="30.97853662718816" lon="-6.074090810005104"><ele>1955.0</ele><time>2026-05-05T10:21:50Z</time></trkpt><trkpt lat="30.97858265916223" lon="-6.073965506809687"><ele>1950.0</ele><time>2026-05-05T10:21:51Z</time></trkpt><trkpt lat="30.978619498160597" lon="-6.073823671793266"><ele>1945.0</ele><time>2026-05-05T10:21:51.999Z</time></trkpt><trkpt lat="30.978649708801637" lon="-6.073678437560778"><ele>1940.0</ele><time>2026-05-05T10:21:52.999Z</time></trkpt><trkpt lat="30.978670158991942" lon="-6.073529651377476"><ele>1940.0</ele><time>2026-05-05T10:21:53.999Z</time></trkpt><trkpt lat="30.978680011094184" lon="-6.0734040906035345"><ele>1940.0</ele><time>2026-05-05T10:21:54.999Z</time></trkpt><trkpt lat="30.978677899130364" lon="-6.073300120032809"><ele>1940.0</ele><time>2026-05-05T10:21:55.999Z</time></trkpt><trkpt lat="30.978659127112085" lon="-6.073205588434389"><ele>1940.0</ele><time>2026-05-05T10:21:56.999Z</time></trkpt><trkpt lat="30.978615067120412" lon="-6.073118117644585"><ele>1940.0</ele><time>2026-05-05T10:21:57.999Z</time></trkpt><trkpt lat="30.97854943867028" lon="-6.073015989549079"><ele>1939.75</ele><time>2026-05-05T10:21:58.999Z</time></trkpt><trkpt lat="30.97846193543313" lon="-6.072899896278624"><ele>1939.5</ele><time>2026-05-05T10:21:59.999Z</time></trkpt><trkpt lat="30.978373795908922" lon="-6.072776046985889"><ele>1939.25</ele><time>2026-05-05T10:22:00.999Z</time></trkpt><trkpt lat="30.978287540355225" lon="-6.072629342075704"><ele>1939.0</ele><time>2026-05-05T10:22:01.999Z</time></trkpt><trkpt lat="30.978199731934254" lon="-6.072481552065858"><ele>1942.25</ele><time>2026-05-05T10:22:02.999Z</time></trkpt><trkpt lat="30.978126496605924" lon="-6.07234907159069"><ele>1945.5</ele><time>2026-05-05T10:22:03.999Z</time></trkpt><trkpt lat="30.978070013650452" lon="-6.072218359053191"><ele>1948.75</ele><time>2026-05-05T10:22:04.999Z</time></trkpt><trkpt lat="30.978024990272683" lon="-6.072087146130144"><ele>1952.0</ele><time>2026-05-05T10:22:05.999Z</time></trkpt><trkpt lat="30.977993070517545" lon="-6.071954799438885"><ele>1952.0</ele><time>2026-05-05T10:22:06.999Z</time></trkpt><trkpt lat="30.977969118738734" lon="-6.0718159572605215"><ele>1952.0</ele><time>2026-05-05T10:22:07.999Z</time></trkpt><trkpt lat="30.97795403204087" lon="-6.071682331491712"><ele>1952.0</ele><time>2026-05-05T10:22:08.999Z</time></trkpt><trkpt lat="30.977947288685794" lon="-6.071547243769625"><ele>1952.0</ele><time>2026-05-05T10:22:09.999Z</time></trkpt><trkpt lat="30.977956271793552" lon="-6.071419740480534"><ele>1951.0</ele><time>2026-05-05T10:22:10.999Z</time></trkpt><trkpt lat="30.977979298404854" lon="-6.071299115240031"><ele>1949.9999999999998</ele><time>2026-05-05T10:22:11.999Z</time></trkpt><trkpt lat="30.978008153168012" lon="-6.071181335530692"><ele>1948.9999999999998</ele><time>2026-05-05T10:22:12.999Z</time></trkpt><trkpt lat="30.978049758418095" lon="-6.0710790307347375"><ele>1948.0</ele><time>2026-05-05T10:22:13.999Z</time></trkpt><trkpt lat="30.978085779431634" lon="-6.070986326310895"><ele>1947.0</ele><time>2026-05-05T10:22:14.999Z</time></trkpt><trkpt lat="30.978109114294863" lon="-6.070909446713194"><ele>1947.0000000000002</ele><time>2026-05-05T10:22:15.999Z</time></trkpt><trkpt lat="30.97811189910991" lon="-6.070833343525791"><ele>1947.0</ele><time>2026-05-05T10:22:16.999Z</time></trkpt><trkpt lat="30.978103812098393" lon="-6.070759040476078"><ele>1947.0000000000002</ele><time>2026-05-05T10:22:17.999Z</time></trkpt><trkpt lat="30.97807761733243" lon="-6.07068680403415"><ele>1947.0000000000002</ele><time>2026-05-05T10:22:18.999Z</time></trkpt><trkpt lat="30.978033426954436" lon="-6.0706255896826455"><ele>1947.0</ele><time>2026-05-05T10:22:19.999Z</time></trkpt><trkpt lat="30.977978861150447" lon="-6.070571199140099"><ele>1947.0000000000002</ele><time>2026-05-05T10:22:20.999Z</time></trkpt><trkpt lat="30.977912993625957" lon="-6.070544067902213"><ele>1947.0000000000002</ele><time>2026-05-05T10:22:21.999Z</time></trkpt><trkpt lat="30.97783982446566" lon="-6.070541910399805"><ele>1945.8</ele><time>2026-05-05T10:22:22.999Z</time></trkpt><trkpt lat="30.97775618746435" lon="-6.070553714475809"><ele>1944.6</ele><time>2026-05-05T10:22:23.999Z</time></trkpt><trkpt lat="30.977648548954388" lon="-6.070574597840987"><ele>1943.3999999999999</ele><time>2026-05-05T10:22:24.999Z</time></trkpt><trkpt lat="30.977529898462336" lon="-6.070603280195542"><ele>1942.1999999999998</ele><time>2026-05-05T10:22:25.999Z</time></trkpt><trkpt lat="30.977429300406587" lon="-6.0706299253328835"><ele>1941.0</ele><time>2026-05-05T10:22:26.999Z</time></trkpt><trkpt lat="30.97734888471382" lon="-6.070642257859952"><ele>1940.6666666666667</ele><time>2026-05-05T10:22:27.999Z</time></trkpt><trkpt lat="30.977281263238492" lon="-6.070638565760047"><ele>1940.3333333333335</ele><time>2026-05-05T10:22:28.999Z</time></trkpt><trkpt lat="30.97722104425806" lon="-6.070613580213541"><ele>1940.0</ele><time>2026-05-05T10:22:29.999Z</time></trkpt><trkpt lat="30.97716940421767" lon="-6.070562073370856"><ele>1939.6666666666667</ele><time>2026-05-05T10:22:30.999Z</time></trkpt><trkpt lat="30.97713939445356" lon="-6.070488677914449"><ele>1939.3333333333335</ele><time>2026-05-05T10:22:31.999Z</time></trkpt><trkpt lat="30.977120231503992" lon="-6.070391721624411"><ele>1939.0</ele><time>2026-05-05T10:22:32.999Z</time></trkpt><trkpt lat="30.977116409241503" lon="-6.07027717229282"><ele>1939.0</ele><time>2026-05-05T10:22:33.999Z</time></trkpt><trkpt lat="30.977127952437794" lon="-6.070156820084126"><ele>1939.0</ele><time>2026-05-05T10:22:34.999Z</time></trkpt><trkpt lat="30.977150599932113" lon="-6.070021051207451"><ele>1939.0</ele><time>2026-05-05T10:22:35.999Z</time></trkpt><trkpt lat="30.977177898400488" lon="-6.069898337312145"><ele>1939.0</ele><time>2026-05-05T10:22:36.999Z</time></trkpt><trkpt lat="30.97719831894548" lon="-6.069789268807091"><ele>1939.0</ele><time>2026-05-05T10:22:37.999Z</time></trkpt><trkpt lat="30.9772159776975" lon="-6.069687908298137"><ele>1937.0</ele><time>2026-05-05T10:22:38.999Z</time></trkpt><trkpt lat="30.977209741287588" lon="-6.0695780090972145"><ele>1935.0</ele><time>2026-05-05T10:22:39.999Z</time></trkpt><trkpt lat="30.97719347342076" lon="-6.069473452014837"><ele>1933.0</ele><time>2026-05-05T10:22:40.999Z</time></trkpt><trkpt lat="30.977164221771467" lon="-6.069362516825667"><ele>1931.0</ele><time>2026-05-05T10:22:41.999Z</time></trkpt><trkpt lat="30.977133684000712" lon="-6.069252818235737"><ele>1929.0</ele><time>2026-05-05T10:22:42.999Z</time></trkpt><trkpt lat="30.977094975634188" lon="-6.069131089412819"><ele>1926.8000000000002</ele><time>2026-05-05T10:22:43.999Z</time></trkpt><trkpt lat="30.977049444076982" lon="-6.069017040361055"><ele>1924.6000000000001</ele><time>2026-05-05T10:22:44.999Z</time></trkpt><trkpt lat="30.97700693689841" lon="-6.068909708409185"><ele>1922.4</ele><time>2026-05-05T10:22:45.999Z</time></trkpt><trkpt lat="30.97695092379842" lon="-6.068792267767907"><ele>1920.2</ele><time>2026-05-05T10:22:46.999Z</time></trkpt><trkpt lat="30.976899203267212" lon="-6.068678747305842"><ele>1918.0</ele><time>2026-05-05T10:22:47.999Z</time></trkpt><trkpt lat="30.976842536271256" lon="-6.0685678607377245"><ele>1918.0</ele><time>2026-05-05T10:22:48.999Z</time></trkpt><trkpt lat="30.976784702492605" lon="-6.068455211056657"><ele>1918.0000000000002</ele><time>2026-05-05T10:22:49.999Z</time></trkpt><trkpt lat="30.976740723758166" lon="-6.068337690630844"><ele>1918.0000000000002</ele><time>2026-05-05T10:22:50.999Z</time></trkpt><trkpt lat="30.976699725831363" lon="-6.068214349862006"><ele>1918.0</ele><time>2026-05-05T10:22:51.999Z</time></trkpt><trkpt lat="30.976663617372772" lon="-6.0680955575386655"><ele>1918.0</ele><time>2026-05-05T10:22:52.999Z</time></trkpt><trkpt lat="30.976630771809514" lon="-6.06798049304858"><ele>1917.6000000000001</ele><time>2026-05-05T10:22:53.999Z</time></trkpt><trkpt lat="30.976582600274007" lon="-6.067869539226834"><ele>1917.2000000000003</ele><time>2026-05-05T10:22:54.999Z</time></trkpt><trkpt lat="30.97653352038157" lon="-6.067764013169463"><ele>1916.8</ele><time>2026-05-05T10:22:55.999Z</time></trkpt><trkpt lat="30.97648711172937" lon="-6.067671263724344"><ele>1916.4</ele><time>2026-05-05T10:22:56.999Z</time></trkpt><trkpt lat="30.976402968823773" lon="-6.067584366749584"><ele>1916.0</ele><time>2026-05-05T10:22:57.999Z</time></trkpt><trkpt lat="30.97633377705107" lon="-6.067513941676238"><ele>1916.0</ele><time>2026-05-05T10:22:58.999Z</time></trkpt><trkpt lat="30.97625991663433" lon="-6.0674525330297415"><ele>1916.0</ele><time>2026-05-05T10:22:59.999Z</time></trkpt><trkpt lat="30.976190100445518" lon="-6.067385576027039"><ele>1916.0</ele><time>2026-05-05T10:23:00.999Z</time></trkpt><trkpt lat="30.97612000366725" lon="-6.067303686608219"><ele>1916.0</ele><time>2026-05-05T10:23:01.999Z</time></trkpt><trkpt lat="30.976050852723628" lon="-6.0672269347334895"><ele>1916.0</ele><time>2026-05-05T10:23:02.999Z</time></trkpt><trkpt lat="30.97596528578458" lon="-6.067160486227192"><ele>1914.0</ele><time>2026-05-05T10:23:03.999Z</time></trkpt><trkpt lat="30.975876751862526" lon="-6.067104031141394"><ele>1912.0</ele><time>2026-05-05T10:23:04.999Z</time></trkpt><trkpt lat="30.975785381261105" lon="-6.067055189460247"><ele>1910.0</ele><time>2026-05-05T10:23:05.999Z</time></trkpt><trkpt lat="30.975700763553743" lon="-6.06699936799878"><ele>1908.0</ele><time>2026-05-05T10:23:06.999Z</time></trkpt><trkpt lat="30.975616806751066" lon="-6.06695321546976"><ele>1906.0</ele><time>2026-05-05T10:23:07.999Z</time></trkpt><trkpt lat="30.975534933404475" lon="-6.066910622491689"><ele>1906.0</ele><time>2026-05-05T10:23:08.999Z</time></trkpt><trkpt lat="30.975448862215593" lon="-6.066874907434476"><ele>1906.0</ele><time>2026-05-05T10:23:09.999Z</time></trkpt><trkpt lat="30.975363765995628" lon="-6.06686029560556"><ele>1906.0</ele><time>2026-05-05T10:23:10.999Z</time></trkpt><trkpt lat="30.97528084672365" lon="-6.066847182853583"><ele>1906.0</ele><time>2026-05-05T10:23:11.999Z</time></trkpt><trkpt lat="30.975210298611216" lon="-6.066832434998199"><ele>1906.0</ele><time>2026-05-05T10:23:12.999Z</time></trkpt><trkpt lat="30.975098122201096" lon="-6.066763135331319"><ele>1906.0000000000002</ele><time>2026-05-05T10:23:14.999Z</time></trkpt><trkpt lat="30.97504534009766" lon="-6.066705773831156"><ele>1906.0</ele><time>2026-05-05T10:23:15.999Z</time></trkpt><trkpt lat="30.97499845958968" lon="-6.0666332043322635"><ele>1906.0</ele><time>2026-05-05T10:23:16.999Z</time></trkpt><trkpt lat="30.974940531656813" lon="-6.066547306739578"><ele>1906.0</ele><time>2026-05-05T10:23:17.999Z</time></trkpt><trkpt lat="30.97488380586536" lon="-6.066461686174331"><ele>1906.0000000000002</ele><time>2026-05-05T10:23:18.999Z</time></trkpt><trkpt lat="30.974827863601945" lon="-6.066381458509314"><ele>1906.0</ele><time>2026-05-05T10:23:19.999Z</time></trkpt><trkpt lat="30.97477127514878" lon="-6.066304687181146"><ele>1903.0</ele><time>2026-05-05T10:23:20.999Z</time></trkpt><trkpt lat="30.974716634553634" lon="-6.066240466824139"><ele>1900.0</ele><time>2026-05-05T10:23:22Z</time></trkpt><trkpt lat="30.97463163990318" lon="-6.066152795589471"><ele>1897.0</ele><time>2026-05-05T10:23:24Z</time></trkpt><trkpt lat="30.97456765414302" lon="-6.066057200552469"><ele>1894.0</ele><time>2026-05-05T10:23:27Z</time></trkpt><trkpt lat="30.97449036025566" lon="-6.065927621450242"><ele>1891.0</ele><time>2026-05-05T10:23:29Z</time></trkpt><trkpt lat="30.974442066811008" lon="-6.06586503264388"><ele>1891.0000000000002</ele><time>2026-05-05T10:23:30Z</time></trkpt><trkpt lat="30.974399614418978" lon="-6.065806471135959"><ele>1891.0</ele><time>2026-05-05T10:23:31Z</time></trkpt><trkpt lat="30.974333212256802" lon="-6.065702850867403"><ele>1891.0</ele><time>2026-05-05T10:23:33Z</time></trkpt><trkpt lat="30.974278265720443" lon="-6.065618097601857"><ele>1891.0</ele><time>2026-05-05T10:23:35Z</time></trkpt><trkpt lat="30.974247182239793" lon="-6.065554089358345"><ele>1891.0000000000002</ele><time>2026-05-05T10:24:07.999Z</time></trkpt><trkpt lat="30.97418408204539" lon="-6.065469506449284"><ele>1891.0</ele><time>2026-05-05T10:24:09.999Z</time></trkpt><trkpt lat="30.974123774853965" lon="-6.065400755870395"><ele>1888.4</ele><time>2026-05-05T10:24:10.999Z</time></trkpt><trkpt lat="30.97405830120164" lon="-6.065336580106615"><ele>1885.8</ele><time>2026-05-05T10:24:11.999Z</time></trkpt><trkpt lat="30.973984759376957" lon="-6.065271211825958"><ele>1883.2000000000003</ele><time>2026-05-05T10:24:12.999Z</time></trkpt><trkpt lat="30.97390735316521" lon="-6.065207969984988"><ele>1880.6000000000001</ele><time>2026-05-05T10:24:13.999Z</time></trkpt><trkpt lat="30.97382082870665" lon="-6.065145520858885"><ele>1878.0</ele><time>2026-05-05T10:24:14.999Z</time></trkpt><trkpt lat="30.97373522916021" lon="-6.065099490841761"><ele>1878.0</ele><time>2026-05-05T10:24:15.999Z</time></trkpt><trkpt lat="30.973649372494418" lon="-6.065050271410331"><ele>1878.0000000000002</ele><time>2026-05-05T10:24:16.999Z</time></trkpt><trkpt lat="30.973573850011572" lon="-6.065001431654718"><ele>1878.0000000000002</ele><time>2026-05-05T10:24:17.999Z</time></trkpt><trkpt lat="30.973488887119956" lon="-6.064935950934092"><ele>1878.0</ele><time>2026-05-05T10:24:18.999Z</time></trkpt><trkpt lat="30.973408784637666" lon="-6.0648720474337425"><ele>1878.0</ele><time>2026-05-05T10:24:19.999Z</time></trkpt><trkpt lat="30.97332426462535" lon="-6.0648051177697795"><ele>1874.2</ele><time>2026-05-05T10:24:20.999Z</time></trkpt><trkpt lat="30.97323894593873" lon="-6.064749282009043"><ele>1870.4</ele><time>2026-05-05T10:24:21.999Z</time></trkpt><trkpt lat="30.973156344159367" lon="-6.064695915156072"><ele>1866.6000000000001</ele><time>2026-05-05T10:24:22.999Z</time></trkpt><trkpt lat="30.973070338782776" lon="-6.064631094326028"><ele>1862.8000000000002</ele><time>2026-05-05T10:24:23.999Z</time></trkpt><trkpt lat="30.97299004039161" lon="-6.064567387934487"><ele>1859.0</ele><time>2026-05-05T10:24:24.999Z</time></trkpt><trkpt lat="30.972913927832682" lon="-6.064503559141979"><ele>1859.0</ele><time>2026-05-05T10:24:25.999Z</time></trkpt><trkpt lat="30.972836747477988" lon="-6.0644245949706574"><ele>1859.0</ele><time>2026-05-05T10:24:26.999Z</time></trkpt><trkpt lat="30.97276131728621" lon="-6.06433177412218"><ele>1859.0</ele><time>2026-05-05T10:24:27.999Z</time></trkpt><trkpt lat="30.97269106257057" lon="-6.06424085695061"><ele>1859.0</ele><time>2026-05-05T10:24:28.999Z</time></trkpt><trkpt lat="30.972632097136216" lon="-6.064134283329577"><ele>1859.0</ele><time>2026-05-05T10:24:29.999Z</time></trkpt><trkpt lat="30.97258196198479" lon="-6.064026074455849"><ele>1858.4</ele><time>2026-05-05T10:24:30.999Z</time></trkpt><trkpt lat="30.97253594572238" lon="-6.063912763949022"><ele>1857.8000000000002</ele><time>2026-05-05T10:24:31.999Z</time></trkpt><trkpt lat="30.97249012761576" lon="-6.063801646760281"><ele>1857.1999999999998</ele><time>2026-05-05T10:24:32.999Z</time></trkpt><trkpt lat="30.972439405838887" lon="-6.063702387331582"><ele>1856.6</ele><time>2026-05-05T10:24:33.999Z</time></trkpt><trkpt lat="30.97238974817355" lon="-6.063621495642289"><ele>1856.0</ele><time>2026-05-05T10:24:34.999Z</time></trkpt><trkpt lat="30.972322021236995" lon="-6.063552908655516"><ele>1856.0</ele><time>2026-05-05T10:24:35.999Z</time></trkpt><trkpt lat="30.972262618503063" lon="-6.063480888953257"><ele>1856.0</ele><time>2026-05-05T10:24:36.999Z</time></trkpt><trkpt lat="30.972183906732806" lon="-6.063415854521954"><ele>1856.0</ele><time>2026-05-05T10:24:37.999Z</time></trkpt><trkpt lat="30.97213408126522" lon="-6.06331383295411"><ele>1856.0</ele><time>2026-05-05T10:24:38.999Z</time></trkpt><trkpt lat="30.97209254017269" lon="-6.06321067260403"><ele>1856.0</ele><time>2026-05-05T10:24:39.999Z</time></trkpt><trkpt lat="30.97207467507654" lon="-6.0630927234582614"><ele>1854.6</ele><time>2026-05-05T10:24:40.999Z</time></trkpt><trkpt lat="30.97206218821564" lon="-6.062974379696156"><ele>1853.1999999999998</ele><time>2026-05-05T10:24:41.999Z</time></trkpt><trkpt lat="30.97205371634054" lon="-6.06285373284603"><ele>1851.8000000000002</ele><time>2026-05-05T10:24:42.999Z</time></trkpt><trkpt lat="30.972058576777076" lon="-6.062718899624537"><ele>1850.4</ele><time>2026-05-05T10:24:43.999Z</time></trkpt><trkpt lat="30.972071481057714" lon="-6.062597518710734"><ele>1849.0</ele><time>2026-05-05T10:24:44.999Z</time></trkpt><trkpt lat="30.972085048249188" lon="-6.06247292105991"><ele>1849.0</ele><time>2026-05-05T10:24:45.999Z</time></trkpt><trkpt lat="30.972097460455075" lon="-6.062347393819624"><ele>1849.0</ele><time>2026-05-05T10:24:46.999Z</time></trkpt><trkpt lat="30.972110104059723" lon="-6.062217474790062"><ele>1849.0</ele><time>2026-05-05T10:24:47.999Z</time></trkpt><trkpt lat="30.972121770781705" lon="-6.062091017010315"><ele>1849.0</ele><time>2026-05-05T10:24:48.999Z</time></trkpt><trkpt lat="30.972133904133468" lon="-6.061968409198674"><ele>1849.0</ele><time>2026-05-05T10:24:49.999Z</time></trkpt><trkpt lat="30.972147708520893" lon="-6.06185372401369"><ele>1849.0</ele><time>2026-05-05T10:24:50.999Z</time></trkpt><trkpt lat="30.97216502355434" lon="-6.061738047391405"><ele>1849.0</ele><time>2026-05-05T10:24:51.999Z</time></trkpt><trkpt lat="30.972182692423722" lon="-6.0616201427105505"><ele>1849.0</ele><time>2026-05-05T10:24:52.999Z</time></trkpt><trkpt lat="30.97220090294617" lon="-6.061499168616133"><ele>1849.0</ele><time>2026-05-05T10:24:53.999Z</time></trkpt><trkpt lat="30.97222804402797" lon="-6.061374145935966"><ele>1849.0</ele><time>2026-05-05T10:24:54.999Z</time></trkpt><trkpt lat="30.97225525600967" lon="-6.06125894415019"><ele>1847.2</ele><time>2026-05-05T10:24:55.999Z</time></trkpt><trkpt lat="30.972285462313526" lon="-6.061143678755845"><ele>1845.4</ele><time>2026-05-05T10:24:56.999Z</time></trkpt><trkpt lat="30.972315911008074" lon="-6.061036181616351"><ele>1843.6</ele><time>2026-05-05T10:24:57.999Z</time></trkpt><trkpt lat="30.97234657929028" lon="-6.060927909237915"><ele>1841.8</ele><time>2026-05-05T10:24:58.999Z</time></trkpt><trkpt lat="30.972376740116875" lon="-6.060821428398192"><ele>1840.0</ele><time>2026-05-05T10:24:59.999Z</time></trkpt><trkpt lat="30.972409914399872" lon="-6.060704152086084"><ele>1840.0000000000002</ele><time>2026-05-05T10:25:00.999Z</time></trkpt><trkpt lat="30.972441493877948" lon="-6.060594489260527"><ele>1840.0</ele><time>2026-05-05T10:25:01.999Z</time></trkpt><trkpt lat="30.972473163088583" lon="-6.060486853271807"><ele>1840.0</ele><time>2026-05-05T10:25:02.999Z</time></trkpt><trkpt lat="30.972503336927254" lon="-6.0603842996970725"><ele>1840.0</ele><time>2026-05-05T10:25:03.999Z</time></trkpt><trkpt lat="30.972539039222994" lon="-6.060288558661287"><ele>1840.0000000000002</ele><time>2026-05-05T10:25:04.999Z</time></trkpt><trkpt lat="30.972565916934784" lon="-6.060218793520213"><ele>1840.0</ele><time>2026-05-05T10:25:05.999Z</time></trkpt><trkpt lat="30.972579818326157" lon="-6.060109636246173"><ele>1840.0</ele><time>2026-05-05T10:25:07.999Z</time></trkpt><trkpt lat="30.972554023485937" lon="-6.060025544704281"><ele>1840.0</ele><time>2026-05-05T10:25:09.999Z</time></trkpt><trkpt lat="30.972458253491457" lon="-6.05995063366477"><ele>1840.0</ele><time>2026-05-05T10:25:11.999Z</time></trkpt><trkpt lat="30.972372027979482" lon="-6.059966446654436"><ele>1840.0</ele><time>2026-05-05T10:25:12.999Z</time></trkpt><trkpt lat="30.972267306696875" lon="-6.0600083215033935"><ele>1840.0</ele><time>2026-05-05T10:25:13.999Z</time></trkpt><trkpt lat="30.97215760849385" lon="-6.060051188292091"><ele>1838.4</ele><time>2026-05-05T10:25:14.999Z</time></trkpt><trkpt lat="30.972059333497718" lon="-6.060090131583239"><ele>1836.8</ele><time>2026-05-05T10:25:15.999Z</time></trkpt><trkpt lat="30.971963075106206" lon="-6.0601164189871195"><ele>1835.1999999999998</ele><time>2026-05-05T10:25:16.999Z</time></trkpt><trkpt lat="30.971858158657405" lon="-6.060130788993368"><ele>1833.6</ele><time>2026-05-05T10:25:17.999Z</time></trkpt><trkpt lat="30.971752762141186" lon="-6.06014025090536"><ele>1832.0</ele><time>2026-05-05T10:25:18.999Z</time></trkpt><trkpt lat="30.971652477788645" lon="-6.060154600231984"><ele>1830.1999999999998</ele><time>2026-05-05T10:25:19.999Z</time></trkpt><trkpt lat="30.97155524177895" lon="-6.060172006821633"><ele>1828.3999999999999</ele><time>2026-05-05T10:25:20.999Z</time></trkpt><trkpt lat="30.971453055114697" lon="-6.060195499985425"><ele>1826.6000000000001</ele><time>2026-05-05T10:25:21.999Z</time></trkpt><trkpt lat="30.97135833533404" lon="-6.060235556294015"><ele>1824.8000000000002</ele><time>2026-05-05T10:25:22.999Z</time></trkpt><trkpt lat="30.971266402459605" lon="-6.060294176051161"><ele>1823.0</ele><time>2026-05-05T10:25:23.999Z</time></trkpt><trkpt lat="30.971184638504553" lon="-6.060355599597035"><ele>1823.0</ele><time>2026-05-05T10:25:24.999Z</time></trkpt><trkpt lat="30.971096736438344" lon="-6.060421862849982"><ele>1823.0000000000002</ele><time>2026-05-05T10:25:25.999Z</time></trkpt><trkpt lat="30.971004531500522" lon="-6.060478122096311"><ele>1823.0000000000002</ele><time>2026-05-05T10:25:26.999Z</time></trkpt><trkpt lat="30.970907551568924" lon="-6.0605422146115595"><ele>1823.0</ele><time>2026-05-05T10:25:27.999Z</time></trkpt><trkpt lat="30.970819148386393" lon="-6.06061309089674"><ele>1823.0</ele><time>2026-05-05T10:25:28.999Z</time></trkpt><trkpt lat="30.970733330095534" lon="-6.060677442357334"><ele>1822.6000000000001</ele><time>2026-05-05T10:25:29.999Z</time></trkpt><trkpt lat="30.97064854409321" lon="-6.060744369173661"><ele>1822.2000000000003</ele><time>2026-05-05T10:25:30.999Z</time></trkpt><trkpt lat="30.97056983556418" lon="-6.060814846049595"><ele>1821.8</ele><time>2026-05-05T10:25:31.999Z</time></trkpt><trkpt lat="30.970494890800545" lon="-6.060884706001169"><ele>1821.4</ele><time>2026-05-05T10:25:32.999Z</time></trkpt><trkpt lat="30.970411681184427" lon="-6.0609572311902005"><ele>1821.0</ele><time>2026-05-05T10:25:33.999Z</time></trkpt><trkpt lat="30.9703254671128" lon="-6.06102337664892"><ele>1821.0</ele><time>2026-05-05T10:25:34.999Z</time></trkpt><trkpt lat="30.97024508534801" lon="-6.0610821967306485"><ele>1821.0</ele><time>2026-05-05T10:25:35.999Z</time></trkpt><trkpt lat="30.9701565593558" lon="-6.061139257111377"><ele>1821.0</ele><time>2026-05-05T10:25:36.999Z</time></trkpt><trkpt lat="30.970067042521237" lon="-6.0611900522147195"><ele>1821.0</ele><time>2026-05-05T10:25:37.999Z</time></trkpt><trkpt lat="30.96997627654516" lon="-6.061240465380101"><ele>1821.0</ele><time>2026-05-05T10:25:38.999Z</time></trkpt><trkpt lat="30.96989154012358" lon="-6.061280416567537"><ele>1818.8</ele><time>2026-05-05T10:25:39.999Z</time></trkpt><trkpt lat="30.969809670488633" lon="-6.0613121234215415"><ele>1816.6</ele><time>2026-05-05T10:25:40.999Z</time></trkpt><trkpt lat="30.969720503822096" lon="-6.06133795271343"><ele>1814.4</ele><time>2026-05-05T10:25:41.999Z</time></trkpt><trkpt lat="30.969635525329515" lon="-6.06134858957849"><ele>1812.2</ele><time>2026-05-05T10:25:42.999Z</time></trkpt><trkpt lat="30.969545828937466" lon="-6.06134191342674"><ele>1810.0</ele><time>2026-05-05T10:25:43.999Z</time></trkpt><trkpt lat="30.969452778826085" lon="-6.061313252313237"><ele>1810.0</ele><time>2026-05-05T10:25:44.999Z</time></trkpt><trkpt lat="30.969360761054784" lon="-6.06129457792473"><ele>1810.0</ele><time>2026-05-05T10:25:45.999Z</time></trkpt><trkpt lat="30.96927593819051" lon="-6.061213260799283"><ele>1810.0</ele><time>2026-05-05T10:25:46.999Z</time></trkpt><trkpt lat="30.96919100252254" lon="-6.061122273419555"><ele>1810.0</ele><time>2026-05-05T10:25:47.999Z</time></trkpt><trkpt lat="30.969120999550093" lon="-6.060999870848531"><ele>1810.0</ele><time>2026-05-05T10:25:48.999Z</time></trkpt><trkpt lat="30.969059707736882" lon="-6.0608606009532515"><ele>1807.5</ele><time>2026-05-05T10:25:49.999Z</time></trkpt><trkpt lat="30.969007209645603" lon="-6.060715397508865"><ele>1805.0</ele><time>2026-05-05T10:25:50.999Z</time></trkpt><trkpt lat="30.968955556757507" lon="-6.060572533958379"><ele>1802.5</ele><time>2026-05-05T10:25:51.999Z</time></trkpt><trkpt lat="30.968902761209186" lon="-6.060426510020034"><ele>1800.0</ele><time>2026-05-05T10:25:52.999Z</time></trkpt><trkpt lat="30.968856507549958" lon="-6.0602985692527"><ele>1800.0</ele><time>2026-05-05T10:25:53.999Z</time></trkpt><trkpt lat="30.968810402207573" lon="-6.060170073080969"><ele>1800.0</ele><time>2026-05-05T10:25:54.999Z</time></trkpt><trkpt lat="30.968762287931956" lon="-6.060035978057299"><ele>1800.0</ele><time>2026-05-05T10:25:55.999Z</time></trkpt><trkpt lat="30.968719874894038" lon="-6.059902724144683"><ele>1800.0</ele><time>2026-05-05T10:25:56.999Z</time></trkpt><trkpt lat="30.968675024372345" lon="-6.059766628562068"><ele>1798.5</ele><time>2026-05-05T10:25:57.999Z</time></trkpt><trkpt lat="30.96863010945661" lon="-6.05962983449638"><ele>1797.0</ele><time>2026-05-05T10:25:58.999Z</time></trkpt><trkpt lat="30.968583898802606" lon="-6.059489095141053"><ele>1795.5</ele><time>2026-05-05T10:25:59.999Z</time></trkpt><trkpt lat="30.96853750723492" lon="-6.059347804797013"><ele>1794.0</ele><time>2026-05-05T10:26:00.999Z</time></trkpt><trkpt lat="30.968488355023506" lon="-6.059198106626239"><ele>1793.5</ele><time>2026-05-05T10:26:01.999Z</time></trkpt><trkpt lat="30.96843211646459" lon="-6.059038113948839"><ele>1793.0</ele><time>2026-05-05T10:26:02.999Z</time></trkpt><trkpt lat="30.96837052301886" lon="-6.058872296385218"><ele>1792.5</ele><time>2026-05-05T10:26:03.999Z</time></trkpt><trkpt lat="30.968313087976764" lon="-6.058716249464424"><ele>1792.0</ele><time>2026-05-05T10:26:04.999Z</time></trkpt><trkpt lat="30.968259091834216" lon="-6.058569963759734"><ele>1792.0</ele><time>2026-05-05T10:26:05.999Z</time></trkpt><trkpt lat="30.96820527669165" lon="-6.058434458399075"><ele>1792.0</ele><time>2026-05-05T10:26:06.999Z</time></trkpt><trkpt lat="30.968148746537228" lon="-6.058301866446852"><ele>1792.0</ele><time>2026-05-05T10:26:07.999Z</time></trkpt><trkpt lat="30.968090582370195" lon="-6.0581801711261445"><ele>1792.0</ele><time>2026-05-05T10:26:08.999Z</time></trkpt><trkpt lat="30.96803016382791" lon="-6.0580618575862655"><ele>1792.0</ele><time>2026-05-05T10:26:09.999Z</time></trkpt><trkpt lat="30.967967069588966" lon="-6.057958519498733"><ele>1791.9999999999998</ele><time>2026-05-05T10:26:10.999Z</time></trkpt><trkpt lat="30.967893212955097" lon="-6.057864669405592"><ele>1791.9999999999998</ele><time>2026-05-05T10:26:11.999Z</time></trkpt><trkpt lat="30.967810698174365" lon="-6.057785787635719"><ele>1792.0</ele><time>2026-05-05T10:26:12.999Z</time></trkpt><trkpt lat="30.967706122519154" lon="-6.057713841085822"><ele>1792.0</ele><time>2026-05-05T10:26:13.999Z</time></trkpt><trkpt lat="30.967595205823123" lon="-6.057669672514569"><ele>1791.8</ele><time>2026-05-05T10:26:14.999Z</time></trkpt><trkpt lat="30.967486657698906" lon="-6.057632609541847"><ele>1791.6</ele><time>2026-05-05T10:26:15.999Z</time></trkpt><trkpt lat="30.96739264576117" lon="-6.057603036120197"><ele>1791.3999999999999</ele><time>2026-05-05T10:26:16.999Z</time></trkpt><trkpt lat="30.967303335618343" lon="-6.057575049231571"><ele>1791.1999999999998</ele><time>2026-05-05T10:26:17.999Z</time></trkpt><trkpt lat="30.96722152296826" lon="-6.057549411788728"><ele>1791.0</ele><time>2026-05-05T10:26:18.999Z</time></trkpt><trkpt lat="30.96715355579035" lon="-6.057472601377744"><ele>1791.4</ele><time>2026-05-05T10:26:19.999Z</time></trkpt><trkpt lat="30.96710309632903" lon="-6.057397736202616"><ele>1791.8</ele><time>2026-05-05T10:26:20.999Z</time></trkpt><trkpt lat="30.96706821468099" lon="-6.05730943336042"><ele>1792.2000000000003</ele><time>2026-05-05T10:26:21.999Z</time></trkpt><trkpt lat="30.967079649558013" lon="-6.0571916512477495"><ele>1792.6000000000001</ele><time>2026-05-05T10:26:22.999Z</time></trkpt><trkpt lat="30.967066568256048" lon="-6.057072934388798"><ele>1793.0</ele><time>2026-05-05T10:26:23.999Z</time></trkpt><trkpt lat="30.967068159525766" lon="-6.05696060401192"><ele>1793.0</ele><time>2026-05-05T10:26:24.999Z</time></trkpt><trkpt lat="30.967082448912603" lon="-6.056857471898857"><ele>1793.0000000000002</ele><time>2026-05-05T10:26:25.999Z</time></trkpt><trkpt lat="30.967096771317966" lon="-6.056754101489137"><ele>1793.0000000000002</ele><time>2026-05-05T10:26:26.999Z</time></trkpt><trkpt lat="30.967111281979783" lon="-6.056648776304258"><ele>1793.0</ele><time>2026-05-05T10:26:27.999Z</time></trkpt><trkpt lat="30.967125577150057" lon="-6.056544359389726"><ele>1793.0</ele><time>2026-05-05T10:26:28.999Z</time></trkpt><trkpt lat="30.96714066251585" lon="-6.056434170612901"><ele>1791.6666666666665</ele><time>2026-05-05T10:26:29.999Z</time></trkpt><trkpt lat="30.96715504624811" lon="-6.056338225759672"><ele>1790.3333333333333</ele><time>2026-05-05T10:26:30.999Z</time></trkpt><trkpt lat="30.967171466066663" lon="-6.056245221250992"><ele>1789.0</ele><time>2026-05-05T10:26:31.999Z</time></trkpt><trkpt lat="30.96718781478755" lon="-6.056153634933335"><ele>1787.6666666666665</ele><time>2026-05-05T10:26:32.999Z</time></trkpt><trkpt lat="30.967202930125584" lon="-6.056068988985846"><ele>1786.3333333333333</ele><time>2026-05-05T10:26:33.999Z</time></trkpt><trkpt lat="30.967232442233843" lon="-6.055986624808155"><ele>1785.0</ele><time>2026-05-05T10:26:34.999Z</time></trkpt><trkpt lat="30.96725649786209" lon="-6.0559096631837415"><ele>1785.0</ele><time>2026-05-05T10:26:35.999Z</time></trkpt><trkpt lat="30.967288859723322" lon="-6.055837645590672"><ele>1785.0</ele><time>2026-05-05T10:26:36.999Z</time></trkpt><trkpt lat="30.96733771536683" lon="-6.055730304747268"><ele>1785.0</ele><time>2026-05-05T10:26:38.999Z</time></trkpt><trkpt lat="30.96738094098507" lon="-6.055672955546301"><ele>1785.0</ele><time>2026-05-05T10:26:40.999Z</time></trkpt><trkpt lat="30.96738094098507" lon="-6.055672955546301"><ele>1785.0</ele><time>2026-05-05T10:26:40.999Z</time></trkpt><trkpt lat="30.967445176260654" lon="-6.055578036724461"><ele>1785.0</ele><time>2026-05-05T10:27:50.999Z</time></trkpt><trkpt lat="30.967505601552844" lon="-6.055494588724548"><ele>1785.0</ele><time>2026-05-05T10:27:51.999Z</time></trkpt><trkpt lat="30.967577046478926" lon="-6.055395922484846"><ele>1784.0</ele><time>2026-05-05T10:27:52.999Z</time></trkpt><trkpt lat="30.9676495032348" lon="-6.055296075032371"><ele>1783.0</ele><time>2026-05-05T10:27:53.999Z</time></trkpt><trkpt lat="30.96771931139196" lon="-6.055193469956269"><ele>1782.0</ele><time>2026-05-05T10:27:54.999Z</time></trkpt><trkpt lat="30.967780803820386" lon="-6.055098508210715"><ele>1781.0</ele><time>2026-05-05T10:27:55.999Z</time></trkpt><trkpt lat="30.96783995903828" lon="-6.055006445188742"><ele>1780.0</ele><time>2026-05-05T10:27:56.999Z</time></trkpt><trkpt lat="30.9678978438004" lon="-6.054916408954243"><ele>1777.6</ele><time>2026-05-05T10:27:57.999Z</time></trkpt><trkpt lat="30.967955713319313" lon="-6.054830109802317"><ele>1775.2</ele><time>2026-05-05T10:27:58.999Z</time></trkpt><trkpt lat="30.968027408655857" lon="-6.05475556596759"><ele>1772.8000000000002</ele><time>2026-05-05T10:27:59.999Z</time></trkpt><trkpt lat="30.968099780738964" lon="-6.054684517668665"><ele>1770.4</ele><time>2026-05-05T10:28:00.999Z</time></trkpt><trkpt lat="30.968192644294952" lon="-6.0546298626913755"><ele>1768.0</ele><time>2026-05-05T10:28:01.999Z</time></trkpt><trkpt lat="30.968288049198986" lon="-6.054591199772985"><ele>1771.1666666666667</ele><time>2026-05-05T10:28:02.999Z</time></trkpt><trkpt lat="30.968363292093155" lon="-6.054549066908269"><ele>1774.3333333333335</ele><time>2026-05-05T10:28:03.999Z</time></trkpt><trkpt lat="30.968426825132074" lon="-6.05450943101771"><ele>1777.5</ele><time>2026-05-05T10:28:04.999Z</time></trkpt><trkpt lat="30.968482984237937" lon="-6.054438101063866"><ele>1780.6666666666665</ele><time>2026-05-05T10:28:06.999Z</time></trkpt><trkpt lat="30.96852429240717" lon="-6.0543458156135435"><ele>1783.8333333333333</ele><time>2026-05-05T10:28:16.999Z</time></trkpt><trkpt lat="30.968548540686825" lon="-6.054275091447877"><ele>1787.0</ele><time>2026-05-05T10:28:17.999Z</time></trkpt><trkpt lat="30.968553279349432" lon="-6.054120202392269"><ele>1787.6666666666665</ele><time>2026-05-05T10:28:19.999Z</time></trkpt><trkpt lat="30.968538014116124" lon="-6.054036093446666"><ele>1788.3333333333333</ele><time>2026-05-05T10:28:20.999Z</time></trkpt><trkpt lat="30.968496103310038" lon="-6.053961013932664"><ele>1789.0</ele><time>2026-05-05T10:28:21.999Z</time></trkpt><trkpt lat="30.96844360908701" lon="-6.053873320725632"><ele>1789.6666666666665</ele><time>2026-05-05T10:28:22.999Z</time></trkpt><trkpt lat="30.968396757415366" lon="-6.05379469139811"><ele>1790.3333333333333</ele><time>2026-05-05T10:28:23.999Z</time></trkpt><trkpt lat="30.96834204632737" lon="-6.053685616430556"><ele>1791.0</ele><time>2026-05-05T10:28:24.999Z</time></trkpt><trkpt lat="30.968293858129" lon="-6.053575220491463"><ele>1785.8</ele><time>2026-05-05T10:28:25.999Z</time></trkpt><trkpt lat="30.96825541195518" lon="-6.053466644385109"><ele>1780.6</ele><time>2026-05-05T10:28:26.999Z</time></trkpt><trkpt lat="30.968220880274828" lon="-6.053355067856091"><ele>1775.4</ele><time>2026-05-05T10:28:27.999Z</time></trkpt><trkpt lat="30.968184902279205" lon="-6.053241973400532"><ele>1770.2</ele><time>2026-05-05T10:28:28.999Z</time></trkpt><trkpt lat="30.968144954183565" lon="-6.0531229184689055"><ele>1765.0</ele><time>2026-05-05T10:28:29.999Z</time></trkpt><trkpt lat="30.96810149410206" lon="-6.052996152996259"><ele>1765.0</ele><time>2026-05-05T10:28:30.999Z</time></trkpt><trkpt lat="30.968043176654657" lon="-6.052886831598377"><ele>1765.0</ele><time>2026-05-05T10:28:31.999Z</time></trkpt><trkpt lat="30.967989069220806" lon="-6.052777863094953"><ele>1765.0</ele><time>2026-05-05T10:28:32.999Z</time></trkpt><trkpt lat="30.967929294638044" lon="-6.052662876875779"><ele>1765.0</ele><time>2026-05-05T10:28:33.999Z</time></trkpt><trkpt lat="30.967874597297698" lon="-6.052523542471679"><ele>1765.25</ele><time>2026-05-05T10:28:34.999Z</time></trkpt><trkpt lat="30.96783205016491" lon="-6.052373899091574"><ele>1765.5</ele><time>2026-05-05T10:28:35.999Z</time></trkpt><trkpt lat="30.96779907736212" lon="-6.052237533330882"><ele>1765.75</ele><time>2026-05-05T10:28:36.999Z</time></trkpt><trkpt lat="30.967766356322954" lon="-6.0521089482034025"><ele>1766.0</ele><time>2026-05-05T10:28:37.999Z</time></trkpt><trkpt lat="30.96773061407992" lon="-6.051974515980903"><ele>1766.0</ele><time>2026-05-05T10:28:38.999Z</time></trkpt><trkpt lat="30.967680179894597" lon="-6.051852441943467"><ele>1766.0</ele><time>2026-05-05T10:28:39.999Z</time></trkpt><trkpt lat="30.967623624651875" lon="-6.051723963192739"><ele>1766.0</ele><time>2026-05-05T10:28:40.999Z</time></trkpt><trkpt lat="30.967561995194217" lon="-6.051582768892655"><ele>1766.0</ele><time>2026-05-05T10:28:41.999Z</time></trkpt><trkpt lat="30.967502051672476" lon="-6.05144232821492"><ele>1759.25</ele><time>2026-05-05T10:28:42.999Z</time></trkpt><trkpt lat="30.967473258280755" lon="-6.0512899550039"><ele>1752.5</ele><time>2026-05-05T10:28:43.999Z</time></trkpt><trkpt lat="30.967411490795914" lon="-6.0511528585545715"><ele>1745.75</ele><time>2026-05-05T10:28:44.999Z</time></trkpt><trkpt lat="30.967350820754355" lon="-6.051011204863491"><ele>1739.0</ele><time>2026-05-05T10:28:45.999Z</time></trkpt><trkpt lat="30.967314194333127" lon="-6.050869744727756"><ele>1742.2</ele><time>2026-05-05T10:28:46.999Z</time></trkpt><trkpt lat="30.96726555147435" lon="-6.05073619710855"><ele>1745.4</ele><time>2026-05-05T10:28:47.999Z</time></trkpt><trkpt lat="30.9672426557053" lon="-6.050619623813715"><ele>1748.6</ele><time>2026-05-05T10:28:48.999Z</time></trkpt><trkpt lat="30.967219345447205" lon="-6.050495622108687"><ele>1751.8</ele><time>2026-05-05T10:28:49.999Z</time></trkpt><trkpt lat="30.967174233111106" lon="-6.05038688495155"><ele>1755.0</ele><time>2026-05-05T10:28:50.999Z</time></trkpt><trkpt lat="30.96710400993815" lon="-6.050295281380003"><ele>1755.0</ele><time>2026-05-05T10:28:51.999Z</time></trkpt><trkpt lat="30.96702861150891" lon="-6.050178111074038"><ele>1755.0</ele><time>2026-05-05T10:28:52.999Z</time></trkpt><trkpt lat="30.966961428910665" lon="-6.05006654641484"><ele>1755.0</ele><time>2026-05-05T10:28:53.999Z</time></trkpt><trkpt lat="30.96690475547475" lon="-6.0499507691829"><ele>1755.0</ele><time>2026-05-05T10:28:54.999Z</time></trkpt><trkpt lat="30.96685894672613" lon="-6.049834061092783"><ele>1758.0</ele><time>2026-05-05T10:28:55.999Z</time></trkpt><trkpt lat="30.966816878456893" lon="-6.049724552646619"><ele>1761.0</ele><time>2026-05-05T10:28:56.999Z</time></trkpt><trkpt lat="30.96678642375582" lon="-6.049603331673996"><ele>1764.0</ele><time>2026-05-05T10:28:57.999Z</time></trkpt><trkpt lat="30.96676743347042" lon="-6.049472905531545"><ele>1767.0</ele><time>2026-05-05T10:28:58.999Z</time></trkpt><trkpt lat="30.966757682129444" lon="-6.049339446149983"><ele>1770.0</ele><time>2026-05-05T10:28:59.999Z</time></trkpt><trkpt lat="30.96674756928931" lon="-6.049200343036187"><ele>1771.5</ele><time>2026-05-05T10:29:00.999Z</time></trkpt><trkpt lat="30.966738498167828" lon="-6.049067945176378"><ele>1773.0</ele><time>2026-05-05T10:29:01.999Z</time></trkpt><trkpt lat="30.9667291324583" lon="-6.048922943300918"><ele>1774.5</ele><time>2026-05-05T10:29:02.999Z</time></trkpt><trkpt lat="30.966720671188078" lon="-6.04879194414858"><ele>1776.0</ele><time>2026-05-05T10:29:03.999Z</time></trkpt><trkpt lat="30.966710180033594" lon="-6.048665258272215"><ele>1776.0</ele><time>2026-05-05T10:29:04.999Z</time></trkpt><trkpt lat="30.966698549879926" lon="-6.048543987886906"><ele>1776.0</ele><time>2026-05-05T10:29:05.999Z</time></trkpt><trkpt lat="30.96668727566879" lon="-6.048429647812867"><ele>1776.0</ele><time>2026-05-05T10:29:06.999Z</time></trkpt><trkpt lat="30.966677493405395" lon="-6.048334303367959"><ele>1776.0</ele><time>2026-05-05T10:29:07.999Z</time></trkpt><trkpt lat="30.966672739340154" lon="-6.048229604197087"><ele>1776.0</ele><time>2026-05-05T10:29:08.999Z</time></trkpt><trkpt lat="30.966668612926117" lon="-6.048122915479101"><ele>1776.6</ele><time>2026-05-05T10:29:09.999Z</time></trkpt><trkpt lat="30.96667336970407" lon="-6.047994650433253"><ele>1777.1999999999998</ele><time>2026-05-05T10:29:10.999Z</time></trkpt><trkpt lat="30.966692845435794" lon="-6.04786105573211"><ele>1777.8000000000002</ele><time>2026-05-05T10:29:11.999Z</time></trkpt><trkpt lat="30.96671705625887" lon="-6.04773978484962"><ele>1778.4</ele><time>2026-05-05T10:29:12.999Z</time></trkpt><trkpt lat="30.966747491941057" lon="-6.047625781008932"><ele>1779.0</ele><time>2026-05-05T10:29:13.999Z</time></trkpt><trkpt lat="30.96678256825265" lon="-6.047515219116072"><ele>1775.8333333333333</ele><time>2026-05-05T10:29:14.999Z</time></trkpt><trkpt lat="30.96681524080772" lon="-6.047412763947806"><ele>1772.6666666666665</ele><time>2026-05-05T10:29:15.999Z</time></trkpt><trkpt lat="30.966850578161754" lon="-6.047312745978806"><ele>1769.5</ele><time>2026-05-05T10:29:16.999Z</time></trkpt><trkpt lat="30.96688198948451" lon="-6.047223548556761"><ele>1766.3333333333333</ele><time>2026-05-05T10:29:17.999Z</time></trkpt><trkpt lat="30.966912847984783" lon="-6.0471357083269455"><ele>1763.1666666666665</ele><time>2026-05-05T10:29:18.999Z</time></trkpt><trkpt lat="30.966927682053235" lon="-6.047051366132416"><ele>1760.0</ele><time>2026-05-05T10:29:19.999Z</time></trkpt><trkpt lat="30.966931357995197" lon="-6.046969252512145"><ele>1760.0</ele><time>2026-05-05T10:29:20.999Z</time></trkpt><trkpt lat="30.966919335404047" lon="-6.046864928702859"><ele>1760.0</ele><time>2026-05-05T10:29:21.999Z</time></trkpt><trkpt lat="30.966903342713472" lon="-6.046751885353181"><ele>1760.0</ele><time>2026-05-05T10:29:22.999Z</time></trkpt><trkpt lat="30.96688811203695" lon="-6.046627556686259"><ele>1760.0</ele><time>2026-05-05T10:29:23.999Z</time></trkpt><trkpt lat="30.96687360204523" lon="-6.046507099246911"><ele>1760.0</ele><time>2026-05-05T10:29:24.999Z</time></trkpt><trkpt lat="30.96687006422897" lon="-6.046377237881083"><ele>1755.25</ele><time>2026-05-05T10:29:25.999Z</time></trkpt><trkpt lat="30.966879453517883" lon="-6.046245700114911"><ele>1750.5</ele><time>2026-05-05T10:29:26.999Z</time></trkpt><trkpt lat="30.96689226887992" lon="-6.046119812891844"><ele>1745.75</ele><time>2026-05-05T10:29:27.999Z</time></trkpt><trkpt lat="30.966907947291574" lon="-6.0459904013072"><ele>1741.0</ele><time>2026-05-05T10:29:28.999Z</time></trkpt><trkpt lat="30.966927952924273" lon="-6.045856234904109"><ele>1736.1999999999998</ele><time>2026-05-05T10:29:29.999Z</time></trkpt><trkpt lat="30.966947740695513" lon="-6.045739002539605"><ele>1731.3999999999999</ele><time>2026-05-05T10:29:30.999Z</time></trkpt><trkpt lat="30.966965749751473" lon="-6.045631542589484"><ele>1726.6</ele><time>2026-05-05T10:29:31.999Z</time></trkpt><trkpt lat="30.966998590506943" lon="-6.045523115059649"><ele>1721.8</ele><time>2026-05-05T10:29:32.999Z</time></trkpt><trkpt lat="30.967028597709636" lon="-6.045421292193366"><ele>1717.0</ele><time>2026-05-05T10:29:33.999Z</time></trkpt><trkpt lat="30.96705895886286" lon="-6.045316681492174"><ele>1717.0</ele><time>2026-05-05T10:29:34.999Z</time></trkpt><trkpt lat="30.96708547667503" lon="-6.045211976600874"><ele>1716.9999999999998</ele><time>2026-05-05T10:29:35.999Z</time></trkpt><trkpt lat="30.967109223329718" lon="-6.045101426203705"><ele>1716.9999999999998</ele><time>2026-05-05T10:29:36.999Z</time></trkpt><trkpt lat="30.96713336545417" lon="-6.044977041748975"><ele>1717.0</ele><time>2026-05-05T10:29:37.999Z</time></trkpt><trkpt lat="30.967147825095388" lon="-6.044882595145096"><ele>1717.0</ele><time>2026-05-05T10:29:38.999Z</time></trkpt><trkpt lat="30.96716540170158" lon="-6.044756984239384"><ele>1712.3333333333335</ele><time>2026-05-05T10:29:39.999Z</time></trkpt><trkpt lat="30.967180093561456" lon="-6.044644264522025"><ele>1707.6666666666667</ele><time>2026-05-05T10:29:40.999Z</time></trkpt><trkpt lat="30.967192308535875" lon="-6.044539467586982"><ele>1703.0</ele><time>2026-05-05T10:29:41.999Z</time></trkpt><trkpt lat="30.967204735229352" lon="-6.0444339717880755"><ele>1698.3333333333335</ele><time>2026-05-05T10:29:42.999Z</time></trkpt><trkpt lat="30.967215215690253" lon="-6.0443436974800875"><ele>1693.6666666666667</ele><time>2026-05-05T10:29:43.999Z</time></trkpt><trkpt lat="30.967243195465844" lon="-6.044251115435173"><ele>1689.0</ele><time>2026-05-05T10:29:44.999Z</time></trkpt><trkpt lat="30.96728269797884" lon="-6.044162381938945"><ele>1685.4</ele><time>2026-05-05T10:29:45.999Z</time></trkpt><trkpt lat="30.967334636319382" lon="-6.044081023556469"><ele>1681.8000000000002</ele><time>2026-05-05T10:29:46.999Z</time></trkpt><trkpt lat="30.96740456950132" lon="-6.044006556450778"><ele>1678.1999999999998</ele><time>2026-05-05T10:29:47.999Z</time></trkpt><trkpt lat="30.967483568100402" lon="-6.043942525327831"><ele>1674.6</ele><time>2026-05-05T10:29:48.999Z</time></trkpt><trkpt lat="30.96756643654466" lon="-6.043878092615462"><ele>1671.0</ele><time>2026-05-05T10:29:49.999Z</time></trkpt><trkpt lat="30.967644924275195" lon="-6.043817066035152"><ele>1671.0</ele><time>2026-05-05T10:29:50.999Z</time></trkpt><trkpt lat="30.967710565085444" lon="-6.043750611359288"><ele>1671.0</ele><time>2026-05-05T10:29:51.999Z</time></trkpt><trkpt lat="30.967775591206518" lon="-6.043686573056656"><ele>1671.0</ele><time>2026-05-05T10:29:52.999Z</time></trkpt><trkpt lat="30.967851921722918" lon="-6.043648066877502"><ele>1671.0</ele><time>2026-05-05T10:29:53.999Z</time></trkpt><trkpt lat="30.96791540476054" lon="-6.043589461513966"><ele>1671.0</ele><time>2026-05-05T10:29:54.999Z</time></trkpt><trkpt lat="30.96800783037551" lon="-6.043569136461617"><ele>1671.0</ele><time>2026-05-05T10:29:55.999Z</time></trkpt><trkpt lat="30.968108279877374" lon="-6.0435791318470455"><ele>1671.0</ele><time>2026-05-05T10:29:56.999Z</time></trkpt><trkpt lat="30.968205058796322" lon="-6.043583936411084"><ele>1671.0</ele><time>2026-05-05T10:29:57.999Z</time></trkpt><trkpt lat="30.96829899923919" lon="-6.043595253784187"><ele>1671.0</ele><time>2026-05-05T10:29:58.999Z</time></trkpt><trkpt lat="30.968386898838087" lon="-6.043583412616863"><ele>1671.0</ele><time>2026-05-05T10:29:59.999Z</time></trkpt><trkpt lat="30.968476232519826" lon="-6.043586275678965"><ele>1671.0</ele><time>2026-05-05T10:30:00.999Z</time></trkpt><trkpt lat="30.96857301738269" lon="-6.043589326570384"><ele>1670.8</ele><time>2026-05-05T10:30:01.999Z</time></trkpt><trkpt lat="30.968679413767223" lon="-6.043592021926727"><ele>1670.6</ele><time>2026-05-05T10:30:02.999Z</time></trkpt><trkpt lat="30.96878565512083" lon="-6.043596364734168"><ele>1670.4</ele><time>2026-05-05T10:30:03.999Z</time></trkpt><trkpt lat="30.968881474154212" lon="-6.043578740310447"><ele>1670.2</ele><time>2026-05-05T10:30:04.999Z</time></trkpt><trkpt lat="30.968972814447618" lon="-6.043551211316477"><ele>1670.0</ele><time>2026-05-05T10:30:05.999Z</time></trkpt><trkpt lat="30.96905802501233" lon="-6.043512529231106"><ele>1670.0</ele><time>2026-05-05T10:30:06.999Z</time></trkpt><trkpt lat="30.969139549550068" lon="-6.043468894170336"><ele>1670.0</ele><time>2026-05-05T10:30:07.999Z</time></trkpt><trkpt lat="30.9692247528117" lon="-6.0434202689329"><ele>1670.0</ele><time>2026-05-05T10:30:08.999Z</time></trkpt><trkpt lat="30.96931068641395" lon="-6.043371891016392"><ele>1670.0</ele><time>2026-05-05T10:30:09.999Z</time></trkpt><trkpt lat="30.969387504225494" lon="-6.043325584801091"><ele>1670.0</ele><time>2026-05-05T10:30:10.999Z</time></trkpt><trkpt lat="30.969467841228855" lon="-6.043272273258737"><ele>1667.4999999999998</ele><time>2026-05-05T10:30:11.999Z</time></trkpt><trkpt lat="30.969538969341045" lon="-6.043216422804304"><ele>1665.0</ele><time>2026-05-05T10:30:12.999Z</time></trkpt><trkpt lat="30.9696081786848" lon="-6.043159974674874"><ele>1662.5</ele><time>2026-05-05T10:30:13.999Z</time></trkpt><trkpt lat="30.969681109281794" lon="-6.043119578621593"><ele>1660.0</ele><time>2026-05-05T10:30:14.999Z</time></trkpt><trkpt lat="30.96975781451227" lon="-6.043095220218849"><ele>1657.4999999999998</ele><time>2026-05-05T10:30:15.999Z</time></trkpt><trkpt lat="30.969846188375783" lon="-6.043068202457937"><ele>1655.0</ele><time>2026-05-05T10:30:16.999Z</time></trkpt><trkpt lat="30.96995194245385" lon="-6.043062097626897"><ele>1660.6666666666665</ele><time>2026-05-05T10:30:17.999Z</time></trkpt><trkpt lat="30.97005047749592" lon="-6.043080620555029"><ele>1666.3333333333333</ele><time>2026-05-05T10:30:18.999Z</time></trkpt><trkpt lat="30.97013757758992" lon="-6.043106311688487"><ele>1672.0</ele><time>2026-05-05T10:30:19.999Z</time></trkpt><trkpt lat="30.97021284896109" lon="-6.043114247715011"><ele>1677.6666666666665</ele><time>2026-05-05T10:30:20.999Z</time></trkpt><trkpt lat="30.97027468684053" lon="-6.043046882569337"><ele>1683.3333333333333</ele><time>2026-05-05T10:30:21.999Z</time></trkpt><trkpt lat="30.970312243968454" lon="-6.0429829430820075"><ele>1689.0</ele><time>2026-05-05T10:30:22.999Z</time></trkpt><trkpt lat="30.970355211985094" lon="-6.042909756333247"><ele>1689.0</ele><time>2026-05-05T10:30:23.999Z</time></trkpt><trkpt lat="30.970406753599807" lon="-6.042829275457473"><ele>1689.0</ele><time>2026-05-05T10:30:24.999Z</time></trkpt><trkpt lat="30.970460278263758" lon="-6.042749222263057"><ele>1689.0</ele><time>2026-05-05T10:30:25.999Z</time></trkpt><trkpt lat="30.97048538556613" lon="-6.042675713677996"><ele>1689.0</ele><time>2026-05-05T10:30:26.999Z</time></trkpt><trkpt lat="30.970522976775875" lon="-6.042588864915036"><ele>1689.0</ele><time>2026-05-05T10:30:27.999Z</time></trkpt><trkpt lat="30.97055751771226" lon="-6.042509063338881"><ele>1689.0</ele><time>2026-05-05T10:30:28.999Z</time></trkpt><trkpt lat="30.97049921769257" lon="-6.042349856417154"><ele>1688.6</ele><time>2026-05-05T10:30:30.999Z</time></trkpt><trkpt lat="30.970448942668487" lon="-6.042258986292169"><ele>1688.2</ele><time>2026-05-05T10:30:31.999Z</time></trkpt><trkpt lat="30.970406769250886" lon="-6.042160020675188"><ele>1687.8</ele><time>2026-05-05T10:30:32.999Z</time></trkpt><trkpt lat="30.9703717923055" lon="-6.042049388252622"><ele>1687.3999999999999</ele><time>2026-05-05T10:30:33.999Z</time></trkpt><trkpt lat="30.970332490156082" lon="-6.041939093267043"><ele>1687.0</ele><time>2026-05-05T10:30:34.999Z</time></trkpt><trkpt lat="30.970293142649858" lon="-6.041831094430771"><ele>1687.0</ele><time>2026-05-05T10:30:35.999Z</time></trkpt><trkpt lat="30.970253286250205" lon="-6.041711008286295"><ele>1687.0</ele><time>2026-05-05T10:30:36.999Z</time></trkpt><trkpt lat="30.970215266955886" lon="-6.041600184828667"><ele>1687.0</ele><time>2026-05-05T10:30:37.999Z</time></trkpt><trkpt lat="30.970179683984885" lon="-6.041496449547209"><ele>1687.0</ele><time>2026-05-05T10:30:38.999Z</time></trkpt><trkpt lat="30.970144564416742" lon="-6.041387435973335"><ele>1687.0</ele><time>2026-05-05T10:30:39.999Z</time></trkpt><trkpt lat="30.97010783418883" lon="-6.0412857977394205"><ele>1687.3333333333335</ele><time>2026-05-05T10:30:40.999Z</time></trkpt><trkpt lat="30.970077163564852" lon="-6.041192784396748"><ele>1687.6666666666667</ele><time>2026-05-05T10:30:41.999Z</time></trkpt><trkpt lat="30.970050864101513" lon="-6.0410929332721945"><ele>1688.0</ele><time>2026-05-05T10:30:42.999Z</time></trkpt><trkpt lat="30.970023904395028" lon="-6.0410051667894935"><ele>1688.3333333333335</ele><time>2026-05-05T10:30:43.999Z</time></trkpt><trkpt lat="30.969989307107802" lon="-6.040913315787408"><ele>1688.6666666666667</ele><time>2026-05-05T10:30:44.999Z</time></trkpt><trkpt lat="30.969946389614773" lon="-6.040822288816491"><ele>1689.0</ele><time>2026-05-05T10:30:45.999Z</time></trkpt><trkpt lat="30.9698945798882" lon="-6.040734540141908"><ele>1682.0</ele><time>2026-05-05T10:30:46.999Z</time></trkpt><trkpt lat="30.969846336375802" lon="-6.040644985655544"><ele>1675.0</ele><time>2026-05-05T10:30:47.999Z</time></trkpt><trkpt lat="30.969797758656533" lon="-6.040556634531408"><ele>1668.0</ele><time>2026-05-05T10:30:48.999Z</time></trkpt><trkpt lat="30.969748541240616" lon="-6.040484643972128"><ele>1661.0</ele><time>2026-05-05T10:30:49.999Z</time></trkpt><trkpt lat="30.96971457735327" lon="-6.04042276138113"><ele>1654.0</ele><time>2026-05-05T10:30:50.999Z</time></trkpt><trkpt lat="30.96970275213817" lon="-6.040346694761936"><ele>1647.0</ele><time>2026-05-05T10:30:51.999Z</time></trkpt><trkpt lat="30.96971182460255" lon="-6.040271578274761"><ele>1647.0</ele><time>2026-05-05T10:30:52.999Z</time></trkpt><trkpt lat="30.969738742374346" lon="-6.040196559591184"><ele>1647.0</ele><time>2026-05-05T10:30:53.999Z</time></trkpt><trkpt lat="30.96978147687419" lon="-6.040113102941553"><ele>1647.0</ele><time>2026-05-05T10:30:54.999Z</time></trkpt><trkpt lat="30.969814903815664" lon="-6.040008111342303"><ele>1647.0</ele><time>2026-05-05T10:30:55.999Z</time></trkpt><trkpt lat="30.96983437669402" lon="-6.039894064077165"><ele>1647.0</ele><time>2026-05-05T10:30:56.999Z</time></trkpt><trkpt lat="30.96984097767294" lon="-6.039779029746632"><ele>1647.0</ele><time>2026-05-05T10:30:57.999Z</time></trkpt><trkpt lat="30.969845869181224" lon="-6.039669916123857"><ele>1644.6666666666667</ele><time>2026-05-05T10:30:58.999Z</time></trkpt><trkpt lat="30.969863308418535" lon="-6.039563849424415"><ele>1642.3333333333335</ele><time>2026-05-05T10:30:59.999Z</time></trkpt><trkpt lat="30.969886164976913" lon="-6.0394640484508715"><ele>1640.0</ele><time>2026-05-05T10:31:00.999Z</time></trkpt><trkpt lat="30.96992540523599" lon="-6.039368618800742"><ele>1637.6666666666667</ele><time>2026-05-05T10:31:01.999Z</time></trkpt><trkpt lat="30.9699704611494" lon="-6.0392775478773535"><ele>1635.3333333333335</ele><time>2026-05-05T10:31:02.999Z</time></trkpt><trkpt lat="30.969999843957734" lon="-6.039188031385883"><ele>1633.0</ele><time>2026-05-05T10:31:03.999Z</time></trkpt><trkpt lat="30.970006728379197" lon="-6.039087477183255"><ele>1633.1666666666667</ele><time>2026-05-05T10:31:04.999Z</time></trkpt><trkpt lat="30.969999731189965" lon="-6.0389874805193555"><ele>1633.3333333333335</ele><time>2026-05-05T10:31:05.999Z</time></trkpt><trkpt lat="30.96998764442539" lon="-6.03889574374239"><ele>1633.5</ele><time>2026-05-05T10:31:06.999Z</time></trkpt><trkpt lat="30.969984976964483" lon="-6.038819150411353"><ele>1633.6666666666665</ele><time>2026-05-05T10:31:07.999Z</time></trkpt><trkpt lat="30.970051784225628" lon="-6.038685894192429"><ele>1633.8333333333333</ele><time>2026-05-05T10:31:09.999Z</time></trkpt><trkpt lat="30.970123398168912" lon="-6.0386351943047805"><ele>1634.0</ele><time>2026-05-05T10:31:10.999Z</time></trkpt><trkpt lat="30.97020824301895" lon="-6.0386015989574995"><ele>1633.9999999999998</ele><time>2026-05-05T10:31:11.999Z</time></trkpt><trkpt lat="30.970288335362927" lon="-6.0385778007443145"><ele>1634.0</ele><time>2026-05-05T10:31:12.999Z</time></trkpt><trkpt lat="30.970365143415975" lon="-6.038556008431216"><ele>1634.0</ele><time>2026-05-05T10:31:13.999Z</time></trkpt><trkpt lat="30.970439813088824" lon="-6.038523243567133"><ele>1634.0</ele><time>2026-05-05T10:31:14.999Z</time></trkpt><trkpt lat="30.97051029984359" lon="-6.0384747011607285"><ele>1633.9999999999998</ele><time>2026-05-05T10:31:15.999Z</time></trkpt><trkpt lat="30.970569203620617" lon="-6.038406900806841"><ele>1634.0</ele><time>2026-05-05T10:31:16.999Z</time></trkpt><trkpt lat="30.970611430594275" lon="-6.0383232177486414"><ele>1629.2</ele><time>2026-05-05T10:31:17.999Z</time></trkpt><trkpt lat="30.97063673898212" lon="-6.038229814358216"><ele>1624.4</ele><time>2026-05-05T10:31:18.999Z</time></trkpt><trkpt lat="30.970661150293818" lon="-6.038127659783852"><ele>1619.6</ele><time>2026-05-05T10:31:19.999Z</time></trkpt><trkpt lat="30.970679242959303" lon="-6.038016965198974"><ele>1614.8</ele><time>2026-05-05T10:31:20.999Z</time></trkpt><trkpt lat="30.970696532213232" lon="-6.037912132049564"><ele>1610.0</ele><time>2026-05-05T10:31:21.999Z</time></trkpt><trkpt lat="30.97071423496125" lon="-6.0378128002309195"><ele>1609.9999999999998</ele><time>2026-05-05T10:31:22.999Z</time></trkpt><trkpt lat="30.97073881921015" lon="-6.037721259989275"><ele>1610.0</ele><time>2026-05-05T10:31:23.999Z</time></trkpt><trkpt lat="30.970771135591818" lon="-6.037633139801856"><ele>1610.0</ele><time>2026-05-05T10:31:24.999Z</time></trkpt><trkpt lat="30.970812335686325" lon="-6.037553074945019"><ele>1610.0</ele><time>2026-05-05T10:31:25.999Z</time></trkpt><trkpt lat="30.9708647794711" lon="-6.037475797627279"><ele>1609.9999999999998</ele><time>2026-05-05T10:31:26.999Z</time></trkpt><trkpt lat="30.970924418763474" lon="-6.0373996705065975"><ele>1610.0</ele><time>2026-05-05T10:31:27.999Z</time></trkpt><trkpt lat="30.970984497417213" lon="-6.037319781532487"><ele>1608.8</ele><time>2026-05-05T10:31:28.999Z</time></trkpt><trkpt lat="30.97104084504017" lon="-6.03723606990932"><ele>1607.6</ele><time>2026-05-05T10:31:29.999Z</time></trkpt><trkpt lat="30.971097037455994" lon="-6.037156367125888"><ele>1606.4</ele><time>2026-05-05T10:31:30.999Z</time></trkpt><trkpt lat="30.971158240318495" lon="-6.037072986930303"><ele>1605.2</ele><time>2026-05-05T10:31:31.999Z</time></trkpt><trkpt lat="30.97122017927059" lon="-6.036994903002549"><ele>1604.0</ele><time>2026-05-05T10:31:32.999Z</time></trkpt><trkpt lat="30.971284420653156" lon="-6.036911933741415"><ele>1603.9999999999998</ele><time>2026-05-05T10:31:33.999Z</time></trkpt><trkpt lat="30.971351715937438" lon="-6.036835050016584"><ele>1604.0</ele><time>2026-05-05T10:31:34.999Z</time></trkpt><trkpt lat="30.971423412460243" lon="-6.036764786300937"><ele>1604.0</ele><time>2026-05-05T10:31:35.999Z</time></trkpt><trkpt lat="30.97149379208369" lon="-6.036701594242898"><ele>1604.0</ele><time>2026-05-05T10:31:36.999Z</time></trkpt><trkpt lat="30.97155942535491" lon="-6.036640872874907"><ele>1603.9999999999998</ele><time>2026-05-05T10:31:37.999Z</time></trkpt><trkpt lat="30.971629195800347" lon="-6.036588209416563"><ele>1604.0</ele><time>2026-05-05T10:31:38.999Z</time></trkpt><trkpt lat="30.971703555935818" lon="-6.0365527805661845"><ele>1604.9999999999998</ele><time>2026-05-05T10:31:39.999Z</time></trkpt><trkpt lat="30.97177777854611" lon="-6.036534763229648"><ele>1606.0</ele><time>2026-05-05T10:31:40.999Z</time></trkpt><trkpt lat="30.97184429802526" lon="-6.036527786946764"><ele>1607.0</ele><time>2026-05-05T10:31:41.999Z</time></trkpt><trkpt lat="30.971937597528925" lon="-6.036477504202342"><ele>1608.0</ele><time>2026-05-05T10:31:43.999Z</time></trkpt><trkpt lat="30.97194515527923" lon="-6.036346494469668"><ele>1608.9999999999998</ele><time>2026-05-05T10:31:45.999Z</time></trkpt><trkpt lat="30.971909278715497" lon="-6.036280659272731"><ele>1610.0</ele><time>2026-05-05T10:31:46.999Z</time></trkpt><trkpt lat="30.971844835585454" lon="-6.03623617566084"><ele>1610.0</ele><time>2026-05-05T10:31:47.999Z</time></trkpt><trkpt lat="30.971749470695936" lon="-6.036202963883111"><ele>1610.0</ele><time>2026-05-05T10:31:48.999Z</time></trkpt><trkpt lat="30.9716256144819" lon="-6.036165687863182"><ele>1610.0</ele><time>2026-05-05T10:31:49.999Z</time></trkpt><trkpt lat="30.971510424743606" lon="-6.036123930981112"><ele>1610.0</ele><time>2026-05-05T10:31:50.999Z</time></trkpt><trkpt lat="30.97140812269444" lon="-6.036088816559043"><ele>1608.0</ele><time>2026-05-05T10:31:51.999Z</time></trkpt><trkpt lat="30.971320267075374" lon="-6.036067044644228"><ele>1606.0</ele><time>2026-05-05T10:31:52.999Z</time></trkpt><trkpt lat="30.971234829810438" lon="-6.036076398805781"><ele>1604.0</ele><time>2026-05-05T10:31:53.999Z</time></trkpt><trkpt lat="30.971136831573542" lon="-6.036105277038088"><ele>1602.0</ele><time>2026-05-05T10:31:54.999Z</time></trkpt><trkpt lat="30.97102858911074" lon="-6.036133524603862"><ele>1600.0</ele><time>2026-05-05T10:31:55.999Z</time></trkpt><trkpt lat="30.970909368413757" lon="-6.03614715696844"><ele>1599.5</ele><time>2026-05-05T10:31:56.999Z</time></trkpt><trkpt lat="30.970794656825593" lon="-6.0361495747703335"><ele>1599.0</ele><time>2026-05-05T10:31:57.999Z</time></trkpt><trkpt lat="30.9706760367699" lon="-6.036139435350138"><ele>1598.5</ele><time>2026-05-05T10:31:58.999Z</time></trkpt><trkpt lat="30.970548611848965" lon="-6.03611420323468"><ele>1598.0</ele><time>2026-05-05T10:31:59.999Z</time></trkpt><trkpt lat="30.97042676206838" lon="-6.036088270693986"><ele>1598.0</ele><time>2026-05-05T10:32:00.999Z</time></trkpt><trkpt lat="30.970313710948783" lon="-6.036063109074617"><ele>1598.0</ele><time>2026-05-05T10:32:01.999Z</time></trkpt><trkpt lat="30.970202714517306" lon="-6.036036822711016"><ele>1598.0</ele><time>2026-05-05T10:32:02.999Z</time></trkpt><trkpt lat="30.970093628045653" lon="-6.036006107837502"><ele>1598.0</ele><time>2026-05-05T10:32:03.999Z</time></trkpt><trkpt lat="30.969996225560443" lon="-6.0359739774696335"><ele>1598.0</ele><time>2026-05-05T10:32:04.999Z</time></trkpt><trkpt lat="30.96990001609216" lon="-6.035924895735134"><ele>1595.6000000000001</ele><time>2026-05-05T10:32:05.999Z</time></trkpt><trkpt lat="30.969812654447235" lon="-6.035860668966471"><ele>1593.2</ele><time>2026-05-05T10:32:06.999Z</time></trkpt><trkpt lat="30.969727594238588" lon="-6.035796953672232"><ele>1590.8</ele><time>2026-05-05T10:32:07.999Z</time></trkpt><trkpt lat="30.969638311945605" lon="-6.035742316978869"><ele>1588.4</ele><time>2026-05-05T10:32:08.999Z</time></trkpt><trkpt lat="30.969543647970564" lon="-6.035711620988199"><ele>1586.0</ele><time>2026-05-05T10:32:09.999Z</time></trkpt><trkpt lat="30.969445179085177" lon="-6.035699227331743"><ele>1585.8</ele><time>2026-05-05T10:32:10.999Z</time></trkpt><trkpt lat="30.969354766348758" lon="-6.035686563278629"><ele>1585.6</ele><time>2026-05-05T10:32:11.999Z</time></trkpt><trkpt lat="30.969281455995937" lon="-6.035657562462147"><ele>1585.4</ele><time>2026-05-05T10:32:12.999Z</time></trkpt><trkpt lat="30.969205718787553" lon="-6.03560079267857"><ele>1585.2</ele><time>2026-05-05T10:32:13.999Z</time></trkpt><trkpt lat="30.96914059931879" lon="-6.035518178284356"><ele>1585.0</ele><time>2026-05-05T10:32:14.999Z</time></trkpt><trkpt lat="30.969087394832894" lon="-6.035425234311614"><ele>1585.0000000000002</ele><time>2026-05-05T10:32:15.999Z</time></trkpt><trkpt lat="30.969028211378482" lon="-6.03532772416205"><ele>1585.0</ele><time>2026-05-05T10:32:16.999Z</time></trkpt><trkpt lat="30.968964290680688" lon="-6.035251455462665"><ele>1585.0</ele><time>2026-05-05T10:32:17.999Z</time></trkpt><trkpt lat="30.96890368976817" lon="-6.035163936762468"><ele>1585.0</ele><time>2026-05-05T10:32:18.999Z</time></trkpt><trkpt lat="30.968861853287507" lon="-6.035087365918743"><ele>1585.0000000000002</ele><time>2026-05-05T10:32:19.999Z</time></trkpt><trkpt lat="30.968834819513535" lon="-6.035010689433836"><ele>1585.0</ele><time>2026-05-05T10:32:20.999Z</time></trkpt><trkpt lat="30.968747492853076" lon="-6.034899152516896"><ele>1590.2</ele><time>2026-05-05T10:32:22.999Z</time></trkpt><trkpt lat="30.968610288384653" lon="-6.034881083214922"><ele>1595.4</ele><time>2026-05-05T10:32:24.999Z</time></trkpt><trkpt lat="30.96851857208793" lon="-6.034900450922515"><ele>1600.6</ele><time>2026-05-05T10:32:25.999Z</time></trkpt><trkpt lat="30.968440023702662" lon="-6.034903593480485"><ele>1605.8</ele><time>2026-05-05T10:32:26.999Z</time></trkpt><trkpt lat="30.968361969046907" lon="-6.034899733427851"><ele>1611.0</ele><time>2026-05-05T10:32:27.999Z</time></trkpt><trkpt lat="30.968286471808817" lon="-6.0349054866939085"><ele>1611.0</ele><time>2026-05-05T10:32:28.999Z</time></trkpt><trkpt lat="30.968208378063675" lon="-6.034937923904666"><ele>1611.0</ele><time>2026-05-05T10:32:29.999Z</time></trkpt><trkpt lat="30.968125040722636" lon="-6.034994371249256"><ele>1611.0</ele><time>2026-05-05T10:32:30.999Z</time></trkpt><trkpt lat="30.968033982015033" lon="-6.035061347362611"><ele>1611.0</ele><time>2026-05-05T10:32:31.999Z</time></trkpt><trkpt lat="30.967944668533416" lon="-6.035125815371627"><ele>1611.0</ele><time>2026-05-05T10:32:32.999Z</time></trkpt><trkpt lat="30.96786565955023" lon="-6.035183019854069"><ele>1603.8</ele><time>2026-05-05T10:32:33.999Z</time></trkpt><trkpt lat="30.967797942479194" lon="-6.035247579331936"><ele>1596.6</ele><time>2026-05-05T10:32:34.999Z</time></trkpt><trkpt lat="30.967732552384216" lon="-6.035333800830125"><ele>1589.4</ele><time>2026-05-05T10:32:35.999Z</time></trkpt><trkpt lat="30.967669008295367" lon="-6.035427837546622"><ele>1582.2</ele><time>2026-05-05T10:32:36.999Z</time></trkpt><trkpt lat="30.967601641419687" lon="-6.035513204060444"><ele>1575.0</ele><time>2026-05-05T10:32:37.999Z</time></trkpt><trkpt lat="30.967519420680112" lon="-6.03558997229202"><ele>1575.0</ele><time>2026-05-05T10:32:38.999Z</time></trkpt><trkpt lat="30.967416194601928" lon="-6.035648047605304"><ele>1575.0</ele><time>2026-05-05T10:32:39.999Z</time></trkpt><trkpt lat="30.9673090716694" lon="-6.03569002468209"><ele>1575.0</ele><time>2026-05-05T10:32:40.999Z</time></trkpt><trkpt lat="30.96720064316921" lon="-6.035731912359704"><ele>1575.0</ele><time>2026-05-05T10:32:41.999Z</time></trkpt><trkpt lat="30.967109394473596" lon="-6.035785127155183"><ele>1575.0</ele><time>2026-05-05T10:32:42.999Z</time></trkpt><trkpt lat="30.96703384776388" lon="-6.035851987298505"><ele>1573.4</ele><time>2026-05-05T10:32:43.999Z</time></trkpt><trkpt lat="30.966946304636963" lon="-6.035916552030302"><ele>1571.8</ele><time>2026-05-05T10:32:44.999Z</time></trkpt><trkpt lat="30.96684797665607" lon="-6.0359656530260155"><ele>1570.1999999999998</ele><time>2026-05-05T10:32:45.999Z</time></trkpt><trkpt lat="30.966744481697596" lon="-6.036009569610863"><ele>1568.6</ele><time>2026-05-05T10:32:46.999Z</time></trkpt><trkpt lat="30.966633272810974" lon="-6.036041492146716"><ele>1567.0</ele><time>2026-05-05T10:32:47.999Z</time></trkpt><trkpt lat="30.966514380999563" lon="-6.036071757366519"><ele>1567.0</ele><time>2026-05-05T10:32:48.999Z</time></trkpt><trkpt lat="30.96638899358251" lon="-6.036102139149526"><ele>1567.0</ele><time>2026-05-05T10:32:49.999Z</time></trkpt><trkpt lat="30.966264956139472" lon="-6.036133020648375"><ele>1567.0</ele><time>2026-05-05T10:32:50.999Z</time></trkpt><trkpt lat="30.966130118452117" lon="-6.036167714351867"><ele>1567.0</ele><time>2026-05-05T10:32:51.999Z</time></trkpt><trkpt lat="30.966007240701288" lon="-6.036199009726832"><ele>1567.0</ele><time>2026-05-05T10:32:52.999Z</time></trkpt><trkpt lat="30.96588530318803" lon="-6.036236437089655"><ele>1567.0</ele><time>2026-05-05T10:32:53.999Z</time></trkpt><trkpt lat="30.9657561423002" lon="-6.036277892153665"><ele>1567.0</ele><time>2026-05-05T10:32:54.999Z</time></trkpt><trkpt lat="30.965629432408903" lon="-6.036312777408867"><ele>1567.0</ele><time>2026-05-05T10:32:55.999Z</time></trkpt><trkpt lat="30.96549811239949" lon="-6.036337167033119"><ele>1569.25</ele><time>2026-05-05T10:32:56.999Z</time></trkpt><trkpt lat="30.965369951659426" lon="-6.036353045681073"><ele>1571.5</ele><time>2026-05-05T10:32:57.999Z</time></trkpt><trkpt lat="30.96524015288789" lon="-6.036367437374549"><ele>1573.75</ele><time>2026-05-05T10:32:58.999Z</time></trkpt><trkpt lat="30.96511056433381" lon="-6.036368838564062"><ele>1576.0</ele><time>2026-05-05T10:32:59.999Z</time></trkpt><trkpt lat="30.964986237598232" lon="-6.036368099012001"><ele>1576.25</ele><time>2026-05-05T10:33:00.999Z</time></trkpt><trkpt lat="30.964861240044833" lon="-6.03635766625685"><ele>1576.5</ele><time>2026-05-05T10:33:01.999Z</time></trkpt><trkpt lat="30.96474402304417" lon="-6.0363322059413"><ele>1576.75</ele><time>2026-05-05T10:33:02.999Z</time></trkpt><trkpt lat="30.964626061360377" lon="-6.0363135553621365"><ele>1577.0</ele><time>2026-05-05T10:33:03.999Z</time></trkpt><trkpt lat="30.964507836245467" lon="-6.036300344810342"><ele>1577.0</ele><time>2026-05-05T10:33:04.999Z</time></trkpt><trkpt lat="30.964402821864468" lon="-6.0362794520354175"><ele>1577.0</ele><time>2026-05-05T10:33:05.999Z</time></trkpt><trkpt lat="30.964307437874727" lon="-6.036243118002262"><ele>1577.0</ele><time>2026-05-05T10:33:06.999Z</time></trkpt><trkpt lat="30.964224699128295" lon="-6.036189945304991"><ele>1577.0</ele><time>2026-05-05T10:33:07.999Z</time></trkpt><trkpt lat="30.96415026814567" lon="-6.036126283262238"><ele>1577.0</ele><time>2026-05-05T10:33:08.999Z</time></trkpt><trkpt lat="30.964079129391717" lon="-6.036053471410398"><ele>1578.1666666666665</ele><time>2026-05-05T10:33:09.999Z</time></trkpt><trkpt lat="30.96401383682391" lon="-6.035977523857465"><ele>1579.3333333333333</ele><time>2026-05-05T10:33:10.999Z</time></trkpt><trkpt lat="30.963946034897287" lon="-6.0359022089505885"><ele>1580.5</ele><time>2026-05-05T10:33:11.999Z</time></trkpt><trkpt lat="30.963881151044983" lon="-6.035837044266819"><ele>1581.6666666666665</ele><time>2026-05-05T10:33:12.999Z</time></trkpt><trkpt lat="30.963816843352394" lon="-6.035791353063821"><ele>1582.8333333333333</ele><time>2026-05-05T10:33:13.999Z</time></trkpt><trkpt lat="30.963751332824188" lon="-6.035760736274677"><ele>1584.0</ele><time>2026-05-05T10:33:14.999Z</time></trkpt><trkpt lat="30.963681447189458" lon="-6.035761706521217"><ele>1584.0</ele><time>2026-05-05T10:33:15.999Z</time></trkpt><trkpt lat="30.963604393504628" lon="-6.035786489503285"><ele>1584.0</ele><time>2026-05-05T10:33:16.999Z</time></trkpt><trkpt lat="30.963496059343594" lon="-6.035830334663064"><ele>1584.0</ele><time>2026-05-05T10:33:17.999Z</time></trkpt><trkpt lat="30.96339076784083" lon="-6.035867498976101"><ele>1584.0</ele><time>2026-05-05T10:33:18.999Z</time></trkpt><trkpt lat="30.96328424784231" lon="-6.035870421399126"><ele>1584.0</ele><time>2026-05-05T10:33:19.999Z</time></trkpt><trkpt lat="30.963169087303402" lon="-6.035857157851757"><ele>1583.6</ele><time>2026-05-05T10:33:20.999Z</time></trkpt><trkpt lat="30.963054208390925" lon="-6.035839310223509"><ele>1583.2</ele><time>2026-05-05T10:33:21.999Z</time></trkpt><trkpt lat="30.962947666838804" lon="-6.035821702170398"><ele>1582.8</ele><time>2026-05-05T10:33:22.999Z</time></trkpt><trkpt lat="30.962856350588826" lon="-6.035798744382035"><ele>1582.3999999999999</ele><time>2026-05-05T10:33:23.999Z</time></trkpt><trkpt lat="30.962757930052824" lon="-6.035773372461097"><ele>1582.0</ele><time>2026-05-05T10:33:24.999Z</time></trkpt><trkpt lat="30.96266391295558" lon="-6.035744031602362"><ele>1582.0</ele><time>2026-05-05T10:33:25.999Z</time></trkpt><trkpt lat="30.962580242034523" lon="-6.035697820015011"><ele>1582.0</ele><time>2026-05-05T10:33:26.999Z</time></trkpt><trkpt lat="30.96250638246986" lon="-6.035639437783174"><ele>1582.0</ele><time>2026-05-05T10:33:27.999Z</time></trkpt><trkpt lat="30.96244717974986" lon="-6.0355734958234155"><ele>1582.0</ele><time>2026-05-05T10:33:28.999Z</time></trkpt><trkpt lat="30.962394469274873" lon="-6.035486248693422"><ele>1582.0</ele><time>2026-05-05T10:33:29.999Z</time></trkpt><trkpt lat="30.962347275144907" lon="-6.035382809271348"><ele>1577.0</ele><time>2026-05-05T10:33:30.999Z</time></trkpt><trkpt lat="30.962309737375378" lon="-6.035258883768563"><ele>1572.0</ele><time>2026-05-05T10:33:31.999Z</time></trkpt><trkpt lat="30.962274384086605" lon="-6.0351382102275135"><ele>1567.0</ele><time>2026-05-05T10:33:32.999Z</time></trkpt><trkpt lat="30.962228885631966" lon="-6.035017109537544"><ele>1562.0</ele><time>2026-05-05T10:33:33.999Z</time></trkpt><trkpt lat="30.962181681066806" lon="-6.034899714486401"><ele>1557.0</ele><time>2026-05-05T10:33:34.999Z</time></trkpt><trkpt lat="30.96213904328165" lon="-6.034785618473526"><ele>1556.1666666666667</ele><time>2026-05-05T10:33:35.999Z</time></trkpt><trkpt lat="30.96210471066277" lon="-6.034685768548057"><ele>1555.3333333333335</ele><time>2026-05-05T10:33:36.999Z</time></trkpt><trkpt lat="30.962076291416043" lon="-6.034590621783995"><ele>1554.5</ele><time>2026-05-05T10:33:37.999Z</time></trkpt><trkpt lat="30.96205993118686" lon="-6.034500336998655"><ele>1553.6666666666667</ele><time>2026-05-05T10:33:38.999Z</time></trkpt><trkpt lat="30.9620612483101" lon="-6.03441004172546"><ele>1552.8333333333335</ele><time>2026-05-05T10:33:39.999Z</time></trkpt><trkpt lat="30.962080158780147" lon="-6.034325418651055"><ele>1552.0</ele><time>2026-05-05T10:33:40.999Z</time></trkpt><trkpt lat="30.96211613551408" lon="-6.034234138022335"><ele>1552.0</ele><time>2026-05-05T10:33:41.999Z</time></trkpt><trkpt lat="30.962167066171965" lon="-6.034157674185467"><ele>1552.0</ele><time>2026-05-05T10:33:42.999Z</time></trkpt><trkpt lat="30.962229492227067" lon="-6.034083150882756"><ele>1552.0</ele><time>2026-05-05T10:33:43.999Z</time></trkpt><trkpt lat="30.962294094515837" lon="-6.034005685274354"><ele>1552.0</ele><time>2026-05-05T10:33:44.999Z</time></trkpt><trkpt lat="30.962360796791312" lon="-6.033915335714151"><ele>1552.0</ele><time>2026-05-05T10:33:45.999Z</time></trkpt><trkpt lat="30.96244147743257" lon="-6.033833372135336"><ele>1554.6</ele><time>2026-05-05T10:33:46.999Z</time></trkpt><trkpt lat="30.96253729590028" lon="-6.033755200519947"><ele>1557.1999999999998</ele><time>2026-05-05T10:33:47.999Z</time></trkpt><trkpt lat="30.962638131975833" lon="-6.03367866225442"><ele>1559.8</ele><time>2026-05-05T10:33:48.999Z</time></trkpt><trkpt lat="30.962732675827016" lon="-6.033605728045916"><ele>1562.4</ele><time>2026-05-05T10:33:49.999Z</time></trkpt><trkpt lat="30.96281381321504" lon="-6.0335430889301405"><ele>1565.0</ele><time>2026-05-05T10:33:51Z</time></trkpt><trkpt lat="30.962891304908972" lon="-6.033478102687858"><ele>1565.0</ele><time>2026-05-05T10:33:52Z</time></trkpt><trkpt lat="30.96296911724324" lon="-6.033410302869962"><ele>1565.0</ele><time>2026-05-05T10:33:53Z</time></trkpt><trkpt lat="30.96304268826034" lon="-6.033336308619514"><ele>1565.0</ele><time>2026-05-05T10:33:54Z</time></trkpt><trkpt lat="30.963105176694196" lon="-6.033246762866883"><ele>1565.0</ele><time>2026-05-05T10:33:55Z</time></trkpt><trkpt lat="30.963149957812792" lon="-6.033154553311394"><ele>1565.0</ele><time>2026-05-05T10:33:56Z</time></trkpt><trkpt lat="30.963173652249278" lon="-6.0330726925034295"><ele>1564.9999999999998</ele><time>2026-05-05T10:33:57Z</time></trkpt><trkpt lat="30.96317627076166" lon="-6.032989562880962"><ele>1565.0</ele><time>2026-05-05T10:33:58Z</time></trkpt><trkpt lat="30.963163895660916" lon="-6.032907772060035"><ele>1565.0</ele><time>2026-05-05T10:33:59Z</time></trkpt><trkpt lat="30.963132957364948" lon="-6.03283168670042"><ele>1565.0</ele><time>2026-05-05T10:34:00Z</time></trkpt><trkpt lat="30.963076698015602" lon="-6.032778186084751"><ele>1564.9999999999998</ele><time>2026-05-05T10:34:01Z</time></trkpt><trkpt lat="30.96300162655076" lon="-6.032733831794047"><ele>1565.0</ele><time>2026-05-05T10:34:02Z</time></trkpt><trkpt lat="30.962912341941692" lon="-6.032690198055399"><ele>1565.0</ele><time>2026-05-05T10:34:03Z</time></trkpt><trkpt lat="30.96281357379709" lon="-6.032624455248911"><ele>1565.0</ele><time>2026-05-05T10:34:04Z</time></trkpt><trkpt lat="30.962722841507787" lon="-6.0325412836847105"><ele>1565.0</ele><time>2026-05-05T10:34:05Z</time></trkpt><trkpt lat="30.962633753043246" lon="-6.032460966906871"><ele>1565.0</ele><time>2026-05-05T10:34:06Z</time></trkpt><trkpt lat="30.962572207798676" lon="-6.032377674439474"><ele>1565.0</ele><time>2026-05-05T10:34:07Z</time></trkpt><trkpt lat="30.962523265499268" lon="-6.032282117548584"><ele>1561.0</ele><time>2026-05-05T10:34:08Z</time></trkpt><trkpt lat="30.962493395656306" lon="-6.032166592115091"><ele>1557.0</ele><time>2026-05-05T10:34:09Z</time></trkpt><trkpt lat="30.962468274400234" lon="-6.032024093515985"><ele>1553.0</ele><time>2026-05-05T10:34:10Z</time></trkpt><trkpt lat="30.962458775652525" lon="-6.031883306788941"><ele>1549.0</ele><time>2026-05-05T10:34:11Z</time></trkpt><trkpt lat="30.96246434104661" lon="-6.031754646536702"><ele>1550.0</ele><time>2026-05-05T10:34:12Z</time></trkpt><trkpt lat="30.962469200634384" lon="-6.031624768516975"><ele>1551.0</ele><time>2026-05-05T10:34:13Z</time></trkpt><trkpt lat="30.96248097899777" lon="-6.031501562405829"><ele>1552.0</ele><time>2026-05-05T10:34:14Z</time></trkpt><trkpt lat="30.962504797976724" lon="-6.031390986654328"><ele>1553.0</ele><time>2026-05-05T10:34:15Z</time></trkpt><trkpt lat="30.962539046666063" lon="-6.031288996596801"><ele>1554.0</ele><time>2026-05-05T10:34:16Z</time></trkpt><trkpt lat="30.962588476856073" lon="-6.031187569137021"><ele>1554.8000000000002</ele><time>2026-05-05T10:34:17Z</time></trkpt><trkpt lat="30.9626445349316" lon="-6.031095540077932"><ele>1555.6000000000001</ele><time>2026-05-05T10:34:18Z</time></trkpt><trkpt lat="30.96271273125691" lon="-6.030999193143139"><ele>1556.4</ele><time>2026-05-05T10:34:19Z</time></trkpt><trkpt lat="30.962785156414867" lon="-6.030900838991743"><ele>1557.2</ele><time>2026-05-05T10:34:20Z</time></trkpt><trkpt lat="30.962848362352062" lon="-6.030797317167042"><ele>1558.0</ele><time>2026-05-05T10:34:21Z</time></trkpt><trkpt lat="30.962906052939758" lon="-6.030713259677948"><ele>1558.0</ele><time>2026-05-05T10:34:22Z</time></trkpt><trkpt lat="30.962974627690876" lon="-6.030659165347197"><ele>1558.0</ele><time>2026-05-05T10:34:23Z</time></trkpt><trkpt lat="30.963060949503923" lon="-6.030625234825125"><ele>1558.0</ele><time>2026-05-05T10:34:24Z</time></trkpt><trkpt lat="30.963158518691404" lon="-6.030594754273668"><ele>1558.0</ele><time>2026-05-05T10:34:25Z</time></trkpt><trkpt lat="30.96326166392763" lon="-6.03057906453895"><ele>1558.0</ele><time>2026-05-05T10:34:26Z</time></trkpt><trkpt lat="30.963374363649574" lon="-6.030567822005125"><ele>1560.6000000000001</ele><time>2026-05-05T10:34:27Z</time></trkpt><trkpt lat="30.96348337434473" lon="-6.03055894105367"><ele>1563.2</ele><time>2026-05-05T10:34:28Z</time></trkpt><trkpt lat="30.963590206439797" lon="-6.030556627925229"><ele>1565.8</ele><time>2026-05-05T10:34:29Z</time></trkpt><trkpt lat="30.963688471917045" lon="-6.030559905327019"><ele>1568.4</ele><time>2026-05-05T10:34:30Z</time></trkpt><trkpt lat="30.963776627960883" lon="-6.030546333371233"><ele>1571.0</ele><time>2026-05-05T10:34:31Z</time></trkpt><trkpt lat="30.963858898625976" lon="-6.030516941984863"><ele>1571.0</ele><time>2026-05-05T10:34:32Z</time></trkpt><trkpt lat="30.96394088976562" lon="-6.03045870963018"><ele>1571.0</ele><time>2026-05-05T10:34:33Z</time></trkpt><trkpt lat="30.964015459301" lon="-6.030380558981074"><ele>1571.0</ele><time>2026-05-05T10:34:34Z</time></trkpt><trkpt lat="30.96408017337543" lon="-6.030280447071967"><ele>1571.0</ele><time>2026-05-05T10:34:35Z</time></trkpt><trkpt lat="30.964128049599" lon="-6.030170960708455"><ele>1571.0</ele><time>2026-05-05T10:34:35.999Z</time></trkpt><trkpt lat="30.964170985877686" lon="-6.030068549797973"><ele>1573.1999999999998</ele><time>2026-05-05T10:34:36.999Z</time></trkpt><trkpt lat="30.964222519592113" lon="-6.029982591680004"><ele>1575.3999999999999</ele><time>2026-05-05T10:34:37.999Z</time></trkpt><trkpt lat="30.964285758291744" lon="-6.029910051817585"><ele>1577.6</ele><time>2026-05-05T10:34:38.999Z</time></trkpt><trkpt lat="30.964354239982256" lon="-6.029856413492574"><ele>1579.8</ele><time>2026-05-05T10:34:39.999Z</time></trkpt><trkpt lat="30.96443735507371" lon="-6.029801857668503"><ele>1582.0</ele><time>2026-05-05T10:34:40.999Z</time></trkpt><trkpt lat="30.964526802685665" lon="-6.029745179038598"><ele>1582.5</ele><time>2026-05-05T10:34:41.999Z</time></trkpt><trkpt lat="30.964627312613413" lon="-6.029690942557151"><ele>1583.0</ele><time>2026-05-05T10:34:42.999Z</time></trkpt><trkpt lat="30.964730111396015" lon="-6.029635508555736"><ele>1583.5</ele><time>2026-05-05T10:34:43.999Z</time></trkpt><trkpt lat="30.964841638125606" lon="-6.029573183599931"><ele>1584.0</ele><time>2026-05-05T10:34:44.999Z</time></trkpt><trkpt lat="30.964959640213277" lon="-6.029506283674146"><ele>1588.5</ele><time>2026-05-05T10:34:45.999Z</time></trkpt><trkpt lat="30.96507677261732" lon="-6.0294433699863035"><ele>1593.0</ele><time>2026-05-05T10:34:46.999Z</time></trkpt><trkpt lat="30.96519043257592" lon="-6.02938062387303"><ele>1597.5</ele><time>2026-05-05T10:34:47.999Z</time></trkpt><trkpt lat="30.96528771913144" lon="-6.029329049059927"><ele>1602.0</ele><time>2026-05-05T10:34:48.999Z</time></trkpt><trkpt lat="30.965370527567856" lon="-6.029288913673286"><ele>1602.0</ele><time>2026-05-05T10:34:49.999Z</time></trkpt><trkpt lat="30.965449335398805" lon="-6.0292593309994205"><ele>1602.0</ele><time>2026-05-05T10:34:50.999Z</time></trkpt><trkpt lat="30.965523637174638" lon="-6.029247827108428"><ele>1602.0</ele><time>2026-05-05T10:34:51.999Z</time></trkpt><trkpt lat="30.96559157981711" lon="-6.029253957629638"><ele>1602.0</ele><time>2026-05-05T10:34:52.999Z</time></trkpt><trkpt lat="30.965659654014047" lon="-6.029281624552085"><ele>1602.0</ele><time>2026-05-05T10:34:53.999Z</time></trkpt><trkpt lat="30.965720468422873" lon="-6.029335167407986"><ele>1602.0</ele><time>2026-05-05T10:34:54.999Z</time></trkpt><trkpt lat="30.965774250145845" lon="-6.029403592120658"><ele>1602.0</ele><time>2026-05-05T10:34:55.999Z</time></trkpt><trkpt lat="30.965812119308367" lon="-6.029493476456304"><ele>1602.0</ele><time>2026-05-05T10:34:56.999Z</time></trkpt><trkpt lat="30.965830866361863" lon="-6.029595531674176"><ele>1602.0</ele><time>2026-05-05T10:34:57.999Z</time></trkpt><trkpt lat="30.965848135309926" lon="-6.029684577762093"><ele>1602.0</ele><time>2026-05-05T10:34:58.999Z</time></trkpt><trkpt lat="30.965860526201638" lon="-6.0297600503579645"><ele>1602.0</ele><time>2026-05-05T10:34:59.999Z</time></trkpt><trkpt lat="30.965935491419312" lon="-6.029847144994918"><ele>1602.0</ele><time>2026-05-05T10:35:01.999Z</time></trkpt><trkpt lat="30.96606650193278" lon="-6.029830225277155"><ele>1606.3333333333333</ele><time>2026-05-05T10:35:03.999Z</time></trkpt><trkpt lat="30.96610166116964" lon="-6.029768506505396"><ele>1610.6666666666665</ele><time>2026-05-05T10:35:04.999Z</time></trkpt><trkpt lat="30.966114333716796" lon="-6.029685745746862"><ele>1615.0</ele><time>2026-05-05T10:35:05.999Z</time></trkpt><trkpt lat="30.96611915561206" lon="-6.029586168750905"><ele>1619.3333333333333</ele><time>2026-05-05T10:35:06.999Z</time></trkpt><trkpt lat="30.966110630344254" lon="-6.029490718484361"><ele>1623.6666666666665</ele><time>2026-05-05T10:35:07.999Z</time></trkpt><trkpt lat="30.966088870701782" lon="-6.029378162379093"><ele>1628.0</ele><time>2026-05-05T10:35:08.999Z</time></trkpt><trkpt lat="30.966055707119057" lon="-6.029265176491709"><ele>1627.9999999999998</ele><time>2026-05-05T10:35:09.999Z</time></trkpt><trkpt lat="30.965994663254527" lon="-6.029151758628006"><ele>1628.0</ele><time>2026-05-05T10:35:10.999Z</time></trkpt><trkpt lat="30.96593987954782" lon="-6.029039462167109"><ele>1628.0</ele><time>2026-05-05T10:35:11.999Z</time></trkpt><trkpt lat="30.965897338883597" lon="-6.028955240455706"><ele>1628.0</ele><time>2026-05-05T10:35:12.999Z</time></trkpt><trkpt lat="30.96587452355513" lon="-6.0288802803186785"><ele>1627.9999999999998</ele><time>2026-05-05T10:35:13.999Z</time></trkpt><trkpt lat="30.96588209125602" lon="-6.028802027822733"><ele>1628.0</ele><time>2026-05-05T10:35:14.999Z</time></trkpt><trkpt lat="30.965927709948062" lon="-6.028709237486014"><ele>1628.6000000000001</ele><time>2026-05-05T10:35:15.999Z</time></trkpt><trkpt lat="30.965982423817483" lon="-6.028619987527697"><ele>1629.2</ele><time>2026-05-05T10:35:16.999Z</time></trkpt><trkpt lat="30.966072561538255" lon="-6.028526788912075"><ele>1629.8</ele><time>2026-05-05T10:35:17.999Z</time></trkpt><trkpt lat="30.96615700329919" lon="-6.028435622963677"><ele>1630.4</ele><time>2026-05-05T10:35:18.999Z</time></trkpt><trkpt lat="30.966213048162402" lon="-6.028322149207265"><ele>1631.0</ele><time>2026-05-05T10:35:19.999Z</time></trkpt><trkpt lat="30.96625100423863" lon="-6.028191590075393"><ele>1631.0</ele><time>2026-05-05T10:35:20.999Z</time></trkpt><trkpt lat="30.96626850023704" lon="-6.02806495430435"><ele>1631.0</ele><time>2026-05-05T10:35:21.999Z</time></trkpt><trkpt lat="30.966285173424705" lon="-6.027940138391222"><ele>1631.0</ele><time>2026-05-05T10:35:22.999Z</time></trkpt><trkpt lat="30.966313236667297" lon="-6.027819097914059"><ele>1631.0</ele><time>2026-05-05T10:35:23.999Z</time></trkpt><trkpt lat="30.966338312143343" lon="-6.027684838347921"><ele>1631.0</ele><time>2026-05-05T10:35:24.999Z</time></trkpt><trkpt lat="30.966338218272217" lon="-6.027557298518515"><ele>1632.1999999999998</ele><time>2026-05-05T10:35:25.999Z</time></trkpt><trkpt lat="30.96631449370621" lon="-6.027427761247726"><ele>1633.3999999999999</ele><time>2026-05-05T10:35:26.999Z</time></trkpt><trkpt lat="30.966292132469093" lon="-6.027329083516507"><ele>1634.6</ele><time>2026-05-05T10:35:27.999Z</time></trkpt><trkpt lat="30.96626920765811" lon="-6.02724502136742"><ele>1635.8</ele><time>2026-05-05T10:35:28.999Z</time></trkpt><trkpt lat="30.966264608019145" lon="-6.027117925717616"><ele>1637.0</ele><time>2026-05-05T10:35:30.999Z</time></trkpt><trkpt lat="30.96636266422072" lon="-6.027070869437292"><ele>1636.9999999999998</ele><time>2026-05-05T10:35:32.999Z</time></trkpt><trkpt lat="30.966423582932634" lon="-6.027101790157059"><ele>1637.0</ele><time>2026-05-05T10:35:33.999Z</time></trkpt><trkpt lat="30.966466252226823" lon="-6.027159687333623"><ele>1637.0</ele><time>2026-05-05T10:35:34.999Z</time></trkpt><trkpt lat="30.966480760132928" lon="-6.027256280170396"><ele>1637.0</ele><time>2026-05-05T10:35:35.999Z</time></trkpt><trkpt lat="30.966487884903906" lon="-6.02735639133195"><ele>1636.9999999999998</ele><time>2026-05-05T10:35:36.999Z</time></trkpt><trkpt lat="30.966489633589564" lon="-6.027464160092166"><ele>1637.0</ele><time>2026-05-05T10:35:37.999Z</time></trkpt><trkpt lat="30.966515803402164" lon="-6.027597589236816"><ele>1635.5</ele><time>2026-05-05T10:35:38.999Z</time></trkpt><trkpt lat="30.96654059505206" lon="-6.027736677314594"><ele>1634.0</ele><time>2026-05-05T10:35:40Z</time></trkpt><trkpt lat="30.966560579937994" lon="-6.027882537878209"><ele>1632.5</ele><time>2026-05-05T10:35:41Z</time></trkpt><trkpt lat="30.9665819190457" lon="-6.028037063503238"><ele>1631.0</ele><time>2026-05-05T10:35:42Z</time></trkpt><trkpt lat="30.96659751722808" lon="-6.028175425533128"><ele>1631.0</ele><time>2026-05-05T10:35:43Z</time></trkpt><trkpt lat="30.9665992847158" lon="-6.028308394430096"><ele>1631.0</ele><time>2026-05-05T10:35:44Z</time></trkpt><trkpt lat="30.966590610490044" lon="-6.028432326905429"><ele>1631.0</ele><time>2026-05-05T10:35:45Z</time></trkpt><trkpt lat="30.966577223685857" lon="-6.028551604943153"><ele>1631.0</ele><time>2026-05-05T10:35:46Z</time></trkpt><trkpt lat="30.966561213329143" lon="-6.028670234520829"><ele>1631.0</ele><time>2026-05-05T10:35:47Z</time></trkpt><trkpt lat="30.966556482187002" lon="-6.028785565868112"><ele>1630.9999999999998</ele><time>2026-05-05T10:35:48Z</time></trkpt><trkpt lat="30.96656342906876" lon="-6.028881582533604"><ele>1631.0</ele><time>2026-05-05T10:35:49Z</time></trkpt><trkpt lat="30.9665880095096" lon="-6.028963813136616"><ele>1631.0</ele><time>2026-05-05T10:35:50Z</time></trkpt><trkpt lat="30.96662747531223" lon="-6.029037302401098"><ele>1631.0</ele><time>2026-05-05T10:35:51Z</time></trkpt><trkpt lat="30.966692892176624" lon="-6.029105977452011"><ele>1630.9999999999998</ele><time>2026-05-05T10:35:52Z</time></trkpt><trkpt lat="30.966766976068907" lon="-6.029169533400847"><ele>1631.0</ele><time>2026-05-05T10:35:53Z</time></trkpt><trkpt lat="30.966848576393954" lon="-6.029229616904232"><ele>1632.0</ele><time>2026-05-05T10:35:54Z</time></trkpt><trkpt lat="30.966928236825506" lon="-6.029280234480029"><ele>1633.0</ele><time>2026-05-05T10:35:55Z</time></trkpt><trkpt lat="30.96702015928515" lon="-6.029314826517145"><ele>1634.0</ele><time>2026-05-05T10:35:56Z</time></trkpt><trkpt lat="30.967121269793665" lon="-6.029325852993867"><ele>1635.0</ele><time>2026-05-05T10:35:57.001Z</time></trkpt><trkpt lat="30.967221150618297" lon="-6.029313040357006"><ele>1636.0</ele><time>2026-05-05T10:35:58.001Z</time></trkpt><trkpt lat="30.967313922311824" lon="-6.029280628066878"><ele>1636.0</ele><time>2026-05-05T10:35:59.001Z</time></trkpt><trkpt lat="30.967423773540403" lon="-6.029220623500531"><ele>1636.0</ele><time>2026-05-05T10:36:00.001Z</time></trkpt><trkpt lat="30.967543036145972" lon="-6.029142169978569"><ele>1636.0</ele><time>2026-05-05T10:36:01.001Z</time></trkpt><trkpt lat="30.967664778039836" lon="-6.0290676646298405"><ele>1636.0</ele><time>2026-05-05T10:36:02.001Z</time></trkpt><trkpt lat="30.96776742145665" lon="-6.029012113011052"><ele>1633.5</ele><time>2026-05-05T10:36:03.001Z</time></trkpt><trkpt lat="30.967878946853883" lon="-6.028935517564618"><ele>1631.0</ele><time>2026-05-05T10:36:04.001Z</time></trkpt><trkpt lat="30.967968568595126" lon="-6.028858406364066"><ele>1628.5</ele><time>2026-05-05T10:36:05.001Z</time></trkpt><trkpt lat="30.968052127227875" lon="-6.0287593922170455"><ele>1626.0</ele><time>2026-05-05T10:36:06.001Z</time></trkpt><trkpt lat="30.968104911598004" lon="-6.028652855968271"><ele>1626.0</ele><time>2026-05-05T10:36:07.001Z</time></trkpt><trkpt lat="30.968144999460986" lon="-6.028517441172698"><ele>1626.0</ele><time>2026-05-05T10:36:08.001Z</time></trkpt><trkpt lat="30.96819484528784" lon="-6.028379770513262"><ele>1626.0</ele><time>2026-05-05T10:36:09.001Z</time></trkpt><trkpt lat="30.96826197555563" lon="-6.028248510808562"><ele>1626.0</ele><time>2026-05-05T10:36:10.001Z</time></trkpt><trkpt lat="30.96833210011044" lon="-6.028124467876557"><ele>1625.0</ele><time>2026-05-05T10:36:11.001Z</time></trkpt><trkpt lat="30.968382775629003" lon="-6.027998543542873"><ele>1624.0</ele><time>2026-05-05T10:36:12.001Z</time></trkpt><trkpt lat="30.968422565703335" lon="-6.027873865794458"><ele>1623.0</ele><time>2026-05-05T10:36:13.001Z</time></trkpt><trkpt lat="30.968456013531025" lon="-6.027770632691461"><ele>1622.0</ele><time>2026-05-05T10:36:14.001Z</time></trkpt><trkpt lat="30.968503846555965" lon="-6.027692802495919"><ele>1621.0</ele><time>2026-05-05T10:36:15.001Z</time></trkpt><trkpt lat="30.9685781362123" lon="-6.027636289018846"><ele>1621.0</ele><time>2026-05-05T10:36:16.001Z</time></trkpt><trkpt lat="30.96865445405616" lon="-6.0276206587251195"><ele>1621.0</ele><time>2026-05-05T10:36:17.001Z</time></trkpt><trkpt lat="30.96873709966267" lon="-6.027638907791868"><ele>1621.0</ele><time>2026-05-05T10:36:18.001Z</time></trkpt><trkpt lat="30.96881889557872" lon="-6.027689328627295"><ele>1621.0</ele><time>2026-05-05T10:36:19.001Z</time></trkpt><trkpt lat="30.96888788433372" lon="-6.027759281859329"><ele>1621.0</ele><time>2026-05-05T10:36:20.001Z</time></trkpt><trkpt lat="30.968964939997377" lon="-6.027841319370937"><ele>1621.0000000000002</ele><time>2026-05-05T10:36:21.001Z</time></trkpt><trkpt lat="30.969042607959025" lon="-6.02791004939913"><ele>1621.0</ele><time>2026-05-05T10:36:22.001Z</time></trkpt><trkpt lat="30.96910304861972" lon="-6.0279779132826645"><ele>1621.0</ele><time>2026-05-05T10:36:23.001Z</time></trkpt><trkpt lat="30.969152872282592" lon="-6.028042683175981"><ele>1621.0</ele><time>2026-05-05T10:36:24.001Z</time></trkpt><trkpt lat="30.969199669852074" lon="-6.028093864261157"><ele>1621.0000000000002</ele><time>2026-05-05T10:36:25.001Z</time></trkpt><trkpt lat="30.969302381744118" lon="-6.028111061443778"><ele>1621.0</ele><time>2026-05-05T10:36:27.001Z</time></trkpt><trkpt lat="30.969380785082297" lon="-6.028013899915729"><ele>1622.6</ele><time>2026-05-05T10:36:29.001Z</time></trkpt><trkpt lat="30.969395613540442" lon="-6.027940063099686"><ele>1624.1999999999998</ele><time>2026-05-05T10:36:30.001Z</time></trkpt><trkpt lat="30.969392525133085" lon="-6.027842726045748"><ele>1625.8000000000002</ele><time>2026-05-05T10:36:31.001Z</time></trkpt><trkpt lat="30.96937223122184" lon="-6.027729893382052"><ele>1627.4</ele><time>2026-05-05T10:36:32.001Z</time></trkpt><trkpt lat="30.96934679923073" lon="-6.027587243344262"><ele>1629.0</ele><time>2026-05-05T10:36:33.001Z</time></trkpt><trkpt lat="30.969337041426197" lon="-6.027444132759789"><ele>1629.0</ele><time>2026-05-05T10:36:34.001Z</time></trkpt><trkpt lat="30.96932683292183" lon="-6.027291858477567"><ele>1629.0</ele><time>2026-05-05T10:36:35.001Z</time></trkpt><trkpt lat="30.969298007147934" lon="-6.02714402816646"><ele>1629.0</ele><time>2026-05-05T10:36:36.001Z</time></trkpt><trkpt lat="30.96926286418111" lon="-6.027007657379432"><ele>1629.0</ele><time>2026-05-05T10:36:37.001Z</time></trkpt><trkpt lat="30.969243892814653" lon="-6.0268890578385355"><ele>1629.0</ele><time>2026-05-05T10:36:38.001Z</time></trkpt><trkpt lat="30.969241389085305" lon="-6.026773509439922"><ele>1629.0</ele><time>2026-05-05T10:36:39.001Z</time></trkpt><trkpt lat="30.969259821121778" lon="-6.026656399085704"><ele>1629.0</ele><time>2026-05-05T10:36:40.001Z</time></trkpt><trkpt lat="30.969293266871606" lon="-6.0265494700136655"><ele>1629.0</ele><time>2026-05-05T10:36:41.001Z</time></trkpt><trkpt lat="30.969349472745932" lon="-6.026450583167782"><ele>1629.0</ele><time>2026-05-05T10:36:42Z</time></trkpt><trkpt lat="30.96942141924733" lon="-6.026372727588576"><ele>1625.6</ele><time>2026-05-05T10:36:43Z</time></trkpt><trkpt lat="30.96949954668735" lon="-6.026314505496461"><ele>1622.2</ele><time>2026-05-05T10:36:44Z</time></trkpt><trkpt lat="30.969581657186975" lon="-6.026294794020217"><ele>1618.8</ele><time>2026-05-05T10:36:45Z</time></trkpt><trkpt lat="30.96966648267191" lon="-6.026302906074023"><ele>1615.3999999999999</ele><time>2026-05-05T10:36:46Z</time></trkpt><trkpt lat="30.96975830986548" lon="-6.02633762556721"><ele>1612.0</ele><time>2026-05-05T10:36:47Z</time></trkpt><trkpt lat="30.96986341025867" lon="-6.026394816378267"><ele>1612.0</ele><time>2026-05-05T10:36:48Z</time></trkpt><trkpt lat="30.96995713163602" lon="-6.0264535038850315"><ele>1612.0</ele><time>2026-05-05T10:36:49Z</time></trkpt><trkpt lat="30.970034968310223" lon="-6.026501318003013"><ele>1612.0</ele><time>2026-05-05T10:36:50Z</time></trkpt><trkpt lat="30.97011546365635" lon="-6.026538613095285"><ele>1612.0</ele><time>2026-05-05T10:36:51Z</time></trkpt><trkpt lat="30.970191565700777" lon="-6.026576597735008"><ele>1612.0</ele><time>2026-05-05T10:36:52Z</time></trkpt><trkpt lat="30.970325972732685" lon="-6.026573283029536"><ele>1614.6</ele><time>2026-05-05T10:36:54Z</time></trkpt><trkpt lat="30.970403872038347" lon="-6.026523331381342"><ele>1617.1999999999998</ele><time>2026-05-05T10:36:55Z</time></trkpt><trkpt lat="30.970473269756297" lon="-6.026446310768144"><ele>1619.8</ele><time>2026-05-05T10:36:56Z</time></trkpt><trkpt lat="30.970535811645124" lon="-6.026350232959765"><ele>1622.4</ele><time>2026-05-05T10:36:57Z</time></trkpt><trkpt lat="30.97060427534517" lon="-6.026251363490939"><ele>1625.0</ele><time>2026-05-05T10:36:58Z</time></trkpt><trkpt lat="30.970683387242932" lon="-6.026160674903338"><ele>1625.0</ele><time>2026-05-05T10:36:59Z</time></trkpt><trkpt lat="30.970745419016726" lon="-6.026053999280088"><ele>1625.0</ele><time>2026-05-05T10:37:00Z</time></trkpt><trkpt lat="30.970779731474064" lon="-6.025928562743035"><ele>1625.0</ele><time>2026-05-05T10:37:01Z</time></trkpt><trkpt lat="30.970807805430837" lon="-6.025799866961364"><ele>1625.0</ele><time>2026-05-05T10:37:02Z</time></trkpt><trkpt lat="30.9708187417569" lon="-6.025670432425099"><ele>1625.0</ele><time>2026-05-05T10:37:03Z</time></trkpt><trkpt lat="30.97081139944208" lon="-6.025532087038888"><ele>1624.0</ele><time>2026-05-05T10:37:04Z</time></trkpt><trkpt lat="30.97079835675627" lon="-6.025387394676449"><ele>1623.0</ele><time>2026-05-05T10:37:05Z</time></trkpt><trkpt lat="30.97078489580132" lon="-6.025267437451345"><ele>1622.0</ele><time>2026-05-05T10:37:06Z</time></trkpt><trkpt lat="30.97078290386472" lon="-6.025167370401954"><ele>1621.0</ele><time>2026-05-05T10:37:07Z</time></trkpt><trkpt lat="30.970801402454942" lon="-6.025070302075163"><ele>1620.0</ele><time>2026-05-05T10:37:08Z</time></trkpt><trkpt lat="30.970848999597298" lon="-6.024975998715941"><ele>1619.2</ele><time>2026-05-05T10:37:09Z</time></trkpt><trkpt lat="30.970915718354355" lon="-6.0248824047238605"><ele>1618.4</ele><time>2026-05-05T10:37:10Z</time></trkpt><trkpt lat="30.970978770361334" lon="-6.024795566228488"><ele>1617.6</ele><time>2026-05-05T10:37:11Z</time></trkpt><trkpt lat="30.97103536743109" lon="-6.024707665890731"><ele>1616.8</ele><time>2026-05-05T10:37:12Z</time></trkpt><trkpt lat="30.971085242026387" lon="-6.024622379081833"><ele>1616.0</ele><time>2026-05-05T10:37:13Z</time></trkpt><trkpt lat="30.971081616878124" lon="-6.024484397866573"><ele>1615.9999999999998</ele><time>2026-05-05T10:37:14Z</time></trkpt><trkpt lat="30.971073660859208" lon="-6.024390246895575"><ele>1616.0</ele><time>2026-05-05T10:37:15Z</time></trkpt><trkpt lat="30.97108619485693" lon="-6.024306127063491"><ele>1616.0</ele><time>2026-05-05T10:37:16Z</time></trkpt><trkpt lat="30.971161039820466" lon="-6.024218131880851"><ele>1616.0</ele><time>2026-05-05T10:37:18Z</time></trkpt><trkpt lat="30.97122719267515" lon="-6.02420374222616"><ele>1615.9999999999998</ele><time>2026-05-05T10:37:19Z</time></trkpt><trkpt lat="30.97130446076738" lon="-6.024209492759995"><ele>1616.0</ele><time>2026-05-05T10:37:20Z</time></trkpt><trkpt lat="30.971381369997626" lon="-6.024227830168874"><ele>1615.9999999999998</ele><time>2026-05-05T10:37:21Z</time></trkpt><trkpt lat="30.971453814985487" lon="-6.024260632153323"><ele>1616.0</ele><time>2026-05-05T10:37:22Z</time></trkpt><trkpt lat="30.971519630382257" lon="-6.024304063658742"><ele>1616.0</ele><time>2026-05-05T10:37:23Z</time></trkpt><trkpt lat="30.971581537711362" lon="-6.024380553985599"><ele>1616.0</ele><time>2026-05-05T10:37:24Z</time></trkpt><trkpt lat="30.97163685574307" lon="-6.024472171703677"><ele>1615.9999999999998</ele><time>2026-05-05T10:37:25Z</time></trkpt><trkpt lat="30.971686438417606" lon="-6.02456871472389"><ele>1616.0</ele><time>2026-05-05T10:37:26Z</time></trkpt><trkpt lat="30.97172008951422" lon="-6.024693790445578"><ele>1615.8</ele><time>2026-05-05T10:37:27Z</time></trkpt><trkpt lat="30.971753842755422" lon="-6.024823344315985"><ele>1615.6</ele><time>2026-05-05T10:37:28Z</time></trkpt><trkpt lat="30.97177540593678" lon="-6.024945229350703"><ele>1615.4</ele><time>2026-05-05T10:37:29Z</time></trkpt><trkpt lat="30.97180090616334" lon="-6.025061393291183"><ele>1615.2</ele><time>2026-05-05T10:37:30Z</time></trkpt><trkpt lat="30.971818516683978" lon="-6.025184596468438"><ele>1615.0</ele><time>2026-05-05T10:37:31Z</time></trkpt><trkpt lat="30.971838235491617" lon="-6.0253130866271025"><ele>1615.0</ele><time>2026-05-05T10:37:32Z</time></trkpt><trkpt lat="30.971857331964273" lon="-6.025435772207421"><ele>1615.0</ele><time>2026-05-05T10:37:33Z</time></trkpt><trkpt lat="30.97186342310495" lon="-6.025549813568797"><ele>1615.0</ele><time>2026-05-05T10:37:34Z</time></trkpt><trkpt lat="30.97185905926288" lon="-6.025663730799134"><ele>1615.0</ele><time>2026-05-05T10:37:35Z</time></trkpt><trkpt lat="30.971843106262877" lon="-6.025751978513615"><ele>1615.0</ele><time>2026-05-05T10:37:36Z</time></trkpt><trkpt lat="30.971819428524757" lon="-6.025834066638425"><ele>1616.8</ele><time>2026-05-05T10:37:37Z</time></trkpt><trkpt lat="30.97179879633962" lon="-6.025906360504536"><ele>1618.6</ele><time>2026-05-05T10:37:38Z</time></trkpt><trkpt lat="30.971815340339468" lon="-6.026037823121716"><ele>1620.4</ele><time>2026-05-05T10:37:40Z</time></trkpt><trkpt lat="30.971937545955406" lon="-6.0260936537946845"><ele>1622.2</ele><time>2026-05-05T10:37:42Z</time></trkpt><trkpt lat="30.97201766593132" lon="-6.026071193395737"><ele>1624.0</ele><time>2026-05-05T10:37:43Z</time></trkpt><trkpt lat="30.972103108866254" lon="-6.026017601902045"><ele>1624.0</ele><time>2026-05-05T10:37:44Z</time></trkpt><trkpt lat="30.97215179485995" lon="-6.025876924734305"><ele>1624.0</ele><time>2026-05-05T10:37:45Z</time></trkpt><trkpt lat="30.97221902146916" lon="-6.025793723864112"><ele>1624.0</ele><time>2026-05-05T10:37:46Z</time></trkpt><trkpt lat="30.972287631578286" lon="-6.025691213738507"><ele>1624.0</ele><time>2026-05-05T10:37:47Z</time></trkpt><trkpt lat="30.972341681911878" lon="-6.025609934561497"><ele>1624.0</ele><time>2026-05-05T10:37:48Z</time></trkpt><trkpt lat="30.972403389791783" lon="-6.025526210495269"><ele>1624.6666666666667</ele><time>2026-05-05T10:37:49Z</time></trkpt><trkpt lat="30.972490930873942" lon="-6.025496459370573"><ele>1625.3333333333335</ele><time>2026-05-05T10:37:50Z</time></trkpt><trkpt lat="30.972575097668752" lon="-6.025481386291731"><ele>1626.0</ele><time>2026-05-05T10:37:51Z</time></trkpt><trkpt lat="30.972662014293252" lon="-6.025486820234866"><ele>1626.6666666666665</ele><time>2026-05-05T10:37:52Z</time></trkpt><trkpt lat="30.972732423613287" lon="-6.025458823309916"><ele>1627.3333333333333</ele><time>2026-05-05T10:37:53Z</time></trkpt><trkpt lat="30.972808836218555" lon="-6.02536691220321"><ele>1628.0</ele><time>2026-05-05T10:37:55Z</time></trkpt><trkpt lat="30.972817425789426" lon="-6.025191505138646"><ele>1628.0</ele><time>2026-05-05T10:37:57Z</time></trkpt><trkpt lat="30.97284840755638" lon="-6.025049105365428"><ele>1628.0</ele><time>2026-05-05T10:37:58Z</time></trkpt><trkpt lat="30.97287533846051" lon="-6.024898691384393"><ele>1628.0</ele><time>2026-05-05T10:37:59Z</time></trkpt><trkpt lat="30.97288508478553" lon="-6.024755031724668"><ele>1628.0</ele><time>2026-05-05T10:38:00Z</time></trkpt><trkpt lat="30.972880618813594" lon="-6.02461480030028"><ele>1627.0</ele><time>2026-05-05T10:38:01Z</time></trkpt><trkpt lat="30.972886821505604" lon="-6.024477644353321"><ele>1626.0</ele><time>2026-05-05T10:38:02Z</time></trkpt><trkpt lat="30.972911125876553" lon="-6.02436026500616"><ele>1625.0</ele><time>2026-05-05T10:38:03.001Z</time></trkpt><trkpt lat="30.972961601878865" lon="-6.024241784577391"><ele>1624.0</ele><time>2026-05-05T10:38:04.001Z</time></trkpt><trkpt lat="30.97304122566759" lon="-6.024117070672079"><ele>1624.25</ele><time>2026-05-05T10:38:05.001Z</time></trkpt><trkpt lat="30.973141134451087" lon="-6.02400026039346"><ele>1624.5</ele><time>2026-05-05T10:38:06.001Z</time></trkpt><trkpt lat="30.973242246859677" lon="-6.023874682238613"><ele>1624.75</ele><time>2026-05-05T10:38:07.001Z</time></trkpt><trkpt lat="30.973321952348662" lon="-6.023749788230863"><ele>1625.0</ele><time>2026-05-05T10:38:08.001Z</time></trkpt><trkpt lat="30.97340578525326" lon="-6.023628775698218"><ele>1625.0</ele><time>2026-05-05T10:38:09.001Z</time></trkpt><trkpt lat="30.973485512461686" lon="-6.023520465600178"><ele>1625.0</ele><time>2026-05-05T10:38:10.001Z</time></trkpt><trkpt lat="30.973557812632222" lon="-6.023427487428804"><ele>1625.0</ele><time>2026-05-05T10:38:11.001Z</time></trkpt><trkpt lat="30.973622868033807" lon="-6.023343957977522"><ele>1625.0</ele><time>2026-05-05T10:38:12.001Z</time></trkpt><trkpt lat="30.973741151530675" lon="-6.023250114964922"><ele>1625.75</ele><time>2026-05-05T10:38:13.001Z</time></trkpt><trkpt lat="30.97385164587559" lon="-6.0231728881923"><ele>1626.5</ele><time>2026-05-05T10:38:14.001Z</time></trkpt><trkpt lat="30.973969214027242" lon="-6.023092764478031"><ele>1627.25</ele><time>2026-05-05T10:38:15.001Z</time></trkpt><trkpt lat="30.9740937654703" lon="-6.023010218295527"><ele>1628.0</ele><time>2026-05-05T10:38:16.001Z</time></trkpt><trkpt lat="30.974220354976048" lon="-6.022926559142521"><ele>1628.0</ele><time>2026-05-05T10:38:17.001Z</time></trkpt><trkpt lat="30.974326236582755" lon="-6.022837346879055"><ele>1628.0</ele><time>2026-05-05T10:38:18.001Z</time></trkpt><trkpt lat="30.974427273053333" lon="-6.022743617504097"><ele>1628.0</ele><time>2026-05-05T10:38:19.001Z</time></trkpt><trkpt lat="30.97452779369609" lon="-6.022656527439555"><ele>1628.0</ele><time>2026-05-05T10:38:20.001Z</time></trkpt><trkpt lat="30.974628925658312" lon="-6.0225913102004975"><ele>1627.9999999999998</ele><time>2026-05-05T10:38:21.001Z</time></trkpt><trkpt lat="30.974701966171146" lon="-6.022543629835354"><ele>1628.0</ele><time>2026-05-05T10:38:22.001Z</time></trkpt><trkpt lat="30.974767507233803" lon="-6.022495056993614"><ele>1628.0</ele><time>2026-05-05T10:38:23.001Z</time></trkpt><trkpt lat="30.97479705147301" lon="-6.022428401286512"><ele>1628.0</ele><time>2026-05-05T10:38:24.001Z</time></trkpt><trkpt lat="30.974813124295164" lon="-6.022352051528432"><ele>1627.9999999999998</ele><time>2026-05-05T10:38:25.001Z</time></trkpt><trkpt lat="30.974824007054682" lon="-6.022253360285231"><ele>1628.0</ele><time>2026-05-05T10:38:26.001Z</time></trkpt><trkpt lat="30.974814639901233" lon="-6.022148725607928"><ele>1627.6000000000001</ele><time>2026-05-05T10:38:27.001Z</time></trkpt><trkpt lat="30.97477307033713" lon="-6.022037469920194"><ele>1627.2</ele><time>2026-05-05T10:38:28.001Z</time></trkpt><trkpt lat="30.97473701603806" lon="-6.021912688257866"><ele>1626.8</ele><time>2026-05-05T10:38:29.001Z</time></trkpt><trkpt lat="30.974661392487306" lon="-6.021806437635854"><ele>1626.4</ele><time>2026-05-05T10:38:30Z</time></trkpt><trkpt lat="30.974608736245493" lon="-6.0217079645309335"><ele>1626.0</ele><time>2026-05-05T10:38:31Z</time></trkpt><trkpt lat="30.97457322709907" lon="-6.021587493673173"><ele>1624.6</ele><time>2026-05-05T10:38:32Z</time></trkpt><trkpt lat="30.974541928222898" lon="-6.0214536715445846"><ele>1623.1999999999998</ele><time>2026-05-05T10:38:33Z</time></trkpt><trkpt lat="30.974504557543227" lon="-6.021341613983089"><ele>1621.8000000000002</ele><time>2026-05-05T10:38:34Z</time></trkpt><trkpt lat="30.974480579989457" lon="-6.021233394248752"><ele>1620.4</ele><time>2026-05-05T10:38:35Z</time></trkpt><trkpt lat="30.974448766491545" lon="-6.021114110594069"><ele>1619.0</ele><time>2026-05-05T10:38:36Z</time></trkpt><trkpt lat="30.974405656440645" lon="-6.020995011094204"><ele>1619.0</ele><time>2026-05-05T10:38:37Z</time></trkpt><trkpt lat="30.97437699689049" lon="-6.020870687608573"><ele>1619.0</ele><time>2026-05-05T10:38:38Z</time></trkpt><trkpt lat="30.974366746509276" lon="-6.020754051304464"><ele>1619.0</ele><time>2026-05-05T10:38:39Z</time></trkpt><trkpt lat="30.9743934748018" lon="-6.020631659365013"><ele>1619.0</ele><time>2026-05-05T10:38:40Z</time></trkpt><trkpt lat="30.97442590706619" lon="-6.02051146828839"><ele>1619.0</ele><time>2026-05-05T10:38:41Z</time></trkpt><trkpt lat="30.974444278430738" lon="-6.020394317286446"><ele>1617.0</ele><time>2026-05-05T10:38:42Z</time></trkpt><trkpt lat="30.974447581907796" lon="-6.0202649418846255"><ele>1615.0</ele><time>2026-05-05T10:38:43Z</time></trkpt><trkpt lat="30.97444806381994" lon="-6.020117431299497"><ele>1613.0</ele><time>2026-05-05T10:38:44Z</time></trkpt><trkpt lat="30.974452152122314" lon="-6.0199569199557175"><ele>1611.0</ele><time>2026-05-05T10:38:45Z</time></trkpt><trkpt lat="30.974459179690086" lon="-6.019807354964381"><ele>1609.5</ele><time>2026-05-05T10:38:46Z</time></trkpt><trkpt lat="30.974465011666627" lon="-6.019671655870736"><ele>1608.0</ele><time>2026-05-05T10:38:47Z</time></trkpt><trkpt lat="30.97445895451245" lon="-6.019543074628813"><ele>1606.5</ele><time>2026-05-05T10:38:48Z</time></trkpt><trkpt lat="30.97443768357039" lon="-6.019416409295758"><ele>1605.0</ele><time>2026-05-05T10:38:49Z</time></trkpt><trkpt lat="30.974407621246225" lon="-6.019273886971015"><ele>1604.0</ele><time>2026-05-05T10:38:50Z</time></trkpt><trkpt lat="30.9743844198191" lon="-6.019121165027684"><ele>1603.0</ele><time>2026-05-05T10:38:51Z</time></trkpt><trkpt lat="30.974370864605245" lon="-6.0189809087968165"><ele>1602.0</ele><time>2026-05-05T10:38:52Z</time></trkpt><trkpt lat="30.974351340946498" lon="-6.0188507688269075"><ele>1601.0</ele><time>2026-05-05T10:38:53Z</time></trkpt><trkpt lat="30.97432926787431" lon="-6.018738731799539"><ele>1601.0</ele><time>2026-05-05T10:38:54Z</time></trkpt><trkpt lat="30.974297179524672" lon="-6.018601726138245"><ele>1601.0</ele><time>2026-05-05T10:38:55Z</time></trkpt><trkpt lat="30.974250915403434" lon="-6.018468518351758"><ele>1601.0</ele><time>2026-05-05T10:38:56Z</time></trkpt><trkpt lat="30.97422639462366" lon="-6.018348386194727"><ele>1601.0</ele><time>2026-05-05T10:38:57Z</time></trkpt><trkpt lat="30.974168753663886" lon="-6.01822369130082"><ele>1600.75</ele><time>2026-05-05T10:38:58Z</time></trkpt><trkpt lat="30.974127026406023" lon="-6.018101369817235"><ele>1600.5</ele><time>2026-05-05T10:38:59Z</time></trkpt><trkpt lat="30.974098526126088" lon="-6.017972571929274"><ele>1600.25</ele><time>2026-05-05T10:39:00Z</time></trkpt><trkpt lat="30.97408725877625" lon="-6.017818493350546"><ele>1600.0</ele><time>2026-05-05T10:39:01Z</time></trkpt><trkpt lat="30.974068726008458" lon="-6.017677287509421"><ele>1600.0</ele><time>2026-05-05T10:39:02Z</time></trkpt><trkpt lat="30.9740453994366" lon="-6.017547490611457"><ele>1600.0</ele><time>2026-05-05T10:39:03Z</time></trkpt><trkpt lat="30.974006062220504" lon="-6.017428789618688"><ele>1600.0</ele><time>2026-05-05T10:39:04Z</time></trkpt><trkpt lat="30.973951227387698" lon="-6.017321543814482"><ele>1600.0</ele><time>2026-05-05T10:39:05Z</time></trkpt><trkpt lat="30.97388524307632" lon="-6.017227457222078"><ele>1600.0</ele><time>2026-05-05T10:39:06Z</time></trkpt><trkpt lat="30.9738184832464" lon="-6.017134099866676"><ele>1598.75</ele><time>2026-05-05T10:39:07Z</time></trkpt><trkpt lat="30.97374796209162" lon="-6.0170259452437405"><ele>1597.5</ele><time>2026-05-05T10:39:08Z</time></trkpt><trkpt lat="30.973700224024302" lon="-6.016886733776289"><ele>1596.25</ele><time>2026-05-05T10:39:09Z</time></trkpt><trkpt lat="30.973682217469218" lon="-6.016729899666838"><ele>1595.0</ele><time>2026-05-05T10:39:10Z</time></trkpt><trkpt lat="30.973674887749073" lon="-6.016582133788548"><ele>1594.75</ele><time>2026-05-05T10:39:11Z</time></trkpt><trkpt lat="30.973667662731444" lon="-6.016431275757328"><ele>1594.5</ele><time>2026-05-05T10:39:12Z</time></trkpt><trkpt lat="30.973657598196358" lon="-6.0162954806628175"><ele>1594.25</ele><time>2026-05-05T10:39:13Z</time></trkpt><trkpt lat="30.973642311052508" lon="-6.016171582100598"><ele>1594.0</ele><time>2026-05-05T10:39:14Z</time></trkpt><trkpt lat="30.973619993611774" lon="-6.016047143600634"><ele>1594.0</ele><time>2026-05-05T10:39:15Z</time></trkpt><trkpt lat="30.973603197126625" lon="-6.015920295918724"><ele>1594.0</ele><time>2026-05-05T10:39:16Z</time></trkpt><trkpt lat="30.973601917816723" lon="-6.01579783262587"><ele>1594.0</ele><time>2026-05-05T10:39:17Z</time></trkpt><trkpt lat="30.973616166313146" lon="-6.015666291399682"><ele>1594.0</ele><time>2026-05-05T10:39:18Z</time></trkpt><trkpt lat="30.97365075124975" lon="-6.015545783341386"><ele>1594.0</ele><time>2026-05-05T10:39:19Z</time></trkpt><trkpt lat="30.973694263948357" lon="-6.015427078227791"><ele>1594.5000000000002</ele><time>2026-05-05T10:39:20Z</time></trkpt><trkpt lat="30.973715322359105" lon="-6.01533666813544"><ele>1595.0</ele><time>2026-05-05T10:39:21Z</time></trkpt><trkpt lat="30.973731298051277" lon="-6.015243280194172"><ele>1595.5</ele><time>2026-05-05T10:39:22Z</time></trkpt><trkpt lat="30.97370492812192" lon="-6.01516544349839"><ele>1596.0</ele><time>2026-05-05T10:39:23Z</time></trkpt><trkpt lat="30.973666818927825" lon="-6.015065733477882"><ele>1596.5000000000002</ele><time>2026-05-05T10:39:24Z</time></trkpt><trkpt lat="30.973602769163936" lon="-6.014952517614606"><ele>1597.0</ele><time>2026-05-05T10:39:25Z</time></trkpt><trkpt lat="30.97354733043695" lon="-6.014841268265627"><ele>1595.5</ele><time>2026-05-05T10:39:26Z</time></trkpt><trkpt lat="30.97350313106854" lon="-6.014709007556014"><ele>1594.0</ele><time>2026-05-05T10:39:27Z</time></trkpt><trkpt lat="30.973479753150215" lon="-6.014557743251164"><ele>1592.5</ele><time>2026-05-05T10:39:28Z</time></trkpt><trkpt lat="30.97348581781945" lon="-6.014382627223995"><ele>1591.0</ele><time>2026-05-05T10:39:29Z</time></trkpt><trkpt lat="30.973485817818986" lon="-6.014207094014284"><ele>1589.0</ele><time>2026-05-05T10:39:30Z</time></trkpt><trkpt lat="30.973483144362483" lon="-6.014056145728167"><ele>1587.0</ele><time>2026-05-05T10:39:31Z</time></trkpt><trkpt lat="30.97348053875289" lon="-6.013915374006042"><ele>1585.0</ele><time>2026-05-05T10:39:32Z</time></trkpt><trkpt lat="30.973478341475964" lon="-6.013779770664358"><ele>1583.0</ele><time>2026-05-05T10:39:33Z</time></trkpt><trkpt lat="30.973468753832666" lon="-6.01364846316745"><ele>1583.0</ele><time>2026-05-05T10:39:34Z</time></trkpt><trkpt lat="30.97347027950242" lon="-6.013527897374181"><ele>1583.0</ele><time>2026-05-05T10:39:35Z</time></trkpt><trkpt lat="30.973410603491054" lon="-6.013454983210407"><ele>1583.0</ele><time>2026-05-05T10:39:36Z</time></trkpt><trkpt lat="30.973359402221917" lon="-6.013389309346608"><ele>1583.0</ele><time>2026-05-05T10:39:37Z</time></trkpt><trkpt lat="30.973290140105014" lon="-6.013326938171342"><ele>1583.0</ele><time>2026-05-05T10:39:38Z</time></trkpt><trkpt lat="30.973199868766464" lon="-6.0132580195830805"><ele>1583.2</ele><time>2026-05-05T10:39:39Z</time></trkpt><trkpt lat="30.973114179838188" lon="-6.013194994984895"><ele>1583.4</ele><time>2026-05-05T10:39:40Z</time></trkpt><trkpt lat="30.973042074966905" lon="-6.013143008267441"><ele>1583.6000000000001</ele><time>2026-05-05T10:39:41Z</time></trkpt><trkpt lat="30.97298242340922" lon="-6.013100116502285"><ele>1583.8000000000002</ele><time>2026-05-05T10:39:42Z</time></trkpt><trkpt lat="30.972890630400308" lon="-6.013003522715563"><ele>1584.0</ele><time>2026-05-05T10:39:44Z</time></trkpt><trkpt lat="30.972877481800527" lon="-6.012920927604651"><ele>1584.0</ele><time>2026-05-05T10:39:45Z</time></trkpt><trkpt lat="30.97288924110756" lon="-6.012824422466406"><ele>1584.0</ele><time>2026-05-05T10:39:46Z</time></trkpt><trkpt lat="30.97293959655382" lon="-6.012712013475887"><ele>1584.0</ele><time>2026-05-05T10:39:47Z</time></trkpt><trkpt lat="30.9730007413712" lon="-6.01262882786219"><ele>1584.0</ele><time>2026-05-05T10:39:48Z</time></trkpt><trkpt lat="30.97308966036485" lon="-6.012569357989453"><ele>1584.0</ele><time>2026-05-05T10:39:49Z</time></trkpt><trkpt lat="30.97316417895868" lon="-6.012504910267059"><ele>1587.2</ele><time>2026-05-05T10:39:50Z</time></trkpt><trkpt lat="30.97324461005154" lon="-6.012435650168976"><ele>1590.4</ele><time>2026-05-05T10:39:51Z</time></trkpt><trkpt lat="30.973330819676757" lon="-6.012361414107825"><ele>1593.6</ele><time>2026-05-05T10:39:52Z</time></trkpt><trkpt lat="30.97341545535389" lon="-6.012288533387066"><ele>1596.8</ele><time>2026-05-05T10:39:53Z</time></trkpt><trkpt lat="30.973499706400798" lon="-6.012207893222249"><ele>1600.0</ele><time>2026-05-05T10:39:54Z</time></trkpt><trkpt lat="30.973583595818063" lon="-6.0121251631943915"><ele>1600.0</ele><time>2026-05-05T10:39:55Z</time></trkpt><trkpt lat="30.973666519423915" lon="-6.012040964924395"><ele>1600.0</ele><time>2026-05-05T10:39:56Z</time></trkpt><trkpt lat="30.9737459984097" lon="-6.011954822079394"><ele>1600.0</ele><time>2026-05-05T10:39:57Z</time></trkpt><trkpt lat="30.97381764504839" lon="-6.011875157261879"><ele>1600.0</ele><time>2026-05-05T10:39:58Z</time></trkpt><trkpt lat="30.973894191868048" lon="-6.011799860362628"><ele>1600.0</ele><time>2026-05-05T10:39:59Z</time></trkpt><trkpt lat="30.973979794700377" lon="-6.011736786479167"><ele>1600.0</ele><time>2026-05-05T10:40:00Z</time></trkpt><trkpt lat="30.974061567516763" lon="-6.011682634444972"><ele>1600.0</ele><time>2026-05-05T10:40:01Z</time></trkpt><trkpt lat="30.974162321990004" lon="-6.011639133955514"><ele>1600.0</ele><time>2026-05-05T10:40:02Z</time></trkpt><trkpt lat="30.97425981730715" lon="-6.011592403617875"><ele>1600.0</ele><time>2026-05-05T10:40:03Z</time></trkpt><trkpt lat="30.974357665898832" lon="-6.0115452827762335"><ele>1600.0</ele><time>2026-05-05T10:40:04Z</time></trkpt><trkpt lat="30.974467988983527" lon="-6.01149215462158"><ele>1603.8</ele><time>2026-05-05T10:40:05Z</time></trkpt><trkpt lat="30.974559093390937" lon="-6.011434188170709"><ele>1607.6</ele><time>2026-05-05T10:40:06Z</time></trkpt><trkpt lat="30.97465531454756" lon="-6.011375804787014"><ele>1611.4</ele><time>2026-05-05T10:40:07Z</time></trkpt><trkpt lat="30.974740236748932" lon="-6.011326353963262"><ele>1615.2</ele><time>2026-05-05T10:40:08Z</time></trkpt><trkpt lat="30.974819572756022" lon="-6.011278538292992"><ele>1619.0</ele><time>2026-05-05T10:40:09Z</time></trkpt><trkpt lat="30.97490862846909" lon="-6.011246505006076"><ele>1619.0</ele><time>2026-05-05T10:40:10.001Z</time></trkpt><trkpt lat="30.9750079440272" lon="-6.011243619432203"><ele>1619.0</ele><time>2026-05-05T10:40:11.001Z</time></trkpt><trkpt lat="30.975106425857923" lon="-6.011270203913369"><ele>1619.0</ele><time>2026-05-05T10:40:12.001Z</time></trkpt><trkpt lat="30.975195345135106" lon="-6.011291667146591"><ele>1619.0</ele><time>2026-05-05T10:40:13.001Z</time></trkpt><trkpt lat="30.975274007291958" lon="-6.011365496164259"><ele>1619.0</ele><time>2026-05-05T10:40:14.001Z</time></trkpt><trkpt lat="30.975362022469753" lon="-6.0114148636541795"><ele>1620.6666666666665</ele><time>2026-05-05T10:40:15.001Z</time></trkpt><trkpt lat="30.975458716791188" lon="-6.011447670235162"><ele>1622.3333333333333</ele><time>2026-05-05T10:40:16.001Z</time></trkpt><trkpt lat="30.975555631970927" lon="-6.011489533654204"><ele>1624.0</ele><time>2026-05-05T10:40:17.001Z</time></trkpt><trkpt lat="30.97563805848209" lon="-6.011525557089136"><ele>1625.6666666666665</ele><time>2026-05-05T10:40:18.001Z</time></trkpt><trkpt lat="30.975708084049025" lon="-6.0115408019374"><ele>1627.3333333333333</ele><time>2026-05-05T10:40:19.001Z</time></trkpt><trkpt lat="30.975777302828998" lon="-6.0115348516927"><ele>1629.0</ele><time>2026-05-05T10:40:20.001Z</time></trkpt><trkpt lat="30.975847876398433" lon="-6.011511344525752"><ele>1627.6</ele><time>2026-05-05T10:40:21.001Z</time></trkpt><trkpt lat="30.97592002767318" lon="-6.011468098749508"><ele>1626.2</ele><time>2026-05-05T10:40:22.001Z</time></trkpt><trkpt lat="30.975995450142143" lon="-6.01140913626049"><ele>1624.8</ele><time>2026-05-05T10:40:23.001Z</time></trkpt><trkpt lat="30.976074142604922" lon="-6.01133556020951"><ele>1623.3999999999999</ele><time>2026-05-05T10:40:24Z</time></trkpt><trkpt lat="30.976163428307608" lon="-6.011253924681998"><ele>1622.0</ele><time>2026-05-05T10:40:25Z</time></trkpt><trkpt lat="30.97624234805713" lon="-6.011174034487455"><ele>1622.0</ele><time>2026-05-05T10:40:26Z</time></trkpt><trkpt lat="30.976321155284893" lon="-6.011079864284686"><ele>1622.0</ele><time>2026-05-05T10:40:27Z</time></trkpt><trkpt lat="30.9764013898544" lon="-6.010980008101665"><ele>1622.0</ele><time>2026-05-05T10:40:28Z</time></trkpt><trkpt lat="30.976488171456477" lon="-6.010864207392878"><ele>1622.0</ele><time>2026-05-05T10:40:29Z</time></trkpt><trkpt lat="30.976562541788564" lon="-6.010748085508737"><ele>1619.75</ele><time>2026-05-05T10:40:30Z</time></trkpt><trkpt lat="30.976621136134323" lon="-6.010647251418666"><ele>1617.5</ele><time>2026-05-05T10:40:31Z</time></trkpt><trkpt lat="30.976683269420512" lon="-6.0105311342176835"><ele>1615.25</ele><time>2026-05-05T10:40:32Z</time></trkpt><trkpt lat="30.97675264713769" lon="-6.010409793504185"><ele>1613.0</ele><time>2026-05-05T10:40:33Z</time></trkpt><trkpt lat="30.976839528670077" lon="-6.010280027534783"><ele>1613.3333333333333</ele><time>2026-05-05T10:40:34Z</time></trkpt><trkpt lat="30.976941964143922" lon="-6.010158451615815"><ele>1613.6666666666665</ele><time>2026-05-05T10:40:35Z</time></trkpt><trkpt lat="30.97705353187685" lon="-6.0100313990715595"><ele>1614.0</ele><time>2026-05-05T10:40:36Z</time></trkpt><trkpt lat="30.97716545718774" lon="-6.0099034104535125"><ele>1614.0</ele><time>2026-05-05T10:40:37Z</time></trkpt><trkpt lat="30.977277078638394" lon="-6.009775825615978"><ele>1614.0</ele><time>2026-05-05T10:40:38Z</time></trkpt><trkpt lat="30.97737996369284" lon="-6.0096588162560725"><ele>1614.0</ele><time>2026-05-05T10:40:39Z</time></trkpt><trkpt lat="30.977477312342536" lon="-6.009546895660686"><ele>1614.0</ele><time>2026-05-05T10:40:40Z</time></trkpt><trkpt lat="30.977590718269113" lon="-6.009429977385107"><ele>1614.5</ele><time>2026-05-05T10:40:41Z</time></trkpt><trkpt lat="30.97770817612845" lon="-6.009311710658253"><ele>1615.0</ele><time>2026-05-05T10:40:42Z</time></trkpt><trkpt lat="30.977821320917133" lon="-6.009197234517127"><ele>1615.5</ele><time>2026-05-05T10:40:43Z</time></trkpt><trkpt lat="30.97792634852944" lon="-6.009089323963236"><ele>1616.0</ele><time>2026-05-05T10:40:44Z</time></trkpt><trkpt lat="30.978026244481626" lon="-6.008984476353484"><ele>1616.0</ele><time>2026-05-05T10:40:45Z</time></trkpt><trkpt lat="30.97812187553701" lon="-6.008882618791357"><ele>1616.0</ele><time>2026-05-05T10:40:46Z</time></trkpt><trkpt lat="30.978211948920872" lon="-6.008785959036152"><ele>1616.0</ele><time>2026-05-05T10:40:47Z</time></trkpt><trkpt lat="30.978303006261473" lon="-6.0086864760774885"><ele>1616.0</ele><time>2026-05-05T10:40:48Z</time></trkpt><trkpt lat="30.97838541061449" lon="-6.008583732753836"><ele>1618.8</ele><time>2026-05-05T10:40:49Z</time></trkpt><trkpt lat="30.978456786756677" lon="-6.0084951473543775"><ele>1621.6</ele><time>2026-05-05T10:40:50Z</time></trkpt><trkpt lat="30.978530799843323" lon="-6.008416919387486"><ele>1624.4</ele><time>2026-05-05T10:40:51Z</time></trkpt><trkpt lat="30.978607688929454" lon="-6.008352111433807"><ele>1627.2</ele><time>2026-05-05T10:40:52Z</time></trkpt><trkpt lat="30.978689505736746" lon="-6.008306674095972"><ele>1630.0</ele><time>2026-05-05T10:40:53Z</time></trkpt><trkpt lat="30.978759790625926" lon="-6.008266811041378"><ele>1630.0</ele><time>2026-05-05T10:40:54Z</time></trkpt><trkpt lat="30.978830122006396" lon="-6.008165586324559"><ele>1630.0</ele><time>2026-05-05T10:40:56Z</time></trkpt><trkpt lat="30.978876757009424" lon="-6.0080913891253"><ele>1630.0</ele><time>2026-05-05T10:40:57Z</time></trkpt><trkpt lat="30.978818310634264" lon="-6.007967691794622"><ele>1630.0</ele><time>2026-05-05T10:40:59Z</time></trkpt><trkpt lat="30.97878902627172" lon="-6.0078843260321975"><ele>1630.0</ele><time>2026-05-05T10:41:00Z</time></trkpt><trkpt lat="30.978701162833865" lon="-6.007835587133882"><ele>1630.0</ele><time>2026-05-05T10:41:01Z</time></trkpt><trkpt lat="30.97859597760795" lon="-6.007813555911366"><ele>1630.0</ele><time>2026-05-05T10:41:02Z</time></trkpt><trkpt lat="30.97848388549295" lon="-6.00781942281922"><ele>1630.0</ele><time>2026-05-05T10:41:03Z</time></trkpt><trkpt lat="30.978368214965112" lon="-6.007849398293976"><ele>1630.0</ele><time>2026-05-05T10:41:04Z</time></trkpt><trkpt lat="30.978254313435272" lon="-6.007898270525332"><ele>1628.5000000000002</ele><time>2026-05-05T10:41:05Z</time></trkpt><trkpt lat="30.978169169009337" lon="-6.007948994420697"><ele>1627.0</ele><time>2026-05-05T10:41:06Z</time></trkpt><trkpt lat="30.97810788574522" lon="-6.007983087451781"><ele>1625.5</ele><time>2026-05-05T10:41:07Z</time></trkpt><trkpt lat="30.977983140842362" lon="-6.008000336488431"><ele>1624.0</ele><time>2026-05-05T10:41:09Z</time></trkpt><trkpt lat="30.977913956064825" lon="-6.007971257479053"><ele>1622.5000000000002</ele><time>2026-05-05T10:41:10Z</time></trkpt><trkpt lat="30.97785093947435" lon="-6.007910044057963"><ele>1621.0</ele><time>2026-05-05T10:41:11Z</time></trkpt><trkpt lat="30.977808355261224" lon="-6.007826856723571"><ele>1621.0</ele><time>2026-05-05T10:41:12Z</time></trkpt><trkpt lat="30.97778133302888" lon="-6.007748280255064"><ele>1621.0</ele><time>2026-05-05T10:41:13Z</time></trkpt><trkpt lat="30.977799207845454" lon="-6.007642147314785"><ele>1621.0</ele><time>2026-05-05T10:41:14Z</time></trkpt><trkpt lat="30.97783440357249" lon="-6.007528457426189"><ele>1621.0</ele><time>2026-05-05T10:41:15Z</time></trkpt><trkpt lat="30.97789414976911" lon="-6.007387715295884"><ele>1621.0</ele><time>2026-05-05T10:41:16Z</time></trkpt><trkpt lat="30.977960342416548" lon="-6.007240617451235"><ele>1618.5</ele><time>2026-05-05T10:41:17Z</time></trkpt><trkpt lat="30.978029468702815" lon="-6.007097052547778"><ele>1616.0</ele><time>2026-05-05T10:41:18Z</time></trkpt><trkpt lat="30.978097301672417" lon="-6.0069733523302276"><ele>1613.5</ele><time>2026-05-05T10:41:19Z</time></trkpt><trkpt lat="30.978165081180553" lon="-6.0068573788769"><ele>1611.0</ele><time>2026-05-05T10:41:20Z</time></trkpt><trkpt lat="30.97823487653653" lon="-6.006741337271404"><ele>1610.75</ele><time>2026-05-05T10:41:21Z</time></trkpt><trkpt lat="30.978301332829037" lon="-6.006628325616511"><ele>1610.5</ele><time>2026-05-05T10:41:22Z</time></trkpt><trkpt lat="30.978363106558298" lon="-6.006514201048293"><ele>1610.25</ele><time>2026-05-05T10:41:23Z</time></trkpt><trkpt lat="30.97841817575002" lon="-6.006399613440643"><ele>1610.0</ele><time>2026-05-05T10:41:24Z</time></trkpt><trkpt lat="30.978478380969378" lon="-6.006293186854023"><ele>1610.0</ele><time>2026-05-05T10:41:25Z</time></trkpt><trkpt lat="30.978547848250695" lon="-6.006188581394529"><ele>1610.0</ele><time>2026-05-05T10:41:26Z</time></trkpt><trkpt lat="30.978626365309953" lon="-6.006096154184651"><ele>1610.0</ele><time>2026-05-05T10:41:27Z</time></trkpt><trkpt lat="30.978712794974857" lon="-6.006002621810455"><ele>1610.0</ele><time>2026-05-05T10:41:28Z</time></trkpt><trkpt lat="30.9787953266309" lon="-6.0059107584419325"><ele>1607.4</ele><time>2026-05-05T10:41:29Z</time></trkpt><trkpt lat="30.978874591899302" lon="-6.005822530819787"><ele>1604.8</ele><time>2026-05-05T10:41:30Z</time></trkpt><trkpt lat="30.978946525716264" lon="-6.005736883288747"><ele>1602.1999999999998</ele><time>2026-05-05T10:41:31Z</time></trkpt><trkpt lat="30.979017372795504" lon="-6.005638490505462"><ele>1599.6</ele><time>2026-05-05T10:41:32Z</time></trkpt><trkpt lat="30.97908786948764" lon="-6.00555588071174"><ele>1597.0</ele><time>2026-05-05T10:41:33Z</time></trkpt><trkpt lat="30.97913521179827" lon="-6.005498563426328"><ele>1598.3333333333335</ele><time>2026-05-05T10:41:34Z</time></trkpt><trkpt lat="30.97920504950675" lon="-6.005453998392861"><ele>1599.6666666666667</ele><time>2026-05-05T10:41:35Z</time></trkpt><trkpt lat="30.979287932044592" lon="-6.0054466941598035"><ele>1601.0</ele><time>2026-05-05T10:41:36Z</time></trkpt><trkpt lat="30.97936850885737" lon="-6.005499707462996"><ele>1602.3333333333335</ele><time>2026-05-05T10:41:37Z</time></trkpt><trkpt lat="30.979436472290878" lon="-6.0055432648659135"><ele>1603.6666666666667</ele><time>2026-05-05T10:41:38Z</time></trkpt><trkpt lat="30.979505250471203" lon="-6.005618817231303"><ele>1605.0</ele><time>2026-05-05T10:41:39Z</time></trkpt><trkpt lat="30.97959398290224" lon="-6.005712968131908"><ele>1605.0</ele><time>2026-05-05T10:41:40Z</time></trkpt><trkpt lat="30.979679090010503" lon="-6.005796970139351"><ele>1605.0</ele><time>2026-05-05T10:41:41Z</time></trkpt><trkpt lat="30.979757720436275" lon="-6.005865658851451"><ele>1605.0</ele><time>2026-05-05T10:41:42Z</time></trkpt><trkpt lat="30.97984454312453" lon="-6.005886479882121"><ele>1605.0</ele><time>2026-05-05T10:41:43Z</time></trkpt><trkpt lat="30.97991469151473" lon="-6.00591974046904"><ele>1605.0</ele><time>2026-05-05T10:41:44Z</time></trkpt><trkpt lat="30.979980529491964" lon="-6.005911345581236"><ele>1605.0</ele><time>2026-05-05T10:41:45Z</time></trkpt><trkpt lat="30.980063401721406" lon="-6.005819173446789"><ele>1605.0</ele><time>2026-05-05T10:41:47Z</time></trkpt><trkpt lat="30.98004130502137" lon="-6.0056921553700455"><ele>1605.0</ele><time>2026-05-05T10:41:49Z</time></trkpt><trkpt lat="30.980025433702128" lon="-6.005588391831226"><ele>1605.0</ele><time>2026-05-05T10:41:50Z</time></trkpt><trkpt lat="30.980010375346943" lon="-6.0054482437452466"><ele>1605.0</ele><time>2026-05-05T10:41:51Z</time></trkpt><trkpt lat="30.979998563659063" lon="-6.005338058482771"><ele>1605.0</ele><time>2026-05-05T10:41:52Z</time></trkpt><trkpt lat="30.979994113133685" lon="-6.005250684557832"><ele>1605.0</ele><time>2026-05-05T10:41:53Z</time></trkpt><trkpt lat="30.97995904643222" lon="-6.005155779506472"><ele>1605.0</ele><time>2026-05-05T10:41:54Z</time></trkpt><trkpt lat="30.97988030733398" lon="-6.0050981662772"><ele>1605.0</ele><time>2026-05-05T10:41:55Z</time></trkpt><trkpt lat="30.97978814483012" lon="-6.005017336754321"><ele>1605.0</ele><time>2026-05-05T10:41:56Z</time></trkpt><trkpt lat="30.979696062673195" lon="-6.00492872208281"><ele>1605.0</ele><time>2026-05-05T10:41:57Z</time></trkpt><trkpt lat="30.97961985275515" lon="-6.004827378475419"><ele>1604.0</ele><time>2026-05-05T10:41:58Z</time></trkpt><trkpt lat="30.979562476005217" lon="-6.004710493019535"><ele>1603.0</ele><time>2026-05-05T10:41:59Z</time></trkpt><trkpt lat="30.979495722976786" lon="-6.004568803361093"><ele>1602.0</ele><time>2026-05-05T10:42:00Z</time></trkpt><trkpt lat="30.979423079218037" lon="-6.004413894374112"><ele>1601.0</ele><time>2026-05-05T10:42:01Z</time></trkpt><trkpt lat="30.979351559610684" lon="-6.0042777455987"><ele>1597.75</ele><time>2026-05-05T10:42:02Z</time></trkpt><trkpt lat="30.97928999755894" lon="-6.004131468219436"><ele>1594.5</ele><time>2026-05-05T10:42:03Z</time></trkpt><trkpt lat="30.97919702009189" lon="-6.004006385650658"><ele>1591.25</ele><time>2026-05-05T10:42:04Z</time></trkpt><trkpt lat="30.979088961039494" lon="-6.003887947609561"><ele>1588.0</ele><time>2026-05-05T10:42:05Z</time></trkpt><trkpt lat="30.978976524656403" lon="-6.0037802841396966"><ele>1587.75</ele><time>2026-05-05T10:42:06Z</time></trkpt><trkpt lat="30.97886127493548" lon="-6.0036805802285595"><ele>1587.5</ele><time>2026-05-05T10:42:07Z</time></trkpt><trkpt lat="30.97875616319005" lon="-6.003580429199696"><ele>1587.25</ele><time>2026-05-05T10:42:08Z</time></trkpt><trkpt lat="30.978665721540025" lon="-6.003488106294163"><ele>1587.0</ele><time>2026-05-05T10:42:09Z</time></trkpt><trkpt lat="30.97857972627978" lon="-6.003405600057994"><ele>1586.8</ele><time>2026-05-05T10:42:10Z</time></trkpt><trkpt lat="30.97848795924992" lon="-6.003323749803698"><ele>1586.6</ele><time>2026-05-05T10:42:11Z</time></trkpt><trkpt lat="30.978408480961598" lon="-6.003264620822976"><ele>1586.3999999999999</ele><time>2026-05-05T10:42:12Z</time></trkpt><trkpt lat="30.978324754944946" lon="-6.003187493179094"><ele>1586.1999999999998</ele><time>2026-05-05T10:42:13Z</time></trkpt><trkpt lat="30.97825647259557" lon="-6.003111430038375"><ele>1586.0</ele><time>2026-05-05T10:42:14Z</time></trkpt><trkpt lat="30.978193806613653" lon="-6.003030650506633"><ele>1586.0</ele><time>2026-05-05T10:42:15Z</time></trkpt><trkpt lat="30.978144325661155" lon="-6.002944020532759"><ele>1586.0</ele><time>2026-05-05T10:42:16Z</time></trkpt><trkpt lat="30.978114077161916" lon="-6.002851875893452"><ele>1586.0</ele><time>2026-05-05T10:42:17Z</time></trkpt><trkpt lat="30.978108364171813" lon="-6.002747713041368"><ele>1586.0</ele><time>2026-05-05T10:42:18Z</time></trkpt><trkpt lat="30.978099586420054" lon="-6.002643796471981"><ele>1586.0</ele><time>2026-05-05T10:42:19Z</time></trkpt><trkpt lat="30.97811385420998" lon="-6.0025283917946"><ele>1585.1999999999998</ele><time>2026-05-05T10:42:20Z</time></trkpt><trkpt lat="30.978132993479107" lon="-6.002419915344054"><ele>1584.3999999999999</ele><time>2026-05-05T10:42:21Z</time></trkpt><trkpt lat="30.978146799696233" lon="-6.0023239769393415"><ele>1583.6</ele><time>2026-05-05T10:42:22Z</time></trkpt><trkpt lat="30.978150117822768" lon="-6.002213037346913"><ele>1582.8</ele><time>2026-05-05T10:42:23Z</time></trkpt><trkpt lat="30.978151175610897" lon="-6.002102554990808"><ele>1582.0</ele><time>2026-05-05T10:42:24Z</time></trkpt><trkpt lat="30.978154973805353" lon="-6.002001575361044"><ele>1582.0</ele><time>2026-05-05T10:42:25Z</time></trkpt><trkpt lat="30.97816574468756" lon="-6.001892900245308"><ele>1582.0</ele><time>2026-05-05T10:42:26Z</time></trkpt><trkpt lat="30.978183075706077" lon="-6.001786472376436"><ele>1582.0</ele><time>2026-05-05T10:42:27Z</time></trkpt><trkpt lat="30.97820112506249" lon="-6.001684052341941"><ele>1582.0</ele><time>2026-05-05T10:42:28Z</time></trkpt><trkpt lat="30.978219172777013" lon="-6.00158162099371"><ele>1582.0</ele><time>2026-05-05T10:42:29Z</time></trkpt><trkpt lat="30.978238077198064" lon="-6.001474327303928"><ele>1581.0</ele><time>2026-05-05T10:42:30Z</time></trkpt><trkpt lat="30.978250217964817" lon="-6.001374737995482"><ele>1580.0</ele><time>2026-05-05T10:42:31Z</time></trkpt><trkpt lat="30.97825458596631" lon="-6.001274766334022"><ele>1579.0</ele><time>2026-05-05T10:42:32Z</time></trkpt><trkpt lat="30.978251549418683" lon="-6.001171791861547"><ele>1578.0</ele><time>2026-05-05T10:42:33Z</time></trkpt><trkpt lat="30.97825864221657" lon="-6.001061129932759"><ele>1577.0</ele><time>2026-05-05T10:42:34Z</time></trkpt><trkpt lat="30.978266044729402" lon="-6.000945313987157"><ele>1575.1999999999998</ele><time>2026-05-05T10:42:35Z</time></trkpt><trkpt lat="30.978282669710197" lon="-6.000824102600961"><ele>1573.4</ele><time>2026-05-05T10:42:36Z</time></trkpt><trkpt lat="30.97829904276491" lon="-6.0007156946428255"><ele>1571.6</ele><time>2026-05-05T10:42:37Z</time></trkpt><trkpt lat="30.97831584365996" lon="-6.000604454015455"><ele>1569.8000000000002</ele><time>2026-05-05T10:42:38Z</time></trkpt><trkpt lat="30.9783184772331" lon="-6.0005058656826105"><ele>1568.0</ele><time>2026-05-05T10:42:39Z</time></trkpt><trkpt lat="30.978312881278036" lon="-6.000392435766837"><ele>1567.9999999999998</ele><time>2026-05-05T10:42:40Z</time></trkpt><trkpt lat="30.978306290611666" lon="-6.000290825437661"><ele>1568.0</ele><time>2026-05-05T10:42:41Z</time></trkpt><trkpt lat="30.97829400909485" lon="-6.000190906635799"><ele>1568.0</ele><time>2026-05-05T10:42:42Z</time></trkpt><trkpt lat="30.97827397043665" lon="-6.00010703317715"><ele>1568.0</ele><time>2026-05-05T10:42:43Z</time></trkpt><trkpt lat="30.978245863787254" lon="-5.999994163925158"><ele>1567.9999999999998</ele><time>2026-05-05T10:42:44Z</time></trkpt><trkpt lat="30.97821766630683" lon="-5.999902783588825"><ele>1568.0</ele><time>2026-05-05T10:42:45Z</time></trkpt><trkpt lat="30.978162419693334" lon="-5.999793920165271"><ele>1568.0</ele><time>2026-05-05T10:42:46Z</time></trkpt><trkpt lat="30.978104136880543" lon="-5.999680967240564"><ele>1568.0</ele><time>2026-05-05T10:42:47Z</time></trkpt><trkpt lat="30.978020417209734" lon="-5.999584645598624"><ele>1568.0</ele><time>2026-05-05T10:42:48Z</time></trkpt><trkpt lat="30.97794897279564" lon="-5.999483745173501"><ele>1568.0</ele><time>2026-05-05T10:42:49Z</time></trkpt><trkpt lat="30.977880394216232" lon="-5.999386660573216"><ele>1568.0</ele><time>2026-05-05T10:42:50Z</time></trkpt><trkpt lat="30.977794833958118" lon="-5.999307068570323"><ele>1568.0</ele><time>2026-05-05T10:42:51Z</time></trkpt><trkpt lat="30.97771916410558" lon="-5.999235270062755"><ele>1568.0</ele><time>2026-05-05T10:42:52Z</time></trkpt><trkpt lat="30.977640740424985" lon="-5.999164811619958"><ele>1568.0</ele><time>2026-05-05T10:42:53Z</time></trkpt><trkpt lat="30.97756560688476" lon="-5.999105203286511"><ele>1568.0</ele><time>2026-05-05T10:42:54Z</time></trkpt><trkpt lat="30.977480979204962" lon="-5.999048713444244"><ele>1565.6000000000001</ele><time>2026-05-05T10:42:55Z</time></trkpt><trkpt lat="30.977402509056237" lon="-5.999004500862569"><ele>1563.2</ele><time>2026-05-05T10:42:56Z</time></trkpt><trkpt lat="30.97729916638844" lon="-5.9989914191371785"><ele>1560.8</ele><time>2026-05-05T10:42:57Z</time></trkpt><trkpt lat="30.977199923288282" lon="-5.999000868850887"><ele>1558.4</ele><time>2026-05-05T10:42:58Z</time></trkpt><trkpt lat="30.977100052588618" lon="-5.999036644386443"><ele>1556.0</ele><time>2026-05-05T10:42:59Z</time></trkpt><trkpt lat="30.9769989762009" lon="-5.999073000510603"><ele>1555.9999999999998</ele><time>2026-05-05T10:43:00Z</time></trkpt><trkpt lat="30.976904575670943" lon="-5.999100010310788"><ele>1556.0</ele><time>2026-05-05T10:43:01Z</time></trkpt><trkpt lat="30.976817816477357" lon="-5.999118195124569"><ele>1556.0</ele><time>2026-05-05T10:43:02Z</time></trkpt><trkpt lat="30.976734845909363" lon="-5.9991264922649385"><ele>1556.0</ele><time>2026-05-05T10:43:03Z</time></trkpt><trkpt lat="30.97665484771487" lon="-5.9991153738450596"><ele>1555.9999999999998</ele><time>2026-05-05T10:43:04Z</time></trkpt><trkpt lat="30.976575398166776" lon="-5.999086030728591"><ele>1556.0</ele><time>2026-05-05T10:43:05Z</time></trkpt><trkpt lat="30.976503564392985" lon="-5.999024654049527"><ele>1554.9999999999998</ele><time>2026-05-05T10:43:06Z</time></trkpt><trkpt lat="30.976435971276963" lon="-5.9989474360357935"><ele>1554.0</ele><time>2026-05-05T10:43:07Z</time></trkpt><trkpt lat="30.976378440820003" lon="-5.99886143909108"><ele>1553.0</ele><time>2026-05-05T10:43:08Z</time></trkpt><trkpt lat="30.976335732351046" lon="-5.998771455373162"><ele>1552.0</ele><time>2026-05-05T10:43:09Z</time></trkpt><trkpt lat="30.976310017454974" lon="-5.998687694526449"><ele>1550.9999999999998</ele><time>2026-05-05T10:43:10Z</time></trkpt><trkpt lat="30.976302806839787" lon="-5.998608951997243"><ele>1550.0</ele><time>2026-05-05T10:43:11Z</time></trkpt><trkpt lat="30.976283841495054" lon="-5.998532276304388"><ele>1550.0</ele><time>2026-05-05T10:43:12Z</time></trkpt><trkpt lat="30.976312171477105" lon="-5.998444308706666"><ele>1550.0</ele><time>2026-05-05T10:43:13Z</time></trkpt><trkpt lat="30.976394720710832" lon="-5.998354713561797"><ele>1550.0</ele><time>2026-05-05T10:43:14Z</time></trkpt><trkpt lat="30.976496690146668" lon="-5.998300804660283"><ele>1550.0</ele><time>2026-05-05T10:43:15Z</time></trkpt><trkpt lat="30.976606037906773" lon="-5.998266266648699"><ele>1550.0</ele><time>2026-05-05T10:43:16Z</time></trkpt><trkpt lat="30.97671094792075" lon="-5.998234991487692"><ele>1550.4</ele><time>2026-05-05T10:43:17Z</time></trkpt><trkpt lat="30.976793593982975" lon="-5.998195204659489"><ele>1550.8</ele><time>2026-05-05T10:43:18Z</time></trkpt><trkpt lat="30.976870156994046" lon="-5.998128414942358"><ele>1551.1999999999998</ele><time>2026-05-05T10:43:19Z</time></trkpt><trkpt lat="30.97695990153612" lon="-5.998044539548913"><ele>1551.6</ele><time>2026-05-05T10:43:20Z</time></trkpt><trkpt lat="30.977041690036042" lon="-5.997967226715954"><ele>1552.0</ele><time>2026-05-05T10:43:21Z</time></trkpt><trkpt lat="30.977111402642166" lon="-5.997901947180268"><ele>1552.0000000000002</ele><time>2026-05-05T10:43:22Z</time></trkpt><trkpt lat="30.97719646966538" lon="-5.9978465546486595"><ele>1552.0</ele><time>2026-05-05T10:43:23Z</time></trkpt><trkpt lat="30.9772901051448" lon="-5.997817179575724"><ele>1552.0</ele><time>2026-05-05T10:43:24Z</time></trkpt><trkpt lat="30.97737027680583" lon="-5.997788389308655"><ele>1552.0</ele><time>2026-05-05T10:43:25Z</time></trkpt><trkpt lat="30.977453111508293" lon="-5.997758642790666"><ele>1552.0000000000002</ele><time>2026-05-05T10:43:26Z</time></trkpt><trkpt lat="30.9775154784584" lon="-5.997708665000101"><ele>1552.0</ele><time>2026-05-05T10:43:27Z</time></trkpt><trkpt lat="30.977576126485147" lon="-5.99764812236272"><ele>1551.1999999999998</ele><time>2026-05-05T10:43:28Z</time></trkpt><trkpt lat="30.977627698249286" lon="-5.997562242616591"><ele>1550.4</ele><time>2026-05-05T10:43:29Z</time></trkpt><trkpt lat="30.977675672434355" lon="-5.997460221864116"><ele>1549.6</ele><time>2026-05-05T10:43:30Z</time></trkpt><trkpt lat="30.977731501236633" lon="-5.997351925229299"><ele>1548.8000000000002</ele><time>2026-05-05T10:43:31Z</time></trkpt><trkpt lat="30.977772759488563" lon="-5.997239383487283"><ele>1548.0</ele><time>2026-05-05T10:43:32Z</time></trkpt><trkpt lat="30.97781938287336" lon="-5.997115405829928"><ele>1546.0</ele><time>2026-05-05T10:43:33Z</time></trkpt><trkpt lat="30.97787066378118" lon="-5.996994759426691"><ele>1544.0</ele><time>2026-05-05T10:43:34Z</time></trkpt><trkpt lat="30.977924502117915" lon="-5.9968713993201845"><ele>1542.0</ele><time>2026-05-05T10:43:35Z</time></trkpt><trkpt lat="30.977978487044258" lon="-5.996754923967216"><ele>1540.0</ele><time>2026-05-05T10:43:36Z</time></trkpt><trkpt lat="30.97804416673044" lon="-5.996636271286081"><ele>1538.0</ele><time>2026-05-05T10:43:37Z</time></trkpt><trkpt lat="30.978127128040025" lon="-5.996525616679122"><ele>1536.0</ele><time>2026-05-05T10:43:38Z</time></trkpt><trkpt lat="30.978207930106787" lon="-5.996423476903483"><ele>1534.0</ele><time>2026-05-05T10:43:39Z</time></trkpt><trkpt lat="30.978292341164273" lon="-5.996320692920469"><ele>1532.0</ele><time>2026-05-05T10:43:40Z</time></trkpt><trkpt lat="30.978374102963116" lon="-5.996224095291059"><ele>1530.3999999999999</ele><time>2026-05-05T10:43:41Z</time></trkpt><trkpt lat="30.97845360728959" lon="-5.996130522573892"><ele>1528.8</ele><time>2026-05-05T10:43:42Z</time></trkpt><trkpt lat="30.978517563871854" lon="-5.996040465699113"><ele>1527.2</ele><time>2026-05-05T10:43:43Z</time></trkpt><trkpt lat="30.978580308607988" lon="-5.995950653604837"><ele>1525.6</ele><time>2026-05-05T10:43:44Z</time></trkpt><trkpt lat="30.978624903869527" lon="-5.995861889485538"><ele>1524.0</ele><time>2026-05-05T10:43:45Z</time></trkpt><trkpt lat="30.978650561577442" lon="-5.995782499430153"><ele>1523.5714285714284</ele><time>2026-05-05T10:43:46Z</time></trkpt><trkpt lat="30.978672245668694" lon="-5.995702362826782"><ele>1523.1428571428573</ele><time>2026-05-05T10:43:47Z</time></trkpt><trkpt lat="30.978661267069484" lon="-5.995628461326118"><ele>1522.7142857142858</ele><time>2026-05-05T10:43:48Z</time></trkpt><trkpt lat="30.978640482426023" lon="-5.9955532682523485"><ele>1522.2857142857142</ele><time>2026-05-05T10:43:49Z</time></trkpt><trkpt lat="30.978610897637097" lon="-5.995478066477735"><ele>1521.8571428571427</ele><time>2026-05-05T10:43:50Z</time></trkpt><trkpt lat="30.978544541721178" lon="-5.995433947128708"><ele>1521.4285714285716</ele><time>2026-05-05T10:43:51Z</time></trkpt><trkpt lat="30.978465329494828" lon="-5.995425236913281"><ele>1521.0</ele><time>2026-05-05T10:43:52Z</time></trkpt><trkpt lat="30.978392997451415" lon="-5.995446650098286"><ele>1522.0</ele><time>2026-05-05T10:43:53Z</time></trkpt><trkpt lat="30.978317688744834" lon="-5.995485415657357"><ele>1523.0</ele><time>2026-05-05T10:43:54Z</time></trkpt><trkpt lat="30.978231078567482" lon="-5.995515691546874"><ele>1524.0</ele><time>2026-05-05T10:43:55Z</time></trkpt><trkpt lat="30.97815807309453" lon="-5.995520560208408"><ele>1525.0</ele><time>2026-05-05T10:43:56Z</time></trkpt><trkpt lat="30.978087260910883" lon="-5.995489284008355"><ele>1526.0</ele><time>2026-05-05T10:43:57Z</time></trkpt><trkpt lat="30.978012323547357" lon="-5.99545183340438"><ele>1527.0</ele><time>2026-05-05T10:43:58Z</time></trkpt><trkpt lat="30.97794740200524" lon="-5.995399731654235"><ele>1527.0</ele><time>2026-05-05T10:43:59Z</time></trkpt><trkpt lat="30.9778907104122" lon="-5.995263093902199"><ele>1527.0</ele><time>2026-05-05T10:44:00Z</time></trkpt><trkpt lat="30.97783778041065" lon="-5.995145772326029"><ele>1527.0</ele><time>2026-05-05T10:44:01Z</time></trkpt><trkpt lat="30.977785782861993" lon="-5.995035568580324"><ele>1527.0</ele><time>2026-05-05T10:44:02Z</time></trkpt><trkpt lat="30.9777350642697" lon="-5.9949275813961895"><ele>1524.6</ele><time>2026-05-05T10:44:03Z</time></trkpt><trkpt lat="30.977687593069827" lon="-5.994826071859591"><ele>1522.1999999999998</ele><time>2026-05-05T10:44:04Z</time></trkpt><trkpt lat="30.977635770371837" lon="-5.9947421057759875"><ele>1519.8</ele><time>2026-05-05T10:44:05Z</time></trkpt><trkpt lat="30.97757005602263" lon="-5.994691513635061"><ele>1517.4</ele><time>2026-05-05T10:44:06Z</time></trkpt><trkpt lat="30.9774980191337" lon="-5.994640935561864"><ele>1515.0</ele><time>2026-05-05T10:44:07Z</time></trkpt><trkpt lat="30.977394506263227" lon="-5.994628412342264"><ele>1514.8</ele><time>2026-05-05T10:44:08Z</time></trkpt><trkpt lat="30.977282998980304" lon="-5.994627508612174"><ele>1514.6</ele><time>2026-05-05T10:44:09Z</time></trkpt><trkpt lat="30.977176929041647" lon="-5.994631878734463"><ele>1514.4</ele><time>2026-05-05T10:44:10Z</time></trkpt><trkpt lat="30.97707987016956" lon="-5.9946467077140735"><ele>1514.2</ele><time>2026-05-05T10:44:11Z</time></trkpt><trkpt lat="30.97698278261849" lon="-5.994637876299717"><ele>1514.0</ele><time>2026-05-05T10:44:12Z</time></trkpt><trkpt lat="30.97689035700239" lon="-5.994610090430625"><ele>1514.0</ele><time>2026-05-05T10:44:13Z</time></trkpt><trkpt lat="30.976811087604077" lon="-5.994564255640838"><ele>1514.0</ele><time>2026-05-05T10:44:14Z</time></trkpt><trkpt lat="30.97674415511466" lon="-5.994506967380726"><ele>1514.0</ele><time>2026-05-05T10:44:15Z</time></trkpt><trkpt lat="30.976681271636487" lon="-5.994417848238472"><ele>1514.0</ele><time>2026-05-05T10:44:16Z</time></trkpt><trkpt lat="30.97661659400261" lon="-5.994314858941998"><ele>1514.0</ele><time>2026-05-05T10:44:17Z</time></trkpt><trkpt lat="30.976555365595292" lon="-5.99420359848843"><ele>1511.0</ele><time>2026-05-05T10:44:18Z</time></trkpt><trkpt lat="30.97649182662832" lon="-5.994093094889222"><ele>1508.0</ele><time>2026-05-05T10:44:19Z</time></trkpt><trkpt lat="30.97642311379573" lon="-5.99399677470674"><ele>1505.0</ele><time>2026-05-05T10:44:20Z</time></trkpt><trkpt lat="30.976359498588263" lon="-5.993893495673943"><ele>1502.0</ele><time>2026-05-05T10:44:21Z</time></trkpt><trkpt lat="30.976312548697557" lon="-5.993783856603115"><ele>1499.0</ele><time>2026-05-05T10:44:22Z</time></trkpt><trkpt lat="30.976271747769562" lon="-5.993670634266593"><ele>1499.0</ele><time>2026-05-05T10:44:23Z</time></trkpt><trkpt lat="30.976241177328465" lon="-5.993573268560059"><ele>1499.0</ele><time>2026-05-05T10:44:24Z</time></trkpt><trkpt lat="30.976210855396037" lon="-5.993489752505402"><ele>1499.0</ele><time>2026-05-05T10:44:25Z</time></trkpt><trkpt lat="30.976206092071315" lon="-5.993392292287305"><ele>1499.0</ele><time>2026-05-05T10:44:26Z</time></trkpt><trkpt lat="30.976217027861047" lon="-5.993290671533487"><ele>1499.0</ele><time>2026-05-05T10:44:27Z</time></trkpt><trkpt lat="30.976260182644566" lon="-5.993192408423374"><ele>1499.0</ele><time>2026-05-05T10:44:28Z</time></trkpt><trkpt lat="30.976286351049414" lon="-5.993111148645423"><ele>1497.2</ele><time>2026-05-05T10:44:29Z</time></trkpt><trkpt lat="30.97630970744028" lon="-5.9930365964701116"><ele>1495.4</ele><time>2026-05-05T10:44:30Z</time></trkpt><trkpt lat="30.976260740300344" lon="-5.992913652204309"><ele>1493.6</ele><time>2026-05-05T10:44:32Z</time></trkpt><trkpt lat="30.97619740902403" lon="-5.992851824497289"><ele>1491.8</ele><time>2026-05-05T10:44:33Z</time></trkpt><trkpt lat="30.976114019246403" lon="-5.992798874367343"><ele>1490.0</ele><time>2026-05-05T10:44:34Z</time></trkpt><trkpt lat="30.97602721735339" lon="-5.992725393953101"><ele>1490.0</ele><time>2026-05-05T10:44:35Z</time></trkpt><trkpt lat="30.975937189340556" lon="-5.9926724281212005"><ele>1490.0</ele><time>2026-05-05T10:44:36Z</time></trkpt><trkpt lat="30.975856500797356" lon="-5.992607393374694"><ele>1490.0</ele><time>2026-05-05T10:44:37Z</time></trkpt><trkpt lat="30.975777073835918" lon="-5.992546252900509"><ele>1490.0</ele><time>2026-05-05T10:44:38Z</time></trkpt><trkpt lat="30.975708065443808" lon="-5.992443764722612"><ele>1490.0</ele><time>2026-05-05T10:44:39Z</time></trkpt><trkpt lat="30.97566253954287" lon="-5.992315141935838"><ele>1486.75</ele><time>2026-05-05T10:44:40Z</time></trkpt><trkpt lat="30.975628694563206" lon="-5.9921837076761975"><ele>1483.5</ele><time>2026-05-05T10:44:41Z</time></trkpt><trkpt lat="30.97559120470504" lon="-5.992035951464101"><ele>1480.25</ele><time>2026-05-05T10:44:42Z</time></trkpt><trkpt lat="30.975568763791543" lon="-5.991906019544477"><ele>1477.0</ele><time>2026-05-05T10:44:43Z</time></trkpt><trkpt lat="30.975546171651274" lon="-5.99177320350278"><ele>1475.6</ele><time>2026-05-05T10:44:44Z</time></trkpt><trkpt lat="30.975524880937364" lon="-5.991648174622154"><ele>1474.1999999999998</ele><time>2026-05-05T10:44:45Z</time></trkpt><trkpt lat="30.975494736388203" lon="-5.991530267647646"><ele>1472.8</ele><time>2026-05-05T10:44:46Z</time></trkpt><trkpt lat="30.97545808696954" lon="-5.991421022017397"><ele>1471.4</ele><time>2026-05-05T10:44:47Z</time></trkpt><trkpt lat="30.975413598188968" lon="-5.991304579034934"><ele>1470.0</ele><time>2026-05-05T10:44:48Z</time></trkpt><trkpt lat="30.975363360341337" lon="-5.991189112933372"><ele>1470.0</ele><time>2026-05-05T10:44:49Z</time></trkpt><trkpt lat="30.975308626426372" lon="-5.991067617367595"><ele>1470.0</ele><time>2026-05-05T10:44:50Z</time></trkpt><trkpt lat="30.975255743901673" lon="-5.990950231462409"><ele>1470.0</ele><time>2026-05-05T10:44:51Z</time></trkpt><trkpt lat="30.975211075292993" lon="-5.990826121558867"><ele>1470.0</ele><time>2026-05-05T10:44:52Z</time></trkpt><trkpt lat="30.97516642750499" lon="-5.9907040072768165"><ele>1468.0</ele><time>2026-05-05T10:44:53Z</time></trkpt><trkpt lat="30.975144308867943" lon="-5.990575695076943"><ele>1466.0</ele><time>2026-05-05T10:44:54Z</time></trkpt><trkpt lat="30.975138005923498" lon="-5.990435720877327"><ele>1464.0</ele><time>2026-05-05T10:44:55Z</time></trkpt><trkpt lat="30.975140513693884" lon="-5.990298680939581"><ele>1462.0</ele><time>2026-05-05T10:44:56Z</time></trkpt><trkpt lat="30.975146568857937" lon="-5.990162198857784"><ele>1462.0</ele><time>2026-05-05T10:44:57Z</time></trkpt><trkpt lat="30.975151060769747" lon="-5.990033684246866"><ele>1462.0</ele><time>2026-05-05T10:44:58Z</time></trkpt><trkpt lat="30.975156056742005" lon="-5.989893362486778"><ele>1462.0</ele><time>2026-05-05T10:44:59Z</time></trkpt><trkpt lat="30.97516084624295" lon="-5.98975883986713"><ele>1462.0</ele><time>2026-05-05T10:45:00Z</time></trkpt><trkpt lat="30.975164242419357" lon="-5.98964061962888"><ele>1462.0</ele><time>2026-05-05T10:45:01Z</time></trkpt><trkpt lat="30.975145807624134" lon="-5.989501356224381"><ele>1460.3999999999999</ele><time>2026-05-05T10:45:02Z</time></trkpt><trkpt lat="30.975089581563644" lon="-5.989399421878423"><ele>1458.8</ele><time>2026-05-05T10:45:03Z</time></trkpt><trkpt lat="30.9750477323378" lon="-5.989275043766153"><ele>1457.2</ele><time>2026-05-05T10:45:04Z</time></trkpt><trkpt lat="30.975005782446143" lon="-5.98915696606364"><ele>1455.6</ele><time>2026-05-05T10:45:05Z</time></trkpt><trkpt lat="30.974982057296906" lon="-5.989025227336003"><ele>1454.0</ele><time>2026-05-05T10:45:06Z</time></trkpt><trkpt lat="30.974986883665377" lon="-5.988886174775375"><ele>1452.25</ele><time>2026-05-05T10:45:07Z</time></trkpt><trkpt lat="30.97501678294241" lon="-5.9887447688610775"><ele>1450.5</ele><time>2026-05-05T10:45:08Z</time></trkpt><trkpt lat="30.975052002310502" lon="-5.988604611819879"><ele>1448.75</ele><time>2026-05-05T10:45:09Z</time></trkpt><trkpt lat="30.975085758218256" lon="-5.988468593977346"><ele>1447.0</ele><time>2026-05-05T10:45:10Z</time></trkpt><trkpt lat="30.975100479825972" lon="-5.988340971295997"><ele>1445.6</ele><time>2026-05-05T10:45:11Z</time></trkpt><trkpt lat="30.975108774075256" lon="-5.988212902532846"><ele>1444.1999999999998</ele><time>2026-05-05T10:45:12Z</time></trkpt><trkpt lat="30.975106700041536" lon="-5.9880878988554604"><ele>1442.8</ele><time>2026-05-05T10:45:13Z</time></trkpt><trkpt lat="30.97510100096514" lon="-5.9879765732335875"><ele>1441.4</ele><time>2026-05-05T10:45:14Z</time></trkpt><trkpt lat="30.97508875927836" lon="-5.987877747604265"><ele>1440.0</ele><time>2026-05-05T10:45:15Z</time></trkpt><trkpt lat="30.975075212085965" lon="-5.987782212502909"><ele>1440.0</ele><time>2026-05-05T10:45:16Z</time></trkpt><trkpt lat="30.97505514872274" lon="-5.987692100973731"><ele>1440.0</ele><time>2026-05-05T10:45:17Z</time></trkpt><trkpt lat="30.974991656452247" lon="-5.987625864602788"><ele>1440.0</ele><time>2026-05-05T10:45:18Z</time></trkpt><trkpt lat="30.97491848976377" lon="-5.987586267997473"><ele>1440.0</ele><time>2026-05-05T10:45:19Z</time></trkpt><trkpt lat="30.97483520900443" lon="-5.987571911501062"><ele>1440.0</ele><time>2026-05-05T10:45:20Z</time></trkpt><trkpt lat="30.974743908716682" lon="-5.987565435264223"><ele>1440.0</ele><time>2026-05-05T10:45:21Z</time></trkpt><trkpt lat="30.974654218762545" lon="-5.987560476706039"><ele>1441.2</ele><time>2026-05-05T10:45:22Z</time></trkpt><trkpt lat="30.974569574661768" lon="-5.9875321098262075"><ele>1442.4</ele><time>2026-05-05T10:45:23Z</time></trkpt><trkpt lat="30.97448420379709" lon="-5.987474982418532"><ele>1443.6</ele><time>2026-05-05T10:45:24Z</time></trkpt><trkpt lat="30.974400675879316" lon="-5.987404085879269"><ele>1444.8</ele><time>2026-05-05T10:45:25Z</time></trkpt><trkpt lat="30.97431779241428" lon="-5.9873324520507865"><ele>1446.0</ele><time>2026-05-05T10:45:26Z</time></trkpt><trkpt lat="30.974236097715075" lon="-5.987263517356674"><ele>1444.1999999999998</ele><time>2026-05-05T10:45:27Z</time></trkpt><trkpt lat="30.974154584888243" lon="-5.987217613605232"><ele>1442.3999999999999</ele><time>2026-05-05T10:45:28Z</time></trkpt><trkpt lat="30.974057722966705" lon="-5.98719539424898"><ele>1440.6</ele><time>2026-05-05T10:45:29Z</time></trkpt><trkpt lat="30.973955878093264" lon="-5.987187549661228"><ele>1438.8</ele><time>2026-05-05T10:45:30Z</time></trkpt><trkpt lat="30.973856053564816" lon="-5.987200836422208"><ele>1437.0</ele><time>2026-05-05T10:45:31Z</time></trkpt><trkpt lat="30.973760318923528" lon="-5.987227085228856"><ele>1437.0</ele><time>2026-05-05T10:45:32Z</time></trkpt><trkpt lat="30.97367180562709" lon="-5.987248004462666"><ele>1437.0</ele><time>2026-05-05T10:45:33Z</time></trkpt><trkpt lat="30.97357864966" lon="-5.987247303829585"><ele>1437.0</ele><time>2026-05-05T10:45:34Z</time></trkpt><trkpt lat="30.973470816569776" lon="-5.987221710880611"><ele>1437.0</ele><time>2026-05-05T10:45:35Z</time></trkpt><trkpt lat="30.97337015235234" lon="-5.987183357333459"><ele>1437.0</ele><time>2026-05-05T10:45:36Z</time></trkpt><trkpt lat="30.973259215934707" lon="-5.987139162306435"><ele>1434.6</ele><time>2026-05-05T10:45:37Z</time></trkpt><trkpt lat="30.973160715675448" lon="-5.987094623230578"><ele>1432.1999999999998</ele><time>2026-05-05T10:45:38Z</time></trkpt><trkpt lat="30.97305841202215" lon="-5.987062789112437"><ele>1429.8</ele><time>2026-05-05T10:45:39Z</time></trkpt><trkpt lat="30.97295701336655" lon="-5.987046372860349"><ele>1427.4</ele><time>2026-05-05T10:45:40Z</time></trkpt><trkpt lat="30.97284927038917" lon="-5.987041090576061"><ele>1425.0</ele><time>2026-05-05T10:45:41Z</time></trkpt><trkpt lat="30.972747801455924" lon="-5.987045491611185"><ele>1425.0</ele><time>2026-05-05T10:45:42Z</time></trkpt><trkpt lat="30.972650545090666" lon="-5.987037746956843"><ele>1425.0</ele><time>2026-05-05T10:45:43Z</time></trkpt><trkpt lat="30.972550128755877" lon="-5.9870032757141445"><ele>1425.0</ele><time>2026-05-05T10:45:44Z</time></trkpt><trkpt lat="30.97245808583074" lon="-5.9869580610179085"><ele>1425.0</ele><time>2026-05-05T10:45:45Z</time></trkpt><trkpt lat="30.97236635235318" lon="-5.986921719068638"><ele>1425.0</ele><time>2026-05-05T10:45:46Z</time></trkpt><trkpt lat="30.972271298592986" lon="-5.986886367667691"><ele>1424.8</ele><time>2026-05-05T10:45:47Z</time></trkpt><trkpt lat="30.97218393551273" lon="-5.986833321822185"><ele>1424.6</ele><time>2026-05-05T10:45:48Z</time></trkpt><trkpt lat="30.97209797135445" lon="-5.98678243033736"><ele>1424.4</ele><time>2026-05-05T10:45:49Z</time></trkpt><trkpt lat="30.97201741015774" lon="-5.98672822872859"><ele>1424.2</ele><time>2026-05-05T10:45:50Z</time></trkpt><trkpt lat="30.971949151070067" lon="-5.986667812455211"><ele>1424.0</ele><time>2026-05-05T10:45:51Z</time></trkpt><trkpt lat="30.971890722235585" lon="-5.986597038541435"><ele>1424.0</ele><time>2026-05-05T10:45:52Z</time></trkpt><trkpt lat="30.97183908306132" lon="-5.986519006048145"><ele>1424.0</ele><time>2026-05-05T10:45:53Z</time></trkpt><trkpt lat="30.971797058431843" lon="-5.9864378341377815"><ele>1424.0</ele><time>2026-05-05T10:45:54Z</time></trkpt><trkpt lat="30.97175815826996" lon="-5.986345836403342"><ele>1424.0</ele><time>2026-05-05T10:45:55Z</time></trkpt><trkpt lat="30.971706971841183" lon="-5.98625936090283"><ele>1424.0</ele><time>2026-05-05T10:45:56Z</time></trkpt><trkpt lat="30.971632393701874" lon="-5.986191884257158"><ele>1424.0</ele><time>2026-05-05T10:45:57Z</time></trkpt><trkpt lat="30.97154633966955" lon="-5.986144942332774"><ele>1421.5</ele><time>2026-05-05T10:45:58Z</time></trkpt><trkpt lat="30.971464432310967" lon="-5.986099679758325"><ele>1419.0</ele><time>2026-05-05T10:45:59Z</time></trkpt><trkpt lat="30.971409208912306" lon="-5.986063922190655"><ele>1416.5</ele><time>2026-05-05T10:46:00Z</time></trkpt><trkpt lat="30.971333213526176" lon="-5.985980678114141"><ele>1414.0</ele><time>2026-05-05T10:46:02Z</time></trkpt><trkpt lat="30.971317676613545" lon="-5.985845460681846"><ele>1411.5</ele><time>2026-05-05T10:46:04Z</time></trkpt><trkpt lat="30.97133054366464" lon="-5.985768819524746"><ele>1409.0</ele><time>2026-05-05T10:46:05Z</time></trkpt><trkpt lat="30.971347691133527" lon="-5.9856957979686625"><ele>1409.0</ele><time>2026-05-05T10:46:06Z</time></trkpt><trkpt lat="30.9713606716578" lon="-5.985577790724326"><ele>1409.0</ele><time>2026-05-05T10:46:08Z</time></trkpt><trkpt lat="30.97131366182904" lon="-5.985482051019073"><ele>1409.0</ele><time>2026-05-05T10:46:10Z</time></trkpt><trkpt lat="30.971247514645835" lon="-5.985425361393645"><ele>1409.0</ele><time>2026-05-05T10:46:11Z</time></trkpt><trkpt lat="30.971160674424738" lon="-5.985345293316658"><ele>1409.0</ele><time>2026-05-05T10:46:12Z</time></trkpt><trkpt lat="30.971079457133904" lon="-5.985274952494599"><ele>1409.0</ele><time>2026-05-05T10:46:13Z</time></trkpt><trkpt lat="30.971009819717352" lon="-5.985215494632139"><ele>1409.0</ele><time>2026-05-05T10:46:14Z</time></trkpt><trkpt lat="30.970945395191535" lon="-5.985159775913558"><ele>1409.0</ele><time>2026-05-05T10:46:15Z</time></trkpt><trkpt lat="30.97089305481787" lon="-5.9850925357188585"><ele>1409.0</ele><time>2026-05-05T10:46:16Z</time></trkpt><trkpt lat="30.970814156450405" lon="-5.985062063568042"><ele>1409.0</ele><time>2026-05-05T10:46:17Z</time></trkpt><trkpt lat="30.97073441950669" lon="-5.985045920697705"><ele>1409.0</ele><time>2026-05-05T10:46:18Z</time></trkpt><trkpt lat="30.97065024979854" lon="-5.985053334007569"><ele>1407.6666666666667</ele><time>2026-05-05T10:46:19Z</time></trkpt><trkpt lat="30.970563474081853" lon="-5.985075398620945"><ele>1406.3333333333335</ele><time>2026-05-05T10:46:20Z</time></trkpt><trkpt lat="30.97048775738006" lon="-5.985084550382447"><ele>1405.0</ele><time>2026-05-05T10:46:21Z</time></trkpt><trkpt lat="30.970412991555474" lon="-5.985059871317261"><ele>1403.6666666666667</ele><time>2026-05-05T10:46:22Z</time></trkpt><trkpt lat="30.970325905204227" lon="-5.985028323949654"><ele>1402.3333333333333</ele><time>2026-05-05T10:46:23Z</time></trkpt><trkpt lat="30.97023869108916" lon="-5.984968480639388"><ele>1401.0</ele><time>2026-05-05T10:46:24Z</time></trkpt><trkpt lat="30.970174676279864" lon="-5.984872930430563"><ele>1401.0</ele><time>2026-05-05T10:46:25Z</time></trkpt><trkpt lat="30.97011760595646" lon="-5.984801613722187"><ele>1401.0</ele><time>2026-05-05T10:46:26Z</time></trkpt><trkpt lat="30.9700628181439" lon="-5.98473087834699"><ele>1401.0</ele><time>2026-05-05T10:46:27Z</time></trkpt><trkpt lat="30.970011412055076" lon="-5.984685154529249"><ele>1401.0</ele><time>2026-05-05T10:46:28Z</time></trkpt><trkpt lat="30.969957666332242" lon="-5.984643682091491"><ele>1401.0</ele><time>2026-05-05T10:46:29Z</time></trkpt><trkpt lat="30.9698964942653" lon="-5.98462266657664"><ele>1401.0</ele><time>2026-05-05T10:46:30Z</time></trkpt><trkpt lat="30.969820102066564" lon="-5.984645189583576"><ele>1401.0</ele><time>2026-05-05T10:46:31Z</time></trkpt><trkpt lat="30.96974083199432" lon="-5.984672045507723"><ele>1399.6666666666667</ele><time>2026-05-05T10:46:32Z</time></trkpt><trkpt lat="30.96966619594963" lon="-5.984683342902557"><ele>1398.3333333333333</ele><time>2026-05-05T10:46:33Z</time></trkpt><trkpt lat="30.96958645968784" lon="-5.984674813567221"><ele>1397.0</ele><time>2026-05-05T10:46:34Z</time></trkpt><trkpt lat="30.969505062284806" lon="-5.984648532193669"><ele>1395.6666666666665</ele><time>2026-05-05T10:46:35Z</time></trkpt><trkpt lat="30.969426365919404" lon="-5.984603481926179"><ele>1394.3333333333333</ele><time>2026-05-05T10:46:36Z</time></trkpt><trkpt lat="30.969349129211768" lon="-5.984555072360613"><ele>1393.0</ele><time>2026-05-05T10:46:37Z</time></trkpt><trkpt lat="30.969278982832517" lon="-5.984495663357464"><ele>1393.0</ele><time>2026-05-05T10:46:38Z</time></trkpt><trkpt lat="30.969219686018945" lon="-5.984426050528827"><ele>1393.0</ele><time>2026-05-05T10:46:39Z</time></trkpt><trkpt lat="30.969129208199412" lon="-5.984404193821222"><ele>1393.0</ele><time>2026-05-05T10:46:40Z</time></trkpt><trkpt lat="30.96903487160517" lon="-5.984401362973994"><ele>1393.0</ele><time>2026-05-05T10:46:41Z</time></trkpt><trkpt lat="30.968947374234972" lon="-5.984400378399"><ele>1393.0</ele><time>2026-05-05T10:46:42Z</time></trkpt><trkpt lat="30.968867940483676" lon="-5.9844023830441335"><ele>1393.0</ele><time>2026-05-05T10:46:43Z</time></trkpt><trkpt lat="30.96879196699779" lon="-5.98441720765756"><ele>1390.6666666666665</ele><time>2026-05-05T10:46:44Z</time></trkpt><trkpt lat="30.96871771190644" lon="-5.984446093789397"><ele>1388.3333333333333</ele><time>2026-05-05T10:46:45Z</time></trkpt><trkpt lat="30.968650260057863" lon="-5.984492719815253"><ele>1386.0</ele><time>2026-05-05T10:46:46Z</time></trkpt><trkpt lat="30.9685943668707" lon="-5.98456703300623"><ele>1383.6666666666667</ele><time>2026-05-05T10:46:47Z</time></trkpt><trkpt lat="30.96855788243954" lon="-5.984656755090336"><ele>1381.3333333333335</ele><time>2026-05-05T10:46:48Z</time></trkpt><trkpt lat="30.968516170532805" lon="-5.984742542177817"><ele>1379.0</ele><time>2026-05-05T10:46:49Z</time></trkpt><trkpt lat="30.968457573262068" lon="-5.98479774957308"><ele>1379.0</ele><time>2026-05-05T10:46:50Z</time></trkpt><trkpt lat="30.968396135679182" lon="-5.984835413912081"><ele>1379.0</ele><time>2026-05-05T10:46:51Z</time></trkpt><trkpt lat="30.96832935194914" lon="-5.984867534686155"><ele>1379.0</ele><time>2026-05-05T10:46:52Z</time></trkpt><trkpt lat="30.968262037119775" lon="-5.984878471659336"><ele>1379.0</ele><time>2026-05-05T10:46:53Z</time></trkpt><trkpt lat="30.968200154077564" lon="-5.984861080796994"><ele>1379.0</ele><time>2026-05-05T10:46:54Z</time></trkpt><trkpt lat="30.968145442339907" lon="-5.984822537180141"><ele>1379.0</ele><time>2026-05-05T10:46:55Z</time></trkpt><trkpt lat="30.968113696158206" lon="-5.984756273018807"><ele>1379.0</ele><time>2026-05-05T10:46:56Z</time></trkpt><trkpt lat="30.96810480242302" lon="-5.9846794358734146"><ele>1378.3333333333335</ele><time>2026-05-05T10:46:57Z</time></trkpt><trkpt lat="30.968108234811364" lon="-5.984590498721457"><ele>1377.6666666666667</ele><time>2026-05-05T10:46:58Z</time></trkpt><trkpt lat="30.9681181168275" lon="-5.984508626648366"><ele>1377.0</ele><time>2026-05-05T10:46:59Z</time></trkpt><trkpt lat="30.968043220707045" lon="-5.984390726730851"><ele>1376.3333333333333</ele><time>2026-05-05T10:47:01Z</time></trkpt><trkpt lat="30.967976762449375" lon="-5.984385608356077"><ele>1375.6666666666665</ele><time>2026-05-05T10:47:02Z</time></trkpt><trkpt lat="30.967901563501904" lon="-5.984408560696298"><ele>1375.0</ele><time>2026-05-05T10:47:03Z</time></trkpt><trkpt lat="30.967814900801617" lon="-5.984465671413843"><ele>1375.0</ele><time>2026-05-05T10:47:04Z</time></trkpt><trkpt lat="30.967712977405128" lon="-5.9845270301343785"><ele>1375.0</ele><time>2026-05-05T10:47:05Z</time></trkpt><trkpt lat="30.967620105598748" lon="-5.984569362729002"><ele>1375.0</ele><time>2026-05-05T10:47:06Z</time></trkpt><trkpt lat="30.967521676736194" lon="-5.98460484527726"><ele>1375.0</ele><time>2026-05-05T10:47:07Z</time></trkpt><trkpt lat="30.9674064471275" lon="-5.984638421173166"><ele>1375.0</ele><time>2026-05-05T10:47:08Z</time></trkpt><trkpt lat="30.967286079387605" lon="-5.98466500249533"><ele>1373.75</ele><time>2026-05-05T10:47:09Z</time></trkpt><trkpt lat="30.967166094891134" lon="-5.984679718270772"><ele>1372.5</ele><time>2026-05-05T10:47:10Z</time></trkpt><trkpt lat="30.967046285138274" lon="-5.98469333668986"><ele>1371.25</ele><time>2026-05-05T10:47:11Z</time></trkpt><trkpt lat="30.966932966058685" lon="-5.984706321716176"><ele>1370.0</ele><time>2026-05-05T10:47:12Z</time></trkpt><trkpt lat="30.96681984105188" lon="-5.984723177052426"><ele>1370.0</ele><time>2026-05-05T10:47:13Z</time></trkpt><trkpt lat="30.966709934625538" lon="-5.984749198915458"><ele>1370.0</ele><time>2026-05-05T10:47:14Z</time></trkpt><trkpt lat="30.96660328948682" lon="-5.984789351593877"><ele>1370.0</ele><time>2026-05-05T10:47:15Z</time></trkpt><trkpt lat="30.966495861160038" lon="-5.9848407558638"><ele>1370.0</ele><time>2026-05-05T10:47:16Z</time></trkpt><trkpt lat="30.9663864440617" lon="-5.984907426591785"><ele>1369.25</ele><time>2026-05-05T10:47:17Z</time></trkpt><trkpt lat="30.96626735613901" lon="-5.9849815924222804"><ele>1368.5</ele><time>2026-05-05T10:47:18Z</time></trkpt><trkpt lat="30.96614789800817" lon="-5.985060730213768"><ele>1367.75</ele><time>2026-05-05T10:47:19Z</time></trkpt><trkpt lat="30.9660333829967" lon="-5.9851460322339"><ele>1367.0</ele><time>2026-05-05T10:47:20Z</time></trkpt><trkpt lat="30.965918791428464" lon="-5.9852338545394055"><ele>1364.0</ele><time>2026-05-05T10:47:21Z</time></trkpt><trkpt lat="30.96580781648979" lon="-5.985318628151335"><ele>1361.0</ele><time>2026-05-05T10:47:22Z</time></trkpt><trkpt lat="30.965708264316532" lon="-5.98540283944063"><ele>1358.0</ele><time>2026-05-05T10:47:23Z</time></trkpt><trkpt lat="30.965616401126482" lon="-5.985482345989889"><ele>1355.0</ele><time>2026-05-05T10:47:24Z</time></trkpt><trkpt lat="30.965519853924086" lon="-5.985549416778655"><ele>1355.0</ele><time>2026-05-05T10:47:25Z</time></trkpt><trkpt lat="30.96541099260226" lon="-5.985595751852128"><ele>1355.0</ele><time>2026-05-05T10:47:26Z</time></trkpt><trkpt lat="30.96529367151419" lon="-5.985632180653508"><ele>1355.0</ele><time>2026-05-05T10:47:27Z</time></trkpt><trkpt lat="30.96517879550699" lon="-5.985664944786536"><ele>1355.0</ele><time>2026-05-05T10:47:28Z</time></trkpt><trkpt lat="30.965074384276118" lon="-5.9857085011735265"><ele>1355.8</ele><time>2026-05-05T10:47:29Z</time></trkpt><trkpt lat="30.96496908207618" lon="-5.98575743854135"><ele>1356.6</ele><time>2026-05-05T10:47:30Z</time></trkpt><trkpt lat="30.964896778848306" lon="-5.985873662157581"><ele>1357.4</ele><time>2026-05-05T10:47:31Z</time></trkpt><trkpt lat="30.964832738825166" lon="-5.985962257822702"><ele>1358.2</ele><time>2026-05-05T10:47:32Z</time></trkpt><trkpt lat="30.964767639261826" lon="-5.986025668991588"><ele>1359.0</ele><time>2026-05-05T10:47:33Z</time></trkpt><trkpt lat="30.96468917257013" lon="-5.986063117264163"><ele>1356.25</ele><time>2026-05-05T10:47:34Z</time></trkpt><trkpt lat="30.96459224216133" lon="-5.986077996528563"><ele>1353.5</ele><time>2026-05-05T10:47:35Z</time></trkpt><trkpt lat="30.964470237693675" lon="-5.986077835423599"><ele>1350.75</ele><time>2026-05-05T10:47:36Z</time></trkpt><trkpt lat="30.964343453215314" lon="-5.986066486641923"><ele>1348.0</ele><time>2026-05-05T10:47:37Z</time></trkpt><trkpt lat="30.96421339224518" lon="-5.986069898150472"><ele>1348.25</ele><time>2026-05-05T10:47:38Z</time></trkpt><trkpt lat="30.96409408799771" lon="-5.986093120610356"><ele>1348.5</ele><time>2026-05-05T10:47:39Z</time></trkpt><trkpt lat="30.96398205024308" lon="-5.986127913998464"><ele>1348.75</ele><time>2026-05-05T10:47:40Z</time></trkpt><trkpt lat="30.96386910175676" lon="-5.98616851191315"><ele>1349.0</ele><time>2026-05-05T10:47:41Z</time></trkpt><trkpt lat="30.963755208574632" lon="-5.986222744080844"><ele>1349.0</ele><time>2026-05-05T10:47:42Z</time></trkpt><trkpt lat="30.96366004528344" lon="-5.9862897529383785"><ele>1349.0</ele><time>2026-05-05T10:47:43Z</time></trkpt><trkpt lat="30.963561424499332" lon="-5.986363423090865"><ele>1349.0</ele><time>2026-05-05T10:47:44Z</time></trkpt><trkpt lat="30.963449565521394" lon="-5.9864257928623"><ele>1349.0</ele><time>2026-05-05T10:47:45Z</time></trkpt><trkpt lat="30.96333041188409" lon="-5.986482795393785"><ele>1348.25</ele><time>2026-05-05T10:47:46Z</time></trkpt><trkpt lat="30.9632094390811" lon="-5.986536589887296"><ele>1347.5</ele><time>2026-05-05T10:47:47Z</time></trkpt><trkpt lat="30.963092378515466" lon="-5.986584533123604"><ele>1346.75</ele><time>2026-05-05T10:47:48Z</time></trkpt><trkpt lat="30.962978601123144" lon="-5.986627929122252"><ele>1346.0</ele><time>2026-05-05T10:47:49Z</time></trkpt><trkpt lat="30.962861008734887" lon="-5.986666974011911"><ele>1343.25</ele><time>2026-05-05T10:47:50Z</time></trkpt><trkpt lat="30.962744314331974" lon="-5.986695448999114"><ele>1340.5</ele><time>2026-05-05T10:47:51Z</time></trkpt><trkpt lat="30.962627481091605" lon="-5.986728287150585"><ele>1337.75</ele><time>2026-05-05T10:47:52Z</time></trkpt><trkpt lat="30.962524084035362" lon="-5.986763566472648"><ele>1335.0</ele><time>2026-05-05T10:47:53Z</time></trkpt><trkpt lat="30.962405604210634" lon="-5.986824090403127"><ele>1335.0</ele><time>2026-05-05T10:47:54Z</time></trkpt><trkpt lat="30.962296372607504" lon="-5.98690746606272"><ele>1335.0</ele><time>2026-05-05T10:47:55Z</time></trkpt><trkpt lat="30.962191225319135" lon="-5.987010277485329"><ele>1335.0</ele><time>2026-05-05T10:47:56Z</time></trkpt><trkpt lat="30.962092826869963" lon="-5.987108993073599"><ele>1335.0</ele><time>2026-05-05T10:47:57Z</time></trkpt><trkpt lat="30.961998069938502" lon="-5.987197140888985"><ele>1335.0</ele><time>2026-05-05T10:47:58Z</time></trkpt><trkpt lat="30.96190653784688" lon="-5.987286854114959"><ele>1335.0</ele><time>2026-05-05T10:47:59Z</time></trkpt><trkpt lat="30.961824534844652" lon="-5.98736945608428"><ele>1335.0</ele><time>2026-05-05T10:48:00Z</time></trkpt><trkpt lat="30.961747366260028" lon="-5.987466762685549"><ele>1335.0</ele><time>2026-05-05T10:48:01Z</time></trkpt><trkpt lat="30.961675355734865" lon="-5.9875819864773145"><ele>1334.5</ele><time>2026-05-05T10:48:02Z</time></trkpt><trkpt lat="30.961609372371978" lon="-5.987714414776616"><ele>1334.0</ele><time>2026-05-05T10:48:03Z</time></trkpt><trkpt lat="30.961550465482006" lon="-5.987850737492"><ele>1333.5</ele><time>2026-05-05T10:48:04Z</time></trkpt><trkpt lat="30.961487498531316" lon="-5.9879709614742875"><ele>1333.0</ele><time>2026-05-05T10:48:05Z</time></trkpt><trkpt lat="30.96140983158203" lon="-5.988062707962453"><ele>1333.0</ele><time>2026-05-05T10:48:06Z</time></trkpt><trkpt lat="30.96135974929035" lon="-5.988172400059161"><ele>1333.0</ele><time>2026-05-05T10:48:07Z</time></trkpt><trkpt lat="30.96134265564866" lon="-5.988300381278079"><ele>1333.0</ele><time>2026-05-05T10:48:08Z</time></trkpt><trkpt lat="30.961315442200625" lon="-5.9884339004649565"><ele>1333.0</ele><time>2026-05-05T10:48:09Z</time></trkpt><trkpt lat="30.961297105707793" lon="-5.988574778446003"><ele>1331.8000000000002</ele><time>2026-05-05T10:48:10Z</time></trkpt><trkpt lat="30.961282211302372" lon="-5.988709460501246"><ele>1330.6</ele><time>2026-05-05T10:48:11Z</time></trkpt><trkpt lat="30.96127599802944" lon="-5.988819320518747"><ele>1329.4</ele><time>2026-05-05T10:48:12Z</time></trkpt><trkpt lat="30.9612708112613" lon="-5.988916932249225"><ele>1328.1999999999998</ele><time>2026-05-05T10:48:13Z</time></trkpt><trkpt lat="30.961257275756907" lon="-5.989005281891424"><ele>1327.0</ele><time>2026-05-05T10:48:14Z</time></trkpt><trkpt lat="30.961213085480992" lon="-5.989085915668976"><ele>1327.0</ele><time>2026-05-05T10:48:15Z</time></trkpt><trkpt lat="30.96118492378099" lon="-5.989163889557802"><ele>1327.0</ele><time>2026-05-05T10:48:16Z</time></trkpt><trkpt lat="30.961121282172535" lon="-5.989209007006957"><ele>1327.0</ele><time>2026-05-05T10:48:17Z</time></trkpt><trkpt lat="30.961038445477943" lon="-5.989244196806869"><ele>1327.0</ele><time>2026-05-05T10:48:18Z</time></trkpt><trkpt lat="30.960934060050512" lon="-5.989258307584746"><ele>1327.0</ele><time>2026-05-05T10:48:19Z</time></trkpt><trkpt lat="30.96082798055265" lon="-5.989266559553061"><ele>1327.0</ele><time>2026-05-05T10:48:20Z</time></trkpt><trkpt lat="30.96073717629964" lon="-5.989290658839347"><ele>1325.8333333333333</ele><time>2026-05-05T10:48:21Z</time></trkpt><trkpt lat="30.960654225512712" lon="-5.989337982433471"><ele>1324.6666666666665</ele><time>2026-05-05T10:48:22Z</time></trkpt><trkpt lat="30.960581332515773" lon="-5.9894017040923595"><ele>1323.5</ele><time>2026-05-05T10:48:23Z</time></trkpt><trkpt lat="30.96051953701892" lon="-5.989475304121918"><ele>1322.3333333333333</ele><time>2026-05-05T10:48:24Z</time></trkpt><trkpt lat="30.960465070220053" lon="-5.989548580841868"><ele>1321.1666666666667</ele><time>2026-05-05T10:48:25Z</time></trkpt><trkpt lat="30.960395170052692" lon="-5.989601837788121"><ele>1320.0</ele><time>2026-05-05T10:48:26Z</time></trkpt><trkpt lat="30.960303130036074" lon="-5.989636929312556"><ele>1320.0</ele><time>2026-05-05T10:48:27Z</time></trkpt><trkpt lat="30.960191790440742" lon="-5.989643829173412"><ele>1320.0</ele><time>2026-05-05T10:48:28Z</time></trkpt><trkpt lat="30.96008049554302" lon="-5.989642283661236"><ele>1320.0</ele><time>2026-05-05T10:48:29Z</time></trkpt><trkpt lat="30.9599744844838" lon="-5.989631750053469"><ele>1320.0</ele><time>2026-05-05T10:48:30Z</time></trkpt><trkpt lat="30.959873674981935" lon="-5.989628852964625"><ele>1320.0</ele><time>2026-05-05T10:48:31Z</time></trkpt><trkpt lat="30.959781012755048" lon="-5.989641632381277"><ele>1320.2</ele><time>2026-05-05T10:48:32Z</time></trkpt><trkpt lat="30.959689376395016" lon="-5.989674984611236"><ele>1320.4</ele><time>2026-05-05T10:48:33Z</time></trkpt><trkpt lat="30.959606020668947" lon="-5.9897138830211825"><ele>1320.6</ele><time>2026-05-05T10:48:34Z</time></trkpt><trkpt lat="30.959506426745858" lon="-5.989729467305422"><ele>1320.8</ele><time>2026-05-05T10:48:35Z</time></trkpt><trkpt lat="30.959398413929627" lon="-5.9897333706941325"><ele>1321.0</ele><time>2026-05-05T10:48:36Z</time></trkpt><trkpt lat="30.959297749932006" lon="-5.98973858772842"><ele>1321.0</ele><time>2026-05-05T10:48:37Z</time></trkpt><trkpt lat="30.959214905267128" lon="-5.989746210918615"><ele>1321.0</ele><time>2026-05-05T10:48:38Z</time></trkpt><trkpt lat="30.959150454146453" lon="-5.989739035339931"><ele>1321.0</ele><time>2026-05-05T10:48:39Z</time></trkpt><trkpt lat="30.959086953097337" lon="-5.989723314083706"><ele>1321.0</ele><time>2026-05-05T10:48:40Z</time></trkpt><trkpt lat="30.959013401094214" lon="-5.98967881535905"><ele>1321.0</ele><time>2026-05-05T10:48:41Z</time></trkpt><trkpt lat="30.958953943836924" lon="-5.989613556432468"><ele>1321.0</ele><time>2026-05-05T10:48:42Z</time></trkpt><trkpt lat="30.95889415366809" lon="-5.989549842682116"><ele>1320.4</ele><time>2026-05-05T10:48:43Z</time></trkpt><trkpt lat="30.958849691928123" lon="-5.9894830427125045"><ele>1319.8</ele><time>2026-05-05T10:48:44Z</time></trkpt><trkpt lat="30.9587624232841" lon="-5.989470486316572"><ele>1319.2</ele><time>2026-05-05T10:48:45Z</time></trkpt><trkpt lat="30.958665846222026" lon="-5.9894779639017415"><ele>1318.6000000000001</ele><time>2026-05-05T10:48:46Z</time></trkpt><trkpt lat="30.958561858325382" lon="-5.989492607884703"><ele>1318.0</ele><time>2026-05-05T10:48:47Z</time></trkpt><trkpt lat="30.958458735838523" lon="-5.9895284044037975"><ele>1317.0</ele><time>2026-05-05T10:48:48Z</time></trkpt><trkpt lat="30.958361690008683" lon="-5.989567146256366"><ele>1316.0</ele><time>2026-05-05T10:48:49Z</time></trkpt><trkpt lat="30.958277632528038" lon="-5.989610368866851"><ele>1315.0</ele><time>2026-05-05T10:48:50Z</time></trkpt><trkpt lat="30.95820517983137" lon="-5.9896522179564595"><ele>1314.0</ele><time>2026-05-05T10:48:51Z</time></trkpt><trkpt lat="30.95812250334954" lon="-5.989689326383289"><ele>1313.0</ele><time>2026-05-05T10:48:52Z</time></trkpt><trkpt lat="30.958033828360325" lon="-5.989689898996153"><ele>1313.0</ele><time>2026-05-05T10:48:53Z</time></trkpt><trkpt lat="30.957943960389258" lon="-5.989672901481698"><ele>1313.0</ele><time>2026-05-05T10:48:54Z</time></trkpt><trkpt lat="30.957852437355047" lon="-5.989638052058522"><ele>1313.0</ele><time>2026-05-05T10:48:55Z</time></trkpt><trkpt lat="30.95775854949771" lon="-5.98957852077161"><ele>1313.0</ele><time>2026-05-05T10:48:56Z</time></trkpt><trkpt lat="30.9576664279516" lon="-5.989510081285927"><ele>1313.0</ele><time>2026-05-05T10:48:57Z</time></trkpt><trkpt lat="30.957569155318318" lon="-5.989448729235325"><ele>1312.2</ele><time>2026-05-05T10:48:58Z</time></trkpt><trkpt lat="30.957492917946492" lon="-5.98937277081968"><ele>1311.4</ele><time>2026-05-05T10:48:59Z</time></trkpt><trkpt lat="30.957442751272023" lon="-5.989267153099387"><ele>1310.6000000000001</ele><time>2026-05-05T10:49:00Z</time></trkpt><trkpt lat="30.95740671603575" lon="-5.989161908069577"><ele>1309.8000000000002</ele><time>2026-05-05T10:49:01Z</time></trkpt><trkpt lat="30.957390089733018" lon="-5.989046054628138"><ele>1309.0</ele><time>2026-05-05T10:49:02Z</time></trkpt><trkpt lat="30.957387435526524" lon="-5.988920951637674"><ele>1312.0</ele><time>2026-05-05T10:49:03Z</time></trkpt><trkpt lat="30.957399745998533" lon="-5.988787128658423"><ele>1315.0</ele><time>2026-05-05T10:49:04Z</time></trkpt><trkpt lat="30.957425695646076" lon="-5.988645564786167"><ele>1318.0</ele><time>2026-05-05T10:49:05Z</time></trkpt><trkpt lat="30.957466976592137" lon="-5.988514515134551"><ele>1321.0</ele><time>2026-05-05T10:49:06Z</time></trkpt><trkpt lat="30.957512284603524" lon="-5.988391578280257"><ele>1326.0</ele><time>2026-05-05T10:49:07Z</time></trkpt><trkpt lat="30.957552176063395" lon="-5.988279007831575"><ele>1331.0</ele><time>2026-05-05T10:49:08Z</time></trkpt><trkpt lat="30.95756891211137" lon="-5.988182705536876"><ele>1336.0</ele><time>2026-05-05T10:49:09Z</time></trkpt><trkpt lat="30.957591806807383" lon="-5.988074324189227"><ele>1341.0</ele><time>2026-05-05T10:49:10Z</time></trkpt><trkpt lat="30.95761239507544" lon="-5.987969438158488"><ele>1346.0</ele><time>2026-05-05T10:49:11Z</time></trkpt><trkpt lat="30.957630968136485" lon="-5.98786798369941"><ele>1346.0</ele><time>2026-05-05T10:49:12Z</time></trkpt><trkpt lat="30.95766235136577" lon="-5.987756608945822"><ele>1346.0</ele><time>2026-05-05T10:49:13Z</time></trkpt><trkpt lat="30.957702898281244" lon="-5.987657146250257"><ele>1346.0</ele><time>2026-05-05T10:49:14Z</time></trkpt><trkpt lat="30.957753256441464" lon="-5.9875510073198654"><ele>1346.0</ele><time>2026-05-05T10:49:15Z</time></trkpt><trkpt lat="30.95781241472423" lon="-5.9874405133293465"><ele>1346.0</ele><time>2026-05-05T10:49:16Z</time></trkpt><trkpt lat="30.957876045931922" lon="-5.987322929827335"><ele>1342.0</ele><time>2026-05-05T10:49:17Z</time></trkpt><trkpt lat="30.9579460261812" lon="-5.98720246552507"><ele>1338.0</ele><time>2026-05-05T10:49:18Z</time></trkpt><trkpt lat="30.958017976496272" lon="-5.9870851869813855"><ele>1334.0</ele><time>2026-05-05T10:49:19Z</time></trkpt><trkpt lat="30.95808900727023" lon="-5.986969474335165"><ele>1330.0</ele><time>2026-05-05T10:49:20Z</time></trkpt><trkpt lat="30.958155447206025" lon="-5.986861240230662"><ele>1330.0</ele><time>2026-05-05T10:49:21Z</time></trkpt><trkpt lat="30.958209256862293" lon="-5.986761375875577"><ele>1330.0</ele><time>2026-05-05T10:49:22Z</time></trkpt><trkpt lat="30.95826320642387" lon="-5.986658853617257"><ele>1330.0</ele><time>2026-05-05T10:49:23Z</time></trkpt><trkpt lat="30.95831759631981" lon="-5.98655413906697"><ele>1330.0</ele><time>2026-05-05T10:49:24Z</time></trkpt><trkpt lat="30.95838005479077" lon="-5.9864646153280505"><ele>1330.0</ele><time>2026-05-05T10:49:25Z</time></trkpt><trkpt lat="30.95843292652883" lon="-5.9863954772871155"><ele>1329.0</ele><time>2026-05-05T10:49:26Z</time></trkpt><trkpt lat="30.95852031824894" lon="-5.98634595091533"><ele>1328.0</ele><time>2026-05-05T10:49:27Z</time></trkpt><trkpt lat="30.95862999624734" lon="-5.9863348869352055"><ele>1327.0</ele><time>2026-05-05T10:49:28Z</time></trkpt><trkpt lat="30.95873145127337" lon="-5.986353945162541"><ele>1326.0</ele><time>2026-05-05T10:49:29Z</time></trkpt><trkpt lat="30.958837671595088" lon="-5.98635836573181"><ele>1325.0</ele><time>2026-05-05T10:49:30Z</time></trkpt><trkpt lat="30.958931693076654" lon="-5.986345180588661"><ele>1325.0</ele><time>2026-05-05T10:49:31Z</time></trkpt><trkpt lat="30.959018036197744" lon="-5.986318616491621"><ele>1325.0</ele><time>2026-05-05T10:49:32Z</time></trkpt><trkpt lat="30.959106234848907" lon="-5.986285244078692"><ele>1325.0</ele><time>2026-05-05T10:49:33Z</time></trkpt><trkpt lat="30.959206634207664" lon="-5.9862470942727555"><ele>1325.0</ele><time>2026-05-05T10:49:34Z</time></trkpt><trkpt lat="30.959297380161154" lon="-5.98621249681577"><ele>1325.0</ele><time>2026-05-05T10:49:35Z</time></trkpt><trkpt lat="30.95937857922274" lon="-5.986170254546295"><ele>1324.2857142857144</ele><time>2026-05-05T10:49:36Z</time></trkpt><trkpt lat="30.9594273908219" lon="-5.986115108800249"><ele>1323.5714285714284</ele><time>2026-05-05T10:49:37Z</time></trkpt><trkpt lat="30.95948906629213" lon="-5.986063125278241"><ele>1322.857142857143</ele><time>2026-05-05T10:49:38Z</time></trkpt><trkpt lat="30.959521140021096" lon="-5.985995597017204"><ele>1322.1428571428573</ele><time>2026-05-05T10:49:39Z</time></trkpt><trkpt lat="30.959552699163904" lon="-5.985917307014383"><ele>1321.4285714285716</ele><time>2026-05-05T10:49:40Z</time></trkpt><trkpt lat="30.959570401363166" lon="-5.985827235833859"><ele>1320.7142857142858</ele><time>2026-05-05T10:49:41Z</time></trkpt><trkpt lat="30.95957217854605" lon="-5.985737813959841"><ele>1320.0</ele><time>2026-05-05T10:49:42Z</time></trkpt><trkpt lat="30.95956958166532" lon="-5.9856342869814645"><ele>1318.0</ele><time>2026-05-05T10:49:43Z</time></trkpt><trkpt lat="30.959555808962705" lon="-5.985516706970949"><ele>1316.0</ele><time>2026-05-05T10:49:44Z</time></trkpt><trkpt lat="30.95957921072058" lon="-5.985347750170342"><ele>1314.0</ele><time>2026-05-05T10:49:45Z</time></trkpt><trkpt lat="30.959549166486077" lon="-5.985205003415856"><ele>1312.0</ele><time>2026-05-05T10:49:46Z</time></trkpt><trkpt lat="30.959512003341324" lon="-5.985092317875258"><ele>1312.8</ele><time>2026-05-05T10:49:47Z</time></trkpt><trkpt lat="30.959480257560593" lon="-5.984993003103343"><ele>1313.6</ele><time>2026-05-05T10:49:48Z</time></trkpt><trkpt lat="30.95943810979773" lon="-5.984910336944822"><ele>1314.3999999999999</ele><time>2026-05-05T10:49:49Z</time></trkpt><trkpt lat="30.959450760836386" lon="-5.9848039258602395"><ele>1315.1999999999998</ele><time>2026-05-05T10:49:50Z</time></trkpt><trkpt lat="30.95951229434397" lon="-5.984693507159636"><ele>1316.0</ele><time>2026-05-05T10:49:51Z</time></trkpt><trkpt lat="30.959580162060664" lon="-5.984587225088395"><ele>1316.0</ele><time>2026-05-05T10:49:52Z</time></trkpt><trkpt lat="30.95964861883055" lon="-5.984466231629218"><ele>1316.0</ele><time>2026-05-05T10:49:53Z</time></trkpt><trkpt lat="30.959708141601748" lon="-5.984354304319007"><ele>1316.0</ele><time>2026-05-05T10:49:54Z</time></trkpt><trkpt lat="30.959736978537343" lon="-5.9842620993896585"><ele>1316.0</ele><time>2026-05-05T10:49:55Z</time></trkpt><trkpt lat="30.959769258741776" lon="-5.984172528411234"><ele>1316.0</ele><time>2026-05-05T10:49:56Z</time></trkpt><trkpt lat="30.959788601402508" lon="-5.984095031615149"><ele>1314.8333333333335</ele><time>2026-05-05T10:49:57Z</time></trkpt><trkpt lat="30.95980851513543" lon="-5.984004280199689"><ele>1313.6666666666667</ele><time>2026-05-05T10:49:58Z</time></trkpt><trkpt lat="30.95979512042413" lon="-5.983888281328876"><ele>1312.5</ele><time>2026-05-05T10:50:00Z</time></trkpt><trkpt lat="30.959741255925362" lon="-5.983803283484325"><ele>1311.3333333333333</ele><time>2026-05-05T10:50:02Z</time></trkpt><trkpt lat="30.959672029634586" lon="-5.983811352662326"><ele>1310.1666666666665</ele><time>2026-05-05T10:50:03Z</time></trkpt><trkpt lat="30.959608916723347" lon="-5.983847555455737"><ele>1309.0</ele><time>2026-05-05T10:50:04Z</time></trkpt><trkpt lat="30.959536869910316" lon="-5.983872124849595"><ele>1309.0</ele><time>2026-05-05T10:50:05Z</time></trkpt><trkpt lat="30.959436205453297" lon="-5.983893725357885"><ele>1309.0</ele><time>2026-05-05T10:50:06Z</time></trkpt><trkpt lat="30.9593392728101" lon="-5.983925208122607"><ele>1309.0</ele><time>2026-05-05T10:50:07Z</time></trkpt><trkpt lat="30.959253203307455" lon="-5.98394454075751"><ele>1309.0</ele><time>2026-05-05T10:50:08Z</time></trkpt><trkpt lat="30.959163629050945" lon="-5.983939575276133"><ele>1309.0</ele><time>2026-05-05T10:50:09Z</time></trkpt><trkpt lat="30.959070809992053" lon="-5.983905944699592"><ele>1307.75</ele><time>2026-05-05T10:50:10Z</time></trkpt><trkpt lat="30.95897319078998" lon="-5.9838534466637965"><ele>1306.5</ele><time>2026-05-05T10:50:11Z</time></trkpt><trkpt lat="30.958869940705988" lon="-5.9837994391668925"><ele>1305.25</ele><time>2026-05-05T10:50:12Z</time></trkpt><trkpt lat="30.958757152003624" lon="-5.983770936215028"><ele>1304.0</ele><time>2026-05-05T10:50:13Z</time></trkpt><trkpt lat="30.958634922166922" lon="-5.983767251976175"><ele>1304.0</ele><time>2026-05-05T10:50:14Z</time></trkpt><trkpt lat="30.958508704631512" lon="-5.983762658247464"><ele>1304.0</ele><time>2026-05-05T10:50:15Z</time></trkpt><trkpt lat="30.95838809898903" lon="-5.983751912039941"><ele>1304.0</ele><time>2026-05-05T10:50:16Z</time></trkpt><trkpt lat="30.958272290986958" lon="-5.983749129228629"><ele>1304.0</ele><time>2026-05-05T10:50:17Z</time></trkpt><trkpt lat="30.958165639834263" lon="-5.983750329259463"><ele>1303.5</ele><time>2026-05-05T10:50:18Z</time></trkpt><trkpt lat="30.958082319489" lon="-5.983744975969929"><ele>1303.0</ele><time>2026-05-05T10:50:19Z</time></trkpt><trkpt lat="30.958010490190873" lon="-5.983728006301117"><ele>1302.5</ele><time>2026-05-05T10:50:20Z</time></trkpt><trkpt lat="30.95794664696992" lon="-5.983691363376489"><ele>1302.0</ele><time>2026-05-05T10:50:21Z</time></trkpt><trkpt lat="30.95788300297697" lon="-5.983640275382618"><ele>1301.5</ele><time>2026-05-05T10:50:22Z</time></trkpt><trkpt lat="30.957822237981222" lon="-5.9835476299283386"><ele>1301.0</ele><time>2026-05-05T10:50:23Z</time></trkpt><trkpt lat="30.957790339774398" lon="-5.98344625494965"><ele>1301.0</ele><time>2026-05-05T10:50:24Z</time></trkpt><trkpt lat="30.957767133188014" lon="-5.983368041922519"><ele>1301.0</ele><time>2026-05-05T10:50:25Z</time></trkpt><trkpt lat="30.95772013138846" lon="-5.983277693262051"><ele>1301.0</ele><time>2026-05-05T10:50:27Z</time></trkpt><trkpt lat="30.957649038205275" lon="-5.983261627866562"><ele>1301.0</ele><time>2026-05-05T10:50:28Z</time></trkpt><trkpt lat="30.95756576637442" lon="-5.983318999470091"><ele>1301.0</ele><time>2026-05-05T10:50:29Z</time></trkpt><trkpt lat="30.95751239943627" lon="-5.983412275812822"><ele>1301.0</ele><time>2026-05-05T10:50:30Z</time></trkpt><trkpt lat="30.957412377512558" lon="-5.983474890456694"><ele>1300.4</ele><time>2026-05-05T10:50:31Z</time></trkpt><trkpt lat="30.957321853904805" lon="-5.983568802364357"><ele>1299.8</ele><time>2026-05-05T10:50:32Z</time></trkpt><trkpt lat="30.957220721163914" lon="-5.98362424365422"><ele>1299.2</ele><time>2026-05-05T10:50:33Z</time></trkpt><trkpt lat="30.957135951996047" lon="-5.98367525341204"><ele>1298.6000000000001</ele><time>2026-05-05T10:50:34Z</time></trkpt><trkpt lat="30.95705963631529" lon="-5.983738090506474"><ele>1298.0</ele><time>2026-05-05T10:50:35Z</time></trkpt><trkpt lat="30.956995735690956" lon="-5.983797197568074"><ele>1298.0</ele><time>2026-05-05T10:50:36Z</time></trkpt><trkpt lat="30.95688856450709" lon="-5.983820501390278"><ele>1298.0</ele><time>2026-05-05T10:50:38Z</time></trkpt><trkpt lat="30.95683482972237" lon="-5.983781613222558"><ele>1298.0</ele><time>2026-05-05T10:50:39Z</time></trkpt><trkpt lat="30.95677149099283" lon="-5.983739189245582"><ele>1298.0</ele><time>2026-05-05T10:50:40Z</time></trkpt><trkpt lat="30.956748790510172" lon="-5.983638181807851"><ele>1298.0</ele><time>2026-05-05T10:50:41Z</time></trkpt><trkpt lat="30.95670302964564" lon="-5.983551017604624"><ele>1298.0</ele><time>2026-05-05T10:50:42Z</time></trkpt><trkpt lat="30.956676957454427" lon="-5.983468030597211"><ele>1297.2</ele><time>2026-05-05T10:50:43Z</time></trkpt><trkpt lat="30.95661663483292" lon="-5.983390551244948"><ele>1296.4</ele><time>2026-05-05T10:50:45Z</time></trkpt><trkpt lat="30.956480864002756" lon="-5.983409235122253"><ele>1295.6000000000001</ele><time>2026-05-05T10:50:47Z</time></trkpt><trkpt lat="30.956401864008704" lon="-5.983452783436504"><ele>1294.8000000000002</ele><time>2026-05-05T10:50:48Z</time></trkpt><trkpt lat="30.956332111566258" lon="-5.983507579121045"><ele>1294.0</ele><time>2026-05-05T10:50:49Z</time></trkpt><trkpt lat="30.95625212825899" lon="-5.983520694020983"><ele>1294.0</ele><time>2026-05-05T10:50:50Z</time></trkpt><trkpt lat="30.9561701453358" lon="-5.983565329776586"><ele>1294.0</ele><time>2026-05-05T10:50:51Z</time></trkpt><trkpt lat="30.956093560422453" lon="-5.983564804777503"><ele>1294.0</ele><time>2026-05-05T10:50:52Z</time></trkpt><trkpt lat="30.956030719259164" lon="-5.983541500536255"><ele>1294.0</ele><time>2026-05-05T10:50:53Z</time></trkpt><trkpt lat="30.95597368244496" lon="-5.983491941087003"><ele>1294.0</ele><time>2026-05-05T10:50:54Z</time></trkpt><trkpt lat="30.95590140888545" lon="-5.983437614736539"><ele>1294.0</ele><time>2026-05-05T10:50:55Z</time></trkpt><trkpt lat="30.955858791155734" lon="-5.983332090075623"><ele>1295.4</ele><time>2026-05-05T10:50:56Z</time></trkpt><trkpt lat="30.955823240572165" lon="-5.983250433187406"><ele>1296.8000000000002</ele><time>2026-05-05T10:50:57Z</time></trkpt><trkpt lat="30.955765173910404" lon="-5.983149304750147"><ele>1298.1999999999998</ele><time>2026-05-05T10:50:59Z</time></trkpt><trkpt lat="30.955640879259057" lon="-5.983138310089304"><ele>1299.6</ele><time>2026-05-05T10:51:01Z</time></trkpt><trkpt lat="30.955575390889404" lon="-5.983180464307897"><ele>1301.0</ele><time>2026-05-05T10:51:02Z</time></trkpt><trkpt lat="30.955491812796687" lon="-5.983252513520992"><ele>1301.0</ele><time>2026-05-05T10:51:03Z</time></trkpt><trkpt lat="30.95540234644404" lon="-5.983318664327608"><ele>1301.0</ele><time>2026-05-05T10:51:04Z</time></trkpt><trkpt lat="30.955319826532918" lon="-5.983372146704468"><ele>1301.0</ele><time>2026-05-05T10:51:05Z</time></trkpt><trkpt lat="30.95523217038534" lon="-5.98342145060603"><ele>1301.0</ele><time>2026-05-05T10:51:06Z</time></trkpt><trkpt lat="30.955142937644496" lon="-5.983460547181445"><ele>1301.0</ele><time>2026-05-05T10:51:07Z</time></trkpt><trkpt lat="30.955059156984984" lon="-5.983508016042751"><ele>1298.4</ele><time>2026-05-05T10:51:08Z</time></trkpt><trkpt lat="30.95498909106918" lon="-5.983563414373646"><ele>1295.8</ele><time>2026-05-05T10:51:09Z</time></trkpt><trkpt lat="30.95489544361239" lon="-5.983590226367935"><ele>1293.2</ele><time>2026-05-05T10:51:10Z</time></trkpt><trkpt lat="30.954822058287256" lon="-5.983647584872444"><ele>1290.6000000000001</ele><time>2026-05-05T10:51:11Z</time></trkpt><trkpt lat="30.954733441383684" lon="-5.983680210850137"><ele>1288.0</ele><time>2026-05-05T10:51:12Z</time></trkpt><trkpt lat="30.954637498088893" lon="-5.98372045679612"><ele>1288.0</ele><time>2026-05-05T10:51:13Z</time></trkpt><trkpt lat="30.954538012026592" lon="-5.983765311068135"><ele>1288.0</ele><time>2026-05-05T10:51:14Z</time></trkpt><trkpt lat="30.954440893495736" lon="-5.983811557265508"><ele>1288.0</ele><time>2026-05-05T10:51:15Z</time></trkpt><trkpt lat="30.954347107361592" lon="-5.983855565191383"><ele>1288.0</ele><time>2026-05-05T10:51:16Z</time></trkpt><trkpt lat="30.95425386785496" lon="-5.983899206789265"><ele>1288.0</ele><time>2026-05-05T10:51:17Z</time></trkpt><trkpt lat="30.954165028312968" lon="-5.983939048283154"><ele>1286.8000000000002</ele><time>2026-05-05T10:51:18Z</time></trkpt><trkpt lat="30.954070796742034" lon="-5.983983005405962"><ele>1285.6</ele><time>2026-05-05T10:51:19Z</time></trkpt><trkpt lat="30.95398593600878" lon="-5.98401920530902"><ele>1284.4</ele><time>2026-05-05T10:51:20Z</time></trkpt><trkpt lat="30.95389430740611" lon="-5.984039742054908"><ele>1283.1999999999998</ele><time>2026-05-05T10:51:21Z</time></trkpt><trkpt lat="30.9538024613042" lon="-5.9840471377276865"><ele>1282.0</ele><time>2026-05-05T10:51:22Z</time></trkpt><trkpt lat="30.953713351147723" lon="-5.9840469025358605"><ele>1282.0</ele><time>2026-05-05T10:51:23Z</time></trkpt><trkpt lat="30.953623896920863" lon="-5.984037268749851"><ele>1282.0</ele><time>2026-05-05T10:51:24Z</time></trkpt><trkpt lat="30.953535116974056" lon="-5.984019750868269"><ele>1282.0</ele><time>2026-05-05T10:51:25Z</time></trkpt><trkpt lat="30.95344275499601" lon="-5.983987560635099"><ele>1282.0</ele><time>2026-05-05T10:51:26Z</time></trkpt><trkpt lat="30.953348414122605" lon="-5.983950502963378"><ele>1282.0</ele><time>2026-05-05T10:51:27Z</time></trkpt><trkpt lat="30.95324610335832" lon="-5.983906536159043"><ele>1280.5</ele><time>2026-05-05T10:51:28Z</time></trkpt><trkpt lat="30.953139826084655" lon="-5.983861256806006"><ele>1279.0</ele><time>2026-05-05T10:51:29Z</time></trkpt><trkpt lat="30.953027529388027" lon="-5.9838156874598765"><ele>1277.5</ele><time>2026-05-05T10:51:30Z</time></trkpt><trkpt lat="30.95291776781912" lon="-5.983749327560442"><ele>1276.0</ele><time>2026-05-05T10:51:31Z</time></trkpt><trkpt lat="30.952793765388012" lon="-5.983678496249112"><ele>1276.0</ele><time>2026-05-05T10:51:32Z</time></trkpt><trkpt lat="30.952671533560355" lon="-5.9836142734097555"><ele>1276.0</ele><time>2026-05-05T10:51:33Z</time></trkpt><trkpt lat="30.952553444112485" lon="-5.983557618287439"><ele>1276.0</ele><time>2026-05-05T10:51:34Z</time></trkpt><trkpt lat="30.95244911338" lon="-5.983498531543319"><ele>1276.0</ele><time>2026-05-05T10:51:35Z</time></trkpt><trkpt lat="30.95234505751944" lon="-5.983457254935224"><ele>1275.5</ele><time>2026-05-05T10:51:36Z</time></trkpt><trkpt lat="30.9522465038516" lon="-5.9833864585227134"><ele>1275.0</ele><time>2026-05-05T10:51:37Z</time></trkpt><trkpt lat="30.95215559474252" lon="-5.983276977719165"><ele>1274.5</ele><time>2026-05-05T10:51:38Z</time></trkpt><trkpt lat="30.952071412406223" lon="-5.983163887956811"><ele>1274.0</ele><time>2026-05-05T10:51:39Z</time></trkpt><trkpt lat="30.95198791961568" lon="-5.983051478709238"><ele>1274.0</ele><time>2026-05-05T10:51:40Z</time></trkpt><trkpt lat="30.95193029227014" lon="-5.98290935536355"><ele>1274.0</ele><time>2026-05-05T10:51:41Z</time></trkpt><trkpt lat="30.951865385752964" lon="-5.982776806314011"><ele>1274.0</ele><time>2026-05-05T10:51:42Z</time></trkpt><trkpt lat="30.951803999844486" lon="-5.982653259040673"><ele>1274.0</ele><time>2026-05-05T10:51:43Z</time></trkpt><trkpt lat="30.951745208740263" lon="-5.982547962526705"><ele>1273.6000000000001</ele><time>2026-05-05T10:51:44Z</time></trkpt><trkpt lat="30.951685407074297" lon="-5.982445825674123"><ele>1273.2</ele><time>2026-05-05T10:51:45Z</time></trkpt><trkpt lat="30.951626723342795" lon="-5.982344218554458"><ele>1272.8000000000002</ele><time>2026-05-05T10:51:46Z</time></trkpt><trkpt lat="30.951576158021474" lon="-5.98225449966226"><ele>1272.4</ele><time>2026-05-05T10:51:47Z</time></trkpt><trkpt lat="30.951525700174923" lon="-5.982180218042612"><ele>1272.0</ele><time>2026-05-05T10:51:48Z</time></trkpt><trkpt lat="30.95147686313127" lon="-5.98211056046523"><ele>1272.0</ele><time>2026-05-05T10:51:49Z</time></trkpt><trkpt lat="30.95143284972208" lon="-5.982027552819347"><ele>1272.0</ele><time>2026-05-05T10:51:50Z</time></trkpt><trkpt lat="30.951407906823018" lon="-5.981916656785358"><ele>1272.0</ele><time>2026-05-05T10:51:51Z</time></trkpt><trkpt lat="30.95138557348069" lon="-5.98181630082699"><ele>1272.0</ele><time>2026-05-05T10:51:52Z</time></trkpt><trkpt lat="30.95136267395205" lon="-5.981711991432487"><ele>1272.0</ele><time>2026-05-05T10:51:53Z</time></trkpt><trkpt lat="30.951314881240386" lon="-5.981633255106433"><ele>1272.0</ele><time>2026-05-05T10:51:54Z</time></trkpt><trkpt lat="30.951230875559578" lon="-5.98155087931888"><ele>1274.25</ele><time>2026-05-05T10:51:55Z</time></trkpt><trkpt lat="30.951151601854715" lon="-5.981443896532871"><ele>1276.5</ele><time>2026-05-05T10:51:56Z</time></trkpt><trkpt lat="30.9510886360212" lon="-5.981296797603554"><ele>1278.75</ele><time>2026-05-05T10:51:57Z</time></trkpt><trkpt lat="30.951023957955226" lon="-5.981156018034247"><ele>1281.0</ele><time>2026-05-05T10:51:58Z</time></trkpt><trkpt lat="30.950954761234392" lon="-5.981040772671883"><ele>1281.0</ele><time>2026-05-05T10:51:59Z</time></trkpt><trkpt lat="30.950889079971017" lon="-5.980940559424527"><ele>1281.0</ele><time>2026-05-05T10:52:00Z</time></trkpt><trkpt lat="30.950832580317353" lon="-5.9808540877953"><ele>1281.0</ele><time>2026-05-05T10:52:01Z</time></trkpt><trkpt lat="30.950778158343866" lon="-5.980770728229198"><ele>1281.0</ele><time>2026-05-05T10:52:02Z</time></trkpt><trkpt lat="30.950721594147442" lon="-5.98068408725359"><ele>1281.0</ele><time>2026-05-05T10:52:03Z</time></trkpt><trkpt lat="30.95066346987429" lon="-5.980627221598403"><ele>1280.6666666666667</ele><time>2026-05-05T10:52:04Z</time></trkpt><trkpt lat="30.950582338733177" lon="-5.98059415779002"><ele>1280.3333333333333</ele><time>2026-05-05T10:52:05Z</time></trkpt><trkpt lat="30.950496229851236" lon="-5.980590050256231"><ele>1280.0</ele><time>2026-05-05T10:52:06Z</time></trkpt><trkpt lat="30.95042261244878" lon="-5.980570088448138"><ele>1279.6666666666665</ele><time>2026-05-05T10:52:07Z</time></trkpt><trkpt lat="30.95034572456415" lon="-5.980524709077917"><ele>1279.3333333333333</ele><time>2026-05-05T10:52:08Z</time></trkpt><trkpt lat="30.950244889344113" lon="-5.980481482840105"><ele>1279.0</ele><time>2026-05-05T10:52:09Z</time></trkpt><trkpt lat="30.950170424403733" lon="-5.980352731483689"><ele>1279.0</ele><time>2026-05-05T10:52:10Z</time></trkpt><trkpt lat="30.95008007438986" lon="-5.9802737417025265"><ele>1279.0</ele><time>2026-05-05T10:52:11Z</time></trkpt><trkpt lat="30.95001427298514" lon="-5.980182651645942"><ele>1279.0</ele><time>2026-05-05T10:52:12Z</time></trkpt><trkpt lat="30.949964979025683" lon="-5.980066096069511"><ele>1279.0</ele><time>2026-05-05T10:52:13Z</time></trkpt><trkpt lat="30.949920729683658" lon="-5.979949911343453"><ele>1279.0</ele><time>2026-05-05T10:52:14Z</time></trkpt><trkpt lat="30.94987617919741" lon="-5.979836128101639"><ele>1277.6000000000001</ele><time>2026-05-05T10:52:15Z</time></trkpt><trkpt lat="30.94981965002342" lon="-5.979728391127629"><ele>1276.2</ele><time>2026-05-05T10:52:16Z</time></trkpt><trkpt lat="30.94974757610776" lon="-5.97964263081555"><ele>1274.8000000000002</ele><time>2026-05-05T10:52:17Z</time></trkpt><trkpt lat="30.949670429063357" lon="-5.979566744185851"><ele>1273.4</ele><time>2026-05-05T10:52:18Z</time></trkpt><trkpt lat="30.949573297972798" lon="-5.979480322776035"><ele>1272.0</ele><time>2026-05-05T10:52:19Z</time></trkpt><trkpt lat="30.949490295802654" lon="-5.979406773198768"><ele>1272.0</ele><time>2026-05-05T10:52:20Z</time></trkpt><trkpt lat="30.949415896370667" lon="-5.9793563290786755"><ele>1272.0</ele><time>2026-05-05T10:52:21Z</time></trkpt><trkpt lat="30.94937411870335" lon="-5.979256349061118"><ele>1272.0</ele><time>2026-05-05T10:52:22Z</time></trkpt><trkpt lat="30.94934203494302" lon="-5.979138727540464"><ele>1272.0</ele><time>2026-05-05T10:52:23Z</time></trkpt><trkpt lat="30.949337931949337" lon="-5.9789804808444424"><ele>1272.0</ele><time>2026-05-05T10:52:24Z</time></trkpt><trkpt lat="30.949329680493047" lon="-5.978840995353003"><ele>1271.4</ele><time>2026-05-05T10:52:25Z</time></trkpt><trkpt lat="30.949301083991674" lon="-5.978723571496854"><ele>1270.8000000000002</ele><time>2026-05-05T10:52:26Z</time></trkpt><trkpt lat="30.949250989781618" lon="-5.978630672792311"><ele>1270.2</ele><time>2026-05-05T10:52:27Z</time></trkpt><trkpt lat="30.949194149630237" lon="-5.9785306388837"><ele>1269.6000000000001</ele><time>2026-05-05T10:52:28Z</time></trkpt><trkpt lat="30.94912730994557" lon="-5.9784192138462044"><ele>1269.0</ele><time>2026-05-05T10:52:29Z</time></trkpt><trkpt lat="30.949069551181257" lon="-5.978322933618384"><ele>1269.0</ele><time>2026-05-05T10:52:30Z</time></trkpt><trkpt lat="30.9490045968242" lon="-5.9782140929844285"><ele>1269.0</ele><time>2026-05-05T10:52:31Z</time></trkpt><trkpt lat="30.948917842420695" lon="-5.978147474019379"><ele>1269.0</ele><time>2026-05-05T10:52:32Z</time></trkpt><trkpt lat="30.948835212588538" lon="-5.978080218983676"><ele>1269.0</ele><time>2026-05-05T10:52:33Z</time></trkpt><trkpt lat="30.948762102881293" lon="-5.97800148432731"><ele>1269.0</ele><time>2026-05-05T10:52:34Z</time></trkpt><trkpt lat="30.94867810452917" lon="-5.978008770779486"><ele>1269.0</ele><time>2026-05-05T10:52:35Z</time></trkpt><trkpt lat="30.948613530156415" lon="-5.977949390746999"><ele>1269.0</ele><time>2026-05-05T10:52:36Z</time></trkpt><trkpt lat="30.948542968521522" lon="-5.977902114593843"><ele>1269.0</ele><time>2026-05-05T10:52:37Z</time></trkpt><trkpt lat="30.94847899955669" lon="-5.977790059345348"><ele>1269.0</ele><time>2026-05-05T10:52:38Z</time></trkpt><trkpt lat="30.948440512358786" lon="-5.977678776197713"><ele>1269.0</ele><time>2026-05-05T10:52:39Z</time></trkpt><trkpt lat="30.948400035465518" lon="-5.977561838107887"><ele>1267.2</ele><time>2026-05-05T10:52:40Z</time></trkpt><trkpt lat="30.948365665842726" lon="-5.977474986989023"><ele>1265.4</ele><time>2026-05-05T10:52:41Z</time></trkpt><trkpt lat="30.94831272734436" lon="-5.97738147470939"><ele>1263.6</ele><time>2026-05-05T10:52:42Z</time></trkpt><trkpt lat="30.948217733635534" lon="-5.977332636694362"><ele>1261.8</ele><time>2026-05-05T10:52:43Z</time></trkpt><trkpt lat="30.948136201241685" lon="-5.97726425955505"><ele>1260.0</ele><time>2026-05-05T10:52:44Z</time></trkpt><trkpt lat="30.94805779030523" lon="-5.977199945912297"><ele>1260.0</ele><time>2026-05-05T10:52:45Z</time></trkpt><trkpt lat="30.947974535639503" lon="-5.977134718100304"><ele>1260.0</ele><time>2026-05-05T10:52:46Z</time></trkpt><trkpt lat="30.94789792396216" lon="-5.977098525666612"><ele>1260.0</ele><time>2026-05-05T10:52:47Z</time></trkpt><trkpt lat="30.94781592752293" lon="-5.977062167939885"><ele>1260.0</ele><time>2026-05-05T10:52:48Z</time></trkpt><trkpt lat="30.94774265597668" lon="-5.977043629603982"><ele>1260.0</ele><time>2026-05-05T10:52:49Z</time></trkpt><trkpt lat="30.947625755763312" lon="-5.97700662748256"><ele>1260.0</ele><time>2026-05-05T10:52:51Z</time></trkpt><trkpt lat="30.947565505707512" lon="-5.9769138279507965"><ele>1260.0</ele><time>2026-05-05T10:52:52Z</time></trkpt><trkpt lat="30.947506289863973" lon="-5.976824238894642"><ele>1260.0</ele><time>2026-05-05T10:52:53Z</time></trkpt><trkpt lat="30.947437273362535" lon="-5.976721951065532"><ele>1260.0</ele><time>2026-05-05T10:52:54Z</time></trkpt><trkpt lat="30.94735839910718" lon="-5.976630566032683"><ele>1260.0</ele><time>2026-05-05T10:52:55Z</time></trkpt><trkpt lat="30.947282559727213" lon="-5.976538804050608"><ele>1258.6</ele><time>2026-05-05T10:52:56Z</time></trkpt><trkpt lat="30.947208178205326" lon="-5.976464979781036"><ele>1257.2</ele><time>2026-05-05T10:52:57Z</time></trkpt><trkpt lat="30.947125937034567" lon="-5.976392897855493"><ele>1255.8</ele><time>2026-05-05T10:52:58Z</time></trkpt><trkpt lat="30.947045958547566" lon="-5.976323278354707"><ele>1254.4</ele><time>2026-05-05T10:52:59Z</time></trkpt><trkpt lat="30.94697533837954" lon="-5.976261975474158"><ele>1253.0</ele><time>2026-05-05T10:53:00Z</time></trkpt><trkpt lat="30.946913394460793" lon="-5.97620820367445"><ele>1253.0</ele><time>2026-05-05T10:53:01Z</time></trkpt><trkpt lat="30.946861448770065" lon="-5.976138054554919"><ele>1253.0</ele><time>2026-05-05T10:53:02Z</time></trkpt><trkpt lat="30.94680463481656" lon="-5.976054494409511"><ele>1253.0</ele><time>2026-05-05T10:53:03Z</time></trkpt><trkpt lat="30.946732724882054" lon="-5.97595267370332"><ele>1253.0</ele><time>2026-05-05T10:53:04Z</time></trkpt><trkpt lat="30.94665352625742" lon="-5.975841813191013"><ele>1253.0</ele><time>2026-05-05T10:53:05Z</time></trkpt><trkpt lat="30.946575628094283" lon="-5.975737179118226"><ele>1250.25</ele><time>2026-05-05T10:53:06Z</time></trkpt><trkpt lat="30.946503994489607" lon="-5.975640959429508"><ele>1247.5</ele><time>2026-05-05T10:53:07Z</time></trkpt><trkpt lat="30.946429623714046" lon="-5.975555571140755"><ele>1244.75</ele><time>2026-05-05T10:53:08Z</time></trkpt><trkpt lat="30.9463306896503" lon="-5.975486601393343"><ele>1242.0</ele><time>2026-05-05T10:53:09Z</time></trkpt><trkpt lat="30.9462212532615" lon="-5.975405281787953"><ele>1242.0</ele><time>2026-05-05T10:53:10Z</time></trkpt><trkpt lat="30.946117257109396" lon="-5.975322826761846"><ele>1242.0</ele><time>2026-05-05T10:53:11Z</time></trkpt><trkpt lat="30.94601964702912" lon="-5.975245653592041"><ele>1242.0</ele><time>2026-05-05T10:53:12Z</time></trkpt><trkpt lat="30.945933241634634" lon="-5.97516811687196"><ele>1242.0</ele><time>2026-05-05T10:53:13Z</time></trkpt><trkpt lat="30.945852926039368" lon="-5.9750899358701774"><ele>1241.5</ele><time>2026-05-05T10:53:14Z</time></trkpt><trkpt lat="30.94577794683743" lon="-5.975016965923745"><ele>1241.0</ele><time>2026-05-05T10:53:15Z</time></trkpt><trkpt lat="30.945702116370093" lon="-5.9749245802371815"><ele>1240.5</ele><time>2026-05-05T10:53:16Z</time></trkpt><trkpt lat="30.945641800520548" lon="-5.974810337134661"><ele>1240.0</ele><time>2026-05-05T10:53:17Z</time></trkpt><trkpt lat="30.945591985821444" lon="-5.97466881055043"><ele>1240.0</ele><time>2026-05-05T10:53:18Z</time></trkpt><trkpt lat="30.945548170878176" lon="-5.974525933904161"><ele>1240.0</ele><time>2026-05-05T10:53:19Z</time></trkpt><trkpt lat="30.945499950128056" lon="-5.974380560728428"><ele>1240.0</ele><time>2026-05-05T10:53:20Z</time></trkpt><trkpt lat="30.94544720622485" lon="-5.9742394977526505"><ele>1240.0</ele><time>2026-05-05T10:53:21Z</time></trkpt><trkpt lat="30.94539441052141" lon="-5.974098296035251"><ele>1240.5</ele><time>2026-05-05T10:53:22Z</time></trkpt><trkpt lat="30.945365154082566" lon="-5.97393425447232"><ele>1241.0</ele><time>2026-05-05T10:53:23Z</time></trkpt><trkpt lat="30.94535752059718" lon="-5.973768850236026"><ele>1241.5</ele><time>2026-05-05T10:53:24Z</time></trkpt><trkpt lat="30.945344686204272" lon="-5.973610466427087"><ele>1242.0</ele><time>2026-05-05T10:53:25Z</time></trkpt><trkpt lat="30.945319754238962" lon="-5.973465455699436"><ele>1243.25</ele><time>2026-05-05T10:53:26Z</time></trkpt><trkpt lat="30.945289598779148" lon="-5.973334893318287"><ele>1244.5</ele><time>2026-05-05T10:53:27Z</time></trkpt><trkpt lat="30.94525451261465" lon="-5.973204559230069"><ele>1245.75</ele><time>2026-05-05T10:53:28Z</time></trkpt><trkpt lat="30.945217020968155" lon="-5.973065928225479"><ele>1247.0</ele><time>2026-05-05T10:53:29Z</time></trkpt><trkpt lat="30.945175552705248" lon="-5.97292395142507"><ele>1247.0</ele><time>2026-05-05T10:53:30Z</time></trkpt><trkpt lat="30.945131524746103" lon="-5.972783164720623"><ele>1247.0</ele><time>2026-05-05T10:53:31Z</time></trkpt><trkpt lat="30.945089717869887" lon="-5.972647220220705"><ele>1247.0</ele><time>2026-05-05T10:53:32Z</time></trkpt><trkpt lat="30.94504921491743" lon="-5.972530027659381"><ele>1247.0</ele><time>2026-05-05T10:53:33Z</time></trkpt><trkpt lat="30.94499803435249" lon="-5.9724089385152705"><ele>1243.8</ele><time>2026-05-05T10:53:34Z</time></trkpt><trkpt lat="30.94494583816683" lon="-5.972287191950697"><ele>1240.6</ele><time>2026-05-05T10:53:35Z</time></trkpt><trkpt lat="30.944892010606484" lon="-5.972178545061554"><ele>1237.3999999999999</ele><time>2026-05-05T10:53:36Z</time></trkpt><trkpt lat="30.944835164410787" lon="-5.972072932805375"><ele>1234.2</ele><time>2026-05-05T10:53:37Z</time></trkpt><trkpt lat="30.944773646722293" lon="-5.9719614635687925"><ele>1231.0</ele><time>2026-05-05T10:53:38Z</time></trkpt><trkpt lat="30.94470486551271" lon="-5.9718520474699215"><ele>1231.0</ele><time>2026-05-05T10:53:39Z</time></trkpt><trkpt lat="30.94462865050396" lon="-5.971733591632927"><ele>1231.0</ele><time>2026-05-05T10:53:40Z</time></trkpt><trkpt lat="30.94455856747196" lon="-5.971624012738647"><ele>1231.0</ele><time>2026-05-05T10:53:41Z</time></trkpt><trkpt lat="30.944493614873913" lon="-5.971532088475147"><ele>1231.0</ele><time>2026-05-05T10:53:42Z</time></trkpt><trkpt lat="30.944430867820632" lon="-5.971436640968025"><ele>1232.0</ele><time>2026-05-05T10:53:43Z</time></trkpt><trkpt lat="30.944380798657214" lon="-5.971352648815779"><ele>1233.0</ele><time>2026-05-05T10:53:44Z</time></trkpt><trkpt lat="30.944333546053134" lon="-5.971267117082718"><ele>1234.0</ele><time>2026-05-05T10:53:45Z</time></trkpt><trkpt lat="30.944301186712725" lon="-5.971151861128148"><ele>1235.0</ele><time>2026-05-05T10:53:46Z</time></trkpt><trkpt lat="30.94427054336057" lon="-5.9710113296558704"><ele>1236.0</ele><time>2026-05-05T10:53:47Z</time></trkpt><trkpt lat="30.94423630913149" lon="-5.970921763952888"><ele>1233.75</ele><time>2026-05-05T10:53:48Z</time></trkpt><trkpt lat="30.94419122751612" lon="-5.970826809008564"><ele>1231.5</ele><time>2026-05-05T10:53:49Z</time></trkpt><trkpt lat="30.944136212034334" lon="-5.970711266324333"><ele>1229.25</ele><time>2026-05-05T10:53:50Z</time></trkpt><trkpt lat="30.9440654331536" lon="-5.9705651131407285"><ele>1227.0</ele><time>2026-05-05T10:53:51Z</time></trkpt><trkpt lat="30.943993569863295" lon="-5.970375094640755"><ele>1227.0</ele><time>2026-05-05T10:53:52Z</time></trkpt><trkpt lat="30.943931813199228" lon="-5.970187165922053"><ele>1227.0</ele><time>2026-05-05T10:53:53Z</time></trkpt><trkpt lat="30.94388109469076" lon="-5.970027787232081"><ele>1227.0</ele><time>2026-05-05T10:53:54Z</time></trkpt><trkpt lat="30.943836384340077" lon="-5.969887288760057"><ele>1227.0</ele><time>2026-05-05T10:53:55Z</time></trkpt><trkpt lat="30.94379183766305" lon="-5.969760102367193"><ele>1226.25</ele><time>2026-05-05T10:53:56Z</time></trkpt><trkpt lat="30.94373887346645" lon="-5.969626992783947"><ele>1225.5</ele><time>2026-05-05T10:53:57Z</time></trkpt><trkpt lat="30.94368308564737" lon="-5.969486787093598"><ele>1224.75</ele><time>2026-05-05T10:53:58Z</time></trkpt><trkpt lat="30.94362502996211" lon="-5.9693453183559875"><ele>1224.0</ele><time>2026-05-05T10:53:59Z</time></trkpt><trkpt lat="30.94356297448153" lon="-5.969197912050386"><ele>1224.25</ele><time>2026-05-05T10:54:00Z</time></trkpt><trkpt lat="30.943493750365057" lon="-5.969046894717197"><ele>1224.5</ele><time>2026-05-05T10:54:01Z</time></trkpt><trkpt lat="30.943426218373823" lon="-5.968899645487449"><ele>1224.75</ele><time>2026-05-05T10:54:02Z</time></trkpt><trkpt lat="30.943361498104483" lon="-5.968761216140869"><ele>1225.0</ele><time>2026-05-05T10:54:03Z</time></trkpt><trkpt lat="30.9432991194206" lon="-5.968636503553713"><ele>1225.0</ele><time>2026-05-05T10:54:04Z</time></trkpt><trkpt lat="30.943226031652358" lon="-5.968514660932985"><ele>1225.0</ele><time>2026-05-05T10:54:05Z</time></trkpt><trkpt lat="30.943127523063495" lon="-5.968423365519069"><ele>1225.0</ele><time>2026-05-05T10:54:06Z</time></trkpt><trkpt lat="30.943008995428116" lon="-5.9683191943903084"><ele>1225.0</ele><time>2026-05-05T10:54:07Z</time></trkpt><trkpt lat="30.94287510689298" lon="-5.96822512232778"><ele>1226.3333333333333</ele><time>2026-05-05T10:54:08Z</time></trkpt><trkpt lat="30.94272752482011" lon="-5.96812641944035"><ele>1227.6666666666667</ele><time>2026-05-05T10:54:09Z</time></trkpt><trkpt lat="30.942594941791118" lon="-5.968032688390805"><ele>1229.0</ele><time>2026-05-05T10:54:10Z</time></trkpt><trkpt lat="30.942482296924293" lon="-5.967937132839967"><ele>1229.0</ele><time>2026-05-05T10:54:11Z</time></trkpt><trkpt lat="30.942373014551382" lon="-5.96782775491907"><ele>1229.0</ele><time>2026-05-05T10:54:12Z</time></trkpt><trkpt lat="30.942266623604127" lon="-5.967709073169702"><ele>1229.0</ele><time>2026-05-05T10:54:13Z</time></trkpt><trkpt lat="30.942169780481063" lon="-5.9675952440502815"><ele>1229.0</ele><time>2026-05-05T10:54:14Z</time></trkpt><trkpt lat="30.94208437592969" lon="-5.9675024979300435"><ele>1226.8</ele><time>2026-05-05T10:54:15Z</time></trkpt><trkpt lat="30.94200646000159" lon="-5.967422660372839"><ele>1224.6000000000001</ele><time>2026-05-05T10:54:16Z</time></trkpt><trkpt lat="30.941935998217" lon="-5.967351019386692"><ele>1222.4</ele><time>2026-05-05T10:54:17Z</time></trkpt><trkpt lat="30.941897851325173" lon="-5.967240927862792"><ele>1220.2</ele><time>2026-05-05T10:54:18Z</time></trkpt><trkpt lat="30.941854480074113" lon="-5.967154984836924"><ele>1218.0</ele><time>2026-05-05T10:54:19Z</time></trkpt><trkpt lat="30.941844042265938" lon="-5.96705650617297"><ele>1218.0</ele><time>2026-05-05T10:54:20Z</time></trkpt><trkpt lat="30.941823452139833" lon="-5.966963242747027"><ele>1218.0</ele><time>2026-05-05T10:54:21Z</time></trkpt><trkpt lat="30.94178764286845" lon="-5.966873242056178"><ele>1218.0</ele><time>2026-05-05T10:54:22Z</time></trkpt><trkpt lat="30.94175850615205" lon="-5.966771502216449"><ele>1218.0</ele><time>2026-05-05T10:54:23Z</time></trkpt><trkpt lat="30.94170010886582" lon="-5.966703445636205"><ele>1218.0</ele><time>2026-05-05T10:54:24Z</time></trkpt><trkpt lat="30.94165039930444" lon="-5.966616967150432"><ele>1218.0</ele><time>2026-05-05T10:54:25Z</time></trkpt><trkpt lat="30.94159577583275" lon="-5.966524267299365"><ele>1219.6</ele><time>2026-05-05T10:54:26Z</time></trkpt><trkpt lat="30.941543641648153" lon="-5.96643709013933"><ele>1221.1999999999998</ele><time>2026-05-05T10:54:27Z</time></trkpt><trkpt lat="30.941489562253913" lon="-5.966350296819683"><ele>1222.8</ele><time>2026-05-05T10:54:28Z</time></trkpt><trkpt lat="30.941434992715152" lon="-5.9662518207802835"><ele>1224.3999999999999</ele><time>2026-05-05T10:54:29Z</time></trkpt><trkpt lat="30.941378913942447" lon="-5.966151337469593"><ele>1226.0</ele><time>2026-05-05T10:54:30Z</time></trkpt><trkpt lat="30.941322139369834" lon="-5.966040100438493"><ele>1226.0</ele><time>2026-05-05T10:54:31Z</time></trkpt><trkpt lat="30.9412664124747" lon="-5.9659184122858635"><ele>1226.0</ele><time>2026-05-05T10:54:32Z</time></trkpt><trkpt lat="30.941239731085513" lon="-5.965784361712095"><ele>1226.0</ele><time>2026-05-05T10:54:33Z</time></trkpt><trkpt lat="30.941208284748814" lon="-5.965646713244923"><ele>1226.0</ele><time>2026-05-05T10:54:34Z</time></trkpt><trkpt lat="30.941171865295676" lon="-5.965500637085577"><ele>1223.5</ele><time>2026-05-05T10:54:35Z</time></trkpt><trkpt lat="30.941134630601972" lon="-5.965352234504122"><ele>1221.0</ele><time>2026-05-05T10:54:36Z</time></trkpt><trkpt lat="30.941100557741176" lon="-5.965216433721173"><ele>1218.5</ele><time>2026-05-05T10:54:37Z</time></trkpt><trkpt lat="30.94110441565511" lon="-5.96506147677353"><ele>1216.0</ele><time>2026-05-05T10:54:38Z</time></trkpt><trkpt lat="30.941063915568204" lon="-5.964921723082192"><ele>1216.0</ele><time>2026-05-05T10:54:39Z</time></trkpt><trkpt lat="30.94101277861349" lon="-5.964788296153208"><ele>1216.0</ele><time>2026-05-05T10:54:40Z</time></trkpt><trkpt lat="30.940974168473357" lon="-5.96465448985018"><ele>1216.0</ele><time>2026-05-05T10:54:41Z</time></trkpt><trkpt lat="30.940950796635896" lon="-5.964525590735151"><ele>1216.0</ele><time>2026-05-05T10:54:42Z</time></trkpt><trkpt lat="30.94093719117863" lon="-5.964405268094074"><ele>1216.0</ele><time>2026-05-05T10:54:43Z</time></trkpt><trkpt lat="30.94093706421828" lon="-5.964301084194218"><ele>1216.0</ele><time>2026-05-05T10:54:44Z</time></trkpt><trkpt lat="30.94094757754818" lon="-5.9642060851828"><ele>1216.0</ele><time>2026-05-05T10:54:45Z</time></trkpt><trkpt lat="30.94096559866757" lon="-5.964113720711328"><ele>1216.0</ele><time>2026-05-05T10:54:46Z</time></trkpt><trkpt lat="30.940994154749095" lon="-5.964017158126445"><ele>1216.0</ele><time>2026-05-05T10:54:47Z</time></trkpt><trkpt lat="30.941024871044014" lon="-5.963909060099175"><ele>1216.0</ele><time>2026-05-05T10:54:48Z</time></trkpt><trkpt lat="30.94104889731301" lon="-5.96380045546101"><ele>1216.75</ele><time>2026-05-05T10:54:49Z</time></trkpt><trkpt lat="30.941041136443495" lon="-5.963694925827255"><ele>1217.5</ele><time>2026-05-05T10:54:50Z</time></trkpt><trkpt lat="30.941014651505697" lon="-5.963547669019268"><ele>1218.25</ele><time>2026-05-05T10:54:51Z</time></trkpt><trkpt lat="30.940983320770634" lon="-5.963400127052859"><ele>1219.0</ele><time>2026-05-05T10:54:52Z</time></trkpt><trkpt lat="30.940954181121754" lon="-5.963287524162898"><ele>1217.5</ele><time>2026-05-05T10:54:53Z</time></trkpt><trkpt lat="30.940906577914156" lon="-5.963205206892643"><ele>1216.0</ele><time>2026-05-05T10:54:54Z</time></trkpt><trkpt lat="30.94085489869077" lon="-5.963134135865526"><ele>1214.5</ele><time>2026-05-05T10:54:55Z</time></trkpt><trkpt lat="30.940805058924227" lon="-5.9630748719743405"><ele>1213.0</ele><time>2026-05-05T10:54:56Z</time></trkpt><trkpt lat="30.940728434791843" lon="-5.96297628638114"><ele>1211.5</ele><time>2026-05-05T10:54:58Z</time></trkpt><trkpt lat="30.94070424060069" lon="-5.962902398638492"><ele>1210.0</ele><time>2026-05-05T10:54:59Z</time></trkpt><trkpt lat="30.9406913518977" lon="-5.962827024367765"><ele>1210.0</ele><time>2026-05-05T10:55:00Z</time></trkpt><trkpt lat="30.940678810203202" lon="-5.962738309877582"><ele>1210.0</ele><time>2026-05-05T10:55:01Z</time></trkpt><trkpt lat="30.940662042016584" lon="-5.962648415002923"><ele>1210.0</ele><time>2026-05-05T10:55:02Z</time></trkpt><trkpt lat="30.940644962496396" lon="-5.962557334435288"><ele>1210.0</ele><time>2026-05-05T10:55:03Z</time></trkpt><trkpt lat="30.940621788526364" lon="-5.9624656153159"><ele>1210.0</ele><time>2026-05-05T10:55:04Z</time></trkpt><trkpt lat="30.940602089492728" lon="-5.962383313514541"><ele>1210.0</ele><time>2026-05-05T10:55:05Z</time></trkpt><trkpt lat="30.94058153235118" lon="-5.962289533993873"><ele>1210.6666666666665</ele><time>2026-05-05T10:55:06Z</time></trkpt><trkpt lat="30.940553919361776" lon="-5.962196837926618"><ele>1211.3333333333333</ele><time>2026-05-05T10:55:07Z</time></trkpt><trkpt lat="30.94052395519572" lon="-5.96209266174587"><ele>1212.0</ele><time>2026-05-05T10:55:08Z</time></trkpt><trkpt lat="30.940503228052386" lon="-5.96200706680315"><ele>1212.6666666666667</ele><time>2026-05-05T10:55:09Z</time></trkpt><trkpt lat="30.94047103770507" lon="-5.96192518859398"><ele>1213.3333333333335</ele><time>2026-05-05T10:55:10Z</time></trkpt><trkpt lat="30.940429613190098" lon="-5.961848921513872"><ele>1214.0</ele><time>2026-05-05T10:55:11Z</time></trkpt><trkpt lat="30.940395872919897" lon="-5.961768640982035"><ele>1214.6666666666667</ele><time>2026-05-05T10:55:12Z</time></trkpt><trkpt lat="30.94036994251885" lon="-5.961687998185955"><ele>1215.3333333333335</ele><time>2026-05-05T10:55:13Z</time></trkpt><trkpt lat="30.940314485493396" lon="-5.961596949484653"><ele>1216.0</ele><time>2026-05-05T10:55:15Z</time></trkpt><trkpt lat="30.940223115269553" lon="-5.961507816922172"><ele>1216.6666666666667</ele><time>2026-05-05T10:55:17Z</time></trkpt><trkpt lat="30.940177103241343" lon="-5.961446202806762"><ele>1217.3333333333333</ele><time>2026-05-05T10:55:18Z</time></trkpt><trkpt lat="30.940123470349018" lon="-5.961380811588888"><ele>1218.0</ele><time>2026-05-05T10:55:19Z</time></trkpt><trkpt lat="30.940070252871525" lon="-5.961318914549174"><ele>1215.6</ele><time>2026-05-05T10:55:20Z</time></trkpt><trkpt lat="30.940001495150025" lon="-5.961194075799467"><ele>1213.1999999999998</ele><time>2026-05-05T10:55:22Z</time></trkpt><trkpt lat="30.939927507441737" lon="-5.96107491182023"><ele>1210.8</ele><time>2026-05-05T10:55:24Z</time></trkpt><trkpt lat="30.93989427022192" lon="-5.961007582860878"><ele>1208.3999999999999</ele><time>2026-05-05T10:55:25Z</time></trkpt><trkpt lat="30.93986026260168" lon="-5.960939815090608"><ele>1206.0</ele><time>2026-05-05T10:55:26Z</time></trkpt><trkpt lat="30.93980099629295" lon="-5.960816771588758"><ele>1205.6666666666667</ele><time>2026-05-05T10:55:28Z</time></trkpt><trkpt lat="30.93976542875984" lon="-5.96074669452961"><ele>1205.3333333333333</ele><time>2026-05-05T10:55:29Z</time></trkpt><trkpt lat="30.939722832396455" lon="-5.960675980189127"><ele>1205.0</ele><time>2026-05-05T10:55:30Z</time></trkpt><trkpt lat="30.939679947822427" lon="-5.9605985965057915"><ele>1204.6666666666665</ele><time>2026-05-05T10:55:31Z</time></trkpt><trkpt lat="30.93964045540173" lon="-5.960520035084066"><ele>1204.3333333333333</ele><time>2026-05-05T10:55:32Z</time></trkpt><trkpt lat="30.939609078690932" lon="-5.960436556641994"><ele>1204.0</ele><time>2026-05-05T10:55:33Z</time></trkpt><trkpt lat="30.939582022166956" lon="-5.96034089919573"><ele>1204.0</ele><time>2026-05-05T10:55:34Z</time></trkpt><trkpt lat="30.939555270444515" lon="-5.960258307818267"><ele>1204.0</ele><time>2026-05-05T10:55:35Z</time></trkpt><trkpt lat="30.939522923681498" lon="-5.960180685260489"><ele>1204.0</ele><time>2026-05-05T10:55:36Z</time></trkpt><trkpt lat="30.939493897703564" lon="-5.960104679285804"><ele>1204.0</ele><time>2026-05-05T10:55:37Z</time></trkpt><trkpt lat="30.939469991893855" lon="-5.960031375133445"><ele>1204.0</ele><time>2026-05-05T10:55:38Z</time></trkpt><trkpt lat="30.939442671667145" lon="-5.959958055237481"><ele>1204.0</ele><time>2026-05-05T10:55:39Z</time></trkpt><trkpt lat="30.939420854793866" lon="-5.959877431898623"><ele>1204.0</ele><time>2026-05-05T10:55:40Z</time></trkpt><trkpt lat="30.93937198626199" lon="-5.959744135681623"><ele>1204.2857142857142</ele><time>2026-05-05T10:55:42Z</time></trkpt><trkpt lat="30.93935735278886" lon="-5.959665803449008"><ele>1204.5714285714284</ele><time>2026-05-05T10:55:43Z</time></trkpt><trkpt lat="30.939340884749203" lon="-5.9595780589490825"><ele>1204.857142857143</ele><time>2026-05-05T10:55:44Z</time></trkpt><trkpt lat="30.93933039958559" lon="-5.959494002638559"><ele>1205.142857142857</ele><time>2026-05-05T10:55:45Z</time></trkpt><trkpt lat="30.939316960156166" lon="-5.959414433616878"><ele>1205.4285714285713</ele><time>2026-05-05T10:55:46Z</time></trkpt><trkpt lat="30.939306574351193" lon="-5.959331647923564"><ele>1205.7142857142858</ele><time>2026-05-05T10:55:47Z</time></trkpt><trkpt lat="30.939295587920434" lon="-5.959242953442568"><ele>1206.0</ele><time>2026-05-05T10:55:48Z</time></trkpt><trkpt lat="30.939285259485928" lon="-5.959155838842208"><ele>1205.3333333333333</ele><time>2026-05-05T10:55:49Z</time></trkpt><trkpt lat="30.939269640877413" lon="-5.959063235456551"><ele>1204.6666666666667</ele><time>2026-05-05T10:55:50Z</time></trkpt><trkpt lat="30.939256463117502" lon="-5.958968805315751"><ele>1204.0</ele><time>2026-05-05T10:55:51Z</time></trkpt><trkpt lat="30.939236296446104" lon="-5.958875442964279"><ele>1203.3333333333335</ele><time>2026-05-05T10:55:52Z</time></trkpt><trkpt lat="30.939206715427176" lon="-5.958780795979976"><ele>1202.6666666666667</ele><time>2026-05-05T10:55:53Z</time></trkpt><trkpt lat="30.939165404792124" lon="-5.958685114455683"><ele>1202.0</ele><time>2026-05-05T10:55:54Z</time></trkpt><trkpt lat="30.93911465012726" lon="-5.958585529807971"><ele>1202.0</ele><time>2026-05-05T10:55:55Z</time></trkpt><trkpt lat="30.939052312944987" lon="-5.95847553497986"><ele>1202.0</ele><time>2026-05-05T10:55:56Z</time></trkpt><trkpt lat="30.93898462004886" lon="-5.958362533292645"><ele>1202.0</ele><time>2026-05-05T10:55:57Z</time></trkpt><trkpt lat="30.93891725601847" lon="-5.958254834117462"><ele>1202.0</ele><time>2026-05-05T10:55:58Z</time></trkpt><trkpt lat="30.93884768064005" lon="-5.958138268273514"><ele>1202.5</ele><time>2026-05-05T10:55:59Z</time></trkpt><trkpt lat="30.9387862963694" lon="-5.958018306071102"><ele>1203.0</ele><time>2026-05-05T10:56:00Z</time></trkpt><trkpt lat="30.938739984565547" lon="-5.957901234292697"><ele>1203.5</ele><time>2026-05-05T10:56:01Z</time></trkpt><trkpt lat="30.938697938119777" lon="-5.957769113878388"><ele>1204.0</ele><time>2026-05-05T10:56:02Z</time></trkpt><trkpt lat="30.938667252465514" lon="-5.957633776063348"><ele>1203.0</ele><time>2026-05-05T10:56:03Z</time></trkpt><trkpt lat="30.93864924752277" lon="-5.957496100872669"><ele>1202.0</ele><time>2026-05-05T10:56:04Z</time></trkpt><trkpt lat="30.93863773794375" lon="-5.957350068561547"><ele>1201.0</ele><time>2026-05-05T10:56:05Z</time></trkpt><trkpt lat="30.9386254359198" lon="-5.957201321849686"><ele>1200.0</ele><time>2026-05-05T10:56:06Z</time></trkpt><trkpt lat="30.938604345073255" lon="-5.957038387141294"><ele>1200.0</ele><time>2026-05-05T10:56:07Z</time></trkpt><trkpt lat="30.93858501884528" lon="-5.956881409789259"><ele>1200.0</ele><time>2026-05-05T10:56:08Z</time></trkpt><trkpt lat="30.93857685293059" lon="-5.956731842733221"><ele>1200.0</ele><time>2026-05-05T10:56:09Z</time></trkpt><trkpt lat="30.938579363465955" lon="-5.956588735966587"><ele>1200.0</ele><time>2026-05-05T10:56:10Z</time></trkpt><trkpt lat="30.93858548206382" lon="-5.9564437246425035"><ele>1200.25</ele><time>2026-05-05T10:56:11Z</time></trkpt><trkpt lat="30.938579284411276" lon="-5.956288178321754"><ele>1200.5</ele><time>2026-05-05T10:56:12Z</time></trkpt><trkpt lat="30.93855690654338" lon="-5.956135396380305"><ele>1200.75</ele><time>2026-05-05T10:56:13Z</time></trkpt><trkpt lat="30.938525606810117" lon="-5.955984798583042"><ele>1201.0</ele><time>2026-05-05T10:56:14Z</time></trkpt><trkpt lat="30.938511242900976" lon="-5.9558472196783505"><ele>1199.75</ele><time>2026-05-05T10:56:15Z</time></trkpt><trkpt lat="30.938517120009024" lon="-5.955697814220902"><ele>1198.5</ele><time>2026-05-05T10:56:16Z</time></trkpt><trkpt lat="30.938535446076585" lon="-5.955540564538147"><ele>1197.25</ele><time>2026-05-05T10:56:17Z</time></trkpt><trkpt lat="30.938563718143907" lon="-5.955385309654337"><ele>1196.0</ele><time>2026-05-05T10:56:18Z</time></trkpt><trkpt lat="30.93859649719361" lon="-5.955224935597329"><ele>1196.0</ele><time>2026-05-05T10:56:19Z</time></trkpt><trkpt lat="30.938607166870185" lon="-5.955048641995191"><ele>1196.0</ele><time>2026-05-05T10:56:20Z</time></trkpt><trkpt lat="30.93860680637781" lon="-5.9548762606792724"><ele>1196.0</ele><time>2026-05-05T10:56:21Z</time></trkpt><trkpt lat="30.938616934909597" lon="-5.9547147296949445"><ele>1196.0</ele><time>2026-05-05T10:56:22Z</time></trkpt><trkpt lat="30.93864976603873" lon="-5.95456601123141"><ele>1195.75</ele><time>2026-05-05T10:56:23Z</time></trkpt><trkpt lat="30.938691284298823" lon="-5.9544263312690955"><ele>1195.5</ele><time>2026-05-05T10:56:24Z</time></trkpt><trkpt lat="30.93872156540393" lon="-5.9542947639663435"><ele>1195.25</ele><time>2026-05-05T10:56:25Z</time></trkpt><trkpt lat="30.938747075444955" lon="-5.954160067509792"><ele>1195.0</ele><time>2026-05-05T10:56:26Z</time></trkpt><trkpt lat="30.93877462974946" lon="-5.954025682450288"><ele>1194.8</ele><time>2026-05-05T10:56:27Z</time></trkpt><trkpt lat="30.938801808658415" lon="-5.953901086967865"><ele>1194.6</ele><time>2026-05-05T10:56:28Z</time></trkpt><trkpt lat="30.9388310572924" lon="-5.953782218963995"><ele>1194.4</ele><time>2026-05-05T10:56:29Z</time></trkpt><trkpt lat="30.93885406430961" lon="-5.95365878916277"><ele>1194.2</ele><time>2026-05-05T10:56:30Z</time></trkpt><trkpt lat="30.938857431243864" lon="-5.9535281788797985"><ele>1194.0</ele><time>2026-05-05T10:56:31Z</time></trkpt><trkpt lat="30.93883567400889" lon="-5.953385691463616"><ele>1193.0</ele><time>2026-05-05T10:56:32Z</time></trkpt><trkpt lat="30.938798520336444" lon="-5.9532510994120855"><ele>1192.0</ele><time>2026-05-05T10:56:33Z</time></trkpt><trkpt lat="30.93876299083864" lon="-5.953132806487203"><ele>1191.0</ele><time>2026-05-05T10:56:34Z</time></trkpt><trkpt lat="30.938741046491266" lon="-5.953039068647979"><ele>1190.0</ele><time>2026-05-05T10:56:35Z</time></trkpt><trkpt lat="30.938727397308295" lon="-5.952953392730046"><ele>1189.0</ele><time>2026-05-05T10:56:36Z</time></trkpt><trkpt lat="30.93870868271952" lon="-5.952816202879299"><ele>1189.0</ele><time>2026-05-05T10:56:38Z</time></trkpt><trkpt lat="30.938700500263693" lon="-5.952684822176594"><ele>1189.0</ele><time>2026-05-05T10:56:40Z</time></trkpt><trkpt lat="30.938736263676212" lon="-5.9525554072376154"><ele>1189.0</ele><time>2026-05-05T10:56:42Z</time></trkpt><trkpt lat="30.938779544104612" lon="-5.952485035781619"><ele>1189.0</ele><time>2026-05-05T10:56:43Z</time></trkpt><trkpt lat="30.938826421283313" lon="-5.952399960140102"><ele>1189.0</ele><time>2026-05-05T10:56:44Z</time></trkpt><trkpt lat="30.938856230983646" lon="-5.95229784853595"><ele>1188.6000000000001</ele><time>2026-05-05T10:56:45Z</time></trkpt><trkpt lat="30.93887130879027" lon="-5.952187678765296"><ele>1188.2</ele><time>2026-05-05T10:56:46Z</time></trkpt><trkpt lat="30.938901914972718" lon="-5.952083149572894"><ele>1187.8000000000002</ele><time>2026-05-05T10:56:47Z</time></trkpt><trkpt lat="30.938947956062663" lon="-5.951976872882162"><ele>1187.4</ele><time>2026-05-05T10:56:48Z</time></trkpt><trkpt lat="30.938994821836946" lon="-5.95187585033226"><ele>1187.0</ele><time>2026-05-05T10:56:49Z</time></trkpt><trkpt lat="30.939040686374927" lon="-5.95177741459857"><ele>1186.8333333333335</ele><time>2026-05-05T10:56:50Z</time></trkpt><trkpt lat="30.939082310026265" lon="-5.951688441605138"><ele>1186.6666666666667</ele><time>2026-05-05T10:56:51Z</time></trkpt><trkpt lat="30.939115760968548" lon="-5.9516000489341065"><ele>1186.5</ele><time>2026-05-05T10:56:52Z</time></trkpt><trkpt lat="30.939135522520928" lon="-5.95149899625113"><ele>1186.3333333333333</ele><time>2026-05-05T10:56:53Z</time></trkpt><trkpt lat="30.939136886509214" lon="-5.951393542048254"><ele>1186.1666666666665</ele><time>2026-05-05T10:56:54Z</time></trkpt><trkpt lat="30.939121744360257" lon="-5.951291891403858"><ele>1186.0</ele><time>2026-05-05T10:56:55Z</time></trkpt><trkpt lat="30.939094530439572" lon="-5.95119441433706"><ele>1186.0</ele><time>2026-05-05T10:56:56Z</time></trkpt><trkpt lat="30.939059444732944" lon="-5.951098164102992"><ele>1186.0</ele><time>2026-05-05T10:56:57Z</time></trkpt><trkpt lat="30.939012532338708" lon="-5.951019105537782"><ele>1186.0</ele><time>2026-05-05T10:56:58Z</time></trkpt><trkpt lat="30.938967326674156" lon="-5.950944766642927"><ele>1186.0</ele><time>2026-05-05T10:56:59Z</time></trkpt><trkpt lat="30.938921921770092" lon="-5.950866810656363"><ele>1186.0</ele><time>2026-05-05T10:57:00Z</time></trkpt><trkpt lat="30.938869376553455" lon="-5.950790219075372"><ele>1186.0</ele><time>2026-05-05T10:57:01Z</time></trkpt><trkpt lat="30.938820641599715" lon="-5.950703014855196"><ele>1186.8</ele><time>2026-05-05T10:57:02Z</time></trkpt><trkpt lat="30.93877541740942" lon="-5.95060823943396"><ele>1187.6</ele><time>2026-05-05T10:57:03Z</time></trkpt><trkpt lat="30.93872759126139" lon="-5.950503670269614"><ele>1188.4</ele><time>2026-05-05T10:57:04Z</time></trkpt><trkpt lat="30.938666758533973" lon="-5.950398287450795"><ele>1189.2</ele><time>2026-05-05T10:57:05Z</time></trkpt><trkpt lat="30.93858984667459" lon="-5.950296818081866"><ele>1190.0</ele><time>2026-05-05T10:57:06Z</time></trkpt><trkpt lat="30.93850769645417" lon="-5.950197345133685"><ele>1190.0</ele><time>2026-05-05T10:57:07Z</time></trkpt><trkpt lat="30.93842790738561" lon="-5.950084114889033"><ele>1190.0</ele><time>2026-05-05T10:57:08Z</time></trkpt><trkpt lat="30.938359565503866" lon="-5.949959374468404"><ele>1190.0</ele><time>2026-05-05T10:57:09Z</time></trkpt><trkpt lat="30.93829165267709" lon="-5.949829230284618"><ele>1190.0</ele><time>2026-05-05T10:57:10Z</time></trkpt><trkpt lat="30.93821647705559" lon="-5.9497067663965835"><ele>1188.75</ele><time>2026-05-05T10:57:11Z</time></trkpt><trkpt lat="30.938139521481556" lon="-5.949584602868124"><ele>1187.5</ele><time>2026-05-05T10:57:12Z</time></trkpt><trkpt lat="30.938054136481036" lon="-5.949464702440442"><ele>1186.25</ele><time>2026-05-05T10:57:13Z</time></trkpt><trkpt lat="30.93795647509612" lon="-5.949341416906941"><ele>1185.0</ele><time>2026-05-05T10:57:14Z</time></trkpt><trkpt lat="30.93785753734824" lon="-5.949225074269786"><ele>1184.5</ele><time>2026-05-05T10:57:15Z</time></trkpt><trkpt lat="30.937767164340293" lon="-5.949103507051522"><ele>1184.0</ele><time>2026-05-05T10:57:16Z</time></trkpt><trkpt lat="30.93768262587318" lon="-5.948985662307349"><ele>1183.5</ele><time>2026-05-05T10:57:17Z</time></trkpt><trkpt lat="30.93759206420957" lon="-5.948879644641853"><ele>1183.0</ele><time>2026-05-05T10:57:18Z</time></trkpt><trkpt lat="30.937492721917103" lon="-5.94878721259407"><ele>1183.0</ele><time>2026-05-05T10:57:19Z</time></trkpt><trkpt lat="30.937387228488262" lon="-5.948706410773912"><ele>1183.0</ele><time>2026-05-05T10:57:20Z</time></trkpt><trkpt lat="30.93727417298825" lon="-5.9486237199905005"><ele>1183.0</ele><time>2026-05-05T10:57:21Z</time></trkpt><trkpt lat="30.937157722360208" lon="-5.9485417132192975"><ele>1183.0</ele><time>2026-05-05T10:57:22Z</time></trkpt><trkpt lat="30.937043690989743" lon="-5.9484560258867445"><ele>1182.25</ele><time>2026-05-05T10:57:23Z</time></trkpt><trkpt lat="30.936935918259177" lon="-5.948374179895827"><ele>1181.5</ele><time>2026-05-05T10:57:24Z</time></trkpt><trkpt lat="30.936830982453998" lon="-5.948293614394263"><ele>1180.75</ele><time>2026-05-05T10:57:25Z</time></trkpt><trkpt lat="30.93672443484584" lon="-5.948220464118143"><ele>1180.0</ele><time>2026-05-05T10:57:26Z</time></trkpt><trkpt lat="30.936616402111937" lon="-5.948147116694359"><ele>1180.0</ele><time>2026-05-05T10:57:27Z</time></trkpt><trkpt lat="30.93650902154233" lon="-5.948072627997621"><ele>1180.0</ele><time>2026-05-05T10:57:28Z</time></trkpt><trkpt lat="30.93639627069523" lon="-5.948007669819685"><ele>1180.0</ele><time>2026-05-05T10:57:29Z</time></trkpt><trkpt lat="30.93627487563327" lon="-5.9479469339324895"><ele>1180.0</ele><time>2026-05-05T10:57:30Z</time></trkpt><trkpt lat="30.93615906053467" lon="-5.947874993123485"><ele>1180.0</ele><time>2026-05-05T10:57:31Z</time></trkpt><trkpt lat="30.93605480229621" lon="-5.947791358036513"><ele>1180.0</ele><time>2026-05-05T10:57:32Z</time></trkpt><trkpt lat="30.93596131308073" lon="-5.947704901792306"><ele>1180.0</ele><time>2026-05-05T10:57:33Z</time></trkpt><trkpt lat="30.9358706829224" lon="-5.947622561668111"><ele>1180.0</ele><time>2026-05-05T10:57:34Z</time></trkpt><trkpt lat="30.935774394230304" lon="-5.9475387830976825"><ele>1180.5</ele><time>2026-05-05T10:57:35Z</time></trkpt><trkpt lat="30.93568819647007" lon="-5.947439490073942"><ele>1181.0</ele><time>2026-05-05T10:57:36Z</time></trkpt><trkpt lat="30.93560713324987" lon="-5.947330236033734"><ele>1181.5</ele><time>2026-05-05T10:57:37Z</time></trkpt><trkpt lat="30.93553110995342" lon="-5.947211163393521"><ele>1182.0</ele><time>2026-05-05T10:57:38Z</time></trkpt><trkpt lat="30.93545967157064" lon="-5.947093337974462"><ele>1182.0</ele><time>2026-05-05T10:57:39Z</time></trkpt><trkpt lat="30.935388721346072" lon="-5.9469598060222735"><ele>1182.0</ele><time>2026-05-05T10:57:40Z</time></trkpt><trkpt lat="30.93531406665181" lon="-5.946823435660965"><ele>1182.0</ele><time>2026-05-05T10:57:41Z</time></trkpt><trkpt lat="30.935233895653475" lon="-5.946685742334418"><ele>1182.0</ele><time>2026-05-05T10:57:42Z</time></trkpt><trkpt lat="30.935152019569827" lon="-5.9465499669879165"><ele>1181.0</ele><time>2026-05-05T10:57:43Z</time></trkpt><trkpt lat="30.935078793250927" lon="-5.9464239810359"><ele>1180.0</ele><time>2026-05-05T10:57:44Z</time></trkpt><trkpt lat="30.935012912276253" lon="-5.946301096534983"><ele>1179.0</ele><time>2026-05-05T10:57:45Z</time></trkpt><trkpt lat="30.934945124581883" lon="-5.946175592373685"><ele>1178.0</ele><time>2026-05-05T10:57:46Z</time></trkpt><trkpt lat="30.934873090708425" lon="-5.946044364051105"><ele>1178.0</ele><time>2026-05-05T10:57:47Z</time></trkpt><trkpt lat="30.934802598336546" lon="-5.945913088568626"><ele>1178.0</ele><time>2026-05-05T10:57:48Z</time></trkpt><trkpt lat="30.93474859609949" lon="-5.945782209258444"><ele>1178.0</ele><time>2026-05-05T10:57:49Z</time></trkpt><trkpt lat="30.934698967872652" lon="-5.945661164941714"><ele>1178.0</ele><time>2026-05-05T10:57:50Z</time></trkpt><trkpt lat="30.934647159698997" lon="-5.945545840207"><ele>1178.6</ele><time>2026-05-05T10:57:51Z</time></trkpt><trkpt lat="30.93459842110015" lon="-5.945436840395662"><ele>1179.1999999999998</ele><time>2026-05-05T10:57:52Z</time></trkpt><trkpt lat="30.93455881844368" lon="-5.9453288826001724"><ele>1179.8</ele><time>2026-05-05T10:57:53Z</time></trkpt><trkpt lat="30.934536116968612" lon="-5.945218721596089"><ele>1180.3999999999999</ele><time>2026-05-05T10:57:54Z</time></trkpt><trkpt lat="30.934539179090972" lon="-5.945096053803506"><ele>1181.0</ele><time>2026-05-05T10:57:55Z</time></trkpt><trkpt lat="30.934558541239955" lon="-5.944968349572453"><ele>1182.3999999999999</ele><time>2026-05-05T10:57:56Z</time></trkpt><trkpt lat="30.93458031335325" lon="-5.944856572257956"><ele>1183.8</ele><time>2026-05-05T10:57:57Z</time></trkpt><trkpt lat="30.934611657854802" lon="-5.9447544795517855"><ele>1185.1999999999998</ele><time>2026-05-05T10:57:58Z</time></trkpt><trkpt lat="30.93465445337208" lon="-5.944644666698034"><ele>1186.6</ele><time>2026-05-05T10:57:59Z</time></trkpt><trkpt lat="30.934687645232994" lon="-5.944517301940441"><ele>1188.0</ele><time>2026-05-05T10:58:00Z</time></trkpt><trkpt lat="30.934706414669133" lon="-5.944383543768127"><ele>1188.0</ele><time>2026-05-05T10:58:01Z</time></trkpt><trkpt lat="30.934716601814845" lon="-5.944253581437325"><ele>1188.0</ele><time>2026-05-05T10:58:02Z</time></trkpt><trkpt lat="30.934728122120617" lon="-5.9441207328092425"><ele>1188.0</ele><time>2026-05-05T10:58:03Z</time></trkpt><trkpt lat="30.934743119123272" lon="-5.943976510936289"><ele>1188.0</ele><time>2026-05-05T10:58:04Z</time></trkpt><trkpt lat="30.934766336377784" lon="-5.9438305299308745"><ele>1186.75</ele><time>2026-05-05T10:58:05Z</time></trkpt><trkpt lat="30.9347998762746" lon="-5.94368692978948"><ele>1185.5</ele><time>2026-05-05T10:58:06Z</time></trkpt><trkpt lat="30.93483915855749" lon="-5.94354899772297"><ele>1184.25</ele><time>2026-05-05T10:58:07Z</time></trkpt><trkpt lat="30.934879521650327" lon="-5.943414176005462"><ele>1183.0</ele><time>2026-05-05T10:58:08Z</time></trkpt><trkpt lat="30.934922279711884" lon="-5.943293707156795"><ele>1181.0</ele><time>2026-05-05T10:58:09Z</time></trkpt><trkpt lat="30.934963516537344" lon="-5.943180754974181"><ele>1179.0</ele><time>2026-05-05T10:58:10Z</time></trkpt><trkpt lat="30.93499484520013" lon="-5.9430538615929045"><ele>1177.0</ele><time>2026-05-05T10:58:11Z</time></trkpt><trkpt lat="30.9350086088404" lon="-5.942919538998363"><ele>1175.0</ele><time>2026-05-05T10:58:12Z</time></trkpt><trkpt lat="30.935020077431435" lon="-5.942772334229863"><ele>1175.0</ele><time>2026-05-05T10:58:13Z</time></trkpt><trkpt lat="30.93503329406144" lon="-5.942629261396622"><ele>1175.0</ele><time>2026-05-05T10:58:14Z</time></trkpt><trkpt lat="30.935049461261443" lon="-5.942483614397637"><ele>1175.0</ele><time>2026-05-05T10:58:15Z</time></trkpt><trkpt lat="30.935055892728396" lon="-5.942349242217308"><ele>1175.0</ele><time>2026-05-05T10:58:16Z</time></trkpt><trkpt lat="30.935060291818683" lon="-5.942219076026927"><ele>1174.25</ele><time>2026-05-05T10:58:17Z</time></trkpt><trkpt lat="30.935054812795514" lon="-5.942089515564898"><ele>1173.5</ele><time>2026-05-05T10:58:18Z</time></trkpt><trkpt lat="30.935042346539" lon="-5.941951708856455"><ele>1172.75</ele><time>2026-05-05T10:58:19Z</time></trkpt><trkpt lat="30.935019707277274" lon="-5.9418146478815155"><ele>1172.0</ele><time>2026-05-05T10:58:20Z</time></trkpt><trkpt lat="30.93499228924803" lon="-5.941668574733528"><ele>1171.75</ele><time>2026-05-05T10:58:21Z</time></trkpt><trkpt lat="30.934966399293376" lon="-5.941516348440338"><ele>1171.5</ele><time>2026-05-05T10:58:22Z</time></trkpt><trkpt lat="30.934954800550408" lon="-5.941370585561143"><ele>1171.25</ele><time>2026-05-05T10:58:23Z</time></trkpt><trkpt lat="30.934940916554947" lon="-5.941239445079484"><ele>1171.0</ele><time>2026-05-05T10:58:24Z</time></trkpt><trkpt lat="30.934910461480822" lon="-5.941129663580938"><ele>1171.0</ele><time>2026-05-05T10:58:25Z</time></trkpt><trkpt lat="30.93488053973541" lon="-5.941050774261321"><ele>1171.0</ele><time>2026-05-05T10:58:26Z</time></trkpt><trkpt lat="30.934848231382706" lon="-5.94093658276607"><ele>1171.0</ele><time>2026-05-05T10:58:28Z</time></trkpt><trkpt lat="30.934790326242826" lon="-5.940897538483141"><ele>1171.0</ele><time>2026-05-05T10:58:36Z</time></trkpt><trkpt lat="30.934741953240515" lon="-5.940815893278486"><ele>1171.0</ele><time>2026-05-05T10:59:19Z</time></trkpt><trkpt lat="30.93470997946243" lon="-5.940740767214362"><ele>1171.0</ele><time>2026-05-05T10:59:21Z</time></trkpt><trkpt lat="30.934688721033606" lon="-5.940636432139107"><ele>1174.0</ele><time>2026-05-05T10:59:22Z</time></trkpt><trkpt lat="30.934627370474455" lon="-5.940523140029943"><ele>1177.0</ele><time>2026-05-05T10:59:23Z</time></trkpt><trkpt lat="30.934553080325344" lon="-5.940389507710119"><ele>1180.0</ele><time>2026-05-05T10:59:24Z</time></trkpt><trkpt lat="30.934492878271836" lon="-5.94027481657988"><ele>1183.0</ele><time>2026-05-05T10:59:25Z</time></trkpt><trkpt lat="30.93441774936204" lon="-5.9401969565208175"><ele>1183.0</ele><time>2026-05-05T10:59:26Z</time></trkpt><trkpt lat="30.93435322050716" lon="-5.940113558615562"><ele>1183.0</ele><time>2026-05-05T10:59:27Z</time></trkpt><trkpt lat="30.934306764540597" lon="-5.940025987379487"><ele>1183.0</ele><time>2026-05-05T10:59:28Z</time></trkpt><trkpt lat="30.934210453615677" lon="-5.940003256604363"><ele>1183.0</ele><time>2026-05-05T10:59:29Z</time></trkpt><trkpt lat="30.934120052194345" lon="-5.9399470003176775"><ele>1183.0</ele><time>2026-05-05T10:59:30Z</time></trkpt><trkpt lat="30.934024708447186" lon="-5.939892854239106"><ele>1180.2</ele><time>2026-05-05T10:59:31Z</time></trkpt><trkpt lat="30.93393555585568" lon="-5.93987345657922"><ele>1177.4</ele><time>2026-05-05T10:59:32Z</time></trkpt><trkpt lat="30.93383832122523" lon="-5.939846378026498"><ele>1174.6000000000001</ele><time>2026-05-05T10:59:33Z</time></trkpt><trkpt lat="30.933731181117704" lon="-5.939805603264872"><ele>1171.8</ele><time>2026-05-05T10:59:34Z</time></trkpt><trkpt lat="30.93361876064864" lon="-5.939741511221321"><ele>1169.0</ele><time>2026-05-05T10:59:35Z</time></trkpt><trkpt lat="30.93351959098781" lon="-5.93967396557883"><ele>1169.0</ele><time>2026-05-05T10:59:36Z</time></trkpt><trkpt lat="30.933412548852083" lon="-5.939585793344546"><ele>1169.0</ele><time>2026-05-05T10:59:37Z</time></trkpt><trkpt lat="30.933304594541433" lon="-5.939482943771186"><ele>1169.0</ele><time>2026-05-05T10:59:38Z</time></trkpt><trkpt lat="30.933176622959728" lon="-5.9393797976535385"><ele>1169.0</ele><time>2026-05-05T10:59:39Z</time></trkpt><trkpt lat="30.93304880583818" lon="-5.939279545723582"><ele>1168.5</ele><time>2026-05-05T10:59:40Z</time></trkpt><trkpt lat="30.932919711693657" lon="-5.939180553020312"><ele>1168.0</ele><time>2026-05-05T10:59:41Z</time></trkpt><trkpt lat="30.93281162490437" lon="-5.939079498344572"><ele>1167.5</ele><time>2026-05-05T10:59:42Z</time></trkpt><trkpt lat="30.932705263410217" lon="-5.938981444508657"><ele>1167.0</ele><time>2026-05-05T10:59:43Z</time></trkpt><trkpt lat="30.932624587738992" lon="-5.938909146589463"><ele>1165.2</ele><time>2026-05-05T10:59:44Z</time></trkpt><trkpt lat="30.9325379317221" lon="-5.938843572542418"><ele>1163.4</ele><time>2026-05-05T10:59:45Z</time></trkpt><trkpt lat="30.9324600628832" lon="-5.938766629091528"><ele>1161.6</ele><time>2026-05-05T10:59:46Z</time></trkpt><trkpt lat="30.932374674626086" lon="-5.938695255842776"><ele>1159.8</ele><time>2026-05-05T10:59:47Z</time></trkpt><trkpt lat="30.932316504884497" lon="-5.938569256167581"><ele>1158.0</ele><time>2026-05-05T10:59:48Z</time></trkpt><trkpt lat="30.93223710041139" lon="-5.938470032776031"><ele>1159.0</ele><time>2026-05-05T10:59:49Z</time></trkpt><trkpt lat="30.932159308454867" lon="-5.938353839179222"><ele>1160.0</ele><time>2026-05-05T10:59:50Z</time></trkpt><trkpt lat="30.93208576170963" lon="-5.938246477769425"><ele>1161.0</ele><time>2026-05-05T10:59:51Z</time></trkpt><trkpt lat="30.932042225445667" lon="-5.938132928747562"><ele>1162.0</ele><time>2026-05-05T10:59:52Z</time></trkpt><trkpt lat="30.93200168785142" lon="-5.938034645939378"><ele>1163.0</ele><time>2026-05-05T10:59:53Z</time></trkpt><trkpt lat="30.932003128437156" lon="-5.937903009285695"><ele>1163.0</ele><time>2026-05-05T10:59:54Z</time></trkpt><trkpt lat="30.931982514179854" lon="-5.937775344439893"><ele>1163.0</ele><time>2026-05-05T10:59:55Z</time></trkpt><trkpt lat="30.931963151756747" lon="-5.937655631364849"><ele>1163.0</ele><time>2026-05-05T10:59:56Z</time></trkpt><trkpt lat="30.931953906949975" lon="-5.937541170463834"><ele>1163.0</ele><time>2026-05-05T10:59:57Z</time></trkpt><trkpt lat="30.93195310787562" lon="-5.937423130634699"><ele>1163.0</ele><time>2026-05-05T10:59:58Z</time></trkpt><trkpt lat="30.931932155660302" lon="-5.937297940588515"><ele>1163.6</ele><time>2026-05-05T10:59:59Z</time></trkpt><trkpt lat="30.931926916593895" lon="-5.937165223136103"><ele>1164.1999999999998</ele><time>2026-05-05T11:00:00Z</time></trkpt><trkpt lat="30.931926916594346" lon="-5.937042344546217"><ele>1164.8</ele><time>2026-05-05T11:00:01Z</time></trkpt><trkpt lat="30.931934402711033" lon="-5.936923850006517"><ele>1165.3999999999999</ele><time>2026-05-05T11:00:02Z</time></trkpt><trkpt lat="30.931949899297393" lon="-5.9368071662181"><ele>1166.0</ele><time>2026-05-05T11:00:03Z</time></trkpt><trkpt lat="30.931968785534607" lon="-5.936697969915529"><ele>1166.0</ele><time>2026-05-05T11:00:04Z</time></trkpt><trkpt lat="30.93198726681715" lon="-5.93659795357275"><ele>1166.0</ele><time>2026-05-05T11:00:05Z</time></trkpt><trkpt lat="30.932010304690202" lon="-5.936485642652653"><ele>1166.0</ele><time>2026-05-05T11:00:06Z</time></trkpt><trkpt lat="30.932040315905095" lon="-5.936364835522975"><ele>1166.0</ele><time>2026-05-05T11:00:07Z</time></trkpt><trkpt lat="30.93207603010575" lon="-5.936222825690499"><ele>1166.0</ele><time>2026-05-05T11:00:08Z</time></trkpt><trkpt lat="30.93212877550338" lon="-5.936066114173273"><ele>1166.0</ele><time>2026-05-05T11:00:09Z</time></trkpt><trkpt lat="30.932177819347384" lon="-5.935918577774239"><ele>1166.0</ele><time>2026-05-05T11:00:10Z</time></trkpt><trkpt lat="30.932227455721478" lon="-5.935768096728496"><ele>1166.0</ele><time>2026-05-05T11:00:11Z</time></trkpt><trkpt lat="30.932273191245674" lon="-5.935629610836173"><ele>1166.0</ele><time>2026-05-05T11:00:12Z</time></trkpt><trkpt lat="30.9323158811379" lon="-5.935498573258478"><ele>1166.0</ele><time>2026-05-05T11:00:13Z</time></trkpt><trkpt lat="30.932356802355997" lon="-5.935371715192542"><ele>1166.0</ele><time>2026-05-05T11:00:14Z</time></trkpt><trkpt lat="30.93239594161111" lon="-5.935250642183053"><ele>1166.0</ele><time>2026-05-05T11:00:15Z</time></trkpt><trkpt lat="30.932433535884595" lon="-5.9351343484122605"><ele>1166.0</ele><time>2026-05-05T11:00:16Z</time></trkpt><trkpt lat="30.932469913877505" lon="-5.935021817057873"><ele>1166.0</ele><time>2026-05-05T11:00:17Z</time></trkpt><trkpt lat="30.932503772932378" lon="-5.934917699341204"><ele>1164.5</ele><time>2026-05-05T11:00:18Z</time></trkpt><trkpt lat="30.932536515542196" lon="-5.9348165425516735"><ele>1163.0</ele><time>2026-05-05T11:00:19Z</time></trkpt><trkpt lat="30.93259788884093" lon="-5.934697324438089"><ele>1161.5</ele><time>2026-05-05T11:00:20Z</time></trkpt><trkpt lat="30.932714391315123" lon="-5.934666778498261"><ele>1160.0</ele><time>2026-05-05T11:00:21Z</time></trkpt><trkpt lat="30.932806278254585" lon="-5.934551628399007"><ele>1164.75</ele><time>2026-05-05T11:00:23Z</time></trkpt><trkpt lat="30.932746856880115" lon="-5.934438810282584"><ele>1169.5</ele><time>2026-05-05T11:00:24Z</time></trkpt><trkpt lat="30.932709769593504" lon="-5.934308393989866"><ele>1174.25</ele><time>2026-05-05T11:00:25Z</time></trkpt><trkpt lat="30.93266540112883" lon="-5.934159402130531"><ele>1179.0</ele><time>2026-05-05T11:00:26Z</time></trkpt><trkpt lat="30.93261656267145" lon="-5.933997957604014"><ele>1179.0</ele><time>2026-05-05T11:00:27Z</time></trkpt><trkpt lat="30.932566141573215" lon="-5.933830889394401"><ele>1179.0</ele><time>2026-05-05T11:00:28Z</time></trkpt><trkpt lat="30.932535250050986" lon="-5.933644006552303"><ele>1179.0</ele><time>2026-05-05T11:00:29Z</time></trkpt><trkpt lat="30.932526910801084" lon="-5.933446917478806"><ele>1179.0</ele><time>2026-05-05T11:00:30Z</time></trkpt><trkpt lat="30.932532730443164" lon="-5.9332472978759885"><ele>1179.0</ele><time>2026-05-05T11:00:31Z</time></trkpt><trkpt lat="30.932507362269885" lon="-5.933044587025098"><ele>1179.0</ele><time>2026-05-05T11:00:32Z</time></trkpt><trkpt lat="30.932561061082904" lon="-5.932835064171653"><ele>1173.3333333333333</ele><time>2026-05-05T11:00:33Z</time></trkpt><trkpt lat="30.932505603335727" lon="-5.932619827938653"><ele>1167.6666666666665</ele><time>2026-05-05T11:00:34Z</time></trkpt><trkpt lat="30.9324375122827" lon="-5.932449326351294"><ele>1162.0</ele><time>2026-05-05T11:00:35Z</time></trkpt><trkpt lat="30.932378883447356" lon="-5.932292266180503"><ele>1162.0</ele><time>2026-05-05T11:00:36Z</time></trkpt><trkpt lat="30.932315363564484" lon="-5.932137344688395"><ele>1162.0</ele><time>2026-05-05T11:00:37Z</time></trkpt><trkpt lat="30.932247915731782" lon="-5.93196837964392"><ele>1162.0</ele><time>2026-05-05T11:00:38Z</time></trkpt><trkpt lat="30.93219890282221" lon="-5.931791305955212"><ele>1162.6666666666665</ele><time>2026-05-05T11:00:39Z</time></trkpt><trkpt lat="30.93215954466596" lon="-5.931605823019816"><ele>1163.3333333333333</ele><time>2026-05-05T11:00:40Z</time></trkpt><trkpt lat="30.93213391509838" lon="-5.931431178774758"><ele>1164.0</ele><time>2026-05-05T11:00:41Z</time></trkpt><trkpt lat="30.93210849431592" lon="-5.931257414183422"><ele>1164.0</ele><time>2026-05-05T11:00:42Z</time></trkpt><trkpt lat="30.932083534656943" lon="-5.9310859239632325"><ele>1164.0</ele><time>2026-05-05T11:00:43Z</time></trkpt><trkpt lat="30.932058186460985" lon="-5.93091369335588"><ele>1164.0</ele><time>2026-05-05T11:00:44Z</time></trkpt><trkpt lat="30.932042947816075" lon="-5.930736211156085"><ele>1162.3333333333333</ele><time>2026-05-05T11:00:45Z</time></trkpt><trkpt lat="30.93202814016716" lon="-5.930563664807214"><ele>1160.6666666666665</ele><time>2026-05-05T11:00:46Z</time></trkpt><trkpt lat="30.931995884511814" lon="-5.930390761476656"><ele>1159.0</ele><time>2026-05-05T11:00:47Z</time></trkpt><trkpt lat="30.931982349363818" lon="-5.930198081622871"><ele>1158.0</ele><time>2026-05-05T11:00:48Z</time></trkpt><trkpt lat="30.931906018815546" lon="-5.929980958211999"><ele>1157.0</ele><time>2026-05-05T11:00:49Z</time></trkpt><trkpt lat="30.931756710872563" lon="-5.929831125920238"><ele>1156.0</ele><time>2026-05-05T11:00:50Z</time></trkpt><trkpt lat="30.931639354086467" lon="-5.92971667755617"><ele>1154.25</ele><time>2026-05-05T11:00:51Z</time></trkpt><trkpt lat="30.931526150971994" lon="-5.92960393186188"><ele>1152.5</ele><time>2026-05-05T11:00:52Z</time></trkpt><trkpt lat="30.931444201639128" lon="-5.929464387641711"><ele>1150.75</ele><time>2026-05-05T11:00:53Z</time></trkpt><trkpt lat="30.931353257365398" lon="-5.929334527051435"><ele>1149.0</ele><time>2026-05-05T11:00:54Z</time></trkpt><trkpt lat="30.931256757721165" lon="-5.929203352744584"><ele>1149.0</ele><time>2026-05-05T11:00:55Z</time></trkpt><trkpt lat="30.931159876920102" lon="-5.929071869504213"><ele>1149.0</ele><time>2026-05-05T11:00:56Z</time></trkpt><trkpt lat="30.93118253588477" lon="-5.928826624713694"><ele>1149.0</ele><time>2026-05-05T11:00:57Z</time></trkpt><trkpt lat="30.931135997478652" lon="-5.92866415369325"><ele>1149.0</ele><time>2026-05-05T11:00:58Z</time></trkpt><trkpt lat="30.93107942402215" lon="-5.92851577173594"><ele>1149.0</ele><time>2026-05-05T11:00:59Z</time></trkpt><trkpt lat="30.931015624076224" lon="-5.928381998003211"><ele>1149.0</ele><time>2026-05-05T11:01:00Z</time></trkpt><trkpt lat="30.930957917891227" lon="-5.928264856639366"><ele>1149.0</ele><time>2026-05-05T11:01:01Z</time></trkpt><trkpt lat="30.930982325467554" lon="-5.928106238059791"><ele>1146.4</ele><time>2026-05-05T11:01:02Z</time></trkpt><trkpt lat="30.930857812907096" lon="-5.928092947613898"><ele>1143.8000000000002</ele><time>2026-05-05T11:01:03Z</time></trkpt><trkpt lat="30.93080196133034" lon="-5.928031189353001"><ele>1141.1999999999998</ele><time>2026-05-05T11:01:04Z</time></trkpt><trkpt lat="30.930745311204245" lon="-5.92796964198035"><ele>1138.6</ele><time>2026-05-05T11:01:05Z</time></trkpt><trkpt lat="30.930637438098334" lon="-5.927883578124579"><ele>1136.0</ele><time>2026-05-05T11:01:07Z</time></trkpt><trkpt lat="30.930505585763637" lon="-5.927823236400386"><ele>1136.0</ele><time>2026-05-05T11:01:09Z</time></trkpt><trkpt lat="30.930436437089213" lon="-5.92780181460729"><ele>1136.0</ele><time>2026-05-05T11:01:10Z</time></trkpt><trkpt lat="30.930313901193962" lon="-5.927777914526632"><ele>1136.0</ele><time>2026-05-05T11:01:12Z</time></trkpt><trkpt lat="30.930237239348852" lon="-5.927743070037771"><ele>1136.0</ele><time>2026-05-05T11:01:13Z</time></trkpt><trkpt lat="30.93015991860397" lon="-5.927680921633564"><ele>1136.0</ele><time>2026-05-05T11:01:14Z</time></trkpt><trkpt lat="30.93007403107726" lon="-5.927637701410618"><ele>1136.0</ele><time>2026-05-05T11:01:15Z</time></trkpt><trkpt lat="30.92999278742892" lon="-5.927585169202106"><ele>1136.0</ele><time>2026-05-05T11:01:16Z</time></trkpt><trkpt lat="30.929898467359024" lon="-5.927523468884368"><ele>1136.0</ele><time>2026-05-05T11:01:17Z</time></trkpt><trkpt lat="30.929810380568433" lon="-5.927452961966784"><ele>1136.0</ele><time>2026-05-05T11:01:18Z</time></trkpt><trkpt lat="30.929713967259556" lon="-5.927402782238596"><ele>1136.0</ele><time>2026-05-05T11:01:19Z</time></trkpt><trkpt lat="30.929623306791697" lon="-5.927343469515366"><ele>1134.5</ele><time>2026-05-05T11:01:20Z</time></trkpt><trkpt lat="30.92961341162595" lon="-5.927131980018995"><ele>1133.0</ele><time>2026-05-05T11:01:21Z</time></trkpt><trkpt lat="30.92955917573646" lon="-5.92701461892696"><ele>1131.5</ele><time>2026-05-05T11:01:22Z</time></trkpt><trkpt lat="30.929507080778972" lon="-5.926900408758818"><ele>1130.0</ele><time>2026-05-05T11:01:23Z</time></trkpt><trkpt lat="30.929417537472844" lon="-5.926816552534291"><ele>1129.8</ele><time>2026-05-05T11:01:24Z</time></trkpt><trkpt lat="30.929367135412104" lon="-5.926724606935139"><ele>1129.6</ele><time>2026-05-05T11:01:25Z</time></trkpt><trkpt lat="30.929311385161345" lon="-5.926618743613549"><ele>1129.4</ele><time>2026-05-05T11:01:26Z</time></trkpt><trkpt lat="30.92922084597861" lon="-5.926531691359495"><ele>1129.2</ele><time>2026-05-05T11:01:27Z</time></trkpt><trkpt lat="30.929135951276347" lon="-5.926435087727556"><ele>1129.0</ele><time>2026-05-05T11:01:28Z</time></trkpt><trkpt lat="30.929067756418533" lon="-5.926312076571443"><ele>1130.75</ele><time>2026-05-05T11:01:29Z</time></trkpt><trkpt lat="30.929011432467593" lon="-5.926171983681581"><ele>1132.5</ele><time>2026-05-05T11:01:30Z</time></trkpt><trkpt lat="30.928953610830316" lon="-5.926029555613764"><ele>1134.25</ele><time>2026-05-05T11:01:31Z</time></trkpt><trkpt lat="30.928890607950372" lon="-5.925893175642883"><ele>1136.0</ele><time>2026-05-05T11:01:32Z</time></trkpt><trkpt lat="30.928825162335613" lon="-5.925758163508135"><ele>1136.0</ele><time>2026-05-05T11:01:33Z</time></trkpt><trkpt lat="30.928756619138873" lon="-5.925615741052281"><ele>1136.0</ele><time>2026-05-05T11:01:34Z</time></trkpt><trkpt lat="30.928696500934315" lon="-5.925481688309853"><ele>1136.0</ele><time>2026-05-05T11:01:35Z</time></trkpt><trkpt lat="30.92864384485156" lon="-5.925362943769338"><ele>1136.0</ele><time>2026-05-05T11:01:36Z</time></trkpt><trkpt lat="30.92859157808707" lon="-5.925263078953997"><ele>1136.0</ele><time>2026-05-05T11:01:37Z</time></trkpt><trkpt lat="30.928544800715287" lon="-5.925170041229822"><ele>1136.0</ele><time>2026-05-05T11:01:38Z</time></trkpt><trkpt lat="30.928494971433523" lon="-5.92506583086943"><ele>1136.0</ele><time>2026-05-05T11:01:39Z</time></trkpt><trkpt lat="30.928415828871763" lon="-5.92496704596754"><ele>1136.0</ele><time>2026-05-05T11:01:40Z</time></trkpt><trkpt lat="30.928395128231376" lon="-5.9248281812683254"><ele>1136.0</ele><time>2026-05-05T11:01:41Z</time></trkpt><trkpt lat="30.92834878280818" lon="-5.924718233910978"><ele>1136.8</ele><time>2026-05-05T11:01:42Z</time></trkpt><trkpt lat="30.928300664418305" lon="-5.924624657900104"><ele>1137.6</ele><time>2026-05-05T11:01:43Z</time></trkpt><trkpt lat="30.928257965196263" lon="-5.92453435815281"><ele>1138.4</ele><time>2026-05-05T11:01:44Z</time></trkpt><trkpt lat="30.928193853348255" lon="-5.92445126571577"><ele>1139.2</ele><time>2026-05-05T11:01:45Z</time></trkpt><trkpt lat="30.928154236482992" lon="-5.924355364755993"><ele>1140.0</ele><time>2026-05-05T11:01:46Z</time></trkpt><trkpt lat="30.928132114238924" lon="-5.924264064632409"><ele>1139.6666666666667</ele><time>2026-05-05T11:01:47Z</time></trkpt><trkpt lat="30.928097076554046" lon="-5.924192110153491"><ele>1139.3333333333333</ele><time>2026-05-05T11:01:48Z</time></trkpt><trkpt lat="30.928065028014146" lon="-5.924117950071297"><ele>1139.0</ele><time>2026-05-05T11:01:49Z</time></trkpt><trkpt lat="30.928027232791955" lon="-5.924034773349089"><ele>1138.6666666666665</ele><time>2026-05-05T11:01:50Z</time></trkpt><trkpt lat="30.92798268275264" lon="-5.923948131537748"><ele>1138.3333333333333</ele><time>2026-05-05T11:01:51Z</time></trkpt><trkpt lat="30.927936008268244" lon="-5.923858707128798"><ele>1138.0</ele><time>2026-05-05T11:01:52Z</time></trkpt><trkpt lat="30.927890732493523" lon="-5.923759696163154"><ele>1138.0</ele><time>2026-05-05T11:01:53Z</time></trkpt><trkpt lat="30.927844377343973" lon="-5.9236553379682615"><ele>1138.0</ele><time>2026-05-05T11:01:54Z</time></trkpt><trkpt lat="30.927794263761342" lon="-5.9235386316827805"><ele>1138.0</ele><time>2026-05-05T11:01:55Z</time></trkpt><trkpt lat="30.927737509039602" lon="-5.92341893087628"><ele>1138.0</ele><time>2026-05-05T11:01:56Z</time></trkpt><trkpt lat="30.92768048863148" lon="-5.92329168554234"><ele>1137.75</ele><time>2026-05-05T11:01:57Z</time></trkpt><trkpt lat="30.92761753944448" lon="-5.923161306836022"><ele>1137.5</ele><time>2026-05-05T11:01:58Z</time></trkpt><trkpt lat="30.927569069929874" lon="-5.9230186497209525"><ele>1137.25</ele><time>2026-05-05T11:01:59Z</time></trkpt><trkpt lat="30.9275073370282" lon="-5.922884333300166"><ele>1137.0</ele><time>2026-05-05T11:02:00Z</time></trkpt><trkpt lat="30.927445865951437" lon="-5.922750699183429"><ele>1137.0</ele><time>2026-05-05T11:02:01Z</time></trkpt><trkpt lat="30.9273863769574" lon="-5.922621814026462"><ele>1137.0</ele><time>2026-05-05T11:02:02Z</time></trkpt><trkpt lat="30.92732686928836" lon="-5.922492888414106"><ele>1137.0</ele><time>2026-05-05T11:02:03Z</time></trkpt><trkpt lat="30.927270370319967" lon="-5.922370481258447"><ele>1137.0</ele><time>2026-05-05T11:02:04Z</time></trkpt><trkpt lat="30.927205733450993" lon="-5.922268251781984"><ele>1136.8333333333333</ele><time>2026-05-05T11:02:05Z</time></trkpt><trkpt lat="30.927164660437725" lon="-5.92217122771787"><ele>1136.6666666666667</ele><time>2026-05-05T11:02:06Z</time></trkpt><trkpt lat="30.927132060896128" lon="-5.9221084014158665"><ele>1136.5</ele><time>2026-05-05T11:02:07Z</time></trkpt><trkpt lat="30.927089805467695" lon="-5.921983558139754"><ele>1136.3333333333335</ele><time>2026-05-05T11:02:09Z</time></trkpt><trkpt lat="30.92705241403669" lon="-5.9219047349483365"><ele>1136.1666666666667</ele><time>2026-05-05T11:02:10Z</time></trkpt><trkpt lat="30.927007169402113" lon="-5.921809356772336"><ele>1136.0</ele><time>2026-05-05T11:02:11Z</time></trkpt><trkpt lat="30.926958571617256" lon="-5.921706909972042"><ele>1135.75</ele><time>2026-05-05T11:02:12Z</time></trkpt><trkpt lat="30.9268956539774" lon="-5.9216034760748215"><ele>1135.5</ele><time>2026-05-05T11:02:13Z</time></trkpt><trkpt lat="30.926842862607003" lon="-5.921488316154621"><ele>1135.25</ele><time>2026-05-05T11:02:14Z</time></trkpt><trkpt lat="30.926781638435912" lon="-5.921368916496951"><ele>1135.0</ele><time>2026-05-05T11:02:15Z</time></trkpt><trkpt lat="30.926720817796877" lon="-5.921240908701114"><ele>1134.5</ele><time>2026-05-05T11:02:16Z</time></trkpt><trkpt lat="30.926660234557367" lon="-5.921111416039156"><ele>1134.0</ele><time>2026-05-05T11:02:17Z</time></trkpt><trkpt lat="30.9265994784254" lon="-5.920971166764625"><ele>1133.5</ele><time>2026-05-05T11:02:18Z</time></trkpt><trkpt lat="30.9265287327543" lon="-5.920823367715242"><ele>1133.0</ele><time>2026-05-05T11:02:19Z</time></trkpt><trkpt lat="30.926456979635674" lon="-5.920673471229027"><ele>1133.0</ele><time>2026-05-05T11:02:20Z</time></trkpt><trkpt lat="30.926386659553888" lon="-5.920520444789856"><ele>1133.0</ele><time>2026-05-05T11:02:21Z</time></trkpt><trkpt lat="30.926309777976545" lon="-5.920362200054836"><ele>1133.0</ele><time>2026-05-05T11:02:22Z</time></trkpt><trkpt lat="30.92623289164345" lon="-5.9201984557214375"><ele>1133.0</ele><time>2026-05-05T11:02:23Z</time></trkpt><trkpt lat="30.92615601237793" lon="-5.920031431423779"><ele>1133.0</ele><time>2026-05-05T11:02:24Z</time></trkpt><trkpt lat="30.92608119423434" lon="-5.919860557678619"><ele>1133.0</ele><time>2026-05-05T11:02:25Z</time></trkpt><trkpt lat="30.926008120730696" lon="-5.919693641958962"><ele>1133.0</ele><time>2026-05-05T11:02:26Z</time></trkpt><trkpt lat="30.925930452377987" lon="-5.919523672498492"><ele>1133.0</ele><time>2026-05-05T11:02:27Z</time></trkpt><trkpt lat="30.925843957553546" lon="-5.919356383955477"><ele>1133.0</ele><time>2026-05-05T11:02:28Z</time></trkpt><trkpt lat="30.925757298207948" lon="-5.919183096941602"><ele>1132.0</ele><time>2026-05-05T11:02:29Z</time></trkpt><trkpt lat="30.925668411850534" lon="-5.919006397149607"><ele>1131.0</ele><time>2026-05-05T11:02:30Z</time></trkpt><trkpt lat="30.925581185309255" lon="-5.918830198420838"><ele>1130.0</ele><time>2026-05-05T11:02:31Z</time></trkpt><trkpt lat="30.925494512398043" lon="-5.918656383786868"><ele>1130.0</ele><time>2026-05-05T11:02:32Z</time></trkpt><trkpt lat="30.925392317498673" lon="-5.91849986386392"><ele>1130.0</ele><time>2026-05-05T11:02:33Z</time></trkpt><trkpt lat="30.92529454823343" lon="-5.91833929833348"><ele>1130.0</ele><time>2026-05-05T11:02:34Z</time></trkpt><trkpt lat="30.925195440499284" lon="-5.918176840255909"><ele>1129.6666666666667</ele><time>2026-05-05T11:02:35Z</time></trkpt><trkpt lat="30.925097107195914" lon="-5.918015677824486"><ele>1129.3333333333333</ele><time>2026-05-05T11:02:36Z</time></trkpt><trkpt lat="30.924998330014976" lon="-5.917854510561548"><ele>1129.0</ele><time>2026-05-05T11:02:37Z</time></trkpt><trkpt lat="30.924899610017416" lon="-5.917693318049505"><ele>1129.0</ele><time>2026-05-05T11:02:38Z</time></trkpt><trkpt lat="30.92480235306427" lon="-5.917533175081584"><ele>1129.0</ele><time>2026-05-05T11:02:39Z</time></trkpt><trkpt lat="30.924717028762302" lon="-5.917363862337053"><ele>1129.0</ele><time>2026-05-05T11:02:40Z</time></trkpt><trkpt lat="30.92461159062616" lon="-5.917208821111396"><ele>1129.0</ele><time>2026-05-05T11:02:41Z</time></trkpt><trkpt lat="30.924512184757322" lon="-5.917051012938062"><ele>1129.0</ele><time>2026-05-05T11:02:42Z</time></trkpt><trkpt lat="30.924395116017855" lon="-5.916912222680779"><ele>1129.0</ele><time>2026-05-05T11:02:43Z</time></trkpt><trkpt lat="30.92428376705603" lon="-5.9167671803861355"><ele>1128.0</ele><time>2026-05-05T11:02:44Z</time></trkpt><trkpt lat="30.924174683340144" lon="-5.916625088744725"><ele>1127.0</ele><time>2026-05-05T11:02:45Z</time></trkpt><trkpt lat="30.92406768517243" lon="-5.916485705410811"><ele>1126.0</ele><time>2026-05-05T11:02:46Z</time></trkpt><trkpt lat="30.92396229193254" lon="-5.916347887386354"><ele>1126.0</ele><time>2026-05-05T11:02:47Z</time></trkpt><trkpt lat="30.9238564440449" lon="-5.916209474833713"><ele>1126.0</ele><time>2026-05-05T11:02:48Z</time></trkpt><trkpt lat="30.923751200545755" lon="-5.916071852622144"><ele>1126.0</ele><time>2026-05-05T11:02:49Z</time></trkpt><trkpt lat="30.92365688474605" lon="-5.915924244516528"><ele>1125.3333333333333</ele><time>2026-05-05T11:02:50Z</time></trkpt><trkpt lat="30.923547020347442" lon="-5.915796441021736"><ele>1124.6666666666667</ele><time>2026-05-05T11:02:51Z</time></trkpt><trkpt lat="30.92343405589566" lon="-5.915669995170176"><ele>1124.0</ele><time>2026-05-05T11:02:52Z</time></trkpt><trkpt lat="30.923323119869305" lon="-5.915543866596793"><ele>1124.0</ele><time>2026-05-05T11:02:53Z</time></trkpt><trkpt lat="30.92321044084" lon="-5.91541362246936"><ele>1124.0</ele><time>2026-05-05T11:02:54Z</time></trkpt><trkpt lat="30.92309572214808" lon="-5.915284053243484"><ele>1124.0</ele><time>2026-05-05T11:02:55Z</time></trkpt><trkpt lat="30.922979152219586" lon="-5.915153292658011"><ele>1123.3333333333335</ele><time>2026-05-05T11:02:56Z</time></trkpt><trkpt lat="30.922857416680166" lon="-5.91502255602413"><ele>1122.6666666666667</ele><time>2026-05-05T11:02:57Z</time></trkpt><trkpt lat="30.922739635615738" lon="-5.914889137366662"><ele>1122.0</ele><time>2026-05-05T11:02:58Z</time></trkpt><trkpt lat="30.922621175820662" lon="-5.9147571787787445"><ele>1122.0</ele><time>2026-05-05T11:02:59Z</time></trkpt><trkpt lat="30.92250312940795" lon="-5.914617474825777"><ele>1122.0</ele><time>2026-05-05T11:03:00Z</time></trkpt><trkpt lat="30.922383750282428" lon="-5.9144812686055"><ele>1122.0</ele><time>2026-05-05T11:03:01Z</time></trkpt><trkpt lat="30.922256047194647" lon="-5.91434481865041"><ele>1121.3333333333333</ele><time>2026-05-05T11:03:02Z</time></trkpt><trkpt lat="30.92213194379302" lon="-5.914212616367054"><ele>1120.6666666666665</ele><time>2026-05-05T11:03:03Z</time></trkpt><trkpt lat="30.922008755232554" lon="-5.914081124165549"><ele>1120.0</ele><time>2026-05-05T11:03:04Z</time></trkpt><trkpt lat="30.921884787277026" lon="-5.913943020761849"><ele>1120.0</ele><time>2026-05-05T11:03:05Z</time></trkpt><trkpt lat="30.921764558274706" lon="-5.913804208839097"><ele>1120.0</ele><time>2026-05-05T11:03:06Z</time></trkpt><trkpt lat="30.921646389315693" lon="-5.913661435646292"><ele>1120.0</ele><time>2026-05-05T11:03:07Z</time></trkpt><trkpt lat="30.921508965904387" lon="-5.913538527916418"><ele>1120.3333333333333</ele><time>2026-05-05T11:03:08Z</time></trkpt><trkpt lat="30.921396703397882" lon="-5.91339341245841"><ele>1120.6666666666667</ele><time>2026-05-05T11:03:09Z</time></trkpt><trkpt lat="30.921269534437823" lon="-5.913259945766556"><ele>1121.0</ele><time>2026-05-05T11:03:10Z</time></trkpt><trkpt lat="30.921137586896723" lon="-5.913136567118541"><ele>1121.0</ele><time>2026-05-05T11:03:11Z</time></trkpt><trkpt lat="30.92100656243844" lon="-5.913014792989556"><ele>1121.0</ele><time>2026-05-05T11:03:12Z</time></trkpt><trkpt lat="30.920858281258212" lon="-5.9129135544599"><ele>1121.0</ele><time>2026-05-05T11:03:13Z</time></trkpt><trkpt lat="30.920712005247097" lon="-5.9127986640312"><ele>1120.0</ele><time>2026-05-05T11:03:14Z</time></trkpt><trkpt lat="30.920570761970588" lon="-5.912688041789961"><ele>1119.0</ele><time>2026-05-05T11:03:15Z</time></trkpt><trkpt lat="30.92042895496668" lon="-5.912577304557474"><ele>1118.0</ele><time>2026-05-05T11:03:16Z</time></trkpt><trkpt lat="30.920286719463963" lon="-5.91246622877367"><ele>1118.0</ele><time>2026-05-05T11:03:17Z</time></trkpt><trkpt lat="30.920140464805854" lon="-5.9123518928849865"><ele>1118.0</ele><time>2026-05-05T11:03:18Z</time></trkpt><trkpt lat="30.92000230450187" lon="-5.912235599484161"><ele>1118.0</ele><time>2026-05-05T11:03:19Z</time></trkpt><trkpt lat="30.919854128780525" lon="-5.912124275024404"><ele>1117.3333333333335</ele><time>2026-05-05T11:03:20Z</time></trkpt><trkpt lat="30.919707823921943" lon="-5.912020077395266"><ele>1116.6666666666667</ele><time>2026-05-05T11:03:21Z</time></trkpt><trkpt lat="30.919563322371715" lon="-5.911925472759198"><ele>1116.0</ele><time>2026-05-05T11:03:22Z</time></trkpt><trkpt lat="30.919415023501124" lon="-5.911821379697904"><ele>1115.3333333333333</ele><time>2026-05-05T11:03:23Z</time></trkpt><trkpt lat="30.91926709138913" lon="-5.911716344697676"><ele>1114.6666666666665</ele><time>2026-05-05T11:03:24Z</time></trkpt><trkpt lat="30.91912015788601" lon="-5.911616656118826"><ele>1114.0</ele><time>2026-05-05T11:03:25Z</time></trkpt><trkpt lat="30.918970931306426" lon="-5.9115223554441485"><ele>1113.6666666666665</ele><time>2026-05-05T11:03:26Z</time></trkpt><trkpt lat="30.91882482781236" lon="-5.91142425135719"><ele>1113.3333333333333</ele><time>2026-05-05T11:03:27Z</time></trkpt><trkpt lat="30.918682913134827" lon="-5.911321129546686"><ele>1113.0</ele><time>2026-05-05T11:03:28Z</time></trkpt><trkpt lat="30.918540211483293" lon="-5.911222968192706"><ele>1113.0</ele><time>2026-05-05T11:03:29Z</time></trkpt><trkpt lat="30.9183992573158" lon="-5.911126407135042"><ele>1113.0</ele><time>2026-05-05T11:03:30Z</time></trkpt><trkpt lat="30.918256248545475" lon="-5.911032934253753"><ele>1113.0</ele><time>2026-05-05T11:03:31Z</time></trkpt><trkpt lat="30.9181148845184" lon="-5.910941971759149"><ele>1112.3333333333333</ele><time>2026-05-05T11:03:32Z</time></trkpt><trkpt lat="30.917974156684455" lon="-5.910849202105717"><ele>1111.6666666666665</ele><time>2026-05-05T11:03:33Z</time></trkpt><trkpt lat="30.91783583376031" lon="-5.91075504815882"><ele>1111.0</ele><time>2026-05-05T11:03:34Z</time></trkpt><trkpt lat="30.917697848531343" lon="-5.91065988251595"><ele>1111.0</ele><time>2026-05-05T11:03:35Z</time></trkpt><trkpt lat="30.917559210071435" lon="-5.910566052855702"><ele>1111.0</ele><time>2026-05-05T11:03:36Z</time></trkpt><trkpt lat="30.917419107016272" lon="-5.910473852306583"><ele>1111.0</ele><time>2026-05-05T11:03:37Z</time></trkpt><trkpt lat="30.917276556219687" lon="-5.9103832224831425"><ele>1111.0</ele><time>2026-05-05T11:03:38Z</time></trkpt><trkpt lat="30.91712703840997" lon="-5.910291455847028"><ele>1111.0</ele><time>2026-05-05T11:03:39Z</time></trkpt><trkpt lat="30.916981548570813" lon="-5.910199499530304"><ele>1111.0</ele><time>2026-05-05T11:03:40Z</time></trkpt><trkpt lat="30.916828549509017" lon="-5.910119207790369"><ele>1110.3333333333333</ele><time>2026-05-05T11:03:41Z</time></trkpt><trkpt lat="30.916670976687012" lon="-5.91004271441702"><ele>1109.6666666666667</ele><time>2026-05-05T11:03:42Z</time></trkpt><trkpt lat="30.91650832211432" lon="-5.909970946368605"><ele>1109.0</ele><time>2026-05-05T11:03:43Z</time></trkpt><trkpt lat="30.91634647352678" lon="-5.909905715860923"><ele>1109.0</ele><time>2026-05-05T11:03:44Z</time></trkpt><trkpt lat="30.91618290939528" lon="-5.909841657668011"><ele>1109.0</ele><time>2026-05-05T11:03:45Z</time></trkpt><trkpt lat="30.916016467896" lon="-5.909778638960026"><ele>1109.0</ele><time>2026-05-05T11:03:46Z</time></trkpt><trkpt lat="30.91585070482406" lon="-5.909718618918687"><ele>1108.3333333333335</ele><time>2026-05-05T11:03:47Z</time></trkpt><trkpt lat="30.915684711490528" lon="-5.9096584588740155"><ele>1107.6666666666667</ele><time>2026-05-05T11:03:48Z</time></trkpt><trkpt lat="30.915516754861294" lon="-5.909600651408775"><ele>1107.0</ele><time>2026-05-05T11:03:49Z</time></trkpt><trkpt lat="30.915351350920037" lon="-5.909553180063321"><ele>1107.0</ele><time>2026-05-05T11:03:50Z</time></trkpt><trkpt lat="30.91518030517049" lon="-5.909539471322279"><ele>1107.0</ele><time>2026-05-05T11:03:51Z</time></trkpt><trkpt lat="30.915008564308472" lon="-5.909518803811232"><ele>1107.0</ele><time>2026-05-05T11:03:52Z</time></trkpt><trkpt lat="30.91483938029865" lon="-5.909481206532868"><ele>1106.3333333333333</ele><time>2026-05-05T11:03:53Z</time></trkpt><trkpt lat="30.914666813754877" lon="-5.909478555874116"><ele>1105.6666666666665</ele><time>2026-05-05T11:03:54Z</time></trkpt><trkpt lat="30.9144928150241" lon="-5.909466608747827"><ele>1105.0</ele><time>2026-05-05T11:03:55Z</time></trkpt><trkpt lat="30.91431986495405" lon="-5.909451001846969"><ele>1104.0</ele><time>2026-05-05T11:03:56Z</time></trkpt><trkpt lat="30.914146492509396" lon="-5.909440899976561"><ele>1103.0</ele><time>2026-05-05T11:03:57Z</time></trkpt><trkpt lat="30.913973179857887" lon="-5.909437303309798"><ele>1102.0</ele><time>2026-05-05T11:03:58Z</time></trkpt><trkpt lat="30.913799619361832" lon="-5.909442379992054"><ele>1102.0</ele><time>2026-05-05T11:03:59Z</time></trkpt><trkpt lat="30.913625861221686" lon="-5.909453538093945"><ele>1102.0</ele><time>2026-05-05T11:04:00Z</time></trkpt><trkpt lat="30.91345372003477" lon="-5.90947203865133"><ele>1102.0</ele><time>2026-05-05T11:04:01Z</time></trkpt><trkpt lat="30.91327993147527" lon="-5.909495273719402"><ele>1101.6666666666665</ele><time>2026-05-05T11:04:02Z</time></trkpt><trkpt lat="30.91310767999479" lon="-5.909524110368341"><ele>1101.3333333333333</ele><time>2026-05-05T11:04:03Z</time></trkpt><trkpt lat="30.912935292298886" lon="-5.909553895069572"><ele>1101.0</ele><time>2026-05-05T11:04:04Z</time></trkpt><trkpt lat="30.91276380215544" lon="-5.909588355387817"><ele>1101.0</ele><time>2026-05-05T11:04:05Z</time></trkpt><trkpt lat="30.9125913115056" lon="-5.909627246547925"><ele>1101.0</ele><time>2026-05-05T11:04:06Z</time></trkpt><trkpt lat="30.912421541610613" lon="-5.909673422943367"><ele>1101.0</ele><time>2026-05-05T11:04:07Z</time></trkpt><trkpt lat="30.91225028832303" lon="-5.909726922039394"><ele>1101.0</ele><time>2026-05-05T11:04:08Z</time></trkpt><trkpt lat="30.912082159200782" lon="-5.909782341586929"><ele>1101.0</ele><time>2026-05-05T11:04:09Z</time></trkpt><trkpt lat="30.9119157264404" lon="-5.909843457941949"><ele>1101.0</ele><time>2026-05-05T11:04:10Z</time></trkpt><trkpt lat="30.911751564623543" lon="-5.909913701586775"><ele>1100.6666666666667</ele><time>2026-05-05T11:04:11Z</time></trkpt><trkpt lat="30.911588106921176" lon="-5.9099891518728604"><ele>1100.3333333333335</ele><time>2026-05-05T11:04:12Z</time></trkpt><trkpt lat="30.911425139559473" lon="-5.910067827532315"><ele>1100.0</ele><time>2026-05-05T11:04:13Z</time></trkpt><trkpt lat="30.911265321926383" lon="-5.9101506643924075"><ele>1100.3333333333335</ele><time>2026-05-05T11:04:14Z</time></trkpt><trkpt lat="30.911106875690646" lon="-5.910240258097715"><ele>1100.6666666666667</ele><time>2026-05-05T11:04:15Z</time></trkpt><trkpt lat="30.910947468721897" lon="-5.910326336936945"><ele>1101.0</ele><time>2026-05-05T11:04:16Z</time></trkpt><trkpt lat="30.910785974947963" lon="-5.910411387224316"><ele>1101.0</ele><time>2026-05-05T11:04:17Z</time></trkpt><trkpt lat="30.91062490482206" lon="-5.910493321570855"><ele>1101.0</ele><time>2026-05-05T11:04:18Z</time></trkpt><trkpt lat="30.91046551525497" lon="-5.910577455252203"><ele>1101.0</ele><time>2026-05-05T11:04:19Z</time></trkpt><trkpt lat="30.91030595166894" lon="-5.910659913109105"><ele>1101.0</ele><time>2026-05-05T11:04:20Z</time></trkpt><trkpt lat="30.91014420385118" lon="-5.910745381603146"><ele>1101.0</ele><time>2026-05-05T11:04:21Z</time></trkpt><trkpt lat="30.909980124462688" lon="-5.910831871944303"><ele>1101.0</ele><time>2026-05-05T11:04:22Z</time></trkpt><trkpt lat="30.90981580194606" lon="-5.910916465320273"><ele>1100.0</ele><time>2026-05-05T11:04:23Z</time></trkpt><trkpt lat="30.90965040134267" lon="-5.911001585600497"><ele>1099.0</ele><time>2026-05-05T11:04:24Z</time></trkpt><trkpt lat="30.90948498640265" lon="-5.911090792020303"><ele>1098.0</ele><time>2026-05-05T11:04:25Z</time></trkpt><trkpt lat="30.909320023191306" lon="-5.911177892438913"><ele>1097.0</ele><time>2026-05-05T11:04:26Z</time></trkpt><trkpt lat="30.909152290774124" lon="-5.911261712067778"><ele>1096.0</ele><time>2026-05-05T11:04:27Z</time></trkpt><trkpt lat="30.90898784203857" lon="-5.911351025495084"><ele>1095.0</ele><time>2026-05-05T11:04:28Z</time></trkpt><trkpt lat="30.90882030759794" lon="-5.911435311656122"><ele>1095.0</ele><time>2026-05-05T11:04:29Z</time></trkpt><trkpt lat="30.908651959362356" lon="-5.9115218150808895"><ele>1095.0</ele><time>2026-05-05T11:04:30Z</time></trkpt><trkpt lat="30.908486576667226" lon="-5.911613389894039"><ele>1095.0</ele><time>2026-05-05T11:04:31Z</time></trkpt><trkpt lat="30.908318230585305" lon="-5.911699626425253"><ele>1094.0</ele><time>2026-05-05T11:04:32Z</time></trkpt><trkpt lat="30.90814797904182" lon="-5.911790773729832"><ele>1093.0</ele><time>2026-05-05T11:04:33Z</time></trkpt><trkpt lat="30.907979090785496" lon="-5.9118753701509394"><ele>1092.0</ele><time>2026-05-05T11:04:34Z</time></trkpt><trkpt lat="30.90781050335243" lon="-5.911960426012529"><ele>1092.0</ele><time>2026-05-05T11:04:35Z</time></trkpt><trkpt lat="30.90764136287043" lon="-5.912048656565426"><ele>1092.0</ele><time>2026-05-05T11:04:36Z</time></trkpt><trkpt lat="30.907474552462357" lon="-5.912141367154176"><ele>1092.0</ele><time>2026-05-05T11:04:37Z</time></trkpt><trkpt lat="30.907309551625353" lon="-5.91222794824391"><ele>1091.6666666666667</ele><time>2026-05-05T11:04:38Z</time></trkpt><trkpt lat="30.90714041616621" lon="-5.9123142018761365"><ele>1091.3333333333335</ele><time>2026-05-05T11:04:39Z</time></trkpt><trkpt lat="30.90697387314542" lon="-5.912398785880613"><ele>1091.0</ele><time>2026-05-05T11:04:40Z</time></trkpt><trkpt lat="30.90680732258719" lon="-5.912483225151434"><ele>1090.6666666666667</ele><time>2026-05-05T11:04:41Z</time></trkpt><trkpt lat="30.90663921273894" lon="-5.912564795500433"><ele>1090.3333333333333</ele><time>2026-05-05T11:04:42Z</time></trkpt><trkpt lat="30.906475001298464" lon="-5.912651434634135"><ele>1090.0</ele><time>2026-05-05T11:04:43Z</time></trkpt><trkpt lat="30.906312119023475" lon="-5.912737527030133"><ele>1089.0</ele><time>2026-05-05T11:04:44Z</time></trkpt><trkpt lat="30.906146706256838" lon="-5.912823318380729"><ele>1088.0</ele><time>2026-05-05T11:04:45Z</time></trkpt><trkpt lat="30.90597397037677" lon="-5.9128906665131815"><ele>1087.0</ele><time>2026-05-05T11:04:46Z</time></trkpt><trkpt lat="30.905806626160246" lon="-5.912971908478074"><ele>1087.0</ele><time>2026-05-05T11:04:47Z</time></trkpt><trkpt lat="30.905639191948783" lon="-5.913052830416885"><ele>1087.0</ele><time>2026-05-05T11:04:48Z</time></trkpt><trkpt lat="30.905472053386408" lon="-5.913133646931846"><ele>1087.0</ele><time>2026-05-05T11:04:49Z</time></trkpt><trkpt lat="30.90530568313236" lon="-5.913214201711567"><ele>1087.0</ele><time>2026-05-05T11:04:50Z</time></trkpt><trkpt lat="30.90513490440153" lon="-5.913287591524805"><ele>1087.0</ele><time>2026-05-05T11:04:51Z</time></trkpt><trkpt lat="30.904957490794324" lon="-5.913347655005767"><ele>1087.0</ele><time>2026-05-05T11:04:52Z</time></trkpt><trkpt lat="30.904779407606007" lon="-5.913407611990662"><ele>1085.6666666666665</ele><time>2026-05-05T11:04:53Z</time></trkpt><trkpt lat="30.90459958357915" lon="-5.913467973559488"><ele>1084.3333333333333</ele><time>2026-05-05T11:04:54Z</time></trkpt><trkpt lat="30.904419708342903" lon="-5.913528162142061"><ele>1083.0</ele><time>2026-05-05T11:04:55Z</time></trkpt><trkpt lat="30.904241832347488" lon="-5.913587681873038"><ele>1083.0</ele><time>2026-05-05T11:04:56Z</time></trkpt><trkpt lat="30.90406763876507" lon="-5.913655047383439"><ele>1083.0</ele><time>2026-05-05T11:04:57Z</time></trkpt><trkpt lat="30.903889906720075" lon="-5.913696005249597"><ele>1083.0</ele><time>2026-05-05T11:04:58Z</time></trkpt><trkpt lat="30.903716163763274" lon="-5.913730765702646"><ele>1083.0</ele><time>2026-05-05T11:04:59Z</time></trkpt><trkpt lat="30.903541200160717" lon="-5.913734466359086"><ele>1083.0</ele><time>2026-05-05T11:05:00Z</time></trkpt><trkpt lat="30.903371084002803" lon="-5.913754026022711"><ele>1083.0</ele><time>2026-05-05T11:05:01Z</time></trkpt><trkpt lat="30.903200857322766" lon="-5.913773598383896"><ele>1083.0</ele><time>2026-05-05T11:05:02Z</time></trkpt><trkpt lat="30.903030773432913" lon="-5.913808757023824"><ele>1083.0</ele><time>2026-05-05T11:05:03Z</time></trkpt><trkpt lat="30.902857680439833" lon="-5.913816348071526"><ele>1083.0</ele><time>2026-05-05T11:05:04Z</time></trkpt><trkpt lat="30.902684613726606" lon="-5.913815896856648"><ele>1082.0</ele><time>2026-05-05T11:05:05Z</time></trkpt><trkpt lat="30.902519145436894" lon="-5.913867970182265"><ele>1081.0</ele><time>2026-05-05T11:05:06Z</time></trkpt><trkpt lat="30.90233040840617" lon="-5.913812882467503"><ele>1080.0</ele><time>2026-05-05T11:05:07Z</time></trkpt><trkpt lat="30.90215931145022" lon="-5.913774574951302"><ele>1080.0</ele><time>2026-05-05T11:05:08Z</time></trkpt><trkpt lat="30.9019862183438" lon="-5.913752601977237"><ele>1080.0</ele><time>2026-05-05T11:05:09Z</time></trkpt><trkpt lat="30.90183427119101" lon="-5.91367305430848"><ele>1080.0</ele><time>2026-05-05T11:05:10Z</time></trkpt><trkpt lat="30.90167358365012" lon="-5.913592646567375"><ele>1079.6666666666667</ele><time>2026-05-05T11:05:11Z</time></trkpt><trkpt lat="30.90147229932735" lon="-5.913536977623167"><ele>1079.3333333333335</ele><time>2026-05-05T11:05:12Z</time></trkpt><trkpt lat="30.90130444056895" lon="-5.913514203559784"><ele>1079.0</ele><time>2026-05-05T11:05:13Z</time></trkpt><trkpt lat="30.90113142331395" lon="-5.913488391694599"><ele>1079.0</ele><time>2026-05-05T11:05:14Z</time></trkpt><trkpt lat="30.900959296687404" lon="-5.913462712691258"><ele>1079.0</ele><time>2026-05-05T11:05:15Z</time></trkpt><trkpt lat="30.90078676346473" lon="-5.913436354319768"><ele>1079.0</ele><time>2026-05-05T11:05:16Z</time></trkpt><trkpt lat="30.900615691548197" lon="-5.91340933987414"><ele>1079.0</ele><time>2026-05-05T11:05:17Z</time></trkpt><trkpt lat="30.900445404705277" lon="-5.913381362247983"><ele>1079.0</ele><time>2026-05-05T11:05:18Z</time></trkpt><trkpt lat="30.9002673160541" lon="-5.9133592429262185"><ele>1079.0</ele><time>2026-05-05T11:05:19Z</time></trkpt><trkpt lat="30.900096703670748" lon="-5.913341310008393"><ele>1078.3333333333335</ele><time>2026-05-05T11:05:20Z</time></trkpt><trkpt lat="30.899919359412678" lon="-5.91332699627161"><ele>1077.6666666666667</ele><time>2026-05-05T11:05:21Z</time></trkpt><trkpt lat="30.899749945955108" lon="-5.913316239203151"><ele>1077.0</ele><time>2026-05-05T11:05:22Z</time></trkpt><trkpt lat="30.899579628515557" lon="-5.91330568815395"><ele>1077.0</ele><time>2026-05-05T11:05:23Z</time></trkpt><trkpt lat="30.899413009429914" lon="-5.913294365184644"><ele>1077.0</ele><time>2026-05-05T11:05:24Z</time></trkpt><trkpt lat="30.899243528858413" lon="-5.9132775192328"><ele>1077.0</ele><time>2026-05-05T11:05:25Z</time></trkpt><trkpt lat="30.899075579697406" lon="-5.913260825498561"><ele>1077.3333333333333</ele><time>2026-05-05T11:05:26Z</time></trkpt><trkpt lat="30.89890842799673" lon="-5.91324424878305"><ele>1077.6666666666665</ele><time>2026-05-05T11:05:27Z</time></trkpt><trkpt lat="30.898743180790685" lon="-5.913227877841382"><ele>1078.0</ele><time>2026-05-05T11:05:28Z</time></trkpt><trkpt lat="30.898577785991964" lon="-5.913211492257877"><ele>1078.0</ele><time>2026-05-05T11:05:29Z</time></trkpt><trkpt lat="30.898411071546324" lon="-5.913194975946536"><ele>1078.0</ele><time>2026-05-05T11:05:30Z</time></trkpt><trkpt lat="30.898242529566748" lon="-5.913186064466948"><ele>1078.0</ele><time>2026-05-05T11:05:31Z</time></trkpt><trkpt lat="30.898078435962887" lon="-5.91319395096251"><ele>1078.0</ele><time>2026-05-05T11:05:32Z</time></trkpt><trkpt lat="30.897919831111935" lon="-5.913182080890168"><ele>1078.0</ele><time>2026-05-05T11:05:33Z</time></trkpt><trkpt lat="30.89775330864146" lon="-5.91314641387131"><ele>1078.0</ele><time>2026-05-05T11:05:34Z</time></trkpt><trkpt lat="30.897588280251583" lon="-5.913109894086298"><ele>1078.3333333333333</ele><time>2026-05-05T11:05:35Z</time></trkpt><trkpt lat="30.897430783849135" lon="-5.913061065650837"><ele>1078.6666666666667</ele><time>2026-05-05T11:05:36Z</time></trkpt><trkpt lat="30.897271876605572" lon="-5.913012335301472"><ele>1079.0</ele><time>2026-05-05T11:05:37Z</time></trkpt><trkpt lat="30.89711028975393" lon="-5.912940027927674"><ele>1079.0</ele><time>2026-05-05T11:05:38Z</time></trkpt><trkpt lat="30.896959382419002" lon="-5.912861183609947"><ele>1079.0</ele><time>2026-05-05T11:05:39Z</time></trkpt><trkpt lat="30.89680790677237" lon="-5.912778842557945"><ele>1079.0</ele><time>2026-05-05T11:05:40Z</time></trkpt><trkpt lat="30.89666117900714" lon="-5.912686613295503"><ele>1078.6666666666667</ele><time>2026-05-05T11:05:41Z</time></trkpt><trkpt lat="30.896512123772236" lon="-5.912595572467621"><ele>1078.3333333333333</ele><time>2026-05-05T11:05:42Z</time></trkpt><trkpt lat="30.896362116421827" lon="-5.912499901905115"><ele>1078.0</ele><time>2026-05-05T11:05:43Z</time></trkpt><trkpt lat="30.896232647596275" lon="-5.912371837456981"><ele>1078.0</ele><time>2026-05-05T11:05:44Z</time></trkpt><trkpt lat="30.896093941976876" lon="-5.912255981166263"><ele>1078.0</ele><time>2026-05-05T11:05:45Z</time></trkpt><trkpt lat="30.895953190383572" lon="-5.912138680767484"><ele>1078.0</ele><time>2026-05-05T11:05:46Z</time></trkpt><trkpt lat="30.89581714328089" lon="-5.912018749527583"><ele>1078.0</ele><time>2026-05-05T11:05:47Z</time></trkpt><trkpt lat="30.895681723844923" lon="-5.911895453856727"><ele>1078.0</ele><time>2026-05-05T11:05:48Z</time></trkpt><trkpt lat="30.895551009627695" lon="-5.911776007401883"><ele>1078.0</ele><time>2026-05-05T11:05:49Z</time></trkpt><trkpt lat="30.895396614716013" lon="-5.911643643625975"><ele>1077.0</ele><time>2026-05-05T11:05:50Z</time></trkpt><trkpt lat="30.895249560112475" lon="-5.911549507423555"><ele>1076.0</ele><time>2026-05-05T11:05:51Z</time></trkpt><trkpt lat="30.89505756787534" lon="-5.911476656853564"><ele>1075.0</ele><time>2026-05-05T11:05:52Z</time></trkpt><trkpt lat="30.894893765811958" lon="-5.911419393524314"><ele>1075.0</ele><time>2026-05-05T11:05:53Z</time></trkpt><trkpt lat="30.894728648264618" lon="-5.911362297271963"><ele>1075.0</ele><time>2026-05-05T11:05:54Z</time></trkpt><trkpt lat="30.894551928519295" lon="-5.911321372837725"><ele>1075.0</ele><time>2026-05-05T11:05:55Z</time></trkpt><trkpt lat="30.894394744326295" lon="-5.911231945396901"><ele>1075.0</ele><time>2026-05-05T11:05:56Z</time></trkpt><trkpt lat="30.894226642474116" lon="-5.911149697340918"><ele>1075.0</ele><time>2026-05-05T11:05:57Z</time></trkpt><trkpt lat="30.89405580217605" lon="-5.911066428242428"><ele>1075.0</ele><time>2026-05-05T11:05:58Z</time></trkpt><trkpt lat="30.893884148307524" lon="-5.91098078908934"><ele>1073.3333333333333</ele><time>2026-05-05T11:05:59Z</time></trkpt><trkpt lat="30.89371119273112" lon="-5.910895562146883"><ele>1071.6666666666667</ele><time>2026-05-05T11:06:00Z</time></trkpt><trkpt lat="30.89353908507155" lon="-5.910813196749326"><ele>1070.0</ele><time>2026-05-05T11:06:01Z</time></trkpt><trkpt lat="30.893362570718814" lon="-5.910731364158814"><ele>1069.6666666666667</ele><time>2026-05-05T11:06:02Z</time></trkpt><trkpt lat="30.893186387232802" lon="-5.9106460200751485"><ele>1069.3333333333333</ele><time>2026-05-05T11:06:03Z</time></trkpt><trkpt lat="30.893002209943056" lon="-5.9105868184465455"><ele>1069.0</ele><time>2026-05-05T11:06:04Z</time></trkpt><trkpt lat="30.892825925341626" lon="-5.910502102415322"><ele>1069.0</ele><time>2026-05-05T11:06:05Z</time></trkpt><trkpt lat="30.8926507507808" lon="-5.910418448015653"><ele>1069.0</ele><time>2026-05-05T11:06:06Z</time></trkpt><trkpt lat="30.892477282940867" lon="-5.910330398064326"><ele>1069.0</ele><time>2026-05-05T11:06:07Z</time></trkpt><trkpt lat="30.89230615525307" lon="-5.9102405712112045"><ele>1068.6666666666665</ele><time>2026-05-05T11:06:08Z</time></trkpt><trkpt lat="30.892140775914243" lon="-5.9101328074341195"><ele>1068.3333333333333</ele><time>2026-05-05T11:06:09Z</time></trkpt><trkpt lat="30.89197061167905" lon="-5.910050009405403"><ele>1068.0</ele><time>2026-05-05T11:06:10Z</time></trkpt><trkpt lat="30.891802273921297" lon="-5.909969335463653"><ele>1068.0</ele><time>2026-05-05T11:06:11Z</time></trkpt><trkpt lat="30.89162723014167" lon="-5.9099246752065815"><ele>1068.0</ele><time>2026-05-05T11:06:12Z</time></trkpt><trkpt lat="30.891458070285307" lon="-5.90985717952107"><ele>1068.0</ele><time>2026-05-05T11:06:13Z</time></trkpt><trkpt lat="30.891291592932134" lon="-5.909780791838558"><ele>1068.0</ele><time>2026-05-05T11:06:14Z</time></trkpt><trkpt lat="30.891129250848365" lon="-5.909701327307075"><ele>1068.0</ele><time>2026-05-05T11:06:15Z</time></trkpt><trkpt lat="30.89097088323139" lon="-5.909619287351893"><ele>1068.0</ele><time>2026-05-05T11:06:16Z</time></trkpt><trkpt lat="30.890817700814193" lon="-5.90953865733675"><ele>1067.6666666666667</ele><time>2026-05-05T11:06:17Z</time></trkpt><trkpt lat="30.890660799331243" lon="-5.909462522979015"><ele>1067.3333333333335</ele><time>2026-05-05T11:06:18Z</time></trkpt><trkpt lat="30.890504056122847" lon="-5.909392385052321"><ele>1067.0</ele><time>2026-05-05T11:06:19Z</time></trkpt><trkpt lat="30.89034502538339" lon="-5.909304696306869"><ele>1066.6666666666667</ele><time>2026-05-05T11:06:20Z</time></trkpt><trkpt lat="30.890199055015664" lon="-5.909216533948439"><ele>1066.3333333333333</ele><time>2026-05-05T11:06:21Z</time></trkpt><trkpt lat="30.890037239185872" lon="-5.909153300744587"><ele>1066.0</ele><time>2026-05-05T11:06:22Z</time></trkpt><trkpt lat="30.889878090103085" lon="-5.909111941139355"><ele>1065.3333333333333</ele><time>2026-05-05T11:06:23Z</time></trkpt><trkpt lat="30.889721472437184" lon="-5.9090867654326535"><ele>1064.6666666666667</ele><time>2026-05-05T11:06:24Z</time></trkpt><trkpt lat="30.889475149339273" lon="-5.909084426025069"><ele>1064.0</ele><time>2026-05-05T11:06:25Z</time></trkpt><trkpt lat="30.88931030025579" lon="-5.908971127781639"><ele>1064.0</ele><time>2026-05-05T11:06:26Z</time></trkpt><trkpt lat="30.889168346498025" lon="-5.908860160923851"><ele>1064.0</ele><time>2026-05-05T11:06:27Z</time></trkpt><trkpt lat="30.88903464379583" lon="-5.908703665509643"><ele>1064.0</ele><time>2026-05-05T11:06:28Z</time></trkpt><trkpt lat="30.888915825682712" lon="-5.908600149520875"><ele>1064.0</ele><time>2026-05-05T11:06:29Z</time></trkpt><trkpt lat="30.88876748903934" lon="-5.908492702694753"><ele>1064.0</ele><time>2026-05-05T11:06:30Z</time></trkpt><trkpt lat="30.888623876308113" lon="-5.908356708672441"><ele>1064.0</ele><time>2026-05-05T11:06:31Z</time></trkpt><trkpt lat="30.888494291564598" lon="-5.908219586764868"><ele>1063.6666666666667</ele><time>2026-05-05T11:06:32Z</time></trkpt><trkpt lat="30.88836718414207" lon="-5.908083544374382"><ele>1063.3333333333333</ele><time>2026-05-05T11:06:33Z</time></trkpt><trkpt lat="30.88823919510983" lon="-5.907965278584968"><ele>1063.0</ele><time>2026-05-05T11:06:34Z</time></trkpt><trkpt lat="30.888098027754754" lon="-5.907843540708992"><ele>1063.0</ele><time>2026-05-05T11:06:35Z</time></trkpt><trkpt lat="30.88796541126114" lon="-5.907704807594863"><ele>1063.0</ele><time>2026-05-05T11:06:36Z</time></trkpt><trkpt lat="30.887840231596353" lon="-5.9075792458705285"><ele>1063.0</ele><time>2026-05-05T11:06:37Z</time></trkpt><trkpt lat="30.88769976457044" lon="-5.907465075015292"><ele>1062.3333333333333</ele><time>2026-05-05T11:06:38Z</time></trkpt><trkpt lat="30.887557586840632" lon="-5.907347401099899"><ele>1061.6666666666667</ele><time>2026-05-05T11:06:39Z</time></trkpt><trkpt lat="30.88742675922289" lon="-5.907219805384091"><ele>1061.0</ele><time>2026-05-05T11:06:40Z</time></trkpt><trkpt lat="30.88729832123097" lon="-5.907091004798789"><ele>1061.0</ele><time>2026-05-05T11:06:41Z</time></trkpt><trkpt lat="30.8871723039914" lon="-5.9069628211314145"><ele>1061.0</ele><time>2026-05-05T11:06:42Z</time></trkpt><trkpt lat="30.8870465265281" lon="-5.906832618576833"><ele>1061.0</ele><time>2026-05-05T11:06:43Z</time></trkpt><trkpt lat="30.886896895937966" lon="-5.906736326166774"><ele>1060.6666666666667</ele><time>2026-05-05T11:06:44Z</time></trkpt><trkpt lat="30.88674734865449" lon="-5.906642318542304"><ele>1060.3333333333333</ele><time>2026-05-05T11:06:45Z</time></trkpt><trkpt lat="30.886589618743255" lon="-5.906553089817071"><ele>1060.0</ele><time>2026-05-05T11:06:46Z</time></trkpt><trkpt lat="30.88644077454657" lon="-5.906466272321322"><ele>1060.0</ele><time>2026-05-05T11:06:47Z</time></trkpt><trkpt lat="30.886285365045993" lon="-5.906375099977059"><ele>1060.0</ele><time>2026-05-05T11:06:48Z</time></trkpt><trkpt lat="30.886122285679463" lon="-5.906302752699409"><ele>1060.0</ele><time>2026-05-05T11:06:49Z</time></trkpt><trkpt lat="30.885961202411963" lon="-5.906214822870865"><ele>1060.0</ele><time>2026-05-05T11:06:50Z</time></trkpt><trkpt lat="30.885824824380617" lon="-5.906077033601628"><ele>1060.0</ele><time>2026-05-05T11:06:51Z</time></trkpt><trkpt lat="30.88567686151499" lon="-5.905948020532795"><ele>1060.0</ele><time>2026-05-05T11:06:52Z</time></trkpt><trkpt lat="30.885530515453556" lon="-5.9058205603538365"><ele>1060.0</ele><time>2026-05-05T11:06:53Z</time></trkpt><trkpt lat="30.885386846018278" lon="-5.9057010292787675"><ele>1060.0</ele><time>2026-05-05T11:06:54Z</time></trkpt><trkpt lat="30.885245207230287" lon="-5.9055844719413955"><ele>1060.0</ele><time>2026-05-05T11:06:55Z</time></trkpt><trkpt lat="30.88510516479686" lon="-5.905466509606851"><ele>1060.0</ele><time>2026-05-05T11:06:56Z</time></trkpt><trkpt lat="30.88496519811826" lon="-5.905347989208158"><ele>1060.0</ele><time>2026-05-05T11:06:57Z</time></trkpt><trkpt lat="30.884835698420765" lon="-5.905216164024929"><ele>1060.0</ele><time>2026-05-05T11:06:58Z</time></trkpt><trkpt lat="30.884699531278923" lon="-5.905096409495285"><ele>1059.0</ele><time>2026-05-05T11:06:59Z</time></trkpt><trkpt lat="30.8845692071313" lon="-5.904975238445883"><ele>1058.0</ele><time>2026-05-05T11:07:00Z</time></trkpt><trkpt lat="30.884434078045924" lon="-5.904849727442379"><ele>1057.0</ele><time>2026-05-05T11:07:01Z</time></trkpt><trkpt lat="30.884298102103035" lon="-5.904729938581521"><ele>1056.6666666666665</ele><time>2026-05-05T11:07:02Z</time></trkpt><trkpt lat="30.88417178390877" lon="-5.90460665642168"><ele>1056.3333333333333</ele><time>2026-05-05T11:07:03Z</time></trkpt><trkpt lat="30.884032420476668" lon="-5.904476845508585"><ele>1056.0</ele><time>2026-05-05T11:07:04Z</time></trkpt><trkpt lat="30.883890165592994" lon="-5.904375253880744"><ele>1056.0</ele><time>2026-05-05T11:07:05Z</time></trkpt><trkpt lat="30.883743095104744" lon="-5.904278873295794"><ele>1056.0</ele><time>2026-05-05T11:07:06Z</time></trkpt><trkpt lat="30.883599413596276" lon="-5.90418970134081"><ele>1056.0</ele><time>2026-05-05T11:07:07Z</time></trkpt><trkpt lat="30.883459067458514" lon="-5.904085259728639"><ele>1056.3333333333333</ele><time>2026-05-05T11:07:08Z</time></trkpt><trkpt lat="30.883315440340656" lon="-5.903979849708934"><ele>1056.6666666666665</ele><time>2026-05-05T11:07:09Z</time></trkpt><trkpt lat="30.88317513929377" lon="-5.903877184771904"><ele>1057.0</ele><time>2026-05-05T11:07:10Z</time></trkpt><trkpt lat="30.883026615563352" lon="-5.903780899107041"><ele>1057.0</ele><time>2026-05-05T11:07:11Z</time></trkpt><trkpt lat="30.882880432282793" lon="-5.903686723296689"><ele>1057.0</ele><time>2026-05-05T11:07:12Z</time></trkpt><trkpt lat="30.882756310569537" lon="-5.903556365659832"><ele>1057.0</ele><time>2026-05-05T11:07:13Z</time></trkpt><trkpt lat="30.882619525681136" lon="-5.9034474750055095"><ele>1057.0</ele><time>2026-05-05T11:07:14Z</time></trkpt><trkpt lat="30.88248180024046" lon="-5.903342772556192"><ele>1057.0</ele><time>2026-05-05T11:07:15Z</time></trkpt><trkpt lat="30.88233575088385" lon="-5.903241512384178"><ele>1057.0</ele><time>2026-05-05T11:07:16Z</time></trkpt><trkpt lat="30.882215692384698" lon="-5.903123802188923"><ele>1057.0</ele><time>2026-05-05T11:07:17Z</time></trkpt><trkpt lat="30.88207639773214" lon="-5.903022068776276"><ele>1057.0</ele><time>2026-05-05T11:07:18Z</time></trkpt><trkpt lat="30.881933633348908" lon="-5.9029254112819345"><ele>1057.0</ele><time>2026-05-05T11:07:19Z</time></trkpt><trkpt lat="30.8817935558991" lon="-5.902823815867828"><ele>1057.0</ele><time>2026-05-05T11:07:20Z</time></trkpt><trkpt lat="30.881647948730905" lon="-5.9027258473577096"><ele>1057.0</ele><time>2026-05-05T11:07:21Z</time></trkpt><trkpt lat="30.881505024543486" lon="-5.902637009199033"><ele>1057.0</ele><time>2026-05-05T11:07:22Z</time></trkpt><trkpt lat="30.881373438792252" lon="-5.902551897093318"><ele>1056.75</ele><time>2026-05-05T11:07:23Z</time></trkpt><trkpt lat="30.88124585455468" lon="-5.9024729813032115"><ele>1056.5</ele><time>2026-05-05T11:07:24Z</time></trkpt><trkpt lat="30.881119973024457" lon="-5.902398577163372"><ele>1056.25</ele><time>2026-05-05T11:07:25Z</time></trkpt><trkpt lat="30.880990380678575" lon="-5.902323836842724"><ele>1056.0</ele><time>2026-05-05T11:07:26Z</time></trkpt><trkpt lat="30.88085072890321" lon="-5.902251866819274"><ele>1055.6666666666667</ele><time>2026-05-05T11:07:27Z</time></trkpt><trkpt lat="30.880712980239004" lon="-5.902185725539428"><ele>1055.3333333333335</ele><time>2026-05-05T11:07:28Z</time></trkpt><trkpt lat="30.88057622034973" lon="-5.90210539845494"><ele>1055.0</ele><time>2026-05-05T11:07:29Z</time></trkpt><trkpt lat="30.880445011960905" lon="-5.902022908176265"><ele>1055.0</ele><time>2026-05-05T11:07:30Z</time></trkpt><trkpt lat="30.88031254001973" lon="-5.901949599800153"><ele>1055.0</ele><time>2026-05-05T11:07:31Z</time></trkpt><trkpt lat="30.880172898494568" lon="-5.901886736132441"><ele>1055.0</ele><time>2026-05-05T11:07:32Z</time></trkpt><trkpt lat="30.880015243245733" lon="-5.901831059030792"><ele>1055.0</ele><time>2026-05-05T11:07:33Z</time></trkpt><trkpt lat="30.87985277356725" lon="-5.90176839771354"><ele>1055.0</ele><time>2026-05-05T11:07:34Z</time></trkpt><trkpt lat="30.87968896337514" lon="-5.9017066411585954"><ele>1055.0</ele><time>2026-05-05T11:07:35Z</time></trkpt><trkpt lat="30.87952828475958" lon="-5.901650430356588"><ele>1055.0</ele><time>2026-05-05T11:07:36Z</time></trkpt><trkpt lat="30.879361285169143" lon="-5.901600560316461"><ele>1055.0</ele><time>2026-05-05T11:07:37Z</time></trkpt><trkpt lat="30.879195459282652" lon="-5.901550585681026"><ele>1055.0</ele><time>2026-05-05T11:07:38Z</time></trkpt><trkpt lat="30.879037826311087" lon="-5.901499141411763"><ele>1055.3333333333335</ele><time>2026-05-05T11:07:39Z</time></trkpt><trkpt lat="30.87888734371955" lon="-5.901444974588676"><ele>1055.6666666666667</ele><time>2026-05-05T11:07:40Z</time></trkpt><trkpt lat="30.87873565181792" lon="-5.901382451497788"><ele>1056.0</ele><time>2026-05-05T11:07:41Z</time></trkpt><trkpt lat="30.878582725763906" lon="-5.901325098808052"><ele>1055.3333333333333</ele><time>2026-05-05T11:07:42Z</time></trkpt><trkpt lat="30.87843148619806" lon="-5.901267683642436"><ele>1054.6666666666665</ele><time>2026-05-05T11:07:43Z</time></trkpt><trkpt lat="30.878276497987898" lon="-5.901213919100722"><ele>1054.0</ele><time>2026-05-05T11:07:44Z</time></trkpt><trkpt lat="30.878117800902494" lon="-5.9011654011270895"><ele>1054.0</ele><time>2026-05-05T11:07:45Z</time></trkpt><trkpt lat="30.877961430750414" lon="-5.901119127045039"><ele>1054.0</ele><time>2026-05-05T11:07:46Z</time></trkpt><trkpt lat="30.87780460418283" lon="-5.901066133898916"><ele>1054.0</ele><time>2026-05-05T11:07:47Z</time></trkpt><trkpt lat="30.877647728468222" lon="-5.901010226866747"><ele>1053.6666666666665</ele><time>2026-05-05T11:07:48Z</time></trkpt><trkpt lat="30.877496602762665" lon="-5.900959682224912"><ele>1053.3333333333333</ele><time>2026-05-05T11:07:49Z</time></trkpt><trkpt lat="30.87734286815258" lon="-5.900908968028214"><ele>1053.0</ele><time>2026-05-05T11:07:50Z</time></trkpt><trkpt lat="30.877184931037103" lon="-5.900860946226829"><ele>1052.6666666666667</ele><time>2026-05-05T11:07:51Z</time></trkpt><trkpt lat="30.877030882359104" lon="-5.900806779633577"><ele>1052.3333333333335</ele><time>2026-05-05T11:07:52Z</time></trkpt><trkpt lat="30.87687163253128" lon="-5.900748728111012"><ele>1052.0</ele><time>2026-05-05T11:07:53Z</time></trkpt><trkpt lat="30.876713255871678" lon="-5.9006975539314235"><ele>1052.0</ele><time>2026-05-05T11:07:54Z</time></trkpt><trkpt lat="30.876555933995927" lon="-5.90064162116361"><ele>1052.0</ele><time>2026-05-05T11:07:55Z</time></trkpt><trkpt lat="30.876405680211505" lon="-5.900580048936937"><ele>1052.0</ele><time>2026-05-05T11:07:56Z</time></trkpt><trkpt lat="30.876255605272984" lon="-5.9005163368034665"><ele>1052.0</ele><time>2026-05-05T11:07:57Z</time></trkpt><trkpt lat="30.876106089368324" lon="-5.900453011903023"><ele>1052.0</ele><time>2026-05-05T11:07:58Z</time></trkpt><trkpt lat="30.87595709884786" lon="-5.900382175532769"><ele>1052.0</ele><time>2026-05-05T11:07:59Z</time></trkpt><trkpt lat="30.875813057238023" lon="-5.900308252511523"><ele>1052.3333333333335</ele><time>2026-05-05T11:08:00Z</time></trkpt><trkpt lat="30.87567113713198" lon="-5.9002270011934375"><ele>1052.6666666666667</ele><time>2026-05-05T11:08:01Z</time></trkpt><trkpt lat="30.87553191381651" lon="-5.900139986810249"><ele>1053.0</ele><time>2026-05-05T11:08:02Z</time></trkpt><trkpt lat="30.875392542757552" lon="-5.900048933910379"><ele>1052.3333333333333</ele><time>2026-05-05T11:08:03Z</time></trkpt><trkpt lat="30.87525972192089" lon="-5.899953603175485"><ele>1051.6666666666665</ele><time>2026-05-05T11:08:04Z</time></trkpt><trkpt lat="30.875128988917613" lon="-5.8998482117331355"><ele>1051.0</ele><time>2026-05-05T11:08:05Z</time></trkpt><trkpt lat="30.87500290440279" lon="-5.899739415203005"><ele>1051.0</ele><time>2026-05-05T11:08:06Z</time></trkpt><trkpt lat="30.874882816508528" lon="-5.899622341662912"><ele>1051.0</ele><time>2026-05-05T11:08:07Z</time></trkpt><trkpt lat="30.874763590295338" lon="-5.899505441757648"><ele>1051.0</ele><time>2026-05-05T11:08:08Z</time></trkpt><trkpt lat="30.87464650831823" lon="-5.899387657959711"><ele>1051.0</ele><time>2026-05-05T11:08:09Z</time></trkpt><trkpt lat="30.87452904607512" lon="-5.899268181673849"><ele>1051.0</ele><time>2026-05-05T11:08:10Z</time></trkpt><trkpt lat="30.874412938665905" lon="-5.899149616499269"><ele>1051.0</ele><time>2026-05-05T11:08:11Z</time></trkpt><trkpt lat="30.87429569405649" lon="-5.899030376489871"><ele>1051.6666666666665</ele><time>2026-05-05T11:08:12Z</time></trkpt><trkpt lat="30.874185042276917" lon="-5.898901753432645"><ele>1052.3333333333333</ele><time>2026-05-05T11:08:13Z</time></trkpt><trkpt lat="30.874070491142724" lon="-5.898777837036608"><ele>1053.0</ele><time>2026-05-05T11:08:14Z</time></trkpt><trkpt lat="30.87395613301992" lon="-5.898651762896648"><ele>1053.0</ele><time>2026-05-05T11:08:15Z</time></trkpt><trkpt lat="30.87383971182459" lon="-5.898523185481547"><ele>1053.0</ele><time>2026-05-05T11:08:16Z</time></trkpt><trkpt lat="30.873725563045845" lon="-5.898393868544225"><ele>1053.0</ele><time>2026-05-05T11:08:17Z</time></trkpt><trkpt lat="30.873608282259767" lon="-5.898264120716667"><ele>1052.0</ele><time>2026-05-05T11:08:18Z</time></trkpt><trkpt lat="30.87349198315199" lon="-5.898137264698904"><ele>1051.0</ele><time>2026-05-05T11:08:19Z</time></trkpt><trkpt lat="30.87337507982655" lon="-5.898009383854234"><ele>1050.0</ele><time>2026-05-05T11:08:20Z</time></trkpt><trkpt lat="30.87325732952688" lon="-5.897882409119543"><ele>1049.6666666666667</ele><time>2026-05-05T11:08:21Z</time></trkpt><trkpt lat="30.8731402457811" lon="-5.897754396719174"><ele>1049.3333333333335</ele><time>2026-05-05T11:08:22Z</time></trkpt><trkpt lat="30.873024515625858" lon="-5.897625178491027"><ele>1049.0</ele><time>2026-05-05T11:08:23Z</time></trkpt><trkpt lat="30.87290925425521" lon="-5.897496021882932"><ele>1049.0</ele><time>2026-05-05T11:08:24Z</time></trkpt><trkpt lat="30.87277714043747" lon="-5.897383590569554"><ele>1049.0</ele><time>2026-05-05T11:08:25Z</time></trkpt><trkpt lat="30.87265828489739" lon="-5.897253578914078"><ele>1049.0</ele><time>2026-05-05T11:08:26Z</time></trkpt><trkpt lat="30.87253830408086" lon="-5.8971224779274225"><ele>1049.0</ele><time>2026-05-05T11:08:27Z</time></trkpt><trkpt lat="30.872412851571678" lon="-5.896993642994431"><ele>1049.0</ele><time>2026-05-05T11:08:28Z</time></trkpt><trkpt lat="30.872290564885052" lon="-5.896852649249497"><ele>1049.0</ele><time>2026-05-05T11:08:29Z</time></trkpt><trkpt lat="30.872145975761388" lon="-5.8967288158735425"><ele>1048.6666666666667</ele><time>2026-05-05T11:08:30Z</time></trkpt><trkpt lat="30.871997770535913" lon="-5.896594102225715"><ele>1048.3333333333333</ele><time>2026-05-05T11:08:31Z</time></trkpt><trkpt lat="30.871848683512496" lon="-5.8964500335773025"><ele>1048.0</ele><time>2026-05-05T11:08:32Z</time></trkpt><trkpt lat="30.8716956438427" lon="-5.896310845269193"><ele>1048.0</ele><time>2026-05-05T11:08:33Z</time></trkpt><trkpt lat="30.871540071238755" lon="-5.8961720597237"><ele>1048.0</ele><time>2026-05-05T11:08:34Z</time></trkpt><trkpt lat="30.87138412343672" lon="-5.896031264112971"><ele>1048.0</ele><time>2026-05-05T11:08:35Z</time></trkpt><trkpt lat="30.871227466545115" lon="-5.89588891582547"><ele>1047.6666666666665</ele><time>2026-05-05T11:08:36Z</time></trkpt><trkpt lat="30.8710719575133" lon="-5.8957476589115965"><ele>1047.3333333333333</ele><time>2026-05-05T11:08:37Z</time></trkpt><trkpt lat="30.870917135539912" lon="-5.895606471053794"><ele>1047.0</ele><time>2026-05-05T11:08:38Z</time></trkpt><trkpt lat="30.870764576583426" lon="-5.895463940546893"><ele>1047.0</ele><time>2026-05-05T11:08:39Z</time></trkpt><trkpt lat="30.870599384608013" lon="-5.895338740421929"><ele>1047.0</ele><time>2026-05-05T11:08:40Z</time></trkpt><trkpt lat="30.870439892669065" lon="-5.895194003070058"><ele>1047.0</ele><time>2026-05-05T11:08:41Z</time></trkpt><trkpt lat="30.870284438142946" lon="-5.895051301337871"><ele>1046.6666666666667</ele><time>2026-05-05T11:08:42Z</time></trkpt><trkpt lat="30.870132040750047" lon="-5.894911405942818"><ele>1046.3333333333335</ele><time>2026-05-05T11:08:43Z</time></trkpt><trkpt lat="30.86997756308403" lon="-5.894776298199703"><ele>1046.0</ele><time>2026-05-05T11:08:44Z</time></trkpt><trkpt lat="30.869821239701896" lon="-5.894645539638088"><ele>1046.0</ele><time>2026-05-05T11:08:45Z</time></trkpt><trkpt lat="30.869666047978804" lon="-5.894507808802386"><ele>1046.0</ele><time>2026-05-05T11:08:46Z</time></trkpt><trkpt lat="30.869516877075892" lon="-5.894368141062708"><ele>1046.0</ele><time>2026-05-05T11:08:47Z</time></trkpt><trkpt lat="30.869368691480542" lon="-5.894229386501862"><ele>1045.3333333333335</ele><time>2026-05-05T11:08:48Z</time></trkpt><trkpt lat="30.869221342576854" lon="-5.89409140364642"><ele>1044.6666666666667</ele><time>2026-05-05T11:08:49Z</time></trkpt><trkpt lat="30.869084907865783" lon="-5.893939498566835"><ele>1044.0</ele><time>2026-05-05T11:08:50Z</time></trkpt><trkpt lat="30.86893683521694" lon="-5.893805437779588"><ele>1044.0</ele><time>2026-05-05T11:08:51Z</time></trkpt><trkpt lat="30.868786122494054" lon="-5.893678634025423"><ele>1044.0</ele><time>2026-05-05T11:08:52Z</time></trkpt><trkpt lat="30.868631618384764" lon="-5.893564816156373"><ele>1044.0</ele><time>2026-05-05T11:08:53Z</time></trkpt><trkpt lat="30.868471779907857" lon="-5.893457764390062"><ele>1043.6666666666667</ele><time>2026-05-05T11:08:54Z</time></trkpt><trkpt lat="30.86830975496488" lon="-5.893353166269648"><ele>1043.3333333333335</ele><time>2026-05-05T11:08:55Z</time></trkpt><trkpt lat="30.86813613254178" lon="-5.89328533530002"><ele>1043.0</ele><time>2026-05-05T11:08:56Z</time></trkpt><trkpt lat="30.867968369077357" lon="-5.893197195915774"><ele>1043.0</ele><time>2026-05-05T11:08:57Z</time></trkpt><trkpt lat="30.86780687047057" lon="-5.893112267815692"><ele>1043.0</ele><time>2026-05-05T11:08:58Z</time></trkpt><trkpt lat="30.867652040331162" lon="-5.893020085889008"><ele>1043.0</ele><time>2026-05-05T11:08:59Z</time></trkpt><trkpt lat="30.867491232392364" lon="-5.892957562041809"><ele>1043.3333333333335</ele><time>2026-05-05T11:09:00Z</time></trkpt><trkpt lat="30.86733155189247" lon="-5.8929023302668915"><ele>1043.6666666666667</ele><time>2026-05-05T11:09:01Z</time></trkpt><trkpt lat="30.86717489057163" lon="-5.892853276009406"><ele>1044.0</ele><time>2026-05-05T11:09:02Z</time></trkpt><trkpt lat="30.867019047032066" lon="-5.892814552145218"><ele>1044.0</ele><time>2026-05-05T11:09:03Z</time></trkpt><trkpt lat="30.866866563628054" lon="-5.892779882575449"><ele>1044.0</ele><time>2026-05-05T11:09:04Z</time></trkpt><trkpt lat="30.86671730183587" lon="-5.892772097380265"><ele>1044.0</ele><time>2026-05-05T11:09:05Z</time></trkpt><trkpt lat="30.866568645911165" lon="-5.892789710629003"><ele>1043.3333333333333</ele><time>2026-05-05T11:09:06Z</time></trkpt><trkpt lat="30.866419411160724" lon="-5.892821547411754"><ele>1042.6666666666665</ele><time>2026-05-05T11:09:07Z</time></trkpt><trkpt lat="30.866269969136862" lon="-5.8928587958362835"><ele>1042.0</ele><time>2026-05-05T11:09:08Z</time></trkpt><trkpt lat="30.866119794805524" lon="-5.892909772198894"><ele>1042.0</ele><time>2026-05-05T11:09:09Z</time></trkpt><trkpt lat="30.865972331866708" lon="-5.892945185275439"><ele>1042.0</ele><time>2026-05-05T11:09:10Z</time></trkpt><trkpt lat="30.865842167079474" lon="-5.892989964998722"><ele>1042.0</ele><time>2026-05-05T11:09:11Z</time></trkpt><trkpt lat="30.86571206772116" lon="-5.893012286293888"><ele>1042.0</ele><time>2026-05-05T11:09:12Z</time></trkpt><trkpt lat="30.865578961148714" lon="-5.893032947724751"><ele>1041.75</ele><time>2026-05-05T11:09:13Z</time></trkpt><trkpt lat="30.865451799378345" lon="-5.893052686363469"><ele>1041.5</ele><time>2026-05-05T11:09:14Z</time></trkpt><trkpt lat="30.865330672286714" lon="-5.893015173717344"><ele>1041.25</ele><time>2026-05-05T11:09:15Z</time></trkpt><trkpt lat="30.865196516459346" lon="-5.892982742912261"><ele>1041.0</ele><time>2026-05-05T11:09:16Z</time></trkpt><trkpt lat="30.86505758552044" lon="-5.892914526306656"><ele>1041.0</ele><time>2026-05-05T11:09:17Z</time></trkpt><trkpt lat="30.864917594371587" lon="-5.892840369606432"><ele>1041.0</ele><time>2026-05-05T11:09:18Z</time></trkpt><trkpt lat="30.86477605009007" lon="-5.892767717480938"><ele>1041.0</ele><time>2026-05-05T11:09:19Z</time></trkpt><trkpt lat="30.86462705564183" lon="-5.89269387211271"><ele>1041.0</ele><time>2026-05-05T11:09:20Z</time></trkpt><trkpt lat="30.86448240043401" lon="-5.892619341626845"><ele>1041.0</ele><time>2026-05-05T11:09:21Z</time></trkpt><trkpt lat="30.864342619659624" lon="-5.892567296047398"><ele>1041.0</ele><time>2026-05-05T11:09:22Z</time></trkpt><trkpt lat="30.864220156482823" lon="-5.892504102834877"><ele>1041.0</ele><time>2026-05-05T11:09:23Z</time></trkpt><trkpt lat="30.864099159312822" lon="-5.8924416661136485"><ele>1040.75</ele><time>2026-05-05T11:09:24Z</time></trkpt><trkpt lat="30.863982187888013" lon="-5.892366848684543"><ele>1040.5</ele><time>2026-05-05T11:09:25Z</time></trkpt><trkpt lat="30.863841741354133" lon="-5.892300426781804"><ele>1040.25</ele><time>2026-05-05T11:09:26Z</time></trkpt><trkpt lat="30.863693198133625" lon="-5.892226064566956"><ele>1040.0</ele><time>2026-05-05T11:09:27Z</time></trkpt><trkpt lat="30.863540338339728" lon="-5.892147877710877"><ele>1040.0</ele><time>2026-05-05T11:09:28Z</time></trkpt><trkpt lat="30.863394153605828" lon="-5.892075910934336"><ele>1040.0</ele><time>2026-05-05T11:09:29Z</time></trkpt><trkpt lat="30.863260010154402" lon="-5.892010943888805"><ele>1040.0</ele><time>2026-05-05T11:09:30Z</time></trkpt><trkpt lat="30.86312787968394" lon="-5.891944323235782"><ele>1040.0</ele><time>2026-05-05T11:09:31Z</time></trkpt><trkpt lat="30.862998408356916" lon="-5.8918746575733705"><ele>1040.0</ele><time>2026-05-05T11:09:32Z</time></trkpt><trkpt lat="30.862863563769455" lon="-5.891801443345785"><ele>1040.0</ele><time>2026-05-05T11:09:33Z</time></trkpt><trkpt lat="30.862726699639275" lon="-5.891727068129236"><ele>1040.0</ele><time>2026-05-05T11:09:34Z</time></trkpt><trkpt lat="30.86258795644479" lon="-5.89164870237373"><ele>1039.6666666666667</ele><time>2026-05-05T11:09:35Z</time></trkpt><trkpt lat="30.8624452702305" lon="-5.891567126073779"><ele>1039.3333333333333</ele><time>2026-05-05T11:09:36Z</time></trkpt><trkpt lat="30.862306155145998" lon="-5.891487014906275"><ele>1039.0</ele><time>2026-05-05T11:09:37Z</time></trkpt><trkpt lat="30.862170213209897" lon="-5.891408694350664"><ele>1039.0</ele><time>2026-05-05T11:09:38Z</time></trkpt><trkpt lat="30.86203986809803" lon="-5.891335445814979"><ele>1039.0</ele><time>2026-05-05T11:09:39Z</time></trkpt><trkpt lat="30.861906664131087" lon="-5.891261426420937"><ele>1039.0</ele><time>2026-05-05T11:09:40Z</time></trkpt><trkpt lat="30.86177302622375" lon="-5.891185983983921"><ele>1039.0</ele><time>2026-05-05T11:09:41Z</time></trkpt><trkpt lat="30.86163710185166" lon="-5.891110574013862"><ele>1039.0</ele><time>2026-05-05T11:09:42Z</time></trkpt><trkpt lat="30.86150071693961" lon="-5.891038255945246"><ele>1039.0</ele><time>2026-05-05T11:09:43Z</time></trkpt><trkpt lat="30.861368053823544" lon="-5.890966753365268"><ele>1039.0</ele><time>2026-05-05T11:09:44Z</time></trkpt><trkpt lat="30.861239994019833" lon="-5.890896754079214"><ele>1039.0</ele><time>2026-05-05T11:09:45Z</time></trkpt><trkpt lat="30.861114423299398" lon="-5.890835957117624"><ele>1038.75</ele><time>2026-05-05T11:09:46Z</time></trkpt><trkpt lat="30.860996284162734" lon="-5.890780730015683"><ele>1038.5</ele><time>2026-05-05T11:09:47Z</time></trkpt><trkpt lat="30.86088348186871" lon="-5.89072585997383"><ele>1038.25</ele><time>2026-05-05T11:09:48Z</time></trkpt><trkpt lat="30.860778369076844" lon="-5.890674476332719"><ele>1038.0</ele><time>2026-05-05T11:09:49Z</time></trkpt><trkpt lat="30.86068166202362" lon="-5.890632359668805"><ele>1037.8333333333333</ele><time>2026-05-05T11:09:50Z</time></trkpt><trkpt lat="30.860594915915943" lon="-5.890592737844422"><ele>1037.6666666666667</ele><time>2026-05-05T11:09:51Z</time></trkpt><trkpt lat="30.860523028044778" lon="-5.890560883380611"><ele>1037.5</ele><time>2026-05-05T11:09:52Z</time></trkpt><trkpt lat="30.86046278293807" lon="-5.89053119861072"><ele>1037.3333333333335</ele><time>2026-05-05T11:09:53Z</time></trkpt><trkpt lat="30.860377594023888" lon="-5.890502040915368"><ele>1037.1666666666667</ele><time>2026-05-05T11:09:55Z</time></trkpt><trkpt lat="30.860269601490995" lon="-5.890572962649626"><ele>1037.0</ele><time>2026-05-05T11:09:58Z</time></trkpt><trkpt lat="30.86023419823724" lon="-5.89063469498031"><ele>1037.0</ele><time>2026-05-05T11:09:59Z</time></trkpt><trkpt lat="30.86020867175355" lon="-5.890730248581848"><ele>1037.0</ele><time>2026-05-05T11:10:00Z</time></trkpt><trkpt lat="30.860184181982895" lon="-5.890824496036515"><ele>1037.0</ele><time>2026-05-05T11:10:01Z</time></trkpt><trkpt lat="30.86015499730748" lon="-5.8909269717982"><ele>1037.0</ele><time>2026-05-05T11:10:02Z</time></trkpt><trkpt lat="30.860106260466818" lon="-5.891051875110892"><ele>1037.0</ele><time>2026-05-05T11:10:03Z</time></trkpt><trkpt lat="30.860056261636995" lon="-5.891197975698873"><ele>1036.75</ele><time>2026-05-05T11:10:04Z</time></trkpt><trkpt lat="30.860006259925616" lon="-5.891355682160258"><ele>1036.5</ele><time>2026-05-05T11:10:05Z</time></trkpt><trkpt lat="30.859959303080373" lon="-5.891497008713397"><ele>1036.25</ele><time>2026-05-05T11:10:06Z</time></trkpt><trkpt lat="30.859911984235367" lon="-5.891643674467859"><ele>1036.0</ele><time>2026-05-05T11:10:07Z</time></trkpt><trkpt lat="30.859855476332356" lon="-5.8918007539322845"><ele>1036.0</ele><time>2026-05-05T11:10:08Z</time></trkpt><trkpt lat="30.85979738871751" lon="-5.891969368714227"><ele>1036.0</ele><time>2026-05-05T11:10:09Z</time></trkpt><trkpt lat="30.859739945245522" lon="-5.892146340903984"><ele>1036.0</ele><time>2026-05-05T11:10:10Z</time></trkpt><trkpt lat="30.859683112453162" lon="-5.892323642617001"><ele>1036.0</ele><time>2026-05-05T11:10:11Z</time></trkpt><trkpt lat="30.859618595056073" lon="-5.892513909094491"><ele>1036.0</ele><time>2026-05-05T11:10:12Z</time></trkpt><trkpt lat="30.859553610070197" lon="-5.892706468687732"><ele>1036.0</ele><time>2026-05-05T11:10:13Z</time></trkpt><trkpt lat="30.859491290369427" lon="-5.892896815543696"><ele>1036.6666666666665</ele><time>2026-05-05T11:10:14Z</time></trkpt><trkpt lat="30.85942421978019" lon="-5.8930894962105755"><ele>1037.3333333333333</ele><time>2026-05-05T11:10:15Z</time></trkpt><trkpt lat="30.85935690674567" lon="-5.8932918527895914"><ele>1038.0</ele><time>2026-05-05T11:10:16Z</time></trkpt><trkpt lat="30.859288440525543" lon="-5.893502342039782"><ele>1038.3333333333333</ele><time>2026-05-05T11:10:17Z</time></trkpt><trkpt lat="30.85921610278734" lon="-5.893717993626171"><ele>1038.6666666666665</ele><time>2026-05-05T11:10:18Z</time></trkpt><trkpt lat="30.859143533649576" lon="-5.893936363962656"><ele>1039.0</ele><time>2026-05-05T11:10:19Z</time></trkpt><trkpt lat="30.859069589780816" lon="-5.89416112417256"><ele>1040.0</ele><time>2026-05-05T11:10:20Z</time></trkpt><trkpt lat="30.858993056715374" lon="-5.894389975901565"><ele>1041.0</ele><time>2026-05-05T11:10:21Z</time></trkpt><trkpt lat="30.8589167331559" lon="-5.894622414003709"><ele>1042.0</ele><time>2026-05-05T11:10:22Z</time></trkpt><trkpt lat="30.858838783513253" lon="-5.894860763644947"><ele>1042.3333333333333</ele><time>2026-05-05T11:10:23Z</time></trkpt><trkpt lat="30.85875978800587" lon="-5.8950963787569926"><ele>1042.6666666666667</ele><time>2026-05-05T11:10:24Z</time></trkpt><trkpt lat="30.858677768147114" lon="-5.895336609786709"><ele>1043.0</ele><time>2026-05-05T11:10:25Z</time></trkpt><trkpt lat="30.858599744007012" lon="-5.895577561142405"><ele>1043.0</ele><time>2026-05-05T11:10:26Z</time></trkpt><trkpt lat="30.858519845567717" lon="-5.895820613192926"><ele>1043.0</ele><time>2026-05-05T11:10:27Z</time></trkpt><trkpt lat="30.858438975934504" lon="-5.896067875644443"><ele>1043.0</ele><time>2026-05-05T11:10:28Z</time></trkpt><trkpt lat="30.858356238601804" lon="-5.896312491131598"><ele>1043.0</ele><time>2026-05-05T11:10:29Z</time></trkpt><trkpt lat="30.858268669999287" lon="-5.8965526138516005"><ele>1043.3333333333335</ele><time>2026-05-05T11:10:30Z</time></trkpt><trkpt lat="30.858185864330206" lon="-5.8967895495572975"><ele>1043.6666666666667</ele><time>2026-05-05T11:10:31Z</time></trkpt><trkpt lat="30.85810730377268" lon="-5.897025076289584"><ele>1044.0</ele><time>2026-05-05T11:10:32Z</time></trkpt><trkpt lat="30.85802967045835" lon="-5.897255213977115"><ele>1044.0</ele><time>2026-05-05T11:10:33Z</time></trkpt><trkpt lat="30.85795603732905" lon="-5.89747460481267"><ele>1044.0</ele><time>2026-05-05T11:10:34Z</time></trkpt><trkpt lat="30.85788409908454" lon="-5.897693634238269"><ele>1044.0</ele><time>2026-05-05T11:10:35Z</time></trkpt><trkpt lat="30.857809569221036" lon="-5.897916015887618"><ele>1043.6666666666667</ele><time>2026-05-05T11:10:36Z</time></trkpt><trkpt lat="30.85773348025567" lon="-5.898142439031925"><ele>1043.3333333333335</ele><time>2026-05-05T11:10:37Z</time></trkpt><trkpt lat="30.85765779149345" lon="-5.8983668988352695"><ele>1043.0</ele><time>2026-05-05T11:10:38Z</time></trkpt><trkpt lat="30.857582335689774" lon="-5.898595108004843"><ele>1043.0</ele><time>2026-05-05T11:10:39Z</time></trkpt><trkpt lat="30.85750546400442" lon="-5.898825869191382"><ele>1043.0</ele><time>2026-05-05T11:10:40Z</time></trkpt><trkpt lat="30.8574257352067" lon="-5.899053614245691"><ele>1043.0</ele><time>2026-05-05T11:10:41Z</time></trkpt><trkpt lat="30.857340297832508" lon="-5.899284520989715"><ele>1043.6666666666667</ele><time>2026-05-05T11:10:42Z</time></trkpt><trkpt lat="30.85724995051088" lon="-5.899511083068528"><ele>1044.3333333333333</ele><time>2026-05-05T11:10:43Z</time></trkpt><trkpt lat="30.857154041124044" lon="-5.899738261188321"><ele>1045.0</ele><time>2026-05-05T11:10:44Z</time></trkpt><trkpt lat="30.857059747783037" lon="-5.899969582247547"><ele>1045.3333333333333</ele><time>2026-05-05T11:10:45Z</time></trkpt><trkpt lat="30.856964834053414" lon="-5.900198298547099"><ele>1045.6666666666667</ele><time>2026-05-05T11:10:46Z</time></trkpt><trkpt lat="30.856867430398115" lon="-5.900426799034241"><ele>1046.0</ele><time>2026-05-05T11:10:47Z</time></trkpt><trkpt lat="30.856769030134743" lon="-5.900654916643682"><ele>1046.0</ele><time>2026-05-05T11:10:48Z</time></trkpt><trkpt lat="30.856672483387733" lon="-5.900887176932243"><ele>1046.0</ele><time>2026-05-05T11:10:49Z</time></trkpt><trkpt lat="30.856574576674504" lon="-5.901116073012367"><ele>1046.0</ele><time>2026-05-05T11:10:50Z</time></trkpt><trkpt lat="30.856475785212897" lon="-5.901345153938745"><ele>1045.6666666666667</ele><time>2026-05-05T11:10:51Z</time></trkpt><trkpt lat="30.856375768176804" lon="-5.901571810465578"><ele>1045.3333333333333</ele><time>2026-05-05T11:10:52Z</time></trkpt><trkpt lat="30.85627591606514" lon="-5.901798426093309"><ele>1045.0</ele><time>2026-05-05T11:10:53Z</time></trkpt><trkpt lat="30.8561794523832" lon="-5.902031601042815"><ele>1044.6666666666665</ele><time>2026-05-05T11:10:54Z</time></trkpt><trkpt lat="30.856088080945064" lon="-5.902262468274991"><ele>1044.3333333333333</ele><time>2026-05-05T11:10:55Z</time></trkpt><trkpt lat="30.856003011905685" lon="-5.90249561895699"><ele>1044.0</ele><time>2026-05-05T11:10:56Z</time></trkpt><trkpt lat="30.855909809067523" lon="-5.902727681125599"><ele>1044.0</ele><time>2026-05-05T11:10:57Z</time></trkpt><trkpt lat="30.855811403700475" lon="-5.902956875636759"><ele>1044.0</ele><time>2026-05-05T11:10:58Z</time></trkpt><trkpt lat="30.855713139727413" lon="-5.903189014400487"><ele>1044.0</ele><time>2026-05-05T11:10:59Z</time></trkpt><trkpt lat="30.8556143353424" lon="-5.9034223059774975"><ele>1043.6666666666667</ele><time>2026-05-05T11:11:00Z</time></trkpt><trkpt lat="30.855515828199145" lon="-5.903655826371149"><ele>1043.3333333333335</ele><time>2026-05-05T11:11:01Z</time></trkpt><trkpt lat="30.855418018572976" lon="-5.903887927619734"><ele>1043.0</ele><time>2026-05-05T11:11:02Z</time></trkpt><trkpt lat="30.855320100280746" lon="-5.904120324114555"><ele>1043.6666666666667</ele><time>2026-05-05T11:11:03Z</time></trkpt><trkpt lat="30.855224329576178" lon="-5.904348239879404"><ele>1044.3333333333333</ele><time>2026-05-05T11:11:04Z</time></trkpt><trkpt lat="30.85512900428386" lon="-5.904579338729183"><ele>1045.0</ele><time>2026-05-05T11:11:05Z</time></trkpt><trkpt lat="30.85503373655999" lon="-5.904805760160049"><ele>1045.0</ele><time>2026-05-05T11:11:06Z</time></trkpt><trkpt lat="30.85494301847365" lon="-5.905035154995825"><ele>1045.0</ele><time>2026-05-05T11:11:07Z</time></trkpt><trkpt lat="30.85484936618148" lon="-5.905256404997313"><ele>1045.0</ele><time>2026-05-05T11:11:08Z</time></trkpt><trkpt lat="30.85475336822866" lon="-5.905477537902973"><ele>1045.6666666666665</ele><time>2026-05-05T11:11:09Z</time></trkpt><trkpt lat="30.854642029242196" lon="-5.905688761596508"><ele>1046.3333333333333</ele><time>2026-05-05T11:11:10Z</time></trkpt><trkpt lat="30.854561575631923" lon="-5.9059206664952555"><ele>1047.0</ele><time>2026-05-05T11:11:11Z</time></trkpt><trkpt lat="30.854462342325313" lon="-5.9061437323648445"><ele>1047.3333333333333</ele><time>2026-05-05T11:11:12Z</time></trkpt><trkpt lat="30.854366561762273" lon="-5.90636991039469"><ele>1047.6666666666665</ele><time>2026-05-05T11:11:13Z</time></trkpt><trkpt lat="30.854273322111325" lon="-5.906599218444473"><ele>1048.0</ele><time>2026-05-05T11:11:14Z</time></trkpt><trkpt lat="30.85417738014784" lon="-5.906827526584277"><ele>1048.0</ele><time>2026-05-05T11:11:15Z</time></trkpt><trkpt lat="30.85407900910955" lon="-5.90705808289514"><ele>1048.0</ele><time>2026-05-05T11:11:16Z</time></trkpt><trkpt lat="30.853982577219412" lon="-5.907288909975618"><ele>1048.0</ele><time>2026-05-05T11:11:17Z</time></trkpt><trkpt lat="30.8538951874814" lon="-5.907522527809512"><ele>1048.3333333333333</ele><time>2026-05-05T11:11:18Z</time></trkpt><trkpt lat="30.85382132416132" lon="-5.907759495049498"><ele>1048.6666666666667</ele><time>2026-05-05T11:11:19Z</time></trkpt><trkpt lat="30.85376220030176" lon="-5.908003068833201"><ele>1049.0</ele><time>2026-05-05T11:11:20Z</time></trkpt><trkpt lat="30.853705757366175" lon="-5.908247221581698"><ele>1049.3333333333335</ele><time>2026-05-05T11:11:21Z</time></trkpt><trkpt lat="30.853652076487023" lon="-5.908491091368256"><ele>1049.6666666666667</ele><time>2026-05-05T11:11:22Z</time></trkpt><trkpt lat="30.853605415938514" lon="-5.908740166367308"><ele>1050.0</ele><time>2026-05-05T11:11:23Z</time></trkpt><trkpt lat="30.853569188866906" lon="-5.908990851076756"><ele>1050.3333333333333</ele><time>2026-05-05T11:11:24Z</time></trkpt><trkpt lat="30.85354313792081" lon="-5.909245508747714"><ele>1050.6666666666665</ele><time>2026-05-05T11:11:25Z</time></trkpt><trkpt lat="30.85352582482559" lon="-5.909497869430765"><ele>1051.0</ele><time>2026-05-05T11:11:26Z</time></trkpt><trkpt lat="30.8535134809096" lon="-5.909752364143217"><ele>1051.0</ele><time>2026-05-05T11:11:27Z</time></trkpt><trkpt lat="30.853502276621327" lon="-5.910006231140207"><ele>1051.0</ele><time>2026-05-05T11:11:28Z</time></trkpt><trkpt lat="30.853499552775716" lon="-5.910257141705218"><ele>1051.0</ele><time>2026-05-05T11:11:29Z</time></trkpt><trkpt lat="30.853499893642994" lon="-5.910509067637581"><ele>1051.0</ele><time>2026-05-05T11:11:30Z</time></trkpt><trkpt lat="30.853498235664265" lon="-5.910754599714945"><ele>1051.0</ele><time>2026-05-05T11:11:31Z</time></trkpt><trkpt lat="30.853495725828065" lon="-5.910983750273949"><ele>1051.0</ele><time>2026-05-05T11:11:32Z</time></trkpt><trkpt lat="30.853492264734122" lon="-5.911205378735404"><ele>1051.0</ele><time>2026-05-05T11:11:33Z</time></trkpt><trkpt lat="30.853487953400105" lon="-5.911430517011465"><ele>1051.0</ele><time>2026-05-05T11:11:34Z</time></trkpt><trkpt lat="30.85348279145497" lon="-5.91165780391943"><ele>1051.0</ele><time>2026-05-05T11:11:35Z</time></trkpt><trkpt lat="30.85347779964607" lon="-5.91189173302869"><ele>1051.3333333333333</ele><time>2026-05-05T11:11:36Z</time></trkpt><trkpt lat="30.853472461612327" lon="-5.912132774064769"><ele>1051.6666666666667</ele><time>2026-05-05T11:11:37Z</time></trkpt><trkpt lat="30.853466905709723" lon="-5.9123786570654575"><ele>1052.0</ele><time>2026-05-05T11:11:38Z</time></trkpt><trkpt lat="30.853463199998327" lon="-5.912626871687925"><ele>1052.3333333333335</ele><time>2026-05-05T11:11:39Z</time></trkpt><trkpt lat="30.853459181356115" lon="-5.912877294846078"><ele>1052.6666666666667</ele><time>2026-05-05T11:11:40Z</time></trkpt><trkpt lat="30.85345426790713" lon="-5.913129265446965"><ele>1053.0</ele><time>2026-05-05T11:11:41Z</time></trkpt><trkpt lat="30.8534497938121" lon="-5.913381522461615"><ele>1055.3333333333333</ele><time>2026-05-05T11:11:42Z</time></trkpt><trkpt lat="30.853445575287484" lon="-5.913632999924185"><ele>1057.6666666666665</ele><time>2026-05-05T11:11:43Z</time></trkpt><trkpt lat="30.853442845483244" lon="-5.913883693343878"><ele>1060.0</ele><time>2026-05-05T11:11:44Z</time></trkpt><trkpt lat="30.85343673690731" lon="-5.9141340317591204"><ele>1060.0</ele><time>2026-05-05T11:11:45Z</time></trkpt><trkpt lat="30.853424618713785" lon="-5.914385450440031"><ele>1060.0</ele><time>2026-05-05T11:11:46Z</time></trkpt><trkpt lat="30.853406517477648" lon="-5.914638276101572"><ele>1060.0</ele><time>2026-05-05T11:11:47Z</time></trkpt><trkpt lat="30.853377339808663" lon="-5.9148880659827965"><ele>1060.0</ele><time>2026-05-05T11:11:48Z</time></trkpt><trkpt lat="30.853339366829534" lon="-5.915135391940249"><ele>1060.0</ele><time>2026-05-05T11:11:49Z</time></trkpt><trkpt lat="30.853294771378717" lon="-5.915380675442813"><ele>1060.0</ele><time>2026-05-05T11:11:50Z</time></trkpt><trkpt lat="30.853250386677058" lon="-5.915622890245668"><ele>1060.0</ele><time>2026-05-05T11:11:51Z</time></trkpt><trkpt lat="30.853210088745385" lon="-5.915864504782951"><ele>1060.0</ele><time>2026-05-05T11:11:52Z</time></trkpt><trkpt lat="30.853172540927602" lon="-5.916106545770617"><ele>1060.0</ele><time>2026-05-05T11:11:53Z</time></trkpt><trkpt lat="30.853135767622497" lon="-5.916349629872435"><ele>1060.0</ele><time>2026-05-05T11:11:54Z</time></trkpt><trkpt lat="30.853098979009385" lon="-5.9165893637023625"><ele>1060.0</ele><time>2026-05-05T11:11:55Z</time></trkpt><trkpt lat="30.853059051545404" lon="-5.916832771190193"><ele>1060.0</ele><time>2026-05-05T11:11:56Z</time></trkpt><trkpt lat="30.85302199149602" lon="-5.917075910565435"><ele>1060.0</ele><time>2026-05-05T11:11:57Z</time></trkpt><trkpt lat="30.852981535439234" lon="-5.917321477976267"><ele>1060.0</ele><time>2026-05-05T11:11:58Z</time></trkpt><trkpt lat="30.85294100663371" lon="-5.917569207324458"><ele>1060.0</ele><time>2026-05-05T11:11:59Z</time></trkpt><trkpt lat="30.85290060451119" lon="-5.9178189081533015"><ele>1060.3333333333333</ele><time>2026-05-05T11:12:00Z</time></trkpt><trkpt lat="30.852861704912325" lon="-5.91807120822503"><ele>1060.6666666666667</ele><time>2026-05-05T11:12:01Z</time></trkpt><trkpt lat="30.8528128555167" lon="-5.918322964453175"><ele>1061.0</ele><time>2026-05-05T11:12:02Z</time></trkpt><trkpt lat="30.852745990326394" lon="-5.918569631372947"><ele>1062.0</ele><time>2026-05-05T11:12:03Z</time></trkpt><trkpt lat="30.85266868075911" lon="-5.918818180749506"><ele>1063.0</ele><time>2026-05-05T11:12:04Z</time></trkpt><trkpt lat="30.852587739829012" lon="-5.919063767510891"><ele>1065.0</ele><time>2026-05-05T11:12:05Z</time></trkpt><trkpt lat="30.852504549774835" lon="-5.919309524985176"><ele>1067.0</ele><time>2026-05-05T11:12:06Z</time></trkpt><trkpt lat="30.85242265039282" lon="-5.919557884466517"><ele>1067.0</ele><time>2026-05-05T11:12:07Z</time></trkpt><trkpt lat="30.852345250249915" lon="-5.919805227457124"><ele>1067.0</ele><time>2026-05-05T11:12:08Z</time></trkpt><trkpt lat="30.85226574574588" lon="-5.920053169037944"><ele>1067.0</ele><time>2026-05-05T11:12:09Z</time></trkpt><trkpt lat="30.852187214898603" lon="-5.920303769118974"><ele>1067.0</ele><time>2026-05-05T11:12:10Z</time></trkpt><trkpt lat="30.852112201805852" lon="-5.920552483664726"><ele>1067.0</ele><time>2026-05-05T11:12:11Z</time></trkpt><trkpt lat="30.852036152882235" lon="-5.920800550577897"><ele>1067.0</ele><time>2026-05-05T11:12:12Z</time></trkpt><trkpt lat="30.85195665649202" lon="-5.921048767841903"><ele>1066.5</ele><time>2026-05-05T11:12:13Z</time></trkpt><trkpt lat="30.85187789600247" lon="-5.921295624318393"><ele>1066.0</ele><time>2026-05-05T11:12:14Z</time></trkpt><trkpt lat="30.851799473880636" lon="-5.921543127561667"><ele>1068.0</ele><time>2026-05-05T11:12:15Z</time></trkpt><trkpt lat="30.851723695184443" lon="-5.921793416740951"><ele>1070.0</ele><time>2026-05-05T11:12:16Z</time></trkpt><trkpt lat="30.851649927372595" lon="-5.922040560574514"><ele>1070.0</ele><time>2026-05-05T11:12:17Z</time></trkpt><trkpt lat="30.85157447782867" lon="-5.922288487968178"><ele>1070.0</ele><time>2026-05-05T11:12:18Z</time></trkpt><trkpt lat="30.851496800103078" lon="-5.922534602501606"><ele>1069.3333333333335</ele><time>2026-05-05T11:12:19Z</time></trkpt><trkpt lat="30.851418630190757" lon="-5.922780241957326"><ele>1068.6666666666667</ele><time>2026-05-05T11:12:20Z</time></trkpt><trkpt lat="30.85134279928826" lon="-5.923024264789186"><ele>1068.0</ele><time>2026-05-05T11:12:21Z</time></trkpt><trkpt lat="30.851267298557758" lon="-5.923270684831159"><ele>1067.6666666666667</ele><time>2026-05-05T11:12:22Z</time></trkpt><trkpt lat="30.851194099563877" lon="-5.923516786458375"><ele>1067.3333333333335</ele><time>2026-05-05T11:12:23Z</time></trkpt><trkpt lat="30.85111765346791" lon="-5.923763897408643"><ele>1067.0</ele><time>2026-05-05T11:12:24Z</time></trkpt><trkpt lat="30.851037142192894" lon="-5.924007397601715"><ele>1066.3333333333335</ele><time>2026-05-05T11:12:25Z</time></trkpt><trkpt lat="30.85094748056869" lon="-5.924245325504047"><ele>1065.6666666666667</ele><time>2026-05-05T11:12:26Z</time></trkpt><trkpt lat="30.850844924242796" lon="-5.924480363461555"><ele>1065.0</ele><time>2026-05-05T11:12:27Z</time></trkpt><trkpt lat="30.850736321603243" lon="-5.924710034710776"><ele>1065.0</ele><time>2026-05-05T11:12:28Z</time></trkpt><trkpt lat="30.85062227343145" lon="-5.924938416005691"><ele>1065.0</ele><time>2026-05-05T11:12:29Z</time></trkpt><trkpt lat="30.850503210378164" lon="-5.925162420277701"><ele>1065.5</ele><time>2026-05-05T11:12:30Z</time></trkpt><trkpt lat="30.850380630390248" lon="-5.925384483481928"><ele>1066.0</ele><time>2026-05-05T11:12:31Z</time></trkpt><trkpt lat="30.850260630218514" lon="-5.925605811310953"><ele>1066.0</ele><time>2026-05-05T11:12:32Z</time></trkpt><trkpt lat="30.850144874867887" lon="-5.925828467708738"><ele>1066.0</ele><time>2026-05-05T11:12:33Z</time></trkpt><trkpt lat="30.850027906801706" lon="-5.9260524601359235"><ele>1066.0</ele><time>2026-05-05T11:12:34Z</time></trkpt><trkpt lat="30.84990554760773" lon="-5.926271714213764"><ele>1066.5</ele><time>2026-05-05T11:12:35Z</time></trkpt><trkpt lat="30.84977825609485" lon="-5.926489382091661"><ele>1067.0</ele><time>2026-05-05T11:12:36Z</time></trkpt><trkpt lat="30.849650639121037" lon="-5.926706158509458"><ele>1067.3333333333335</ele><time>2026-05-05T11:12:37Z</time></trkpt><trkpt lat="30.849526562636182" lon="-5.9269180597832145"><ele>1067.6666666666667</ele><time>2026-05-05T11:12:38Z</time></trkpt><trkpt lat="30.849403072615214" lon="-5.927126280261243"><ele>1068.0</ele><time>2026-05-05T11:12:39Z</time></trkpt><trkpt lat="30.849280057013253" lon="-5.927332570696919"><ele>1068.0</ele><time>2026-05-05T11:12:40Z</time></trkpt><trkpt lat="30.84916232119926" lon="-5.927535204013784"><ele>1068.0</ele><time>2026-05-05T11:12:41Z</time></trkpt><trkpt lat="30.849041470836994" lon="-5.927741186831053"><ele>1068.0</ele><time>2026-05-05T11:12:42Z</time></trkpt><trkpt lat="30.848916062146955" lon="-5.927947086213403"><ele>1067.6666666666667</ele><time>2026-05-05T11:12:43Z</time></trkpt><trkpt lat="30.848788321707755" lon="-5.928155241022949"><ele>1067.3333333333335</ele><time>2026-05-05T11:12:44Z</time></trkpt><trkpt lat="30.84866176941587" lon="-5.92836583526973"><ele>1067.0</ele><time>2026-05-05T11:12:45Z</time></trkpt><trkpt lat="30.848535542107918" lon="-5.928579138928796"><ele>1068.3333333333335</ele><time>2026-05-05T11:12:46Z</time></trkpt><trkpt lat="30.8484092006417" lon="-5.928794956580346"><ele>1069.6666666666667</ele><time>2026-05-05T11:12:47Z</time></trkpt><trkpt lat="30.848283081350345" lon="-5.929008047575326"><ele>1071.0</ele><time>2026-05-05T11:12:48Z</time></trkpt><trkpt lat="30.848156948106894" lon="-5.929219002991853"><ele>1071.0</ele><time>2026-05-05T11:12:49Z</time></trkpt><trkpt lat="30.848030627997332" lon="-5.929431134725352"><ele>1071.0</ele><time>2026-05-05T11:12:50Z</time></trkpt><trkpt lat="30.847903735896736" lon="-5.929644893662111"><ele>1071.0</ele><time>2026-05-05T11:12:51Z</time></trkpt><trkpt lat="30.847776722205474" lon="-5.929860832139793"><ele>1071.0</ele><time>2026-05-05T11:12:52Z</time></trkpt><trkpt lat="30.847649306782863" lon="-5.930076159017903"><ele>1071.0</ele><time>2026-05-05T11:12:53Z</time></trkpt><trkpt lat="30.847521232756257" lon="-5.9302917365945875"><ele>1071.0</ele><time>2026-05-05T11:12:54Z</time></trkpt><trkpt lat="30.847391422416152" lon="-5.930510721022096"><ele>1071.0</ele><time>2026-05-05T11:12:55Z</time></trkpt><trkpt lat="30.847259945795926" lon="-5.93073026963048"><ele>1070.3333333333333</ele><time>2026-05-05T11:12:56Z</time></trkpt><trkpt lat="30.847132354028385" lon="-5.930947012683922"><ele>1069.6666666666665</ele><time>2026-05-05T11:12:57Z</time></trkpt><trkpt lat="30.847008494560278" lon="-5.931159213518011"><ele>1069.0</ele><time>2026-05-05T11:12:58Z</time></trkpt><trkpt lat="30.84688391604906" lon="-5.931370940528528"><ele>1070.0</ele><time>2026-05-05T11:12:59Z</time></trkpt><trkpt lat="30.84675848785652" lon="-5.931581613113175"><ele>1071.0</ele><time>2026-05-05T11:13:00Z</time></trkpt><trkpt lat="30.84663458254841" lon="-5.93179098505358"><ele>1072.0</ele><time>2026-05-05T11:13:01Z</time></trkpt><trkpt lat="30.846512306104326" lon="-5.932001698647213"><ele>1072.0</ele><time>2026-05-05T11:13:02Z</time></trkpt><trkpt lat="30.84639072868859" lon="-5.932213882616971"><ele>1072.0</ele><time>2026-05-05T11:13:03Z</time></trkpt><trkpt lat="30.84627539806774" lon="-5.9324269392980735"><ele>1072.0</ele><time>2026-05-05T11:13:04Z</time></trkpt><trkpt lat="30.846170325987828" lon="-5.9326461818850005"><ele>1072.3333333333333</ele><time>2026-05-05T11:13:05Z</time></trkpt><trkpt lat="30.846079634917796" lon="-5.932872757910203"><ele>1072.6666666666667</ele><time>2026-05-05T11:13:06Z</time></trkpt><trkpt lat="30.845983472279308" lon="-5.933099707997073"><ele>1073.0</ele><time>2026-05-05T11:13:07Z</time></trkpt><trkpt lat="30.845878845611114" lon="-5.933324096858872"><ele>1072.3333333333335</ele><time>2026-05-05T11:13:08Z</time></trkpt><trkpt lat="30.84577375370664" lon="-5.933550337094391"><ele>1071.6666666666667</ele><time>2026-05-05T11:13:09Z</time></trkpt><trkpt lat="30.845682210391626" lon="-5.933780220099415"><ele>1071.0</ele><time>2026-05-05T11:13:10Z</time></trkpt><trkpt lat="30.84557737027656" lon="-5.934001212805504"><ele>1072.0</ele><time>2026-05-05T11:13:11Z</time></trkpt><trkpt lat="30.84547227730735" lon="-5.934227442236781"><ele>1073.0</ele><time>2026-05-05T11:13:12Z</time></trkpt><trkpt lat="30.845375722855767" lon="-5.934451118176944"><ele>1074.0</ele><time>2026-05-05T11:13:13Z</time></trkpt><trkpt lat="30.845268710163218" lon="-5.934670401392321"><ele>1074.0</ele><time>2026-05-05T11:13:14Z</time></trkpt><trkpt lat="30.845168277507216" lon="-5.9348938983466155"><ele>1074.0</ele><time>2026-05-05T11:13:15Z</time></trkpt><trkpt lat="30.845070203922333" lon="-5.935116394858459"><ele>1074.0</ele><time>2026-05-05T11:13:16Z</time></trkpt><trkpt lat="30.844969965517983" lon="-5.935338099391525"><ele>1074.3333333333333</ele><time>2026-05-05T11:13:17Z</time></trkpt><trkpt lat="30.844870405902963" lon="-5.935557295234697"><ele>1074.6666666666665</ele><time>2026-05-05T11:13:18Z</time></trkpt><trkpt lat="30.844772494799894" lon="-5.935777763242784"><ele>1075.0</ele><time>2026-05-05T11:13:19Z</time></trkpt><trkpt lat="30.84467609055307" lon="-5.93599860072644"><ele>1075.3333333333333</ele><time>2026-05-05T11:13:20Z</time></trkpt><trkpt lat="30.84457855740319" lon="-5.936225026445983"><ele>1075.6666666666667</ele><time>2026-05-05T11:13:21Z</time></trkpt><trkpt lat="30.84447865959975" lon="-5.9364526382616"><ele>1076.0</ele><time>2026-05-05T11:13:22Z</time></trkpt><trkpt lat="30.84437406664469" lon="-5.93667618582657"><ele>1076.3333333333335</ele><time>2026-05-05T11:13:23Z</time></trkpt><trkpt lat="30.844249889314575" lon="-5.936886056337268"><ele>1076.6666666666667</ele><time>2026-05-05T11:13:24Z</time></trkpt><trkpt lat="30.844136146946063" lon="-5.937101255495475"><ele>1077.0</ele><time>2026-05-05T11:13:25Z</time></trkpt><trkpt lat="30.84400727896583" lon="-5.937296687014002"><ele>1077.0</ele><time>2026-05-05T11:13:26Z</time></trkpt><trkpt lat="30.84385982800084" lon="-5.937483260818607"><ele>1077.0</ele><time>2026-05-05T11:13:27Z</time></trkpt><trkpt lat="30.843712220645248" lon="-5.937671495785248"><ele>1077.0</ele><time>2026-05-05T11:13:28Z</time></trkpt><trkpt lat="30.843567059012624" lon="-5.937855050360098"><ele>1078.3333333333333</ele><time>2026-05-05T11:13:29Z</time></trkpt><trkpt lat="30.8434210226964" lon="-5.93803234913617"><ele>1079.6666666666665</ele><time>2026-05-05T11:13:30Z</time></trkpt><trkpt lat="30.843251127710843" lon="-5.938186798491614"><ele>1081.0</ele><time>2026-05-05T11:13:31Z</time></trkpt><trkpt lat="30.843076767209453" lon="-5.938333108775593"><ele>1080.0</ele><time>2026-05-05T11:13:32Z</time></trkpt><trkpt lat="30.842895192207376" lon="-5.938473076606585"><ele>1079.0</ele><time>2026-05-05T11:13:33Z</time></trkpt><trkpt lat="30.842710217311858" lon="-5.938605919773482"><ele>1078.0</ele><time>2026-05-05T11:13:34Z</time></trkpt><trkpt lat="30.842523113989927" lon="-5.938729384533026"><ele>1078.0</ele><time>2026-05-05T11:13:35Z</time></trkpt><trkpt lat="30.842333016791773" lon="-5.938852247878657"><ele>1078.0</ele><time>2026-05-05T11:13:36Z</time></trkpt><trkpt lat="30.842148240392852" lon="-5.938980946852225"><ele>1078.0</ele><time>2026-05-05T11:13:37Z</time></trkpt><trkpt lat="30.841954731360925" lon="-5.93908892339104"><ele>1078.6666666666665</ele><time>2026-05-05T11:13:38Z</time></trkpt><trkpt lat="30.841779806396218" lon="-5.939238548601228"><ele>1079.3333333333333</ele><time>2026-05-05T11:13:39Z</time></trkpt><trkpt lat="30.841596999300304" lon="-5.939368281677989"><ele>1080.0</ele><time>2026-05-05T11:13:40Z</time></trkpt><trkpt lat="30.84140912407257" lon="-5.93949893164856"><ele>1080.0</ele><time>2026-05-05T11:13:41Z</time></trkpt><trkpt lat="30.84121965106471" lon="-5.939633330556302"><ele>1080.0</ele><time>2026-05-05T11:13:42Z</time></trkpt><trkpt lat="30.8410189552739" lon="-5.93975312442258"><ele>1080.0</ele><time>2026-05-05T11:13:43Z</time></trkpt><trkpt lat="30.840817560484858" lon="-5.939878099325581"><ele>1081.0</ele><time>2026-05-05T11:13:44Z</time></trkpt><trkpt lat="30.840617284059125" lon="-5.940002350023224"><ele>1082.0</ele><time>2026-05-05T11:13:45Z</time></trkpt><trkpt lat="30.840423038216127" lon="-5.9401425910873815"><ele>1082.0</ele><time>2026-05-05T11:13:46Z</time></trkpt><trkpt lat="30.840239506792177" lon="-5.940293984588239"><ele>1082.0</ele><time>2026-05-05T11:13:47Z</time></trkpt><trkpt lat="30.840052002413042" lon="-5.940448468799784"><ele>1082.5</ele><time>2026-05-05T11:13:48Z</time></trkpt><trkpt lat="30.83987527160323" lon="-5.940626186599855"><ele>1083.0</ele><time>2026-05-05T11:13:49Z</time></trkpt><trkpt lat="30.83969723793463" lon="-5.940795799770627"><ele>1082.5</ele><time>2026-05-05T11:13:50Z</time></trkpt><trkpt lat="30.83952702739498" lon="-5.940971559275467"><ele>1082.0</ele><time>2026-05-05T11:13:51Z</time></trkpt><trkpt lat="30.83936657393413" lon="-5.941158882681787"><ele>1082.0</ele><time>2026-05-05T11:13:52Z</time></trkpt><trkpt lat="30.839220146241068" lon="-5.941358053979555"><ele>1082.0</ele><time>2026-05-05T11:13:53Z</time></trkpt><trkpt lat="30.83906858894835" lon="-5.941548441846218"><ele>1082.0</ele><time>2026-05-05T11:13:54Z</time></trkpt><trkpt lat="30.838907386672" lon="-5.94173421088431"><ele>1083.0</ele><time>2026-05-05T11:13:55Z</time></trkpt><trkpt lat="30.838750378042526" lon="-5.9419228510885995"><ele>1084.0</ele><time>2026-05-05T11:13:56Z</time></trkpt><trkpt lat="30.838600336078095" lon="-5.942118913497856"><ele>1084.5</ele><time>2026-05-05T11:13:57Z</time></trkpt><trkpt lat="30.838459741349908" lon="-5.942327792226057"><ele>1085.0</ele><time>2026-05-05T11:13:58Z</time></trkpt><trkpt lat="30.83833744500703" lon="-5.942550413887826"><ele>1085.0</ele><time>2026-05-05T11:13:59Z</time></trkpt><trkpt lat="30.838231867201706" lon="-5.942788572842999"><ele>1085.0</ele><time>2026-05-05T11:14:00Z</time></trkpt><trkpt lat="30.838140838558843" lon="-5.94303703169963"><ele>1085.0</ele><time>2026-05-05T11:14:01Z</time></trkpt><trkpt lat="30.838061320868054" lon="-5.9432911906750485"><ele>1085.0</ele><time>2026-05-05T11:14:02Z</time></trkpt><trkpt lat="30.837978847852664" lon="-5.943539035069097"><ele>1084.5</ele><time>2026-05-05T11:14:03Z</time></trkpt><trkpt lat="30.83788472019072" lon="-5.94377798529694"><ele>1084.0</ele><time>2026-05-05T11:14:04Z</time></trkpt><trkpt lat="30.837780107724345" lon="-5.944010391659708"><ele>1084.0</ele><time>2026-05-05T11:14:05Z</time></trkpt><trkpt lat="30.837670275598384" lon="-5.944235097290548"><ele>1084.0</ele><time>2026-05-05T11:14:06Z</time></trkpt><trkpt lat="30.837557455225515" lon="-5.944461086761478"><ele>1084.0</ele><time>2026-05-05T11:14:07Z</time></trkpt><trkpt lat="30.837439642529006" lon="-5.944686409371988"><ele>1084.5</ele><time>2026-05-05T11:14:08Z</time></trkpt><trkpt lat="30.83732328447697" lon="-5.944911261533532"><ele>1085.0</ele><time>2026-05-05T11:14:09Z</time></trkpt><trkpt lat="30.83720444688877" lon="-5.9451345281509935"><ele>1085.0</ele><time>2026-05-05T11:14:10Z</time></trkpt><trkpt lat="30.837084822143723" lon="-5.9453532553763955"><ele>1085.0</ele><time>2026-05-05T11:14:11Z</time></trkpt><trkpt lat="30.836961908043627" lon="-5.945572830718033"><ele>1085.0</ele><time>2026-05-05T11:14:12Z</time></trkpt><trkpt lat="30.83684071234977" lon="-5.9457874312327235"><ele>1086.0</ele><time>2026-05-05T11:14:13Z</time></trkpt><trkpt lat="30.836721380263896" lon="-5.946003262754758"><ele>1087.0</ele><time>2026-05-05T11:14:14Z</time></trkpt><trkpt lat="30.83659980091228" lon="-5.946217613795911"><ele>1088.0</ele><time>2026-05-05T11:14:15Z</time></trkpt><trkpt lat="30.836479223317845" lon="-5.946432985935898"><ele>1088.0</ele><time>2026-05-05T11:14:16Z</time></trkpt><trkpt lat="30.83636114153972" lon="-5.946644497158008"><ele>1088.0</ele><time>2026-05-05T11:14:17Z</time></trkpt><trkpt lat="30.836245339216383" lon="-5.94685175628348"><ele>1088.0</ele><time>2026-05-05T11:14:18Z</time></trkpt><trkpt lat="30.836130749653506" lon="-5.947060017570162"><ele>1088.0</ele><time>2026-05-05T11:14:19Z</time></trkpt><trkpt lat="30.836014559942726" lon="-5.947268300482135"><ele>1088.0</ele><time>2026-05-05T11:14:20Z</time></trkpt><trkpt lat="30.835896892948337" lon="-5.94747800121781"><ele>1088.0</ele><time>2026-05-05T11:14:21Z</time></trkpt><trkpt lat="30.835779748849752" lon="-5.9476925962715335"><ele>1089.0</ele><time>2026-05-05T11:14:22Z</time></trkpt><trkpt lat="30.835661849491522" lon="-5.9479055375375625"><ele>1090.0</ele><time>2026-05-05T11:14:23Z</time></trkpt><trkpt lat="30.83554593772548" lon="-5.948115874890992"><ele>1091.0</ele><time>2026-05-05T11:14:24Z</time></trkpt><trkpt lat="30.835430775086564" lon="-5.948327615358321"><ele>1090.6666666666667</ele><time>2026-05-05T11:14:25Z</time></trkpt><trkpt lat="30.835314723158326" lon="-5.94854063974824"><ele>1090.3333333333333</ele><time>2026-05-05T11:14:26Z</time></trkpt><trkpt lat="30.835200395967046" lon="-5.948753478143116"><ele>1090.0</ele><time>2026-05-05T11:14:27Z</time></trkpt><trkpt lat="30.835081077618344" lon="-5.948967542185061"><ele>1089.6666666666665</ele><time>2026-05-05T11:14:28Z</time></trkpt><trkpt lat="30.834957361783896" lon="-5.949177456466739"><ele>1089.3333333333333</ele><time>2026-05-05T11:14:29Z</time></trkpt><trkpt lat="30.834836323595134" lon="-5.949392722309593"><ele>1089.0</ele><time>2026-05-05T11:14:30Z</time></trkpt><trkpt lat="30.834716469975724" lon="-5.949607483852966"><ele>1089.6666666666667</ele><time>2026-05-05T11:14:31Z</time></trkpt><trkpt lat="30.834597499342316" lon="-5.949822736790766"><ele>1090.3333333333335</ele><time>2026-05-05T11:14:32Z</time></trkpt><trkpt lat="30.834492442974945" lon="-5.950041999267808"><ele>1091.0</ele><time>2026-05-05T11:14:33Z</time></trkpt><trkpt lat="30.834404260324902" lon="-5.950264052631099"><ele>1091.0</ele><time>2026-05-05T11:14:34Z</time></trkpt><trkpt lat="30.83432484148453" lon="-5.950490691905662"><ele>1091.0</ele><time>2026-05-05T11:14:35Z</time></trkpt><trkpt lat="30.834246440915887" lon="-5.950719041389502"><ele>1091.0</ele><time>2026-05-05T11:14:36Z</time></trkpt><trkpt lat="30.834165446236327" lon="-5.950946799151848"><ele>1091.0</ele><time>2026-05-05T11:14:37Z</time></trkpt><trkpt lat="30.834083125707075" lon="-5.951173669127106"><ele>1091.0</ele><time>2026-05-05T11:14:38Z</time></trkpt><trkpt lat="30.834002454663086" lon="-5.951400537380056"><ele>1091.0</ele><time>2026-05-05T11:14:39Z</time></trkpt><trkpt lat="30.83392159577804" lon="-5.951630805401819"><ele>1091.3333333333335</ele><time>2026-05-05T11:14:40Z</time></trkpt><trkpt lat="30.833836876689407" lon="-5.951863715343051"><ele>1091.6666666666667</ele><time>2026-05-05T11:14:41Z</time></trkpt><trkpt lat="30.83375115506477" lon="-5.952095304355783"><ele>1092.0</ele><time>2026-05-05T11:14:42Z</time></trkpt><trkpt lat="30.83366389291524" lon="-5.952330358383662"><ele>1092.0</ele><time>2026-05-05T11:14:43Z</time></trkpt><trkpt lat="30.83358123918395" lon="-5.952566166474706"><ele>1092.0</ele><time>2026-05-05T11:14:44Z</time></trkpt><trkpt lat="30.833499155853225" lon="-5.952800477191486"><ele>1092.0</ele><time>2026-05-05T11:14:45Z</time></trkpt><trkpt lat="30.833414118896798" lon="-5.9530389438380045"><ele>1092.6666666666667</ele><time>2026-05-05T11:14:46Z</time></trkpt><trkpt lat="30.833325701077495" lon="-5.9532752435561385"><ele>1093.3333333333335</ele><time>2026-05-05T11:14:47Z</time></trkpt><trkpt lat="30.833238468738607" lon="-5.953511999661762"><ele>1094.0</ele><time>2026-05-05T11:14:48Z</time></trkpt><trkpt lat="30.8331531043772" lon="-5.953746239811014"><ele>1094.0</ele><time>2026-05-05T11:14:49Z</time></trkpt><trkpt lat="30.833069318140925" lon="-5.953973594595735"><ele>1094.0</ele><time>2026-05-05T11:14:50Z</time></trkpt><trkpt lat="30.832991155206315" lon="-5.954201338151552"><ele>1094.0</ele><time>2026-05-05T11:14:51Z</time></trkpt><trkpt lat="30.832906546863693" lon="-5.954431575183165"><ele>1094.3333333333335</ele><time>2026-05-05T11:14:52Z</time></trkpt><trkpt lat="30.83281987987636" lon="-5.954661499321339"><ele>1094.6666666666667</ele><time>2026-05-05T11:14:53Z</time></trkpt><trkpt lat="30.832735807674016" lon="-5.954890904764318"><ele>1095.0</ele><time>2026-05-05T11:14:54Z</time></trkpt><trkpt lat="30.832651929444673" lon="-5.955120277871877"><ele>1095.6666666666667</ele><time>2026-05-05T11:14:55Z</time></trkpt><trkpt lat="30.83256800844081" lon="-5.955348016644058"><ele>1096.3333333333335</ele><time>2026-05-05T11:14:56Z</time></trkpt><trkpt lat="30.832476198289108" lon="-5.9555754695216025"><ele>1097.0</ele><time>2026-05-05T11:14:57Z</time></trkpt><trkpt lat="30.83237265317586" lon="-5.9557943502573725"><ele>1097.0</ele><time>2026-05-05T11:14:58Z</time></trkpt><trkpt lat="30.832252473200803" lon="-5.956003630971443"><ele>1097.0</ele><time>2026-05-05T11:14:59Z</time></trkpt><trkpt lat="30.832111363729073" lon="-5.956201571582368"><ele>1097.0</ele><time>2026-05-05T11:14:59.999Z</time></trkpt><trkpt lat="30.83196457725097" lon="-5.956393604780203"><ele>1097.0</ele><time>2026-05-05T11:15:00.999Z</time></trkpt><trkpt lat="30.831822089316972" lon="-5.956594878384075"><ele>1097.0</ele><time>2026-05-05T11:15:01.999Z</time></trkpt><trkpt lat="30.831683629543218" lon="-5.956798063167644"><ele>1097.0</ele><time>2026-05-05T11:15:02.999Z</time></trkpt><trkpt lat="30.831542523578168" lon="-5.957003957737258"><ele>1096.6666666666667</ele><time>2026-05-05T11:15:03.999Z</time></trkpt><trkpt lat="30.831405223053316" lon="-5.957206445822692"><ele>1096.3333333333333</ele><time>2026-05-05T11:15:04.999Z</time></trkpt><trkpt lat="30.83126909655747" lon="-5.957403142480541"><ele>1096.0</ele><time>2026-05-05T11:15:05.999Z</time></trkpt><trkpt lat="30.83113317458349" lon="-5.95759730706686"><ele>1096.0</ele><time>2026-05-05T11:15:06.999Z</time></trkpt><trkpt lat="30.831000331832634" lon="-5.957789151309543"><ele>1096.0</ele><time>2026-05-05T11:15:07.999Z</time></trkpt><trkpt lat="30.830864766832818" lon="-5.957981749755592"><ele>1096.0</ele><time>2026-05-05T11:15:08.999Z</time></trkpt><trkpt lat="30.830730121044134" lon="-5.958174185665467"><ele>1096.6666666666665</ele><time>2026-05-05T11:15:09.999Z</time></trkpt><trkpt lat="30.830595332439675" lon="-5.9583671179070326"><ele>1097.3333333333333</ele><time>2026-05-05T11:15:10.999Z</time></trkpt><trkpt lat="30.830460734600816" lon="-5.958558259632203"><ele>1098.0</ele><time>2026-05-05T11:15:11.999Z</time></trkpt><trkpt lat="30.830324069939284" lon="-5.958748559347782"><ele>1098.6666666666667</ele><time>2026-05-05T11:15:12.999Z</time></trkpt><trkpt lat="30.83018836395241" lon="-5.958940577345089"><ele>1099.3333333333335</ele><time>2026-05-05T11:15:13.999Z</time></trkpt><trkpt lat="30.830052733069778" lon="-5.959133348241954"><ele>1100.0</ele><time>2026-05-05T11:15:14.999Z</time></trkpt><trkpt lat="30.829921309410697" lon="-5.959325355042078"><ele>1100.0</ele><time>2026-05-05T11:15:15.999Z</time></trkpt><trkpt lat="30.82978878941864" lon="-5.959519789583561"><ele>1100.0</ele><time>2026-05-05T11:15:16.999Z</time></trkpt><trkpt lat="30.829655267016904" lon="-5.95971273953249"><ele>1100.0</ele><time>2026-05-05T11:15:17.999Z</time></trkpt><trkpt lat="30.829522485247935" lon="-5.959904420650052"><ele>1100.0</ele><time>2026-05-05T11:15:18.999Z</time></trkpt><trkpt lat="30.82939029904563" lon="-5.960094298477833"><ele>1100.0</ele><time>2026-05-05T11:15:19.999Z</time></trkpt><trkpt lat="30.829256971314084" lon="-5.960285424840623"><ele>1100.0</ele><time>2026-05-05T11:15:20.999Z</time></trkpt><trkpt lat="30.82912521863742" lon="-5.960475490715638"><ele>1101.3333333333335</ele><time>2026-05-05T11:15:21.999Z</time></trkpt><trkpt lat="30.828995024976983" lon="-5.960669669868003"><ele>1102.6666666666667</ele><time>2026-05-05T11:15:22.999Z</time></trkpt><trkpt lat="30.828866861319312" lon="-5.960867496941768"><ele>1104.0</ele><time>2026-05-05T11:15:23.999Z</time></trkpt><trkpt lat="30.8287453337584" lon="-5.961068939748984"><ele>1104.0</ele><time>2026-05-05T11:15:24.999Z</time></trkpt><trkpt lat="30.828634860286126" lon="-5.961278342064457"><ele>1104.0</ele><time>2026-05-05T11:15:25.999Z</time></trkpt><trkpt lat="30.828531959384744" lon="-5.961491542658234"><ele>1104.0</ele><time>2026-05-05T11:15:26.999Z</time></trkpt><trkpt lat="30.828429298472233" lon="-5.961706433618477"><ele>1104.6666666666667</ele><time>2026-05-05T11:15:27.999Z</time></trkpt><trkpt lat="30.828323554231016" lon="-5.961925290436277"><ele>1105.3333333333335</ele><time>2026-05-05T11:15:28.999Z</time></trkpt><trkpt lat="30.828218527064045" lon="-5.962145446587588"><ele>1106.0</ele><time>2026-05-05T11:15:29.999Z</time></trkpt><trkpt lat="30.828115220795414" lon="-5.962356033188147"><ele>1105.6666666666667</ele><time>2026-05-05T11:15:30.999Z</time></trkpt><trkpt lat="30.82801497409644" lon="-5.962556901905912"><ele>1105.3333333333333</ele><time>2026-05-05T11:15:31.999Z</time></trkpt><trkpt lat="30.827916284859022" lon="-5.962753377580453"><ele>1105.0</ele><time>2026-05-05T11:15:32.999Z</time></trkpt><trkpt lat="30.82781422135397" lon="-5.962957509960523"><ele>1105.0</ele><time>2026-05-05T11:15:33.999Z</time></trkpt><trkpt lat="30.827713792004015" lon="-5.963155495515404"><ele>1105.0</ele><time>2026-05-05T11:15:34.999Z</time></trkpt><trkpt lat="30.827620321347204" lon="-5.963346717901124"><ele>1105.0</ele><time>2026-05-05T11:15:35.999Z</time></trkpt><trkpt lat="30.827533159572837" lon="-5.963521668865034"><ele>1106.6666666666665</ele><time>2026-05-05T11:15:36.999Z</time></trkpt><trkpt lat="30.827449225442415" lon="-5.963683874456336"><ele>1108.3333333333333</ele><time>2026-05-05T11:15:37.999Z</time></trkpt><trkpt lat="30.827365422139913" lon="-5.963842405802176"><ele>1110.0</ele><time>2026-05-05T11:15:38.999Z</time></trkpt><trkpt lat="30.827281793301278" lon="-5.964015767254226"><ele>1109.6666666666667</ele><time>2026-05-05T11:15:39.999Z</time></trkpt><trkpt lat="30.82719737986822" lon="-5.96421088749795"><ele>1109.3333333333335</ele><time>2026-05-05T11:15:40.999Z</time></trkpt><trkpt lat="30.827109797534444" lon="-5.964409639254284"><ele>1109.0</ele><time>2026-05-05T11:15:41.999Z</time></trkpt><trkpt lat="30.827009692883216" lon="-5.964607016174835"><ele>1109.0</ele><time>2026-05-05T11:15:42.999Z</time></trkpt><trkpt lat="30.82690992225367" lon="-5.964803637090795"><ele>1109.0</ele><time>2026-05-05T11:15:43.999Z</time></trkpt><trkpt lat="30.826810833032148" lon="-5.9650059665590245"><ele>1109.0</ele><time>2026-05-05T11:15:44.999Z</time></trkpt><trkpt lat="30.8267155768844" lon="-5.9652111534124055"><ele>1108.0</ele><time>2026-05-05T11:15:45.999Z</time></trkpt><trkpt lat="30.826605639753804" lon="-5.965415402467417"><ele>1107.0</ele><time>2026-05-05T11:15:46.999Z</time></trkpt><trkpt lat="30.826495478588598" lon="-5.9656255592519525"><ele>1106.0</ele><time>2026-05-05T11:15:47.999Z</time></trkpt><trkpt lat="30.82639538078374" lon="-5.965845925371596"><ele>1106.3333333333335</ele><time>2026-05-05T11:15:49Z</time></trkpt><trkpt lat="30.826279078029952" lon="-5.966064771192978"><ele>1106.6666666666667</ele><time>2026-05-05T11:15:50Z</time></trkpt><trkpt lat="30.826170027352813" lon="-5.966287828428715"><ele>1107.0</ele><time>2026-05-05T11:15:51Z</time></trkpt><trkpt lat="30.8260572958583" lon="-5.966506832747391"><ele>1109.0</ele><time>2026-05-05T11:15:52Z</time></trkpt><trkpt lat="30.825942978577366" lon="-5.966734421515668"><ele>1111.0</ele><time>2026-05-05T11:15:53Z</time></trkpt><trkpt lat="30.82583293832553" lon="-5.966962923968147"><ele>1111.0</ele><time>2026-05-05T11:15:54Z</time></trkpt><trkpt lat="30.825712441622887" lon="-5.967190830641007"><ele>1111.0</ele><time>2026-05-05T11:15:55Z</time></trkpt><trkpt lat="30.82560631900666" lon="-5.967421417255692"><ele>1111.0</ele><time>2026-05-05T11:15:56Z</time></trkpt><trkpt lat="30.82548613987935" lon="-5.9676499537910495"><ele>1111.0</ele><time>2026-05-05T11:15:57Z</time></trkpt><trkpt lat="30.825370250055048" lon="-5.96788160794775"><ele>1111.0</ele><time>2026-05-05T11:15:58Z</time></trkpt><trkpt lat="30.825257748306434" lon="-5.968116524392221"><ele>1111.0</ele><time>2026-05-05T11:15:59Z</time></trkpt><trkpt lat="30.825142561228787" lon="-5.968350221858348"><ele>1111.0</ele><time>2026-05-05T11:16:00Z</time></trkpt><trkpt lat="30.82502742232626" lon="-5.968579727812119"><ele>1111.0</ele><time>2026-05-05T11:16:01Z</time></trkpt><trkpt lat="30.824911610983182" lon="-5.96880879102194"><ele>1111.0</ele><time>2026-05-05T11:16:02Z</time></trkpt><trkpt lat="30.824798931670156" lon="-5.96903682520486"><ele>1111.0</ele><time>2026-05-05T11:16:03Z</time></trkpt><trkpt lat="30.824685964358917" lon="-5.969260305637041"><ele>1111.0</ele><time>2026-05-05T11:16:04Z</time></trkpt><trkpt lat="30.82457368749979" lon="-5.969485574026909"><ele>1110.3333333333333</ele><time>2026-05-05T11:16:05Z</time></trkpt><trkpt lat="30.82446110381178" lon="-5.9697080103110896"><ele>1109.6666666666667</ele><time>2026-05-05T11:16:06Z</time></trkpt><trkpt lat="30.824350277742095" lon="-5.9699298852859615"><ele>1109.0</ele><time>2026-05-05T11:16:07Z</time></trkpt><trkpt lat="30.824241717479836" lon="-5.970153069700804"><ele>1110.6666666666667</ele><time>2026-05-05T11:16:08Z</time></trkpt><trkpt lat="30.824135030551748" lon="-5.970372823489692"><ele>1112.3333333333333</ele><time>2026-05-05T11:16:09Z</time></trkpt><trkpt lat="30.824022774963588" lon="-5.970586098842358"><ele>1114.0</ele><time>2026-05-05T11:16:10Z</time></trkpt><trkpt lat="30.8239017155647" lon="-5.97079550584421"><ele>1114.0</ele><time>2026-05-05T11:16:11Z</time></trkpt><trkpt lat="30.823766527864496" lon="-5.970992593752655"><ele>1114.0</ele><time>2026-05-05T11:16:12Z</time></trkpt><trkpt lat="30.823621954684754" lon="-5.971185442140034"><ele>1114.0</ele><time>2026-05-05T11:16:13Z</time></trkpt><trkpt lat="30.823468038310615" lon="-5.971370315196022"><ele>1114.0</ele><time>2026-05-05T11:16:14Z</time></trkpt><trkpt lat="30.823303154131967" lon="-5.971547180257467"><ele>1114.0</ele><time>2026-05-05T11:16:15Z</time></trkpt><trkpt lat="30.823127735994692" lon="-5.971719236958932"><ele>1114.0</ele><time>2026-05-05T11:16:16Z</time></trkpt><trkpt lat="30.82294969677497" lon="-5.971890213881917"><ele>1114.0</ele><time>2026-05-05T11:16:17Z</time></trkpt><trkpt lat="30.822769687829084" lon="-5.9720639251859104"><ele>1114.0</ele><time>2026-05-05T11:16:18Z</time></trkpt><trkpt lat="30.822591396171248" lon="-5.972242667660234"><ele>1114.0</ele><time>2026-05-05T11:16:19Z</time></trkpt><trkpt lat="30.82241153556159" lon="-5.972423731850349"><ele>1114.5</ele><time>2026-05-05T11:16:20Z</time></trkpt><trkpt lat="30.82222939228805" lon="-5.972602754335638"><ele>1115.0</ele><time>2026-05-05T11:16:21Z</time></trkpt><trkpt lat="30.82204708909805" lon="-5.9727808840973315"><ele>1115.0</ele><time>2026-05-05T11:16:22Z</time></trkpt><trkpt lat="30.821862665612752" lon="-5.972956970681994"><ele>1115.0</ele><time>2026-05-05T11:16:23Z</time></trkpt><trkpt lat="30.82167999360277" lon="-5.973135586661373"><ele>1115.5</ele><time>2026-05-05T11:16:24Z</time></trkpt><trkpt lat="30.821501059670144" lon="-5.973318038244549"><ele>1116.0</ele><time>2026-05-05T11:16:25Z</time></trkpt><trkpt lat="30.821322801365334" lon="-5.973498812515273"><ele>1116.0</ele><time>2026-05-05T11:16:26Z</time></trkpt><trkpt lat="30.821144563597787" lon="-5.973669001259026"><ele>1116.0</ele><time>2026-05-05T11:16:27Z</time></trkpt><trkpt lat="30.82096943573952" lon="-5.973834091773173"><ele>1115.3333333333333</ele><time>2026-05-05T11:16:28Z</time></trkpt><trkpt lat="30.82081251342419" lon="-5.973993952012385"><ele>1114.6666666666665</ele><time>2026-05-05T11:16:29Z</time></trkpt><trkpt lat="30.820664355966677" lon="-5.974141413883612"><ele>1114.0</ele><time>2026-05-05T11:16:30Z</time></trkpt><trkpt lat="30.820518579038616" lon="-5.974285514541555"><ele>1114.0</ele><time>2026-05-05T11:16:31Z</time></trkpt><trkpt lat="30.820374414914696" lon="-5.974427179531076"><ele>1114.0</ele><time>2026-05-05T11:16:32Z</time></trkpt><trkpt lat="30.820237647791867" lon="-5.974559881048691"><ele>1114.0</ele><time>2026-05-05T11:16:33Z</time></trkpt><trkpt lat="30.820115384389187" lon="-5.974681301055037"><ele>1114.0</ele><time>2026-05-05T11:16:34Z</time></trkpt><trkpt lat="30.820003746688688" lon="-5.974792441517997"><ele>1114.0</ele><time>2026-05-05T11:16:35Z</time></trkpt><trkpt lat="30.8199033986525" lon="-5.9748937924761"><ele>1114.0</ele><time>2026-05-05T11:16:36Z</time></trkpt><trkpt lat="30.81981317280242" lon="-5.974985020744855"><ele>1114.0</ele><time>2026-05-05T11:16:37Z</time></trkpt><trkpt lat="30.819729484112965" lon="-5.975067077444745"><ele>1114.0</ele><time>2026-05-05T11:16:38Z</time></trkpt><trkpt lat="30.819660834386156" lon="-5.975141835990293"><ele>1114.0</ele><time>2026-05-05T11:16:39Z</time></trkpt><trkpt lat="30.819590669719183" lon="-5.975213038507654"><ele>1114.0</ele><time>2026-05-05T11:16:40Z</time></trkpt><trkpt lat="30.819505191745215" lon="-5.975295618970815"><ele>1114.0</ele><time>2026-05-05T11:16:41Z</time></trkpt><trkpt lat="30.81941020060198" lon="-5.975390170157052"><ele>1114.0</ele><time>2026-05-05T11:16:42Z</time></trkpt><trkpt lat="30.81932238164511" lon="-5.975477620945316"><ele>1114.4</ele><time>2026-05-05T11:16:43Z</time></trkpt><trkpt lat="30.81924425112456" lon="-5.975555277936078"><ele>1114.8000000000002</ele><time>2026-05-05T11:16:44Z</time></trkpt><trkpt lat="30.819175729801007" lon="-5.975623255336121"><ele>1115.1999999999998</ele><time>2026-05-05T11:16:45Z</time></trkpt><trkpt lat="30.819119047310224" lon="-5.975680979874329"><ele>1115.6</ele><time>2026-05-05T11:16:46Z</time></trkpt><trkpt lat="30.819057056190214" lon="-5.975748665539079"><ele>1116.0</ele><time>2026-05-05T11:16:48Z</time></trkpt><trkpt lat="30.818951608464065" lon="-5.975849724721691"><ele>1115.6</ele><time>2026-05-05T11:19:41.999Z</time></trkpt><trkpt lat="30.818888644197703" lon="-5.975911366800594"><ele>1115.1999999999998</ele><time>2026-05-05T11:19:42.999Z</time></trkpt><trkpt lat="30.818830929130716" lon="-5.975970829106035"><ele>1114.8000000000002</ele><time>2026-05-05T11:19:43.999Z</time></trkpt><trkpt lat="30.818753375833058" lon="-5.9760500474041836"><ele>1114.4</ele><time>2026-05-05T11:19:44.999Z</time></trkpt><trkpt lat="30.81866229199541" lon="-5.976133332142286"><ele>1114.0</ele><time>2026-05-05T11:19:45.999Z</time></trkpt><trkpt lat="30.818567751457916" lon="-5.976224080090204"><ele>1114.5</ele><time>2026-05-05T11:19:46.999Z</time></trkpt><trkpt lat="30.81846343864103" lon="-5.976326667662349"><ele>1115.0</ele><time>2026-05-05T11:19:47.999Z</time></trkpt><trkpt lat="30.818356713593975" lon="-5.976434336586337"><ele>1115.5</ele><time>2026-05-05T11:19:48.999Z</time></trkpt><trkpt lat="30.818242353485836" lon="-5.976544910473751"><ele>1116.0</ele><time>2026-05-05T11:19:49.999Z</time></trkpt><trkpt lat="30.81812120199163" lon="-5.9766601954146585"><ele>1116.3333333333333</ele><time>2026-05-05T11:19:50.999Z</time></trkpt><trkpt lat="30.817996226185656" lon="-5.976779269977354"><ele>1116.6666666666665</ele><time>2026-05-05T11:19:51.999Z</time></trkpt><trkpt lat="30.81786916064219" lon="-5.976907393596655"><ele>1117.0</ele><time>2026-05-05T11:19:52.999Z</time></trkpt><trkpt lat="30.81774233499907" lon="-5.977039014485885"><ele>1117.3333333333333</ele><time>2026-05-05T11:19:53.999Z</time></trkpt><trkpt lat="30.817614435759392" lon="-5.977164226653742"><ele>1117.6666666666667</ele><time>2026-05-05T11:19:54.999Z</time></trkpt><trkpt lat="30.817485511134095" lon="-5.9772890963015834"><ele>1118.0</ele><time>2026-05-05T11:19:55.999Z</time></trkpt><trkpt lat="30.81735914534708" lon="-5.977414044902508"><ele>1118.3333333333335</ele><time>2026-05-05T11:19:56.999Z</time></trkpt><trkpt lat="30.81723634770163" lon="-5.9775380151714685"><ele>1118.6666666666667</ele><time>2026-05-05T11:19:57.999Z</time></trkpt><trkpt lat="30.817111590728633" lon="-5.977658289779659"><ele>1119.0</ele><time>2026-05-05T11:19:58.999Z</time></trkpt><trkpt lat="30.816991201081862" lon="-5.977778107762388"><ele>1119.0</ele><time>2026-05-05T11:19:59.999Z</time></trkpt><trkpt lat="30.816873406683285" lon="-5.977899765320896"><ele>1119.0</ele><time>2026-05-05T11:20:00.999Z</time></trkpt><trkpt lat="30.81676019298369" lon="-5.978011291110459"><ele>1119.0</ele><time>2026-05-05T11:20:01.999Z</time></trkpt><trkpt lat="30.81663867082559" lon="-5.978126954515564"><ele>1119.75</ele><time>2026-05-05T11:20:02.999Z</time></trkpt><trkpt lat="30.8165272723593" lon="-5.978239373750419"><ele>1120.5</ele><time>2026-05-05T11:20:03.999Z</time></trkpt><trkpt lat="30.816416831942668" lon="-5.97835023072955"><ele>1121.25</ele><time>2026-05-05T11:20:04.999Z</time></trkpt><trkpt lat="30.81630491858703" lon="-5.978462358634559"><ele>1122.0</ele><time>2026-05-05T11:20:05.999Z</time></trkpt><trkpt lat="30.816189397046838" lon="-5.978567958496707"><ele>1122.6666666666667</ele><time>2026-05-05T11:20:06.999Z</time></trkpt><trkpt lat="30.81607536655042" lon="-5.978684700477791"><ele>1123.3333333333335</ele><time>2026-05-05T11:20:07.999Z</time></trkpt><trkpt lat="30.81595340400938" lon="-5.97880523578625"><ele>1124.0</ele><time>2026-05-05T11:20:08.999Z</time></trkpt><trkpt lat="30.815823593170396" lon="-5.978932579549328"><ele>1124.0</ele><time>2026-05-05T11:20:09.999Z</time></trkpt><trkpt lat="30.815689534372282" lon="-5.979065501756126"><ele>1124.0</ele><time>2026-05-05T11:20:10.999Z</time></trkpt><trkpt lat="30.815551536598768" lon="-5.979198787532966"><ele>1124.0</ele><time>2026-05-05T11:20:11.999Z</time></trkpt><trkpt lat="30.81541551090443" lon="-5.9793325270897295"><ele>1124.3333333333335</ele><time>2026-05-05T11:20:12.999Z</time></trkpt><trkpt lat="30.815274544801873" lon="-5.979469090307813"><ele>1124.6666666666667</ele><time>2026-05-05T11:20:13.999Z</time></trkpt><trkpt lat="30.81513919188462" lon="-5.97960201298376"><ele>1125.0</ele><time>2026-05-05T11:20:14.999Z</time></trkpt><trkpt lat="30.81499731477026" lon="-5.979738444464181"><ele>1125.3333333333333</ele><time>2026-05-05T11:20:15.999Z</time></trkpt><trkpt lat="30.81485324824486" lon="-5.979876773297825"><ele>1125.6666666666665</ele><time>2026-05-05T11:20:16.999Z</time></trkpt><trkpt lat="30.81470779770381" lon="-5.980018210800643"><ele>1126.0</ele><time>2026-05-05T11:20:17.999Z</time></trkpt><trkpt lat="30.81456226076749" lon="-5.980160896652295"><ele>1126.3333333333333</ele><time>2026-05-05T11:20:18.999Z</time></trkpt><trkpt lat="30.81442097834644" lon="-5.980296944043926"><ele>1126.6666666666667</ele><time>2026-05-05T11:20:19.999Z</time></trkpt><trkpt lat="30.814281185669323" lon="-5.980429405027152"><ele>1127.0</ele><time>2026-05-05T11:20:20.999Z</time></trkpt><trkpt lat="30.814146197013752" lon="-5.980557621428531"><ele>1127.0</ele><time>2026-05-05T11:20:21.999Z</time></trkpt><trkpt lat="30.81402074461989" lon="-5.9806786384784765"><ele>1127.0</ele><time>2026-05-05T11:20:22.999Z</time></trkpt><trkpt lat="30.81389421216506" lon="-5.980792426010427"><ele>1127.0</ele><time>2026-05-05T11:20:23.999Z</time></trkpt><trkpt lat="30.813763801848545" lon="-5.980898560346823"><ele>1127.0</ele><time>2026-05-05T11:20:24.999Z</time></trkpt><trkpt lat="30.81363761566351" lon="-5.9810469569097435"><ele>1127.0</ele><time>2026-05-05T11:20:25.999Z</time></trkpt><trkpt lat="30.813498554136892" lon="-5.981182451033759"><ele>1127.0</ele><time>2026-05-05T11:20:26.999Z</time></trkpt><trkpt lat="30.813353394132854" lon="-5.981321991400695"><ele>1127.0</ele><time>2026-05-05T11:20:27.999Z</time></trkpt><trkpt lat="30.813203602853694" lon="-5.981464305179102"><ele>1127.0</ele><time>2026-05-05T11:20:28.999Z</time></trkpt><trkpt lat="30.813053250808476" lon="-5.981611212487024"><ele>1127.0</ele><time>2026-05-05T11:20:29.999Z</time></trkpt><trkpt lat="30.812901651623697" lon="-5.981757685539455"><ele>1127.0</ele><time>2026-05-05T11:20:30.999Z</time></trkpt><trkpt lat="30.81274226334134" lon="-5.981902809145919"><ele>1127.0</ele><time>2026-05-05T11:20:31.999Z</time></trkpt><trkpt lat="30.812586208507707" lon="-5.9820615457456485"><ele>1127.0</ele><time>2026-05-05T11:20:32.999Z</time></trkpt><trkpt lat="30.812422477773186" lon="-5.982207946708307"><ele>1127.3333333333335</ele><time>2026-05-05T11:20:33.999Z</time></trkpt><trkpt lat="30.81226384291126" lon="-5.982372307009861"><ele>1127.6666666666667</ele><time>2026-05-05T11:20:34.999Z</time></trkpt><trkpt lat="30.81208875662575" lon="-5.98253092770826"><ele>1128.0</ele><time>2026-05-05T11:20:35.999Z</time></trkpt><trkpt lat="30.81191616426381" lon="-5.982701136775829"><ele>1126.5</ele><time>2026-05-05T11:20:36.999Z</time></trkpt><trkpt lat="30.811743811088327" lon="-5.982873834979209"><ele>1125.0</ele><time>2026-05-05T11:20:37.999Z</time></trkpt><trkpt lat="30.8115572240747" lon="-5.9830328069700505"><ele>1125.0</ele><time>2026-05-05T11:20:38.999Z</time></trkpt><trkpt lat="30.81138653474813" lon="-5.983215682157481"><ele>1125.0</ele><time>2026-05-05T11:20:39.999Z</time></trkpt><trkpt lat="30.811204459206387" lon="-5.983391044197339"><ele>1124.5</ele><time>2026-05-05T11:20:40.999Z</time></trkpt><trkpt lat="30.811017481741946" lon="-5.983556614799917"><ele>1124.0</ele><time>2026-05-05T11:20:41.999Z</time></trkpt><trkpt lat="30.810840144669648" lon="-5.983734359189434"><ele>1124.0</ele><time>2026-05-05T11:20:42.999Z</time></trkpt><trkpt lat="30.8106604472457" lon="-5.983919102831126"><ele>1124.0</ele><time>2026-05-05T11:20:43.999Z</time></trkpt><trkpt lat="30.810475778716004" lon="-5.984090679427302"><ele>1123.0</ele><time>2026-05-05T11:20:44.999Z</time></trkpt><trkpt lat="30.810291685004668" lon="-5.9842706664168"><ele>1122.0</ele><time>2026-05-05T11:20:45.999Z</time></trkpt><trkpt lat="30.810099618608746" lon="-5.98446033395975"><ele>1122.0</ele><time>2026-05-05T11:20:46.999Z</time></trkpt><trkpt lat="30.8099040492747" lon="-5.984651017224353"><ele>1122.0</ele><time>2026-05-05T11:20:47.999Z</time></trkpt><trkpt lat="30.809708191683075" lon="-5.9848375734494015"><ele>1122.0</ele><time>2026-05-05T11:20:48.999Z</time></trkpt><trkpt lat="30.8095102241222" lon="-5.9850243285466735"><ele>1122.0</ele><time>2026-05-05T11:20:49.999Z</time></trkpt><trkpt lat="30.80931406853229" lon="-5.985210306942247"><ele>1122.5</ele><time>2026-05-05T11:20:50.999Z</time></trkpt><trkpt lat="30.80912148158313" lon="-5.985396835964087"><ele>1123.0</ele><time>2026-05-05T11:20:51.999Z</time></trkpt><trkpt lat="30.80892639591654" lon="-5.9855819341951975"><ele>1123.0</ele><time>2026-05-05T11:20:52.999Z</time></trkpt><trkpt lat="30.80872881416198" lon="-5.9857711498433765"><ele>1123.0</ele><time>2026-05-05T11:20:53.999Z</time></trkpt><trkpt lat="30.808538272832465" lon="-5.985957336076275"><ele>1122.5</ele><time>2026-05-05T11:20:54.999Z</time></trkpt><trkpt lat="30.808343233433412" lon="-5.986137679554056"><ele>1122.0</ele><time>2026-05-05T11:20:55.999Z</time></trkpt><trkpt lat="30.80815128936066" lon="-5.986322795150463"><ele>1122.0</ele><time>2026-05-05T11:20:56.999Z</time></trkpt><trkpt lat="30.807962274223" lon="-5.986509754521279"><ele>1122.0</ele><time>2026-05-05T11:20:57.999Z</time></trkpt><trkpt lat="30.80777215555388" lon="-5.98669082461056"><ele>1122.0</ele><time>2026-05-05T11:20:58.999Z</time></trkpt><trkpt lat="30.807576348636246" lon="-5.986868742102555"><ele>1122.0</ele><time>2026-05-05T11:20:59.999Z</time></trkpt><trkpt lat="30.807386397070857" lon="-5.987050141043373"><ele>1122.0</ele><time>2026-05-05T11:21:00.999Z</time></trkpt><trkpt lat="30.807204438303348" lon="-5.987239014813868"><ele>1122.0</ele><time>2026-05-05T11:21:01.999Z</time></trkpt><trkpt lat="30.807012455585134" lon="-5.987419532605375"><ele>1120.5</ele><time>2026-05-05T11:21:02.999Z</time></trkpt><trkpt lat="30.806822150112897" lon="-5.987595135745229"><ele>1119.0</ele><time>2026-05-05T11:21:03.999Z</time></trkpt><trkpt lat="30.806639111308115" lon="-5.987771180698893"><ele>1119.0</ele><time>2026-05-05T11:21:04.999Z</time></trkpt><trkpt lat="30.806456960276172" lon="-5.987950654524523"><ele>1119.0</ele><time>2026-05-05T11:21:05.999Z</time></trkpt><trkpt lat="30.80627224121526" lon="-5.9881226464256585"><ele>1119.0</ele><time>2026-05-05T11:21:06.999Z</time></trkpt><trkpt lat="30.806087883642384" lon="-5.988296297775426"><ele>1119.0</ele><time>2026-05-05T11:21:07.999Z</time></trkpt><trkpt lat="30.805905988099152" lon="-5.988472464688246"><ele>1118.0</ele><time>2026-05-05T11:21:08.999Z</time></trkpt><trkpt lat="30.805723697719753" lon="-5.988644850710265"><ele>1117.0</ele><time>2026-05-05T11:21:09.999Z</time></trkpt><trkpt lat="30.805540154418807" lon="-5.988816883728787"><ele>1117.0</ele><time>2026-05-05T11:21:10.999Z</time></trkpt><trkpt lat="30.805358647698753" lon="-5.988988647766001"><ele>1117.0</ele><time>2026-05-05T11:21:11.999Z</time></trkpt><trkpt lat="30.80518022644799" lon="-5.989162788238919"><ele>1118.0</ele><time>2026-05-05T11:21:12.999Z</time></trkpt><trkpt lat="30.805000931195654" lon="-5.989336777439176"><ele>1119.0</ele><time>2026-05-05T11:21:13.999Z</time></trkpt><trkpt lat="30.804825003692535" lon="-5.989509278068266"><ele>1119.0</ele><time>2026-05-05T11:21:14.999Z</time></trkpt><trkpt lat="30.80464826535226" lon="-5.989675724878692"><ele>1119.0</ele><time>2026-05-05T11:21:15.999Z</time></trkpt><trkpt lat="30.80447510270523" lon="-5.989846247862186"><ele>1119.6666666666667</ele><time>2026-05-05T11:21:16.999Z</time></trkpt><trkpt lat="30.804315123192456" lon="-5.990025312767008"><ele>1120.3333333333335</ele><time>2026-05-05T11:21:17.999Z</time></trkpt><trkpt lat="30.80414692541975" lon="-5.990197227776334"><ele>1121.0</ele><time>2026-05-05T11:21:18.999Z</time></trkpt><trkpt lat="30.803993915111793" lon="-5.990378779283738"><ele>1121.0</ele><time>2026-05-05T11:21:19.999Z</time></trkpt><trkpt lat="30.803850170663054" lon="-5.990572131781999"><ele>1121.0</ele><time>2026-05-05T11:21:20.999Z</time></trkpt><trkpt lat="30.803707195011132" lon="-5.99076406250558"><ele>1121.0</ele><time>2026-05-05T11:21:21.999Z</time></trkpt><trkpt lat="30.80356220199984" lon="-5.990956288893681"><ele>1121.3333333333335</ele><time>2026-05-05T11:21:22.999Z</time></trkpt><trkpt lat="30.803416751138478" lon="-5.991145983233129"><ele>1121.6666666666667</ele><time>2026-05-05T11:21:23.999Z</time></trkpt><trkpt lat="30.803273428502777" lon="-5.991338890050962"><ele>1122.0</ele><time>2026-05-05T11:21:24.999Z</time></trkpt><trkpt lat="30.80313353700372" lon="-5.991537831481695"><ele>1122.3333333333333</ele><time>2026-05-05T11:21:25.999Z</time></trkpt><trkpt lat="30.80299121021578" lon="-5.991733407986092"><ele>1122.6666666666665</ele><time>2026-05-05T11:21:26.999Z</time></trkpt><trkpt lat="30.802845461544013" lon="-5.991925521428494"><ele>1123.0</ele><time>2026-05-05T11:21:27.999Z</time></trkpt><trkpt lat="30.802699454248096" lon="-5.992119196036923"><ele>1123.3333333333333</ele><time>2026-05-05T11:21:28.999Z</time></trkpt><trkpt lat="30.80255515098249" lon="-5.99231448885621"><ele>1123.6666666666667</ele><time>2026-05-05T11:21:29.999Z</time></trkpt><trkpt lat="30.80241077462609" lon="-5.992509708667708"><ele>1124.0</ele><time>2026-05-05T11:21:30.999Z</time></trkpt><trkpt lat="30.802265482222925" lon="-5.992703880305337"><ele>1124.0</ele><time>2026-05-05T11:21:31.999Z</time></trkpt><trkpt lat="30.80211749680328" lon="-5.99289638205958"><ele>1124.0</ele><time>2026-05-05T11:21:32.999Z</time></trkpt><trkpt lat="30.80197237464633" lon="-5.993091580731406"><ele>1124.0</ele><time>2026-05-05T11:21:33.999Z</time></trkpt><trkpt lat="30.801827465024445" lon="-5.993285015114531"><ele>1124.3333333333335</ele><time>2026-05-05T11:21:34.999Z</time></trkpt><trkpt lat="30.801679999128275" lon="-5.993479126235663"><ele>1124.6666666666667</ele><time>2026-05-05T11:21:35.999Z</time></trkpt><trkpt lat="30.801534645018776" lon="-5.99367425493651"><ele>1125.0</ele><time>2026-05-05T11:21:36.999Z</time></trkpt><trkpt lat="30.80138880322482" lon="-5.993865214036"><ele>1125.0</ele><time>2026-05-05T11:21:37.999Z</time></trkpt><trkpt lat="30.80124475187414" lon="-5.994059436113163"><ele>1125.0</ele><time>2026-05-05T11:21:38.999Z</time></trkpt><trkpt lat="30.801101257017656" lon="-5.994251550651253"><ele>1125.0</ele><time>2026-05-05T11:21:39.999Z</time></trkpt><trkpt lat="30.80095933883578" lon="-5.994443763153303"><ele>1125.0</ele><time>2026-05-05T11:21:40.999Z</time></trkpt><trkpt lat="30.800817530861163" lon="-5.994634460271651"><ele>1125.0</ele><time>2026-05-05T11:21:41.999Z</time></trkpt><trkpt lat="30.80067578126405" lon="-5.994828283572832"><ele>1125.0</ele><time>2026-05-05T11:21:42.999Z</time></trkpt><trkpt lat="30.80052838639932" lon="-5.995022737660921"><ele>1126.0</ele><time>2026-05-05T11:21:43.999Z</time></trkpt><trkpt lat="30.800374102416363" lon="-5.995218419992452"><ele>1127.0</ele><time>2026-05-05T11:21:44.999Z</time></trkpt><trkpt lat="30.800220137493824" lon="-5.995423692553517"><ele>1125.5</ele><time>2026-05-05T11:21:45.999Z</time></trkpt><trkpt lat="30.800052960722905" lon="-5.995616620149029"><ele>1124.0</ele><time>2026-05-05T11:21:46.999Z</time></trkpt><trkpt lat="30.7998964118626" lon="-5.99581805881854"><ele>1124.0</ele><time>2026-05-05T11:21:47.999Z</time></trkpt><trkpt lat="30.799737384124334" lon="-5.996024959996361"><ele>1124.0</ele><time>2026-05-05T11:21:48.999Z</time></trkpt><trkpt lat="30.799579824234797" lon="-5.996232180949422"><ele>1124.0</ele><time>2026-05-05T11:21:49.999Z</time></trkpt><trkpt lat="30.79945161235132" lon="-5.996469574948855"><ele>1124.0</ele><time>2026-05-05T11:21:50.999Z</time></trkpt><trkpt lat="30.79929452799926" lon="-5.9966723531440795"><ele>1122.5</ele><time>2026-05-05T11:21:51.999Z</time></trkpt><trkpt lat="30.799141694423334" lon="-5.996880029748687"><ele>1121.0</ele><time>2026-05-05T11:21:52.999Z</time></trkpt><trkpt lat="30.798988529729243" lon="-5.997086395497449"><ele>1121.0</ele><time>2026-05-05T11:21:53.999Z</time></trkpt><trkpt lat="30.798836922727258" lon="-5.9972863586849545"><ele>1121.0</ele><time>2026-05-05T11:21:54.999Z</time></trkpt><trkpt lat="30.79868721784319" lon="-5.997485563112817"><ele>1121.0</ele><time>2026-05-05T11:21:55.999Z</time></trkpt><trkpt lat="30.79853820165995" lon="-5.997687777698222"><ele>1121.0</ele><time>2026-05-05T11:21:56.999Z</time></trkpt><trkpt lat="30.798389032419873" lon="-5.9978877391940735"><ele>1122.0</ele><time>2026-05-05T11:21:57.999Z</time></trkpt><trkpt lat="30.798238749772516" lon="-5.9980895910515235"><ele>1123.0</ele><time>2026-05-05T11:21:58.999Z</time></trkpt><trkpt lat="30.798088830780497" lon="-5.998290049932199"><ele>1123.0</ele><time>2026-05-05T11:21:59.999Z</time></trkpt><trkpt lat="30.79793807059923" lon="-5.9984910946445185"><ele>1123.0</ele><time>2026-05-05T11:22:00.999Z</time></trkpt><trkpt lat="30.797785946688112" lon="-5.998693080562966"><ele>1122.5</ele><time>2026-05-05T11:22:01.999Z</time></trkpt><trkpt lat="30.797635489328297" lon="-5.998898585704568"><ele>1122.0</ele><time>2026-05-05T11:22:02.999Z</time></trkpt><trkpt lat="30.797483463983593" lon="-5.99910267086983"><ele>1122.5</ele><time>2026-05-05T11:22:03.999Z</time></trkpt><trkpt lat="30.797331757907223" lon="-5.9993020403437765"><ele>1123.0</ele><time>2026-05-05T11:22:04.999Z</time></trkpt><trkpt lat="30.797176116835153" lon="-5.99950364681983"><ele>1123.0</ele><time>2026-05-05T11:22:05.999Z</time></trkpt><trkpt lat="30.79702175309185" lon="-5.999702693554827"><ele>1123.0</ele><time>2026-05-05T11:22:06.999Z</time></trkpt><trkpt lat="30.79687164878182" lon="-5.999904645240422"><ele>1122.0</ele><time>2026-05-05T11:22:07.999Z</time></trkpt><trkpt lat="30.796723026655414" lon="-6.000111170361588"><ele>1121.0</ele><time>2026-05-05T11:22:08.999Z</time></trkpt><trkpt lat="30.7965753345548" lon="-6.000314089334795"><ele>1121.0</ele><time>2026-05-05T11:22:09.999Z</time></trkpt><trkpt lat="30.796423246094232" lon="-6.000515032609429"><ele>1121.0</ele><time>2026-05-05T11:22:10.999Z</time></trkpt><trkpt lat="30.796273000629" lon="-6.000720049205992"><ele>1121.0</ele><time>2026-05-05T11:22:11.999Z</time></trkpt><trkpt lat="30.796125030527385" lon="-6.0009216887347545"><ele>1121.0</ele><time>2026-05-05T11:22:12.999Z</time></trkpt><trkpt lat="30.7959721323021" lon="-6.001124267399143"><ele>1121.0</ele><time>2026-05-05T11:22:13.999Z</time></trkpt><trkpt lat="30.795821779143107" lon="-6.001327529284355"><ele>1121.0</ele><time>2026-05-05T11:22:14.999Z</time></trkpt><trkpt lat="30.795669578437334" lon="-6.001529940273117"><ele>1122.5</ele><time>2026-05-05T11:22:15.999Z</time></trkpt><trkpt lat="30.79551509391379" lon="-6.001733936583854"><ele>1124.0</ele><time>2026-05-05T11:22:16.999Z</time></trkpt><trkpt lat="30.795363482002895" lon="-6.001937463778571"><ele>1124.0</ele><time>2026-05-05T11:22:17.999Z</time></trkpt><trkpt lat="30.795213702892834" lon="-6.002142525645397"><ele>1124.0</ele><time>2026-05-05T11:22:18.999Z</time></trkpt><trkpt lat="30.79506544610147" lon="-6.002345679280819"><ele>1123.5</ele><time>2026-05-05T11:22:19.999Z</time></trkpt><trkpt lat="30.79491495659257" lon="-6.002545699918752"><ele>1123.0</ele><time>2026-05-05T11:22:20.999Z</time></trkpt><trkpt lat="30.794760028510808" lon="-6.002743002522598"><ele>1123.0</ele><time>2026-05-05T11:22:21.999Z</time></trkpt><trkpt lat="30.794604763638723" lon="-6.002946127338337"><ele>1123.0</ele><time>2026-05-05T11:22:22.999Z</time></trkpt><trkpt lat="30.794456005626433" lon="-6.003152078222963"><ele>1122.5</ele><time>2026-05-05T11:22:23.999Z</time></trkpt><trkpt lat="30.794306820841747" lon="-6.0033626276359895"><ele>1122.0</ele><time>2026-05-05T11:22:24.999Z</time></trkpt><trkpt lat="30.794155166592038" lon="-6.003565779930435"><ele>1122.0</ele><time>2026-05-05T11:22:25.999Z</time></trkpt><trkpt lat="30.794001466198694" lon="-6.0037702061744795"><ele>1122.0</ele><time>2026-05-05T11:22:26.999Z</time></trkpt><trkpt lat="30.793849274267203" lon="-6.003979101240097"><ele>1122.5</ele><time>2026-05-05T11:22:27.999Z</time></trkpt><trkpt lat="30.793698296423" lon="-6.004187517868212"><ele>1123.0</ele><time>2026-05-05T11:22:28.999Z</time></trkpt><trkpt lat="30.793543809398585" lon="-6.0043941442397735"><ele>1122.5</ele><time>2026-05-05T11:22:29.999Z</time></trkpt><trkpt lat="30.79339339595231" lon="-6.004604869782772"><ele>1122.0</ele><time>2026-05-05T11:22:30.999Z</time></trkpt><trkpt lat="30.793246702963312" lon="-6.004822185865847"><ele>1121.5</ele><time>2026-05-05T11:22:31.999Z</time></trkpt><trkpt lat="30.79309737679404" lon="-6.005035779310444"><ele>1121.0</ele><time>2026-05-05T11:22:32.999Z</time></trkpt><trkpt lat="30.792947116150497" lon="-6.005247691644886"><ele>1121.0</ele><time>2026-05-05T11:22:33.999Z</time></trkpt><trkpt lat="30.79280146628801" lon="-6.005456574256748"><ele>1121.0</ele><time>2026-05-05T11:22:34.999Z</time></trkpt><trkpt lat="30.792659584700246" lon="-6.0056602388999805"><ele>1120.6666666666667</ele><time>2026-05-05T11:22:36Z</time></trkpt><trkpt lat="30.792522448483492" lon="-6.0058579820068125"><ele>1120.3333333333333</ele><time>2026-05-05T11:22:37Z</time></trkpt><trkpt lat="30.79239065433738" lon="-6.006058787326622"><ele>1120.0</ele><time>2026-05-05T11:22:38Z</time></trkpt><trkpt lat="30.792265773277553" lon="-6.006254631734335"><ele>1120.0</ele><time>2026-05-05T11:22:39Z</time></trkpt><trkpt lat="30.792138753008363" lon="-6.006452485536271"><ele>1120.0</ele><time>2026-05-05T11:22:40Z</time></trkpt><trkpt lat="30.79200714981577" lon="-6.006649016958393"><ele>1120.0</ele><time>2026-05-05T11:22:41Z</time></trkpt><trkpt lat="30.79187199206586" lon="-6.006844259881676"><ele>1119.3333333333333</ele><time>2026-05-05T11:22:42Z</time></trkpt><trkpt lat="30.79173771934549" lon="-6.007042542375712"><ele>1118.6666666666667</ele><time>2026-05-05T11:22:43Z</time></trkpt><trkpt lat="30.791607248576092" lon="-6.007240801522288"><ele>1118.0</ele><time>2026-05-05T11:22:44Z</time></trkpt><trkpt lat="30.79147501932039" lon="-6.0074385747464065"><ele>1118.0</ele><time>2026-05-05T11:22:45Z</time></trkpt><trkpt lat="30.791343050651488" lon="-6.007635172339149"><ele>1118.0</ele><time>2026-05-05T11:22:46Z</time></trkpt><trkpt lat="30.79121196261047" lon="-6.007831227734807"><ele>1118.0</ele><time>2026-05-05T11:22:47Z</time></trkpt><trkpt lat="30.79107886504276" lon="-6.0080281799394495"><ele>1117.3333333333335</ele><time>2026-05-05T11:22:48Z</time></trkpt><trkpt lat="30.79094764772575" lon="-6.008225611111144"><ele>1116.6666666666667</ele><time>2026-05-05T11:22:49Z</time></trkpt><trkpt lat="30.79081489215642" lon="-6.00842394975933"><ele>1116.0</ele><time>2026-05-05T11:22:50Z</time></trkpt><trkpt lat="30.790680860492145" lon="-6.00862052236306"><ele>1116.0</ele><time>2026-05-05T11:22:51Z</time></trkpt><trkpt lat="30.790542580760142" lon="-6.008821758380344"><ele>1116.0</ele><time>2026-05-05T11:22:52Z</time></trkpt><trkpt lat="30.79040244175353" lon="-6.009026789514967"><ele>1116.0</ele><time>2026-05-05T11:22:53Z</time></trkpt><trkpt lat="30.790269065347577" lon="-6.009237045819825"><ele>1115.3333333333333</ele><time>2026-05-05T11:22:54Z</time></trkpt><trkpt lat="30.790135918872693" lon="-6.009444145039859"><ele>1114.6666666666665</ele><time>2026-05-05T11:22:55Z</time></trkpt><trkpt lat="30.790002607174358" lon="-6.009641616011105"><ele>1114.0</ele><time>2026-05-05T11:22:56Z</time></trkpt><trkpt lat="30.7898705094596" lon="-6.009832017504394"><ele>1114.3333333333333</ele><time>2026-05-05T11:22:57Z</time></trkpt><trkpt lat="30.789743378812684" lon="-6.010018432393789"><ele>1114.6666666666667</ele><time>2026-05-05T11:22:58Z</time></trkpt><trkpt lat="30.789619763157788" lon="-6.010202771327391"><ele>1115.0</ele><time>2026-05-05T11:22:59Z</time></trkpt><trkpt lat="30.789503329740814" lon="-6.010382755844034"><ele>1115.0</ele><time>2026-05-05T11:23:00Z</time></trkpt><trkpt lat="30.78938888411056" lon="-6.0105586837406255"><ele>1115.0</ele><time>2026-05-05T11:23:01Z</time></trkpt><trkpt lat="30.789274618887042" lon="-6.010730538071041"><ele>1115.0</ele><time>2026-05-05T11:23:02Z</time></trkpt><trkpt lat="30.789156505397855" lon="-6.010903543416398"><ele>1114.6666666666667</ele><time>2026-05-05T11:23:03Z</time></trkpt><trkpt lat="30.789034906125025" lon="-6.011086701575489"><ele>1114.3333333333333</ele><time>2026-05-05T11:23:04Z</time></trkpt><trkpt lat="30.78890823668497" lon="-6.011276560354784"><ele>1114.0</ele><time>2026-05-05T11:23:05Z</time></trkpt><trkpt lat="30.788781928155345" lon="-6.011467594048666"><ele>1114.0</ele><time>2026-05-05T11:23:06Z</time></trkpt><trkpt lat="30.78865724448867" lon="-6.0116599984429975"><ele>1114.0</ele><time>2026-05-05T11:23:07Z</time></trkpt><trkpt lat="30.788530384234924" lon="-6.011848439320005"><ele>1114.0</ele><time>2026-05-05T11:23:08Z</time></trkpt><trkpt lat="30.788404155233014" lon="-6.012039613066063"><ele>1113.3333333333333</ele><time>2026-05-05T11:23:09Z</time></trkpt><trkpt lat="30.788274034515375" lon="-6.0122306003223995"><ele>1112.6666666666667</ele><time>2026-05-05T11:23:10Z</time></trkpt><trkpt lat="30.788143444523875" lon="-6.012423906040218"><ele>1112.0</ele><time>2026-05-05T11:23:11Z</time></trkpt><trkpt lat="30.78801306268599" lon="-6.012617242843641"><ele>1111.6666666666667</ele><time>2026-05-05T11:23:12Z</time></trkpt><trkpt lat="30.787882837729384" lon="-6.0128115665090744"><ele>1111.3333333333333</ele><time>2026-05-05T11:23:13Z</time></trkpt><trkpt lat="30.787752422928854" lon="-6.013006931239044"><ele>1111.0</ele><time>2026-05-05T11:23:14Z</time></trkpt><trkpt lat="30.787622219229792" lon="-6.013206261631232"><ele>1110.3333333333333</ele><time>2026-05-05T11:23:15Z</time></trkpt><trkpt lat="30.78749230899398" lon="-6.013404926399887"><ele>1109.6666666666667</ele><time>2026-05-05T11:23:16Z</time></trkpt><trkpt lat="30.78735804966418" lon="-6.0136042409546455"><ele>1109.0</ele><time>2026-05-05T11:23:17Z</time></trkpt><trkpt lat="30.787221730347824" lon="-6.013806526221741"><ele>1109.0</ele><time>2026-05-05T11:23:18Z</time></trkpt><trkpt lat="30.787079062672444" lon="-6.014015273221732"><ele>1109.0</ele><time>2026-05-05T11:23:19Z</time></trkpt><trkpt lat="30.78693723386074" lon="-6.014231999568693"><ele>1108.0</ele><time>2026-05-05T11:23:20Z</time></trkpt><trkpt lat="30.786788712533575" lon="-6.014448417977583"><ele>1107.0</ele><time>2026-05-05T11:23:21Z</time></trkpt><trkpt lat="30.78664669867627" lon="-6.014668392210365"><ele>1107.0</ele><time>2026-05-05T11:23:22Z</time></trkpt><trkpt lat="30.78650675516981" lon="-6.014884785103842"><ele>1107.0</ele><time>2026-05-05T11:23:23Z</time></trkpt><trkpt lat="30.786360267005264" lon="-6.015097902288369"><ele>1106.5</ele><time>2026-05-05T11:23:24Z</time></trkpt><trkpt lat="30.786217080946614" lon="-6.015309658315076"><ele>1106.0</ele><time>2026-05-05T11:23:25Z</time></trkpt><trkpt lat="30.786077058188926" lon="-6.015520681151746"><ele>1104.5</ele><time>2026-05-05T11:23:26Z</time></trkpt><trkpt lat="30.78593354020543" lon="-6.015734261630403"><ele>1103.0</ele><time>2026-05-05T11:23:27Z</time></trkpt><trkpt lat="30.785793668645116" lon="-6.015944475724867"><ele>1103.0</ele><time>2026-05-05T11:23:28Z</time></trkpt><trkpt lat="30.78565130299945" lon="-6.016154647588447"><ele>1103.0</ele><time>2026-05-05T11:23:29Z</time></trkpt><trkpt lat="30.785510277751282" lon="-6.016362357222806"><ele>1103.0</ele><time>2026-05-05T11:23:30Z</time></trkpt><trkpt lat="30.785370151272506" lon="-6.016574255998654"><ele>1103.0</ele><time>2026-05-05T11:23:31Z</time></trkpt><trkpt lat="30.785231921332752" lon="-6.016786643810625"><ele>1102.5</ele><time>2026-05-05T11:23:32Z</time></trkpt><trkpt lat="30.78509042422717" lon="-6.017000444700058"><ele>1102.0</ele><time>2026-05-05T11:23:33Z</time></trkpt><trkpt lat="30.784951236882105" lon="-6.017214840441588"><ele>1102.0</ele><time>2026-05-05T11:23:34Z</time></trkpt><trkpt lat="30.784810253298286" lon="-6.017430462197843"><ele>1102.0</ele><time>2026-05-05T11:23:35Z</time></trkpt><trkpt lat="30.784671698084853" lon="-6.017648260774521"><ele>1101.5</ele><time>2026-05-05T11:23:36Z</time></trkpt><trkpt lat="30.784532571871118" lon="-6.0178673332450785"><ele>1101.0</ele><time>2026-05-05T11:23:37Z</time></trkpt><trkpt lat="30.784391493887238" lon="-6.018093849868566"><ele>1100.5</ele><time>2026-05-05T11:23:38Z</time></trkpt><trkpt lat="30.784263915079162" lon="-6.0183132365284475"><ele>1100.0</ele><time>2026-05-05T11:23:39Z</time></trkpt><trkpt lat="30.784134878185185" lon="-6.018533512991524"><ele>1100.0</ele><time>2026-05-05T11:23:40Z</time></trkpt><trkpt lat="30.784010849608872" lon="-6.01874836386101"><ele>1100.0</ele><time>2026-05-05T11:23:41Z</time></trkpt><trkpt lat="30.78388534595119" lon="-6.0189607718015665"><ele>1100.0</ele><time>2026-05-05T11:23:42Z</time></trkpt><trkpt lat="30.783755735341565" lon="-6.019177742546117"><ele>1100.0</ele><time>2026-05-05T11:23:43Z</time></trkpt><trkpt lat="30.783633769269432" lon="-6.0193975680225655"><ele>1100.0</ele><time>2026-05-05T11:23:44Z</time></trkpt><trkpt lat="30.783510230563756" lon="-6.019621052847099"><ele>1099.0</ele><time>2026-05-05T11:23:45Z</time></trkpt><trkpt lat="30.783385948038518" lon="-6.019843894586039"><ele>1098.0</ele><time>2026-05-05T11:23:46Z</time></trkpt><trkpt lat="30.783258632619706" lon="-6.020064590089363"><ele>1097.5</ele><time>2026-05-05T11:23:47Z</time></trkpt><trkpt lat="30.783128195868432" lon="-6.020285490931355"><ele>1097.0</ele><time>2026-05-05T11:23:48Z</time></trkpt><trkpt lat="30.783002020626583" lon="-6.0205095299909495"><ele>1097.0</ele><time>2026-05-05T11:23:49Z</time></trkpt><trkpt lat="30.782875500416427" lon="-6.020733790613602"><ele>1097.0</ele><time>2026-05-05T11:23:50Z</time></trkpt><trkpt lat="30.782741688860046" lon="-6.020959456578191"><ele>1096.0</ele><time>2026-05-05T11:23:51Z</time></trkpt><trkpt lat="30.782612394231187" lon="-6.021188399291983"><ele>1095.0</ele><time>2026-05-05T11:23:52Z</time></trkpt><trkpt lat="30.782487122486028" lon="-6.021419952078252"><ele>1095.0</ele><time>2026-05-05T11:23:53Z</time></trkpt><trkpt lat="30.78235558291045" lon="-6.021648387505242"><ele>1095.0</ele><time>2026-05-05T11:23:54Z</time></trkpt><trkpt lat="30.78222201127475" lon="-6.021872478659213"><ele>1094.5</ele><time>2026-05-05T11:23:55Z</time></trkpt><trkpt lat="30.782093625850855" lon="-6.022099394609624"><ele>1094.0</ele><time>2026-05-05T11:23:56Z</time></trkpt><trkpt lat="30.781962289774654" lon="-6.022321093242518"><ele>1093.5</ele><time>2026-05-05T11:23:57Z</time></trkpt><trkpt lat="30.78182769599735" lon="-6.022536840879567"><ele>1093.0</ele><time>2026-05-05T11:23:58Z</time></trkpt><trkpt lat="30.781697328458502" lon="-6.022753344505165"><ele>1093.0</ele><time>2026-05-05T11:23:59Z</time></trkpt><trkpt lat="30.781568389584628" lon="-6.022968580712695"><ele>1093.0</ele><time>2026-05-05T11:24:00Z</time></trkpt><trkpt lat="30.78144221665416" lon="-6.023181627015019"><ele>1093.0</ele><time>2026-05-05T11:24:01Z</time></trkpt><trkpt lat="30.78131398208183" lon="-6.023392670927981"><ele>1093.0</ele><time>2026-05-05T11:24:02Z</time></trkpt><trkpt lat="30.781180849366176" lon="-6.023599860411889"><ele>1093.0</ele><time>2026-05-05T11:24:03Z</time></trkpt><trkpt lat="30.78104559574147" lon="-6.023804976324738"><ele>1093.0</ele><time>2026-05-05T11:24:04Z</time></trkpt><trkpt lat="30.780908363362318" lon="-6.024010953726131"><ele>1091.6666666666665</ele><time>2026-05-05T11:24:05Z</time></trkpt><trkpt lat="30.78077733000672" lon="-6.024219690401017"><ele>1090.3333333333333</ele><time>2026-05-05T11:24:06Z</time></trkpt><trkpt lat="30.78064150536871" lon="-6.024425339397272"><ele>1089.0</ele><time>2026-05-05T11:24:07Z</time></trkpt><trkpt lat="30.780497960609985" lon="-6.024639972001754"><ele>1089.0</ele><time>2026-05-05T11:24:08Z</time></trkpt><trkpt lat="30.780354094994912" lon="-6.024857367650224"><ele>1089.0</ele><time>2026-05-05T11:24:09Z</time></trkpt><trkpt lat="30.7802104631805" lon="-6.025077763633114"><ele>1087.5</ele><time>2026-05-05T11:24:10Z</time></trkpt><trkpt lat="30.780065015146675" lon="-6.025297274718021"><ele>1086.0</ele><time>2026-05-05T11:24:11Z</time></trkpt><trkpt lat="30.77992084089779" lon="-6.0255172997908515"><ele>1086.0</ele><time>2026-05-05T11:24:12Z</time></trkpt><trkpt lat="30.77978001810267" lon="-6.0257377387004265"><ele>1086.0</ele><time>2026-05-05T11:24:13Z</time></trkpt><trkpt lat="30.77963849055241" lon="-6.025959247685392"><ele>1086.5</ele><time>2026-05-05T11:24:14Z</time></trkpt><trkpt lat="30.779493099820257" lon="-6.026173710649594"><ele>1087.0</ele><time>2026-05-05T11:24:15Z</time></trkpt><trkpt lat="30.779347469286517" lon="-6.026389400207826"><ele>1086.0</ele><time>2026-05-05T11:24:16Z</time></trkpt><trkpt lat="30.77920322166219" lon="-6.026606218553147"><ele>1085.0</ele><time>2026-05-05T11:24:17Z</time></trkpt><trkpt lat="30.779061886905893" lon="-6.026822787326017"><ele>1084.0</ele><time>2026-05-05T11:24:18Z</time></trkpt><trkpt lat="30.77892109266098" lon="-6.027035721492142"><ele>1083.0</ele><time>2026-05-05T11:24:19Z</time></trkpt><trkpt lat="30.77877793513232" lon="-6.027247812870452"><ele>1083.0</ele><time>2026-05-05T11:24:20Z</time></trkpt><trkpt lat="30.778635124634295" lon="-6.027460861871428"><ele>1083.0</ele><time>2026-05-05T11:24:21Z</time></trkpt><trkpt lat="30.778492606380112" lon="-6.0276760028652205"><ele>1082.5</ele><time>2026-05-05T11:24:22Z</time></trkpt><trkpt lat="30.778350745182948" lon="-6.027888616646413"><ele>1082.0</ele><time>2026-05-05T11:24:23Z</time></trkpt><trkpt lat="30.778205723858854" lon="-6.028105305471503"><ele>1083.0</ele><time>2026-05-05T11:24:24Z</time></trkpt><trkpt lat="30.778061633007386" lon="-6.028321193250602"><ele>1084.0</ele><time>2026-05-05T11:24:25Z</time></trkpt><trkpt lat="30.77791995365082" lon="-6.0285428505312355"><ele>1084.0</ele><time>2026-05-05T11:24:26Z</time></trkpt><trkpt lat="30.77777853586896" lon="-6.028761984477392"><ele>1084.0</ele><time>2026-05-05T11:24:27Z</time></trkpt><trkpt lat="30.77763569671257" lon="-6.0289798213337935"><ele>1084.5</ele><time>2026-05-05T11:24:28Z</time></trkpt><trkpt lat="30.77749070479243" lon="-6.029192835351838"><ele>1085.0</ele><time>2026-05-05T11:24:29Z</time></trkpt><trkpt lat="30.777344834154356" lon="-6.029404260744274"><ele>1085.0</ele><time>2026-05-05T11:24:30Z</time></trkpt><trkpt lat="30.777202278269375" lon="-6.029615893093205"><ele>1085.0</ele><time>2026-05-05T11:24:31Z</time></trkpt><trkpt lat="30.777065458829615" lon="-6.029828669539503"><ele>1085.5</ele><time>2026-05-05T11:24:32Z</time></trkpt><trkpt lat="30.776929122896995" lon="-6.030037797313935"><ele>1086.0</ele><time>2026-05-05T11:24:33Z</time></trkpt><trkpt lat="30.776792735521216" lon="-6.030246143294198"><ele>1085.6666666666667</ele><time>2026-05-05T11:24:34Z</time></trkpt><trkpt lat="30.77666304600685" lon="-6.030443858702626"><ele>1085.3333333333335</ele><time>2026-05-05T11:24:35Z</time></trkpt><trkpt lat="30.776541471131317" lon="-6.0306331824884625"><ele>1085.0</ele><time>2026-05-05T11:24:36Z</time></trkpt><trkpt lat="30.776417504181985" lon="-6.030821488533412"><ele>1085.0</ele><time>2026-05-05T11:24:37Z</time></trkpt><trkpt lat="30.776294255517694" lon="-6.031011678969967"><ele>1085.0</ele><time>2026-05-05T11:24:38Z</time></trkpt><trkpt lat="30.77617454517959" lon="-6.0311988295134205"><ele>1085.0</ele><time>2026-05-05T11:24:39Z</time></trkpt><trkpt lat="30.7760532166335" lon="-6.031383943590863"><ele>1084.6666666666667</ele><time>2026-05-05T11:24:40Z</time></trkpt><trkpt lat="30.77592938265646" lon="-6.0315671923275795"><ele>1084.3333333333333</ele><time>2026-05-05T11:24:41Z</time></trkpt><trkpt lat="30.775803861949274" lon="-6.031753256716942"><ele>1084.0</ele><time>2026-05-05T11:24:42Z</time></trkpt><trkpt lat="30.775678095934694" lon="-6.03194005008463"><ele>1084.0</ele><time>2026-05-05T11:24:43Z</time></trkpt><trkpt lat="30.775551213670145" lon="-6.032133766893815"><ele>1084.0</ele><time>2026-05-05T11:24:44Z</time></trkpt><trkpt lat="30.77541829846846" lon="-6.032330300175039"><ele>1084.0</ele><time>2026-05-05T11:24:45Z</time></trkpt><trkpt lat="30.77528200247593" lon="-6.032529236290683"><ele>1083.0</ele><time>2026-05-05T11:24:46Z</time></trkpt><trkpt lat="30.775144033087372" lon="-6.032731449884606"><ele>1082.0</ele><time>2026-05-05T11:24:47Z</time></trkpt><trkpt lat="30.775005580538608" lon="-6.032935900172871"><ele>1081.0</ele><time>2026-05-05T11:24:48Z</time></trkpt><trkpt lat="30.77487182941025" lon="-6.0331371659913575"><ele>1082.0</ele><time>2026-05-05T11:24:49Z</time></trkpt><trkpt lat="30.774739626726245" lon="-6.033337734054285"><ele>1083.0</ele><time>2026-05-05T11:24:50Z</time></trkpt><trkpt lat="30.77460881909187" lon="-6.033534103519566"><ele>1084.0</ele><time>2026-05-05T11:24:51Z</time></trkpt><trkpt lat="30.77448125873896" lon="-6.033729588391864"><ele>1084.0</ele><time>2026-05-05T11:24:52Z</time></trkpt><trkpt lat="30.77435613572711" lon="-6.033924046633228"><ele>1084.0</ele><time>2026-05-05T11:24:53Z</time></trkpt><trkpt lat="30.774231995798065" lon="-6.034115928610824"><ele>1084.0</ele><time>2026-05-05T11:24:54Z</time></trkpt><trkpt lat="30.774104410852164" lon="-6.034303390713437"><ele>1083.0</ele><time>2026-05-05T11:24:55Z</time></trkpt><trkpt lat="30.773976480368407" lon="-6.03448661909934"><ele>1082.0</ele><time>2026-05-05T11:24:56Z</time></trkpt><trkpt lat="30.773852510203238" lon="-6.034677483841619"><ele>1081.0</ele><time>2026-05-05T11:24:57Z</time></trkpt><trkpt lat="30.773729199481274" lon="-6.034868707932998"><ele>1081.3333333333333</ele><time>2026-05-05T11:24:58Z</time></trkpt><trkpt lat="30.773604076519124" lon="-6.035059951008626"><ele>1081.6666666666667</ele><time>2026-05-05T11:24:59Z</time></trkpt><trkpt lat="30.773479136118457" lon="-6.035253550215192"><ele>1082.0</ele><time>2026-05-05T11:25:00Z</time></trkpt><trkpt lat="30.773351029580176" lon="-6.035446226441227"><ele>1081.0</ele><time>2026-05-05T11:25:01Z</time></trkpt><trkpt lat="30.773224266820485" lon="-6.035639962484528"><ele>1080.0</ele><time>2026-05-05T11:25:02Z</time></trkpt><trkpt lat="30.773097944116948" lon="-6.035837737376577"><ele>1079.0</ele><time>2026-05-05T11:25:03Z</time></trkpt><trkpt lat="30.772967378028735" lon="-6.036031600096584"><ele>1079.0</ele><time>2026-05-05T11:25:04Z</time></trkpt><trkpt lat="30.772836052679914" lon="-6.0362297363241515"><ele>1079.0</ele><time>2026-05-05T11:25:05Z</time></trkpt><trkpt lat="30.7727026000176" lon="-6.036430444040762"><ele>1079.0</ele><time>2026-05-05T11:25:06Z</time></trkpt><trkpt lat="30.77256697591311" lon="-6.036630441963455"><ele>1078.3333333333335</ele><time>2026-05-05T11:25:07Z</time></trkpt><trkpt lat="30.772429505465766" lon="-6.036833421450738"><ele>1077.6666666666667</ele><time>2026-05-05T11:25:08Z</time></trkpt><trkpt lat="30.772292988665733" lon="-6.037036512775427"><ele>1077.0</ele><time>2026-05-05T11:25:09Z</time></trkpt><trkpt lat="30.772154518833567" lon="-6.037242957656903"><ele>1077.0</ele><time>2026-05-05T11:25:10Z</time></trkpt><trkpt lat="30.77201792304301" lon="-6.03745285565441"><ele>1077.0</ele><time>2026-05-05T11:25:11Z</time></trkpt><trkpt lat="30.771882696242336" lon="-6.037667204648603"><ele>1076.0</ele><time>2026-05-05T11:25:12Z</time></trkpt><trkpt lat="30.77174454972027" lon="-6.0378786471971715"><ele>1075.0</ele><time>2026-05-05T11:25:13Z</time></trkpt><trkpt lat="30.771603697964707" lon="-6.038088141045306"><ele>1075.0</ele><time>2026-05-05T11:25:14Z</time></trkpt><trkpt lat="30.771461827922177" lon="-6.0382995324862145"><ele>1075.0</ele><time>2026-05-05T11:25:15Z</time></trkpt><trkpt lat="30.77132074628524" lon="-6.038514176214951"><ele>1075.0</ele><time>2026-05-05T11:25:16Z</time></trkpt><trkpt lat="30.771181015638007" lon="-6.0387261426955545"><ele>1075.0</ele><time>2026-05-05T11:25:17Z</time></trkpt><trkpt lat="30.771042157011905" lon="-6.03894020800754"><ele>1073.5</ele><time>2026-05-05T11:25:18Z</time></trkpt><trkpt lat="30.770901390792638" lon="-6.0391494287934115"><ele>1072.0</ele><time>2026-05-05T11:25:19Z</time></trkpt><trkpt lat="30.770760735339515" lon="-6.0393610614277975"><ele>1072.0</ele><time>2026-05-05T11:25:20Z</time></trkpt><trkpt lat="30.770622907449933" lon="-6.039573475768801"><ele>1072.0</ele><time>2026-05-05T11:25:21Z</time></trkpt><trkpt lat="30.770483783485666" lon="-6.039783131175977"><ele>1072.5</ele><time>2026-05-05T11:25:22Z</time></trkpt><trkpt lat="30.77034411453319" lon="-6.039992653137188"><ele>1073.0</ele><time>2026-05-05T11:25:23Z</time></trkpt><trkpt lat="30.770204614310657" lon="-6.040204441171954"><ele>1071.0</ele><time>2026-05-05T11:25:24Z</time></trkpt><trkpt lat="30.77006429167416" lon="-6.0404181207833325"><ele>1069.0</ele><time>2026-05-05T11:25:25Z</time></trkpt><trkpt lat="30.769921544692856" lon="-6.040633867514177"><ele>1069.5</ele><time>2026-05-05T11:25:26Z</time></trkpt><trkpt lat="30.769777043222067" lon="-6.040847369513527"><ele>1070.0</ele><time>2026-05-05T11:25:27Z</time></trkpt><trkpt lat="30.769632363758458" lon="-6.041062043023173"><ele>1070.0</ele><time>2026-05-05T11:25:28Z</time></trkpt><trkpt lat="30.769490749528977" lon="-6.04128008132555"><ele>1070.0</ele><time>2026-05-05T11:25:29Z</time></trkpt><trkpt lat="30.769346867880937" lon="-6.0414992825147396"><ele>1068.0</ele><time>2026-05-05T11:25:30Z</time></trkpt><trkpt lat="30.769204410606406" lon="-6.04171897674348"><ele>1066.0</ele><time>2026-05-05T11:25:31Z</time></trkpt><trkpt lat="30.76906307174273" lon="-6.041936389502595"><ele>1066.0</ele><time>2026-05-05T11:25:32Z</time></trkpt><trkpt lat="30.76892226361611" lon="-6.042149761033372"><ele>1066.0</ele><time>2026-05-05T11:25:33Z</time></trkpt><trkpt lat="30.768783498272445" lon="-6.0423616465648"><ele>1066.0</ele><time>2026-05-05T11:25:34Z</time></trkpt><trkpt lat="30.768651003926298" lon="-6.04256836570712"><ele>1066.0</ele><time>2026-05-05T11:25:35Z</time></trkpt><trkpt lat="30.76850989546969" lon="-6.0427520894266"><ele>1066.0</ele><time>2026-05-05T11:25:36Z</time></trkpt><trkpt lat="30.768382599609915" lon="-6.042944507610681"><ele>1065.3333333333333</ele><time>2026-05-05T11:25:37Z</time></trkpt><trkpt lat="30.76826684848946" lon="-6.0431493238109555"><ele>1064.6666666666667</ele><time>2026-05-05T11:25:38Z</time></trkpt><trkpt lat="30.768132279288373" lon="-6.043344423753318"><ele>1064.0</ele><time>2026-05-05T11:25:39Z</time></trkpt><trkpt lat="30.768000990870693" lon="-6.0435411341865874"><ele>1064.0</ele><time>2026-05-05T11:25:40Z</time></trkpt><trkpt lat="30.767872276519512" lon="-6.043743250352481"><ele>1064.0</ele><time>2026-05-05T11:25:41Z</time></trkpt><trkpt lat="30.767740184631723" lon="-6.0439432070666665"><ele>1064.0</ele><time>2026-05-05T11:25:42Z</time></trkpt><trkpt lat="30.767607563171218" lon="-6.044146206160838"><ele>1063.3333333333335</ele><time>2026-05-05T11:25:43Z</time></trkpt><trkpt lat="30.767475911816533" lon="-6.044349748522744"><ele>1062.6666666666667</ele><time>2026-05-05T11:25:44Z</time></trkpt><trkpt lat="30.767343319739346" lon="-6.044554508145049"><ele>1062.0</ele><time>2026-05-05T11:25:45Z</time></trkpt><trkpt lat="30.76720769492485" lon="-6.0447613406885985"><ele>1062.3333333333333</ele><time>2026-05-05T11:25:46Z</time></trkpt><trkpt lat="30.767072079296966" lon="-6.044964659547649"><ele>1062.6666666666665</ele><time>2026-05-05T11:25:47Z</time></trkpt><trkpt lat="30.76693383866658" lon="-6.045169015224873"><ele>1063.0</ele><time>2026-05-05T11:25:48Z</time></trkpt><trkpt lat="30.76679941363206" lon="-6.045378817379271"><ele>1061.0</ele><time>2026-05-05T11:25:49Z</time></trkpt><trkpt lat="30.766663669369137" lon="-6.045588486695296"><ele>1059.0</ele><time>2026-05-05T11:25:50Z</time></trkpt><trkpt lat="30.76652488861232" lon="-6.045798226207601"><ele>1059.0</ele><time>2026-05-05T11:25:51Z</time></trkpt><trkpt lat="30.766384613083346" lon="-6.046008141965405"><ele>1059.0</ele><time>2026-05-05T11:25:52Z</time></trkpt><trkpt lat="30.766246775675704" lon="-6.046216822417895"><ele>1059.0</ele><time>2026-05-05T11:25:53Z</time></trkpt><trkpt lat="30.766109303654186" lon="-6.046431069008002"><ele>1059.0</ele><time>2026-05-05T11:25:54Z</time></trkpt><trkpt lat="30.765972308988918" lon="-6.046645891938118"><ele>1058.5</ele><time>2026-05-05T11:25:55Z</time></trkpt><trkpt lat="30.765834868765825" lon="-6.046859200176635"><ele>1058.0</ele><time>2026-05-05T11:25:56Z</time></trkpt><trkpt lat="30.765691644068095" lon="-6.047070035569741"><ele>1058.0</ele><time>2026-05-05T11:25:57Z</time></trkpt><trkpt lat="30.765551380211544" lon="-6.047278177504004"><ele>1058.0</ele><time>2026-05-05T11:25:58Z</time></trkpt><trkpt lat="30.765411524747044" lon="-6.047491605398913"><ele>1058.0</ele><time>2026-05-05T11:25:59Z</time></trkpt><trkpt lat="30.765272159523292" lon="-6.047700850802598"><ele>1058.0</ele><time>2026-05-05T11:26:00Z</time></trkpt><trkpt lat="30.76513535836412" lon="-6.047910756864398"><ele>1057.0</ele><time>2026-05-05T11:26:01Z</time></trkpt><trkpt lat="30.76499573785085" lon="-6.04812035241147"><ele>1056.0</ele><time>2026-05-05T11:26:02Z</time></trkpt><trkpt lat="30.764852299743126" lon="-6.048324397302984"><ele>1056.0</ele><time>2026-05-05T11:26:03Z</time></trkpt><trkpt lat="30.76471458113832" lon="-6.0485423542555905"><ele>1056.0</ele><time>2026-05-05T11:26:04Z</time></trkpt><trkpt lat="30.764582678768175" lon="-6.048764701196576"><ele>1056.0</ele><time>2026-05-05T11:26:05Z</time></trkpt><trkpt lat="30.76443848672819" lon="-6.048973411653952"><ele>1056.0</ele><time>2026-05-05T11:26:06Z</time></trkpt><trkpt lat="30.764289561636296" lon="-6.049178624570389"><ele>1053.5</ele><time>2026-05-05T11:26:07Z</time></trkpt><trkpt lat="30.764158057114866" lon="-6.049399517963336"><ele>1051.0</ele><time>2026-05-05T11:26:08Z</time></trkpt><trkpt lat="30.764026553662415" lon="-6.049617243698573"><ele>1051.0</ele><time>2026-05-05T11:26:09Z</time></trkpt><trkpt lat="30.763875790443517" lon="-6.049821910290706"><ele>1051.0</ele><time>2026-05-05T11:26:10Z</time></trkpt><trkpt lat="30.763726819457695" lon="-6.050024310432148"><ele>1051.5</ele><time>2026-05-05T11:26:11Z</time></trkpt><trkpt lat="30.763595859798425" lon="-6.0502424822017105"><ele>1052.0</ele><time>2026-05-05T11:26:12Z</time></trkpt><trkpt lat="30.76346602930276" lon="-6.050459789790387"><ele>1050.0</ele><time>2026-05-05T11:26:13Z</time></trkpt><trkpt lat="30.763326548623468" lon="-6.05067018290403"><ele>1048.0</ele><time>2026-05-05T11:26:14Z</time></trkpt><trkpt lat="30.763186632439723" lon="-6.050878521754004"><ele>1048.0</ele><time>2026-05-05T11:26:15Z</time></trkpt><trkpt lat="30.763049992525303" lon="-6.051088653881586"><ele>1048.0</ele><time>2026-05-05T11:26:16Z</time></trkpt><trkpt lat="30.76291295755042" lon="-6.051298516771329"><ele>1048.0</ele><time>2026-05-05T11:26:17Z</time></trkpt><trkpt lat="30.76277436774999" lon="-6.051509773673346"><ele>1048.0</ele><time>2026-05-05T11:26:18Z</time></trkpt><trkpt lat="30.762636875882496" lon="-6.051723559772486"><ele>1046.5</ele><time>2026-05-05T11:26:19Z</time></trkpt><trkpt lat="30.762498236203715" lon="-6.051937016543856"><ele>1045.0</ele><time>2026-05-05T11:26:20Z</time></trkpt><trkpt lat="30.76236042675031" lon="-6.05214968842979"><ele>1045.0</ele><time>2026-05-05T11:26:21Z</time></trkpt><trkpt lat="30.762219268515157" lon="-6.052359808566719"><ele>1045.0</ele><time>2026-05-05T11:26:22Z</time></trkpt><trkpt lat="30.762076041222155" lon="-6.052570984502611"><ele>1045.5</ele><time>2026-05-05T11:26:23Z</time></trkpt><trkpt lat="30.76193490501147" lon="-6.052786544007625"><ele>1046.0</ele><time>2026-05-05T11:26:24Z</time></trkpt><trkpt lat="30.761794784075672" lon="-6.053003108277991"><ele>1046.0</ele><time>2026-05-05T11:26:25Z</time></trkpt><trkpt lat="30.761653327397024" lon="-6.0532175539702"><ele>1046.0</ele><time>2026-05-05T11:26:26Z</time></trkpt><trkpt lat="30.76151210626561" lon="-6.053432543640967"><ele>1046.0</ele><time>2026-05-05T11:26:27Z</time></trkpt><trkpt lat="30.76137185954665" lon="-6.053646898810751"><ele>1046.0</ele><time>2026-05-05T11:26:28Z</time></trkpt><trkpt lat="30.761234113693074" lon="-6.053859054814501"><ele>1046.0</ele><time>2026-05-05T11:26:29Z</time></trkpt><trkpt lat="30.761094358123863" lon="-6.054069329589497"><ele>1046.0</ele><time>2026-05-05T11:26:30Z</time></trkpt><trkpt lat="30.760956217123965" lon="-6.054281627533404"><ele>1045.5</ele><time>2026-05-05T11:26:31Z</time></trkpt><trkpt lat="30.76081512379638" lon="-6.054492266610002"><ele>1045.0</ele><time>2026-05-05T11:26:32Z</time></trkpt><trkpt lat="30.760678183542556" lon="-6.054702022016446"><ele>1045.0</ele><time>2026-05-05T11:26:33Z</time></trkpt><trkpt lat="30.760537471213592" lon="-6.054914270872062"><ele>1045.0</ele><time>2026-05-05T11:26:34Z</time></trkpt><trkpt lat="30.760396206042195" lon="-6.055122180397151"><ele>1045.0</ele><time>2026-05-05T11:26:35Z</time></trkpt><trkpt lat="30.760257410676687" lon="-6.055335046747586"><ele>1045.0</ele><time>2026-05-05T11:26:36Z</time></trkpt><trkpt lat="30.7601240641079" lon="-6.055544644264978"><ele>1044.6666666666665</ele><time>2026-05-05T11:26:37Z</time></trkpt><trkpt lat="30.76000183932962" lon="-6.05573989227228"><ele>1044.3333333333333</ele><time>2026-05-05T11:26:38Z</time></trkpt><trkpt lat="30.759883852504824" lon="-6.055925811445628"><ele>1044.0</ele><time>2026-05-05T11:26:39Z</time></trkpt><trkpt lat="30.759771788401633" lon="-6.0560984327150695"><ele>1044.0</ele><time>2026-05-05T11:26:40Z</time></trkpt><trkpt lat="30.759666055705065" lon="-6.05626972298838"><ele>1044.0</ele><time>2026-05-05T11:26:41Z</time></trkpt><trkpt lat="30.759558315061646" lon="-6.056434680546734"><ele>1044.0</ele><time>2026-05-05T11:26:42Z</time></trkpt><trkpt lat="30.759449246839196" lon="-6.056602451212465"><ele>1043.0</ele><time>2026-05-05T11:26:43Z</time></trkpt><trkpt lat="30.75934572200134" lon="-6.056773142745596"><ele>1042.0</ele><time>2026-05-05T11:26:44Z</time></trkpt><trkpt lat="30.75924061450289" lon="-6.056943131061213"><ele>1041.0</ele><time>2026-05-05T11:26:45Z</time></trkpt><trkpt lat="30.75913684869577" lon="-6.05711317002774"><ele>1041.0</ele><time>2026-05-05T11:26:46Z</time></trkpt><trkpt lat="30.75903116234005" lon="-6.057280819833271"><ele>1041.0</ele><time>2026-05-05T11:26:47Z</time></trkpt><trkpt lat="30.758924717667135" lon="-6.057447493128681"><ele>1041.0</ele><time>2026-05-05T11:26:48Z</time></trkpt><trkpt lat="30.75881963688068" lon="-6.057612416504487"><ele>1040.6666666666667</ele><time>2026-05-05T11:26:49Z</time></trkpt><trkpt lat="30.758715424850017" lon="-6.057778512574084"><ele>1040.3333333333335</ele><time>2026-05-05T11:26:50Z</time></trkpt><trkpt lat="30.75860337662975" lon="-6.0579399962654294"><ele>1040.0</ele><time>2026-05-05T11:26:51Z</time></trkpt><trkpt lat="30.758494654573198" lon="-6.05810062871481"><ele>1039.0</ele><time>2026-05-05T11:26:52Z</time></trkpt><trkpt lat="30.758384242841053" lon="-6.058258450236958"><ele>1038.0</ele><time>2026-05-05T11:26:53Z</time></trkpt><trkpt lat="30.758276975902543" lon="-6.058410927921573"><ele>1037.0</ele><time>2026-05-05T11:26:54Z</time></trkpt><trkpt lat="30.75817181922604" lon="-6.058554843383872"><ele>1037.0</ele><time>2026-05-05T11:26:55Z</time></trkpt><trkpt lat="30.75806914325997" lon="-6.0587076171708"><ele>1037.0</ele><time>2026-05-05T11:26:56Z</time></trkpt><trkpt lat="30.757975292155464" lon="-6.058839295947438"><ele>1037.0</ele><time>2026-05-05T11:26:57Z</time></trkpt><trkpt lat="30.75788576265829" lon="-6.0589719479297015"><ele>1037.0</ele><time>2026-05-05T11:26:58Z</time></trkpt><trkpt lat="30.757795794239716" lon="-6.059099556141388"><ele>1037.0</ele><time>2026-05-05T11:26:59Z</time></trkpt><trkpt lat="30.75770772844111" lon="-6.05922697145151"><ele>1037.0</ele><time>2026-05-05T11:27:00Z</time></trkpt><trkpt lat="30.75762155976487" lon="-6.059344928914069"><ele>1037.0</ele><time>2026-05-05T11:27:01Z</time></trkpt><trkpt lat="30.757541284999345" lon="-6.059458095578377"><ele>1037.0</ele><time>2026-05-05T11:27:02Z</time></trkpt><trkpt lat="30.757459250162754" lon="-6.0595664848663535"><ele>1037.0</ele><time>2026-05-05T11:27:03Z</time></trkpt><trkpt lat="30.757379794590737" lon="-6.0596761771570105"><ele>1037.0</ele><time>2026-05-05T11:27:04Z</time></trkpt><trkpt lat="30.75730622935098" lon="-6.059792581185658"><ele>1037.0</ele><time>2026-05-05T11:27:05Z</time></trkpt><trkpt lat="30.757229210318084" lon="-6.059907090563271"><ele>1037.25</ele><time>2026-05-05T11:27:06Z</time></trkpt><trkpt lat="30.75715216886437" lon="-6.060021723869069"><ele>1037.5</ele><time>2026-05-05T11:27:07Z</time></trkpt><trkpt lat="30.757084852888504" lon="-6.060145338427136"><ele>1037.75</ele><time>2026-05-05T11:27:08Z</time></trkpt><trkpt lat="30.757005811577148" lon="-6.060273143123038"><ele>1038.0</ele><time>2026-05-05T11:27:09Z</time></trkpt><trkpt lat="30.756933338195076" lon="-6.060410154184417"><ele>1037.0</ele><time>2026-05-05T11:27:10Z</time></trkpt><trkpt lat="30.756852667675094" lon="-6.060545805035036"><ele>1036.0</ele><time>2026-05-05T11:27:11Z</time></trkpt><trkpt lat="30.756770426895994" lon="-6.0606919507870325"><ele>1035.0</ele><time>2026-05-05T11:27:12Z</time></trkpt><trkpt lat="30.756685811463125" lon="-6.060848466650477"><ele>1035.0</ele><time>2026-05-05T11:27:13Z</time></trkpt><trkpt lat="30.75659669641078" lon="-6.061010681486234"><ele>1035.0</ele><time>2026-05-05T11:27:14Z</time></trkpt><trkpt lat="30.75650345720622" lon="-6.061174443319642"><ele>1035.0</ele><time>2026-05-05T11:27:15Z</time></trkpt><trkpt lat="30.756408930133016" lon="-6.061350548492605"><ele>1035.0</ele><time>2026-05-05T11:27:16Z</time></trkpt><trkpt lat="30.756308549756774" lon="-6.061523714539026"><ele>1035.0</ele><time>2026-05-05T11:27:17Z</time></trkpt><trkpt lat="30.756206539134812" lon="-6.061696290184051"><ele>1035.0</ele><time>2026-05-05T11:27:18Z</time></trkpt><trkpt lat="30.756105122696493" lon="-6.0618870902561515"><ele>1034.3333333333333</ele><time>2026-05-05T11:27:19Z</time></trkpt><trkpt lat="30.756006541635056" lon="-6.062080907446677"><ele>1033.6666666666665</ele><time>2026-05-05T11:27:20Z</time></trkpt><trkpt lat="30.755911721920818" lon="-6.062279051396867"><ele>1033.0</ele><time>2026-05-05T11:27:21Z</time></trkpt><trkpt lat="30.75581941503484" lon="-6.062485050167008"><ele>1032.3333333333333</ele><time>2026-05-05T11:27:22Z</time></trkpt><trkpt lat="30.755729027838054" lon="-6.062691351287543"><ele>1031.6666666666667</ele><time>2026-05-05T11:27:23Z</time></trkpt><trkpt lat="30.755636778516205" lon="-6.062890148806624"><ele>1031.0</ele><time>2026-05-05T11:27:24Z</time></trkpt><trkpt lat="30.75555009565785" lon="-6.0630828570260435"><ele>1031.0</ele><time>2026-05-05T11:27:25Z</time></trkpt><trkpt lat="30.755462396728557" lon="-6.063262132143708"><ele>1031.0</ele><time>2026-05-05T11:27:26Z</time></trkpt><trkpt lat="30.755382654247672" lon="-6.063435051144306"><ele>1031.0</ele><time>2026-05-05T11:27:27Z</time></trkpt><trkpt lat="30.755312937213713" lon="-6.063585141742256"><ele>1031.0</ele><time>2026-05-05T11:27:28Z</time></trkpt><trkpt lat="30.755246568154448" lon="-6.063715477891361"><ele>1031.0</ele><time>2026-05-05T11:27:29Z</time></trkpt><trkpt lat="30.75519274025167" lon="-6.063832064379265"><ele>1031.0</ele><time>2026-05-05T11:27:30Z</time></trkpt><trkpt lat="30.755156772408082" lon="-6.063920095526595"><ele>1031.0</ele><time>2026-05-05T11:27:31Z</time></trkpt><trkpt lat="30.755126176753244" lon="-6.063991624306986"><ele>1031.0</ele><time>2026-05-05T11:27:32Z</time></trkpt><trkpt lat="30.75510518503684" lon="-6.0640776021090845"><ele>1031.0</ele><time>2026-05-05T11:27:34Z</time></trkpt><trkpt lat="30.755059939764006" lon="-6.064025565220396"><ele>1031.0</ele><time>2026-05-05T11:27:38Z</time></trkpt><trkpt lat="30.75511062705111" lon="-6.063965326012037"><ele>1031.0</ele><time>2026-05-05T11:27:40Z</time></trkpt><trkpt lat="30.755088979769848" lon="-6.063856628069312"><ele>1031.0</ele><time>2026-05-05T11:27:41Z</time></trkpt><trkpt lat="30.755133881555615" lon="-6.063753695671827"><ele>1031.0</ele><time>2026-05-05T11:27:42Z</time></trkpt><trkpt lat="30.755183652382836" lon="-6.063640947567785"><ele>1031.0</ele><time>2026-05-05T11:27:43Z</time></trkpt><trkpt lat="30.7552401755187" lon="-6.063513772635769"><ele>1031.0</ele><time>2026-05-05T11:27:44Z</time></trkpt><trkpt lat="30.755300621266095" lon="-6.063378983644044"><ele>1031.0</ele><time>2026-05-05T11:27:45Z</time></trkpt><trkpt lat="30.755360819501835" lon="-6.063244595911739"><ele>1031.0</ele><time>2026-05-05T11:27:46Z</time></trkpt><trkpt lat="30.75542683872307" lon="-6.063097021109521"><ele>1031.0</ele><time>2026-05-05T11:27:47Z</time></trkpt><trkpt lat="30.755498786420084" lon="-6.062936376718405"><ele>1031.0</ele><time>2026-05-05T11:27:48Z</time></trkpt><trkpt lat="30.755572266117372" lon="-6.062774529650769"><ele>1031.0</ele><time>2026-05-05T11:27:49Z</time></trkpt><trkpt lat="30.755640243565733" lon="-6.062622685851071"><ele>1031.0</ele><time>2026-05-05T11:27:50Z</time></trkpt><trkpt lat="30.75571142211576" lon="-6.06245694151471"><ele>1031.6666666666667</ele><time>2026-05-05T11:27:51Z</time></trkpt><trkpt lat="30.75579604329576" lon="-6.062275650145918"><ele>1032.3333333333333</ele><time>2026-05-05T11:27:52Z</time></trkpt><trkpt lat="30.755884209313628" lon="-6.062087382360981"><ele>1033.0</ele><time>2026-05-05T11:27:53Z</time></trkpt><trkpt lat="30.755973030171386" lon="-6.061904538312126"><ele>1033.6666666666665</ele><time>2026-05-05T11:27:54Z</time></trkpt><trkpt lat="30.756056373278504" lon="-6.061734818907174"><ele>1034.3333333333333</ele><time>2026-05-05T11:27:55Z</time></trkpt><trkpt lat="30.75613658408216" lon="-6.061582993478072"><ele>1035.0</ele><time>2026-05-05T11:27:56Z</time></trkpt><trkpt lat="30.75621797244769" lon="-6.061432578725884"><ele>1035.0</ele><time>2026-05-05T11:27:57Z</time></trkpt><trkpt lat="30.756295425743737" lon="-6.061295282720606"><ele>1035.0</ele><time>2026-05-05T11:27:58Z</time></trkpt><trkpt lat="30.75637219671899" lon="-6.0611580865597405"><ele>1035.0</ele><time>2026-05-05T11:27:59Z</time></trkpt><trkpt lat="30.756454286970552" lon="-6.0610162410011545"><ele>1035.0</ele><time>2026-05-05T11:28:00Z</time></trkpt><trkpt lat="30.756533610186718" lon="-6.060879358902923"><ele>1035.0</ele><time>2026-05-05T11:28:01Z</time></trkpt><trkpt lat="30.756607969049938" lon="-6.060751209001665"><ele>1035.0</ele><time>2026-05-05T11:28:02Z</time></trkpt><trkpt lat="30.756678442366145" lon="-6.060629755452332"><ele>1035.0</ele><time>2026-05-05T11:28:03Z</time></trkpt><trkpt lat="30.75674198403221" lon="-6.0605202478878635"><ele>1035.0</ele><time>2026-05-05T11:28:04Z</time></trkpt><trkpt lat="30.75679804110781" lon="-6.060423639253191"><ele>1035.0</ele><time>2026-05-05T11:28:05Z</time></trkpt><trkpt lat="30.75685181961087" lon="-6.06033090596321"><ele>1035.0</ele><time>2026-05-05T11:28:06Z</time></trkpt><trkpt lat="30.75690271450604" lon="-6.060242731963903"><ele>1035.0</ele><time>2026-05-05T11:28:07Z</time></trkpt><trkpt lat="30.756949894166645" lon="-6.0601638341702735"><ele>1035.0</ele><time>2026-05-05T11:28:08Z</time></trkpt><trkpt lat="30.756990151784873" lon="-6.060096398742528"><ele>1035.0</ele><time>2026-05-05T11:28:09Z</time></trkpt><trkpt lat="30.75704559996431" lon="-6.060003517649707"><ele>1035.0</ele><time>2026-05-05T11:28:11Z</time></trkpt><trkpt lat="30.75701855349681" lon="-6.059922979580652"><ele>1035.3333333333333</ele><time>2026-05-05T11:28:14Z</time></trkpt><trkpt lat="30.757044176898432" lon="-6.059851953839741"><ele>1035.6666666666667</ele><time>2026-05-05T11:29:22Z</time></trkpt><trkpt lat="30.757115826330477" lon="-6.059867906545642"><ele>1036.0</ele><time>2026-05-05T11:49:05.001Z</time></trkpt><trkpt lat="30.757128681751038" lon="-6.0599585781881995"><ele>1036.3333333333335</ele><time>2026-05-05T11:49:07.001Z</time></trkpt><trkpt lat="30.757098828870053" lon="-6.0600468179031575"><ele>1036.6666666666667</ele><time>2026-05-05T11:49:08.001Z</time></trkpt><trkpt lat="30.757045649521817" lon="-6.060184482936356"><ele>1037.0</ele><time>2026-05-05T11:49:09.001Z</time></trkpt><trkpt lat="30.756968950904533" lon="-6.06034139265947"><ele>1036.3333333333335</ele><time>2026-05-05T11:49:10.001Z</time></trkpt><trkpt lat="30.756866518264676" lon="-6.06050567688447"><ele>1035.6666666666667</ele><time>2026-05-05T11:49:11.001Z</time></trkpt><trkpt lat="30.756756531683546" lon="-6.06069013455643"><ele>1035.0</ele><time>2026-05-05T11:49:12.001Z</time></trkpt><trkpt lat="30.75664509466284" lon="-6.060888133169839"><ele>1035.0</ele><time>2026-05-05T11:49:13.001Z</time></trkpt><trkpt lat="30.756526761866926" lon="-6.061088491177216"><ele>1035.0</ele><time>2026-05-05T11:49:14.001Z</time></trkpt><trkpt lat="30.75640352947797" lon="-6.061294829764593"><ele>1035.0</ele><time>2026-05-05T11:49:15.001Z</time></trkpt><trkpt lat="30.756285966010008" lon="-6.061508408426168"><ele>1035.0</ele><time>2026-05-05T11:49:16.001Z</time></trkpt><trkpt lat="30.75616737329868" lon="-6.061726213755727"><ele>1035.0</ele><time>2026-05-05T11:49:17.001Z</time></trkpt><trkpt lat="30.75605235956659" lon="-6.061948946491468"><ele>1035.0</ele><time>2026-05-05T11:49:18.001Z</time></trkpt><trkpt lat="30.755944645145913" lon="-6.0621743647701924"><ele>1034.3333333333333</ele><time>2026-05-05T11:49:19.001Z</time></trkpt><trkpt lat="30.755840140881723" lon="-6.0624027402521685"><ele>1033.6666666666665</ele><time>2026-05-05T11:49:20.001Z</time></trkpt><trkpt lat="30.755736520567236" lon="-6.0626334172635135"><ele>1033.0</ele><time>2026-05-05T11:49:21.001Z</time></trkpt><trkpt lat="30.755633505909866" lon="-6.062867130234563"><ele>1032.0</ele><time>2026-05-05T11:49:22.001Z</time></trkpt><trkpt lat="30.755530080395623" lon="-6.0631013367523865"><ele>1031.0</ele><time>2026-05-05T11:49:23.001Z</time></trkpt><trkpt lat="30.755422702831034" lon="-6.063335865498921"><ele>1031.0</ele><time>2026-05-05T11:49:24.001Z</time></trkpt><trkpt lat="30.75531638978812" lon="-6.063573852771732"><ele>1031.0</ele><time>2026-05-05T11:49:25.001Z</time></trkpt><trkpt lat="30.755210898051565" lon="-6.0638175463336"><ele>1030.5</ele><time>2026-05-05T11:49:26.001Z</time></trkpt><trkpt lat="30.75510251882118" lon="-6.064061421985225"><ele>1030.0</ele><time>2026-05-05T11:49:27.001Z</time></trkpt><trkpt lat="30.75499087914975" lon="-6.0643063205723635"><ele>1029.5</ele><time>2026-05-05T11:49:28.001Z</time></trkpt><trkpt lat="30.75487705843709" lon="-6.064560533763548"><ele>1029.0</ele><time>2026-05-05T11:49:29.001Z</time></trkpt><trkpt lat="30.754763548536424" lon="-6.064817088948145"><ele>1029.0</ele><time>2026-05-05T11:49:30.001Z</time></trkpt><trkpt lat="30.754648997803038" lon="-6.065074942001897"><ele>1029.0</ele><time>2026-05-05T11:49:31.001Z</time></trkpt><trkpt lat="30.754534458800283" lon="-6.065330918969107"><ele>1029.0</ele><time>2026-05-05T11:49:32.001Z</time></trkpt><trkpt lat="30.754422316657845" lon="-6.065583316578229"><ele>1029.0</ele><time>2026-05-05T11:49:33.001Z</time></trkpt><trkpt lat="30.7543093797102" lon="-6.065833839971682"><ele>1027.5</ele><time>2026-05-05T11:49:34.001Z</time></trkpt><trkpt lat="30.754196313013782" lon="-6.0660835880755775"><ele>1026.0</ele><time>2026-05-05T11:49:35.001Z</time></trkpt><trkpt lat="30.75408327534882" lon="-6.066331297345142"><ele>1026.0</ele><time>2026-05-05T11:49:36.001Z</time></trkpt><trkpt lat="30.753969290405923" lon="-6.066579750695805"><ele>1026.0</ele><time>2026-05-05T11:49:37.001Z</time></trkpt><trkpt lat="30.75385969916224" lon="-6.066829341729648"><ele>1026.0</ele><time>2026-05-05T11:49:38.001Z</time></trkpt><trkpt lat="30.753749776581525" lon="-6.06707903267994"><ele>1026.0</ele><time>2026-05-05T11:49:39Z</time></trkpt><trkpt lat="30.753639425937205" lon="-6.0673288880517235"><ele>1025.0</ele><time>2026-05-05T11:49:40Z</time></trkpt><trkpt lat="30.753528277212492" lon="-6.0675787463012885"><ele>1024.0</ele><time>2026-05-05T11:49:41Z</time></trkpt><trkpt lat="30.753415872161973" lon="-6.067830366241903"><ele>1024.0</ele><time>2026-05-05T11:49:42Z</time></trkpt><trkpt lat="30.753301926421678" lon="-6.068082579991622"><ele>1024.0</ele><time>2026-05-05T11:49:43Z</time></trkpt><trkpt lat="30.753188476744434" lon="-6.068332235510252"><ele>1023.5</ele><time>2026-05-05T11:49:44Z</time></trkpt><trkpt lat="30.753077389900547" lon="-6.068580563721877"><ele>1023.0</ele><time>2026-05-05T11:49:45Z</time></trkpt><trkpt lat="30.752968464108957" lon="-6.068825139330528"><ele>1023.0</ele><time>2026-05-05T11:49:46Z</time></trkpt><trkpt lat="30.75285953235122" lon="-6.069067722363864"><ele>1023.0</ele><time>2026-05-05T11:49:47Z</time></trkpt><trkpt lat="30.75275165370331" lon="-6.069310094132365"><ele>1022.0</ele><time>2026-05-05T11:49:48Z</time></trkpt><trkpt lat="30.752642786245264" lon="-6.06955407451874"><ele>1021.0</ele><time>2026-05-05T11:49:49Z</time></trkpt><trkpt lat="30.75253201213899" lon="-6.069799314577991"><ele>1021.0</ele><time>2026-05-05T11:49:50Z</time></trkpt><trkpt lat="30.752421301887814" lon="-6.070044618962767"><ele>1021.0</ele><time>2026-05-05T11:49:51Z</time></trkpt><trkpt lat="30.752311728051527" lon="-6.070289531351016"><ele>1021.0</ele><time>2026-05-05T11:49:52Z</time></trkpt><trkpt lat="30.752202520394082" lon="-6.070535491021391"><ele>1021.0</ele><time>2026-05-05T11:49:53Z</time></trkpt><trkpt lat="30.752094688265316" lon="-6.070779288928383"><ele>1021.0</ele><time>2026-05-05T11:49:54Z</time></trkpt><trkpt lat="30.75198852785908" lon="-6.07101707948172"><ele>1021.0</ele><time>2026-05-05T11:49:55Z</time></trkpt><trkpt lat="30.751882220508556" lon="-6.071250260062137"><ele>1019.5</ele><time>2026-05-05T11:49:56Z</time></trkpt><trkpt lat="30.75177961628313" lon="-6.071484706491365"><ele>1018.0</ele><time>2026-05-05T11:49:57Z</time></trkpt><trkpt lat="30.751679059467026" lon="-6.071717402396882"><ele>1018.0</ele><time>2026-05-05T11:49:58Z</time></trkpt><trkpt lat="30.751583883570845" lon="-6.071941918345475"><ele>1018.0</ele><time>2026-05-05T11:49:59Z</time></trkpt><trkpt lat="30.751486530893562" lon="-6.072154907845115"><ele>1018.0</ele><time>2026-05-05T11:50:00Z</time></trkpt><trkpt lat="30.751402820316176" lon="-6.072356502573596"><ele>1019.0</ele><time>2026-05-05T11:50:01Z</time></trkpt><trkpt lat="30.751324896701302" lon="-6.072556396258735"><ele>1020.0</ele><time>2026-05-05T11:50:02Z</time></trkpt><trkpt lat="30.751251097278594" lon="-6.072752859667119"><ele>1021.0</ele><time>2026-05-05T11:50:03Z</time></trkpt><trkpt lat="30.75117810443748" lon="-6.0729387246004976"><ele>1021.0</ele><time>2026-05-05T11:50:04Z</time></trkpt><trkpt lat="30.751107075755364" lon="-6.073118326800143"><ele>1021.0</ele><time>2026-05-05T11:50:05Z</time></trkpt><trkpt lat="30.751041271056916" lon="-6.073288739495551"><ele>1021.0</ele><time>2026-05-05T11:50:06Z</time></trkpt><trkpt lat="30.75097789834077" lon="-6.073453324824902"><ele>1019.3333333333333</ele><time>2026-05-05T11:50:07Z</time></trkpt><trkpt lat="30.750906337391577" lon="-6.073625030155911"><ele>1017.6666666666667</ele><time>2026-05-05T11:50:08Z</time></trkpt><trkpt lat="30.75083549899845" lon="-6.073805206260074"><ele>1016.0</ele><time>2026-05-05T11:50:09Z</time></trkpt><trkpt lat="30.75076266128" lon="-6.073985112430562"><ele>1016.6666666666667</ele><time>2026-05-05T11:50:10Z</time></trkpt><trkpt lat="30.750687372559256" lon="-6.074178531010551"><ele>1017.3333333333333</ele><time>2026-05-05T11:50:11Z</time></trkpt><trkpt lat="30.750616521263513" lon="-6.074373569300343"><ele>1018.0</ele><time>2026-05-05T11:50:12Z</time></trkpt><trkpt lat="30.750539735868628" lon="-6.074569987885319"><ele>1018.0</ele><time>2026-05-05T11:50:13Z</time></trkpt><trkpt lat="30.75045748390104" lon="-6.074768741898974"><ele>1018.0</ele><time>2026-05-05T11:50:14Z</time></trkpt><trkpt lat="30.75037495215749" lon="-6.0749651486506675"><ele>1018.0</ele><time>2026-05-05T11:50:15Z</time></trkpt><trkpt lat="30.750295614591003" lon="-6.075171000228886"><ele>1017.6666666666666</ele><time>2026-05-05T11:50:16Z</time></trkpt><trkpt lat="30.75022027251019" lon="-6.075376461591461"><ele>1017.3333333333333</ele><time>2026-05-05T11:50:17Z</time></trkpt><trkpt lat="30.750138447814745" lon="-6.075582548397901"><ele>1017.0</ele><time>2026-05-05T11:50:18Z</time></trkpt><trkpt lat="30.750054755931668" lon="-6.075786648708565"><ele>1017.0</ele><time>2026-05-05T11:50:19Z</time></trkpt><trkpt lat="30.74997356859769" lon="-6.075997589480005"><ele>1017.0</ele><time>2026-05-05T11:50:20Z</time></trkpt><trkpt lat="30.74989173686024" lon="-6.076207120759161"><ele>1017.0</ele><time>2026-05-05T11:50:21Z</time></trkpt><trkpt lat="30.749811961943113" lon="-6.076418010735245"><ele>1016.3333333333333</ele><time>2026-05-05T11:50:22Z</time></trkpt><trkpt lat="30.74974132006015" lon="-6.076635966145269"><ele>1015.6666666666666</ele><time>2026-05-05T11:50:23Z</time></trkpt><trkpt lat="30.74967888557917" lon="-6.076857862801978"><ele>1015.0</ele><time>2026-05-05T11:50:24Z</time></trkpt><trkpt lat="30.749617272665805" lon="-6.07708062383836"><ele>1015.0</ele><time>2026-05-05T11:50:25Z</time></trkpt><trkpt lat="30.749560713049405" lon="-6.077303353791953"><ele>1015.0</ele><time>2026-05-05T11:50:26Z</time></trkpt><trkpt lat="30.749507841576047" lon="-6.077525287973149"><ele>1015.0</ele><time>2026-05-05T11:50:27Z</time></trkpt><trkpt lat="30.749458221911667" lon="-6.0777432102909925"><ele>1014.6666666666666</ele><time>2026-05-05T11:50:28Z</time></trkpt><trkpt lat="30.749409555109033" lon="-6.077961140832571"><ele>1014.3333333333333</ele><time>2026-05-05T11:50:29Z</time></trkpt><trkpt lat="30.74936115605488" lon="-6.078172426355842"><ele>1014.0</ele><time>2026-05-05T11:50:30Z</time></trkpt><trkpt lat="30.74931486076689" lon="-6.078389718572996"><ele>1013.3333333333333</ele><time>2026-05-05T11:50:31Z</time></trkpt><trkpt lat="30.749273284215636" lon="-6.078605654374806"><ele>1012.6666666666666</ele><time>2026-05-05T11:50:32Z</time></trkpt><trkpt lat="30.74923061781915" lon="-6.078822463224718"><ele>1012.0</ele><time>2026-05-05T11:50:33Z</time></trkpt><trkpt lat="30.749188736896915" lon="-6.079041257206114"><ele>1011.6666666666666</ele><time>2026-05-05T11:50:34Z</time></trkpt><trkpt lat="30.749149544484712" lon="-6.079264463300407"><ele>1011.3333333333333</ele><time>2026-05-05T11:50:35Z</time></trkpt><trkpt lat="30.74910778105209" lon="-6.0794851821675016"><ele>1011.0</ele><time>2026-05-05T11:50:36Z</time></trkpt><trkpt lat="30.749064235298412" lon="-6.079705362631816"><ele>1011.0</ele><time>2026-05-05T11:50:37.001Z</time></trkpt><trkpt lat="30.749026000551506" lon="-6.079924195103385"><ele>1011.0</ele><time>2026-05-05T11:50:38.001Z</time></trkpt><trkpt lat="30.748979696915473" lon="-6.080141652963089"><ele>1011.0</ele><time>2026-05-05T11:50:39.001Z</time></trkpt><trkpt lat="30.748929106708783" lon="-6.080361134175126"><ele>1010.6666666666667</ele><time>2026-05-05T11:50:40.001Z</time></trkpt><trkpt lat="30.748886528943753" lon="-6.080580857174822"><ele>1010.3333333333334</ele><time>2026-05-05T11:50:41.001Z</time></trkpt><trkpt lat="30.748849861559236" lon="-6.080806510984825"><ele>1010.0</ele><time>2026-05-05T11:50:42.001Z</time></trkpt><trkpt lat="30.748807065208403" lon="-6.081030898728954"><ele>1010.0</ele><time>2026-05-05T11:50:43.001Z</time></trkpt><trkpt lat="30.748760031849475" lon="-6.0812546103018885"><ele>1010.0</ele><time>2026-05-05T11:50:44.001Z</time></trkpt><trkpt lat="30.748716300623567" lon="-6.08147541045971"><ele>1010.0</ele><time>2026-05-05T11:50:45.001Z</time></trkpt><trkpt lat="30.748676068060696" lon="-6.081695858622149"><ele>1010.0</ele><time>2026-05-05T11:50:46.001Z</time></trkpt><trkpt lat="30.74863163578568" lon="-6.08191776788741"><ele>1010.0</ele><time>2026-05-05T11:50:47.001Z</time></trkpt><trkpt lat="30.7485863962297" lon="-6.082133485585091"><ele>1010.0</ele><time>2026-05-05T11:50:48.001Z</time></trkpt><trkpt lat="30.748546945773043" lon="-6.082346661300747"><ele>1008.3333333333334</ele><time>2026-05-05T11:50:49.001Z</time></trkpt><trkpt lat="30.748511496739518" lon="-6.082541207480703"><ele>1006.6666666666667</ele><time>2026-05-05T11:50:50.001Z</time></trkpt><trkpt lat="30.748472304405848" lon="-6.082729217608011"><ele>1005.0</ele><time>2026-05-05T11:50:51.001Z</time></trkpt><trkpt lat="30.74843702666841" lon="-6.082913227962516"><ele>1005.0</ele><time>2026-05-05T11:50:52.001Z</time></trkpt><trkpt lat="30.748394998408262" lon="-6.08309940376492"><ele>1005.0</ele><time>2026-05-05T11:50:53.001Z</time></trkpt><trkpt lat="30.748345297843326" lon="-6.083282829388289"><ele>1005.0</ele><time>2026-05-05T11:50:54.001Z</time></trkpt><trkpt lat="30.748289551757402" lon="-6.083465624061766"><ele>1005.3333333333333</ele><time>2026-05-05T11:50:55.001Z</time></trkpt><trkpt lat="30.74822424022458" lon="-6.083646759195712"><ele>1005.6666666666666</ele><time>2026-05-05T11:50:56.001Z</time></trkpt><trkpt lat="30.74814756674821" lon="-6.083833113542706"><ele>1006.0</ele><time>2026-05-05T11:50:57.001Z</time></trkpt><trkpt lat="30.748070684048756" lon="-6.08402659217937"><ele>1005.3333333333333</ele><time>2026-05-05T11:50:58.001Z</time></trkpt><trkpt lat="30.747991361310145" lon="-6.084224687292679"><ele>1004.6666666666667</ele><time>2026-05-05T11:50:59.001Z</time></trkpt><trkpt lat="30.747908815585273" lon="-6.084428833543183"><ele>1004.0</ele><time>2026-05-05T11:51:00.001Z</time></trkpt><trkpt lat="30.74782373948907" lon="-6.084638978182678"><ele>1004.0</ele><time>2026-05-05T11:51:01.001Z</time></trkpt><trkpt lat="30.747735564238525" lon="-6.084848290145108"><ele>1004.0</ele><time>2026-05-05T11:51:02.001Z</time></trkpt><trkpt lat="30.747647544422456" lon="-6.08505969016428"><ele>1004.0</ele><time>2026-05-05T11:51:03.001Z</time></trkpt><trkpt lat="30.747565114641322" lon="-6.085273069784727"><ele>1003.6666666666667</ele><time>2026-05-05T11:51:04.001Z</time></trkpt><trkpt lat="30.747491911268053" lon="-6.085493079924374"><ele>1003.3333333333333</ele><time>2026-05-05T11:51:05.001Z</time></trkpt><trkpt lat="30.74742943036065" lon="-6.085718685550758"><ele>1003.0</ele><time>2026-05-05T11:51:06.001Z</time></trkpt><trkpt lat="30.747381135298475" lon="-6.0859506775179675"><ele>1003.0</ele><time>2026-05-05T11:51:07.001Z</time></trkpt><trkpt lat="30.747338303973955" lon="-6.0861882449984535"><ele>1003.0</ele><time>2026-05-05T11:51:08.001Z</time></trkpt><trkpt lat="30.74729842789232" lon="-6.086429080925411"><ele>1003.0</ele><time>2026-05-05T11:51:09.001Z</time></trkpt><trkpt lat="30.747258866422147" lon="-6.086669898048733"><ele>1003.0</ele><time>2026-05-05T11:51:10.001Z</time></trkpt><trkpt lat="30.747220777628645" lon="-6.086910928354474"><ele>1003.0</ele><time>2026-05-05T11:51:11.001Z</time></trkpt><trkpt lat="30.747182610907565" lon="-6.087155474094942"><ele>1003.0</ele><time>2026-05-05T11:51:12.001Z</time></trkpt><trkpt lat="30.747107066491342" lon="-6.087403855520726"><ele>1002.6666666666666</ele><time>2026-05-05T11:51:13.001Z</time></trkpt><trkpt lat="30.747067943775942" lon="-6.08764211143563"><ele>1002.3333333333333</ele><time>2026-05-05T11:51:14.001Z</time></trkpt><trkpt lat="30.747028597991545" lon="-6.0878836714662015"><ele>1002.0</ele><time>2026-05-05T11:51:15.001Z</time></trkpt><trkpt lat="30.746987592461814" lon="-6.088125003657306"><ele>1000.6666666666667</ele><time>2026-05-05T11:51:16.001Z</time></trkpt><trkpt lat="30.74694984291825" lon="-6.088369752644193"><ele>999.3333333333334</ele><time>2026-05-05T11:51:17.001Z</time></trkpt><trkpt lat="30.746910386517097" lon="-6.088620042327606"><ele>998.0</ele><time>2026-05-05T11:51:18.001Z</time></trkpt><trkpt lat="30.746873259543577" lon="-6.088870395001228"><ele>996.3333333333334</ele><time>2026-05-05T11:51:19.001Z</time></trkpt><trkpt lat="30.746833904500075" lon="-6.089113271514093"><ele>994.6666666666667</ele><time>2026-05-05T11:51:20.001Z</time></trkpt><trkpt lat="30.746796322969608" lon="-6.089339993564983"><ele>993.0</ele><time>2026-05-05T11:51:21.001Z</time></trkpt><trkpt lat="30.746758016845025" lon="-6.08955737945641"><ele>993.0</ele><time>2026-05-05T11:51:22.001Z</time></trkpt><trkpt lat="30.746721189804653" lon="-6.089765494485163"><ele>993.0</ele><time>2026-05-05T11:51:23.001Z</time></trkpt><trkpt lat="30.746680696972668" lon="-6.089974854391263"><ele>993.0</ele><time>2026-05-05T11:51:24.001Z</time></trkpt><trkpt lat="30.746636577604875" lon="-6.090175500643603"><ele>992.6666666666667</ele><time>2026-05-05T11:51:25.001Z</time></trkpt><trkpt lat="30.746584153939608" lon="-6.090363076347789"><ele>992.3333333333334</ele><time>2026-05-05T11:51:26.001Z</time></trkpt><trkpt lat="30.74651758228213" lon="-6.0905463830798965"><ele>992.0</ele><time>2026-05-05T11:51:27.001Z</time></trkpt><trkpt lat="30.746441635867065" lon="-6.0907158450868115"><ele>991.0</ele><time>2026-05-05T11:51:28Z</time></trkpt><trkpt lat="30.746359349218988" lon="-6.090880592339834"><ele>990.0</ele><time>2026-05-05T11:51:29Z</time></trkpt><trkpt lat="30.746273548357504" lon="-6.091049422313897"><ele>989.0</ele><time>2026-05-05T11:51:30Z</time></trkpt><trkpt lat="30.746187737411585" lon="-6.091214005626877"><ele>989.0</ele><time>2026-05-05T11:51:31Z</time></trkpt><trkpt lat="30.746106097587923" lon="-6.091386473671336"><ele>989.0</ele><time>2026-05-05T11:51:32Z</time></trkpt><trkpt lat="30.746025934945177" lon="-6.0915698247166885"><ele>989.0</ele><time>2026-05-05T11:51:33Z</time></trkpt><trkpt lat="30.745955632765668" lon="-6.09176655152348"><ele>989.0</ele><time>2026-05-05T11:51:34Z</time></trkpt><trkpt lat="30.745883731848064" lon="-6.091967547397513"><ele>989.0</ele><time>2026-05-05T11:51:35Z</time></trkpt><trkpt lat="30.745816296667915" lon="-6.092170949050266"><ele>989.0</ele><time>2026-05-05T11:51:36Z</time></trkpt><trkpt lat="30.745738721999857" lon="-6.092361085683376"><ele>989.0</ele><time>2026-05-05T11:51:37Z</time></trkpt><trkpt lat="30.74566700596821" lon="-6.092551630833095"><ele>989.0</ele><time>2026-05-05T11:51:38Z</time></trkpt><trkpt lat="30.74560045850569" lon="-6.092746598898707"><ele>989.0</ele><time>2026-05-05T11:51:39Z</time></trkpt><trkpt lat="30.745541318746863" lon="-6.092930937744183"><ele>989.0</ele><time>2026-05-05T11:51:40Z</time></trkpt><trkpt lat="30.745486857644124" lon="-6.0931106961309345"><ele>989.0</ele><time>2026-05-05T11:51:41Z</time></trkpt><trkpt lat="30.74542755179626" lon="-6.093294530341286"><ele>989.0</ele><time>2026-05-05T11:51:42Z</time></trkpt><trkpt lat="30.745363013712662" lon="-6.093484923471135"><ele>989.0</ele><time>2026-05-05T11:51:43Z</time></trkpt><trkpt lat="30.745305656501543" lon="-6.093684474229104"><ele>989.0</ele><time>2026-05-05T11:51:44Z</time></trkpt><trkpt lat="30.745253402122927" lon="-6.093892952090962"><ele>989.0</ele><time>2026-05-05T11:51:45Z</time></trkpt><trkpt lat="30.745193937977415" lon="-6.094100674016487"><ele>988.6666666666667</ele><time>2026-05-05T11:51:46Z</time></trkpt><trkpt lat="30.745129377050233" lon="-6.094312426527823"><ele>988.3333333333333</ele><time>2026-05-05T11:51:47Z</time></trkpt><trkpt lat="30.74506497204541" lon="-6.094529205345865"><ele>988.0</ele><time>2026-05-05T11:51:48Z</time></trkpt><trkpt lat="30.745002538249885" lon="-6.094747670758689"><ele>986.6666666666666</ele><time>2026-05-05T11:51:49Z</time></trkpt><trkpt lat="30.74494041697082" lon="-6.0949700465175995"><ele>985.3333333333333</ele><time>2026-05-05T11:51:50Z</time></trkpt><trkpt lat="30.744875067116432" lon="-6.095192626404708"><ele>984.0</ele><time>2026-05-05T11:51:51Z</time></trkpt><trkpt lat="30.74480550535766" lon="-6.095417956341357"><ele>984.0</ele><time>2026-05-05T11:51:52Z</time></trkpt><trkpt lat="30.74473570484771" lon="-6.0956418570763145"><ele>984.0</ele><time>2026-05-05T11:51:53Z</time></trkpt><trkpt lat="30.744670615337895" lon="-6.0958716598494895"><ele>984.0</ele><time>2026-05-05T11:51:54Z</time></trkpt><trkpt lat="30.744604192408236" lon="-6.0961015134137595"><ele>983.0</ele><time>2026-05-05T11:51:55Z</time></trkpt><trkpt lat="30.744539707310395" lon="-6.096327727941744"><ele>982.0</ele><time>2026-05-05T11:51:56Z</time></trkpt><trkpt lat="30.744471510236806" lon="-6.096554726450535"><ele>981.0</ele><time>2026-05-05T11:51:57Z</time></trkpt><trkpt lat="30.74440581694805" lon="-6.096782485446668"><ele>981.6666666666667</ele><time>2026-05-05T11:51:58Z</time></trkpt><trkpt lat="30.744342384751764" lon="-6.097012525352824"><ele>982.3333333333334</ele><time>2026-05-05T11:51:59Z</time></trkpt><trkpt lat="30.74428273333178" lon="-6.097242047417098"><ele>983.0</ele><time>2026-05-05T11:52:00Z</time></trkpt><trkpt lat="30.744223282487084" lon="-6.097475096090087"><ele>983.0</ele><time>2026-05-05T11:52:01Z</time></trkpt><trkpt lat="30.744167454783852" lon="-6.097709953771776"><ele>983.0</ele><time>2026-05-05T11:52:02Z</time></trkpt><trkpt lat="30.74411291522664" lon="-6.097946430530966"><ele>983.0</ele><time>2026-05-05T11:52:03Z</time></trkpt><trkpt lat="30.744059830339896" lon="-6.0981848043266345"><ele>983.0</ele><time>2026-05-05T11:52:04Z</time></trkpt><trkpt lat="30.744004869165916" lon="-6.098422948707795"><ele>983.0</ele><time>2026-05-05T11:52:05Z</time></trkpt><trkpt lat="30.743945372481786" lon="-6.098661046763112"><ele>983.0</ele><time>2026-05-05T11:52:06Z</time></trkpt><trkpt lat="30.743887998758616" lon="-6.098899233936497"><ele>982.0</ele><time>2026-05-05T11:52:07Z</time></trkpt><trkpt lat="30.743831717484206" lon="-6.09914122126494"><ele>981.0</ele><time>2026-05-05T11:52:08Z</time></trkpt><trkpt lat="30.74377947857793" lon="-6.0993847129661845"><ele>980.0</ele><time>2026-05-05T11:52:09Z</time></trkpt><trkpt lat="30.743725408681282" lon="-6.099624624416693"><ele>980.0</ele><time>2026-05-05T11:52:10Z</time></trkpt><trkpt lat="30.743663971669445" lon="-6.099866961446631"><ele>980.0</ele><time>2026-05-05T11:52:11Z</time></trkpt><trkpt lat="30.743607153887247" lon="-6.100109085862834"><ele>980.0</ele><time>2026-05-05T11:52:12Z</time></trkpt><trkpt lat="30.743556018826695" lon="-6.100354036056393"><ele>979.0</ele><time>2026-05-05T11:52:13Z</time></trkpt><trkpt lat="30.743498156647245" lon="-6.100596277755705"><ele>978.0</ele><time>2026-05-05T11:52:14Z</time></trkpt><trkpt lat="30.743434332944737" lon="-6.10083574560321"><ele>977.0</ele><time>2026-05-05T11:52:15Z</time></trkpt><trkpt lat="30.743380186525414" lon="-6.10107129909353"><ele>977.0</ele><time>2026-05-05T11:52:16Z</time></trkpt><trkpt lat="30.74332078521894" lon="-6.101303098025046"><ele>977.0</ele><time>2026-05-05T11:52:17Z</time></trkpt><trkpt lat="30.743252099795914" lon="-6.101530090959773"><ele>977.0</ele><time>2026-05-05T11:52:18Z</time></trkpt><trkpt lat="30.743184364249853" lon="-6.101761642663806"><ele>977.0</ele><time>2026-05-05T11:52:19Z</time></trkpt><trkpt lat="30.7431191621144" lon="-6.101991139625023"><ele>977.0</ele><time>2026-05-05T11:52:20Z</time></trkpt><trkpt lat="30.743054500329855" lon="-6.102222766762481"><ele>977.0</ele><time>2026-05-05T11:52:21Z</time></trkpt><trkpt lat="30.74298766626913" lon="-6.102452655056635"><ele>976.6666666666667</ele><time>2026-05-05T11:52:22Z</time></trkpt><trkpt lat="30.742920813637053" lon="-6.10268160382131"><ele>976.3333333333333</ele><time>2026-05-05T11:52:23Z</time></trkpt><trkpt lat="30.742857977696875" lon="-6.10291156347973"><ele>976.0</ele><time>2026-05-05T11:52:24Z</time></trkpt><trkpt lat="30.742794718104452" lon="-6.103142502657347"><ele>975.6666666666666</ele><time>2026-05-05T11:52:25Z</time></trkpt><trkpt lat="30.742731954708294" lon="-6.1033692034504625"><ele>975.3333333333333</ele><time>2026-05-05T11:52:26Z</time></trkpt><trkpt lat="30.74266521366836" lon="-6.103597343455825"><ele>975.0</ele><time>2026-05-05T11:52:27Z</time></trkpt><trkpt lat="30.74259961625058" lon="-6.103824201513975"><ele>974.3333333333333</ele><time>2026-05-05T11:52:28Z</time></trkpt><trkpt lat="30.742533748836856" lon="-6.104051345624738"><ele>973.6666666666666</ele><time>2026-05-05T11:52:29Z</time></trkpt><trkpt lat="30.742468316640213" lon="-6.104282264184287"><ele>973.0</ele><time>2026-05-05T11:52:30Z</time></trkpt><trkpt lat="30.74240261373657" lon="-6.104511640655445"><ele>972.6666666666666</ele><time>2026-05-05T11:52:31Z</time></trkpt><trkpt lat="30.742336511017985" lon="-6.104741989363067"><ele>972.3333333333333</ele><time>2026-05-05T11:52:32Z</time></trkpt><trkpt lat="30.742283412136974" lon="-6.104970531827924"><ele>972.0</ele><time>2026-05-05T11:52:33Z</time></trkpt><trkpt lat="30.742246963977962" lon="-6.105190956085751"><ele>971.3333333333333</ele><time>2026-05-05T11:52:34Z</time></trkpt><trkpt lat="30.742217226640292" lon="-6.105402254286656"><ele>970.6666666666666</ele><time>2026-05-05T11:52:35Z</time></trkpt><trkpt lat="30.742184422451366" lon="-6.105597738297159"><ele>970.0</ele><time>2026-05-05T11:52:36Z</time></trkpt><trkpt lat="30.742149607262785" lon="-6.105772192398806"><ele>969.5</ele><time>2026-05-05T11:52:37Z</time></trkpt><trkpt lat="30.742118783337908" lon="-6.105932636370294"><ele>969.0</ele><time>2026-05-05T11:52:38Z</time></trkpt><trkpt lat="30.74209492081467" lon="-6.1061000263085425"><ele>968.5</ele><time>2026-05-05T11:52:39Z</time></trkpt><trkpt lat="30.742087248500674" lon="-6.106283157645358"><ele>968.0</ele><time>2026-05-05T11:52:40Z</time></trkpt><trkpt lat="30.7421031725371" lon="-6.106481862206787"><ele>968.3333333333334</ele><time>2026-05-05T11:52:41Z</time></trkpt><trkpt lat="30.742135002937374" lon="-6.106687357169785"><ele>968.6666666666667</ele><time>2026-05-05T11:52:42Z</time></trkpt><trkpt lat="30.742174611130782" lon="-6.1068954930039805"><ele>969.0</ele><time>2026-05-05T11:52:43Z</time></trkpt><trkpt lat="30.742209413183343" lon="-6.107102969911865"><ele>969.0</ele><time>2026-05-05T11:52:44Z</time></trkpt><trkpt lat="30.742242811919386" lon="-6.107312018484793"><ele>969.0</ele><time>2026-05-05T11:52:45Z</time></trkpt><trkpt lat="30.7422741731106" lon="-6.107520841322087"><ele>969.0</ele><time>2026-05-05T11:52:46Z</time></trkpt><trkpt lat="30.742298449494047" lon="-6.107731305779182"><ele>969.3333333333333</ele><time>2026-05-05T11:52:47Z</time></trkpt><trkpt lat="30.74231722417446" lon="-6.107944730395431"><ele>969.6666666666666</ele><time>2026-05-05T11:52:48Z</time></trkpt><trkpt lat="30.742316497464362" lon="-6.10815949419139"><ele>970.0</ele><time>2026-05-05T11:52:49Z</time></trkpt><trkpt lat="30.742289616501566" lon="-6.108372786893909"><ele>970.0</ele><time>2026-05-05T11:52:50Z</time></trkpt><trkpt lat="30.742234268447987" lon="-6.108582563915012"><ele>970.0</ele><time>2026-05-05T11:52:51Z</time></trkpt><trkpt lat="30.7421603743092" lon="-6.1087849412223445"><ele>970.0</ele><time>2026-05-05T11:52:52Z</time></trkpt><trkpt lat="30.742069266132344" lon="-6.108979407924314"><ele>969.6666666666666</ele><time>2026-05-05T11:52:53Z</time></trkpt><trkpt lat="30.74195924452338" lon="-6.109163763986334"><ele>969.3333333333333</ele><time>2026-05-05T11:52:54Z</time></trkpt><trkpt lat="30.7418475830458" lon="-6.109346686523899"><ele>969.0</ele><time>2026-05-05T11:52:55Z</time></trkpt><trkpt lat="30.741739276802495" lon="-6.109530778517888"><ele>969.0</ele><time>2026-05-05T11:52:56Z</time></trkpt><trkpt lat="30.741632196718978" lon="-6.109717707202166"><ele>969.0</ele><time>2026-05-05T11:52:57Z</time></trkpt><trkpt lat="30.741525302025817" lon="-6.109904462208813"><ele>969.0</ele><time>2026-05-05T11:52:58Z</time></trkpt><trkpt lat="30.74141876804909" lon="-6.110089691262595"><ele>969.0</ele><time>2026-05-05T11:52:59Z</time></trkpt><trkpt lat="30.741311036012124" lon="-6.110277247441582"><ele>969.0</ele><time>2026-05-05T11:53:00Z</time></trkpt><trkpt lat="30.741204606418453" lon="-6.110466586379302"><ele>969.0</ele><time>2026-05-05T11:53:01Z</time></trkpt><trkpt lat="30.74109660745107" lon="-6.110655617765787"><ele>968.0</ele><time>2026-05-05T11:53:02Z</time></trkpt><trkpt lat="30.74098524926087" lon="-6.1108431272489945"><ele>967.0</ele><time>2026-05-05T11:53:03Z</time></trkpt><trkpt lat="30.740872973190687" lon="-6.1110357735880845"><ele>966.0</ele><time>2026-05-05T11:53:04Z</time></trkpt><trkpt lat="30.74076338925032" lon="-6.111229915533431"><ele>966.0</ele><time>2026-05-05T11:53:05Z</time></trkpt><trkpt lat="30.74065195684746" lon="-6.111425798796737"><ele>966.0</ele><time>2026-05-05T11:53:06Z</time></trkpt><trkpt lat="30.74054242415098" lon="-6.1116209708143385"><ele>966.0</ele><time>2026-05-05T11:53:07Z</time></trkpt><trkpt lat="30.740430143749855" lon="-6.111817816567267"><ele>965.6666666666667</ele><time>2026-05-05T11:53:08Z</time></trkpt><trkpt lat="30.740320219912057" lon="-6.11201606645625"><ele>965.3333333333334</ele><time>2026-05-05T11:53:09Z</time></trkpt><trkpt lat="30.74021865929736" lon="-6.1122167023611"><ele>965.0</ele><time>2026-05-05T11:53:10Z</time></trkpt><trkpt lat="30.740119418435608" lon="-6.11241896842971"><ele>964.3333333333334</ele><time>2026-05-05T11:53:11Z</time></trkpt><trkpt lat="30.740018319295068" lon="-6.112629512182671"><ele>963.6666666666667</ele><time>2026-05-05T11:53:12Z</time></trkpt><trkpt lat="30.739926102919767" lon="-6.1128460067240615"><ele>963.0</ele><time>2026-05-05T11:53:13Z</time></trkpt><trkpt lat="30.739835887736906" lon="-6.11306571199042"><ele>962.0</ele><time>2026-05-05T11:53:14Z</time></trkpt><trkpt lat="30.73974554820431" lon="-6.113285835873749"><ele>961.0</ele><time>2026-05-05T11:53:15Z</time></trkpt><trkpt lat="30.739657647595152" lon="-6.1135084510802615"><ele>960.0</ele><time>2026-05-05T11:53:16Z</time></trkpt><trkpt lat="30.73956914916284" lon="-6.11373478710279"><ele>960.0</ele><time>2026-05-05T11:53:17Z</time></trkpt><trkpt lat="30.739488874211855" lon="-6.113960817092147"><ele>960.0</ele><time>2026-05-05T11:53:18Z</time></trkpt><trkpt lat="30.7394146015922" lon="-6.114188467453576"><ele>960.0</ele><time>2026-05-05T11:53:19Z</time></trkpt><trkpt lat="30.739336445241268" lon="-6.114417935577918"><ele>959.3333333333333</ele><time>2026-05-05T11:53:20Z</time></trkpt><trkpt lat="30.73926089655108" lon="-6.114645577334755"><ele>958.6666666666666</ele><time>2026-05-05T11:53:21Z</time></trkpt><trkpt lat="30.73918964188505" lon="-6.1148778504283"><ele>958.0</ele><time>2026-05-05T11:53:22Z</time></trkpt><trkpt lat="30.73912526009833" lon="-6.115112327762295"><ele>958.3333333333333</ele><time>2026-05-05T11:53:23Z</time></trkpt><trkpt lat="30.73906481752726" lon="-6.115350450456207"><ele>958.6666666666667</ele><time>2026-05-05T11:53:24Z</time></trkpt><trkpt lat="30.73900867936291" lon="-6.115591205289815"><ele>959.0</ele><time>2026-05-05T11:53:25Z</time></trkpt><trkpt lat="30.73896129309481" lon="-6.115833575559131"><ele>959.0</ele><time>2026-05-05T11:53:26Z</time></trkpt><trkpt lat="30.73891565814816" lon="-6.116075440657222"><ele>959.0</ele><time>2026-05-05T11:53:27Z</time></trkpt><trkpt lat="30.738867094931734" lon="-6.116313885070416"><ele>959.0</ele><time>2026-05-05T11:53:28Z</time></trkpt><trkpt lat="30.738823840523263" lon="-6.116555851927675"><ele>958.0</ele><time>2026-05-05T11:53:29Z</time></trkpt><trkpt lat="30.73878498076956" lon="-6.116797567959757"><ele>957.0</ele><time>2026-05-05T11:53:30Z</time></trkpt><trkpt lat="30.738750376377396" lon="-6.117040123524397"><ele>956.0</ele><time>2026-05-05T11:53:31Z</time></trkpt><trkpt lat="30.73871921646485" lon="-6.117281906082747"><ele>955.6666666666667</ele><time>2026-05-05T11:53:32Z</time></trkpt><trkpt lat="30.738690904141695" lon="-6.117522130124486"><ele>955.3333333333333</ele><time>2026-05-05T11:53:33Z</time></trkpt><trkpt lat="30.738659886524218" lon="-6.1177663596202905"><ele>955.0</ele><time>2026-05-05T11:53:34Z</time></trkpt><trkpt lat="30.738638266024296" lon="-6.118010139729485"><ele>955.0</ele><time>2026-05-05T11:53:35Z</time></trkpt><trkpt lat="30.73862329643294" lon="-6.11825364469747"><ele>955.0</ele><time>2026-05-05T11:53:36Z</time></trkpt><trkpt lat="30.738628864008327" lon="-6.1184958931088325"><ele>955.0</ele><time>2026-05-05T11:53:37Z</time></trkpt><trkpt lat="30.738631016689162" lon="-6.118744134162363"><ele>955.0</ele><time>2026-05-05T11:53:38Z</time></trkpt><trkpt lat="30.73862461373105" lon="-6.118992627810961"><ele>955.0</ele><time>2026-05-05T11:53:39Z</time></trkpt><trkpt lat="30.73862037994091" lon="-6.119245336193913"><ele>955.0</ele><time>2026-05-05T11:53:40Z</time></trkpt><trkpt lat="30.73862315416974" lon="-6.119500082138942"><ele>954.6666666666666</ele><time>2026-05-05T11:53:41Z</time></trkpt><trkpt lat="30.738626406761966" lon="-6.119751282280584"><ele>954.3333333333333</ele><time>2026-05-05T11:53:42Z</time></trkpt><trkpt lat="30.73862937566419" lon="-6.120003706681215"><ele>954.0</ele><time>2026-05-05T11:53:43Z</time></trkpt><trkpt lat="30.73862817596176" lon="-6.120256895090632"><ele>953.6666666666667</ele><time>2026-05-05T11:53:44Z</time></trkpt><trkpt lat="30.73862412795722" lon="-6.120508266340707"><ele>953.3333333333334</ele><time>2026-05-05T11:53:45Z</time></trkpt><trkpt lat="30.738623053623805" lon="-6.1207583855603"><ele>953.0</ele><time>2026-05-05T11:53:46Z</time></trkpt><trkpt lat="30.738630460779525" lon="-6.121005883088815"><ele>952.6666666666667</ele><time>2026-05-05T11:53:47Z</time></trkpt><trkpt lat="30.73863207698917" lon="-6.121256135254134"><ele>952.3333333333333</ele><time>2026-05-05T11:53:48Z</time></trkpt><trkpt lat="30.738631093940707" lon="-6.121507323104986"><ele>952.0</ele><time>2026-05-05T11:53:49Z</time></trkpt><trkpt lat="30.738628344322063" lon="-6.121756879074798"><ele>952.0</ele><time>2026-05-05T11:53:50Z</time></trkpt><trkpt lat="30.738620483171342" lon="-6.12200765289735"><ele>952.0</ele><time>2026-05-05T11:53:51Z</time></trkpt><trkpt lat="30.738608236988682" lon="-6.122258892254787"><ele>952.0</ele><time>2026-05-05T11:53:52Z</time></trkpt><trkpt lat="30.738590526527407" lon="-6.12250652055222"><ele>952.0</ele><time>2026-05-05T11:53:53Z</time></trkpt><trkpt lat="30.738562287962946" lon="-6.1227514508774314"><ele>952.0</ele><time>2026-05-05T11:53:54Z</time></trkpt><trkpt lat="30.738528903089033" lon="-6.122997575705868"><ele>952.0</ele><time>2026-05-05T11:53:55Z</time></trkpt><trkpt lat="30.738490175005644" lon="-6.123238429286665"><ele>951.0</ele><time>2026-05-05T11:53:56Z</time></trkpt><trkpt lat="30.738445350746613" lon="-6.123479839810703"><ele>950.0</ele><time>2026-05-05T11:53:57Z</time></trkpt><trkpt lat="30.738393182591423" lon="-6.123718691961667"><ele>949.0</ele><time>2026-05-05T11:53:58Z</time></trkpt><trkpt lat="30.738326129118033" lon="-6.123951369566959"><ele>948.6666666666666</ele><time>2026-05-05T11:53:59Z</time></trkpt><trkpt lat="30.738256961693512" lon="-6.124182985262053"><ele>948.3333333333333</ele><time>2026-05-05T11:54:00Z</time></trkpt><trkpt lat="30.73818150853241" lon="-6.1244147447435875"><ele>948.0</ele><time>2026-05-05T11:54:01Z</time></trkpt><trkpt lat="30.73809758496579" lon="-6.12464297523084"><ele>948.0</ele><time>2026-05-05T11:54:02Z</time></trkpt><trkpt lat="30.738005495973646" lon="-6.124870516094963"><ele>948.0</ele><time>2026-05-05T11:54:03Z</time></trkpt><trkpt lat="30.737909897467034" lon="-6.125100262565188"><ele>948.0</ele><time>2026-05-05T11:54:04Z</time></trkpt><trkpt lat="30.737804642650985" lon="-6.125324785556175"><ele>947.0</ele><time>2026-05-05T11:54:05Z</time></trkpt><trkpt lat="30.737683643152984" lon="-6.125541698904983"><ele>946.0</ele><time>2026-05-05T11:54:06Z</time></trkpt><trkpt lat="30.737562258078306" lon="-6.125760761536415"><ele>945.0</ele><time>2026-05-05T11:54:07Z</time></trkpt><trkpt lat="30.737434526922655" lon="-6.125976144772153"><ele>944.3333333333333</ele><time>2026-05-05T11:54:08Z</time></trkpt><trkpt lat="30.737304156274224" lon="-6.126185955412303"><ele>943.6666666666666</ele><time>2026-05-05T11:54:09Z</time></trkpt><trkpt lat="30.737173625790675" lon="-6.126396944124209"><ele>943.0</ele><time>2026-05-05T11:54:10Z</time></trkpt><trkpt lat="30.73704341836163" lon="-6.126610711149033"><ele>943.0</ele><time>2026-05-05T11:54:11Z</time></trkpt><trkpt lat="30.736915323295705" lon="-6.12682404018765"><ele>943.0</ele><time>2026-05-05T11:54:12Z</time></trkpt><trkpt lat="30.73678891963549" lon="-6.127041162436545"><ele>943.0</ele><time>2026-05-05T11:54:13Z</time></trkpt><trkpt lat="30.73666426098211" lon="-6.127260033609029"><ele>941.0</ele><time>2026-05-05T11:54:14Z</time></trkpt><trkpt lat="30.73654143162577" lon="-6.127484199380149"><ele>939.0</ele><time>2026-05-05T11:54:15Z</time></trkpt><trkpt lat="30.736424030139887" lon="-6.1277139180486575"><ele>939.0</ele><time>2026-05-05T11:54:16Z</time></trkpt><trkpt lat="30.736311119499362" lon="-6.1279474567805075"><ele>939.0</ele><time>2026-05-05T11:54:17Z</time></trkpt><trkpt lat="30.736198119470693" lon="-6.128180691996369"><ele>938.5</ele><time>2026-05-05T11:54:18Z</time></trkpt><trkpt lat="30.736087852433965" lon="-6.128416666833387"><ele>938.0</ele><time>2026-05-05T11:54:19Z</time></trkpt><trkpt lat="30.735979594554443" lon="-6.128650196454591"><ele>937.5</ele><time>2026-05-05T11:54:20Z</time></trkpt><trkpt lat="30.73587351685574" lon="-6.128887402615791"><ele>937.0</ele><time>2026-05-05T11:54:21Z</time></trkpt><trkpt lat="30.735771053838292" lon="-6.129126108170599"><ele>937.0</ele><time>2026-05-05T11:54:22Z</time></trkpt><trkpt lat="30.735668394123298" lon="-6.129364014733197"><ele>937.0</ele><time>2026-05-05T11:54:23Z</time></trkpt><trkpt lat="30.73556392636509" lon="-6.1295976313174805"><ele>937.0</ele><time>2026-05-05T11:54:24Z</time></trkpt><trkpt lat="30.735460777985534" lon="-6.129834080252291"><ele>937.0</ele><time>2026-05-05T11:54:25Z</time></trkpt><trkpt lat="30.735356746191307" lon="-6.130070456868788"><ele>937.0</ele><time>2026-05-05T11:54:26Z</time></trkpt><trkpt lat="30.735253731241848" lon="-6.130305431639125"><ele>937.0</ele><time>2026-05-05T11:54:27Z</time></trkpt><trkpt lat="30.735150618015435" lon="-6.130541374699127"><ele>935.5</ele><time>2026-05-05T11:54:28Z</time></trkpt><trkpt lat="30.735045810119797" lon="-6.130775556218211"><ele>934.0</ele><time>2026-05-05T11:54:29Z</time></trkpt><trkpt lat="30.734943936305516" lon="-6.131007003752127"><ele>934.0</ele><time>2026-05-05T11:54:30Z</time></trkpt><trkpt lat="30.73484187481905" lon="-6.131232596073651"><ele>934.0</ele><time>2026-05-05T11:54:31Z</time></trkpt><trkpt lat="30.734738192315213" lon="-6.131455046118618"><ele>934.0</ele><time>2026-05-05T11:54:32Z</time></trkpt><trkpt lat="30.734632661429295" lon="-6.131674949398361"><ele>934.0</ele><time>2026-05-05T11:54:33Z</time></trkpt><trkpt lat="30.734523092469832" lon="-6.131894740749894"><ele>934.0</ele><time>2026-05-05T11:54:34Z</time></trkpt><trkpt lat="30.734408750300066" lon="-6.132109961495095"><ele>934.0</ele><time>2026-05-05T11:54:35Z</time></trkpt><trkpt lat="30.73429539282785" lon="-6.132326650077274"><ele>933.0</ele><time>2026-05-05T11:54:36Z</time></trkpt><trkpt lat="30.73418189657542" lon="-6.132541571231081"><ele>932.0</ele><time>2026-05-05T11:54:37Z</time></trkpt><trkpt lat="30.734067681907707" lon="-6.1327569328480385"><ele>931.0</ele><time>2026-05-05T11:54:38Z</time></trkpt><trkpt lat="30.733950867094794" lon="-6.132971444042158"><ele>931.0</ele><time>2026-05-05T11:54:39Z</time></trkpt><trkpt lat="30.733829529750672" lon="-6.133181395492589"><ele>931.0</ele><time>2026-05-05T11:54:40Z</time></trkpt><trkpt lat="30.733704000681623" lon="-6.133395736349602"><ele>931.0</ele><time>2026-05-05T11:54:41Z</time></trkpt><trkpt lat="30.733572944670012" lon="-6.133606824308033"><ele>930.6666666666666</ele><time>2026-05-05T11:54:42Z</time></trkpt><trkpt lat="30.733444737689744" lon="-6.133813466374152"><ele>930.3333333333333</ele><time>2026-05-05T11:54:43Z</time></trkpt><trkpt lat="30.733315220845014" lon="-6.134015946497533"><ele>930.0</ele><time>2026-05-05T11:54:44Z</time></trkpt><trkpt lat="30.73318316097015" lon="-6.134214902134541"><ele>930.0</ele><time>2026-05-05T11:54:45Z</time></trkpt><trkpt lat="30.733046805905246" lon="-6.13440928542361"><ele>930.0</ele><time>2026-05-05T11:54:46Z</time></trkpt><trkpt lat="30.73291351205067" lon="-6.1346034185964795"><ele>930.0</ele><time>2026-05-05T11:54:47Z</time></trkpt><trkpt lat="30.732781945083676" lon="-6.134792515807627"><ele>928.6666666666667</ele><time>2026-05-05T11:54:48Z</time></trkpt><trkpt lat="30.732645772365444" lon="-6.13497734425298"><ele>927.3333333333334</ele><time>2026-05-05T11:54:49Z</time></trkpt><trkpt lat="30.732508232710973" lon="-6.135164080617369"><ele>926.0</ele><time>2026-05-05T11:54:50Z</time></trkpt><trkpt lat="30.732368842429647" lon="-6.135347983963467"><ele>926.0</ele><time>2026-05-05T11:54:51Z</time></trkpt><trkpt lat="30.732226837854785" lon="-6.135527447055658"><ele>926.0</ele><time>2026-05-05T11:54:52Z</time></trkpt><trkpt lat="30.732085615831387" lon="-6.135708817142416"><ele>926.0</ele><time>2026-05-05T11:54:53Z</time></trkpt><trkpt lat="30.731946380453437" lon="-6.135889923701906"><ele>925.3333333333334</ele><time>2026-05-05T11:54:54Z</time></trkpt><trkpt lat="30.731807057242726" lon="-6.136064954586551"><ele>924.6666666666667</ele><time>2026-05-05T11:54:55Z</time></trkpt><trkpt lat="30.731661886335" lon="-6.136232684546977"><ele>924.0</ele><time>2026-05-05T11:54:56Z</time></trkpt><trkpt lat="30.731514625237928" lon="-6.136403037280414"><ele>927.0</ele><time>2026-05-05T11:54:57Z</time></trkpt><trkpt lat="30.731372460841175" lon="-6.1365681206198195"><ele>930.0</ele><time>2026-05-05T11:54:58Z</time></trkpt><trkpt lat="30.731228281840945" lon="-6.136734495138754"><ele>933.0</ele><time>2026-05-05T11:54:59Z</time></trkpt><trkpt lat="30.731089631151768" lon="-6.136904354391723"><ele>931.6666666666667</ele><time>2026-05-05T11:55:00Z</time></trkpt><trkpt lat="30.73095156696549" lon="-6.137073878756922"><ele>930.3333333333334</ele><time>2026-05-05T11:55:01Z</time></trkpt><trkpt lat="30.730811055741057" lon="-6.137241111345811"><ele>929.0</ele><time>2026-05-05T11:55:02Z</time></trkpt><trkpt lat="30.730669013750017" lon="-6.137409662847115"><ele>929.0</ele><time>2026-05-05T11:55:03Z</time></trkpt><trkpt lat="30.730527413619686" lon="-6.1375745121844"><ele>929.0</ele><time>2026-05-05T11:55:04Z</time></trkpt><trkpt lat="30.730387696228306" lon="-6.137740858656607"><ele>929.0</ele><time>2026-05-05T11:55:05Z</time></trkpt><trkpt lat="30.73024824228777" lon="-6.137905279614938"><ele>928.0</ele><time>2026-05-05T11:55:06Z</time></trkpt><trkpt lat="30.730111800054875" lon="-6.138068456875582"><ele>927.0</ele><time>2026-05-05T11:55:07Z</time></trkpt><trkpt lat="30.729971564442273" lon="-6.138232868918886"><ele>926.0</ele><time>2026-05-05T11:55:08Z</time></trkpt><trkpt lat="30.729834393110586" lon="-6.138395863416267"><ele>926.0</ele><time>2026-05-05T11:55:09Z</time></trkpt><trkpt lat="30.729694690949106" lon="-6.138561312145324"><ele>926.0</ele><time>2026-05-05T11:55:10Z</time></trkpt><trkpt lat="30.729555148553505" lon="-6.1387321699416315"><ele>926.0</ele><time>2026-05-05T11:55:11Z</time></trkpt><trkpt lat="30.72941600232733" lon="-6.138903756900797"><ele>924.0</ele><time>2026-05-05T11:55:12Z</time></trkpt><trkpt lat="30.729274726143057" lon="-6.139074844919076"><ele>922.0</ele><time>2026-05-05T11:55:13Z</time></trkpt><trkpt lat="30.729129347452826" lon="-6.139245075166575"><ele>920.0</ele><time>2026-05-05T11:55:14Z</time></trkpt><trkpt lat="30.7289862677901" lon="-6.139419735566588"><ele>920.0</ele><time>2026-05-05T11:55:15Z</time></trkpt><trkpt lat="30.728839501319996" lon="-6.139598935117844"><ele>920.0</ele><time>2026-05-05T11:55:16Z</time></trkpt><trkpt lat="30.728696155350683" lon="-6.139780964908808"><ele>920.0</ele><time>2026-05-05T11:55:17Z</time></trkpt><trkpt lat="30.728552797487634" lon="-6.139970549558376"><ele>919.3333333333334</ele><time>2026-05-05T11:55:18Z</time></trkpt><trkpt lat="30.72840559770473" lon="-6.140162361010303"><ele>918.6666666666667</ele><time>2026-05-05T11:55:19Z</time></trkpt><trkpt lat="30.728257800667027" lon="-6.140354681723151"><ele>918.0</ele><time>2026-05-05T11:55:20Z</time></trkpt><trkpt lat="30.728113760841627" lon="-6.140550715231033"><ele>917.5</ele><time>2026-05-05T11:55:21Z</time></trkpt><trkpt lat="30.727972312366486" lon="-6.140754704427181"><ele>917.0</ele><time>2026-05-05T11:55:22Z</time></trkpt><trkpt lat="30.727833414848142" lon="-6.140961693365396"><ele>915.5</ele><time>2026-05-05T11:55:23Z</time></trkpt><trkpt lat="30.727692365193363" lon="-6.141168204204178"><ele>914.0</ele><time>2026-05-05T11:55:24Z</time></trkpt><trkpt lat="30.727553561198185" lon="-6.141380346542151"><ele>913.5</ele><time>2026-05-05T11:55:25Z</time></trkpt><trkpt lat="30.727417903151412" lon="-6.141598978532658"><ele>913.0</ele><time>2026-05-05T11:55:26Z</time></trkpt><trkpt lat="30.72728430068493" lon="-6.141817470124492"><ele>913.0</ele><time>2026-05-05T11:55:27Z</time></trkpt><trkpt lat="30.727153801769173" lon="-6.142038409044763"><ele>913.0</ele><time>2026-05-05T11:55:28Z</time></trkpt><trkpt lat="30.727021157144648" lon="-6.142259662526361"><ele>911.5</ele><time>2026-05-05T11:55:29Z</time></trkpt><trkpt lat="30.726890424935778" lon="-6.142478901854453"><ele>910.0</ele><time>2026-05-05T11:55:30Z</time></trkpt><trkpt lat="30.72676255385309" lon="-6.142701351834824"><ele>910.0</ele><time>2026-05-05T11:55:31Z</time></trkpt><trkpt lat="30.726639457829684" lon="-6.142924184944046"><ele>910.0</ele><time>2026-05-05T11:55:32Z</time></trkpt><trkpt lat="30.72652087679827" lon="-6.14315171572525"><ele>910.0</ele><time>2026-05-05T11:55:33Z</time></trkpt><trkpt lat="30.7264066088535" lon="-6.143382513741194"><ele>910.0</ele><time>2026-05-05T11:55:34Z</time></trkpt><trkpt lat="30.726291881130322" lon="-6.143614319176389"><ele>910.0</ele><time>2026-05-05T11:55:35Z</time></trkpt><trkpt lat="30.726170335121058" lon="-6.143840286298858"><ele>910.0</ele><time>2026-05-05T11:55:36Z</time></trkpt><trkpt lat="30.726048571998078" lon="-6.144066762985432"><ele>908.5</ele><time>2026-05-05T11:55:37Z</time></trkpt><trkpt lat="30.72593464487635" lon="-6.14429615943458"><ele>907.0</ele><time>2026-05-05T11:55:38Z</time></trkpt><trkpt lat="30.725823055678173" lon="-6.144528001258568"><ele>907.0</ele><time>2026-05-05T11:55:39Z</time></trkpt><trkpt lat="30.72570661548291" lon="-6.144756618992651"><ele>907.0</ele><time>2026-05-05T11:55:40Z</time></trkpt><trkpt lat="30.725587317236027" lon="-6.14498091103118"><ele>907.0</ele><time>2026-05-05T11:55:41Z</time></trkpt><trkpt lat="30.725471333142387" lon="-6.145206365675418"><ele>907.0</ele><time>2026-05-05T11:55:42Z</time></trkpt><trkpt lat="30.72535469927638" lon="-6.145431452670132"><ele>907.0</ele><time>2026-05-05T11:55:43Z</time></trkpt><trkpt lat="30.725238080380755" lon="-6.145657168851178"><ele>907.0</ele><time>2026-05-05T11:55:44Z</time></trkpt><trkpt lat="30.72512319755098" lon="-6.1458841840892635"><ele>905.5</ele><time>2026-05-05T11:55:45Z</time></trkpt><trkpt lat="30.72500691787702" lon="-6.14611053624655"><ele>904.0</ele><time>2026-05-05T11:55:46Z</time></trkpt><trkpt lat="30.724889254186834" lon="-6.146337686090961"><ele>904.0</ele><time>2026-05-05T11:55:47Z</time></trkpt><trkpt lat="30.724771678248835" lon="-6.1465658398178595"><ele>904.0</ele><time>2026-05-05T11:55:48Z</time></trkpt><trkpt lat="30.724655172766166" lon="-6.146793136122448"><ele>904.0</ele><time>2026-05-05T11:55:49Z</time></trkpt><trkpt lat="30.724536945311883" lon="-6.147022852429132"><ele>904.0</ele><time>2026-05-05T11:55:50Z</time></trkpt><trkpt lat="30.724419927491173" lon="-6.147253034382649"><ele>903.0</ele><time>2026-05-05T11:55:51Z</time></trkpt><trkpt lat="30.724300510108375" lon="-6.147483714240523"><ele>902.0</ele><time>2026-05-05T11:55:52Z</time></trkpt><trkpt lat="30.724181219504654" lon="-6.147712454569878"><ele>902.0</ele><time>2026-05-05T11:55:53Z</time></trkpt><trkpt lat="30.724061368086808" lon="-6.147941013630986"><ele>902.0</ele><time>2026-05-05T11:55:54Z</time></trkpt><trkpt lat="30.723942003684094" lon="-6.148165496042364"><ele>902.0</ele><time>2026-05-05T11:55:55Z</time></trkpt><trkpt lat="30.723822853731964" lon="-6.1483900728768175"><ele>902.0</ele><time>2026-05-05T11:55:56Z</time></trkpt><trkpt lat="30.72370546662441" lon="-6.148618843924548"><ele>902.0</ele><time>2026-05-05T11:55:57Z</time></trkpt><trkpt lat="30.72358914613796" lon="-6.148851956200858"><ele>902.0</ele><time>2026-05-05T11:55:58Z</time></trkpt><trkpt lat="30.72347117872462" lon="-6.1490855722449655"><ele>901.0</ele><time>2026-05-05T11:55:59Z</time></trkpt><trkpt lat="30.723350754727317" lon="-6.149320458287021"><ele>900.0</ele><time>2026-05-05T11:56:00Z</time></trkpt><trkpt lat="30.723228991520575" lon="-6.149556486802059"><ele>900.0</ele><time>2026-05-05T11:56:01Z</time></trkpt><trkpt lat="30.72310620439274" lon="-6.149792454997648"><ele>900.0</ele><time>2026-05-05T11:56:02Z</time></trkpt><trkpt lat="30.722986954501984" lon="-6.150026473012983"><ele>900.0</ele><time>2026-05-05T11:56:03Z</time></trkpt><trkpt lat="30.72286672789588" lon="-6.150260171313223"><ele>900.0</ele><time>2026-05-05T11:56:04Z</time></trkpt><trkpt lat="30.72274624350896" lon="-6.150491780326543"><ele>899.0</ele><time>2026-05-05T11:56:05Z</time></trkpt><trkpt lat="30.722625666356606" lon="-6.15072408983185"><ele>898.0</ele><time>2026-05-05T11:56:06Z</time></trkpt><trkpt lat="30.7225042049867" lon="-6.150954670876606"><ele>898.0</ele><time>2026-05-05T11:56:07Z</time></trkpt><trkpt lat="30.722383480625588" lon="-6.151182706332637"><ele>898.0</ele><time>2026-05-05T11:56:08Z</time></trkpt><trkpt lat="30.722261118266736" lon="-6.1514111327492635"><ele>898.5</ele><time>2026-05-05T11:56:09Z</time></trkpt><trkpt lat="30.722144377285584" lon="-6.151642415776022"><ele>899.0</ele><time>2026-05-05T11:56:10Z</time></trkpt><trkpt lat="30.722025066853455" lon="-6.151876187667522"><ele>899.0</ele><time>2026-05-05T11:56:11Z</time></trkpt><trkpt lat="30.7219051486267" lon="-6.152110681337758"><ele>899.0</ele><time>2026-05-05T11:56:12Z</time></trkpt><trkpt lat="30.721784729206334" lon="-6.152343711933825"><ele>898.5</ele><time>2026-05-05T11:56:13Z</time></trkpt><trkpt lat="30.721662583712796" lon="-6.152578525985627"><ele>898.0</ele><time>2026-05-05T11:56:14Z</time></trkpt><trkpt lat="30.721544071733476" lon="-6.152811373858133"><ele>898.0</ele><time>2026-05-05T11:56:15Z</time></trkpt><trkpt lat="30.721424269269086" lon="-6.153045588456792"><ele>898.0</ele><time>2026-05-05T11:56:16Z</time></trkpt><trkpt lat="30.72130456759359" lon="-6.1532814752087805"><ele>898.0</ele><time>2026-05-05T11:56:17Z</time></trkpt><trkpt lat="30.72118292921052" lon="-6.153514935446252"><ele>898.0</ele><time>2026-05-05T11:56:18Z</time></trkpt><trkpt lat="30.72106251649521" lon="-6.153749018012691"><ele>896.0</ele><time>2026-05-05T11:56:19Z</time></trkpt><trkpt lat="30.720944050935334" lon="-6.153981021289764"><ele>894.0</ele><time>2026-05-05T11:56:20Z</time></trkpt><trkpt lat="30.720827111065102" lon="-6.154208650308399"><ele>894.0</ele><time>2026-05-05T11:56:21Z</time></trkpt><trkpt lat="30.72071092221323" lon="-6.1544368180364755"><ele>894.0</ele><time>2026-05-05T11:56:22Z</time></trkpt><trkpt lat="30.72059296852501" lon="-6.154663394431586"><ele>894.5</ele><time>2026-05-05T11:56:23Z</time></trkpt><trkpt lat="30.720474926943492" lon="-6.154889783297363"><ele>895.0</ele><time>2026-05-05T11:56:24Z</time></trkpt><trkpt lat="30.720359607379546" lon="-6.1551173382873445"><ele>895.0</ele><time>2026-05-05T11:56:25Z</time></trkpt><trkpt lat="30.720243790158065" lon="-6.155345801761636"><ele>895.0</ele><time>2026-05-05T11:56:26Z</time></trkpt><trkpt lat="30.7201235595716" lon="-6.155574847717589"><ele>894.5</ele><time>2026-05-05T11:56:27Z</time></trkpt><trkpt lat="30.72000075235899" lon="-6.155807168714882"><ele>894.0</ele><time>2026-05-05T11:56:28Z</time></trkpt><trkpt lat="30.719878852681557" lon="-6.156036693296047"><ele>894.0</ele><time>2026-05-05T11:56:29Z</time></trkpt><trkpt lat="30.719755672841174" lon="-6.156267308069301"><ele>894.0</ele><time>2026-05-05T11:56:30Z</time></trkpt><trkpt lat="30.71963033568991" lon="-6.156496556683033"><ele>894.0</ele><time>2026-05-05T11:56:31Z</time></trkpt><trkpt lat="30.71950333691889" lon="-6.156723986887261"><ele>894.0</ele><time>2026-05-05T11:56:32Z</time></trkpt><trkpt lat="30.719375554872464" lon="-6.156951426180752"><ele>894.0</ele><time>2026-05-05T11:56:33Z</time></trkpt><trkpt lat="30.719249548706347" lon="-6.1571812086018225"><ele>894.0</ele><time>2026-05-05T11:56:34Z</time></trkpt><trkpt lat="30.719121425653572" lon="-6.15741017210994"><ele>894.5</ele><time>2026-05-05T11:56:35Z</time></trkpt><trkpt lat="30.718990200614446" lon="-6.157638150330744"><ele>895.0</ele><time>2026-05-05T11:56:36Z</time></trkpt><trkpt lat="30.718855259371594" lon="-6.1578653705620825"><ele>895.0</ele><time>2026-05-05T11:56:37Z</time></trkpt><trkpt lat="30.71871381530807" lon="-6.1580862313071725"><ele>895.0</ele><time>2026-05-05T11:56:38Z</time></trkpt><trkpt lat="30.71857447656403" lon="-6.1583082026879"><ele>894.0</ele><time>2026-05-05T11:56:39Z</time></trkpt><trkpt lat="30.718439984322174" lon="-6.15852949157798"><ele>893.0</ele><time>2026-05-05T11:56:40Z</time></trkpt><trkpt lat="30.718307181804285" lon="-6.158752701114969"><ele>893.0</ele><time>2026-05-05T11:56:41Z</time></trkpt><trkpt lat="30.718172149649444" lon="-6.158970684827625"><ele>893.0</ele><time>2026-05-05T11:56:42Z</time></trkpt><trkpt lat="30.718033588751414" lon="-6.15918185225637"><ele>893.0</ele><time>2026-05-05T11:56:43Z</time></trkpt><trkpt lat="30.717893233473404" lon="-6.15939138324671"><ele>893.0</ele><time>2026-05-05T11:56:44Z</time></trkpt><trkpt lat="30.717752043513038" lon="-6.159602359715386"><ele>892.0</ele><time>2026-05-05T11:56:45Z</time></trkpt><trkpt lat="30.71760851958426" lon="-6.1598130146055405"><ele>891.0</ele><time>2026-05-05T11:56:46Z</time></trkpt><trkpt lat="30.71746509489363" lon="-6.160023445501243"><ele>891.0</ele><time>2026-05-05T11:56:47Z</time></trkpt><trkpt lat="30.717323096247757" lon="-6.160237423400346"><ele>891.0</ele><time>2026-05-05T11:56:48Z</time></trkpt><trkpt lat="30.717180506697655" lon="-6.160449640067252"><ele>891.0</ele><time>2026-05-05T11:56:49Z</time></trkpt><trkpt lat="30.717036149110506" lon="-6.160661483472171"><ele>891.0</ele><time>2026-05-05T11:56:50Z</time></trkpt><trkpt lat="30.71688787207126" lon="-6.160868901129913"><ele>891.5</ele><time>2026-05-05T11:56:51Z</time></trkpt><trkpt lat="30.71674216914898" lon="-6.161078567724498"><ele>892.0</ele><time>2026-05-05T11:56:52Z</time></trkpt><trkpt lat="30.716598330798696" lon="-6.161285873089007"><ele>892.0</ele><time>2026-05-05T11:56:53Z</time></trkpt><trkpt lat="30.716453783600652" lon="-6.161492563525282"><ele>892.0</ele><time>2026-05-05T11:56:54Z</time></trkpt><trkpt lat="30.71630750782978" lon="-6.1616995133511"><ele>892.0</ele><time>2026-05-05T11:56:55Z</time></trkpt><trkpt lat="30.71616318929653" lon="-6.1619066934472935"><ele>892.0</ele><time>2026-05-05T11:56:56Z</time></trkpt><trkpt lat="30.71601699697702" lon="-6.162112782821037"><ele>892.0</ele><time>2026-05-05T11:56:57Z</time></trkpt><trkpt lat="30.71587111164147" lon="-6.16231846741798"><ele>892.0</ele><time>2026-05-05T11:56:58Z</time></trkpt><trkpt lat="30.715724160085546" lon="-6.162522724432686"><ele>890.5</ele><time>2026-05-05T11:56:59Z</time></trkpt><trkpt lat="30.715574744607757" lon="-6.162730158449903"><ele>889.0</ele><time>2026-05-05T11:57:00Z</time></trkpt><trkpt lat="30.715427810020778" lon="-6.162935878872344"><ele>889.0</ele><time>2026-05-05T11:57:01Z</time></trkpt><trkpt lat="30.71528119784437" lon="-6.163144714634032"><ele>889.0</ele><time>2026-05-05T11:57:02Z</time></trkpt><trkpt lat="30.715135180157493" lon="-6.163354583297198"><ele>890.0</ele><time>2026-05-05T11:57:03Z</time></trkpt><trkpt lat="30.714991213772592" lon="-6.16356548735711"><ele>891.0</ele><time>2026-05-05T11:57:04Z</time></trkpt><trkpt lat="30.714845149867955" lon="-6.163775898333036"><ele>891.0</ele><time>2026-05-05T11:57:05Z</time></trkpt><trkpt lat="30.714699745842722" lon="-6.163983305148572"><ele>891.0</ele><time>2026-05-05T11:57:06Z</time></trkpt><trkpt lat="30.71455251155335" lon="-6.1641881989827425"><ele>889.5</ele><time>2026-05-05T11:57:07Z</time></trkpt><trkpt lat="30.714401566886465" lon="-6.164393148318183"><ele>888.0</ele><time>2026-05-05T11:57:08Z</time></trkpt><trkpt lat="30.714254819855192" lon="-6.1645985302694815"><ele>888.0</ele><time>2026-05-05T11:57:09Z</time></trkpt><trkpt lat="30.71411066327208" lon="-6.164808492948782"><ele>888.0</ele><time>2026-05-05T11:57:10Z</time></trkpt><trkpt lat="30.713971606640914" lon="-6.165014975473624"><ele>888.0</ele><time>2026-05-05T11:57:11Z</time></trkpt><trkpt lat="30.713830041137594" lon="-6.165217926269831"><ele>888.0</ele><time>2026-05-05T11:57:12Z</time></trkpt><trkpt lat="30.713684262331874" lon="-6.165416246693225"><ele>888.0</ele><time>2026-05-05T11:57:13Z</time></trkpt><trkpt lat="30.713538828343992" lon="-6.165615193956403"><ele>888.0</ele><time>2026-05-05T11:57:14Z</time></trkpt><trkpt lat="30.713397068048764" lon="-6.165819192596284"><ele>888.0</ele><time>2026-05-05T11:57:15Z</time></trkpt><trkpt lat="30.71325744322798" lon="-6.166025250554498"><ele>888.0</ele><time>2026-05-05T11:57:16Z</time></trkpt><trkpt lat="30.71311510981361" lon="-6.166226486684706"><ele>888.0</ele><time>2026-05-05T11:57:17Z</time></trkpt><trkpt lat="30.7129730545638" lon="-6.166427603174452"><ele>888.0</ele><time>2026-05-05T11:57:18Z</time></trkpt><trkpt lat="30.71283773194042" lon="-6.166629668607362"><ele>887.3333333333333</ele><time>2026-05-05T11:57:19Z</time></trkpt><trkpt lat="30.712697484850803" lon="-6.166832798530439"><ele>886.6666666666666</ele><time>2026-05-05T11:57:20Z</time></trkpt><trkpt lat="30.712558838119833" lon="-6.167034106847438"><ele>886.0</ele><time>2026-05-05T11:57:21Z</time></trkpt><trkpt lat="30.712424349277143" lon="-6.167239369797601"><ele>887.5</ele><time>2026-05-05T11:57:22Z</time></trkpt><trkpt lat="30.712289593602044" lon="-6.1674513427613835"><ele>889.0</ele><time>2026-05-05T11:57:23Z</time></trkpt><trkpt lat="30.712154742747643" lon="-6.167658430249615"><ele>889.0</ele><time>2026-05-05T11:57:24Z</time></trkpt><trkpt lat="30.712023483694566" lon="-6.167865516899485"><ele>889.0</ele><time>2026-05-05T11:57:25Z</time></trkpt><trkpt lat="30.71189382171547" lon="-6.168075404420942"><ele>889.0</ele><time>2026-05-05T11:57:26Z</time></trkpt><trkpt lat="30.711768392601613" lon="-6.168285585919151"><ele>889.3333333333333</ele><time>2026-05-05T11:57:27Z</time></trkpt><trkpt lat="30.711644566904614" lon="-6.168495383716623"><ele>889.6666666666667</ele><time>2026-05-05T11:57:28Z</time></trkpt><trkpt lat="30.711521912149458" lon="-6.168705223619796"><ele>890.0</ele><time>2026-05-05T11:57:29Z</time></trkpt><trkpt lat="30.711401587934677" lon="-6.168917321913694"><ele>890.3333333333334</ele><time>2026-05-05T11:57:30Z</time></trkpt><trkpt lat="30.711280132155352" lon="-6.1691304642674645"><ele>890.6666666666667</ele><time>2026-05-05T11:57:31Z</time></trkpt><trkpt lat="30.711162741273064" lon="-6.169347594012787"><ele>891.0</ele><time>2026-05-05T11:57:32Z</time></trkpt><trkpt lat="30.711047287858282" lon="-6.169564582886725"><ele>890.3333333333333</ele><time>2026-05-05T11:57:33Z</time></trkpt><trkpt lat="30.710931729565818" lon="-6.169786521520351"><ele>889.6666666666666</ele><time>2026-05-05T11:57:34Z</time></trkpt><trkpt lat="30.710814419559167" lon="-6.170006965203302"><ele>889.0</ele><time>2026-05-05T11:57:35Z</time></trkpt><trkpt lat="30.71069906202548" lon="-6.170227799975585"><ele>889.0</ele><time>2026-05-05T11:57:36Z</time></trkpt><trkpt lat="30.71058629355594" lon="-6.170451121678647"><ele>889.0</ele><time>2026-05-05T11:57:37Z</time></trkpt><trkpt lat="30.71047187862013" lon="-6.1706719921623545"><ele>889.0</ele><time>2026-05-05T11:57:38Z</time></trkpt><trkpt lat="30.710356089659793" lon="-6.170891293421742"><ele>889.3333333333333</ele><time>2026-05-05T11:57:39Z</time></trkpt><trkpt lat="30.710241270711148" lon="-6.17111295538057"><ele>889.6666666666667</ele><time>2026-05-05T11:57:40Z</time></trkpt><trkpt lat="30.710128640409177" lon="-6.171336477765774"><ele>890.0</ele><time>2026-05-05T11:57:41Z</time></trkpt><trkpt lat="30.71001467044371" lon="-6.171559737275804"><ele>890.0</ele><time>2026-05-05T11:57:42Z</time></trkpt><trkpt lat="30.709900660549767" lon="-6.171782871189676"><ele>890.0</ele><time>2026-05-05T11:57:43Z</time></trkpt><trkpt lat="30.709788611297036" lon="-6.172001474640878"><ele>890.0</ele><time>2026-05-05T11:57:44Z</time></trkpt><trkpt lat="30.709673017555417" lon="-6.172223233028446"><ele>890.3333333333334</ele><time>2026-05-05T11:57:45Z</time></trkpt><trkpt lat="30.70955981346384" lon="-6.172445073075084"><ele>890.6666666666667</ele><time>2026-05-05T11:57:46Z</time></trkpt><trkpt lat="30.709447636651433" lon="-6.17266834994112"><ele>891.0</ele><time>2026-05-05T11:57:47Z</time></trkpt><trkpt lat="30.709335634698288" lon="-6.172889648352794"><ele>891.3333333333333</ele><time>2026-05-05T11:57:48Z</time></trkpt><trkpt lat="30.70922569395546" lon="-6.1731112163606765"><ele>891.6666666666666</ele><time>2026-05-05T11:57:49Z</time></trkpt><trkpt lat="30.709114410474474" lon="-6.173329863006591"><ele>892.0</ele><time>2026-05-05T11:57:50Z</time></trkpt><trkpt lat="30.709005975478405" lon="-6.173549188489367"><ele>892.0</ele><time>2026-05-05T11:57:51Z</time></trkpt><trkpt lat="30.70889269912966" lon="-6.173766771045777"><ele>892.0</ele><time>2026-05-05T11:57:52Z</time></trkpt><trkpt lat="30.708777290713254" lon="-6.173980441600933"><ele>892.0</ele><time>2026-05-05T11:57:53Z</time></trkpt><trkpt lat="30.70866376302855" lon="-6.1741967080297195"><ele>892.3333333333333</ele><time>2026-05-05T11:57:54Z</time></trkpt><trkpt lat="30.708552903394057" lon="-6.174410645621989"><ele>892.6666666666667</ele><time>2026-05-05T11:57:55Z</time></trkpt><trkpt lat="30.70843954661915" lon="-6.174629386135789"><ele>893.0</ele><time>2026-05-05T11:57:56Z</time></trkpt><trkpt lat="30.70832505360102" lon="-6.174850643319931"><ele>894.3333333333334</ele><time>2026-05-05T11:57:57Z</time></trkpt><trkpt lat="30.70821154810622" lon="-6.175071164756525"><ele>895.6666666666667</ele><time>2026-05-05T11:57:58Z</time></trkpt><trkpt lat="30.708099616382775" lon="-6.1752920557898605"><ele>897.0</ele><time>2026-05-05T11:57:59Z</time></trkpt><trkpt lat="30.707990327759443" lon="-6.1755135147603495"><ele>896.6666666666667</ele><time>2026-05-05T11:58:00Z</time></trkpt><trkpt lat="30.707879702651653" lon="-6.175733977188068"><ele>896.3333333333334</ele><time>2026-05-05T11:58:01Z</time></trkpt><trkpt lat="30.7077692425014" lon="-6.175951088898025"><ele>896.0</ele><time>2026-05-05T11:58:02Z</time></trkpt><trkpt lat="30.70765567465944" lon="-6.176168399307279"><ele>896.0</ele><time>2026-05-05T11:58:03Z</time></trkpt><trkpt lat="30.707541317785854" lon="-6.17638140368137"><ele>896.0</ele><time>2026-05-05T11:58:04Z</time></trkpt><trkpt lat="30.707428232607633" lon="-6.176599225431621"><ele>896.0</ele><time>2026-05-05T11:58:05Z</time></trkpt><trkpt lat="30.707317735514" lon="-6.176817110306103"><ele>897.3333333333334</ele><time>2026-05-05T11:58:06Z</time></trkpt><trkpt lat="30.70720232105457" lon="-6.177032207319596"><ele>898.6666666666667</ele><time>2026-05-05T11:58:07Z</time></trkpt><trkpt lat="30.70708585404139" lon="-6.177240964154148"><ele>900.0</ele><time>2026-05-05T11:58:08Z</time></trkpt><trkpt lat="30.706973863008546" lon="-6.177437068055453"><ele>900.0</ele><time>2026-05-05T11:58:09Z</time></trkpt><trkpt lat="30.70686475880491" lon="-6.1776272356892505"><ele>900.0</ele><time>2026-05-05T11:58:10Z</time></trkpt><trkpt lat="30.7067536079732" lon="-6.177815184710922"><ele>900.0</ele><time>2026-05-05T11:58:11Z</time></trkpt><trkpt lat="30.706642153407778" lon="-6.1780011036301525"><ele>900.6666666666667</ele><time>2026-05-05T11:58:12Z</time></trkpt><trkpt lat="30.706527116550273" lon="-6.178190071165693"><ele>901.3333333333334</ele><time>2026-05-05T11:58:13Z</time></trkpt><trkpt lat="30.706411541167313" lon="-6.178374682285674"><ele>902.0</ele><time>2026-05-05T11:58:14Z</time></trkpt><trkpt lat="30.70629713999619" lon="-6.1785576312903325"><ele>902.0</ele><time>2026-05-05T11:58:15Z</time></trkpt><trkpt lat="30.706182159167554" lon="-6.178728042115592"><ele>902.0</ele><time>2026-05-05T11:58:16Z</time></trkpt><trkpt lat="30.706077641697608" lon="-6.178887164207001"><ele>902.0</ele><time>2026-05-05T11:58:17Z</time></trkpt><trkpt lat="30.705976576394697" lon="-6.179039143964696"><ele>900.0</ele><time>2026-05-05T11:58:18Z</time></trkpt><trkpt lat="30.705879719283118" lon="-6.179181238836199"><ele>898.0</ele><time>2026-05-05T11:58:19Z</time></trkpt><trkpt lat="30.705788844820898" lon="-6.179321526301069"><ele>896.0</ele><time>2026-05-05T11:58:20Z</time></trkpt><trkpt lat="30.705699208300906" lon="-6.179456875187495"><ele>896.0</ele><time>2026-05-05T11:58:21Z</time></trkpt><trkpt lat="30.705614838797885" lon="-6.179588025883607"><ele>896.0</ele><time>2026-05-05T11:58:22Z</time></trkpt><trkpt lat="30.70553523044333" lon="-6.179712549160469"><ele>896.0</ele><time>2026-05-05T11:58:23Z</time></trkpt><trkpt lat="30.70545886604018" lon="-6.17982675449995"><ele>896.0</ele><time>2026-05-05T11:58:24Z</time></trkpt><trkpt lat="30.705385896230865" lon="-6.179929946099726"><ele>896.5999999999999</ele><time>2026-05-05T11:58:25Z</time></trkpt><trkpt lat="30.70531886331752" lon="-6.180026070604982"><ele>897.1999999999999</ele><time>2026-05-05T11:58:26Z</time></trkpt><trkpt lat="30.70526166397637" lon="-6.180112964859715"><ele>897.8000000000001</ele><time>2026-05-05T11:58:27Z</time></trkpt><trkpt lat="30.705200367123467" lon="-6.180174258619307"><ele>898.4000000000001</ele><time>2026-05-05T11:58:28Z</time></trkpt><trkpt lat="30.70515580585471" lon="-6.180235391014888"><ele>899.0</ele><time>2026-05-05T11:58:29Z</time></trkpt><trkpt lat="30.705298421650465" lon="-6.180443150567802"><ele>899.0</ele><time>2026-05-05T11:58:30Z</time></trkpt><trkpt lat="30.705374039553952" lon="-6.18055966746107"><ele>899.0</ele><time>2026-05-05T11:58:31Z</time></trkpt><trkpt lat="30.70546554247366" lon="-6.180684286884992"><ele>899.0</ele><time>2026-05-05T11:58:32Z</time></trkpt><trkpt lat="30.70551299542127" lon="-6.180832864528897"><ele>899.0</ele><time>2026-05-05T11:58:33Z</time></trkpt><trkpt lat="30.70555086760931" lon="-6.18098315508601"><ele>901.75</ele><time>2026-05-05T11:58:34Z</time></trkpt><trkpt lat="30.70557606655161" lon="-6.1811505835665885"><ele>904.5</ele><time>2026-05-05T11:58:35Z</time></trkpt><trkpt lat="30.705569922224246" lon="-6.181320314426968"><ele>907.25</ele><time>2026-05-05T11:58:36Z</time></trkpt><trkpt lat="30.70555145776233" lon="-6.1814913409077885"><ele>910.0</ele><time>2026-05-05T11:58:37Z</time></trkpt><trkpt lat="30.705519500596715" lon="-6.181666489424301"><ele>915.3333333333333</ele><time>2026-05-05T11:58:38Z</time></trkpt><trkpt lat="30.705478126986787" lon="-6.181862648509579"><ele>920.6666666666667</ele><time>2026-05-05T11:58:39Z</time></trkpt><trkpt lat="30.70540348745737" lon="-6.182062267816007"><ele>926.0</ele><time>2026-05-05T11:58:40Z</time></trkpt><trkpt lat="30.705332889959326" lon="-6.182274087777657"><ele>922.6666666666667</ele><time>2026-05-05T11:58:41Z</time></trkpt><trkpt lat="30.705263572304773" lon="-6.182493210853429"><ele>919.3333333333333</ele><time>2026-05-05T11:58:42Z</time></trkpt><trkpt lat="30.705194395879406" lon="-6.182703429361602"><ele>916.0</ele><time>2026-05-05T11:58:43Z</time></trkpt><trkpt lat="30.70513155038572" lon="-6.182893186857114"><ele>916.0</ele><time>2026-05-05T11:58:44Z</time></trkpt><trkpt lat="30.70507388495735" lon="-6.183063785572615"><ele>916.0</ele><time>2026-05-05T11:58:45Z</time></trkpt><trkpt lat="30.70502051343888" lon="-6.183226963797897"><ele>916.0</ele><time>2026-05-05T11:58:46Z</time></trkpt><trkpt lat="30.70496878257621" lon="-6.183389721712999"><ele>919.75</ele><time>2026-05-05T11:58:47Z</time></trkpt><trkpt lat="30.704923401639686" lon="-6.18353755944156"><ele>923.5</ele><time>2026-05-05T11:58:48Z</time></trkpt><trkpt lat="30.704893205643764" lon="-6.1836735983482"><ele>927.25</ele><time>2026-05-05T11:58:49Z</time></trkpt><trkpt lat="30.704858459523287" lon="-6.1838056722517205"><ele>931.0</ele><time>2026-05-05T11:58:50Z</time></trkpt><trkpt lat="30.704883091899024" lon="-6.183966447053669"><ele>932.25</ele><time>2026-05-05T11:58:51Z</time></trkpt><trkpt lat="30.704946215112344" lon="-6.184113282396039"><ele>933.5</ele><time>2026-05-05T11:58:52Z</time></trkpt><trkpt lat="30.705045786578683" lon="-6.1842470152632645"><ele>934.75</ele><time>2026-05-05T11:58:53Z</time></trkpt><trkpt lat="30.70515022946162" lon="-6.184366143924578"><ele>936.0</ele><time>2026-05-05T11:58:54Z</time></trkpt><trkpt lat="30.705282632997314" lon="-6.184461813509841"><ele>939.3333333333333</ele><time>2026-05-05T11:58:55Z</time></trkpt><trkpt lat="30.705430636137706" lon="-6.184534800493518"><ele>942.6666666666666</ele><time>2026-05-05T11:58:56Z</time></trkpt><trkpt lat="30.705575523786067" lon="-6.184582503085716"><ele>946.0</ele><time>2026-05-05T11:58:57Z</time></trkpt><trkpt lat="30.70570966106346" lon="-6.184642560018147"><ele>946.0</ele><time>2026-05-05T11:58:58Z</time></trkpt><trkpt lat="30.705817912662337" lon="-6.184743746019094"><ele>946.0</ele><time>2026-05-05T11:58:59Z</time></trkpt><trkpt lat="30.70591072398809" lon="-6.184857283245365"><ele>946.0</ele><time>2026-05-05T11:59:00Z</time></trkpt><trkpt lat="30.705999795477318" lon="-6.184989409638401"><ele>946.0</ele><time>2026-05-05T11:59:01Z</time></trkpt><trkpt lat="30.706071735250458" lon="-6.185131534047909"><ele>939.6666666666666</ele><time>2026-05-05T11:59:02Z</time></trkpt><trkpt lat="30.706148258544964" lon="-6.18528160493805"><ele>933.3333333333333</ele><time>2026-05-05T11:59:03Z</time></trkpt><trkpt lat="30.706182696653045" lon="-6.185456121004118"><ele>927.0</ele><time>2026-05-05T11:59:04Z</time></trkpt><trkpt lat="30.70618209872432" lon="-6.185648487323153"><ele>925.3333333333333</ele><time>2026-05-05T11:59:05Z</time></trkpt><trkpt lat="30.706150008168496" lon="-6.1858604102279795"><ele>923.6666666666666</ele><time>2026-05-05T11:59:06Z</time></trkpt><trkpt lat="30.70609578975913" lon="-6.186077440039427"><ele>922.0</ele><time>2026-05-05T11:59:07Z</time></trkpt><trkpt lat="30.70602384508127" lon="-6.186298383121593"><ele>918.6666666666666</ele><time>2026-05-05T11:59:08Z</time></trkpt><trkpt lat="30.705962054003134" lon="-6.186521654034292"><ele>915.3333333333333</ele><time>2026-05-05T11:59:09Z</time></trkpt><trkpt lat="30.70590599984923" lon="-6.186739281174248"><ele>912.0</ele><time>2026-05-05T11:59:10Z</time></trkpt><trkpt lat="30.705852886233906" lon="-6.186952246308246"><ele>912.0</ele><time>2026-05-05T11:59:11Z</time></trkpt><trkpt lat="30.705809314476227" lon="-6.187172185626979"><ele>912.0</ele><time>2026-05-05T11:59:12Z</time></trkpt><trkpt lat="30.70578661659471" lon="-6.1874139816563964"><ele>912.0</ele><time>2026-05-05T11:59:13Z</time></trkpt><trkpt lat="30.705778415931512" lon="-6.187672211325368"><ele>909.5</ele><time>2026-05-05T11:59:14Z</time></trkpt><trkpt lat="30.70577672689795" lon="-6.187935113295738"><ele>907.0</ele><time>2026-05-05T11:59:15Z</time></trkpt><trkpt lat="30.70576792672407" lon="-6.188200185448429"><ele>900.5</ele><time>2026-05-05T11:59:16Z</time></trkpt><trkpt lat="30.705759934613756" lon="-6.188469872393886"><ele>894.0</ele><time>2026-05-05T11:59:17Z</time></trkpt><trkpt lat="30.705751883241952" lon="-6.18873677025756"><ele>894.0</ele><time>2026-05-05T11:59:18Z</time></trkpt><trkpt lat="30.705744154761067" lon="-6.189003890705507"><ele>894.0</ele><time>2026-05-05T11:59:19Z</time></trkpt><trkpt lat="30.705736183939056" lon="-6.1892696164850065"><ele>893.0</ele><time>2026-05-05T11:59:20Z</time></trkpt><trkpt lat="30.705726671517496" lon="-6.189535900020658"><ele>892.0</ele><time>2026-05-05T11:59:21Z</time></trkpt><trkpt lat="30.70571766235537" lon="-6.189800315615886"><ele>890.5</ele><time>2026-05-05T11:59:22Z</time></trkpt><trkpt lat="30.70571122133245" lon="-6.190064793974007"><ele>889.0</ele><time>2026-05-05T11:59:23Z</time></trkpt><trkpt lat="30.705704820578084" lon="-6.190327564426308"><ele>889.0</ele><time>2026-05-05T11:59:24Z</time></trkpt><trkpt lat="30.705696970578074" lon="-6.190588898179175"><ele>889.0</ele><time>2026-05-05T11:59:25Z</time></trkpt><trkpt lat="30.705690231957636" lon="-6.190848746346128"><ele>889.0</ele><time>2026-05-05T11:59:26Z</time></trkpt><trkpt lat="30.705684602708043" lon="-6.191106141150892"><ele>888.3333333333333</ele><time>2026-05-05T11:59:27Z</time></trkpt><trkpt lat="30.705678802898387" lon="-6.191363144316223"><ele>887.6666666666667</ele><time>2026-05-05T11:59:28Z</time></trkpt><trkpt lat="30.705669096685792" lon="-6.191617835467384"><ele>887.0</ele><time>2026-05-05T11:59:29Z</time></trkpt><trkpt lat="30.705656762383846" lon="-6.19187203191177"><ele>887.0</ele><time>2026-05-05T11:59:30Z</time></trkpt><trkpt lat="30.705646383766627" lon="-6.192121059043593"><ele>887.0</ele><time>2026-05-05T11:59:31Z</time></trkpt><trkpt lat="30.705639712700716" lon="-6.192358313235224"><ele>887.0</ele><time>2026-05-05T11:59:32Z</time></trkpt><trkpt lat="30.705636355794645" lon="-6.192585332840063"><ele>887.0</ele><time>2026-05-05T11:59:33Z</time></trkpt><trkpt lat="30.70563485885899" lon="-6.19280442300692"><ele>887.0</ele><time>2026-05-05T11:59:34Z</time></trkpt><trkpt lat="30.705637099566882" lon="-6.193020829758497"><ele>887.0</ele><time>2026-05-05T11:59:35Z</time></trkpt><trkpt lat="30.705644126829732" lon="-6.19323467632783"><ele>886.0</ele><time>2026-05-05T11:59:36Z</time></trkpt><trkpt lat="30.705656593929614" lon="-6.193438612628575"><ele>885.0</ele><time>2026-05-05T11:59:37Z</time></trkpt><trkpt lat="30.70567086325235" lon="-6.193635047310579"><ele>884.0</ele><time>2026-05-05T11:59:38Z</time></trkpt><trkpt lat="30.7056849319109" lon="-6.193826887954117"><ele>883.6666666666667</ele><time>2026-05-05T11:59:39Z</time></trkpt><trkpt lat="30.7057024434289" lon="-6.194012533988192"><ele>883.3333333333333</ele><time>2026-05-05T11:59:40Z</time></trkpt><trkpt lat="30.70571964633774" lon="-6.194196649303851"><ele>883.0</ele><time>2026-05-05T11:59:41Z</time></trkpt><trkpt lat="30.705734880209857" lon="-6.194378871759923"><ele>883.0</ele><time>2026-05-05T11:59:42Z</time></trkpt><trkpt lat="30.705750151443784" lon="-6.194554323714267"><ele>883.0</ele><time>2026-05-05T11:59:43Z</time></trkpt><trkpt lat="30.70576274432337" lon="-6.194734379721014"><ele>883.0</ele><time>2026-05-05T11:59:44Z</time></trkpt><trkpt lat="30.7057559613149" lon="-6.1948741328029255"><ele>883.0</ele><time>2026-05-05T11:59:45Z</time></trkpt><trkpt lat="30.70576774712962" lon="-6.195014289220795"><ele>881.75</ele><time>2026-05-05T11:59:46Z</time></trkpt><trkpt lat="30.705787397479458" lon="-6.19515035508543"><ele>880.5</ele><time>2026-05-05T11:59:47Z</time></trkpt><trkpt lat="30.70580543632386" lon="-6.195280759490747"><ele>879.25</ele><time>2026-05-05T11:59:48Z</time></trkpt><trkpt lat="30.70582604209391" lon="-6.195413139584515"><ele>878.0</ele><time>2026-05-05T11:59:49Z</time></trkpt><trkpt lat="30.70584240157665" lon="-6.1955322082070525"><ele>878.0</ele><time>2026-05-05T11:59:50Z</time></trkpt><trkpt lat="30.705853711351402" lon="-6.195649584665636"><ele>878.0</ele><time>2026-05-05T11:59:51Z</time></trkpt><trkpt lat="30.705867565775822" lon="-6.195780326255747"><ele>878.0</ele><time>2026-05-05T11:59:52Z</time></trkpt><trkpt lat="30.705876517810523" lon="-6.195909271380838"><ele>878.0</ele><time>2026-05-05T11:59:53Z</time></trkpt><trkpt lat="30.705881866322805" lon="-6.1960186748323505"><ele>878.0</ele><time>2026-05-05T11:59:54Z</time></trkpt><trkpt lat="30.70589349532258" lon="-6.196102633613812"><ele>878.0</ele><time>2026-05-05T11:59:55Z</time></trkpt><trkpt lat="30.70590546997709" lon="-6.196189469548741"><ele>878.0</ele><time>2026-05-05T11:59:57Z</time></trkpt><trkpt lat="30.70584497224794" lon="-6.196135485037811"><ele>878.0</ele><time>2026-05-05T12:00:00Z</time></trkpt><trkpt lat="30.705840313130462" lon="-6.1960167902875085"><ele>878.0</ele><time>2026-05-05T12:00:02Z</time></trkpt><trkpt lat="30.705854540412922" lon="-6.1959079830436"><ele>878.0</ele><time>2026-05-05T12:00:03Z</time></trkpt><trkpt lat="30.705856962408262" lon="-6.195790394539015"><ele>878.0</ele><time>2026-05-05T12:00:04Z</time></trkpt><trkpt lat="30.70585794378774" lon="-6.195651754924053"><ele>878.0</ele><time>2026-05-05T12:00:05Z</time></trkpt><trkpt lat="30.705766315373122" lon="-6.195503472658034"><ele>878.0</ele><time>2026-05-05T12:00:06Z</time></trkpt><trkpt lat="30.705749239816356" lon="-6.195358385947886"><ele>878.0</ele><time>2026-05-05T12:00:07Z</time></trkpt><trkpt lat="30.705732466746355" lon="-6.195215869441785"><ele>878.0</ele><time>2026-05-05T12:00:08Z</time></trkpt><trkpt lat="30.70571592388647" lon="-6.195072215458479"><ele>878.0</ele><time>2026-05-05T12:00:09Z</time></trkpt><trkpt lat="30.705700804678425" lon="-6.194938141815917"><ele>878.0</ele><time>2026-05-05T12:00:10Z</time></trkpt><trkpt lat="30.70568592366248" lon="-6.194816883182815"><ele>878.0</ele><time>2026-05-05T12:00:11Z</time></trkpt><trkpt lat="30.705674709658428" lon="-6.194704680232921"><ele>878.0</ele><time>2026-05-05T12:00:12Z</time></trkpt><trkpt lat="30.70566491755427" lon="-6.19460467171885"><ele>879.25</ele><time>2026-05-05T12:00:13Z</time></trkpt><trkpt lat="30.705654915112472" lon="-6.194503751516328"><ele>880.5</ele><time>2026-05-05T12:00:14Z</time></trkpt><trkpt lat="30.70564532558952" lon="-6.194406997498381"><ele>881.75</ele><time>2026-05-05T12:00:15Z</time></trkpt><trkpt lat="30.705633860273675" lon="-6.1942919482024505"><ele>883.0</ele><time>2026-05-05T12:00:17Z</time></trkpt><trkpt lat="30.705761956656154" lon="-6.194455882159483"><ele>882.9999999999999</ele><time>2026-05-05T12:00:23Z</time></trkpt><trkpt lat="30.705761471628676" lon="-6.1945686832618"><ele>883.0</ele><time>2026-05-05T12:00:25Z</time></trkpt><trkpt lat="30.705769860291486" lon="-6.194654897012064"><ele>883.0</ele><time>2026-05-05T12:01:43Z</time></trkpt><trkpt lat="30.705760080980962" lon="-6.194728215991551"><ele>883.0</ele><time>2026-05-05T12:01:44Z</time></trkpt><trkpt lat="30.70576093540105" lon="-6.1948144806983425"><ele>882.9999999999999</ele><time>2026-05-05T12:01:45Z</time></trkpt><trkpt lat="30.705772944343757" lon="-6.194918661331679"><ele>883.0</ele><time>2026-05-05T12:01:46Z</time></trkpt><trkpt lat="30.705786310576002" lon="-6.1950484438847955"><ele>881.75</ele><time>2026-05-05T12:01:47Z</time></trkpt><trkpt lat="30.705801909878993" lon="-6.195194102417133"><ele>880.5</ele><time>2026-05-05T12:01:48Z</time></trkpt><trkpt lat="30.70581807260148" lon="-6.1953529593580345"><ele>879.25</ele><time>2026-05-05T12:01:49Z</time></trkpt><trkpt lat="30.70583552757667" lon="-6.195528744510683"><ele>878.0</ele><time>2026-05-05T12:01:50Z</time></trkpt><trkpt lat="30.705855934798787" lon="-6.195720743165367"><ele>878.0</ele><time>2026-05-05T12:01:51Z</time></trkpt><trkpt lat="30.70587257219692" lon="-6.195919892441554"><ele>878.0</ele><time>2026-05-05T12:01:52Z</time></trkpt><trkpt lat="30.705884981957183" lon="-6.196115890864859"><ele>878.0</ele><time>2026-05-05T12:01:53Z</time></trkpt><trkpt lat="30.705896521030585" lon="-6.196319731441421"><ele>878.0</ele><time>2026-05-05T12:01:54Z</time></trkpt><trkpt lat="30.70591036902826" lon="-6.196526991510996"><ele>878.0</ele><time>2026-05-05T12:01:55Z</time></trkpt><trkpt lat="30.705926355488174" lon="-6.196725929700522"><ele>878.0</ele><time>2026-05-05T12:01:55.999Z</time></trkpt><trkpt lat="30.70594349437318" lon="-6.196911930097909"><ele>878.0</ele><time>2026-05-05T12:01:56.999Z</time></trkpt><trkpt lat="30.70595512547684" lon="-6.197086958764267"><ele>878.0</ele><time>2026-05-05T12:01:57.999Z</time></trkpt><trkpt lat="30.705962267941278" lon="-6.197267203114276"><ele>878.0</ele><time>2026-05-05T12:01:58.999Z</time></trkpt><trkpt lat="30.705974486884006" lon="-6.197467981459853"><ele>878.0</ele><time>2026-05-05T12:01:59.999Z</time></trkpt><trkpt lat="30.705992478974103" lon="-6.197674628078901"><ele>878.0</ele><time>2026-05-05T12:02:00.999Z</time></trkpt><trkpt lat="30.7060167354343" lon="-6.1978875539839065"><ele>878.0</ele><time>2026-05-05T12:02:01.999Z</time></trkpt><trkpt lat="30.706049757151913" lon="-6.198094185991842"><ele>878.3333333333334</ele><time>2026-05-05T12:02:02.999Z</time></trkpt><trkpt lat="30.706081405420978" lon="-6.198305652962374"><ele>878.6666666666667</ele><time>2026-05-05T12:02:03.999Z</time></trkpt><trkpt lat="30.70610296599563" lon="-6.198531667762039"><ele>879.0</ele><time>2026-05-05T12:02:04.999Z</time></trkpt><trkpt lat="30.706121205136842" lon="-6.198755420081664"><ele>879.0</ele><time>2026-05-05T12:02:05.999Z</time></trkpt><trkpt lat="30.70614247972137" lon="-6.198974289286909"><ele>879.0</ele><time>2026-05-05T12:02:06.999Z</time></trkpt><trkpt lat="30.706159929177282" lon="-6.199189549668806"><ele>879.0</ele><time>2026-05-05T12:02:07.999Z</time></trkpt><trkpt lat="30.706177835365004" lon="-6.199402140154699"><ele>879.0</ele><time>2026-05-05T12:02:08.999Z</time></trkpt><trkpt lat="30.70619401922623" lon="-6.199615714330165"><ele>879.0</ele><time>2026-05-05T12:02:09.999Z</time></trkpt><trkpt lat="30.706209878322646" lon="-6.199833351203263"><ele>879.0</ele><time>2026-05-05T12:02:10.999Z</time></trkpt><trkpt lat="30.706227939968354" lon="-6.200050711811989"><ele>879.0</ele><time>2026-05-05T12:02:11.999Z</time></trkpt><trkpt lat="30.706246235236478" lon="-6.200267150246832"><ele>879.0</ele><time>2026-05-05T12:02:12.999Z</time></trkpt><trkpt lat="30.706265128935495" lon="-6.200479178071892"><ele>879.0</ele><time>2026-05-05T12:02:13.999Z</time></trkpt><trkpt lat="30.706284381878824" lon="-6.200694218616776"><ele>879.6666666666667</ele><time>2026-05-05T12:02:14.999Z</time></trkpt><trkpt lat="30.70630099833375" lon="-6.200917729726127"><ele>880.3333333333334</ele><time>2026-05-05T12:02:16Z</time></trkpt><trkpt lat="30.706320338018806" lon="-6.201142915819317"><ele>881.0</ele><time>2026-05-05T12:02:17Z</time></trkpt><trkpt lat="30.706339825377217" lon="-6.201368662828176"><ele>881.0</ele><time>2026-05-05T12:02:18Z</time></trkpt><trkpt lat="30.706358439150506" lon="-6.201589756787822"><ele>881.0</ele><time>2026-05-05T12:02:19Z</time></trkpt><trkpt lat="30.70637571975153" lon="-6.201808282188035"><ele>881.0</ele><time>2026-05-05T12:02:20Z</time></trkpt><trkpt lat="30.706393348803605" lon="-6.202027245717796"><ele>881.0</ele><time>2026-05-05T12:02:21Z</time></trkpt><trkpt lat="30.70641337476077" lon="-6.202242413937947"><ele>881.0</ele><time>2026-05-05T12:02:22Z</time></trkpt><trkpt lat="30.706434567357203" lon="-6.202457863229597"><ele>881.0</ele><time>2026-05-05T12:02:23Z</time></trkpt><trkpt lat="30.706454595935682" lon="-6.202671543634858"><ele>881.3333333333334</ele><time>2026-05-05T12:02:24Z</time></trkpt><trkpt lat="30.706473359709612" lon="-6.2028876241743545"><ele>881.6666666666667</ele><time>2026-05-05T12:02:25Z</time></trkpt><trkpt lat="30.706492589468294" lon="-6.20310332342681"><ele>882.0</ele><time>2026-05-05T12:02:26Z</time></trkpt><trkpt lat="30.70651027465724" lon="-6.203315448976813"><ele>882.0</ele><time>2026-05-05T12:02:27Z</time></trkpt><trkpt lat="30.706528894898888" lon="-6.203527276616301"><ele>882.0</ele><time>2026-05-05T12:02:28Z</time></trkpt><trkpt lat="30.706548876421312" lon="-6.203738633275554"><ele>882.0</ele><time>2026-05-05T12:02:29Z</time></trkpt><trkpt lat="30.706568281656025" lon="-6.203950969090404"><ele>882.0</ele><time>2026-05-05T12:02:30Z</time></trkpt><trkpt lat="30.70658734003172" lon="-6.204163203752102"><ele>882.0</ele><time>2026-05-05T12:02:31Z</time></trkpt><trkpt lat="30.70660547746844" lon="-6.204377565699319"><ele>882.0</ele><time>2026-05-05T12:02:32Z</time></trkpt><trkpt lat="30.706623531009434" lon="-6.204589014769979"><ele>882.0</ele><time>2026-05-05T12:02:33Z</time></trkpt><trkpt lat="30.70664113845268" lon="-6.204800233038546"><ele>882.0</ele><time>2026-05-05T12:02:34Z</time></trkpt><trkpt lat="30.706661312175516" lon="-6.205007054947695"><ele>882.0</ele><time>2026-05-05T12:02:35Z</time></trkpt><trkpt lat="30.706680036471795" lon="-6.205215014391394"><ele>883.0</ele><time>2026-05-05T12:02:36Z</time></trkpt><trkpt lat="30.70669633188302" lon="-6.205421304846908"><ele>884.0</ele><time>2026-05-05T12:02:37Z</time></trkpt><trkpt lat="30.706713251080195" lon="-6.205630934583836"><ele>885.0</ele><time>2026-05-05T12:02:38Z</time></trkpt><trkpt lat="30.70673225072101" lon="-6.205837796559025"><ele>885.3333333333333</ele><time>2026-05-05T12:02:39Z</time></trkpt><trkpt lat="30.706752078125675" lon="-6.20604466768604"><ele>885.6666666666666</ele><time>2026-05-05T12:02:40Z</time></trkpt><trkpt lat="30.706770509960982" lon="-6.20625099946859"><ele>886.0</ele><time>2026-05-05T12:02:41Z</time></trkpt><trkpt lat="30.706787344605292" lon="-6.206461045575877"><ele>885.3333333333333</ele><time>2026-05-05T12:02:42Z</time></trkpt><trkpt lat="30.706804847150423" lon="-6.2066673978206515"><ele>884.6666666666667</ele><time>2026-05-05T12:02:43Z</time></trkpt><trkpt lat="30.706823093656794" lon="-6.206876618410601"><ele>884.0</ele><time>2026-05-05T12:02:44Z</time></trkpt><trkpt lat="30.70684131184712" lon="-6.2070829736302295"><ele>884.0</ele><time>2026-05-05T12:02:45Z</time></trkpt><trkpt lat="30.706859710736566" lon="-6.207290268820544"><ele>884.0</ele><time>2026-05-05T12:02:46Z</time></trkpt><trkpt lat="30.706879981144823" lon="-6.20749573288606"><ele>884.0</ele><time>2026-05-05T12:02:47Z</time></trkpt><trkpt lat="30.70689948878954" lon="-6.207702098759073"><ele>884.6666666666667</ele><time>2026-05-05T12:02:48Z</time></trkpt><trkpt lat="30.706917694650617" lon="-6.207911237981237"><ele>885.3333333333333</ele><time>2026-05-05T12:02:49Z</time></trkpt><trkpt lat="30.706935652130987" lon="-6.208118268572891"><ele>886.0</ele><time>2026-05-05T12:02:50Z</time></trkpt><trkpt lat="30.70695494027258" lon="-6.208325448322855"><ele>886.0</ele><time>2026-05-05T12:02:51Z</time></trkpt><trkpt lat="30.706981357360565" lon="-6.208533021478796"><ele>886.0</ele><time>2026-05-05T12:02:52Z</time></trkpt><trkpt lat="30.707019144488648" lon="-6.208735712100639"><ele>886.0</ele><time>2026-05-05T12:02:53Z</time></trkpt><trkpt lat="30.707064369261385" lon="-6.20894049529057"><ele>886.6666666666666</ele><time>2026-05-05T12:02:54Z</time></trkpt><trkpt lat="30.70711531719594" lon="-6.209142426028039"><ele>887.3333333333333</ele><time>2026-05-05T12:02:55Z</time></trkpt><trkpt lat="30.707171042197114" lon="-6.209340405925469"><ele>888.0</ele><time>2026-05-05T12:02:56Z</time></trkpt><trkpt lat="30.707232818747425" lon="-6.209537289533538"><ele>888.0</ele><time>2026-05-05T12:02:57Z</time></trkpt><trkpt lat="30.707305304849807" lon="-6.209728857929229"><ele>888.0</ele><time>2026-05-05T12:02:58Z</time></trkpt><trkpt lat="30.707382451361262" lon="-6.209913390081998"><ele>888.0</ele><time>2026-05-05T12:02:59Z</time></trkpt><trkpt lat="30.707462047402313" lon="-6.21009609667388"><ele>887.0</ele><time>2026-05-05T12:03:00Z</time></trkpt><trkpt lat="30.70753946767386" lon="-6.210271230605465"><ele>886.0</ele><time>2026-05-05T12:03:01Z</time></trkpt><trkpt lat="30.707622853333532" lon="-6.210436725047813"><ele>885.0</ele><time>2026-05-05T12:03:02Z</time></trkpt><trkpt lat="30.707716437353596" lon="-6.210595617283581"><ele>884.3333333333333</ele><time>2026-05-05T12:03:03Z</time></trkpt><trkpt lat="30.707809040503836" lon="-6.210746611325578"><ele>883.6666666666666</ele><time>2026-05-05T12:03:04Z</time></trkpt><trkpt lat="30.7079063833319" lon="-6.210896923176879"><ele>883.0</ele><time>2026-05-05T12:03:05Z</time></trkpt><trkpt lat="30.707997884303605" lon="-6.211047966822513"><ele>883.0</ele><time>2026-05-05T12:03:06Z</time></trkpt><trkpt lat="30.70806748913237" lon="-6.211204800097516"><ele>883.0</ele><time>2026-05-05T12:03:07Z</time></trkpt><trkpt lat="30.70818024743647" lon="-6.211327182636806"><ele>883.0</ele><time>2026-05-05T12:03:08Z</time></trkpt><trkpt lat="30.708291727297574" lon="-6.2114634221633445"><ele>883.3333333333333</ele><time>2026-05-05T12:03:09Z</time></trkpt><trkpt lat="30.708405800003938" lon="-6.211602830411119"><ele>883.6666666666667</ele><time>2026-05-05T12:03:10Z</time></trkpt><trkpt lat="30.708514055819368" lon="-6.211754338855683"><ele>884.0</ele><time>2026-05-05T12:03:11Z</time></trkpt><trkpt lat="30.708620376169023" lon="-6.2119091759294385"><ele>884.0</ele><time>2026-05-05T12:03:12Z</time></trkpt><trkpt lat="30.708726668799933" lon="-6.212064153380505"><ele>884.0</ele><time>2026-05-05T12:03:13Z</time></trkpt><trkpt lat="30.70883191420254" lon="-6.212219387744839"><ele>884.0</ele><time>2026-05-05T12:03:14Z</time></trkpt><trkpt lat="30.708927295697432" lon="-6.212386948920951"><ele>883.6666666666667</ele><time>2026-05-05T12:03:15Z</time></trkpt><trkpt lat="30.709038301983703" lon="-6.212543493110812"><ele>883.3333333333333</ele><time>2026-05-05T12:03:16Z</time></trkpt><trkpt lat="30.70914117184255" lon="-6.212709308862245"><ele>883.0</ele><time>2026-05-05T12:03:17Z</time></trkpt><trkpt lat="30.709245132789675" lon="-6.212872297393113"><ele>883.0</ele><time>2026-05-05T12:03:18Z</time></trkpt><trkpt lat="30.709342817296506" lon="-6.21303596962923"><ele>883.0</ele><time>2026-05-05T12:03:19Z</time></trkpt><trkpt lat="30.709439529483745" lon="-6.213207170383693"><ele>883.0</ele><time>2026-05-05T12:03:20.001Z</time></trkpt><trkpt lat="30.70953456762788" lon="-6.213373816233116"><ele>884.0</ele><time>2026-05-05T12:03:21.001Z</time></trkpt><trkpt lat="30.709622522284715" lon="-6.213546400419282"><ele>885.0</ele><time>2026-05-05T12:03:22.001Z</time></trkpt><trkpt lat="30.709709582247324" lon="-6.2137240291210745"><ele>886.0</ele><time>2026-05-05T12:03:23.001Z</time></trkpt><trkpt lat="30.70979484060209" lon="-6.2139003423822645"><ele>885.6666666666666</ele><time>2026-05-05T12:03:24.001Z</time></trkpt><trkpt lat="30.709878122167122" lon="-6.214085126854626"><ele>885.3333333333333</ele><time>2026-05-05T12:03:25.001Z</time></trkpt><trkpt lat="30.709962058844027" lon="-6.214265093891899"><ele>885.0</ele><time>2026-05-05T12:03:26.001Z</time></trkpt><trkpt lat="30.710035412694822" lon="-6.214453753487338"><ele>885.0</ele><time>2026-05-05T12:03:27.001Z</time></trkpt><trkpt lat="30.71010917529963" lon="-6.214638321375185"><ele>885.0</ele><time>2026-05-05T12:03:28.001Z</time></trkpt><trkpt lat="30.710175787808225" lon="-6.2148254485667564"><ele>885.0</ele><time>2026-05-05T12:03:29.001Z</time></trkpt><trkpt lat="30.710247020714835" lon="-6.215014884978837"><ele>886.0</ele><time>2026-05-05T12:03:30.001Z</time></trkpt><trkpt lat="30.710316509799235" lon="-6.21520632266279"><ele>887.0</ele><time>2026-05-05T12:03:31.001Z</time></trkpt><trkpt lat="30.710382080416903" lon="-6.215405186351692"><ele>888.0</ele><time>2026-05-05T12:03:32.001Z</time></trkpt><trkpt lat="30.710444306352667" lon="-6.215606531847019"><ele>887.3333333333333</ele><time>2026-05-05T12:03:33.001Z</time></trkpt><trkpt lat="30.71050161013036" lon="-6.21580359424458"><ele>886.6666666666666</ele><time>2026-05-05T12:03:34.001Z</time></trkpt><trkpt lat="30.71055702511184" lon="-6.216008304209575"><ele>886.0</ele><time>2026-05-05T12:03:35.001Z</time></trkpt><trkpt lat="30.710608458709515" lon="-6.216215691776235"><ele>886.0</ele><time>2026-05-05T12:03:36.001Z</time></trkpt><trkpt lat="30.710660106123566" lon="-6.21642067138096"><ele>886.0</ele><time>2026-05-05T12:03:37.001Z</time></trkpt><trkpt lat="30.710708049694517" lon="-6.216628979898212"><ele>886.0</ele><time>2026-05-05T12:03:38.001Z</time></trkpt><trkpt lat="30.710752369776642" lon="-6.216837560321078"><ele>885.3333333333333</ele><time>2026-05-05T12:03:39.001Z</time></trkpt><trkpt lat="30.710793515990275" lon="-6.21705209635956"><ele>884.6666666666667</ele><time>2026-05-05T12:03:40.001Z</time></trkpt><trkpt lat="30.710832993637617" lon="-6.217267472846084"><ele>884.0</ele><time>2026-05-05T12:03:41.001Z</time></trkpt><trkpt lat="30.710875108910553" lon="-6.217485208190878"><ele>884.0</ele><time>2026-05-05T12:03:42.001Z</time></trkpt><trkpt lat="30.71091598279163" lon="-6.217700234635867"><ele>884.0</ele><time>2026-05-05T12:03:43.001Z</time></trkpt><trkpt lat="30.710970872310238" lon="-6.217917465914661"><ele>884.0</ele><time>2026-05-05T12:03:44.001Z</time></trkpt><trkpt lat="30.71099900447932" lon="-6.218138620003406"><ele>884.6666666666667</ele><time>2026-05-05T12:03:45.001Z</time></trkpt><trkpt lat="30.711036848260147" lon="-6.2183563205313686"><ele>885.3333333333333</ele><time>2026-05-05T12:03:46.001Z</time></trkpt><trkpt lat="30.71108389464479" lon="-6.218568288745284"><ele>886.0</ele><time>2026-05-05T12:03:47.001Z</time></trkpt><trkpt lat="30.71112065068602" lon="-6.218785896215186"><ele>887.3333333333333</ele><time>2026-05-05T12:03:48.001Z</time></trkpt><trkpt lat="30.711166613223032" lon="-6.218994738207853"><ele>888.6666666666667</ele><time>2026-05-05T12:03:49.001Z</time></trkpt><trkpt lat="30.711225220044195" lon="-6.21919975630701"><ele>890.0</ele><time>2026-05-05T12:03:50.001Z</time></trkpt><trkpt lat="30.711323854211376" lon="-6.219382435472912"><ele>890.0</ele><time>2026-05-05T12:03:51.001Z</time></trkpt><trkpt lat="30.711407572882063" lon="-6.219569592249282"><ele>890.0</ele><time>2026-05-05T12:03:52.001Z</time></trkpt><trkpt lat="30.71149227383131" lon="-6.219760785427043"><ele>890.0</ele><time>2026-05-05T12:03:53.001Z</time></trkpt><trkpt lat="30.711575384879847" lon="-6.219948715147967"><ele>891.3333333333334</ele><time>2026-05-05T12:03:54.001Z</time></trkpt><trkpt lat="30.71166069984448" lon="-6.220132132468095"><ele>892.6666666666667</ele><time>2026-05-05T12:03:55.001Z</time></trkpt><trkpt lat="30.711748576958822" lon="-6.22031160664737"><ele>894.0</ele><time>2026-05-05T12:03:56.001Z</time></trkpt><trkpt lat="30.711836924549846" lon="-6.22049255080607"><ele>895.0</ele><time>2026-05-05T12:03:57.001Z</time></trkpt><trkpt lat="30.7119250110398" lon="-6.220672207990659"><ele>896.0</ele><time>2026-05-05T12:03:58.001Z</time></trkpt><trkpt lat="30.711994028400998" lon="-6.220864188519461"><ele>897.0</ele><time>2026-05-05T12:03:59.001Z</time></trkpt><trkpt lat="30.712082806873664" lon="-6.221045140273567"><ele>897.0</ele><time>2026-05-05T12:04:00.001Z</time></trkpt><trkpt lat="30.712170675080248" lon="-6.221227169897383"><ele>897.0</ele><time>2026-05-05T12:04:01.001Z</time></trkpt><trkpt lat="30.712258043510058" lon="-6.2214116087358"><ele>897.0</ele><time>2026-05-05T12:04:02Z</time></trkpt><trkpt lat="30.71234463400243" lon="-6.221591426707282"><ele>898.0</ele><time>2026-05-05T12:04:03Z</time></trkpt><trkpt lat="30.712449176547917" lon="-6.2217606831313965"><ele>899.0</ele><time>2026-05-05T12:04:04Z</time></trkpt><trkpt lat="30.71253983118573" lon="-6.221939885223636"><ele>900.0</ele><time>2026-05-05T12:04:05Z</time></trkpt><trkpt lat="30.71262946039831" lon="-6.222123086020956"><ele>900.0</ele><time>2026-05-05T12:04:06Z</time></trkpt><trkpt lat="30.71271771218246" lon="-6.222306879265544"><ele>900.0</ele><time>2026-05-05T12:04:07Z</time></trkpt><trkpt lat="30.7127918662763" lon="-6.222498570136209"><ele>900.0</ele><time>2026-05-05T12:04:08Z</time></trkpt><trkpt lat="30.712883934112515" lon="-6.2226827381968866"><ele>899.0</ele><time>2026-05-05T12:04:09Z</time></trkpt><trkpt lat="30.712973706171283" lon="-6.2228678529045"><ele>898.0</ele><time>2026-05-05T12:04:10Z</time></trkpt><trkpt lat="30.713061834850844" lon="-6.223052359602573"><ele>897.0</ele><time>2026-05-05T12:04:11Z</time></trkpt><trkpt lat="30.71315201064035" lon="-6.223238917132494"><ele>897.0</ele><time>2026-05-05T12:04:12Z</time></trkpt><trkpt lat="30.713237830387403" lon="-6.223423422726496"><ele>897.0</ele><time>2026-05-05T12:04:13Z</time></trkpt><trkpt lat="30.713325280562234" lon="-6.223608843899518"><ele>897.0</ele><time>2026-05-05T12:04:14Z</time></trkpt><trkpt lat="30.71342894136215" lon="-6.223782947169973"><ele>897.0</ele><time>2026-05-05T12:04:15Z</time></trkpt><trkpt lat="30.713518956361227" lon="-6.223966904203373"><ele>897.0</ele><time>2026-05-05T12:04:16Z</time></trkpt><trkpt lat="30.713607705864277" lon="-6.224149854674286"><ele>897.0</ele><time>2026-05-05T12:04:17Z</time></trkpt><trkpt lat="30.713698067402493" lon="-6.224333475091908"><ele>897.0</ele><time>2026-05-05T12:04:18Z</time></trkpt><trkpt lat="30.713790082730906" lon="-6.224522522149236"><ele>897.0</ele><time>2026-05-05T12:04:19Z</time></trkpt><trkpt lat="30.713880183822045" lon="-6.224707482520693"><ele>897.0</ele><time>2026-05-05T12:04:20Z</time></trkpt><trkpt lat="30.713971507984883" lon="-6.224894498131961"><ele>897.3333333333333</ele><time>2026-05-05T12:04:21Z</time></trkpt><trkpt lat="30.71406464159405" lon="-6.22508507595698"><ele>897.6666666666666</ele><time>2026-05-05T12:04:22Z</time></trkpt><trkpt lat="30.714157099090308" lon="-6.22527365396279"><ele>898.0</ele><time>2026-05-05T12:04:23Z</time></trkpt><trkpt lat="30.714240525074338" lon="-6.225471453818193"><ele>898.0</ele><time>2026-05-05T12:04:24Z</time></trkpt><trkpt lat="30.714345572632805" lon="-6.225651801416893"><ele>898.0</ele><time>2026-05-05T12:04:25Z</time></trkpt><trkpt lat="30.714467417232296" lon="-6.225824701393222"><ele>898.0</ele><time>2026-05-05T12:04:26Z</time></trkpt><trkpt lat="30.714595304876056" lon="-6.225979840943837"><ele>898.0</ele><time>2026-05-05T12:04:27Z</time></trkpt><trkpt lat="30.71473360829223" lon="-6.226130091505028"><ele>898.0</ele><time>2026-05-05T12:04:28Z</time></trkpt><trkpt lat="30.714881636198832" lon="-6.226270241993795"><ele>898.0</ele><time>2026-05-05T12:04:29Z</time></trkpt><trkpt lat="30.715040516408465" lon="-6.226377549150705"><ele>898.0</ele><time>2026-05-05T12:04:30Z</time></trkpt><trkpt lat="30.715198948945293" lon="-6.226497414914039"><ele>898.0</ele><time>2026-05-05T12:04:31Z</time></trkpt><trkpt lat="30.71535612787514" lon="-6.226614842058941"><ele>898.0</ele><time>2026-05-05T12:04:32Z</time></trkpt><trkpt lat="30.71551540591478" lon="-6.226732037795236"><ele>898.0</ele><time>2026-05-05T12:04:33Z</time></trkpt><trkpt lat="30.715663739223565" lon="-6.2268710344874485"><ele>898.0</ele><time>2026-05-05T12:04:34Z</time></trkpt><trkpt lat="30.715822219031057" lon="-6.2269907241722455"><ele>898.0</ele><time>2026-05-05T12:04:35Z</time></trkpt><trkpt lat="30.715983604748708" lon="-6.22710706438293"><ele>899.3333333333333</ele><time>2026-05-05T12:04:36Z</time></trkpt><trkpt lat="30.716136956363034" lon="-6.22722226511907"><ele>900.6666666666667</ele><time>2026-05-05T12:04:37Z</time></trkpt><trkpt lat="30.716295226246288" lon="-6.227334550818008"><ele>902.0</ele><time>2026-05-05T12:04:38Z</time></trkpt><trkpt lat="30.71645641315894" lon="-6.227429928615078"><ele>902.0</ele><time>2026-05-05T12:04:39Z</time></trkpt><trkpt lat="30.716609996824953" lon="-6.227543366565121"><ele>902.0</ele><time>2026-05-05T12:04:40Z</time></trkpt><trkpt lat="30.71675843070602" lon="-6.227658996706313"><ele>902.0</ele><time>2026-05-05T12:04:41Z</time></trkpt><trkpt lat="30.716885162922807" lon="-6.227802552682307"><ele>902.3333333333334</ele><time>2026-05-05T12:04:42Z</time></trkpt><trkpt lat="30.717015197104484" lon="-6.227933946624281"><ele>902.6666666666667</ele><time>2026-05-05T12:04:43Z</time></trkpt><trkpt lat="30.717137493238326" lon="-6.228085976443416"><ele>903.0</ele><time>2026-05-05T12:04:44Z</time></trkpt><trkpt lat="30.717246508332938" lon="-6.2282511076378295"><ele>903.0</ele><time>2026-05-05T12:04:45Z</time></trkpt><trkpt lat="30.71737927836203" lon="-6.228406131872191"><ele>903.0</ele><time>2026-05-05T12:04:46Z</time></trkpt><trkpt lat="30.717489134272544" lon="-6.228580842415911"><ele>903.0</ele><time>2026-05-05T12:04:47Z</time></trkpt><trkpt lat="30.717585954801915" lon="-6.228764865146718"><ele>903.0</ele><time>2026-05-05T12:04:48Z</time></trkpt><trkpt lat="30.717700579429525" lon="-6.228937926463354"><ele>903.0</ele><time>2026-05-05T12:04:49Z</time></trkpt><trkpt lat="30.71781262409846" lon="-6.2291094238206925"><ele>903.0</ele><time>2026-05-05T12:04:50Z</time></trkpt><trkpt lat="30.71792466530534" lon="-6.229280075013729"><ele>903.6666666666667</ele><time>2026-05-05T12:04:51Z</time></trkpt><trkpt lat="30.71803846040816" lon="-6.2294490613933124"><ele>904.3333333333334</ele><time>2026-05-05T12:04:52Z</time></trkpt><trkpt lat="30.7181474592753" lon="-6.229615148663454"><ele>905.0</ele><time>2026-05-05T12:04:53Z</time></trkpt><trkpt lat="30.718256634911672" lon="-6.229781724540708"><ele>905.0</ele><time>2026-05-05T12:04:54Z</time></trkpt><trkpt lat="30.718364570524475" lon="-6.229944616130961"><ele>905.0</ele><time>2026-05-05T12:04:55Z</time></trkpt><trkpt lat="30.71847131453466" lon="-6.230106924672784"><ele>905.0</ele><time>2026-05-05T12:04:56Z</time></trkpt><trkpt lat="30.718577477742762" lon="-6.230266097229384"><ele>905.0</ele><time>2026-05-05T12:04:57Z</time></trkpt><trkpt lat="30.718684542535783" lon="-6.230428947713748"><ele>905.0</ele><time>2026-05-05T12:04:58Z</time></trkpt><trkpt lat="30.71878528901107" lon="-6.230581546735035"><ele>905.0</ele><time>2026-05-05T12:04:59Z</time></trkpt><trkpt lat="30.718881448639902" lon="-6.230726942462145"><ele>905.0</ele><time>2026-05-05T12:05:00Z</time></trkpt><trkpt lat="30.718983075799127" lon="-6.230875025576421"><ele>905.0</ele><time>2026-05-05T12:05:01Z</time></trkpt><trkpt lat="30.71907903216452" lon="-6.23103220984867"><ele>905.0</ele><time>2026-05-05T12:05:02Z</time></trkpt><trkpt lat="30.71919008752494" lon="-6.2311747633302375"><ele>905.0</ele><time>2026-05-05T12:05:03Z</time></trkpt><trkpt lat="30.71926679972956" lon="-6.231326527065379"><ele>905.0</ele><time>2026-05-05T12:05:04Z</time></trkpt><trkpt lat="30.719350583043244" lon="-6.2314591653859654"><ele>905.0</ele><time>2026-05-05T12:05:05Z</time></trkpt><trkpt lat="30.719416842315745" lon="-6.23158802429664"><ele>905.0</ele><time>2026-05-05T12:05:06Z</time></trkpt><trkpt lat="30.719460460663754" lon="-6.231727335258453"><ele>905.0</ele><time>2026-05-05T12:05:07Z</time></trkpt><trkpt lat="30.719473768750138" lon="-6.231882972596491"><ele>905.0</ele><time>2026-05-05T12:05:08Z</time></trkpt><trkpt lat="30.719455475739277" lon="-6.232045178384597"><ele>905.0</ele><time>2026-05-05T12:05:09Z</time></trkpt><trkpt lat="30.719410040634703" lon="-6.232200780343487"><ele>905.0</ele><time>2026-05-05T12:05:10Z</time></trkpt><trkpt lat="30.719341532713845" lon="-6.232342591748668"><ele>905.0</ele><time>2026-05-05T12:05:11Z</time></trkpt><trkpt lat="30.71924396806046" lon="-6.232468474167513"><ele>905.0</ele><time>2026-05-05T12:05:12Z</time></trkpt><trkpt lat="30.71912049995598" lon="-6.232574880234617"><ele>905.0</ele><time>2026-05-05T12:05:13Z</time></trkpt><trkpt lat="30.71898634183736" lon="-6.232672185530965"><ele>905.0</ele><time>2026-05-05T12:05:14Z</time></trkpt><trkpt lat="30.718858810690257" lon="-6.232761015221257"><ele>905.0</ele><time>2026-05-05T12:05:15Z</time></trkpt><trkpt lat="30.7187328611758" lon="-6.232846527075751"><ele>905.0</ele><time>2026-05-05T12:05:16Z</time></trkpt><trkpt lat="30.718607459273677" lon="-6.2329364443823145"><ele>905.0</ele><time>2026-05-05T12:05:17Z</time></trkpt><trkpt lat="30.718478823283313" lon="-6.233029036234226"><ele>904.0</ele><time>2026-05-05T12:05:18Z</time></trkpt><trkpt lat="30.71835091554313" lon="-6.233126888807065"><ele>903.0</ele><time>2026-05-05T12:05:19Z</time></trkpt><trkpt lat="30.71822712013494" lon="-6.233230457787026"><ele>902.0</ele><time>2026-05-05T12:05:20Z</time></trkpt><trkpt lat="30.718106323124257" lon="-6.233334607987875"><ele>901.5</ele><time>2026-05-05T12:05:21Z</time></trkpt><trkpt lat="30.71799134899416" lon="-6.23343232741345"><ele>901.0</ele><time>2026-05-05T12:05:22Z</time></trkpt><trkpt lat="30.717882415644034" lon="-6.233528334743594"><ele>900.5</ele><time>2026-05-05T12:05:23Z</time></trkpt><trkpt lat="30.717779790917724" lon="-6.233623268808066"><ele>900.0</ele><time>2026-05-05T12:05:24Z</time></trkpt><trkpt lat="30.717680835712088" lon="-6.233719909772598"><ele>899.5</ele><time>2026-05-05T12:05:25Z</time></trkpt><trkpt lat="30.717584753249618" lon="-6.233813952959756"><ele>899.0</ele><time>2026-05-05T12:05:26Z</time></trkpt><trkpt lat="30.71748038853533" lon="-6.233912038820303"><ele>898.5</ele><time>2026-05-05T12:05:27Z</time></trkpt><trkpt lat="30.717365309122034" lon="-6.23401398074631"><ele>898.0</ele><time>2026-05-05T12:05:28Z</time></trkpt><trkpt lat="30.717246766196823" lon="-6.234125944908861"><ele>897.75</ele><time>2026-05-05T12:05:29Z</time></trkpt><trkpt lat="30.717135414495694" lon="-6.234239718252192"><ele>897.5</ele><time>2026-05-05T12:05:30Z</time></trkpt><trkpt lat="30.71702281547741" lon="-6.234355689487944"><ele>897.25</ele><time>2026-05-05T12:05:31Z</time></trkpt><trkpt lat="30.716908827207394" lon="-6.234470509835279"><ele>897.0</ele><time>2026-05-05T12:05:32Z</time></trkpt><trkpt lat="30.71679727121253" lon="-6.234587735668517"><ele>896.75</ele><time>2026-05-05T12:05:33Z</time></trkpt><trkpt lat="30.71668704194819" lon="-6.234703790380779"><ele>896.5</ele><time>2026-05-05T12:05:34Z</time></trkpt><trkpt lat="30.7165791901646" lon="-6.2348157836398475"><ele>896.25</ele><time>2026-05-05T12:05:35Z</time></trkpt><trkpt lat="30.716474776208536" lon="-6.234928116100642"><ele>896.0</ele><time>2026-05-05T12:05:36Z</time></trkpt><trkpt lat="30.716370759789243" lon="-6.23504394996175"><ele>896.0</ele><time>2026-05-05T12:05:37Z</time></trkpt><trkpt lat="30.716264839310764" lon="-6.235154668333248"><ele>896.0</ele><time>2026-05-05T12:05:38Z</time></trkpt><trkpt lat="30.716155545130118" lon="-6.235259276716225"><ele>896.0</ele><time>2026-05-05T12:05:39Z</time></trkpt><trkpt lat="30.71604301803896" lon="-6.235355368998983"><ele>896.0</ele><time>2026-05-05T12:05:40Z</time></trkpt><trkpt lat="30.715928033852226" lon="-6.235446253938562"><ele>896.0</ele><time>2026-05-05T12:05:41Z</time></trkpt><trkpt lat="30.71581109752463" lon="-6.235534429465796"><ele>896.0</ele><time>2026-05-05T12:05:42Z</time></trkpt><trkpt lat="30.71569136250654" lon="-6.235626984472957"><ele>896.0</ele><time>2026-05-05T12:05:43Z</time></trkpt><trkpt lat="30.71557415248242" lon="-6.235720208635158"><ele>896.0</ele><time>2026-05-05T12:05:44Z</time></trkpt><trkpt lat="30.715455345394343" lon="-6.235813324580131"><ele>896.0</ele><time>2026-05-05T12:05:45Z</time></trkpt><trkpt lat="30.715336132013245" lon="-6.235906685301035"><ele>896.0</ele><time>2026-05-05T12:05:46Z</time></trkpt><trkpt lat="30.71521393190527" lon="-6.236003131201631"><ele>896.0</ele><time>2026-05-05T12:05:47Z</time></trkpt><trkpt lat="30.7150945181623" lon="-6.236097890181304"><ele>896.0</ele><time>2026-05-05T12:05:48Z</time></trkpt><trkpt lat="30.714973382468017" lon="-6.23619222481494"><ele>895.25</ele><time>2026-05-05T12:05:49Z</time></trkpt><trkpt lat="30.714851377107763" lon="-6.23628325052259"><ele>894.5</ele><time>2026-05-05T12:05:50Z</time></trkpt><trkpt lat="30.71472883715045" lon="-6.236376220623044"><ele>893.75</ele><time>2026-05-05T12:05:51Z</time></trkpt><trkpt lat="30.71460565813776" lon="-6.236470322667964"><ele>893.0</ele><time>2026-05-05T12:05:52Z</time></trkpt><trkpt lat="30.714479399107464" lon="-6.236565461188022"><ele>892.0</ele><time>2026-05-05T12:05:53Z</time></trkpt><trkpt lat="30.714354890225316" lon="-6.236661913183387"><ele>891.0</ele><time>2026-05-05T12:05:54Z</time></trkpt><trkpt lat="30.714230394314974" lon="-6.236758813125864"><ele>890.0</ele><time>2026-05-05T12:05:55Z</time></trkpt><trkpt lat="30.714104839103022" lon="-6.236854536174883"><ele>889.0</ele><time>2026-05-05T12:05:56Z</time></trkpt><trkpt lat="30.713980589734987" lon="-6.236947198973871"><ele>889.0</ele><time>2026-05-05T12:05:57Z</time></trkpt><trkpt lat="30.713859351545878" lon="-6.237038845792684"><ele>889.0</ele><time>2026-05-05T12:05:58Z</time></trkpt><trkpt lat="30.7137402032076" lon="-6.237131049965791"><ele>889.0</ele><time>2026-05-05T12:05:59Z</time></trkpt><trkpt lat="30.71362246494045" lon="-6.237220197603014"><ele>889.0</ele><time>2026-05-05T12:06:00Z</time></trkpt><trkpt lat="30.71350894647361" lon="-6.237306717530109"><ele>888.5</ele><time>2026-05-05T12:06:01Z</time></trkpt><trkpt lat="30.713399432357235" lon="-6.237391636600803"><ele>888.0</ele><time>2026-05-05T12:06:02Z</time></trkpt><trkpt lat="30.713295996378406" lon="-6.2374745187760325"><ele>887.5</ele><time>2026-05-05T12:06:03Z</time></trkpt><trkpt lat="30.713193827374567" lon="-6.237553030084503"><ele>887.0</ele><time>2026-05-05T12:06:04Z</time></trkpt><trkpt lat="30.713095019655487" lon="-6.2376305110255"><ele>887.0</ele><time>2026-05-05T12:06:05Z</time></trkpt><trkpt lat="30.71299753531569" lon="-6.23771033341192"><ele>887.0</ele><time>2026-05-05T12:06:06Z</time></trkpt><trkpt lat="30.71290163088949" lon="-6.2377880769875444"><ele>887.0</ele><time>2026-05-05T12:06:07Z</time></trkpt><trkpt lat="30.712808285792335" lon="-6.2378643567842165"><ele>887.0</ele><time>2026-05-05T12:06:08Z</time></trkpt><trkpt lat="30.712726340237275" lon="-6.237938623304691"><ele>886.8</ele><time>2026-05-05T12:06:09Z</time></trkpt><trkpt lat="30.7126505951989" lon="-6.238015476218253"><ele>886.6</ele><time>2026-05-05T12:06:10Z</time></trkpt><trkpt lat="30.712580952227484" lon="-6.238077507558884"><ele>886.3999999999999</ele><time>2026-05-05T12:06:11Z</time></trkpt><trkpt lat="30.71250522965396" lon="-6.238116641357857"><ele>886.1999999999999</ele><time>2026-05-05T12:06:12Z</time></trkpt><trkpt lat="30.71241256817377" lon="-6.238131741059028"><ele>886.0</ele><time>2026-05-05T12:06:13Z</time></trkpt><trkpt lat="30.71230210478529" lon="-6.238126831543446"><ele>885.9999999999999</ele><time>2026-05-05T12:06:14Z</time></trkpt><trkpt lat="30.71219435971759" lon="-6.238113212286376"><ele>886.0</ele><time>2026-05-05T12:06:15Z</time></trkpt><trkpt lat="30.712096852722635" lon="-6.238097275485037"><ele>886.0</ele><time>2026-05-05T12:06:16Z</time></trkpt><trkpt lat="30.712008102132387" lon="-6.2380884978427344"><ele>886.0</ele><time>2026-05-05T12:06:17Z</time></trkpt><trkpt lat="30.711928763865302" lon="-6.238074239197016"><ele>885.9999999999999</ele><time>2026-05-05T12:06:18Z</time></trkpt><trkpt lat="30.71186233848879" lon="-6.238062925030833"><ele>886.0</ele><time>2026-05-05T12:06:19Z</time></trkpt><trkpt lat="30.711796392497064" lon="-6.238066743776033"><ele>885.8</ele><time>2026-05-05T12:06:20Z</time></trkpt><trkpt lat="30.711740884722836" lon="-6.238115295868986"><ele>885.5999999999999</ele><time>2026-05-05T12:06:21Z</time></trkpt><trkpt lat="30.7116952220399" lon="-6.238213272635773"><ele>885.4</ele><time>2026-05-05T12:06:22Z</time></trkpt><trkpt lat="30.711653782466364" lon="-6.238331028986349"><ele>885.2</ele><time>2026-05-05T12:06:23Z</time></trkpt><trkpt lat="30.711599877549702" lon="-6.238463282975429"><ele>885.0</ele><time>2026-05-05T12:06:24Z</time></trkpt><trkpt lat="30.711528602048993" lon="-6.238599761391072"><ele>884.0</ele><time>2026-05-05T12:06:25Z</time></trkpt><trkpt lat="30.71145819196276" lon="-6.238735498580758"><ele>883.0</ele><time>2026-05-05T12:06:26Z</time></trkpt><trkpt lat="30.71139001587418" lon="-6.238858414890409"><ele>882.0</ele><time>2026-05-05T12:06:27Z</time></trkpt><trkpt lat="30.711321644041313" lon="-6.2389839074693025"><ele>881.0</ele><time>2026-05-05T12:06:28Z</time></trkpt><trkpt lat="30.7112550758887" lon="-6.239114816330017"><ele>880.75</ele><time>2026-05-05T12:06:29Z</time></trkpt><trkpt lat="30.711184237696177" lon="-6.239245026933331"><ele>880.5</ele><time>2026-05-05T12:06:30Z</time></trkpt><trkpt lat="30.711106662227706" lon="-6.239374005554173"><ele>880.25</ele><time>2026-05-05T12:06:31Z</time></trkpt><trkpt lat="30.71101492313493" lon="-6.239500656640644"><ele>880.0</ele><time>2026-05-05T12:06:32Z</time></trkpt><trkpt lat="30.710919609428665" lon="-6.239620936073321"><ele>880.0</ele><time>2026-05-05T12:06:33Z</time></trkpt><trkpt lat="30.710827569587522" lon="-6.239734608546669"><ele>880.0</ele><time>2026-05-05T12:06:34Z</time></trkpt><trkpt lat="30.710737620878998" lon="-6.239845694859415"><ele>880.0</ele><time>2026-05-05T12:06:35Z</time></trkpt><trkpt lat="30.710647038418767" lon="-6.239954969834802"><ele>880.0</ele><time>2026-05-05T12:06:36Z</time></trkpt><trkpt lat="30.71054703382139" lon="-6.2400710428027795"><ele>880.0</ele><time>2026-05-05T12:06:37Z</time></trkpt><trkpt lat="30.71045213996308" lon="-6.240192762384198"><ele>880.0</ele><time>2026-05-05T12:06:38Z</time></trkpt><trkpt lat="30.710362485036278" lon="-6.24030853536981"><ele>880.0</ele><time>2026-05-05T12:06:39Z</time></trkpt><trkpt lat="30.710279802488913" lon="-6.240422275100432"><ele>880.0</ele><time>2026-05-05T12:06:40Z</time></trkpt><trkpt lat="30.710209514393423" lon="-6.24053712643176"><ele>881.0</ele><time>2026-05-05T12:06:41Z</time></trkpt><trkpt lat="30.71015788491617" lon="-6.2406548260134"><ele>882.0</ele><time>2026-05-05T12:06:42Z</time></trkpt><trkpt lat="30.710120458054703" lon="-6.2407941515106184"><ele>883.0</ele><time>2026-05-05T12:06:43Z</time></trkpt><trkpt lat="30.710098158191233" lon="-6.240953957814544"><ele>884.0</ele><time>2026-05-05T12:06:44Z</time></trkpt><trkpt lat="30.710094851957468" lon="-6.241114439964681"><ele>884.0</ele><time>2026-05-05T12:06:45Z</time></trkpt><trkpt lat="30.710106867425118" lon="-6.241268247539921"><ele>884.0</ele><time>2026-05-05T12:06:46Z</time></trkpt><trkpt lat="30.71013574862581" lon="-6.2414263340288745"><ele>884.0</ele><time>2026-05-05T12:06:47Z</time></trkpt><trkpt lat="30.710199023412983" lon="-6.241573941682363"><ele>884.0</ele><time>2026-05-05T12:06:48Z</time></trkpt><trkpt lat="30.71024659677271" lon="-6.24172525009908"><ele>883.25</ele><time>2026-05-05T12:06:49Z</time></trkpt><trkpt lat="30.710278988678766" lon="-6.241867757949564"><ele>882.5</ele><time>2026-05-05T12:06:50Z</time></trkpt><trkpt lat="30.710334527550934" lon="-6.24199323407339"><ele>881.75</ele><time>2026-05-05T12:06:51Z</time></trkpt><trkpt lat="30.710396084236393" lon="-6.242115862221173"><ele>881.0</ele><time>2026-05-05T12:06:52Z</time></trkpt><trkpt lat="30.71047360471519" lon="-6.2422307901256815"><ele>880.75</ele><time>2026-05-05T12:06:53Z</time></trkpt><trkpt lat="30.71056317014056" lon="-6.242331613399871"><ele>880.5</ele><time>2026-05-05T12:06:54Z</time></trkpt><trkpt lat="30.710653243135706" lon="-6.242431788047994"><ele>880.25</ele><time>2026-05-05T12:06:55Z</time></trkpt><trkpt lat="30.710732612973874" lon="-6.242538279490087"><ele>880.0</ele><time>2026-05-05T12:06:56Z</time></trkpt><trkpt lat="30.710801498406784" lon="-6.242649819608189"><ele>880.0</ele><time>2026-05-05T12:06:57Z</time></trkpt><trkpt lat="30.71084987838359" lon="-6.242772201539079"><ele>880.0</ele><time>2026-05-05T12:06:58Z</time></trkpt><trkpt lat="30.710883088832922" lon="-6.242907770653239"><ele>880.0</ele><time>2026-05-05T12:06:59Z</time></trkpt><trkpt lat="30.710894465087737" lon="-6.243047151795647"><ele>880.0</ele><time>2026-05-05T12:07:00Z</time></trkpt><trkpt lat="30.710903480990986" lon="-6.243189372021521"><ele>880.5</ele><time>2026-05-05T12:07:01Z</time></trkpt><trkpt lat="30.710910523944637" lon="-6.243325805192393"><ele>881.0</ele><time>2026-05-05T12:07:02Z</time></trkpt><trkpt lat="30.710916427197258" lon="-6.2434591112415765"><ele>881.5</ele><time>2026-05-05T12:07:03Z</time></trkpt><trkpt lat="30.71092030788069" lon="-6.243595430347911"><ele>882.0</ele><time>2026-05-05T12:07:04Z</time></trkpt><trkpt lat="30.710927335992288" lon="-6.243733070685444"><ele>882.0</ele><time>2026-05-05T12:07:05Z</time></trkpt><trkpt lat="30.71093703104542" lon="-6.243871757936907"><ele>882.0</ele><time>2026-05-05T12:07:06Z</time></trkpt><trkpt lat="30.71093873722327" lon="-6.244013801646469"><ele>882.0</ele><time>2026-05-05T12:07:07Z</time></trkpt><trkpt lat="30.710934658893486" lon="-6.244151516224899"><ele>882.0</ele><time>2026-05-05T12:07:08Z</time></trkpt><trkpt lat="30.710916424047955" lon="-6.2442784133330225"><ele>882.2</ele><time>2026-05-05T12:07:09Z</time></trkpt><trkpt lat="30.71088654899541" lon="-6.24439464609123"><ele>882.4000000000001</ele><time>2026-05-05T12:07:10Z</time></trkpt><trkpt lat="30.710846806099315" lon="-6.244513254537119"><ele>882.5999999999999</ele><time>2026-05-05T12:07:11Z</time></trkpt><trkpt lat="30.710803288433564" lon="-6.244634862930437"><ele>882.8</ele><time>2026-05-05T12:07:12Z</time></trkpt><trkpt lat="30.710754857383076" lon="-6.244747651081312"><ele>883.0</ele><time>2026-05-05T12:07:13Z</time></trkpt><trkpt lat="30.710719046243614" lon="-6.244855554369496"><ele>882.5999999999999</ele><time>2026-05-05T12:07:14.001Z</time></trkpt><trkpt lat="30.710721634803985" lon="-6.244970295950741"><ele>882.1999999999999</ele><time>2026-05-05T12:07:15.001Z</time></trkpt><trkpt lat="30.710720616664446" lon="-6.245097029523469"><ele>881.8</ele><time>2026-05-05T12:07:16.001Z</time></trkpt><trkpt lat="30.71075099968338" lon="-6.245229192459098"><ele>881.4</ele><time>2026-05-05T12:07:17.001Z</time></trkpt><trkpt lat="30.710772327997777" lon="-6.245366898427826"><ele>881.0</ele><time>2026-05-05T12:07:18.001Z</time></trkpt><trkpt lat="30.710785079723642" lon="-6.245511099686417"><ele>881.75</ele><time>2026-05-05T12:07:19.001Z</time></trkpt><trkpt lat="30.710796045763644" lon="-6.245665637273739"><ele>882.5</ele><time>2026-05-05T12:07:20.001Z</time></trkpt><trkpt lat="30.710820704092058" lon="-6.24581924877882"><ele>883.25</ele><time>2026-05-05T12:07:21.001Z</time></trkpt><trkpt lat="30.710871560836463" lon="-6.245968450788395"><ele>884.0</ele><time>2026-05-05T12:07:22.001Z</time></trkpt><trkpt lat="30.710944842679123" lon="-6.246114916043167"><ele>884.0</ele><time>2026-05-05T12:07:23.001Z</time></trkpt><trkpt lat="30.711027924195967" lon="-6.2462629143542285"><ele>884.0</ele><time>2026-05-05T12:07:24.001Z</time></trkpt><trkpt lat="30.711117075243134" lon="-6.2464153868438075"><ele>884.0</ele><time>2026-05-05T12:07:25.001Z</time></trkpt><trkpt lat="30.71120687969293" lon="-6.246568189053924"><ele>885.6666666666667</ele><time>2026-05-05T12:07:26.001Z</time></trkpt><trkpt lat="30.71129664203443" lon="-6.246723454303726"><ele>887.3333333333333</ele><time>2026-05-05T12:07:27.001Z</time></trkpt><trkpt lat="30.711378711649214" lon="-6.246872438140983"><ele>889.0</ele><time>2026-05-05T12:07:28.001Z</time></trkpt><trkpt lat="30.71145746436968" lon="-6.247015477265048"><ele>889.0</ele><time>2026-05-05T12:07:29.001Z</time></trkpt><trkpt lat="30.711531287576328" lon="-6.247149403387952"><ele>889.0</ele><time>2026-05-05T12:07:30.001Z</time></trkpt><trkpt lat="30.711589883684617" lon="-6.2472785776493955"><ele>889.0</ele><time>2026-05-05T12:07:31.001Z</time></trkpt><trkpt lat="30.711620693007788" lon="-6.247411749876007"><ele>889.0</ele><time>2026-05-05T12:07:32.001Z</time></trkpt><trkpt lat="30.711622293528652" lon="-6.247558322714783"><ele>890.0</ele><time>2026-05-05T12:07:33.001Z</time></trkpt><trkpt lat="30.711600042738265" lon="-6.247705324896341"><ele>891.0</ele><time>2026-05-05T12:07:34.001Z</time></trkpt><trkpt lat="30.71155551390081" lon="-6.247852041775236"><ele>892.0</ele><time>2026-05-05T12:07:35.001Z</time></trkpt><trkpt lat="30.71148763777791" lon="-6.247999504645458"><ele>893.0</ele><time>2026-05-05T12:07:36.001Z</time></trkpt><trkpt lat="30.711403602847593" lon="-6.248146796871146"><ele>893.3333333333334</ele><time>2026-05-05T12:07:37.001Z</time></trkpt><trkpt lat="30.71132476657733" lon="-6.248287588250384"><ele>893.6666666666667</ele><time>2026-05-05T12:07:38.001Z</time></trkpt><trkpt lat="30.711242917214864" lon="-6.24843606294334"><ele>894.0</ele><time>2026-05-05T12:07:39.001Z</time></trkpt><trkpt lat="30.711154178541836" lon="-6.248596122797974"><ele>893.3333333333333</ele><time>2026-05-05T12:07:40.001Z</time></trkpt><trkpt lat="30.71106394759774" lon="-6.248769327564994"><ele>892.6666666666666</ele><time>2026-05-05T12:07:41.001Z</time></trkpt><trkpt lat="30.710967607259384" lon="-6.2489430715139465"><ele>892.0</ele><time>2026-05-05T12:07:42.001Z</time></trkpt><trkpt lat="30.710869569265636" lon="-6.249119425302199"><ele>893.6666666666666</ele><time>2026-05-05T12:07:43.001Z</time></trkpt><trkpt lat="30.710768573148822" lon="-6.24929652297364"><ele>895.3333333333333</ele><time>2026-05-05T12:07:44.001Z</time></trkpt><trkpt lat="30.710663864589115" lon="-6.24946371778164"><ele>897.0</ele><time>2026-05-05T12:07:45.001Z</time></trkpt><trkpt lat="30.710560740330536" lon="-6.2496196879714825"><ele>897.0</ele><time>2026-05-05T12:07:46.001Z</time></trkpt><trkpt lat="30.710462647079357" lon="-6.24975903437655"><ele>897.0</ele><time>2026-05-05T12:07:47.001Z</time></trkpt><trkpt lat="30.710358104666415" lon="-6.249881737324242"><ele>897.0</ele><time>2026-05-05T12:07:48.001Z</time></trkpt><trkpt lat="30.71023277095331" lon="-6.249998664947272"><ele>897.0</ele><time>2026-05-05T12:07:49.001Z</time></trkpt><trkpt lat="30.710090459624308" lon="-6.250110429315698"><ele>897.0</ele><time>2026-05-05T12:07:50.001Z</time></trkpt><trkpt lat="30.70994230162436" lon="-6.250216247240436"><ele>897.0</ele><time>2026-05-05T12:07:51.001Z</time></trkpt><trkpt lat="30.70979781991989" lon="-6.250334511632864"><ele>897.0</ele><time>2026-05-05T12:07:52.001Z</time></trkpt><trkpt lat="30.70966666533834" lon="-6.250471982725642"><ele>897.0</ele><time>2026-05-05T12:07:53.001Z</time></trkpt><trkpt lat="30.70954742221481" lon="-6.250611567678035"><ele>897.0</ele><time>2026-05-05T12:07:54.001Z</time></trkpt><trkpt lat="30.709433484755223" lon="-6.250750413809148"><ele>897.0</ele><time>2026-05-05T12:07:55.001Z</time></trkpt><trkpt lat="30.709325921468007" lon="-6.2508765609593215"><ele>897.0</ele><time>2026-05-05T12:07:56.001Z</time></trkpt><trkpt lat="30.709212391859214" lon="-6.25098755783776"><ele>897.0</ele><time>2026-05-05T12:07:57.001Z</time></trkpt><trkpt lat="30.70909547264953" lon="-6.251092096590273"><ele>897.0</ele><time>2026-05-05T12:07:58.001Z</time></trkpt><trkpt lat="30.708983929049136" lon="-6.251199408072884"><ele>897.0</ele><time>2026-05-05T12:07:59.001Z</time></trkpt><trkpt lat="30.708887064294096" lon="-6.251309145382829"><ele>897.0</ele><time>2026-05-05T12:08:00.001Z</time></trkpt><trkpt lat="30.708801191618875" lon="-6.251422334906952"><ele>897.0</ele><time>2026-05-05T12:08:01.001Z</time></trkpt><trkpt lat="30.708725503541746" lon="-6.251536720218968"><ele>897.0</ele><time>2026-05-05T12:08:02.001Z</time></trkpt><trkpt lat="30.70865244453242" lon="-6.25164875523671"><ele>896.75</ele><time>2026-05-05T12:08:03.001Z</time></trkpt><trkpt lat="30.70858029768679" lon="-6.251763792424769"><ele>896.5</ele><time>2026-05-05T12:08:04.001Z</time></trkpt><trkpt lat="30.708516175983934" lon="-6.251893329183381"><ele>896.25</ele><time>2026-05-05T12:08:05.001Z</time></trkpt><trkpt lat="30.708464107955226" lon="-6.252036194269693"><ele>896.0</ele><time>2026-05-05T12:08:06.001Z</time></trkpt><trkpt lat="30.708415527394823" lon="-6.252193853348546"><ele>896.5</ele><time>2026-05-05T12:08:07.001Z</time></trkpt><trkpt lat="30.70836556621148" lon="-6.252355896823216"><ele>897.0</ele><time>2026-05-05T12:08:08.001Z</time></trkpt><trkpt lat="30.708309707569423" lon="-6.252519709200399"><ele>897.5</ele><time>2026-05-05T12:08:09.001Z</time></trkpt><trkpt lat="30.708250224290904" lon="-6.252679188187534"><ele>898.0</ele><time>2026-05-05T12:08:10.001Z</time></trkpt><trkpt lat="30.708181922227705" lon="-6.2528246601124"><ele>898.0</ele><time>2026-05-05T12:08:11.001Z</time></trkpt><trkpt lat="30.70809612858811" lon="-6.252948567025769"><ele>898.0</ele><time>2026-05-05T12:08:12.001Z</time></trkpt><trkpt lat="30.70800778117681" lon="-6.25304978574261"><ele>898.0</ele><time>2026-05-05T12:08:13.001Z</time></trkpt><trkpt lat="30.707931395324636" lon="-6.2531577056268155"><ele>898.0</ele><time>2026-05-05T12:08:14.001Z</time></trkpt><trkpt lat="30.70787426728961" lon="-6.253287935524315"><ele>898.25</ele><time>2026-05-05T12:08:15.001Z</time></trkpt><trkpt lat="30.707829186394136" lon="-6.253431918744701"><ele>898.5</ele><time>2026-05-05T12:08:16.001Z</time></trkpt><trkpt lat="30.707783296464015" lon="-6.2535828510839195"><ele>898.75</ele><time>2026-05-05T12:08:17.001Z</time></trkpt><trkpt lat="30.707747147779788" lon="-6.253743203994686"><ele>899.0</ele><time>2026-05-05T12:08:18.001Z</time></trkpt><trkpt lat="30.707713140450903" lon="-6.2539076535059985"><ele>900.25</ele><time>2026-05-05T12:08:19.001Z</time></trkpt><trkpt lat="30.707678553165195" lon="-6.254051452892958"><ele>901.5</ele><time>2026-05-05T12:08:20.001Z</time></trkpt><trkpt lat="30.707637068618723" lon="-6.2541818157723625"><ele>902.75</ele><time>2026-05-05T12:08:21.001Z</time></trkpt><trkpt lat="30.707585883446647" lon="-6.254305730089111"><ele>904.0</ele><time>2026-05-05T12:08:22.001Z</time></trkpt><trkpt lat="30.70753266288356" lon="-6.254415479184983"><ele>904.0</ele><time>2026-05-05T12:08:23.001Z</time></trkpt><trkpt lat="30.70748852984762" lon="-6.2545233524006"><ele>904.0000000000001</ele><time>2026-05-05T12:08:24.001Z</time></trkpt><trkpt lat="30.707469697328246" lon="-6.254626278196256"><ele>904.0000000000001</ele><time>2026-05-05T12:08:25.001Z</time></trkpt><trkpt lat="30.707488215083046" lon="-6.254727630967553"><ele>904.0</ele><time>2026-05-05T12:08:26.001Z</time></trkpt><trkpt lat="30.707542298283744" lon="-6.254820888470905"><ele>904.0</ele><time>2026-05-05T12:08:27.001Z</time></trkpt><trkpt lat="30.707626683457228" lon="-6.254906016956515"><ele>904.1666666666666</ele><time>2026-05-05T12:08:28.001Z</time></trkpt><trkpt lat="30.707704381114944" lon="-6.254991413665316"><ele>904.3333333333333</ele><time>2026-05-05T12:08:29.001Z</time></trkpt><trkpt lat="30.707762673745464" lon="-6.255073162466423"><ele>904.5</ele><time>2026-05-05T12:08:30.001Z</time></trkpt><trkpt lat="30.70779454864122" lon="-6.255162310992097"><ele>904.6666666666667</ele><time>2026-05-05T12:08:31.001Z</time></trkpt><trkpt lat="30.70778266518552" lon="-6.255259808991219"><ele>904.8333333333334</ele><time>2026-05-05T12:08:32.001Z</time></trkpt><trkpt lat="30.707739490687683" lon="-6.255341871522306"><ele>905.0</ele><time>2026-05-05T12:08:33.001Z</time></trkpt><trkpt lat="30.707659420334707" lon="-6.25538868654119"><ele>905.0</ele><time>2026-05-05T12:08:34.001Z</time></trkpt><trkpt lat="30.707564983194523" lon="-6.25540173970537"><ele>905.0</ele><time>2026-05-05T12:08:35.001Z</time></trkpt><trkpt lat="30.707466849424254" lon="-6.2553659559935"><ele>905.0</ele><time>2026-05-05T12:08:36.001Z</time></trkpt><trkpt lat="30.70737434720098" lon="-6.255308745686142"><ele>905.0</ele><time>2026-05-05T12:08:37.001Z</time></trkpt><trkpt lat="30.707289554230275" lon="-6.255303998501173"><ele>905.0</ele><time>2026-05-05T12:08:38.001Z</time></trkpt><trkpt lat="30.707210205592624" lon="-6.2553099600075255"><ele>905.0000000000001</ele><time>2026-05-05T12:08:39.001Z</time></trkpt><trkpt lat="30.707148907388014" lon="-6.255381841310348"><ele>905.0</ele><time>2026-05-05T12:08:40.001Z</time></trkpt><trkpt lat="30.70711163673949" lon="-6.255472271773324"><ele>905.0</ele><time>2026-05-05T12:08:41.001Z</time></trkpt><trkpt lat="30.707116784275996" lon="-6.255563036097566"><ele>905.0</ele><time>2026-05-05T12:08:42.001Z</time></trkpt><trkpt lat="30.70714479577133" lon="-6.255645201148433"><ele>905.0000000000001</ele><time>2026-05-05T12:08:43.001Z</time></trkpt><trkpt lat="30.70710299190769" lon="-6.255776937129386"><ele>905.0</ele><time>2026-05-05T12:08:45.001Z</time></trkpt><trkpt lat="30.707031138043796" lon="-6.255805540178903"><ele>904.4</ele><time>2026-05-05T12:08:46.001Z</time></trkpt><trkpt lat="30.706949471325498" lon="-6.255794092084254"><ele>903.8</ele><time>2026-05-05T12:08:47.001Z</time></trkpt><trkpt lat="30.706855188794957" lon="-6.255793219419862"><ele>903.2</ele><time>2026-05-05T12:08:48.001Z</time></trkpt><trkpt lat="30.706747803247346" lon="-6.255755380829788"><ele>902.6</ele><time>2026-05-05T12:08:49.001Z</time></trkpt><trkpt lat="30.70664290547361" lon="-6.255715975733294"><ele>902.0</ele><time>2026-05-05T12:08:50.001Z</time></trkpt><trkpt lat="30.70655002387833" lon="-6.255673667625023"><ele>902.0000000000001</ele><time>2026-05-05T12:08:51.001Z</time></trkpt><trkpt lat="30.706475410746396" lon="-6.255620678351545"><ele>902.0</ele><time>2026-05-05T12:08:52.001Z</time></trkpt><trkpt lat="30.706403665070695" lon="-6.255601454782104"><ele>902.0</ele><time>2026-05-05T12:08:53.001Z</time></trkpt><trkpt lat="30.70632943648643" lon="-6.2556115281257085"><ele>902.0</ele><time>2026-05-05T12:08:54.001Z</time></trkpt><trkpt lat="30.70625819280561" lon="-6.2556628778151895"><ele>902.0000000000001</ele><time>2026-05-05T12:08:55.001Z</time></trkpt><trkpt lat="30.706192960732334" lon="-6.255745120688163"><ele>902.0</ele><time>2026-05-05T12:08:56.001Z</time></trkpt><trkpt lat="30.706126977914938" lon="-6.2558262854576245"><ele>900.6</ele><time>2026-05-05T12:08:57.001Z</time></trkpt><trkpt lat="30.706071072714984" lon="-6.255897326031131"><ele>899.2</ele><time>2026-05-05T12:08:58.001Z</time></trkpt><trkpt lat="30.70602154676879" lon="-6.255958281114439"><ele>897.8</ele><time>2026-05-05T12:08:59.001Z</time></trkpt><trkpt lat="30.705945649729237" lon="-6.256043357785618"><ele>896.4</ele><time>2026-05-05T12:09:01.001Z</time></trkpt><trkpt lat="30.705892912759737" lon="-6.256120774573572"><ele>895.0</ele><time>2026-05-05T12:09:20.001Z</time></trkpt><trkpt lat="30.705832833226665" lon="-6.2562611234170245"><ele>895.0</ele><time>2026-05-05T12:09:22.001Z</time></trkpt><trkpt lat="30.705786178310365" lon="-6.256353991683543"><ele>895.0</ele><time>2026-05-05T12:09:23.001Z</time></trkpt><trkpt lat="30.70572489874279" lon="-6.256450214522986"><ele>895.0</ele><time>2026-05-05T12:09:24.001Z</time></trkpt><trkpt lat="30.705644611163716" lon="-6.256561295142017"><ele>895.0</ele><time>2026-05-05T12:09:25.001Z</time></trkpt><trkpt lat="30.70555786747466" lon="-6.256683018335615"><ele>895.5</ele><time>2026-05-05T12:09:26.001Z</time></trkpt><trkpt lat="30.70547249048536" lon="-6.256800791395695"><ele>896.0</ele><time>2026-05-05T12:09:27.001Z</time></trkpt><trkpt lat="30.705376585394433" lon="-6.256924885774763"><ele>896.5</ele><time>2026-05-05T12:09:28.001Z</time></trkpt><trkpt lat="30.705262868282418" lon="-6.257042318775898"><ele>897.0</ele><time>2026-05-05T12:09:29.001Z</time></trkpt><trkpt lat="30.705133005727692" lon="-6.257137372997163"><ele>897.0</ele><time>2026-05-05T12:09:30.001Z</time></trkpt><trkpt lat="30.704995593947295" lon="-6.257222555092955"><ele>897.0</ele><time>2026-05-05T12:09:31.001Z</time></trkpt><trkpt lat="30.704869041855403" lon="-6.257306675480107"><ele>897.0</ele><time>2026-05-05T12:09:32.001Z</time></trkpt><trkpt lat="30.704748361136986" lon="-6.257394929651432"><ele>897.0</ele><time>2026-05-05T12:09:33.001Z</time></trkpt><trkpt lat="30.704632491152328" lon="-6.257482111898359"><ele>898.25</ele><time>2026-05-05T12:09:34.001Z</time></trkpt><trkpt lat="30.704531455406343" lon="-6.25758124698978"><ele>899.5</ele><time>2026-05-05T12:09:35.001Z</time></trkpt><trkpt lat="30.704453205844512" lon="-6.257704377429782"><ele>900.75</ele><time>2026-05-05T12:09:36.001Z</time></trkpt><trkpt lat="30.704399835227463" lon="-6.257846151650286"><ele>902.0</ele><time>2026-05-05T12:09:37.001Z</time></trkpt><trkpt lat="30.704365909434134" lon="-6.257995614575493"><ele>899.5</ele><time>2026-05-05T12:09:38.001Z</time></trkpt><trkpt lat="30.70433537927108" lon="-6.258153167346031"><ele>897.0</ele><time>2026-05-05T12:09:39.001Z</time></trkpt><trkpt lat="30.704298627485784" lon="-6.25831865400828"><ele>894.5</ele><time>2026-05-05T12:09:40.001Z</time></trkpt><trkpt lat="30.704261409255725" lon="-6.258487207249287"><ele>892.0</ele><time>2026-05-05T12:09:41.001Z</time></trkpt><trkpt lat="30.70423249717039" lon="-6.258662896631538"><ele>892.0</ele><time>2026-05-05T12:09:42.001Z</time></trkpt><trkpt lat="30.70421253653079" lon="-6.258834941404351"><ele>892.0</ele><time>2026-05-05T12:09:43.001Z</time></trkpt><trkpt lat="30.704194421553552" lon="-6.259002043719291"><ele>892.0</ele><time>2026-05-05T12:09:44.001Z</time></trkpt><trkpt lat="30.70417958446044" lon="-6.259167815800174"><ele>892.0</ele><time>2026-05-05T12:09:45.001Z</time></trkpt><trkpt lat="30.704149679285837" lon="-6.259326711402205"><ele>894.0</ele><time>2026-05-05T12:09:46.001Z</time></trkpt><trkpt lat="30.70409285711222" lon="-6.259483374238182"><ele>896.0</ele><time>2026-05-05T12:09:47.001Z</time></trkpt><trkpt lat="30.704007054180618" lon="-6.259625897978485"><ele>898.0</ele><time>2026-05-05T12:09:48.001Z</time></trkpt><trkpt lat="30.703914098909735" lon="-6.2597669908646525"><ele>900.0</ele><time>2026-05-05T12:09:49.001Z</time></trkpt><trkpt lat="30.70382692095151" lon="-6.2599088165170285"><ele>900.75</ele><time>2026-05-05T12:09:50.001Z</time></trkpt><trkpt lat="30.703738933601137" lon="-6.2600451951022"><ele>901.5</ele><time>2026-05-05T12:09:51.001Z</time></trkpt><trkpt lat="30.70364681552755" lon="-6.260160921356811"><ele>902.25</ele><time>2026-05-05T12:09:52.001Z</time></trkpt><trkpt lat="30.70353996168311" lon="-6.260242463701584"><ele>903.0</ele><time>2026-05-05T12:09:53.001Z</time></trkpt><trkpt lat="30.703418224014623" lon="-6.2602877578560605"><ele>903.0</ele><time>2026-05-05T12:09:54.001Z</time></trkpt><trkpt lat="30.70329400244055" lon="-6.2603071637155185"><ele>903.0</ele><time>2026-05-05T12:09:55.001Z</time></trkpt><trkpt lat="30.703176356833694" lon="-6.2603218945598"><ele>903.0</ele><time>2026-05-05T12:09:56.001Z</time></trkpt><trkpt lat="30.703086129180246" lon="-6.260360327803013"><ele>903.0</ele><time>2026-05-05T12:09:57.001Z</time></trkpt><trkpt lat="30.703019864937968" lon="-6.260411581180055"><ele>903.0</ele><time>2026-05-05T12:09:58.001Z</time></trkpt><trkpt lat="30.702967663858033" lon="-6.260456824138471"><ele>903.0</ele><time>2026-05-05T12:09:59.001Z</time></trkpt><trkpt lat="30.702883584330845" lon="-6.260531012476503"><ele>903.0</ele><time>2026-05-05T12:10:01.001Z</time></trkpt><trkpt lat="30.70281480535748" lon="-6.260604461235822"><ele>903.0</ele><time>2026-05-05T12:10:03.001Z</time></trkpt><trkpt lat="30.702732248449085" lon="-6.260691346623138"><ele>903.0</ele><time>2026-05-05T12:10:05.001Z</time></trkpt><trkpt lat="30.702650515449342" lon="-6.260772418072925"><ele>903.0</ele><time>2026-05-05T12:10:07.001Z</time></trkpt><trkpt lat="30.702589040603243" lon="-6.2608208876595866"><ele>901.25</ele><time>2026-05-05T12:10:08.001Z</time></trkpt><trkpt lat="30.70251384548181" lon="-6.26088186254461"><ele>899.5</ele><time>2026-05-05T12:10:09.001Z</time></trkpt><trkpt lat="30.702420424026556" lon="-6.260949527617169"><ele>897.75</ele><time>2026-05-05T12:10:10.001Z</time></trkpt><trkpt lat="30.70231134438879" lon="-6.261019549666678"><ele>896.0</ele><time>2026-05-05T12:10:11.001Z</time></trkpt><trkpt lat="30.702196063367257" lon="-6.261078292962784"><ele>896.0</ele><time>2026-05-05T12:10:12.001Z</time></trkpt><trkpt lat="30.70208640202163" lon="-6.261134596847692"><ele>896.0</ele><time>2026-05-05T12:10:13.001Z</time></trkpt><trkpt lat="30.701972279935756" lon="-6.261200050223297"><ele>896.0</ele><time>2026-05-05T12:10:14.001Z</time></trkpt><trkpt lat="30.70185576981791" lon="-6.261266729888826"><ele>896.0</ele><time>2026-05-05T12:10:15.001Z</time></trkpt><trkpt lat="30.701737242763702" lon="-6.261363171416578"><ele>896.0</ele><time>2026-05-05T12:10:16.001Z</time></trkpt><trkpt lat="30.701606554497317" lon="-6.261448669981381"><ele>896.0</ele><time>2026-05-05T12:10:17.001Z</time></trkpt><trkpt lat="30.7014696310645" lon="-6.261537148599902"><ele>896.0</ele><time>2026-05-05T12:10:18.001Z</time></trkpt><trkpt lat="30.70132843177049" lon="-6.261630306375607"><ele>896.0</ele><time>2026-05-05T12:10:19.001Z</time></trkpt><trkpt lat="30.701193671905912" lon="-6.261723624016895"><ele>896.0</ele><time>2026-05-05T12:10:20Z</time></trkpt><trkpt lat="30.701061134142734" lon="-6.261816847258595"><ele>896.0</ele><time>2026-05-05T12:10:21Z</time></trkpt><trkpt lat="30.7009241194519" lon="-6.261910327621894"><ele>893.3333333333334</ele><time>2026-05-05T12:10:22Z</time></trkpt><trkpt lat="30.700787180569268" lon="-6.262003579218604"><ele>890.6666666666667</ele><time>2026-05-05T12:10:23Z</time></trkpt><trkpt lat="30.700647174283894" lon="-6.262089080491544"><ele>888.0</ele><time>2026-05-05T12:10:24Z</time></trkpt><trkpt lat="30.70051310417782" lon="-6.262174788280515"><ele>888.0</ele><time>2026-05-05T12:10:25Z</time></trkpt><trkpt lat="30.70037876345874" lon="-6.262270828896457"><ele>888.0</ele><time>2026-05-05T12:10:26Z</time></trkpt><trkpt lat="30.700254175558584" lon="-6.262379653956548"><ele>888.0</ele><time>2026-05-05T12:10:27Z</time></trkpt><trkpt lat="30.700134787371233" lon="-6.2625054145790875"><ele>890.6666666666667</ele><time>2026-05-05T12:10:28Z</time></trkpt><trkpt lat="30.70002524524714" lon="-6.262644865325359"><ele>893.3333333333334</ele><time>2026-05-05T12:10:29Z</time></trkpt><trkpt lat="30.699920008763677" lon="-6.262801352395031"><ele>896.0</ele><time>2026-05-05T12:10:30Z</time></trkpt><trkpt lat="30.69981331383805" lon="-6.2629652646317036"><ele>898.0</ele><time>2026-05-05T12:10:31Z</time></trkpt><trkpt lat="30.699712131868786" lon="-6.26313195474609"><ele>900.0</ele><time>2026-05-05T12:10:32Z</time></trkpt><trkpt lat="30.6996098108007" lon="-6.263302801574224"><ele>902.0</ele><time>2026-05-05T12:10:33Z</time></trkpt><trkpt lat="30.699499003922554" lon="-6.2634743421451295"><ele>901.6666666666667</ele><time>2026-05-05T12:10:34Z</time></trkpt><trkpt lat="30.699388546404474" lon="-6.263649142508607"><ele>901.3333333333333</ele><time>2026-05-05T12:10:35Z</time></trkpt><trkpt lat="30.699272715006074" lon="-6.263827463882753"><ele>901.0</ele><time>2026-05-05T12:10:36Z</time></trkpt><trkpt lat="30.699159644325" lon="-6.264012189873304"><ele>901.0</ele><time>2026-05-05T12:10:37Z</time></trkpt><trkpt lat="30.699048724346603" lon="-6.264213796361673"><ele>901.0</ele><time>2026-05-05T12:10:38Z</time></trkpt><trkpt lat="30.698936099222394" lon="-6.264395523287574"><ele>901.0</ele><time>2026-05-05T12:10:39Z</time></trkpt><trkpt lat="30.698821125489186" lon="-6.264576846043042"><ele>901.0</ele><time>2026-05-05T12:10:40Z</time></trkpt><trkpt lat="30.698707050084565" lon="-6.2647572237575115"><ele>901.0</ele><time>2026-05-05T12:10:41Z</time></trkpt><trkpt lat="30.698596709797183" lon="-6.2649370578057"><ele>901.0</ele><time>2026-05-05T12:10:42Z</time></trkpt><trkpt lat="30.6984876054623" lon="-6.265116210846829"><ele>901.3333333333333</ele><time>2026-05-05T12:10:43Z</time></trkpt><trkpt lat="30.69837803561385" lon="-6.265297092982144"><ele>901.6666666666667</ele><time>2026-05-05T12:10:44Z</time></trkpt><trkpt lat="30.69826712020996" lon="-6.2654754487874245"><ele>902.0</ele><time>2026-05-05T12:10:45Z</time></trkpt><trkpt lat="30.69815661417293" lon="-6.26564938733576"><ele>903.6666666666667</ele><time>2026-05-05T12:10:46Z</time></trkpt><trkpt lat="30.698049464766772" lon="-6.265820774733813"><ele>905.3333333333333</ele><time>2026-05-05T12:10:47Z</time></trkpt><trkpt lat="30.69794131476477" lon="-6.265985289501294"><ele>907.0</ele><time>2026-05-05T12:10:48Z</time></trkpt><trkpt lat="30.697817501608323" lon="-6.266139002049073"><ele>907.0</ele><time>2026-05-05T12:10:49Z</time></trkpt><trkpt lat="30.697677947856572" lon="-6.266265218391241"><ele>907.0</ele><time>2026-05-05T12:10:50Z</time></trkpt><trkpt lat="30.697526795863155" lon="-6.266376919009653"><ele>907.0</ele><time>2026-05-05T12:10:51Z</time></trkpt><trkpt lat="30.697365753839332" lon="-6.266473009512455"><ele>907.0</ele><time>2026-05-05T12:10:52Z</time></trkpt><trkpt lat="30.69719441273727" lon="-6.266550453294866"><ele>907.0</ele><time>2026-05-05T12:10:53Z</time></trkpt><trkpt lat="30.697013326373376" lon="-6.266600872404975"><ele>907.0</ele><time>2026-05-05T12:10:54Z</time></trkpt><trkpt lat="30.696828133046985" lon="-6.266628649036224"><ele>906.3333333333333</ele><time>2026-05-05T12:10:55Z</time></trkpt><trkpt lat="30.69664461337571" lon="-6.266681900700604"><ele>905.6666666666667</ele><time>2026-05-05T12:10:56Z</time></trkpt><trkpt lat="30.696454221496044" lon="-6.266706938974498"><ele>905.0</ele><time>2026-05-05T12:10:57Z</time></trkpt><trkpt lat="30.6962686009169" lon="-6.266716938831189"><ele>905.0</ele><time>2026-05-05T12:10:58Z</time></trkpt><trkpt lat="30.696087496810463" lon="-6.266733169051539"><ele>905.0</ele><time>2026-05-05T12:10:59Z</time></trkpt><trkpt lat="30.69590764477093" lon="-6.266793642801004"><ele>905.0</ele><time>2026-05-05T12:11:00Z</time></trkpt><trkpt lat="30.69572884456486" lon="-6.2668747813693395"><ele>904.0</ele><time>2026-05-05T12:11:01Z</time></trkpt><trkpt lat="30.69555294685824" lon="-6.266965260388584"><ele>903.0</ele><time>2026-05-05T12:11:02Z</time></trkpt><trkpt lat="30.695378443610554" lon="-6.267064959120411"><ele>902.0</ele><time>2026-05-05T12:11:03.001Z</time></trkpt><trkpt lat="30.695207253390507" lon="-6.267174069305388"><ele>904.6666666666667</ele><time>2026-05-05T12:11:04.001Z</time></trkpt><trkpt lat="30.69503569461359" lon="-6.267281728156191"><ele>907.3333333333333</ele><time>2026-05-05T12:11:05.001Z</time></trkpt><trkpt lat="30.69486370717742" lon="-6.267388046592851"><ele>910.0</ele><time>2026-05-05T12:11:06.001Z</time></trkpt><trkpt lat="30.694693647674626" lon="-6.267499779407968"><ele>910.0</ele><time>2026-05-05T12:11:07.001Z</time></trkpt><trkpt lat="30.6945267239309" lon="-6.267619580086774"><ele>910.0</ele><time>2026-05-05T12:11:08.001Z</time></trkpt><trkpt lat="30.69435875659305" lon="-6.26774241845543"><ele>910.0</ele><time>2026-05-05T12:11:09.001Z</time></trkpt><trkpt lat="30.694186335798317" lon="-6.267865496979418"><ele>908.0</ele><time>2026-05-05T12:11:10.001Z</time></trkpt><trkpt lat="30.69400801591364" lon="-6.267979391666954"><ele>906.0</ele><time>2026-05-05T12:11:11.001Z</time></trkpt><trkpt lat="30.693824240735278" lon="-6.268084100916021"><ele>904.0</ele><time>2026-05-05T12:11:12.001Z</time></trkpt><trkpt lat="30.693644169113075" lon="-6.268189823570198"><ele>903.0</ele><time>2026-05-05T12:11:13.001Z</time></trkpt><trkpt lat="30.693462952579143" lon="-6.268300255534347"><ele>902.0</ele><time>2026-05-05T12:11:14.001Z</time></trkpt><trkpt lat="30.6932809606986" lon="-6.268410803899767"><ele>901.0</ele><time>2026-05-05T12:11:15.001Z</time></trkpt><trkpt lat="30.69309839088702" lon="-6.268520770526328"><ele>901.0</ele><time>2026-05-05T12:11:16.001Z</time></trkpt><trkpt lat="30.692918435128668" lon="-6.2686357241270105"><ele>901.0</ele><time>2026-05-05T12:11:17.001Z</time></trkpt><trkpt lat="30.692741787549146" lon="-6.268756657932893"><ele>901.0</ele><time>2026-05-05T12:11:18.001Z</time></trkpt><trkpt lat="30.692566456774706" lon="-6.2688814906495605"><ele>901.0</ele><time>2026-05-05T12:11:19.001Z</time></trkpt><trkpt lat="30.692388430359" lon="-6.269007506083439"><ele>901.0</ele><time>2026-05-05T12:11:20.001Z</time></trkpt><trkpt lat="30.692206976875827" lon="-6.2691342565633486"><ele>901.0</ele><time>2026-05-05T12:11:21.001Z</time></trkpt><trkpt lat="30.692022092928486" lon="-6.269262246387629"><ele>899.3333333333333</ele><time>2026-05-05T12:11:22.001Z</time></trkpt><trkpt lat="30.69183679822202" lon="-6.269389589594085"><ele>897.6666666666667</ele><time>2026-05-05T12:11:23.001Z</time></trkpt><trkpt lat="30.69165740018113" lon="-6.2695140107694325"><ele>896.0</ele><time>2026-05-05T12:11:24.001Z</time></trkpt><trkpt lat="30.69148887024865" lon="-6.269635512960438"><ele>896.0</ele><time>2026-05-05T12:11:25.001Z</time></trkpt><trkpt lat="30.691334907698902" lon="-6.26977050363747"><ele>896.0</ele><time>2026-05-05T12:11:26.001Z</time></trkpt><trkpt lat="30.691195874359593" lon="-6.269929263689853"><ele>896.0</ele><time>2026-05-05T12:11:27.001Z</time></trkpt><trkpt lat="30.691063376837192" lon="-6.270085429102602"><ele>898.0</ele><time>2026-05-05T12:11:28.001Z</time></trkpt><trkpt lat="30.690924351087826" lon="-6.270238094232057"><ele>900.0</ele><time>2026-05-05T12:11:29.001Z</time></trkpt><trkpt lat="30.69078439538735" lon="-6.270392845604494"><ele>902.0</ele><time>2026-05-05T12:11:30.001Z</time></trkpt><trkpt lat="30.6906469310299" lon="-6.270550838859601"><ele>902.3333333333334</ele><time>2026-05-05T12:11:31.001Z</time></trkpt><trkpt lat="30.690507620221204" lon="-6.2707103188269455"><ele>902.6666666666667</ele><time>2026-05-05T12:11:32.001Z</time></trkpt><trkpt lat="30.69036282286188" lon="-6.270869295893855"><ele>903.0</ele><time>2026-05-05T12:11:33.001Z</time></trkpt><trkpt lat="30.690220167616285" lon="-6.271029388240918"><ele>903.0</ele><time>2026-05-05T12:11:34.001Z</time></trkpt><trkpt lat="30.690077713063783" lon="-6.271185936479555"><ele>903.0</ele><time>2026-05-05T12:11:35.001Z</time></trkpt><trkpt lat="30.689935958575987" lon="-6.271346989663763"><ele>903.0</ele><time>2026-05-05T12:11:36.001Z</time></trkpt><trkpt lat="30.689806195086035" lon="-6.271518772885919"><ele>904.0</ele><time>2026-05-05T12:11:37.001Z</time></trkpt><trkpt lat="30.689686847462006" lon="-6.271704471102634"><ele>905.0</ele><time>2026-05-05T12:11:38.001Z</time></trkpt><trkpt lat="30.68957396693044" lon="-6.27189469534992"><ele>906.0</ele><time>2026-05-05T12:11:39.001Z</time></trkpt><trkpt lat="30.689459765778814" lon="-6.272088815901456"><ele>904.0</ele><time>2026-05-05T12:11:40.001Z</time></trkpt><trkpt lat="30.689343325507778" lon="-6.2722852649129255"><ele>902.0</ele><time>2026-05-05T12:11:41.001Z</time></trkpt><trkpt lat="30.689233648277888" lon="-6.272471212678727"><ele>900.0</ele><time>2026-05-05T12:11:42.001Z</time></trkpt><trkpt lat="30.689126713904376" lon="-6.272649114505389"><ele>900.0</ele><time>2026-05-05T12:11:43.001Z</time></trkpt><trkpt lat="30.68902140574987" lon="-6.272818029131466"><ele>900.0</ele><time>2026-05-05T12:11:44.001Z</time></trkpt><trkpt lat="30.6889091130488" lon="-6.272968754965047"><ele>900.0</ele><time>2026-05-05T12:11:45.001Z</time></trkpt><trkpt lat="30.688784458930563" lon="-6.273099743257695"><ele>899.0</ele><time>2026-05-05T12:11:46.001Z</time></trkpt><trkpt lat="30.68865623785384" lon="-6.27321636147598"><ele>898.0</ele><time>2026-05-05T12:11:47.001Z</time></trkpt><trkpt lat="30.688529386828815" lon="-6.273324653520063"><ele>897.0</ele><time>2026-05-05T12:11:48.001Z</time></trkpt><trkpt lat="30.68840012539383" lon="-6.273421291331714"><ele>897.0</ele><time>2026-05-05T12:11:49.001Z</time></trkpt><trkpt lat="30.688258547362864" lon="-6.273501079230002"><ele>897.0</ele><time>2026-05-05T12:11:50.001Z</time></trkpt><trkpt lat="30.688108613503356" lon="-6.273569019707747"><ele>897.0</ele><time>2026-05-05T12:11:51.001Z</time></trkpt><trkpt lat="30.68795162004887" lon="-6.27362825229503"><ele>897.0</ele><time>2026-05-05T12:11:52.001Z</time></trkpt><trkpt lat="30.687795079339224" lon="-6.273667453746832"><ele>897.0</ele><time>2026-05-05T12:11:53.001Z</time></trkpt><trkpt lat="30.6876483404261" lon="-6.273709236786217"><ele>897.0</ele><time>2026-05-05T12:11:54.001Z</time></trkpt><trkpt lat="30.687511791089612" lon="-6.273744824282606"><ele>895.5</ele><time>2026-05-05T12:11:55.001Z</time></trkpt><trkpt lat="30.68737730930095" lon="-6.273778550420998"><ele>894.0</ele><time>2026-05-05T12:11:56.001Z</time></trkpt><trkpt lat="30.687244171919264" lon="-6.273814424853752"><ele>892.5</ele><time>2026-05-05T12:11:57.001Z</time></trkpt><trkpt lat="30.687116893187984" lon="-6.273853241934569"><ele>891.0</ele><time>2026-05-05T12:11:58.001Z</time></trkpt><trkpt lat="30.686992714143805" lon="-6.273898617534033"><ele>890.75</ele><time>2026-05-05T12:11:59.001Z</time></trkpt><trkpt lat="30.686878648405926" lon="-6.273969314117949"><ele>890.5</ele><time>2026-05-05T12:12:00.001Z</time></trkpt><trkpt lat="30.686760675246912" lon="-6.274054940923518"><ele>890.25</ele><time>2026-05-05T12:12:01.001Z</time></trkpt><trkpt lat="30.686637087030068" lon="-6.274152499648741"><ele>890.0</ele><time>2026-05-05T12:12:02.001Z</time></trkpt><trkpt lat="30.68651468979227" lon="-6.274255656639168"><ele>890.0</ele><time>2026-05-05T12:12:03.001Z</time></trkpt><trkpt lat="30.68639813996049" lon="-6.274361912859886"><ele>890.0</ele><time>2026-05-05T12:12:04.001Z</time></trkpt><trkpt lat="30.686287726695824" lon="-6.27447102797305"><ele>890.0</ele><time>2026-05-05T12:12:05.001Z</time></trkpt><trkpt lat="30.686184051872523" lon="-6.274579423383539"><ele>890.0</ele><time>2026-05-05T12:12:06.001Z</time></trkpt><trkpt lat="30.68609677927974" lon="-6.274689904909768"><ele>889.0</ele><time>2026-05-05T12:12:07.001Z</time></trkpt><trkpt lat="30.686034168715427" lon="-6.274813284556115"><ele>888.0</ele><time>2026-05-05T12:12:08.001Z</time></trkpt><trkpt lat="30.685994857391442" lon="-6.274956011154778"><ele>887.0</ele><time>2026-05-05T12:12:09.001Z</time></trkpt><trkpt lat="30.685961596744324" lon="-6.275110747699402"><ele>886.0</ele><time>2026-05-05T12:12:10.001Z</time></trkpt><trkpt lat="30.6859192229709" lon="-6.275271292619339"><ele>886.0</ele><time>2026-05-05T12:12:11.001Z</time></trkpt><trkpt lat="30.68587464780961" lon="-6.275440872511405"><ele>886.0</ele><time>2026-05-05T12:12:12.001Z</time></trkpt><trkpt lat="30.685840100896158" lon="-6.275617456246425"><ele>886.0</ele><time>2026-05-05T12:12:13.001Z</time></trkpt><trkpt lat="30.685818154634756" lon="-6.275803240435347"><ele>885.3333333333333</ele><time>2026-05-05T12:12:14.001Z</time></trkpt><trkpt lat="30.685804956177588" lon="-6.275997571878851"><ele>884.6666666666667</ele><time>2026-05-05T12:12:15.001Z</time></trkpt><trkpt lat="30.685790958404645" lon="-6.276191019401273"><ele>884.0</ele><time>2026-05-05T12:12:16.001Z</time></trkpt><trkpt lat="30.685779733445568" lon="-6.276387720401393"><ele>884.6666666666667</ele><time>2026-05-05T12:12:17.001Z</time></trkpt><trkpt lat="30.685769062958258" lon="-6.2765779901536325"><ele>885.3333333333333</ele><time>2026-05-05T12:12:18.001Z</time></trkpt><trkpt lat="30.68575958567649" lon="-6.276765537106323"><ele>886.0</ele><time>2026-05-05T12:12:19.001Z</time></trkpt><trkpt lat="30.68573300158074" lon="-6.276958310585702"><ele>886.0</ele><time>2026-05-05T12:12:20.001Z</time></trkpt><trkpt lat="30.685719207295207" lon="-6.277135161017163"><ele>886.0</ele><time>2026-05-05T12:12:21.001Z</time></trkpt><trkpt lat="30.685717383015586" lon="-6.277321424662588"><ele>886.0</ele><time>2026-05-05T12:12:22.001Z</time></trkpt><trkpt lat="30.6857311116538" lon="-6.277501716488355"><ele>886.3333333333333</ele><time>2026-05-05T12:12:23.001Z</time></trkpt><trkpt lat="30.68574298139794" lon="-6.277681736915941"><ele>886.6666666666667</ele><time>2026-05-05T12:12:24.001Z</time></trkpt><trkpt lat="30.685734655595613" lon="-6.277857873219161"><ele>887.0</ele><time>2026-05-05T12:12:25.001Z</time></trkpt><trkpt lat="30.685692534898664" lon="-6.27803710806146"><ele>887.6666666666667</ele><time>2026-05-05T12:12:26.001Z</time></trkpt><trkpt lat="30.685633419994844" lon="-6.278223914344737"><ele>888.3333333333333</ele><time>2026-05-05T12:12:27.001Z</time></trkpt><trkpt lat="30.68558751448539" lon="-6.278414675918363"><ele>889.0</ele><time>2026-05-05T12:12:28.001Z</time></trkpt><trkpt lat="30.68555278020846" lon="-6.278612588103869"><ele>889.0</ele><time>2026-05-05T12:12:29.001Z</time></trkpt><trkpt lat="30.685511161998676" lon="-6.278807260430835"><ele>889.0</ele><time>2026-05-05T12:12:30.001Z</time></trkpt><trkpt lat="30.685465546589366" lon="-6.279002688614308"><ele>889.0</ele><time>2026-05-05T12:12:31.001Z</time></trkpt><trkpt lat="30.685417829036624" lon="-6.2791992987253975"><ele>889.0</ele><time>2026-05-05T12:12:32.001Z</time></trkpt><trkpt lat="30.68536946511337" lon="-6.279395500325547"><ele>889.0</ele><time>2026-05-05T12:12:33.001Z</time></trkpt><trkpt lat="30.685320815966104" lon="-6.279592160689225"><ele>889.0</ele><time>2026-05-05T12:12:34.001Z</time></trkpt><trkpt lat="30.68527444269561" lon="-6.2797919017935815"><ele>889.3333333333333</ele><time>2026-05-05T12:12:35.001Z</time></trkpt><trkpt lat="30.68522697158374" lon="-6.279991854314249"><ele>889.6666666666667</ele><time>2026-05-05T12:12:36.001Z</time></trkpt><trkpt lat="30.68517763522005" lon="-6.28019427185746"><ele>890.0</ele><time>2026-05-05T12:12:37.001Z</time></trkpt><trkpt lat="30.68512948550538" lon="-6.280394661475219"><ele>890.0</ele><time>2026-05-05T12:12:38.001Z</time></trkpt><trkpt lat="30.685081945926417" lon="-6.280596451186309"><ele>890.0</ele><time>2026-05-05T12:12:39.001Z</time></trkpt><trkpt lat="30.685035654828358" lon="-6.280800550857351"><ele>890.0</ele><time>2026-05-05T12:12:40.001Z</time></trkpt><trkpt lat="30.684990696059753" lon="-6.28100107252036"><ele>890.3333333333334</ele><time>2026-05-05T12:12:41.001Z</time></trkpt><trkpt lat="30.684958244994444" lon="-6.281205398517153"><ele>890.6666666666667</ele><time>2026-05-05T12:12:42.001Z</time></trkpt><trkpt lat="30.684949584883405" lon="-6.281412762041042"><ele>891.0</ele><time>2026-05-05T12:12:43.001Z</time></trkpt><trkpt lat="30.684963851351366" lon="-6.281621858719379"><ele>891.0</ele><time>2026-05-05T12:12:44.001Z</time></trkpt><trkpt lat="30.684998171784887" lon="-6.281828739329688"><ele>891.0</ele><time>2026-05-05T12:12:45.001Z</time></trkpt><trkpt lat="30.685062011300616" lon="-6.2820282743349045"><ele>891.0</ele><time>2026-05-05T12:12:46.001Z</time></trkpt><trkpt lat="30.68514710285309" lon="-6.2822190824799105"><ele>892.0</ele><time>2026-05-05T12:12:47.001Z</time></trkpt><trkpt lat="30.6852582561837" lon="-6.282393381995081"><ele>893.0</ele><time>2026-05-05T12:12:48.001Z</time></trkpt><trkpt lat="30.685385131808815" lon="-6.282554441058808"><ele>894.0</ele><time>2026-05-05T12:12:49.001Z</time></trkpt><trkpt lat="30.685506715310556" lon="-6.282707065934829"><ele>894.25</ele><time>2026-05-05T12:12:50.001Z</time></trkpt><trkpt lat="30.685623206797715" lon="-6.28285868558387"><ele>894.5</ele><time>2026-05-05T12:12:51.001Z</time></trkpt><trkpt lat="30.685720314445046" lon="-6.282983162236102"><ele>894.75</ele><time>2026-05-05T12:12:52.001Z</time></trkpt><trkpt lat="30.685810393693444" lon="-6.283087789253663"><ele>895.0</ele><time>2026-05-05T12:12:53.001Z</time></trkpt><trkpt lat="30.68587608662124" lon="-6.283173151518676"><ele>895.4</ele><time>2026-05-05T12:12:54.001Z</time></trkpt><trkpt lat="30.68592608734968" lon="-6.283232379519753"><ele>895.8</ele><time>2026-05-05T12:12:55.001Z</time></trkpt><trkpt lat="30.68598309813319" lon="-6.283293389105223"><ele>896.2</ele><time>2026-05-05T12:12:57.001Z</time></trkpt><trkpt lat="30.686051207264153" lon="-6.283419573925537"><ele>896.6</ele><time>2026-05-05T12:13:27.001Z</time></trkpt><trkpt lat="30.686107946246892" lon="-6.283488071149373"><ele>897.0</ele><time>2026-05-05T12:13:28.001Z</time></trkpt><trkpt lat="30.686184283079104" lon="-6.283574371401052"><ele>898.75</ele><time>2026-05-05T12:13:29.001Z</time></trkpt><trkpt lat="30.686263415819518" lon="-6.283664653362368"><ele>900.5</ele><time>2026-05-05T12:13:30.001Z</time></trkpt><trkpt lat="30.686350425552906" lon="-6.283782156993402"><ele>902.25</ele><time>2026-05-05T12:13:31.001Z</time></trkpt><trkpt lat="30.68644157634569" lon="-6.283904275975221"><ele>904.0</ele><time>2026-05-05T12:13:32.001Z</time></trkpt><trkpt lat="30.686534177768564" lon="-6.284032865320776"><ele>905.0</ele><time>2026-05-05T12:13:33.001Z</time></trkpt><trkpt lat="30.68663331569138" lon="-6.284174298648978"><ele>906.0</ele><time>2026-05-05T12:13:34.001Z</time></trkpt><trkpt lat="30.686730098361352" lon="-6.284319721319159"><ele>907.0</ele><time>2026-05-05T12:13:35.001Z</time></trkpt><trkpt lat="30.68681811160452" lon="-6.284479702257339"><ele>907.0</ele><time>2026-05-05T12:13:36.001Z</time></trkpt><trkpt lat="30.686897253757298" lon="-6.284645072811048"><ele>907.0</ele><time>2026-05-05T12:13:37.001Z</time></trkpt><trkpt lat="30.686967254210302" lon="-6.2848157939944445"><ele>907.0</ele><time>2026-05-05T12:13:38.001Z</time></trkpt><trkpt lat="30.68703263470046" lon="-6.284991391634424"><ele>909.0</ele><time>2026-05-05T12:13:39.001Z</time></trkpt><trkpt lat="30.687085675278283" lon="-6.285174500794678"><ele>911.0</ele><time>2026-05-05T12:13:40.001Z</time></trkpt><trkpt lat="30.687131399935073" lon="-6.285367512947345"><ele>913.0</ele><time>2026-05-05T12:13:41.001Z</time></trkpt><trkpt lat="30.687174577491998" lon="-6.285567473332565"><ele>911.0</ele><time>2026-05-05T12:13:42.001Z</time></trkpt><trkpt lat="30.687220185767107" lon="-6.2857729546039565"><ele>909.0</ele><time>2026-05-05T12:13:43.001Z</time></trkpt><trkpt lat="30.687263736225045" lon="-6.2859763247523714"><ele>907.0</ele><time>2026-05-05T12:13:44.001Z</time></trkpt><trkpt lat="30.687310096193464" lon="-6.286169885978437"><ele>907.0</ele><time>2026-05-05T12:13:45.001Z</time></trkpt><trkpt lat="30.687360472917742" lon="-6.286367786604849"><ele>907.0</ele><time>2026-05-05T12:13:46.001Z</time></trkpt><trkpt lat="30.687412471486997" lon="-6.286561720158912"><ele>907.0</ele><time>2026-05-05T12:13:47.001Z</time></trkpt><trkpt lat="30.687474341417886" lon="-6.286746693945327"><ele>906.3333333333333</ele><time>2026-05-05T12:13:48.001Z</time></trkpt><trkpt lat="30.687558605632407" lon="-6.286920573180018"><ele>905.6666666666667</ele><time>2026-05-05T12:13:49.001Z</time></trkpt><trkpt lat="30.687657933233893" lon="-6.287085581257781"><ele>905.0</ele><time>2026-05-05T12:13:50.001Z</time></trkpt><trkpt lat="30.687768407620336" lon="-6.287240359953794"><ele>902.3333333333334</ele><time>2026-05-05T12:13:51.001Z</time></trkpt><trkpt lat="30.687891373432716" lon="-6.287381863296332"><ele>899.6666666666667</ele><time>2026-05-05T12:13:52.001Z</time></trkpt><trkpt lat="30.688025217533358" lon="-6.287503646007334"><ele>897.0</ele><time>2026-05-05T12:13:53.001Z</time></trkpt><trkpt lat="30.688176640625453" lon="-6.287612589452491"><ele>897.0</ele><time>2026-05-05T12:13:54.001Z</time></trkpt><trkpt lat="30.688350888689772" lon="-6.28768205871273"><ele>897.0</ele><time>2026-05-05T12:13:55.001Z</time></trkpt><trkpt lat="30.68850783100027" lon="-6.287773331086237"><ele>897.0</ele><time>2026-05-05T12:13:56.001Z</time></trkpt><trkpt lat="30.68866546078412" lon="-6.287837765088769"><ele>897.6666666666667</ele><time>2026-05-05T12:13:57.001Z</time></trkpt><trkpt lat="30.688822980562282" lon="-6.287911136025817"><ele>898.3333333333334</ele><time>2026-05-05T12:13:58.001Z</time></trkpt><trkpt lat="30.688975229226187" lon="-6.288000822253875"><ele>899.0</ele><time>2026-05-05T12:13:59.001Z</time></trkpt><trkpt lat="30.689123316690672" lon="-6.288108977381747"><ele>899.0</ele><time>2026-05-05T12:14:00.001Z</time></trkpt><trkpt lat="30.689266257449518" lon="-6.288230736582331"><ele>899.0</ele><time>2026-05-05T12:14:01.001Z</time></trkpt><trkpt lat="30.689402734962037" lon="-6.288366203640007"><ele>899.0</ele><time>2026-05-05T12:14:02.001Z</time></trkpt><trkpt lat="30.689532363642492" lon="-6.2885086763538105"><ele>900.6666666666667</ele><time>2026-05-05T12:14:03.001Z</time></trkpt><trkpt lat="30.689652780598095" lon="-6.2886541378624585"><ele>902.3333333333333</ele><time>2026-05-05T12:14:04.001Z</time></trkpt><trkpt lat="30.68976417383244" lon="-6.288802901148436"><ele>904.0</ele><time>2026-05-05T12:14:05.001Z</time></trkpt><trkpt lat="30.689868812208598" lon="-6.288957624600593"><ele>904.0</ele><time>2026-05-05T12:14:06.001Z</time></trkpt><trkpt lat="30.68995736678768" lon="-6.289122562412122"><ele>904.0</ele><time>2026-05-05T12:14:07.001Z</time></trkpt><trkpt lat="30.690027830376003" lon="-6.289297669415126"><ele>904.0</ele><time>2026-05-05T12:14:08.001Z</time></trkpt><trkpt lat="30.690076097645747" lon="-6.289483223855159"><ele>904.0</ele><time>2026-05-05T12:14:09.001Z</time></trkpt><trkpt lat="30.69010910753356" lon="-6.289679700129501"><ele>904.0</ele><time>2026-05-05T12:14:10.001Z</time></trkpt><trkpt lat="30.690143593199558" lon="-6.289882621201415"><ele>904.0</ele><time>2026-05-05T12:14:11.001Z</time></trkpt><trkpt lat="30.690170230585245" lon="-6.29008713282294"><ele>901.0</ele><time>2026-05-05T12:14:12.001Z</time></trkpt><trkpt lat="30.6901933241703" lon="-6.290297080300509"><ele>898.0</ele><time>2026-05-05T12:14:13.001Z</time></trkpt><trkpt lat="30.69021499361199" lon="-6.290506828842026"><ele>895.0</ele><time>2026-05-05T12:14:14.001Z</time></trkpt><trkpt lat="30.69023850090651" lon="-6.290716597039656"><ele>897.0</ele><time>2026-05-05T12:14:15.001Z</time></trkpt><trkpt lat="30.690277559645747" lon="-6.290922794730129"><ele>899.0</ele><time>2026-05-05T12:14:16.001Z</time></trkpt><trkpt lat="30.69030538418175" lon="-6.2911301869819765"><ele>901.0</ele><time>2026-05-05T12:14:17.001Z</time></trkpt><trkpt lat="30.690330503216593" lon="-6.291327264268025"><ele>900.6666666666666</ele><time>2026-05-05T12:14:18.001Z</time></trkpt><trkpt lat="30.690344848307937" lon="-6.291524477585501"><ele>900.3333333333333</ele><time>2026-05-05T12:14:19.001Z</time></trkpt><trkpt lat="30.690379752889275" lon="-6.291723609449196"><ele>900.0</ele><time>2026-05-05T12:14:20.001Z</time></trkpt><trkpt lat="30.69040372818836" lon="-6.291928652355097"><ele>900.0</ele><time>2026-05-05T12:14:21.001Z</time></trkpt><trkpt lat="30.69042689491155" lon="-6.292139719810147"><ele>900.0</ele><time>2026-05-05T12:14:22.001Z</time></trkpt><trkpt lat="30.69045213512017" lon="-6.2923561708487314"><ele>900.0</ele><time>2026-05-05T12:14:23.001Z</time></trkpt><trkpt lat="30.69047795597772" lon="-6.2925716903162465"><ele>900.0</ele><time>2026-05-05T12:14:24.001Z</time></trkpt><trkpt lat="30.690505488973347" lon="-6.292788639897544"><ele>900.0</ele><time>2026-05-05T12:14:25.001Z</time></trkpt><trkpt lat="30.690535911186508" lon="-6.293006210462078"><ele>900.0</ele><time>2026-05-05T12:14:26.001Z</time></trkpt><trkpt lat="30.690569885558517" lon="-6.293222828851838"><ele>899.6666666666667</ele><time>2026-05-05T12:14:27.001Z</time></trkpt><trkpt lat="30.69061074606471" lon="-6.293441923905788"><ele>899.3333333333334</ele><time>2026-05-05T12:14:28.001Z</time></trkpt><trkpt lat="30.69066415376053" lon="-6.293656089150751"><ele>899.0</ele><time>2026-05-05T12:14:29.001Z</time></trkpt><trkpt lat="30.69073043036403" lon="-6.293868762691297"><ele>898.0</ele><time>2026-05-05T12:14:30.001Z</time></trkpt><trkpt lat="30.690802317200372" lon="-6.294078993522899"><ele>897.0</ele><time>2026-05-05T12:14:31Z</time></trkpt><trkpt lat="30.690879081015982" lon="-6.294289386977285"><ele>896.0</ele><time>2026-05-05T12:14:32Z</time></trkpt><trkpt lat="30.690958824515135" lon="-6.294498753340674"><ele>896.0</ele><time>2026-05-05T12:14:33Z</time></trkpt><trkpt lat="30.69103799430543" lon="-6.294704603966216"><ele>896.0</ele><time>2026-05-05T12:14:34Z</time></trkpt><trkpt lat="30.69111612584055" lon="-6.29491426327488"><ele>896.0</ele><time>2026-05-05T12:14:35Z</time></trkpt><trkpt lat="30.691193085828544" lon="-6.295119845709797"><ele>898.0</ele><time>2026-05-05T12:14:36Z</time></trkpt><trkpt lat="30.69126004703251" lon="-6.295327897298256"><ele>900.0</ele><time>2026-05-05T12:14:37Z</time></trkpt><trkpt lat="30.69131499500139" lon="-6.295536501043995"><ele>902.0</ele><time>2026-05-05T12:14:38Z</time></trkpt><trkpt lat="30.691355519288262" lon="-6.295737108561891"><ele>902.0</ele><time>2026-05-05T12:14:39Z</time></trkpt><trkpt lat="30.691392173384035" lon="-6.295939038508915"><ele>902.0</ele><time>2026-05-05T12:14:40Z</time></trkpt><trkpt lat="30.691437030987743" lon="-6.296139479948779"><ele>902.0</ele><time>2026-05-05T12:14:41Z</time></trkpt><trkpt lat="30.691497452777437" lon="-6.2963352098749965"><ele>899.3333333333334</ele><time>2026-05-05T12:14:42Z</time></trkpt><trkpt lat="30.691572838288977" lon="-6.296526094836339"><ele>896.6666666666667</ele><time>2026-05-05T12:14:43Z</time></trkpt><trkpt lat="30.69165490358846" lon="-6.296715400593473"><ele>894.0</ele><time>2026-05-05T12:14:44Z</time></trkpt><trkpt lat="30.691736098118476" lon="-6.296906004210114"><ele>894.0</ele><time>2026-05-05T12:14:45Z</time></trkpt><trkpt lat="30.691819137626624" lon="-6.297098450954784"><ele>894.0</ele><time>2026-05-05T12:14:46Z</time></trkpt><trkpt lat="30.69189992371998" lon="-6.297295503507009"><ele>894.0</ele><time>2026-05-05T12:14:47Z</time></trkpt><trkpt lat="30.69198092480088" lon="-6.297494837677191"><ele>897.6666666666667</ele><time>2026-05-05T12:14:48Z</time></trkpt><trkpt lat="30.6920610436764" lon="-6.297694771504629"><ele>901.3333333333334</ele><time>2026-05-05T12:14:49Z</time></trkpt><trkpt lat="30.692144043418743" lon="-6.297897829197036"><ele>905.0</ele><time>2026-05-05T12:14:50Z</time></trkpt><trkpt lat="30.692246807213927" lon="-6.298082439633964"><ele>903.0</ele><time>2026-05-05T12:14:51Z</time></trkpt><trkpt lat="30.69233604581047" lon="-6.29828679027031"><ele>901.0</ele><time>2026-05-05T12:14:52Z</time></trkpt><trkpt lat="30.692419807093177" lon="-6.298489851838882"><ele>899.0</ele><time>2026-05-05T12:14:53Z</time></trkpt><trkpt lat="30.692499616668325" lon="-6.298686288222048"><ele>899.0</ele><time>2026-05-05T12:14:54Z</time></trkpt><trkpt lat="30.692586125828438" lon="-6.298880387285975"><ele>899.0</ele><time>2026-05-05T12:14:55Z</time></trkpt><trkpt lat="30.692675705594926" lon="-6.299077890632082"><ele>899.0</ele><time>2026-05-05T12:14:56Z</time></trkpt><trkpt lat="30.6927645625672" lon="-6.299273349693817"><ele>898.6666666666667</ele><time>2026-05-05T12:14:57Z</time></trkpt><trkpt lat="30.692854998278825" lon="-6.299467788742837"><ele>898.3333333333333</ele><time>2026-05-05T12:14:58Z</time></trkpt><trkpt lat="30.69294922839773" lon="-6.299661758860345"><ele>898.0</ele><time>2026-05-05T12:14:59Z</time></trkpt><trkpt lat="30.693045180504413" lon="-6.299856259800555"><ele>898.0</ele><time>2026-05-05T12:15:00Z</time></trkpt><trkpt lat="30.693126917421196" lon="-6.300052999569854"><ele>898.0</ele><time>2026-05-05T12:15:01Z</time></trkpt><trkpt lat="30.69322746906265" lon="-6.300249701439702"><ele>898.0</ele><time>2026-05-05T12:15:02Z</time></trkpt><trkpt lat="30.693319258382754" lon="-6.300449018540262"><ele>896.0</ele><time>2026-05-05T12:15:03Z</time></trkpt><trkpt lat="30.69341096801748" lon="-6.300648139789455"><ele>894.0</ele><time>2026-05-05T12:15:04Z</time></trkpt><trkpt lat="30.693507831909283" lon="-6.300847328856906"><ele>892.0</ele><time>2026-05-05T12:15:05Z</time></trkpt><trkpt lat="30.693604682372722" lon="-6.3010459423408784"><ele>895.3333333333333</ele><time>2026-05-05T12:15:06Z</time></trkpt><trkpt lat="30.693685744137817" lon="-6.3012574937313985"><ele>898.6666666666667</ele><time>2026-05-05T12:15:07Z</time></trkpt><trkpt lat="30.69375996510295" lon="-6.301475844001081"><ele>902.0</ele><time>2026-05-05T12:15:08Z</time></trkpt><trkpt lat="30.693854049783848" lon="-6.301686070560805"><ele>902.0</ele><time>2026-05-05T12:15:09Z</time></trkpt><trkpt lat="30.69395686427081" lon="-6.301876373486814"><ele>902.0</ele><time>2026-05-05T12:15:10Z</time></trkpt><trkpt lat="30.694071633400753" lon="-6.302069588537429"><ele>902.0</ele><time>2026-05-05T12:15:11Z</time></trkpt><trkpt lat="30.69418110060849" lon="-6.302246073094624"><ele>900.6666666666667</ele><time>2026-05-05T12:15:12Z</time></trkpt><trkpt lat="30.69429720296197" lon="-6.302422787227604"><ele>899.3333333333333</ele><time>2026-05-05T12:15:13Z</time></trkpt><trkpt lat="30.69440935687222" lon="-6.30260537600214"><ele>898.0</ele><time>2026-05-05T12:15:14Z</time></trkpt><trkpt lat="30.694516676335628" lon="-6.302794228139988"><ele>900.3333333333333</ele><time>2026-05-05T12:15:15Z</time></trkpt><trkpt lat="30.69459065837686" lon="-6.303001719530603"><ele>902.6666666666667</ele><time>2026-05-05T12:15:16Z</time></trkpt><trkpt lat="30.6946671797306" lon="-6.303213067217472"><ele>905.0</ele><time>2026-05-05T12:15:17Z</time></trkpt><trkpt lat="30.69472760311746" lon="-6.303434974840899"><ele>905.0</ele><time>2026-05-05T12:15:18Z</time></trkpt><trkpt lat="30.694817878080077" lon="-6.303648755734381"><ele>905.0</ele><time>2026-05-05T12:15:19Z</time></trkpt><trkpt lat="30.694894275775162" lon="-6.3038697847214715"><ele>905.0</ele><time>2026-05-05T12:15:20Z</time></trkpt><trkpt lat="30.694972309505246" lon="-6.304093127477299"><ele>903.6666666666667</ele><time>2026-05-05T12:15:21Z</time></trkpt><trkpt lat="30.695038481725398" lon="-6.304325871173853"><ele>902.3333333333333</ele><time>2026-05-05T12:15:22Z</time></trkpt><trkpt lat="30.695116700471896" lon="-6.304555846897518"><ele>901.0</ele><time>2026-05-05T12:15:23Z</time></trkpt><trkpt lat="30.695211551310337" lon="-6.304778504909069"><ele>905.6666666666666</ele><time>2026-05-05T12:15:24Z</time></trkpt><trkpt lat="30.695274501451888" lon="-6.305014416780332"><ele>910.3333333333333</ele><time>2026-05-05T12:15:25Z</time></trkpt><trkpt lat="30.695360600954768" lon="-6.30523867288131"><ele>915.0</ele><time>2026-05-05T12:15:26Z</time></trkpt><trkpt lat="30.695411417753448" lon="-6.305469012925393"><ele>914.3333333333333</ele><time>2026-05-05T12:15:27Z</time></trkpt><trkpt lat="30.695482205106234" lon="-6.305697621388078"><ele>913.6666666666666</ele><time>2026-05-05T12:15:28Z</time></trkpt><trkpt lat="30.69554102454277" lon="-6.305927628997204"><ele>913.0</ele><time>2026-05-05T12:15:29Z</time></trkpt><trkpt lat="30.69559577305883" lon="-6.306154214395382"><ele>913.0</ele><time>2026-05-05T12:15:30Z</time></trkpt><trkpt lat="30.695647127284776" lon="-6.30638182459644"><ele>913.0</ele><time>2026-05-05T12:15:31Z</time></trkpt><trkpt lat="30.69569297240666" lon="-6.30660882240472"><ele>913.0</ele><time>2026-05-05T12:15:32Z</time></trkpt><trkpt lat="30.695722740811036" lon="-6.3068553539768155"><ele>912.0</ele><time>2026-05-05T12:15:33Z</time></trkpt><trkpt lat="30.695739306645738" lon="-6.307084034273342"><ele>911.0</ele><time>2026-05-05T12:15:34Z</time></trkpt><trkpt lat="30.695750271465062" lon="-6.307318279191002"><ele>910.0</ele><time>2026-05-05T12:15:35Z</time></trkpt><trkpt lat="30.695758841175863" lon="-6.307550727993819"><ele>909.6666666666666</ele><time>2026-05-05T12:15:36Z</time></trkpt><trkpt lat="30.69577047923207" lon="-6.3077868920436435"><ele>909.3333333333333</ele><time>2026-05-05T12:15:37Z</time></trkpt><trkpt lat="30.69577765340134" lon="-6.308017582163933"><ele>909.0</ele><time>2026-05-05T12:15:38Z</time></trkpt><trkpt lat="30.695775286396156" lon="-6.3082565139102575"><ele>908.6666666666667</ele><time>2026-05-05T12:15:39Z</time></trkpt><trkpt lat="30.69576684289667" lon="-6.308492309721678"><ele>908.3333333333334</ele><time>2026-05-05T12:15:40Z</time></trkpt><trkpt lat="30.695724790182023" lon="-6.308721039228674"><ele>908.0</ele><time>2026-05-05T12:15:41Z</time></trkpt><trkpt lat="30.695659866545707" lon="-6.308944208205912"><ele>908.0</ele><time>2026-05-05T12:15:42Z</time></trkpt><trkpt lat="30.695593359190596" lon="-6.309166945206556"><ele>908.0</ele><time>2026-05-05T12:15:43Z</time></trkpt><trkpt lat="30.695529093511784" lon="-6.30938835347234"><ele>908.0</ele><time>2026-05-05T12:15:44Z</time></trkpt><trkpt lat="30.69547053953257" lon="-6.309609463404087"><ele>907.6666666666667</ele><time>2026-05-05T12:15:45Z</time></trkpt><trkpt lat="30.695413685506747" lon="-6.3098347575941665"><ele>907.3333333333333</ele><time>2026-05-05T12:15:46Z</time></trkpt><trkpt lat="30.695366155755615" lon="-6.310062903940081"><ele>907.0</ele><time>2026-05-05T12:15:47Z</time></trkpt><trkpt lat="30.695330443378808" lon="-6.310295185744704"><ele>907.0</ele><time>2026-05-05T12:15:48Z</time></trkpt><trkpt lat="30.695298410223362" lon="-6.310531298729526"><ele>907.0</ele><time>2026-05-05T12:15:49Z</time></trkpt><trkpt lat="30.695264210944277" lon="-6.310766121420525"><ele>907.0</ele><time>2026-05-05T12:15:50Z</time></trkpt><trkpt lat="30.695232779785865" lon="-6.311003300555801"><ele>904.3333333333333</ele><time>2026-05-05T12:15:51Z</time></trkpt><trkpt lat="30.695213449834572" lon="-6.311244380948124"><ele>901.6666666666667</ele><time>2026-05-05T12:15:52Z</time></trkpt><trkpt lat="30.695206733554862" lon="-6.311486047790916"><ele>899.0</ele><time>2026-05-05T12:15:53Z</time></trkpt><trkpt lat="30.695209590331004" lon="-6.311722282551453"><ele>899.0</ele><time>2026-05-05T12:15:54Z</time></trkpt><trkpt lat="30.695216802981964" lon="-6.311955843903752"><ele>899.0</ele><time>2026-05-05T12:15:55Z</time></trkpt><trkpt lat="30.695215967692643" lon="-6.3121889887217035"><ele>899.0</ele><time>2026-05-05T12:15:56Z</time></trkpt><trkpt lat="30.695197128188703" lon="-6.312422099629126"><ele>899.0</ele><time>2026-05-05T12:15:57Z</time></trkpt><trkpt lat="30.695156164755225" lon="-6.31264950578148"><ele>899.0</ele><time>2026-05-05T12:15:58Z</time></trkpt><trkpt lat="30.695091686046943" lon="-6.312867342211987"><ele>899.0</ele><time>2026-05-05T12:15:59Z</time></trkpt><trkpt lat="30.69501555060273" lon="-6.313075522908946"><ele>899.0</ele><time>2026-05-05T12:16:00Z</time></trkpt><trkpt lat="30.69493513438153" lon="-6.313269001926801"><ele>899.0</ele><time>2026-05-05T12:16:01Z</time></trkpt><trkpt lat="30.694849808592092" lon="-6.313443690314925"><ele>899.0</ele><time>2026-05-05T12:16:02Z</time></trkpt><trkpt lat="30.694767648514382" lon="-6.3136184664974015"><ele>899.0</ele><time>2026-05-05T12:16:03Z</time></trkpt><trkpt lat="30.69468213874857" lon="-6.313791077176585"><ele>899.0</ele><time>2026-05-05T12:16:04Z</time></trkpt><trkpt lat="30.69459413760244" lon="-6.31396019921696"><ele>899.0</ele><time>2026-05-05T12:16:05Z</time></trkpt><trkpt lat="30.694500402332586" lon="-6.314124902325964"><ele>898.3333333333334</ele><time>2026-05-05T12:16:06Z</time></trkpt><trkpt lat="30.694406814234007" lon="-6.3142864899198905"><ele>897.6666666666667</ele><time>2026-05-05T12:16:07Z</time></trkpt><trkpt lat="30.694314678104547" lon="-6.314454453287318"><ele>897.0</ele><time>2026-05-05T12:16:08Z</time></trkpt><trkpt lat="30.694224457100823" lon="-6.314628740533975"><ele>898.0</ele><time>2026-05-05T12:16:09Z</time></trkpt><trkpt lat="30.694124577436956" lon="-6.3148009605880855"><ele>899.0</ele><time>2026-05-05T12:16:10Z</time></trkpt><trkpt lat="30.694014750948895" lon="-6.314967097318513"><ele>900.0</ele><time>2026-05-05T12:16:11Z</time></trkpt><trkpt lat="30.69389992549246" lon="-6.315131629447363"><ele>900.0</ele><time>2026-05-05T12:16:12Z</time></trkpt><trkpt lat="30.69378405243368" lon="-6.315301894555379"><ele>900.0</ele><time>2026-05-05T12:16:13Z</time></trkpt><trkpt lat="30.693670134083973" lon="-6.31547532016358"><ele>900.0</ele><time>2026-05-05T12:16:14Z</time></trkpt><trkpt lat="30.693554959047347" lon="-6.315646663057021"><ele>900.0</ele><time>2026-05-05T12:16:15Z</time></trkpt><trkpt lat="30.693442778915482" lon="-6.315818312328166"><ele>900.0</ele><time>2026-05-05T12:16:16Z</time></trkpt><trkpt lat="30.693323173879566" lon="-6.315983853334921"><ele>900.0</ele><time>2026-05-05T12:16:17Z</time></trkpt><trkpt lat="30.69320186252473" lon="-6.31615264015666"><ele>900.0</ele><time>2026-05-05T12:16:18Z</time></trkpt><trkpt lat="30.693083424031585" lon="-6.316314827407799"><ele>900.0</ele><time>2026-05-05T12:16:19Z</time></trkpt><trkpt lat="30.692968578619425" lon="-6.316479675680115"><ele>900.0</ele><time>2026-05-05T12:16:20Z</time></trkpt><trkpt lat="30.692860887071774" lon="-6.316649749115807"><ele>900.3333333333333</ele><time>2026-05-05T12:16:21Z</time></trkpt><trkpt lat="30.692758185523672" lon="-6.316822793780162"><ele>900.6666666666666</ele><time>2026-05-05T12:16:22Z</time></trkpt><trkpt lat="30.692661864973555" lon="-6.316997101624087"><ele>901.0</ele><time>2026-05-05T12:16:23Z</time></trkpt><trkpt lat="30.69256984723225" lon="-6.317171782503158"><ele>900.6666666666666</ele><time>2026-05-05T12:16:24Z</time></trkpt><trkpt lat="30.69248009000811" lon="-6.317351020686626"><ele>900.3333333333333</ele><time>2026-05-05T12:16:25Z</time></trkpt><trkpt lat="30.692388623767282" lon="-6.3175257162259015"><ele>900.0</ele><time>2026-05-05T12:16:26Z</time></trkpt><trkpt lat="30.692291965623514" lon="-6.317693852979919"><ele>900.0</ele><time>2026-05-05T12:16:27Z</time></trkpt><trkpt lat="30.69217297784431" lon="-6.3178490095073565"><ele>900.0</ele><time>2026-05-05T12:16:28Z</time></trkpt><trkpt lat="30.692043926517677" lon="-6.3179886593692185"><ele>900.0</ele><time>2026-05-05T12:16:29Z</time></trkpt><trkpt lat="30.691916618280587" lon="-6.318126316132164"><ele>899.3333333333333</ele><time>2026-05-05T12:16:30Z</time></trkpt><trkpt lat="30.691797642954917" lon="-6.31827281947673"><ele>898.6666666666666</ele><time>2026-05-05T12:16:31Z</time></trkpt><trkpt lat="30.691690691467617" lon="-6.318428579597232"><ele>898.0</ele><time>2026-05-05T12:16:32Z</time></trkpt><trkpt lat="30.691590508955077" lon="-6.318591917156224"><ele>898.0</ele><time>2026-05-05T12:16:33Z</time></trkpt><trkpt lat="30.69148988693653" lon="-6.318755377867209"><ele>898.0</ele><time>2026-05-05T12:16:34Z</time></trkpt><trkpt lat="30.691385698363774" lon="-6.318914627908181"><ele>898.0</ele><time>2026-05-05T12:16:35Z</time></trkpt><trkpt lat="30.691281286612124" lon="-6.319073333913634"><ele>898.0</ele><time>2026-05-05T12:16:36Z</time></trkpt><trkpt lat="30.69117953434519" lon="-6.319233975716538"><ele>898.0</ele><time>2026-05-05T12:16:37Z</time></trkpt><trkpt lat="30.6910829737158" lon="-6.319401096470333"><ele>898.0</ele><time>2026-05-05T12:16:38Z</time></trkpt><trkpt lat="30.691002269660565" lon="-6.31957277715205"><ele>899.0</ele><time>2026-05-05T12:16:39Z</time></trkpt><trkpt lat="30.690927930359" lon="-6.319744784181118"><ele>900.0</ele><time>2026-05-05T12:16:40Z</time></trkpt><trkpt lat="30.69085142574244" lon="-6.3199109550136665"><ele>901.0</ele><time>2026-05-05T12:16:41Z</time></trkpt><trkpt lat="30.690783219016776" lon="-6.3200753409600425"><ele>901.0</ele><time>2026-05-05T12:16:42Z</time></trkpt><trkpt lat="30.690717966968045" lon="-6.32024163031286"><ele>901.0</ele><time>2026-05-05T12:16:43Z</time></trkpt><trkpt lat="30.690650522774238" lon="-6.320402214647604"><ele>901.0</ele><time>2026-05-05T12:16:44Z</time></trkpt><trkpt lat="30.690573952310995" lon="-6.320561687404322"><ele>901.6666666666666</ele><time>2026-05-05T12:16:45Z</time></trkpt><trkpt lat="30.690496082830588" lon="-6.32071413402362"><ele>902.3333333333333</ele><time>2026-05-05T12:16:46Z</time></trkpt><trkpt lat="30.69041487722114" lon="-6.320863480664514"><ele>903.0</ele><time>2026-05-05T12:16:47Z</time></trkpt><trkpt lat="30.690329722708213" lon="-6.321010547774819"><ele>902.0</ele><time>2026-05-05T12:16:48Z</time></trkpt><trkpt lat="30.690240543703496" lon="-6.321153870882559"><ele>901.0</ele><time>2026-05-05T12:16:49Z</time></trkpt><trkpt lat="30.690143366153226" lon="-6.321290668007821"><ele>900.0</ele><time>2026-05-05T12:16:50Z</time></trkpt><trkpt lat="30.690041269708477" lon="-6.321420175233202"><ele>900.0</ele><time>2026-05-05T12:16:51Z</time></trkpt><trkpt lat="30.689938328047642" lon="-6.321548947455476"><ele>900.0</ele><time>2026-05-05T12:16:52Z</time></trkpt><trkpt lat="30.689839523905942" lon="-6.321677553364449"><ele>900.0</ele><time>2026-05-05T12:16:53Z</time></trkpt><trkpt lat="30.68974398915455" lon="-6.321800111533223"><ele>900.0</ele><time>2026-05-05T12:16:54Z</time></trkpt><trkpt lat="30.689654195792166" lon="-6.32191613954804"><ele>900.0</ele><time>2026-05-05T12:16:55Z</time></trkpt><trkpt lat="30.68956693801208" lon="-6.322027951230608"><ele>900.0</ele><time>2026-05-05T12:16:56Z</time></trkpt><trkpt lat="30.689479465580295" lon="-6.322140247545237"><ele>900.0</ele><time>2026-05-05T12:16:57Z</time></trkpt><trkpt lat="30.68939476382967" lon="-6.322245968298884"><ele>900.0</ele><time>2026-05-05T12:16:58Z</time></trkpt><trkpt lat="30.68931779056954" lon="-6.322352168180358"><ele>900.0</ele><time>2026-05-05T12:16:59Z</time></trkpt><trkpt lat="30.689250258921863" lon="-6.322458002309263"><ele>900.0</ele><time>2026-05-05T12:17:00Z</time></trkpt><trkpt lat="30.689182163827848" lon="-6.322556352119924"><ele>900.0</ele><time>2026-05-05T12:17:01Z</time></trkpt><trkpt lat="30.68911431340417" lon="-6.322648586918278"><ele>900.0</ele><time>2026-05-05T12:17:02Z</time></trkpt><trkpt lat="30.689058183479613" lon="-6.322739977336099"><ele>900.0</ele><time>2026-05-05T12:17:03Z</time></trkpt><trkpt lat="30.689008950525608" lon="-6.322832431944626"><ele>900.0</ele><time>2026-05-05T12:17:04Z</time></trkpt><trkpt lat="30.688960856785894" lon="-6.322921477821099"><ele>900.0</ele><time>2026-05-05T12:17:05Z</time></trkpt><trkpt lat="30.68891114891923" lon="-6.323006728906565"><ele>900.0</ele><time>2026-05-05T12:17:06Z</time></trkpt><trkpt lat="30.688857271789914" lon="-6.323111393130016"><ele>900.0</ele><time>2026-05-05T12:17:07Z</time></trkpt><trkpt lat="30.688805196674192" lon="-6.323224609568732"><ele>900.0</ele><time>2026-05-05T12:17:08Z</time></trkpt><trkpt lat="30.68875120043403" lon="-6.32333937194789"><ele>900.0</ele><time>2026-05-05T12:17:09Z</time></trkpt><trkpt lat="30.688691933401874" lon="-6.3234551449614536"><ele>900.0</ele><time>2026-05-05T12:17:10Z</time></trkpt><trkpt lat="30.688614498641286" lon="-6.323567495487496"><ele>900.0</ele><time>2026-05-05T12:17:11Z</time></trkpt><trkpt lat="30.68850962074524" lon="-6.323678500330351"><ele>900.0</ele><time>2026-05-05T12:17:12Z</time></trkpt><trkpt lat="30.688388743451316" lon="-6.323789110668331"><ele>900.0</ele><time>2026-05-05T12:17:13Z</time></trkpt><trkpt lat="30.688273932067275" lon="-6.323888895876781"><ele>900.0</ele><time>2026-05-05T12:17:14Z</time></trkpt><trkpt lat="30.688160219187118" lon="-6.323994869076014"><ele>900.0</ele><time>2026-05-05T12:17:15Z</time></trkpt><trkpt lat="30.688053552736573" lon="-6.3241171386357955"><ele>900.0</ele><time>2026-05-05T12:17:16Z</time></trkpt><trkpt lat="30.687951651594265" lon="-6.324256617697256"><ele>900.0</ele><time>2026-05-05T12:17:17Z</time></trkpt><trkpt lat="30.687847805442424" lon="-6.324396236537898"><ele>900.0</ele><time>2026-05-05T12:17:18Z</time></trkpt><trkpt lat="30.687738398195656" lon="-6.324532986117513"><ele>900.0</ele><time>2026-05-05T12:17:19Z</time></trkpt><trkpt lat="30.68762196159837" lon="-6.324667567913478"><ele>900.6666666666667</ele><time>2026-05-05T12:17:20Z</time></trkpt><trkpt lat="30.6874954501638" lon="-6.324792917237005"><ele>901.3333333333334</ele><time>2026-05-05T12:17:21Z</time></trkpt><trkpt lat="30.68736442228883" lon="-6.324905406476991"><ele>902.0</ele><time>2026-05-05T12:17:22Z</time></trkpt><trkpt lat="30.6872244128809" lon="-6.325009047119777"><ele>902.0</ele><time>2026-05-05T12:17:23Z</time></trkpt><trkpt lat="30.687077067684335" lon="-6.325099408976735"><ele>902.0</ele><time>2026-05-05T12:17:24Z</time></trkpt><trkpt lat="30.68693690337391" lon="-6.325190244006889"><ele>902.0</ele><time>2026-05-05T12:17:25Z</time></trkpt><trkpt lat="30.686809830475234" lon="-6.325284939276558"><ele>902.0</ele><time>2026-05-05T12:17:26Z</time></trkpt><trkpt lat="30.68669373865321" lon="-6.325389848210282"><ele>902.0</ele><time>2026-05-05T12:17:27Z</time></trkpt><trkpt lat="30.686593990275007" lon="-6.325495151871734"><ele>902.0</ele><time>2026-05-05T12:17:28Z</time></trkpt><trkpt lat="30.686496364258552" lon="-6.32559732425002"><ele>902.0</ele><time>2026-05-05T12:17:29Z</time></trkpt><trkpt lat="30.686407408730084" lon="-6.325696330254968"><ele>902.0</ele><time>2026-05-05T12:17:30Z</time></trkpt><trkpt lat="30.686319357668715" lon="-6.325792747304015"><ele>902.0</ele><time>2026-05-05T12:17:31Z</time></trkpt><trkpt lat="30.68622213967737" lon="-6.325887979943096"><ele>902.0</ele><time>2026-05-05T12:17:32Z</time></trkpt><trkpt lat="30.68611158626886" lon="-6.32597935935963"><ele>902.0</ele><time>2026-05-05T12:17:33Z</time></trkpt><trkpt lat="30.685989579767313" lon="-6.326065118508273"><ele>901.5</ele><time>2026-05-05T12:17:34Z</time></trkpt><trkpt lat="30.685874160574713" lon="-6.326147790637827"><ele>901.0</ele><time>2026-05-05T12:17:35Z</time></trkpt><trkpt lat="30.685769271962577" lon="-6.326231758192855"><ele>900.5</ele><time>2026-05-05T12:17:36Z</time></trkpt><trkpt lat="30.68567491932297" lon="-6.326311792169949"><ele>900.0</ele><time>2026-05-05T12:17:37Z</time></trkpt><trkpt lat="30.685589624314442" lon="-6.326392539133258"><ele>900.25</ele><time>2026-05-05T12:17:38Z</time></trkpt><trkpt lat="30.68552827085042" lon="-6.326491378461476"><ele>900.5</ele><time>2026-05-05T12:17:39Z</time></trkpt><trkpt lat="30.685478803960702" lon="-6.32661120462105"><ele>900.75</ele><time>2026-05-05T12:17:40Z</time></trkpt><trkpt lat="30.685437566448492" lon="-6.326747485228277"><ele>901.0</ele><time>2026-05-05T12:17:41Z</time></trkpt><trkpt lat="30.68539363000112" lon="-6.326890795441915"><ele>901.0</ele><time>2026-05-05T12:17:42Z</time></trkpt><trkpt lat="30.685340652473958" lon="-6.327038069926042"><ele>901.0</ele><time>2026-05-05T12:17:43Z</time></trkpt><trkpt lat="30.6852717471775" lon="-6.327185702013236"><ele>901.0</ele><time>2026-05-05T12:17:44Z</time></trkpt><trkpt lat="30.685195025763964" lon="-6.327334771929864"><ele>901.0</ele><time>2026-05-05T12:17:45Z</time></trkpt><trkpt lat="30.685111593861745" lon="-6.327477037248377"><ele>900.75</ele><time>2026-05-05T12:17:46Z</time></trkpt><trkpt lat="30.685037273183006" lon="-6.32761513429659"><ele>900.5</ele><time>2026-05-05T12:17:47Z</time></trkpt><trkpt lat="30.684968816571175" lon="-6.327750373630251"><ele>900.25</ele><time>2026-05-05T12:17:48Z</time></trkpt><trkpt lat="30.684913967079844" lon="-6.327888991868798"><ele>900.0</ele><time>2026-05-05T12:17:49Z</time></trkpt><trkpt lat="30.68487500708938" lon="-6.328028518968113"><ele>900.0</ele><time>2026-05-05T12:17:50Z</time></trkpt><trkpt lat="30.684839838704" lon="-6.3281696921153"><ele>900.0</ele><time>2026-05-05T12:17:51Z</time></trkpt><trkpt lat="30.684806083929388" lon="-6.328317328769676"><ele>900.0</ele><time>2026-05-05T12:17:52Z</time></trkpt><trkpt lat="30.68477550636361" lon="-6.328464294843048"><ele>900.0</ele><time>2026-05-05T12:17:53Z</time></trkpt><trkpt lat="30.6847490398572" lon="-6.3286078270124735"><ele>900.0</ele><time>2026-05-05T12:17:54Z</time></trkpt><trkpt lat="30.68471559346239" lon="-6.328753470445033"><ele>900.0</ele><time>2026-05-05T12:17:55Z</time></trkpt><trkpt lat="30.684675516537663" lon="-6.328893720987435"><ele>900.0</ele><time>2026-05-05T12:17:56Z</time></trkpt><trkpt lat="30.684623916214104" lon="-6.329030931660161"><ele>900.0</ele><time>2026-05-05T12:17:57Z</time></trkpt><trkpt lat="30.68456385542568" lon="-6.329154156738276"><ele>900.0</ele><time>2026-05-05T12:17:58Z</time></trkpt><trkpt lat="30.68449598135044" lon="-6.329270171539299"><ele>900.0</ele><time>2026-05-05T12:17:59Z</time></trkpt><trkpt lat="30.684417331092064" lon="-6.329379111956513"><ele>900.0</ele><time>2026-05-05T12:18:00Z</time></trkpt><trkpt lat="30.68433105394048" lon="-6.329485102748693"><ele>900.0</ele><time>2026-05-05T12:18:01Z</time></trkpt><trkpt lat="30.684238481379275" lon="-6.32958447447609"><ele>900.0</ele><time>2026-05-05T12:18:02Z</time></trkpt><trkpt lat="30.68414784618196" lon="-6.329674219737383"><ele>900.0</ele><time>2026-05-05T12:18:03Z</time></trkpt><trkpt lat="30.684064294622097" lon="-6.329760963798471"><ele>900.0</ele><time>2026-05-05T12:18:04Z</time></trkpt><trkpt lat="30.683994017032244" lon="-6.329853536296598"><ele>900.0</ele><time>2026-05-05T12:18:05Z</time></trkpt><trkpt lat="30.68395057818251" lon="-6.329959740123079"><ele>900.0</ele><time>2026-05-05T12:18:06Z</time></trkpt><trkpt lat="30.683934582113547" lon="-6.330082408226239"><ele>901.0</ele><time>2026-05-05T12:18:07Z</time></trkpt><trkpt lat="30.683934844284067" lon="-6.330220720550622"><ele>902.0</ele><time>2026-05-05T12:18:08Z</time></trkpt><trkpt lat="30.683928926028333" lon="-6.330371988428605"><ele>903.0</ele><time>2026-05-05T12:18:09Z</time></trkpt><trkpt lat="30.683895078844124" lon="-6.330535076404698"><ele>904.0</ele><time>2026-05-05T12:18:10Z</time></trkpt><trkpt lat="30.683837286992333" lon="-6.33070086959295"><ele>904.3333333333333</ele><time>2026-05-05T12:18:11Z</time></trkpt><trkpt lat="30.6837647602536" lon="-6.330863608405641"><ele>904.6666666666667</ele><time>2026-05-05T12:18:12Z</time></trkpt><trkpt lat="30.68368890662821" lon="-6.331019018431923"><ele>905.0</ele><time>2026-05-05T12:18:13Z</time></trkpt><trkpt lat="30.683620525786058" lon="-6.331159037300393"><ele>905.0</ele><time>2026-05-05T12:18:14Z</time></trkpt><trkpt lat="30.683569623457892" lon="-6.331283323376439"><ele>905.0</ele><time>2026-05-05T12:18:15Z</time></trkpt><trkpt lat="30.683543026735794" lon="-6.331402336723646"><ele>905.0</ele><time>2026-05-05T12:18:16Z</time></trkpt><trkpt lat="30.683542204880766" lon="-6.331524942831481"><ele>905.0</ele><time>2026-05-05T12:18:17Z</time></trkpt><trkpt lat="30.683558355024967" lon="-6.331649040502473"><ele>905.0</ele><time>2026-05-05T12:18:18Z</time></trkpt><trkpt lat="30.683582748833054" lon="-6.331782675840122"><ele>906.25</ele><time>2026-05-05T12:18:19Z</time></trkpt><trkpt lat="30.683620407331293" lon="-6.331917402206301"><ele>907.5</ele><time>2026-05-05T12:18:20Z</time></trkpt><trkpt lat="30.68365939383454" lon="-6.332058174394066"><ele>908.75</ele><time>2026-05-05T12:18:21Z</time></trkpt><trkpt lat="30.68369456200318" lon="-6.3322003483347755"><ele>910.0</ele><time>2026-05-05T12:18:22Z</time></trkpt><trkpt lat="30.68374338306427" lon="-6.332338462006057"><ele>910.25</ele><time>2026-05-05T12:18:23Z</time></trkpt><trkpt lat="30.683800278859305" lon="-6.332468051027025"><ele>910.5</ele><time>2026-05-05T12:18:24Z</time></trkpt><trkpt lat="30.683852608765598" lon="-6.332597480643218"><ele>910.75</ele><time>2026-05-05T12:18:25Z</time></trkpt><trkpt lat="30.68389224329969" lon="-6.332721539528127"><ele>911.0</ele><time>2026-05-05T12:18:26Z</time></trkpt><trkpt lat="30.6839190955312" lon="-6.332843789567122"><ele>911.0</ele><time>2026-05-05T12:18:27Z</time></trkpt><trkpt lat="30.68393647302098" lon="-6.332957420250215"><ele>910.9999999999999</ele><time>2026-05-05T12:18:28Z</time></trkpt><trkpt lat="30.683948737532376" lon="-6.333066250933596"><ele>910.9999999999999</ele><time>2026-05-05T12:18:29Z</time></trkpt><trkpt lat="30.683966019607798" lon="-6.33318250615162"><ele>911.0</ele><time>2026-05-05T12:18:30Z</time></trkpt><trkpt lat="30.68399157811344" lon="-6.333312117488878"><ele>911.0</ele><time>2026-05-05T12:18:31Z</time></trkpt><trkpt lat="30.684026243606446" lon="-6.333450372361626"><ele>912.0</ele><time>2026-05-05T12:18:32Z</time></trkpt><trkpt lat="30.684076002582476" lon="-6.333595626297499"><ele>913.0</ele><time>2026-05-05T12:18:33Z</time></trkpt><trkpt lat="30.68413843742189" lon="-6.33374236120049"><ele>914.0</ele><time>2026-05-05T12:18:34Z</time></trkpt><trkpt lat="30.684204067377763" lon="-6.333885316604671"><ele>915.0</ele><time>2026-05-05T12:18:35Z</time></trkpt><trkpt lat="30.684264717494145" lon="-6.3340337731742595"><ele>916.0</ele><time>2026-05-05T12:18:36Z</time></trkpt><trkpt lat="30.684303611186166" lon="-6.334197607138979"><ele>917.0</ele><time>2026-05-05T12:18:37Z</time></trkpt><trkpt lat="30.684318488657723" lon="-6.33436780969541"><ele>918.0</ele><time>2026-05-05T12:18:38Z</time></trkpt><trkpt lat="30.68431649219116" lon="-6.334545559336446"><ele>919.0</ele><time>2026-05-05T12:18:39Z</time></trkpt><trkpt lat="30.684306428470375" lon="-6.334723492431321"><ele>920.6666666666666</ele><time>2026-05-05T12:18:40.001Z</time></trkpt><trkpt lat="30.684294644453647" lon="-6.334903181324152"><ele>922.3333333333333</ele><time>2026-05-05T12:18:41.001Z</time></trkpt><trkpt lat="30.684286067655584" lon="-6.335085614012942"><ele>924.0</ele><time>2026-05-05T12:18:42.001Z</time></trkpt><trkpt lat="30.684287439747294" lon="-6.335270080957589"><ele>924.0</ele><time>2026-05-05T12:18:43Z</time></trkpt><trkpt lat="30.684306653834003" lon="-6.335453875351024"><ele>924.0</ele><time>2026-05-05T12:18:44Z</time></trkpt><trkpt lat="30.684331209617657" lon="-6.335635621643759"><ele>924.0</ele><time>2026-05-05T12:18:45Z</time></trkpt><trkpt lat="30.684348486031677" lon="-6.335812003111473"><ele>924.25</ele><time>2026-05-05T12:18:46Z</time></trkpt><trkpt lat="30.684366055237486" lon="-6.335978024947758"><ele>924.5</ele><time>2026-05-05T12:18:47Z</time></trkpt><trkpt lat="30.684381317990994" lon="-6.336129586800048"><ele>924.75</ele><time>2026-05-05T12:18:48Z</time></trkpt><trkpt lat="30.684398440696846" lon="-6.336275573015684"><ele>925.0</ele><time>2026-05-05T12:18:49Z</time></trkpt><trkpt lat="30.684422618300943" lon="-6.3364265479935975"><ele>928.0</ele><time>2026-05-05T12:18:50Z</time></trkpt><trkpt lat="30.68445227283979" lon="-6.336581270199618"><ele>931.0</ele><time>2026-05-05T12:18:51Z</time></trkpt><trkpt lat="30.684487597995723" lon="-6.336731034522435"><ele>934.0</ele><time>2026-05-05T12:18:52Z</time></trkpt><trkpt lat="30.684519538138886" lon="-6.336864766166505"><ele>937.0</ele><time>2026-05-05T12:18:53Z</time></trkpt><trkpt lat="30.684528858790706" lon="-6.33697840226591"><ele>937.0</ele><time>2026-05-05T12:18:54Z</time></trkpt><trkpt lat="30.68452291566302" lon="-6.337075971355805"><ele>937.0</ele><time>2026-05-05T12:18:55Z</time></trkpt><trkpt lat="30.684508741818103" lon="-6.337157864055574"><ele>937.0</ele><time>2026-05-05T12:18:56Z</time></trkpt><trkpt lat="30.684485710745438" lon="-6.3373027593046345"><ele>937.0</ele><time>2026-05-05T12:18:58Z</time></trkpt><trkpt lat="30.684498492980058" lon="-6.33740177661246"><ele>937.0</ele><time>2026-05-05T12:18:59Z</time></trkpt><trkpt lat="30.684493975786975" lon="-6.337515886630159"><ele>936.8</ele><time>2026-05-05T12:19:00Z</time></trkpt><trkpt lat="30.68443629049826" lon="-6.337618396326868"><ele>936.6</ele><time>2026-05-05T12:19:01Z</time></trkpt><trkpt lat="30.684351169014768" lon="-6.337698129444938"><ele>936.3999999999999</ele><time>2026-05-05T12:19:02Z</time></trkpt><trkpt lat="30.684239065542258" lon="-6.337752117166691"><ele>936.1999999999999</ele><time>2026-05-05T12:19:03Z</time></trkpt><trkpt lat="30.684139688326006" lon="-6.33780922961817"><ele>936.0</ele><time>2026-05-05T12:19:04Z</time></trkpt><trkpt lat="30.684064182437723" lon="-6.337898213620656"><ele>935.0</ele><time>2026-05-05T12:19:05Z</time></trkpt><trkpt lat="30.684007199868127" lon="-6.338000806886105"><ele>934.0</ele><time>2026-05-05T12:19:06Z</time></trkpt><trkpt lat="30.683976017490618" lon="-6.3381243953673865"><ele>933.0</ele><time>2026-05-05T12:19:07Z</time></trkpt><trkpt lat="30.683983777689008" lon="-6.338257095812739"><ele>932.0</ele><time>2026-05-05T12:19:08Z</time></trkpt><trkpt lat="30.684013387231936" lon="-6.338395080026554"><ele>932.0</ele><time>2026-05-05T12:19:09Z</time></trkpt><trkpt lat="30.68406258669416" lon="-6.338531956652148"><ele>932.0</ele><time>2026-05-05T12:19:10Z</time></trkpt><trkpt lat="30.684104389338952" lon="-6.338676205107068"><ele>932.0</ele><time>2026-05-05T12:19:11Z</time></trkpt><trkpt lat="30.68414606992164" lon="-6.338814029965045"><ele>932.0</ele><time>2026-05-05T12:19:12Z</time></trkpt><trkpt lat="30.684179268598516" lon="-6.338941014045008"><ele>932.0</ele><time>2026-05-05T12:19:13Z</time></trkpt><trkpt lat="30.684224815328715" lon="-6.339050203439836"><ele>932.0</ele><time>2026-05-05T12:19:14Z</time></trkpt><trkpt lat="30.684300669069984" lon="-6.33912225211529"><ele>932.0</ele><time>2026-05-05T12:19:15Z</time></trkpt><trkpt lat="30.6843819991143" lon="-6.3391917240978355"><ele>932.0</ele><time>2026-05-05T12:19:16Z</time></trkpt><trkpt lat="30.684493745391116" lon="-6.339196921572701"><ele>932.0</ele><time>2026-05-05T12:19:17Z</time></trkpt><trkpt lat="30.68463117760024" lon="-6.33921957177189"><ele>932.0</ele><time>2026-05-05T12:19:18Z</time></trkpt><trkpt lat="30.684761447422463" lon="-6.339253254412102"><ele>932.0</ele><time>2026-05-05T12:19:19Z</time></trkpt><trkpt lat="30.68488665916057" lon="-6.339272841073237"><ele>932.0</ele><time>2026-05-05T12:19:20Z</time></trkpt><trkpt lat="30.68500702904126" lon="-6.3392961481987316"><ele>932.0</ele><time>2026-05-05T12:19:21Z</time></trkpt><trkpt lat="30.685110818791326" lon="-6.3393144949651505"><ele>932.0</ele><time>2026-05-05T12:19:22Z</time></trkpt><trkpt lat="30.685212350735025" lon="-6.3393312532885036"><ele>932.0</ele><time>2026-05-05T12:19:23Z</time></trkpt><trkpt lat="30.685304699857006" lon="-6.339370343885166"><ele>932.0</ele><time>2026-05-05T12:19:24Z</time></trkpt><trkpt lat="30.685372267952147" lon="-6.339428094511578"><ele>932.0</ele><time>2026-05-05T12:19:25Z</time></trkpt><trkpt lat="30.685407044828498" lon="-6.339515007368474"><ele>932.0</ele><time>2026-05-05T12:19:26Z</time></trkpt><trkpt lat="30.685405195867716" lon="-6.339617403605002"><ele>931.0</ele><time>2026-05-05T12:19:27Z</time></trkpt><trkpt lat="30.685390423079962" lon="-6.339732301568421"><ele>930.0</ele><time>2026-05-05T12:19:28Z</time></trkpt><trkpt lat="30.685369843628976" lon="-6.339860771005714"><ele>929.0</ele><time>2026-05-05T12:19:29Z</time></trkpt><trkpt lat="30.68533777404896" lon="-6.339993145370731"><ele>928.0</ele><time>2026-05-05T12:19:30Z</time></trkpt><trkpt lat="30.685296835368202" lon="-6.340131542444337"><ele>926.25</ele><time>2026-05-05T12:19:31Z</time></trkpt><trkpt lat="30.685240264779917" lon="-6.340278762902261"><ele>924.5</ele><time>2026-05-05T12:19:32Z</time></trkpt><trkpt lat="30.68517724349735" lon="-6.340437458596139"><ele>922.75</ele><time>2026-05-05T12:19:33Z</time></trkpt><trkpt lat="30.68511901693553" lon="-6.340586729320847"><ele>921.0</ele><time>2026-05-05T12:19:34Z</time></trkpt><trkpt lat="30.685063935608746" lon="-6.340728039722328"><ele>920.4</ele><time>2026-05-05T12:19:35Z</time></trkpt><trkpt lat="30.68501325583181" lon="-6.3408717342138186"><ele>919.8</ele><time>2026-05-05T12:19:36Z</time></trkpt><trkpt lat="30.684970306363972" lon="-6.340999514729994"><ele>919.1999999999999</ele><time>2026-05-05T12:19:37Z</time></trkpt><trkpt lat="30.684930181035476" lon="-6.341111833727193"><ele>918.5999999999999</ele><time>2026-05-05T12:19:38Z</time></trkpt><trkpt lat="30.68487948898001" lon="-6.341194455363877"><ele>918.0</ele><time>2026-05-05T12:19:39Z</time></trkpt><trkpt lat="30.684788454117587" lon="-6.3412554221566"><ele>918.0</ele><time>2026-05-05T12:19:40Z</time></trkpt><trkpt lat="30.68466162402299" lon="-6.341275105459909"><ele>918.0</ele><time>2026-05-05T12:19:41Z</time></trkpt><trkpt lat="30.684531079821035" lon="-6.341266150076232"><ele>918.0</ele><time>2026-05-05T12:19:42Z</time></trkpt><trkpt lat="30.684405175041636" lon="-6.341235911065736"><ele>918.0</ele><time>2026-05-05T12:19:43Z</time></trkpt><trkpt lat="30.684289028265823" lon="-6.341227741330973"><ele>917.25</ele><time>2026-05-05T12:19:44Z</time></trkpt><trkpt lat="30.684175749455157" lon="-6.3412160730649685"><ele>916.5</ele><time>2026-05-05T12:19:45Z</time></trkpt><trkpt lat="30.684064585860646" lon="-6.341204183457449"><ele>915.75</ele><time>2026-05-05T12:19:46Z</time></trkpt><trkpt lat="30.683960451571576" lon="-6.341189916668446"><ele>915.0</ele><time>2026-05-05T12:19:47Z</time></trkpt><trkpt lat="30.683836376155952" lon="-6.34118463049851"><ele>915.0</ele><time>2026-05-05T12:19:48Z</time></trkpt><trkpt lat="30.683739638565676" lon="-6.341167246273218"><ele>915.0</ele><time>2026-05-05T12:19:49Z</time></trkpt><trkpt lat="30.68364539217779" lon="-6.341147576194371"><ele>915.0</ele><time>2026-05-05T12:19:50Z</time></trkpt><trkpt lat="30.683556903852647" lon="-6.341129482890366"><ele>915.0</ele><time>2026-05-05T12:19:51Z</time></trkpt><trkpt lat="30.683470266281596" lon="-6.34111109166864"><ele>915.0</ele><time>2026-05-05T12:19:52Z</time></trkpt><trkpt lat="30.68339616591176" lon="-6.341095464800504"><ele>915.0</ele><time>2026-05-05T12:19:53Z</time></trkpt><trkpt lat="30.683274209653128" lon="-6.341070402381713"><ele>914.1666666666666</ele><time>2026-05-05T12:19:55Z</time></trkpt><trkpt lat="30.683179415733036" lon="-6.341149154570627"><ele>913.3333333333333</ele><time>2026-05-05T12:19:57Z</time></trkpt><trkpt lat="30.683151746763443" lon="-6.341214926612975"><ele>912.5</ele><time>2026-05-05T12:19:58Z</time></trkpt><trkpt lat="30.683145293560433" lon="-6.341295861935063"><ele>911.6666666666666</ele><time>2026-05-05T12:19:59Z</time></trkpt><trkpt lat="30.68314663418353" lon="-6.3413897015366185"><ele>910.8333333333333</ele><time>2026-05-05T12:20:00Z</time></trkpt><trkpt lat="30.683152721842433" lon="-6.341497354374863"><ele>910.0</ele><time>2026-05-05T12:20:01Z</time></trkpt><trkpt lat="30.683168070709826" lon="-6.341613935672236"><ele>910.0</ele><time>2026-05-05T12:20:02Z</time></trkpt><trkpt lat="30.68319069931266" lon="-6.341733597508664"><ele>910.0</ele><time>2026-05-05T12:20:03Z</time></trkpt><trkpt lat="30.68322295353163" lon="-6.341843887520645"><ele>910.0</ele><time>2026-05-05T12:20:04Z</time></trkpt><trkpt lat="30.68325833886001" lon="-6.341953787606598"><ele>910.0</ele><time>2026-05-05T12:20:05Z</time></trkpt><trkpt lat="30.68329577551136" lon="-6.342066415084236"><ele>910.0</ele><time>2026-05-05T12:20:06Z</time></trkpt><trkpt lat="30.683336414069714" lon="-6.342181218479412"><ele>911.25</ele><time>2026-05-05T12:20:07Z</time></trkpt><trkpt lat="30.68338302577992" lon="-6.3423010933384765"><ele>912.5</ele><time>2026-05-05T12:20:08Z</time></trkpt><trkpt lat="30.68343534362769" lon="-6.3424255730461585"><ele>913.75</ele><time>2026-05-05T12:20:09Z</time></trkpt><trkpt lat="30.683489841517563" lon="-6.342553426961048"><ele>915.0</ele><time>2026-05-05T12:20:10Z</time></trkpt><trkpt lat="30.683548982205306" lon="-6.342675095862415"><ele>916.25</ele><time>2026-05-05T12:20:11Z</time></trkpt><trkpt lat="30.683610442183088" lon="-6.342796559250002"><ele>917.5</ele><time>2026-05-05T12:20:12Z</time></trkpt><trkpt lat="30.683674422002362" lon="-6.342921006774061"><ele>918.75</ele><time>2026-05-05T12:20:13Z</time></trkpt><trkpt lat="30.68373639423335" lon="-6.3430511479419165"><ele>920.0</ele><time>2026-05-05T12:20:14Z</time></trkpt><trkpt lat="30.68380404921727" lon="-6.343179570018637"><ele>920.75</ele><time>2026-05-05T12:20:15Z</time></trkpt><trkpt lat="30.68387283808888" lon="-6.343311169876755"><ele>921.5</ele><time>2026-05-05T12:20:16Z</time></trkpt><trkpt lat="30.68394235901431" lon="-6.343442539058158"><ele>922.25</ele><time>2026-05-05T12:20:17Z</time></trkpt><trkpt lat="30.684013767783615" lon="-6.3435752989292995"><ele>923.0</ele><time>2026-05-05T12:20:18Z</time></trkpt><trkpt lat="30.684084009925886" lon="-6.343709742221273"><ele>923.0</ele><time>2026-05-05T12:20:19Z</time></trkpt><trkpt lat="30.684159287100172" lon="-6.3438417032673735"><ele>923.0</ele><time>2026-05-05T12:20:20Z</time></trkpt><trkpt lat="30.68425013171303" lon="-6.3439665949058925"><ele>923.0</ele><time>2026-05-05T12:20:21Z</time></trkpt><trkpt lat="30.684349440575875" lon="-6.344093236076522"><ele>923.0</ele><time>2026-05-05T12:20:22Z</time></trkpt><trkpt lat="30.684452740340234" lon="-6.3442261808912255"><ele>928.0</ele><time>2026-05-05T12:20:23Z</time></trkpt><trkpt lat="30.684550250157912" lon="-6.344363615414739"><ele>933.0</ele><time>2026-05-05T12:20:24Z</time></trkpt><trkpt lat="30.684636724191428" lon="-6.344506941602548"><ele>938.0</ele><time>2026-05-05T12:20:25Z</time></trkpt><trkpt lat="30.684719136840613" lon="-6.344650731123862"><ele>936.25</ele><time>2026-05-05T12:20:26Z</time></trkpt><trkpt lat="30.684797786307488" lon="-6.344791605347683"><ele>934.5</ele><time>2026-05-05T12:20:27Z</time></trkpt><trkpt lat="30.68486138692018" lon="-6.3449353044764685"><ele>932.75</ele><time>2026-05-05T12:20:28Z</time></trkpt><trkpt lat="30.684913342142234" lon="-6.345082615469196"><ele>931.0</ele><time>2026-05-05T12:20:29Z</time></trkpt><trkpt lat="30.684952702446786" lon="-6.345235275049928"><ele>931.0</ele><time>2026-05-05T12:20:30Z</time></trkpt><trkpt lat="30.684989203613817" lon="-6.345387093650432"><ele>931.0</ele><time>2026-05-05T12:20:31Z</time></trkpt><trkpt lat="30.68502496276546" lon="-6.345526807492712"><ele>931.0</ele><time>2026-05-05T12:20:32Z</time></trkpt><trkpt lat="30.685056043892633" lon="-6.345663331104538"><ele>931.0</ele><time>2026-05-05T12:20:33Z</time></trkpt><trkpt lat="30.685074002516995" lon="-6.34580077914193"><ele>932.1999999999999</ele><time>2026-05-05T12:20:34Z</time></trkpt><trkpt lat="30.68509627234315" lon="-6.34593278990715"><ele>933.3999999999999</ele><time>2026-05-05T12:20:35Z</time></trkpt><trkpt lat="30.685124221061375" lon="-6.346056947001012"><ele>934.6</ele><time>2026-05-05T12:20:36Z</time></trkpt><trkpt lat="30.685149938203516" lon="-6.346181682894637"><ele>935.8</ele><time>2026-05-05T12:20:37Z</time></trkpt><trkpt lat="30.685181289503873" lon="-6.346305114705463"><ele>937.0</ele><time>2026-05-05T12:20:38Z</time></trkpt><trkpt lat="30.685218811907163" lon="-6.346423397883503"><ele>938.75</ele><time>2026-05-05T12:20:39Z</time></trkpt><trkpt lat="30.685266720512836" lon="-6.346539164724866"><ele>940.5</ele><time>2026-05-05T12:20:40Z</time></trkpt><trkpt lat="30.685334056859798" lon="-6.34664480809501"><ele>942.25</ele><time>2026-05-05T12:20:41Z</time></trkpt><trkpt lat="30.685425460017548" lon="-6.3467354090747055"><ele>944.0</ele><time>2026-05-05T12:20:42Z</time></trkpt><trkpt lat="30.68552484115298" lon="-6.346815667385749"><ele>944.0</ele><time>2026-05-05T12:20:43Z</time></trkpt><trkpt lat="30.685625666853422" lon="-6.346890518546296"><ele>944.0</ele><time>2026-05-05T12:20:44Z</time></trkpt><trkpt lat="30.685729559378892" lon="-6.346962634393135"><ele>944.0</ele><time>2026-05-05T12:20:45Z</time></trkpt><trkpt lat="30.68583629998859" lon="-6.347035110749366"><ele>944.0</ele><time>2026-05-05T12:20:46Z</time></trkpt><trkpt lat="30.685939228196336" lon="-6.347110304367288"><ele>944.0</ele><time>2026-05-05T12:20:47Z</time></trkpt><trkpt lat="30.686036617145696" lon="-6.347180244156426"><ele>944.0</ele><time>2026-05-05T12:20:48Z</time></trkpt><trkpt lat="30.686132493510154" lon="-6.347252326131762"><ele>944.0</ele><time>2026-05-05T12:20:49Z</time></trkpt><trkpt lat="30.686223207800918" lon="-6.347330694440854"><ele>944.0</ele><time>2026-05-05T12:20:50Z</time></trkpt><trkpt lat="30.68631046584082" lon="-6.347417517940949"><ele>945.25</ele><time>2026-05-05T12:20:51Z</time></trkpt><trkpt lat="30.68640136915263" lon="-6.3475099080831106"><ele>946.5</ele><time>2026-05-05T12:20:52Z</time></trkpt><trkpt lat="30.686496955349405" lon="-6.347601164005677"><ele>947.75</ele><time>2026-05-05T12:20:53Z</time></trkpt><trkpt lat="30.686587558289148" lon="-6.347688472450161"><ele>949.0</ele><time>2026-05-05T12:20:54Z</time></trkpt><trkpt lat="30.686673665398413" lon="-6.347771533594135"><ele>949.0</ele><time>2026-05-05T12:20:55Z</time></trkpt><trkpt lat="30.686745707228116" lon="-6.347861298312348"><ele>949.0000000000001</ele><time>2026-05-05T12:20:56Z</time></trkpt><trkpt lat="30.686787662972403" lon="-6.347975997536527"><ele>949.0000000000001</ele><time>2026-05-05T12:20:57Z</time></trkpt><trkpt lat="30.68681208656133" lon="-6.348109277081406"><ele>949.0</ele><time>2026-05-05T12:20:58Z</time></trkpt><trkpt lat="30.686828802921838" lon="-6.348240521922665"><ele>949.0</ele><time>2026-05-05T12:20:59Z</time></trkpt><trkpt lat="30.686842607033878" lon="-6.348372641917546"><ele>949.25</ele><time>2026-05-05T12:21:00Z</time></trkpt><trkpt lat="30.686857042482384" lon="-6.348517727922735"><ele>949.5</ele><time>2026-05-05T12:21:01Z</time></trkpt><trkpt lat="30.68688545501969" lon="-6.348663006094093"><ele>949.75</ele><time>2026-05-05T12:21:02Z</time></trkpt><trkpt lat="30.686932468466665" lon="-6.348801480682185"><ele>950.0</ele><time>2026-05-05T12:21:03Z</time></trkpt><trkpt lat="30.68699548707525" lon="-6.348942311629296"><ele>950.0</ele><time>2026-05-05T12:21:04Z</time></trkpt><trkpt lat="30.68705177911611" lon="-6.349086956383606"><ele>950.0</ele><time>2026-05-05T12:21:05Z</time></trkpt><trkpt lat="30.687082537637117" lon="-6.3492409473218"><ele>950.0</ele><time>2026-05-05T12:21:06Z</time></trkpt><trkpt lat="30.687088712981264" lon="-6.349397540958298"><ele>950.0</ele><time>2026-05-05T12:21:07Z</time></trkpt><trkpt lat="30.687080699539656" lon="-6.349555345199593"><ele>946.75</ele><time>2026-05-05T12:21:08Z</time></trkpt><trkpt lat="30.68706389605954" lon="-6.349712286640206"><ele>943.5</ele><time>2026-05-05T12:21:09Z</time></trkpt><trkpt lat="30.687043036442233" lon="-6.349866554483888"><ele>940.25</ele><time>2026-05-05T12:21:10Z</time></trkpt><trkpt lat="30.687026558170288" lon="-6.350020227650128"><ele>937.0</ele><time>2026-05-05T12:21:11Z</time></trkpt><trkpt lat="30.687010319499493" lon="-6.350169110662299"><ele>937.0</ele><time>2026-05-05T12:21:12Z</time></trkpt><trkpt lat="30.686988294995636" lon="-6.350315289663712"><ele>937.0</ele><time>2026-05-05T12:21:13Z</time></trkpt><trkpt lat="30.686960184835716" lon="-6.350456887302909"><ele>937.0</ele><time>2026-05-05T12:21:14Z</time></trkpt><trkpt lat="30.686931330878046" lon="-6.350596666614306"><ele>937.0</ele><time>2026-05-05T12:21:15Z</time></trkpt><trkpt lat="30.686894654831665" lon="-6.350735245248005"><ele>934.75</ele><time>2026-05-05T12:21:16Z</time></trkpt><trkpt lat="30.686856846589585" lon="-6.350879280296029"><ele>932.5</ele><time>2026-05-05T12:21:17Z</time></trkpt><trkpt lat="30.686812087158955" lon="-6.351022874910377"><ele>930.25</ele><time>2026-05-05T12:21:18Z</time></trkpt><trkpt lat="30.68674995777295" lon="-6.351162768274881"><ele>928.0</ele><time>2026-05-05T12:21:19Z</time></trkpt><trkpt lat="30.68666729084656" lon="-6.351292887270735"><ele>926.0</ele><time>2026-05-05T12:21:20Z</time></trkpt><trkpt lat="30.686571593243" lon="-6.351417638772085"><ele>924.0</ele><time>2026-05-05T12:21:21Z</time></trkpt><trkpt lat="30.68647144993321" lon="-6.35154114956414"><ele>922.0</ele><time>2026-05-05T12:21:22Z</time></trkpt><trkpt lat="30.68637352430611" lon="-6.351673320590258"><ele>920.0</ele><time>2026-05-05T12:21:23Z</time></trkpt><trkpt lat="30.686273648838927" lon="-6.351805860116998"><ele>920.0</ele><time>2026-05-05T12:21:24Z</time></trkpt><trkpt lat="30.686174163769646" lon="-6.351942436405757"><ele>920.0</ele><time>2026-05-05T12:21:25Z</time></trkpt><trkpt lat="30.686083635837957" lon="-6.352072319837435"><ele>920.0</ele><time>2026-05-05T12:21:26Z</time></trkpt><trkpt lat="30.685990150851936" lon="-6.352197459356554"><ele>920.0</ele><time>2026-05-05T12:21:27Z</time></trkpt><trkpt lat="30.685898277264073" lon="-6.352316506131213"><ele>918.6</ele><time>2026-05-05T12:21:28Z</time></trkpt><trkpt lat="30.68581448868841" lon="-6.352426022377748"><ele>917.2</ele><time>2026-05-05T12:21:29Z</time></trkpt><trkpt lat="30.68574078068155" lon="-6.352522658033481"><ele>915.8</ele><time>2026-05-05T12:21:30Z</time></trkpt><trkpt lat="30.685677133500313" lon="-6.352609324208488"><ele>914.4</ele><time>2026-05-05T12:21:31Z</time></trkpt><trkpt lat="30.68562401999199" lon="-6.352680187864836"><ele>913.0</ele><time>2026-05-05T12:21:32Z</time></trkpt><trkpt lat="30.68557833956044" lon="-6.352740803046496"><ele>913.0</ele><time>2026-05-05T12:21:33Z</time></trkpt><trkpt lat="30.685503085454975" lon="-6.352821887951024"><ele>913.0</ele><time>2026-05-05T12:21:35Z</time></trkpt><trkpt lat="30.685438855530148" lon="-6.352886726735337"><ele>913.0</ele><time>2026-05-05T12:21:36Z</time></trkpt><trkpt lat="30.685378213315865" lon="-6.352969242441816"><ele>913.0</ele><time>2026-05-05T12:21:37Z</time></trkpt><trkpt lat="30.685324960460758" lon="-6.353052050568769"><ele>913.0</ele><time>2026-05-05T12:21:38Z</time></trkpt><trkpt lat="30.685273575528363" lon="-6.353134038595897"><ele>911.9999999999999</ele><time>2026-05-05T12:21:39Z</time></trkpt><trkpt lat="30.685225748571646" lon="-6.353212884195356"><ele>911.0</ele><time>2026-05-05T12:21:40Z</time></trkpt><trkpt lat="30.6851802236341" lon="-6.353289314418301"><ele>910.0</ele><time>2026-05-05T12:21:41Z</time></trkpt><trkpt lat="30.685146658988288" lon="-6.353362221445705"><ele>909.0</ele><time>2026-05-05T12:21:42Z</time></trkpt><trkpt lat="30.685134727721433" lon="-6.35344144040958"><ele>907.9999999999999</ele><time>2026-05-05T12:21:43Z</time></trkpt><trkpt lat="30.685142011757648" lon="-6.353527555079339"><ele>907.0</ele><time>2026-05-05T12:21:44Z</time></trkpt><trkpt lat="30.685160226959542" lon="-6.353625602282891"><ele>907.0</ele><time>2026-05-05T12:21:45Z</time></trkpt><trkpt lat="30.685200257044478" lon="-6.353722497567321"><ele>907.0</ele><time>2026-05-05T12:21:46Z</time></trkpt><trkpt lat="30.68525661577612" lon="-6.3538294142847676"><ele>907.0</ele><time>2026-05-05T12:21:47Z</time></trkpt><trkpt lat="30.685319850208018" lon="-6.35394121165853"><ele>907.0</ele><time>2026-05-05T12:21:48Z</time></trkpt><trkpt lat="30.68538967792573" lon="-6.354059983860927"><ele>907.0</ele><time>2026-05-05T12:21:49Z</time></trkpt><trkpt lat="30.685453670642705" lon="-6.354182378732706"><ele>908.25</ele><time>2026-05-05T12:21:50Z</time></trkpt><trkpt lat="30.685508397254196" lon="-6.354320052317253"><ele>909.5</ele><time>2026-05-05T12:21:51Z</time></trkpt><trkpt lat="30.68554615745041" lon="-6.354458367099741"><ele>910.75</ele><time>2026-05-05T12:21:52Z</time></trkpt><trkpt lat="30.685577047409073" lon="-6.3545998513530275"><ele>912.0</ele><time>2026-05-05T12:21:53Z</time></trkpt><trkpt lat="30.68560279160108" lon="-6.354737726392002"><ele>912.0</ele><time>2026-05-05T12:21:54Z</time></trkpt><trkpt lat="30.685632708720224" lon="-6.354869742330481"><ele>912.0</ele><time>2026-05-05T12:21:55Z</time></trkpt><trkpt lat="30.685665220074316" lon="-6.355003685399031"><ele>912.0</ele><time>2026-05-05T12:21:56Z</time></trkpt><trkpt lat="30.685689300406914" lon="-6.355158262550914"><ele>912.0</ele><time>2026-05-05T12:21:57Z</time></trkpt><trkpt lat="30.685717001931593" lon="-6.355335378128588"><ele>912.0</ele><time>2026-05-05T12:21:58Z</time></trkpt><trkpt lat="30.685746789573678" lon="-6.355512509739291"><ele>912.0</ele><time>2026-05-05T12:21:59Z</time></trkpt><trkpt lat="30.685768222297895" lon="-6.355703085061676"><ele>912.0</ele><time>2026-05-05T12:22:00Z</time></trkpt><trkpt lat="30.68578391198195" lon="-6.355887678793214"><ele>911.3333333333333</ele><time>2026-05-05T12:22:01Z</time></trkpt><trkpt lat="30.68578709902215" lon="-6.356060804522647"><ele>910.6666666666666</ele><time>2026-05-05T12:22:02Z</time></trkpt><trkpt lat="30.685810868709847" lon="-6.356247497054457"><ele>910.0</ele><time>2026-05-05T12:22:03Z</time></trkpt><trkpt lat="30.685837372457108" lon="-6.356443490132108"><ele>909.6666666666666</ele><time>2026-05-05T12:22:04Z</time></trkpt><trkpt lat="30.685861227989477" lon="-6.356625540712054"><ele>909.3333333333333</ele><time>2026-05-05T12:22:05Z</time></trkpt><trkpt lat="30.685889727018413" lon="-6.356801340025577"><ele>909.0</ele><time>2026-05-05T12:22:06Z</time></trkpt><trkpt lat="30.68592951266379" lon="-6.35697820165287"><ele>909.0</ele><time>2026-05-05T12:22:07Z</time></trkpt><trkpt lat="30.685956612118428" lon="-6.357154109583932"><ele>909.0</ele><time>2026-05-05T12:22:08Z</time></trkpt><trkpt lat="30.68595861582647" lon="-6.357326310954148"><ele>909.0</ele><time>2026-05-05T12:22:09Z</time></trkpt><trkpt lat="30.685947914054296" lon="-6.3575033973757344"><ele>909.0</ele><time>2026-05-05T12:22:10Z</time></trkpt><trkpt lat="30.685949640615085" lon="-6.357681370972204"><ele>909.0</ele><time>2026-05-05T12:22:11Z</time></trkpt><trkpt lat="30.68596398313137" lon="-6.357862075533078"><ele>909.0</ele><time>2026-05-05T12:22:12Z</time></trkpt><trkpt lat="30.685950177201033" lon="-6.358046296348126"><ele>908.6666666666667</ele><time>2026-05-05T12:22:13Z</time></trkpt><trkpt lat="30.68589587808935" lon="-6.358241816631072"><ele>908.3333333333334</ele><time>2026-05-05T12:22:14Z</time></trkpt><trkpt lat="30.68582922812453" lon="-6.358435482569589"><ele>908.0</ele><time>2026-05-05T12:22:15Z</time></trkpt><trkpt lat="30.685756676710213" lon="-6.358627183788236"><ele>908.0</ele><time>2026-05-05T12:22:16Z</time></trkpt><trkpt lat="30.685687489680458" lon="-6.3588140127503765"><ele>908.0</ele><time>2026-05-05T12:22:17Z</time></trkpt><trkpt lat="30.685630395072675" lon="-6.359004276514638"><ele>908.0</ele><time>2026-05-05T12:22:18Z</time></trkpt><trkpt lat="30.685586878387127" lon="-6.359194826583458"><ele>908.0</ele><time>2026-05-05T12:22:19Z</time></trkpt><trkpt lat="30.68553782605256" lon="-6.35938405054767"><ele>908.0</ele><time>2026-05-05T12:22:20Z</time></trkpt><trkpt lat="30.685482316365732" lon="-6.359556031792488"><ele>908.0</ele><time>2026-05-05T12:22:21Z</time></trkpt><trkpt lat="30.685430062194865" lon="-6.359716504377695"><ele>907.75</ele><time>2026-05-05T12:22:22Z</time></trkpt><trkpt lat="30.685384235145467" lon="-6.3598642001805565"><ele>907.5</ele><time>2026-05-05T12:22:23Z</time></trkpt><trkpt lat="30.68534241711358" lon="-6.360007485129006"><ele>907.25</ele><time>2026-05-05T12:22:24Z</time></trkpt><trkpt lat="30.685307105799108" lon="-6.360157749951776"><ele>907.0</ele><time>2026-05-05T12:22:25Z</time></trkpt><trkpt lat="30.685281214518938" lon="-6.360314500767851"><ele>907.0</ele><time>2026-05-05T12:22:26Z</time></trkpt><trkpt lat="30.685263692663135" lon="-6.360466919187054"><ele>907.0</ele><time>2026-05-05T12:22:27Z</time></trkpt><trkpt lat="30.685260983345422" lon="-6.360614388800974"><ele>907.0</ele><time>2026-05-05T12:22:28Z</time></trkpt><trkpt lat="30.685271591892636" lon="-6.360746282301251"><ele>907.0</ele><time>2026-05-05T12:22:29Z</time></trkpt><trkpt lat="30.685280267617756" lon="-6.360879465308108"><ele>907.25</ele><time>2026-05-05T12:22:30Z</time></trkpt><trkpt lat="30.685290420016464" lon="-6.361016052974536"><ele>907.5</ele><time>2026-05-05T12:22:31Z</time></trkpt><trkpt lat="30.685322187953524" lon="-6.361147708135451"><ele>907.75</ele><time>2026-05-05T12:22:32Z</time></trkpt><trkpt lat="30.68538058210304" lon="-6.361272465960481"><ele>908.0</ele><time>2026-05-05T12:22:33Z</time></trkpt><trkpt lat="30.68545302284298" lon="-6.361380598213405"><ele>908.25</ele><time>2026-05-05T12:22:34Z</time></trkpt><trkpt lat="30.685506014618245" lon="-6.361493782396657"><ele>908.5</ele><time>2026-05-05T12:22:35Z</time></trkpt><trkpt lat="30.685531027507047" lon="-6.361630080183732"><ele>908.75</ele><time>2026-05-05T12:22:36Z</time></trkpt><trkpt lat="30.685533428201744" lon="-6.361773640280646"><ele>909.0</ele><time>2026-05-05T12:22:37Z</time></trkpt><trkpt lat="30.685527588316635" lon="-6.3618998545884375"><ele>909.0</ele><time>2026-05-05T12:22:38Z</time></trkpt><trkpt lat="30.68550854892707" lon="-6.3620149956785825"><ele>909.0000000000001</ele><time>2026-05-05T12:22:39Z</time></trkpt><trkpt lat="30.685475403390672" lon="-6.3621277209879645"><ele>909.0000000000001</ele><time>2026-05-05T12:22:40Z</time></trkpt><trkpt lat="30.685431491327545" lon="-6.362230351962963"><ele>909.0</ele><time>2026-05-05T12:22:41Z</time></trkpt><trkpt lat="30.685389775529995" lon="-6.362326604302298"><ele>909.0</ele><time>2026-05-05T12:22:42Z</time></trkpt><trkpt lat="30.68536136277383" lon="-6.362433472076804"><ele>909.25</ele><time>2026-05-05T12:22:43Z</time></trkpt><trkpt lat="30.685354267133434" lon="-6.3625537923288125"><ele>909.5</ele><time>2026-05-05T12:22:44Z</time></trkpt><trkpt lat="30.685369984040026" lon="-6.362683937913446"><ele>909.75</ele><time>2026-05-05T12:22:45Z</time></trkpt><trkpt lat="30.68541626511671" lon="-6.362803060538605"><ele>910.0</ele><time>2026-05-05T12:22:46Z</time></trkpt><trkpt lat="30.685495956858297" lon="-6.362911846488698"><ele>910.0</ele><time>2026-05-05T12:22:47Z</time></trkpt><trkpt lat="30.685580307394805" lon="-6.36301161161954"><ele>910.0</ele><time>2026-05-05T12:22:48Z</time></trkpt><trkpt lat="30.68564443137752" lon="-6.3631116102301695"><ele>910.0</ele><time>2026-05-05T12:22:49Z</time></trkpt><trkpt lat="30.685680442138032" lon="-6.363225746736618"><ele>910.0</ele><time>2026-05-05T12:22:50Z</time></trkpt><trkpt lat="30.68569635665929" lon="-6.363362249262237"><ele>910.25</ele><time>2026-05-05T12:22:51Z</time></trkpt><trkpt lat="30.68569803125788" lon="-6.3635145446601"><ele>910.5</ele><time>2026-05-05T12:22:52Z</time></trkpt><trkpt lat="30.685675782477592" lon="-6.363677176271123"><ele>910.75</ele><time>2026-05-05T12:22:53Z</time></trkpt><trkpt lat="30.685638130857487" lon="-6.363843764363665"><ele>911.0</ele><time>2026-05-05T12:22:54Z</time></trkpt><trkpt lat="30.6856006885915" lon="-6.3640108896655105"><ele>911.5</ele><time>2026-05-05T12:22:55Z</time></trkpt><trkpt lat="30.6855618886827" lon="-6.364174667881332"><ele>912.0</ele><time>2026-05-05T12:22:56Z</time></trkpt><trkpt lat="30.68551946956487" lon="-6.364338361373228"><ele>912.5</ele><time>2026-05-05T12:22:57Z</time></trkpt><trkpt lat="30.68547414286894" lon="-6.364501756407395"><ele>913.0</ele><time>2026-05-05T12:22:58Z</time></trkpt><trkpt lat="30.685410253789268" lon="-6.364653453282691"><ele>913.6666666666666</ele><time>2026-05-05T12:22:59Z</time></trkpt><trkpt lat="30.68533820004" lon="-6.364811683993045"><ele>914.3333333333333</ele><time>2026-05-05T12:23:00Z</time></trkpt><trkpt lat="30.68525940087949" lon="-6.364963026563888"><ele>915.0</ele><time>2026-05-05T12:23:01Z</time></trkpt><trkpt lat="30.685157819272934" lon="-6.365101371065722"><ele>913.0</ele><time>2026-05-05T12:23:02Z</time></trkpt><trkpt lat="30.685041638683046" lon="-6.365220376288901"><ele>911.0</ele><time>2026-05-05T12:23:03Z</time></trkpt><trkpt lat="30.684932954369454" lon="-6.365331395719156"><ele>909.0</ele><time>2026-05-05T12:23:04Z</time></trkpt><trkpt lat="30.684839438954363" lon="-6.365449220118043"><ele>907.0</ele><time>2026-05-05T12:23:05Z</time></trkpt><trkpt lat="30.684773498311788" lon="-6.36558330222368"><ele>907.0</ele><time>2026-05-05T12:23:06Z</time></trkpt><trkpt lat="30.684733463657476" lon="-6.365727680192308"><ele>907.0</ele><time>2026-05-05T12:23:07Z</time></trkpt><trkpt lat="30.68471490777607" lon="-6.3658992106963685"><ele>907.0</ele><time>2026-05-05T12:23:08Z</time></trkpt><trkpt lat="30.68470915435997" lon="-6.3660812919150604"><ele>907.0</ele><time>2026-05-05T12:23:09Z</time></trkpt><trkpt lat="30.684698970499305" lon="-6.366270681791106"><ele>908.0</ele><time>2026-05-05T12:23:10Z</time></trkpt><trkpt lat="30.684677005158548" lon="-6.3664467648402745"><ele>909.0</ele><time>2026-05-05T12:23:11Z</time></trkpt><trkpt lat="30.68464212371127" lon="-6.36661692656356"><ele>910.0</ele><time>2026-05-05T12:23:12Z</time></trkpt><trkpt lat="30.68460307996395" lon="-6.366784651027873"><ele>910.0</ele><time>2026-05-05T12:23:13Z</time></trkpt><trkpt lat="30.684565331451154" lon="-6.366952828957134"><ele>910.0</ele><time>2026-05-05T12:23:14Z</time></trkpt><trkpt lat="30.684521720972093" lon="-6.367114696487105"><ele>910.0</ele><time>2026-05-05T12:23:15Z</time></trkpt><trkpt lat="30.684460423284534" lon="-6.367268252201325"><ele>910.0</ele><time>2026-05-05T12:23:16Z</time></trkpt><trkpt lat="30.684392847727235" lon="-6.367412234411831"><ele>909.0</ele><time>2026-05-05T12:23:17Z</time></trkpt><trkpt lat="30.68433679511896" lon="-6.367548393249158"><ele>908.0</ele><time>2026-05-05T12:23:18Z</time></trkpt><trkpt lat="30.684285827908546" lon="-6.36768007222084"><ele>907.0</ele><time>2026-05-05T12:23:19Z</time></trkpt><trkpt lat="30.68423038441097" lon="-6.3677989763308664"><ele>906.0</ele><time>2026-05-05T12:23:20Z</time></trkpt><trkpt lat="30.68416103380984" lon="-6.367910038873263"><ele>906.0</ele><time>2026-05-05T12:23:21Z</time></trkpt><trkpt lat="30.684089965122823" lon="-6.368023029076465"><ele>906.0</ele><time>2026-05-05T12:23:22Z</time></trkpt><trkpt lat="30.684017170986493" lon="-6.368142139793715"><ele>906.0</ele><time>2026-05-05T12:23:23Z</time></trkpt><trkpt lat="30.683935938011203" lon="-6.368261517502464"><ele>906.0</ele><time>2026-05-05T12:23:24Z</time></trkpt><trkpt lat="30.683858317192648" lon="-6.3683866808433445"><ele>906.0</ele><time>2026-05-05T12:23:25Z</time></trkpt><trkpt lat="30.68378674767006" lon="-6.3685038345008245"><ele>906.0</ele><time>2026-05-05T12:23:26Z</time></trkpt><trkpt lat="30.683705113901752" lon="-6.36860194695942"><ele>906.0</ele><time>2026-05-05T12:23:27Z</time></trkpt><trkpt lat="30.68360661371863" lon="-6.368685643764871"><ele>906.0</ele><time>2026-05-05T12:23:28Z</time></trkpt><trkpt lat="30.683501161102207" lon="-6.368767328071582"><ele>906.0</ele><time>2026-05-05T12:23:29Z</time></trkpt><trkpt lat="30.683404500097193" lon="-6.368846773078713"><ele>906.0</ele><time>2026-05-05T12:23:30Z</time></trkpt><trkpt lat="30.683309156837527" lon="-6.368915154260015"><ele>906.0</ele><time>2026-05-05T12:23:31Z</time></trkpt><trkpt lat="30.68320601620682" lon="-6.368981886590399"><ele>906.0</ele><time>2026-05-05T12:23:32Z</time></trkpt><trkpt lat="30.683104991138855" lon="-6.369065165129387"><ele>906.5</ele><time>2026-05-05T12:23:33Z</time></trkpt><trkpt lat="30.683019612411222" lon="-6.369163249091762"><ele>907.0</ele><time>2026-05-05T12:23:34Z</time></trkpt><trkpt lat="30.682951321433904" lon="-6.369276160657698"><ele>907.5</ele><time>2026-05-05T12:23:35Z</time></trkpt><trkpt lat="30.682902498097476" lon="-6.369402315869409"><ele>908.0</ele><time>2026-05-05T12:23:36Z</time></trkpt><trkpt lat="30.682872566893316" lon="-6.369535203968245"><ele>908.0</ele><time>2026-05-05T12:23:37Z</time></trkpt><trkpt lat="30.6828691790359" lon="-6.369669597817705"><ele>908.0</ele><time>2026-05-05T12:23:38Z</time></trkpt><trkpt lat="30.682885778075125" lon="-6.369810344427582"><ele>908.0</ele><time>2026-05-05T12:23:39Z</time></trkpt><trkpt lat="30.68292295079061" lon="-6.36994890079397"><ele>908.0</ele><time>2026-05-05T12:23:40Z</time></trkpt><trkpt lat="30.682981574966604" lon="-6.37008168904382"><ele>908.25</ele><time>2026-05-05T12:23:41Z</time></trkpt><trkpt lat="30.683060385375967" lon="-6.370192531172282"><ele>908.5</ele><time>2026-05-05T12:23:42Z</time></trkpt><trkpt lat="30.683141977449434" lon="-6.370307392263764"><ele>908.75</ele><time>2026-05-05T12:23:43Z</time></trkpt><trkpt lat="30.68321643034057" lon="-6.37043478374456"><ele>909.0</ele><time>2026-05-05T12:23:44Z</time></trkpt><trkpt lat="30.68328227388214" lon="-6.370576301043166"><ele>909.0</ele><time>2026-05-05T12:23:45Z</time></trkpt><trkpt lat="30.683333847391626" lon="-6.370736165388497"><ele>909.0</ele><time>2026-05-05T12:23:46Z</time></trkpt><trkpt lat="30.68336408750285" lon="-6.3709083393566805"><ele>909.0</ele><time>2026-05-05T12:23:47Z</time></trkpt><trkpt lat="30.683382595836765" lon="-6.37108970531645"><ele>909.0</ele><time>2026-05-05T12:23:48Z</time></trkpt><trkpt lat="30.68339321711339" lon="-6.371275931745353"><ele>909.0</ele><time>2026-05-05T12:23:49Z</time></trkpt><trkpt lat="30.683390879009128" lon="-6.371465067180365"><ele>909.0</ele><time>2026-05-05T12:23:50Z</time></trkpt><trkpt lat="30.683372008743305" lon="-6.371654735826846"><ele>910.3333333333333</ele><time>2026-05-05T12:23:51Z</time></trkpt><trkpt lat="30.683341173925456" lon="-6.371837475128318"><ele>911.6666666666666</ele><time>2026-05-05T12:23:52Z</time></trkpt><trkpt lat="30.683314077975247" lon="-6.372013875954125"><ele>913.0</ele><time>2026-05-05T12:23:53Z</time></trkpt><trkpt lat="30.68330103177839" lon="-6.372187623916568"><ele>913.0</ele><time>2026-05-05T12:23:54Z</time></trkpt><trkpt lat="30.68329488535713" lon="-6.372364733431725"><ele>913.0</ele><time>2026-05-05T12:23:55Z</time></trkpt><trkpt lat="30.683289835809163" lon="-6.372544316123036"><ele>913.0</ele><time>2026-05-05T12:23:56Z</time></trkpt><trkpt lat="30.683286154013878" lon="-6.372728719217282"><ele>913.0</ele><time>2026-05-05T12:23:57Z</time></trkpt><trkpt lat="30.68328275699587" lon="-6.37290613100039"><ele>913.0</ele><time>2026-05-05T12:23:58Z</time></trkpt><trkpt lat="30.683276861436063" lon="-6.3730726252582155"><ele>913.0</ele><time>2026-05-05T12:23:59Z</time></trkpt><trkpt lat="30.683265055834227" lon="-6.373229272429618"><ele>913.0</ele><time>2026-05-05T12:24:00Z</time></trkpt><trkpt lat="30.683250673277506" lon="-6.373381937000783"><ele>913.0</ele><time>2026-05-05T12:24:01Z</time></trkpt><trkpt lat="30.68323787812303" lon="-6.373534579930847"><ele>913.0</ele><time>2026-05-05T12:24:02Z</time></trkpt><trkpt lat="30.68323123307482" lon="-6.3736914846107755"><ele>913.0</ele><time>2026-05-05T12:24:03Z</time></trkpt><trkpt lat="30.683229874038158" lon="-6.3738595317469215"><ele>913.0</ele><time>2026-05-05T12:24:04Z</time></trkpt><trkpt lat="30.683231976538874" lon="-6.374025941118107"><ele>913.0</ele><time>2026-05-05T12:24:05Z</time></trkpt><trkpt lat="30.683227994433064" lon="-6.374186501514205"><ele>913.0</ele><time>2026-05-05T12:24:06Z</time></trkpt><trkpt lat="30.683215406371854" lon="-6.374341258595931"><ele>913.0</ele><time>2026-05-05T12:24:07Z</time></trkpt><trkpt lat="30.683185013964554" lon="-6.374485385657505"><ele>913.0</ele><time>2026-05-05T12:24:08Z</time></trkpt><trkpt lat="30.683146732328304" lon="-6.374623176088536"><ele>913.25</ele><time>2026-05-05T12:24:09Z</time></trkpt><trkpt lat="30.683113438930597" lon="-6.3747571515385095"><ele>913.5</ele><time>2026-05-05T12:24:10Z</time></trkpt><trkpt lat="30.683094807135788" lon="-6.374896346878044"><ele>913.75</ele><time>2026-05-05T12:24:11Z</time></trkpt><trkpt lat="30.683090079106233" lon="-6.375031851131192"><ele>914.0</ele><time>2026-05-05T12:24:12Z</time></trkpt><trkpt lat="30.683079192942" lon="-6.375154686334134"><ele>914.0</ele><time>2026-05-05T12:24:13Z</time></trkpt><trkpt lat="30.683040865987675" lon="-6.37527856304618"><ele>914.0</ele><time>2026-05-05T12:24:14Z</time></trkpt><trkpt lat="30.68296248550657" lon="-6.375396679579564"><ele>914.0</ele><time>2026-05-05T12:24:15Z</time></trkpt><trkpt lat="30.682861513119118" lon="-6.3755180010157195"><ele>914.0</ele><time>2026-05-05T12:24:16Z</time></trkpt><trkpt lat="30.682774800383275" lon="-6.375642320196305"><ele>912.75</ele><time>2026-05-05T12:24:17Z</time></trkpt><trkpt lat="30.68271081994145" lon="-6.3757769879368915"><ele>911.5</ele><time>2026-05-05T12:24:18Z</time></trkpt><trkpt lat="30.682674852585823" lon="-6.375924152183226"><ele>910.25</ele><time>2026-05-05T12:24:19Z</time></trkpt><trkpt lat="30.682671059644544" lon="-6.376089868226937"><ele>909.0</ele><time>2026-05-05T12:24:20Z</time></trkpt><trkpt lat="30.682672927139226" lon="-6.376260128398048"><ele>910.3333333333333</ele><time>2026-05-05T12:24:21Z</time></trkpt><trkpt lat="30.68262358440196" lon="-6.376415377258318"><ele>911.6666666666666</ele><time>2026-05-05T12:24:22Z</time></trkpt><trkpt lat="30.682538651899105" lon="-6.376565643984166"><ele>913.0</ele><time>2026-05-05T12:24:23Z</time></trkpt><trkpt lat="30.682429641535293" lon="-6.376711635976597"><ele>913.0</ele><time>2026-05-05T12:24:24Z</time></trkpt><trkpt lat="30.682307678493753" lon="-6.3768555240028135"><ele>913.0</ele><time>2026-05-05T12:24:25Z</time></trkpt><trkpt lat="30.68218539440523" lon="-6.377016130736951"><ele>913.0</ele><time>2026-05-05T12:24:26Z</time></trkpt><trkpt lat="30.682064842774587" lon="-6.377187143547756"><ele>912.3333333333333</ele><time>2026-05-05T12:24:27Z</time></trkpt><trkpt lat="30.681944737875163" lon="-6.377361207394066"><ele>911.6666666666667</ele><time>2026-05-05T12:24:28Z</time></trkpt><trkpt lat="30.68182675715338" lon="-6.3775325917473715"><ele>911.0</ele><time>2026-05-05T12:24:29Z</time></trkpt><trkpt lat="30.681710008399214" lon="-6.377708744795794"><ele>911.0</ele><time>2026-05-05T12:24:30Z</time></trkpt><trkpt lat="30.681617645718955" lon="-6.377880026974762"><ele>911.0</ele><time>2026-05-05T12:24:31Z</time></trkpt><trkpt lat="30.681557779587404" lon="-6.378063498823645"><ele>911.0</ele><time>2026-05-05T12:24:32Z</time></trkpt><trkpt lat="30.681519850518796" lon="-6.378260470011039"><ele>912.3333333333334</ele><time>2026-05-05T12:24:33Z</time></trkpt><trkpt lat="30.681477948276896" lon="-6.378449695910981"><ele>913.6666666666667</ele><time>2026-05-05T12:24:34Z</time></trkpt><trkpt lat="30.681418195767705" lon="-6.378618294136274"><ele>915.0</ele><time>2026-05-05T12:24:35Z</time></trkpt><trkpt lat="30.68132126046719" lon="-6.378760062874639"><ele>914.3333333333333</ele><time>2026-05-05T12:24:36Z</time></trkpt><trkpt lat="30.68119740506788" lon="-6.378867739587999"><ele>913.6666666666666</ele><time>2026-05-05T12:24:37Z</time></trkpt><trkpt lat="30.68105704804123" lon="-6.378943596332723"><ele>913.0</ele><time>2026-05-05T12:24:38Z</time></trkpt><trkpt lat="30.680916408825237" lon="-6.379029591653249"><ele>913.0</ele><time>2026-05-05T12:24:39Z</time></trkpt><trkpt lat="30.680796811028866" lon="-6.37915717853811"><ele>913.0</ele><time>2026-05-05T12:24:40Z</time></trkpt><trkpt lat="30.68068197410006" lon="-6.37930259073048"><ele>913.0</ele><time>2026-05-05T12:24:41Z</time></trkpt><trkpt lat="30.680575388226465" lon="-6.379435891060397"><ele>913.0</ele><time>2026-05-05T12:24:42Z</time></trkpt><trkpt lat="30.680493439530796" lon="-6.379578381806591"><ele>913.0</ele><time>2026-05-05T12:24:43Z</time></trkpt><trkpt lat="30.68045302677692" lon="-6.379749735391299"><ele>913.0</ele><time>2026-05-05T12:24:44Z</time></trkpt><trkpt lat="30.68042143425106" lon="-6.379929551522355"><ele>913.6666666666666</ele><time>2026-05-05T12:24:45Z</time></trkpt><trkpt lat="30.68036488627235" lon="-6.380090978633476"><ele>914.3333333333333</ele><time>2026-05-05T12:24:46Z</time></trkpt><trkpt lat="30.68026980474282" lon="-6.3802459053104235"><ele>915.0</ele><time>2026-05-05T12:24:47Z</time></trkpt><trkpt lat="30.6801740301863" lon="-6.38039035683376"><ele>914.5</ele><time>2026-05-05T12:24:48Z</time></trkpt><trkpt lat="30.68008939102571" lon="-6.380524793742847"><ele>914.0</ele><time>2026-05-05T12:24:49Z</time></trkpt><trkpt lat="30.679991032499775" lon="-6.380647245745484"><ele>913.5</ele><time>2026-05-05T12:24:50Z</time></trkpt><trkpt lat="30.679873819496365" lon="-6.380759715405733"><ele>913.0</ele><time>2026-05-05T12:24:51Z</time></trkpt><trkpt lat="30.67975458316521" lon="-6.380875617819602"><ele>913.0</ele><time>2026-05-05T12:24:52Z</time></trkpt><trkpt lat="30.679656778788694" lon="-6.380992160576548"><ele>913.0</ele><time>2026-05-05T12:24:53Z</time></trkpt><trkpt lat="30.679576657575975" lon="-6.381127208930518"><ele>913.0</ele><time>2026-05-05T12:24:54Z</time></trkpt><trkpt lat="30.67950293086424" lon="-6.381278095571715"><ele>913.0</ele><time>2026-05-05T12:24:55Z</time></trkpt><trkpt lat="30.679440598350524" lon="-6.381436455602583"><ele>911.6666666666666</ele><time>2026-05-05T12:24:56Z</time></trkpt><trkpt lat="30.679382898884917" lon="-6.381604681156286"><ele>910.3333333333333</ele><time>2026-05-05T12:24:57Z</time></trkpt><trkpt lat="30.67932419007725" lon="-6.38177649588545"><ele>909.0</ele><time>2026-05-05T12:24:58Z</time></trkpt><trkpt lat="30.679262441251915" lon="-6.381940531777624"><ele>909.0</ele><time>2026-05-05T12:24:59Z</time></trkpt><trkpt lat="30.679195848044134" lon="-6.38208775672837"><ele>909.0</ele><time>2026-05-05T12:25:00Z</time></trkpt><trkpt lat="30.679123833394083" lon="-6.3822242222001835"><ele>909.0</ele><time>2026-05-05T12:25:01Z</time></trkpt><trkpt lat="30.679051565523686" lon="-6.382359737289693"><ele>909.0</ele><time>2026-05-05T12:25:02Z</time></trkpt><trkpt lat="30.67897659652237" lon="-6.382495501641915"><ele>909.25</ele><time>2026-05-05T12:25:03Z</time></trkpt><trkpt lat="30.67890238928715" lon="-6.382629005064676"><ele>909.5</ele><time>2026-05-05T12:25:04Z</time></trkpt><trkpt lat="30.678837321065615" lon="-6.382752036495408"><ele>909.75</ele><time>2026-05-05T12:25:05Z</time></trkpt><trkpt lat="30.678768799282064" lon="-6.382882008838092"><ele>910.0</ele><time>2026-05-05T12:25:06Z</time></trkpt><trkpt lat="30.678700715152967" lon="-6.383008211069557"><ele>910.75</ele><time>2026-05-05T12:25:07Z</time></trkpt><trkpt lat="30.678632029940825" lon="-6.383128151657564"><ele>911.5</ele><time>2026-05-05T12:25:08Z</time></trkpt><trkpt lat="30.67855958527545" lon="-6.383246243527104"><ele>912.25</ele><time>2026-05-05T12:25:09Z</time></trkpt><trkpt lat="30.67848840949868" lon="-6.383367890885924"><ele>913.0</ele><time>2026-05-05T12:25:10Z</time></trkpt><trkpt lat="30.67842331712736" lon="-6.383491799930152"><ele>913.5</ele><time>2026-05-05T12:25:11Z</time></trkpt><trkpt lat="30.678373866392914" lon="-6.383621598799948"><ele>914.0</ele><time>2026-05-05T12:25:12Z</time></trkpt><trkpt lat="30.678345068223333" lon="-6.383754645478698"><ele>914.5</ele><time>2026-05-05T12:25:13Z</time></trkpt><trkpt lat="30.678350197961745" lon="-6.3838874133101005"><ele>915.0</ele><time>2026-05-05T12:25:14Z</time></trkpt><trkpt lat="30.678380476725067" lon="-6.384022772219685"><ele>915.75</ele><time>2026-05-05T12:25:15Z</time></trkpt><trkpt lat="30.67840533758543" lon="-6.384165322302285"><ele>916.5</ele><time>2026-05-05T12:25:16Z</time></trkpt><trkpt lat="30.678403729429174" lon="-6.3843191723405885"><ele>917.25</ele><time>2026-05-05T12:25:17Z</time></trkpt><trkpt lat="30.678378273548795" lon="-6.384484912727812"><ele>918.0</ele><time>2026-05-05T12:25:18Z</time></trkpt><trkpt lat="30.67834019461562" lon="-6.38465947775212"><ele>918.0</ele><time>2026-05-05T12:25:19Z</time></trkpt><trkpt lat="30.678302208552115" lon="-6.384834622288869"><ele>918.0</ele><time>2026-05-05T12:25:20Z</time></trkpt><trkpt lat="30.67826199225151" lon="-6.385010153131265"><ele>918.0</ele><time>2026-05-05T12:25:21Z</time></trkpt><trkpt lat="30.678219668332538" lon="-6.38518233999432"><ele>918.0</ele><time>2026-05-05T12:25:22Z</time></trkpt><trkpt lat="30.678182168050242" lon="-6.385354361240842"><ele>918.0</ele><time>2026-05-05T12:25:23Z</time></trkpt><trkpt lat="30.67815811741776" lon="-6.385524045877321"><ele>918.0</ele><time>2026-05-05T12:25:24Z</time></trkpt><trkpt lat="30.67817076260867" lon="-6.385697789602105"><ele>918.0</ele><time>2026-05-05T12:25:25Z</time></trkpt><trkpt lat="30.678166763963148" lon="-6.385871257736815"><ele>918.0</ele><time>2026-05-05T12:25:26Z</time></trkpt><trkpt lat="30.67817862625971" lon="-6.3860481635841735"><ele>918.0</ele><time>2026-05-05T12:25:27Z</time></trkpt><trkpt lat="30.67817234553503" lon="-6.386223999736154"><ele>917.6666666666667</ele><time>2026-05-05T12:25:28Z</time></trkpt><trkpt lat="30.67814506894557" lon="-6.386400941952215"><ele>917.3333333333334</ele><time>2026-05-05T12:25:29Z</time></trkpt><trkpt lat="30.67810667006716" lon="-6.386578383070892"><ele>917.0</ele><time>2026-05-05T12:25:30Z</time></trkpt><trkpt lat="30.678067618493394" lon="-6.386753036369833"><ele>917.0</ele><time>2026-05-05T12:25:31Z</time></trkpt><trkpt lat="30.678025125263183" lon="-6.386930404699782"><ele>917.0</ele><time>2026-05-05T12:25:32Z</time></trkpt><trkpt lat="30.677975444258735" lon="-6.387105570407161"><ele>917.0</ele><time>2026-05-05T12:25:33Z</time></trkpt><trkpt lat="30.677920436480687" lon="-6.387282196832296"><ele>916.3333333333334</ele><time>2026-05-05T12:25:34Z</time></trkpt><trkpt lat="30.67787554792432" lon="-6.387460197592376"><ele>915.6666666666667</ele><time>2026-05-05T12:25:35Z</time></trkpt><trkpt lat="30.677840631323846" lon="-6.387642673976845"><ele>915.0</ele><time>2026-05-05T12:25:36Z</time></trkpt><trkpt lat="30.67780120620783" lon="-6.387823734522624"><ele>915.3333333333333</ele><time>2026-05-05T12:25:37Z</time></trkpt><trkpt lat="30.677748062535112" lon="-6.388000610796359"><ele>915.6666666666666</ele><time>2026-05-05T12:25:38Z</time></trkpt><trkpt lat="30.67769655790201" lon="-6.3881743248132725"><ele>916.0</ele><time>2026-05-05T12:25:39Z</time></trkpt><trkpt lat="30.677652201796956" lon="-6.388350881720762"><ele>916.75</ele><time>2026-05-05T12:25:40Z</time></trkpt><trkpt lat="30.677622727881122" lon="-6.388526811531439"><ele>917.5</ele><time>2026-05-05T12:25:41Z</time></trkpt><trkpt lat="30.67760509622106" lon="-6.388699917153583"><ele>918.25</ele><time>2026-05-05T12:25:42Z</time></trkpt><trkpt lat="30.677592401615474" lon="-6.388863280819128"><ele>919.0</ele><time>2026-05-05T12:25:43Z</time></trkpt><trkpt lat="30.677563015466816" lon="-6.3890136489182545"><ele>919.75</ele><time>2026-05-05T12:25:44Z</time></trkpt><trkpt lat="30.677510558517625" lon="-6.3891602693482"><ele>920.5</ele><time>2026-05-05T12:25:45Z</time></trkpt><trkpt lat="30.677437991400446" lon="-6.389295428524912"><ele>921.25</ele><time>2026-05-05T12:25:46Z</time></trkpt><trkpt lat="30.67735842339591" lon="-6.389409693347987"><ele>922.0</ele><time>2026-05-05T12:25:47Z</time></trkpt><trkpt lat="30.67727279259754" lon="-6.389528450675862"><ele>922.0</ele><time>2026-05-05T12:25:48Z</time></trkpt><trkpt lat="30.677188791538125" lon="-6.389658745752581"><ele>922.0</ele><time>2026-05-05T12:25:49Z</time></trkpt><trkpt lat="30.677103055274735" lon="-6.389800459084565"><ele>922.0</ele><time>2026-05-05T12:25:50Z</time></trkpt><trkpt lat="30.677017980829" lon="-6.389949165350615"><ele>922.0</ele><time>2026-05-05T12:25:51Z</time></trkpt><trkpt lat="30.67693986808698" lon="-6.390101857677251"><ele>921.3333333333333</ele><time>2026-05-05T12:25:52Z</time></trkpt><trkpt lat="30.676861539177793" lon="-6.390259755708757"><ele>920.6666666666667</ele><time>2026-05-05T12:25:53Z</time></trkpt><trkpt lat="30.676790532570806" lon="-6.390420487588909"><ele>920.0</ele><time>2026-05-05T12:25:54Z</time></trkpt><trkpt lat="30.67673018848366" lon="-6.390586269735936"><ele>919.75</ele><time>2026-05-05T12:25:55Z</time></trkpt><trkpt lat="30.67668634390294" lon="-6.390757702811974"><ele>919.5</ele><time>2026-05-05T12:25:56Z</time></trkpt><trkpt lat="30.676661071144853" lon="-6.390928090354649"><ele>919.25</ele><time>2026-05-05T12:25:57Z</time></trkpt><trkpt lat="30.676647553415417" lon="-6.39109747779451"><ele>919.0</ele><time>2026-05-05T12:25:58Z</time></trkpt><trkpt lat="30.67664228080736" lon="-6.391275415664016"><ele>917.6666666666666</ele><time>2026-05-05T12:25:59Z</time></trkpt><trkpt lat="30.676621037358654" lon="-6.3914521921968195"><ele>916.3333333333333</ele><time>2026-05-05T12:26:00Z</time></trkpt><trkpt lat="30.6765602683846" lon="-6.391622638048114"><ele>915.0</ele><time>2026-05-05T12:26:01Z</time></trkpt><trkpt lat="30.676477054695575" lon="-6.391784466503962"><ele>915.0</ele><time>2026-05-05T12:26:02Z</time></trkpt><trkpt lat="30.676394704296058" lon="-6.391941234604373"><ele>915.0</ele><time>2026-05-05T12:26:03Z</time></trkpt><trkpt lat="30.676321254741165" lon="-6.3920902549569965"><ele>915.0</ele><time>2026-05-05T12:26:04Z</time></trkpt><trkpt lat="30.676259017328842" lon="-6.392219594260512"><ele>915.0</ele><time>2026-05-05T12:26:05Z</time></trkpt><trkpt lat="30.67620293823723" lon="-6.392328325367148"><ele>914.8333333333334</ele><time>2026-05-05T12:26:06Z</time></trkpt><trkpt lat="30.67615020150095" lon="-6.392421557050629"><ele>914.6666666666667</ele><time>2026-05-05T12:26:07Z</time></trkpt><trkpt lat="30.676095025451133" lon="-6.392498867861664"><ele>914.5</ele><time>2026-05-05T12:26:08Z</time></trkpt><trkpt lat="30.676038107879485" lon="-6.392563445968098"><ele>914.3333333333334</ele><time>2026-05-05T12:26:09Z</time></trkpt><trkpt lat="30.67598820676559" lon="-6.392609970174763"><ele>914.1666666666667</ele><time>2026-05-05T12:26:10Z</time></trkpt><trkpt lat="30.67593069685513" lon="-6.39265962405547"><ele>914.0</ele><time>2026-05-05T12:26:12Z</time></trkpt><trkpt lat="30.67582584415883" lon="-6.392728188935859"><ele>913.2</ele><time>2026-05-05T12:26:37Z</time></trkpt><trkpt lat="30.67575882908215" lon="-6.392782180367676"><ele>912.4000000000001</ele><time>2026-05-05T12:26:38Z</time></trkpt><trkpt lat="30.675692518885743" lon="-6.392860794238445"><ele>911.6</ele><time>2026-05-05T12:26:39Z</time></trkpt><trkpt lat="30.675643616079096" lon="-6.392970315701021"><ele>910.8</ele><time>2026-05-05T12:26:40Z</time></trkpt><trkpt lat="30.67561605693523" lon="-6.393107405979227"><ele>910.0</ele><time>2026-05-05T12:26:41Z</time></trkpt><trkpt lat="30.67559986698171" lon="-6.393254349899242"><ele>910.0</ele><time>2026-05-05T12:26:42Z</time></trkpt><trkpt lat="30.675586702880953" lon="-6.393420351807633"><ele>910.0</ele><time>2026-05-05T12:26:43Z</time></trkpt><trkpt lat="30.675574199306613" lon="-6.393599510403186"><ele>910.0</ele><time>2026-05-05T12:26:44Z</time></trkpt><trkpt lat="30.675561145370455" lon="-6.39377684874137"><ele>912.3333333333333</ele><time>2026-05-05T12:26:45Z</time></trkpt><trkpt lat="30.675550021450107" lon="-6.393960561458281"><ele>914.6666666666667</ele><time>2026-05-05T12:26:46Z</time></trkpt><trkpt lat="30.67554104621322" lon="-6.3941430682137295"><ele>917.0</ele><time>2026-05-05T12:26:47Z</time></trkpt><trkpt lat="30.67553218596578" lon="-6.394324398336661"><ele>917.0</ele><time>2026-05-05T12:26:48Z</time></trkpt><trkpt lat="30.675512927585817" lon="-6.394500774312354"><ele>917.0</ele><time>2026-05-05T12:26:49Z</time></trkpt><trkpt lat="30.675476261473936" lon="-6.394670594520987"><ele>917.0</ele><time>2026-05-05T12:26:50Z</time></trkpt><trkpt lat="30.67542888948404" lon="-6.39484216591922"><ele>916.0</ele><time>2026-05-05T12:26:51Z</time></trkpt><trkpt lat="30.67537290937863" lon="-6.39501627979677"><ele>915.0</ele><time>2026-05-05T12:26:52Z</time></trkpt><trkpt lat="30.675314210595232" lon="-6.395187461291092"><ele>914.0</ele><time>2026-05-05T12:26:53Z</time></trkpt><trkpt lat="30.675254170842184" lon="-6.395354566556729"><ele>913.6666666666667</ele><time>2026-05-05T12:26:54Z</time></trkpt><trkpt lat="30.67518621834535" lon="-6.395520289999303"><ele>913.3333333333333</ele><time>2026-05-05T12:26:55Z</time></trkpt><trkpt lat="30.675116694496953" lon="-6.395676156879958"><ele>913.0</ele><time>2026-05-05T12:26:56Z</time></trkpt><trkpt lat="30.675048029292324" lon="-6.395825679364142"><ele>913.0</ele><time>2026-05-05T12:26:57Z</time></trkpt><trkpt lat="30.67499139928355" lon="-6.395985545855668"><ele>913.0</ele><time>2026-05-05T12:26:58Z</time></trkpt><trkpt lat="30.67495565246444" lon="-6.3961441125912355"><ele>913.0</ele><time>2026-05-05T12:26:59Z</time></trkpt><trkpt lat="30.674926223102236" lon="-6.396304540094542"><ele>913.0</ele><time>2026-05-05T12:27:00Z</time></trkpt><trkpt lat="30.674892468780346" lon="-6.396450517341164"><ele>913.3333333333333</ele><time>2026-05-05T12:27:01Z</time></trkpt><trkpt lat="30.674910237198187" lon="-6.396628389574779"><ele>913.6666666666667</ele><time>2026-05-05T12:27:02Z</time></trkpt><trkpt lat="30.674933756077593" lon="-6.396810923155495"><ele>914.0</ele><time>2026-05-05T12:27:03Z</time></trkpt><trkpt lat="30.67493094322004" lon="-6.396997550708823"><ele>913.6666666666667</ele><time>2026-05-05T12:27:04Z</time></trkpt><trkpt lat="30.674928486237114" lon="-6.397188301939077"><ele>913.3333333333333</ele><time>2026-05-05T12:27:05Z</time></trkpt><trkpt lat="30.674945641571227" lon="-6.397382446028455"><ele>913.0</ele><time>2026-05-05T12:27:06Z</time></trkpt><trkpt lat="30.67497464178997" lon="-6.397578265461328"><ele>913.0</ele><time>2026-05-05T12:27:07Z</time></trkpt><trkpt lat="30.67500237988789" lon="-6.397781168347781"><ele>913.0</ele><time>2026-05-05T12:27:08Z</time></trkpt><trkpt lat="30.675034161242102" lon="-6.397979527448169"><ele>913.0</ele><time>2026-05-05T12:27:09Z</time></trkpt><trkpt lat="30.6750626911654" lon="-6.398166665975056"><ele>912.6666666666666</ele><time>2026-05-05T12:27:10Z</time></trkpt><trkpt lat="30.675090783438012" lon="-6.398351308121397"><ele>912.3333333333333</ele><time>2026-05-05T12:27:11Z</time></trkpt><trkpt lat="30.675114332818477" lon="-6.398541583530502"><ele>912.0</ele><time>2026-05-05T12:27:12Z</time></trkpt><trkpt lat="30.675137515879722" lon="-6.398739286055145"><ele>912.0</ele><time>2026-05-05T12:27:13Z</time></trkpt><trkpt lat="30.67516960927296" lon="-6.398928060206322"><ele>912.0</ele><time>2026-05-05T12:27:14Z</time></trkpt><trkpt lat="30.675218330001293" lon="-6.399124623660638"><ele>912.0</ele><time>2026-05-05T12:27:15Z</time></trkpt><trkpt lat="30.67527188808844" lon="-6.399297343554047"><ele>912.0</ele><time>2026-05-05T12:27:16Z</time></trkpt><trkpt lat="30.675318929419543" lon="-6.399434115624769"><ele>912.0</ele><time>2026-05-05T12:27:17Z</time></trkpt><trkpt lat="30.67535333050953" lon="-6.3995636999517185"><ele>912.0</ele><time>2026-05-05T12:27:18Z</time></trkpt><trkpt lat="30.67537685790301" lon="-6.3996809893603395"><ele>912.0</ele><time>2026-05-05T12:27:19Z</time></trkpt><trkpt lat="30.6754003504941" lon="-6.399819756764565"><ele>911.75</ele><time>2026-05-05T12:27:20Z</time></trkpt><trkpt lat="30.675391505969586" lon="-6.399980076674144"><ele>911.5</ele><time>2026-05-05T12:27:21Z</time></trkpt><trkpt lat="30.6753936335124" lon="-6.400159884978136"><ele>911.25</ele><time>2026-05-05T12:27:22Z</time></trkpt><trkpt lat="30.67539464749905" lon="-6.400340450620591"><ele>911.0</ele><time>2026-05-05T12:27:23Z</time></trkpt><trkpt lat="30.675404823325913" lon="-6.400532913056248"><ele>911.0</ele><time>2026-05-05T12:27:24Z</time></trkpt><trkpt lat="30.67540877536684" lon="-6.400728644815668"><ele>911.0</ele><time>2026-05-05T12:27:25Z</time></trkpt><trkpt lat="30.675414721249272" lon="-6.400923930086038"><ele>911.0</ele><time>2026-05-05T12:27:26Z</time></trkpt><trkpt lat="30.675421340155527" lon="-6.401130301424726"><ele>911.3333333333334</ele><time>2026-05-05T12:27:27Z</time></trkpt><trkpt lat="30.675423718613448" lon="-6.401337850426748"><ele>911.6666666666667</ele><time>2026-05-05T12:27:28Z</time></trkpt><trkpt lat="30.67542164749823" lon="-6.401540893458697"><ele>912.0</ele><time>2026-05-05T12:27:29Z</time></trkpt><trkpt lat="30.675423332934987" lon="-6.401749908532298"><ele>912.0</ele><time>2026-05-05T12:27:30Z</time></trkpt><trkpt lat="30.675423212661492" lon="-6.4019559199646014"><ele>912.0</ele><time>2026-05-05T12:27:31Z</time></trkpt><trkpt lat="30.67542331570632" lon="-6.40215980137919"><ele>912.0</ele><time>2026-05-05T12:27:32Z</time></trkpt><trkpt lat="30.675422336332044" lon="-6.4023473943531535"><ele>911.0</ele><time>2026-05-05T12:27:33Z</time></trkpt><trkpt lat="30.67542191507932" lon="-6.402529854724914"><ele>910.0</ele><time>2026-05-05T12:27:34Z</time></trkpt><trkpt lat="30.675409468366308" lon="-6.402706181825801"><ele>909.0</ele><time>2026-05-05T12:27:35Z</time></trkpt><trkpt lat="30.675399527395562" lon="-6.402881293308715"><ele>909.3333333333333</ele><time>2026-05-05T12:27:36Z</time></trkpt><trkpt lat="30.675374060637125" lon="-6.4030611696172075"><ele>909.6666666666666</ele><time>2026-05-05T12:27:37Z</time></trkpt><trkpt lat="30.675346339426742" lon="-6.403241202701734"><ele>910.0</ele><time>2026-05-05T12:27:38Z</time></trkpt><trkpt lat="30.675319255971875" lon="-6.403424932573386"><ele>910.0</ele><time>2026-05-05T12:27:39Z</time></trkpt><trkpt lat="30.675290982561375" lon="-6.403608953411801"><ele>910.0</ele><time>2026-05-05T12:27:40Z</time></trkpt><trkpt lat="30.67525588086142" lon="-6.403787968080131"><ele>910.0</ele><time>2026-05-05T12:27:41Z</time></trkpt><trkpt lat="30.675224232904146" lon="-6.403953868087471"><ele>909.5</ele><time>2026-05-05T12:27:42Z</time></trkpt><trkpt lat="30.67521143796058" lon="-6.404095248796363"><ele>909.0</ele><time>2026-05-05T12:27:43Z</time></trkpt><trkpt lat="30.675202267849667" lon="-6.404248775128977"><ele>908.5</ele><time>2026-05-05T12:27:44Z</time></trkpt><trkpt lat="30.675211240074514" lon="-6.4044143325070655"><ele>908.0</ele><time>2026-05-05T12:27:45Z</time></trkpt><trkpt lat="30.67523389977663" lon="-6.404587921280544"><ele>908.25</ele><time>2026-05-05T12:27:46Z</time></trkpt><trkpt lat="30.67526095773557" lon="-6.4047626563822275"><ele>908.5</ele><time>2026-05-05T12:27:47Z</time></trkpt><trkpt lat="30.67528325678479" lon="-6.404934025384509"><ele>908.75</ele><time>2026-05-05T12:27:48Z</time></trkpt><trkpt lat="30.675302307018242" lon="-6.405097157523006"><ele>909.0</ele><time>2026-05-05T12:27:49Z</time></trkpt><trkpt lat="30.67532604853119" lon="-6.405249184990382"><ele>909.0</ele><time>2026-05-05T12:27:50Z</time></trkpt><trkpt lat="30.675345435327394" lon="-6.405393330616347"><ele>909.0</ele><time>2026-05-05T12:27:51Z</time></trkpt><trkpt lat="30.675347162684297" lon="-6.405532751062679"><ele>909.0</ele><time>2026-05-05T12:27:52Z</time></trkpt><trkpt lat="30.67532258295586" lon="-6.405680791705097"><ele>909.0</ele><time>2026-05-05T12:27:53Z</time></trkpt><trkpt lat="30.675282276266334" lon="-6.405826062308762"><ele>909.0</ele><time>2026-05-05T12:27:54Z</time></trkpt><trkpt lat="30.67523197090742" lon="-6.40596756883596"><ele>909.0</ele><time>2026-05-05T12:27:55Z</time></trkpt><trkpt lat="30.675176373461237" lon="-6.406100297828788"><ele>909.0</ele><time>2026-05-05T12:27:56Z</time></trkpt><trkpt lat="30.675116367841518" lon="-6.406226446950515"><ele>909.0</ele><time>2026-05-05T12:27:57Z</time></trkpt><trkpt lat="30.675066339404403" lon="-6.406331281054803"><ele>908.6666666666666</ele><time>2026-05-05T12:27:58Z</time></trkpt><trkpt lat="30.675026007837836" lon="-6.406422022106604"><ele>908.3333333333333</ele><time>2026-05-05T12:27:59Z</time></trkpt><trkpt lat="30.67499005525949" lon="-6.406503554179618"><ele>908.0</ele><time>2026-05-05T12:28:00Z</time></trkpt><trkpt lat="30.674958384031456" lon="-6.406582648257036"><ele>907.6666666666666</ele><time>2026-05-05T12:28:01Z</time></trkpt><trkpt lat="30.67493056260734" lon="-6.406649257950083"><ele>907.3333333333333</ele><time>2026-05-05T12:28:02Z</time></trkpt><trkpt lat="30.674885686739856" lon="-6.406754005992869"><ele>907.0</ele><time>2026-05-05T12:28:04Z</time></trkpt><trkpt lat="30.674858059877273" lon="-6.406838972613745"><ele>907.0</ele><time>2026-05-05T12:28:06Z</time></trkpt><trkpt lat="30.674813970646536" lon="-6.4069284913896745"><ele>907.0</ele><time>2026-05-05T12:28:08Z</time></trkpt><trkpt lat="30.674764307991286" lon="-6.40703053998056"><ele>907.0</ele><time>2026-05-05T12:28:10Z</time></trkpt><trkpt lat="30.674712124398543" lon="-6.407155380507298"><ele>907.0</ele><time>2026-05-05T12:28:12Z</time></trkpt><trkpt lat="30.674669843024443" lon="-6.40727502490023"><ele>907.0</ele><time>2026-05-05T12:28:14Z</time></trkpt><trkpt lat="30.6745996715086" lon="-6.407412490845438"><ele>907.25</ele><time>2026-05-05T12:28:16Z</time></trkpt><trkpt lat="30.674577704931824" lon="-6.407532561178338"><ele>907.5</ele><time>2026-05-05T12:28:18Z</time></trkpt><trkpt lat="30.674668995819122" lon="-6.40769939455422"><ele>907.75</ele><time>2026-05-05T12:28:20Z</time></trkpt><trkpt lat="30.674740032121047" lon="-6.407770722583564"><ele>908.0</ele><time>2026-05-05T12:28:21Z</time></trkpt><trkpt lat="30.674805770039317" lon="-6.407878508811272"><ele>908.0</ele><time>2026-05-05T12:28:22Z</time></trkpt><trkpt lat="30.674873859429105" lon="-6.407992261383111"><ele>908.0</ele><time>2026-05-05T12:28:23Z</time></trkpt><trkpt lat="30.674945115363837" lon="-6.408112613586955"><ele>908.0</ele><time>2026-05-05T12:28:24Z</time></trkpt><trkpt lat="30.67502525639739" lon="-6.408246952449817"><ele>908.0</ele><time>2026-05-05T12:28:25Z</time></trkpt><trkpt lat="30.675100271643664" lon="-6.408379053822151"><ele>910.0</ele><time>2026-05-05T12:28:26Z</time></trkpt><trkpt lat="30.675185942227994" lon="-6.408519074572086"><ele>912.0</ele><time>2026-05-05T12:28:27Z</time></trkpt><trkpt lat="30.675275240055164" lon="-6.408663538435264"><ele>914.0</ele><time>2026-05-05T12:28:28Z</time></trkpt><trkpt lat="30.67536440100865" lon="-6.408808856535884"><ele>913.6666666666667</ele><time>2026-05-05T12:28:29Z</time></trkpt><trkpt lat="30.675451653705238" lon="-6.408958378864922"><ele>913.3333333333333</ele><time>2026-05-05T12:28:30Z</time></trkpt><trkpt lat="30.67553695776988" lon="-6.409109517463602"><ele>913.0</ele><time>2026-05-05T12:28:31Z</time></trkpt><trkpt lat="30.675623289073997" lon="-6.409264414004805"><ele>913.0</ele><time>2026-05-05T12:28:32Z</time></trkpt><trkpt lat="30.67571318223973" lon="-6.40941106866574"><ele>913.0</ele><time>2026-05-05T12:28:33Z</time></trkpt><trkpt lat="30.675801106962233" lon="-6.40956113823258"><ele>913.0</ele><time>2026-05-05T12:28:34Z</time></trkpt><trkpt lat="30.675891132256695" lon="-6.4097147730617445"><ele>913.3333333333333</ele><time>2026-05-05T12:28:35Z</time></trkpt><trkpt lat="30.675980869661675" lon="-6.40987131828832"><ele>913.6666666666667</ele><time>2026-05-05T12:28:36Z</time></trkpt><trkpt lat="30.67607200224518" lon="-6.41002511386347"><ele>914.0</ele><time>2026-05-05T12:28:37Z</time></trkpt><trkpt lat="30.676170387361736" lon="-6.410177015135881"><ele>914.0</ele><time>2026-05-05T12:28:38Z</time></trkpt><trkpt lat="30.676279976420783" lon="-6.410327466744883"><ele>914.0</ele><time>2026-05-05T12:28:39Z</time></trkpt><trkpt lat="30.67640465044141" lon="-6.410463857086265"><ele>914.0</ele><time>2026-05-05T12:28:40Z</time></trkpt><trkpt lat="30.676539955880624" lon="-6.410598998076379"><ele>914.3333333333334</ele><time>2026-05-05T12:28:41Z</time></trkpt><trkpt lat="30.676669920941823" lon="-6.410744608131883"><ele>914.6666666666667</ele><time>2026-05-05T12:28:42Z</time></trkpt><trkpt lat="30.67679761225361" lon="-6.410899109157758"><ele>915.0</ele><time>2026-05-05T12:28:43Z</time></trkpt><trkpt lat="30.676924571755453" lon="-6.411058417026501"><ele>915.3333333333333</ele><time>2026-05-05T12:28:44Z</time></trkpt><trkpt lat="30.677045929471753" lon="-6.4112281687493535"><ele>915.6666666666666</ele><time>2026-05-05T12:28:45Z</time></trkpt><trkpt lat="30.677159385183206" lon="-6.4114070005437265"><ele>916.0</ele><time>2026-05-05T12:28:46Z</time></trkpt><trkpt lat="30.677262850249168" lon="-6.4115938831111965"><ele>916.0</ele><time>2026-05-05T12:28:47Z</time></trkpt><trkpt lat="30.677357490104065" lon="-6.41178844436197"><ele>916.0</ele><time>2026-05-05T12:28:48Z</time></trkpt><trkpt lat="30.677451295545502" lon="-6.411984231927808"><ele>916.0</ele><time>2026-05-05T12:28:49Z</time></trkpt><trkpt lat="30.67754675236518" lon="-6.412177685365531"><ele>916.0</ele><time>2026-05-05T12:28:50Z</time></trkpt><trkpt lat="30.67764532137018" lon="-6.412369649917751"><ele>916.0</ele><time>2026-05-05T12:28:51Z</time></trkpt><trkpt lat="30.677744999030875" lon="-6.412563714893334"><ele>916.0</ele><time>2026-05-05T12:28:52Z</time></trkpt><trkpt lat="30.67784249286417" lon="-6.4127606492723785"><ele>916.0</ele><time>2026-05-05T12:28:53Z</time></trkpt><trkpt lat="30.677937383161428" lon="-6.412958708238141"><ele>916.0</ele><time>2026-05-05T12:28:54Z</time></trkpt><trkpt lat="30.67803605226187" lon="-6.413155820424785"><ele>916.0</ele><time>2026-05-05T12:28:55Z</time></trkpt><trkpt lat="30.67813575010611" lon="-6.413351887008786"><ele>916.0</ele><time>2026-05-05T12:28:56Z</time></trkpt><trkpt lat="30.678235072097323" lon="-6.413549058998158"><ele>916.0</ele><time>2026-05-05T12:28:57Z</time></trkpt><trkpt lat="30.67833370219333" lon="-6.4137461354811025"><ele>916.0</ele><time>2026-05-05T12:28:58Z</time></trkpt><trkpt lat="30.678430919778062" lon="-6.413945732303495"><ele>916.0</ele><time>2026-05-05T12:28:59Z</time></trkpt><trkpt lat="30.678520026515667" lon="-6.414153065194476"><ele>916.0</ele><time>2026-05-05T12:29:00Z</time></trkpt><trkpt lat="30.678603630008695" lon="-6.414365333467606"><ele>916.0</ele><time>2026-05-05T12:29:01Z</time></trkpt><trkpt lat="30.67867526370065" lon="-6.414582439271534"><ele>915.3333333333333</ele><time>2026-05-05T12:29:02Z</time></trkpt><trkpt lat="30.678737466454525" lon="-6.414800930515245"><ele>914.6666666666667</ele><time>2026-05-05T12:29:03Z</time></trkpt><trkpt lat="30.67879190930917" lon="-6.415020280805814"><ele>914.0</ele><time>2026-05-05T12:29:04Z</time></trkpt><trkpt lat="30.67884363000023" lon="-6.415240530666274"><ele>914.0</ele><time>2026-05-05T12:29:05Z</time></trkpt><trkpt lat="30.67889152404578" lon="-6.4154609091151205"><ele>914.0</ele><time>2026-05-05T12:29:06Z</time></trkpt><trkpt lat="30.678938568481477" lon="-6.415681676621465"><ele>914.0</ele><time>2026-05-05T12:29:07Z</time></trkpt><trkpt lat="30.678991434339974" lon="-6.415904885877384"><ele>915.0</ele><time>2026-05-05T12:29:08Z</time></trkpt><trkpt lat="30.679046805894462" lon="-6.416124193668142"><ele>916.0</ele><time>2026-05-05T12:29:09Z</time></trkpt><trkpt lat="30.679098833463136" lon="-6.4163442247123905"><ele>917.0</ele><time>2026-05-05T12:29:10Z</time></trkpt><trkpt lat="30.679142182657834" lon="-6.416564366671951"><ele>917.0</ele><time>2026-05-05T12:29:11Z</time></trkpt><trkpt lat="30.67917953775684" lon="-6.416786191522895"><ele>917.0</ele><time>2026-05-05T12:29:12Z</time></trkpt><trkpt lat="30.679213870823315" lon="-6.417010102524745"><ele>917.0</ele><time>2026-05-05T12:29:13Z</time></trkpt><trkpt lat="30.679244636579693" lon="-6.417231047275498"><ele>918.0</ele><time>2026-05-05T12:29:14Z</time></trkpt><trkpt lat="30.679268143983194" lon="-6.417453862175083"><ele>919.0</ele><time>2026-05-05T12:29:15Z</time></trkpt><trkpt lat="30.679291838591087" lon="-6.417679298544077"><ele>920.0</ele><time>2026-05-05T12:29:16Z</time></trkpt><trkpt lat="30.679318794702898" lon="-6.417902215465883"><ele>920.3333333333334</ele><time>2026-05-05T12:29:17Z</time></trkpt><trkpt lat="30.67934254621821" lon="-6.41812406308672"><ele>920.6666666666667</ele><time>2026-05-05T12:29:18Z</time></trkpt><trkpt lat="30.67936054668851" lon="-6.418349995050563"><ele>921.0</ele><time>2026-05-05T12:29:19Z</time></trkpt><trkpt lat="30.679383272331027" lon="-6.418569990052794"><ele>921.0</ele><time>2026-05-05T12:29:20Z</time></trkpt><trkpt lat="30.679408810271763" lon="-6.418790048708159"><ele>921.0</ele><time>2026-05-05T12:29:21Z</time></trkpt><trkpt lat="30.679423914790505" lon="-6.419009279656641"><ele>921.0</ele><time>2026-05-05T12:29:22Z</time></trkpt><trkpt lat="30.679418175022505" lon="-6.419227590986681"><ele>921.6666666666667</ele><time>2026-05-05T12:29:23Z</time></trkpt><trkpt lat="30.679406779430813" lon="-6.419456252275642"><ele>922.3333333333334</ele><time>2026-05-05T12:29:24Z</time></trkpt><trkpt lat="30.67939487253041" lon="-6.4196875041432175"><ele>923.0</ele><time>2026-05-05T12:29:25Z</time></trkpt><trkpt lat="30.67936877987174" lon="-6.419916423052307"><ele>923.0</ele><time>2026-05-05T12:29:26Z</time></trkpt><trkpt lat="30.67932560932811" lon="-6.420139804420566"><ele>923.0</ele><time>2026-05-05T12:29:27Z</time></trkpt><trkpt lat="30.679275342070877" lon="-6.420355623522401"><ele>923.0</ele><time>2026-05-05T12:29:28Z</time></trkpt><trkpt lat="30.679231121324943" lon="-6.420558360714698"><ele>922.6666666666667</ele><time>2026-05-05T12:29:29Z</time></trkpt><trkpt lat="30.67919001655264" lon="-6.420754408620478"><ele>922.3333333333333</ele><time>2026-05-05T12:29:30Z</time></trkpt><trkpt lat="30.679151211369717" lon="-6.420950607347926"><ele>922.0</ele><time>2026-05-05T12:29:31Z</time></trkpt><trkpt lat="30.679112583345287" lon="-6.42114171011746"><ele>922.0</ele><time>2026-05-05T12:29:32Z</time></trkpt><trkpt lat="30.679076123182536" lon="-6.421324264463864"><ele>922.0</ele><time>2026-05-05T12:29:33Z</time></trkpt><trkpt lat="30.679046624498497" lon="-6.421504065329757"><ele>922.0</ele><time>2026-05-05T12:29:34Z</time></trkpt><trkpt lat="30.67902410786367" lon="-6.421683611045558"><ele>922.0</ele><time>2026-05-05T12:29:35Z</time></trkpt><trkpt lat="30.679009185486894" lon="-6.421866334202362"><ele>922.0</ele><time>2026-05-05T12:29:36Z</time></trkpt><trkpt lat="30.679004126288632" lon="-6.422046724251911"><ele>922.0</ele><time>2026-05-05T12:29:37Z</time></trkpt><trkpt lat="30.679006113862407" lon="-6.422222290698774"><ele>921.25</ele><time>2026-05-05T12:29:38Z</time></trkpt><trkpt lat="30.679014763789127" lon="-6.422393886613167"><ele>920.5</ele><time>2026-05-05T12:29:39Z</time></trkpt><trkpt lat="30.67903305423875" lon="-6.422567457339752"><ele>919.75</ele><time>2026-05-05T12:29:40Z</time></trkpt><trkpt lat="30.679053610389367" lon="-6.422739671202655"><ele>919.0</ele><time>2026-05-05T12:29:41Z</time></trkpt><trkpt lat="30.679079888474632" lon="-6.422918695106016"><ele>918.6666666666666</ele><time>2026-05-05T12:29:42Z</time></trkpt><trkpt lat="30.679117970903132" lon="-6.4231007525687875"><ele>918.3333333333333</ele><time>2026-05-05T12:29:43Z</time></trkpt><trkpt lat="30.679167648635847" lon="-6.423290833331855"><ele>918.0</ele><time>2026-05-05T12:29:44Z</time></trkpt><trkpt lat="30.67925075708694" lon="-6.42348493981579"><ele>918.0</ele><time>2026-05-05T12:29:45Z</time></trkpt><trkpt lat="30.679326994331536" lon="-6.423694582793839"><ele>918.0</ele><time>2026-05-05T12:29:46Z</time></trkpt><trkpt lat="30.679405476071125" lon="-6.423914248810442"><ele>918.0</ele><time>2026-05-05T12:29:47Z</time></trkpt><trkpt lat="30.679479246404448" lon="-6.424147404280022"><ele>918.3333333333333</ele><time>2026-05-05T12:29:48Z</time></trkpt><trkpt lat="30.67957360927148" lon="-6.424370346229756"><ele>918.6666666666666</ele><time>2026-05-05T12:29:49Z</time></trkpt><trkpt lat="30.679664023577956" lon="-6.4245815722717134"><ele>919.0</ele><time>2026-05-05T12:29:50Z</time></trkpt><trkpt lat="30.679755867408765" lon="-6.424789775677793"><ele>919.6666666666666</ele><time>2026-05-05T12:29:51Z</time></trkpt><trkpt lat="30.679843317047357" lon="-6.424992777651908"><ele>920.3333333333333</ele><time>2026-05-05T12:29:52Z</time></trkpt><trkpt lat="30.679920388632386" lon="-6.425189092442258"><ele>921.0</ele><time>2026-05-05T12:29:53Z</time></trkpt><trkpt lat="30.679992348519278" lon="-6.425375089500423"><ele>921.0</ele><time>2026-05-05T12:29:54Z</time></trkpt><trkpt lat="30.68006530664069" lon="-6.4255597616751725"><ele>921.0</ele><time>2026-05-05T12:29:55Z</time></trkpt><trkpt lat="30.680140094470985" lon="-6.425747366220349"><ele>921.0</ele><time>2026-05-05T12:29:56Z</time></trkpt><trkpt lat="30.68021292007637" lon="-6.425932738376528"><ele>920.0</ele><time>2026-05-05T12:29:57Z</time></trkpt><trkpt lat="30.680283079122695" lon="-6.4261163223524616"><ele>919.0</ele><time>2026-05-05T12:29:58Z</time></trkpt><trkpt lat="30.680352951063007" lon="-6.426298843072223"><ele>918.0</ele><time>2026-05-05T12:29:59Z</time></trkpt><trkpt lat="30.680418212409382" lon="-6.426471314621115"><ele>918.0</ele><time>2026-05-05T12:30:00Z</time></trkpt><trkpt lat="30.680488400952125" lon="-6.426638459364206"><ele>918.0</ele><time>2026-05-05T12:30:01Z</time></trkpt><trkpt lat="30.680560168547395" lon="-6.426811484554678"><ele>918.0</ele><time>2026-05-05T12:30:02Z</time></trkpt><trkpt lat="30.68063454568609" lon="-6.426972817482799"><ele>918.0</ele><time>2026-05-05T12:30:03Z</time></trkpt><trkpt lat="30.680708430869668" lon="-6.427139243881003"><ele>918.0</ele><time>2026-05-05T12:30:04Z</time></trkpt><trkpt lat="30.680782543999744" lon="-6.427303474607716"><ele>918.0</ele><time>2026-05-05T12:30:05Z</time></trkpt><trkpt lat="30.680863548338756" lon="-6.427473444480819"><ele>918.6666666666667</ele><time>2026-05-05T12:30:06Z</time></trkpt><trkpt lat="30.680929864596923" lon="-6.427644926040207"><ele>919.3333333333334</ele><time>2026-05-05T12:30:07Z</time></trkpt><trkpt lat="30.68100885058851" lon="-6.427810592845149"><ele>920.0</ele><time>2026-05-05T12:30:08Z</time></trkpt><trkpt lat="30.68108272013458" lon="-6.427982268610228"><ele>920.6666666666667</ele><time>2026-05-05T12:30:09Z</time></trkpt><trkpt lat="30.681153632655548" lon="-6.42814757560548"><ele>921.3333333333333</ele><time>2026-05-05T12:30:10Z</time></trkpt><trkpt lat="30.68122971739879" lon="-6.4283143181003615"><ele>922.0</ele><time>2026-05-05T12:30:11Z</time></trkpt><trkpt lat="30.681307944413987" lon="-6.4284785244546985"><ele>922.0</ele><time>2026-05-05T12:30:12Z</time></trkpt><trkpt lat="30.68138280125279" lon="-6.428640286067525"><ele>922.0</ele><time>2026-05-05T12:30:13Z</time></trkpt><trkpt lat="30.68146438728362" lon="-6.42880357734109"><ele>922.0</ele><time>2026-05-05T12:30:14Z</time></trkpt><trkpt lat="30.681557787236898" lon="-6.428966967026912"><ele>923.3333333333333</ele><time>2026-05-05T12:30:15Z</time></trkpt><trkpt lat="30.68165706865434" lon="-6.429130470372473"><ele>924.6666666666667</ele><time>2026-05-05T12:30:16Z</time></trkpt><trkpt lat="30.681774115993573" lon="-6.429293089806319"><ele>926.0</ele><time>2026-05-05T12:30:17Z</time></trkpt><trkpt lat="30.681903123848198" lon="-6.429461226846193"><ele>926.3333333333334</ele><time>2026-05-05T12:30:18Z</time></trkpt><trkpt lat="30.68203573997037" lon="-6.429631490222065"><ele>926.6666666666667</ele><time>2026-05-05T12:30:19Z</time></trkpt><trkpt lat="30.682160024975634" lon="-6.429798725881335"><ele>927.0</ele><time>2026-05-05T12:30:20Z</time></trkpt><trkpt lat="30.682279780826402" lon="-6.429957404025736"><ele>927.0</ele><time>2026-05-05T12:30:21Z</time></trkpt><trkpt lat="30.682403765750852" lon="-6.430117898568659"><ele>927.0</ele><time>2026-05-05T12:30:22Z</time></trkpt><trkpt lat="30.682529588052127" lon="-6.430281906447083"><ele>927.0</ele><time>2026-05-05T12:30:23Z</time></trkpt><trkpt lat="30.682640513500935" lon="-6.430448883175142"><ele>927.6666666666667</ele><time>2026-05-05T12:30:24Z</time></trkpt><trkpt lat="30.68275493449356" lon="-6.43059689014506"><ele>928.3333333333334</ele><time>2026-05-05T12:30:25Z</time></trkpt><trkpt lat="30.682853709117182" lon="-6.43074035477932"><ele>929.0</ele><time>2026-05-05T12:30:26Z</time></trkpt><trkpt lat="30.682939625121605" lon="-6.430882751750503"><ele>927.3333333333334</ele><time>2026-05-05T12:30:27Z</time></trkpt><trkpt lat="30.683023187618165" lon="-6.431032998388083"><ele>925.6666666666667</ele><time>2026-05-05T12:30:28Z</time></trkpt><trkpt lat="30.683096291391763" lon="-6.431191544080454"><ele>924.0</ele><time>2026-05-05T12:30:29Z</time></trkpt><trkpt lat="30.68316611407667" lon="-6.431355568718911"><ele>924.0</ele><time>2026-05-05T12:30:30Z</time></trkpt><trkpt lat="30.683232831646603" lon="-6.431529058413136"><ele>924.0</ele><time>2026-05-05T12:30:31Z</time></trkpt><trkpt lat="30.68329284937802" lon="-6.431708047095684"><ele>924.0</ele><time>2026-05-05T12:30:32Z</time></trkpt><trkpt lat="30.683349175241112" lon="-6.4318839314468885"><ele>924.0</ele><time>2026-05-05T12:30:33Z</time></trkpt><trkpt lat="30.68340198374226" lon="-6.43205981555108"><ele>924.0</ele><time>2026-05-05T12:30:34Z</time></trkpt><trkpt lat="30.683451880307544" lon="-6.432234023126343"><ele>924.0</ele><time>2026-05-05T12:30:35Z</time></trkpt><trkpt lat="30.683503830756763" lon="-6.432404841648249"><ele>924.3333333333333</ele><time>2026-05-05T12:30:36Z</time></trkpt><trkpt lat="30.68355726627736" lon="-6.432572192188338"><ele>924.6666666666666</ele><time>2026-05-05T12:30:37Z</time></trkpt><trkpt lat="30.68361078837562" lon="-6.43273858747954"><ele>925.0</ele><time>2026-05-05T12:30:38Z</time></trkpt><trkpt lat="30.683662107612314" lon="-6.43290474516753"><ele>925.3333333333333</ele><time>2026-05-05T12:30:39Z</time></trkpt><trkpt lat="30.683714534250164" lon="-6.433071699168113"><ele>925.6666666666667</ele><time>2026-05-05T12:30:40Z</time></trkpt><trkpt lat="30.68376484566601" lon="-6.433240578073693"><ele>926.0</ele><time>2026-05-05T12:30:41Z</time></trkpt><trkpt lat="30.68381621402454" lon="-6.433414212652798"><ele>926.0</ele><time>2026-05-05T12:30:42Z</time></trkpt><trkpt lat="30.683868491901254" lon="-6.4335872352821655"><ele>926.0</ele><time>2026-05-05T12:30:43Z</time></trkpt><trkpt lat="30.68392131154189" lon="-6.4337604495800855"><ele>926.0</ele><time>2026-05-05T12:30:44Z</time></trkpt><trkpt lat="30.68397622043185" lon="-6.433936359881862"><ele>927.3333333333334</ele><time>2026-05-05T12:30:45Z</time></trkpt><trkpt lat="30.684030834402236" lon="-6.434115137389225"><ele>928.6666666666667</ele><time>2026-05-05T12:30:46Z</time></trkpt><trkpt lat="30.68408577996039" lon="-6.434292455766356"><ele>930.0</ele><time>2026-05-05T12:30:47Z</time></trkpt><trkpt lat="30.684136220463284" lon="-6.434459697013032"><ele>930.0</ele><time>2026-05-05T12:30:48Z</time></trkpt><trkpt lat="30.68418506037726" lon="-6.4346185222790835"><ele>930.0</ele><time>2026-05-05T12:30:49Z</time></trkpt><trkpt lat="30.684233876251536" lon="-6.434773532724474"><ele>930.0</ele><time>2026-05-05T12:30:50Z</time></trkpt><trkpt lat="30.68428276531791" lon="-6.434926199180933"><ele>930.0</ele><time>2026-05-05T12:30:51Z</time></trkpt><trkpt lat="30.684335119377938" lon="-6.435081922473248"><ele>930.0</ele><time>2026-05-05T12:30:52Z</time></trkpt><trkpt lat="30.684383127906912" lon="-6.435238382374425"><ele>930.0</ele><time>2026-05-05T12:30:53Z</time></trkpt><trkpt lat="30.68442572520891" lon="-6.435400083973542"><ele>930.0</ele><time>2026-05-05T12:30:54Z</time></trkpt><trkpt lat="30.684465216210636" lon="-6.435561670319744"><ele>930.0</ele><time>2026-05-05T12:30:55Z</time></trkpt><trkpt lat="30.684507237302352" lon="-6.435723533813757"><ele>930.0</ele><time>2026-05-05T12:30:56Z</time></trkpt><trkpt lat="30.68454438021865" lon="-6.435883275778357"><ele>930.0</ele><time>2026-05-05T12:30:57Z</time></trkpt><trkpt lat="30.684585567424683" lon="-6.436040135827931"><ele>930.0</ele><time>2026-05-05T12:30:58Z</time></trkpt><trkpt lat="30.684625524398793" lon="-6.436202985604999"><ele>930.0</ele><time>2026-05-05T12:30:59Z</time></trkpt><trkpt lat="30.684662699771295" lon="-6.436363109109644"><ele>929.75</ele><time>2026-05-05T12:31:00Z</time></trkpt><trkpt lat="30.684699621916216" lon="-6.436516282917388"><ele>929.5</ele><time>2026-05-05T12:31:01Z</time></trkpt><trkpt lat="30.684735791697584" lon="-6.4366631564727586"><ele>929.25</ele><time>2026-05-05T12:31:02Z</time></trkpt><trkpt lat="30.68476885545486" lon="-6.436803974092706"><ele>929.0</ele><time>2026-05-05T12:31:03Z</time></trkpt><trkpt lat="30.684801412197935" lon="-6.436951589707983"><ele>929.0</ele><time>2026-05-05T12:31:04Z</time></trkpt><trkpt lat="30.68483420043376" lon="-6.437100257652785"><ele>929.0</ele><time>2026-05-05T12:31:05Z</time></trkpt><trkpt lat="30.68486486532914" lon="-6.437250851276536"><ele>929.0</ele><time>2026-05-05T12:31:06Z</time></trkpt><trkpt lat="30.684895355864754" lon="-6.437399913727615"><ele>929.0</ele><time>2026-05-05T12:31:07Z</time></trkpt><trkpt lat="30.684932163983582" lon="-6.437547696420953"><ele>928.75</ele><time>2026-05-05T12:31:08Z</time></trkpt><trkpt lat="30.684969549534905" lon="-6.437697893861009"><ele>928.5</ele><time>2026-05-05T12:31:09Z</time></trkpt><trkpt lat="30.68500415836201" lon="-6.4378500438123645"><ele>928.25</ele><time>2026-05-05T12:31:10Z</time></trkpt><trkpt lat="30.685040701967264" lon="-6.438003129525643"><ele>928.0</ele><time>2026-05-05T12:31:11Z</time></trkpt><trkpt lat="30.685075742036325" lon="-6.438150277946803"><ele>928.0</ele><time>2026-05-05T12:31:12Z</time></trkpt><trkpt lat="30.685110024123468" lon="-6.438296739601204"><ele>928.0</ele><time>2026-05-05T12:31:13Z</time></trkpt><trkpt lat="30.68514339906438" lon="-6.438435749023705"><ele>928.0</ele><time>2026-05-05T12:31:14Z</time></trkpt><trkpt lat="30.6851778388356" lon="-6.438577497502888"><ele>928.0</ele><time>2026-05-05T12:31:15Z</time></trkpt><trkpt lat="30.685210215819193" lon="-6.438723653225627"><ele>928.25</ele><time>2026-05-05T12:31:16Z</time></trkpt><trkpt lat="30.685243610767998" lon="-6.438869601122566"><ele>928.5</ele><time>2026-05-05T12:31:17Z</time></trkpt><trkpt lat="30.685277184358277" lon="-6.439013321968342"><ele>928.75</ele><time>2026-05-05T12:31:18Z</time></trkpt><trkpt lat="30.685312694519578" lon="-6.439155326917581"><ele>929.0</ele><time>2026-05-05T12:31:19Z</time></trkpt><trkpt lat="30.685344542608867" lon="-6.439301930870185"><ele>929.0</ele><time>2026-05-05T12:31:20Z</time></trkpt><trkpt lat="30.685376292653036" lon="-6.439444852398735"><ele>929.0</ele><time>2026-05-05T12:31:21Z</time></trkpt><trkpt lat="30.685409473754223" lon="-6.4395873164132515"><ele>929.0</ele><time>2026-05-05T12:31:22Z</time></trkpt><trkpt lat="30.68544290894992" lon="-6.439728738114168"><ele>929.0</ele><time>2026-05-05T12:31:23Z</time></trkpt><trkpt lat="30.685474233598107" lon="-6.439868492001845"><ele>929.0</ele><time>2026-05-05T12:31:24Z</time></trkpt><trkpt lat="30.685503652681586" lon="-6.440007849075379"><ele>929.0</ele><time>2026-05-05T12:31:25Z</time></trkpt><trkpt lat="30.685535492260712" lon="-6.440144433390436"><ele>929.0</ele><time>2026-05-05T12:31:26Z</time></trkpt><trkpt lat="30.685569940424866" lon="-6.44028176656476"><ele>929.0</ele><time>2026-05-05T12:31:27Z</time></trkpt><trkpt lat="30.685603988701274" lon="-6.4404208615101215"><ele>929.0</ele><time>2026-05-05T12:31:28Z</time></trkpt><trkpt lat="30.685639731835213" lon="-6.440559760723894"><ele>929.0</ele><time>2026-05-05T12:31:29Z</time></trkpt><trkpt lat="30.68567496345898" lon="-6.440698852340955"><ele>929.0</ele><time>2026-05-05T12:31:30Z</time></trkpt><trkpt lat="30.685709388089297" lon="-6.440836576466489"><ele>929.0</ele><time>2026-05-05T12:31:31Z</time></trkpt><trkpt lat="30.68574107828755" lon="-6.440972381180392"><ele>929.0</ele><time>2026-05-05T12:31:32Z</time></trkpt><trkpt lat="30.685770568634574" lon="-6.441104734946039"><ele>929.0</ele><time>2026-05-05T12:31:33Z</time></trkpt><trkpt lat="30.685798882643827" lon="-6.4412396802130205"><ele>929.0</ele><time>2026-05-05T12:31:34Z</time></trkpt><trkpt lat="30.68582813277617" lon="-6.441373004851374"><ele>929.0</ele><time>2026-05-05T12:31:35Z</time></trkpt><trkpt lat="30.685856922439736" lon="-6.441506161952957"><ele>928.75</ele><time>2026-05-05T12:31:36Z</time></trkpt><trkpt lat="30.68588920177721" lon="-6.441637597752154"><ele>928.5</ele><time>2026-05-05T12:31:37Z</time></trkpt><trkpt lat="30.68592391887902" lon="-6.441770453904877"><ele>928.25</ele><time>2026-05-05T12:31:38Z</time></trkpt><trkpt lat="30.685950337430494" lon="-6.4419071458878765"><ele>928.0</ele><time>2026-05-05T12:31:39Z</time></trkpt><trkpt lat="30.685985306641243" lon="-6.442042232861734"><ele>928.75</ele><time>2026-05-05T12:31:40Z</time></trkpt><trkpt lat="30.686022520898938" lon="-6.442175247219295"><ele>929.5</ele><time>2026-05-05T12:31:41Z</time></trkpt><trkpt lat="30.686061670551695" lon="-6.442308298173554"><ele>930.25</ele><time>2026-05-05T12:31:42Z</time></trkpt><trkpt lat="30.686111638973234" lon="-6.442437079989377"><ele>931.0</ele><time>2026-05-05T12:31:43Z</time></trkpt><trkpt lat="30.68616857442652" lon="-6.442565202207018"><ele>931.25</ele><time>2026-05-05T12:31:44Z</time></trkpt><trkpt lat="30.686230368375988" lon="-6.442693915854426"><ele>931.5</ele><time>2026-05-05T12:31:45Z</time></trkpt><trkpt lat="30.68630047736895" lon="-6.442818671776608"><ele>931.75</ele><time>2026-05-05T12:31:46Z</time></trkpt><trkpt lat="30.686375474459822" lon="-6.442941292730647"><ele>932.0</ele><time>2026-05-05T12:31:47Z</time></trkpt><trkpt lat="30.686455340008557" lon="-6.443062606128999"><ele>931.25</ele><time>2026-05-05T12:31:48Z</time></trkpt><trkpt lat="30.68654537609399" lon="-6.443177209192356"><ele>930.5</ele><time>2026-05-05T12:31:49Z</time></trkpt><trkpt lat="30.686638233003098" lon="-6.4432903297964215"><ele>929.75</ele><time>2026-05-05T12:31:50Z</time></trkpt><trkpt lat="30.6867307684397" lon="-6.443404844010575"><ele>929.0</ele><time>2026-05-05T12:31:51Z</time></trkpt><trkpt lat="30.686824505897214" lon="-6.443519956628712"><ele>929.0</ele><time>2026-05-05T12:31:52Z</time></trkpt><trkpt lat="30.686918830394603" lon="-6.443634058038791"><ele>929.0</ele><time>2026-05-05T12:31:53Z</time></trkpt><trkpt lat="30.687012064871716" lon="-6.443741859207042"><ele>929.0</ele><time>2026-05-05T12:31:54Z</time></trkpt><trkpt lat="30.687107434039277" lon="-6.443851170097594"><ele>929.0</ele><time>2026-05-05T12:31:55Z</time></trkpt><trkpt lat="30.687202272612495" lon="-6.4439618792286755"><ele>929.0</ele><time>2026-05-05T12:31:56Z</time></trkpt><trkpt lat="30.687297506428116" lon="-6.444072846254853"><ele>929.0</ele><time>2026-05-05T12:31:57Z</time></trkpt><trkpt lat="30.687393060485284" lon="-6.44418556114456"><ele>929.0</ele><time>2026-05-05T12:31:58Z</time></trkpt><trkpt lat="30.687489807669063" lon="-6.444300670703508"><ele>929.0</ele><time>2026-05-05T12:31:59Z</time></trkpt><trkpt lat="30.687587327611254" lon="-6.444412912958285"><ele>929.0</ele><time>2026-05-05T12:32:00Z</time></trkpt><trkpt lat="30.68768484221681" lon="-6.444527259675607"><ele>929.0</ele><time>2026-05-05T12:32:01Z</time></trkpt><trkpt lat="30.687783477941746" lon="-6.444643566448299"><ele>929.0</ele><time>2026-05-05T12:32:02Z</time></trkpt><trkpt lat="30.68788564231352" lon="-6.444761951015885"><ele>929.0</ele><time>2026-05-05T12:32:03Z</time></trkpt><trkpt lat="30.6879849791094" lon="-6.4448859797136135"><ele>929.0</ele><time>2026-05-05T12:32:04Z</time></trkpt><trkpt lat="30.68808712014685" lon="-6.445009025263834"><ele>929.0</ele><time>2026-05-05T12:32:05Z</time></trkpt><trkpt lat="30.688186492834017" lon="-6.445127363886193"><ele>929.0</ele><time>2026-05-05T12:32:06Z</time></trkpt><trkpt lat="30.68827747512664" lon="-6.445237520769032"><ele>929.0</ele><time>2026-05-05T12:32:07Z</time></trkpt><trkpt lat="30.68837006325905" lon="-6.445344074973666"><ele>929.0</ele><time>2026-05-05T12:32:08Z</time></trkpt><trkpt lat="30.68846986539338" lon="-6.445441846490549"><ele>929.0</ele><time>2026-05-05T12:32:09Z</time></trkpt><trkpt lat="30.688574177066908" lon="-6.445528035095659"><ele>929.0</ele><time>2026-05-05T12:32:10Z</time></trkpt><trkpt lat="30.688684901123754" lon="-6.4456102653177485"><ele>929.0</ele><time>2026-05-05T12:32:11Z</time></trkpt><trkpt lat="30.68880259913066" lon="-6.445682489058311"><ele>929.25</ele><time>2026-05-05T12:32:12Z</time></trkpt><trkpt lat="30.688926354292718" lon="-6.44574284303537"><ele>929.5</ele><time>2026-05-05T12:32:13Z</time></trkpt><trkpt lat="30.68905374431795" lon="-6.445795757607483"><ele>929.75</ele><time>2026-05-05T12:32:14Z</time></trkpt><trkpt lat="30.68917767687995" lon="-6.445839366266905"><ele>930.0</ele><time>2026-05-05T12:32:15Z</time></trkpt><trkpt lat="30.689300427237136" lon="-6.445885747510127"><ele>930.0</ele><time>2026-05-05T12:32:16Z</time></trkpt><trkpt lat="30.689413821375613" lon="-6.445926136135908"><ele>930.0</ele><time>2026-05-05T12:32:17Z</time></trkpt><trkpt lat="30.68951750601032" lon="-6.445963512530547"><ele>930.0</ele><time>2026-05-05T12:32:18Z</time></trkpt><trkpt lat="30.689618496905645" lon="-6.445995526740241"><ele>930.0</ele><time>2026-05-05T12:32:19Z</time></trkpt><trkpt lat="30.689711986732334" lon="-6.4460340223798225"><ele>930.0</ele><time>2026-05-05T12:32:20Z</time></trkpt><trkpt lat="30.689792231364258" lon="-6.446056491733291"><ele>929.6666666666666</ele><time>2026-05-05T12:32:21Z</time></trkpt><trkpt lat="30.68986560230042" lon="-6.446081626118102"><ele>929.3333333333333</ele><time>2026-05-05T12:32:22Z</time></trkpt><trkpt lat="30.689940417305007" lon="-6.446106651604746"><ele>929.0</ele><time>2026-05-05T12:32:23Z</time></trkpt><trkpt lat="30.69002063542878" lon="-6.446133837251942"><ele>928.6666666666666</ele><time>2026-05-05T12:32:24Z</time></trkpt><trkpt lat="30.690107837294" lon="-6.446166517530985"><ele>928.3333333333333</ele><time>2026-05-05T12:32:25Z</time></trkpt><trkpt lat="30.690199775779973" lon="-6.446197589528904"><ele>928.0</ele><time>2026-05-05T12:32:26Z</time></trkpt><trkpt lat="30.690290194204948" lon="-6.446228965599621"><ele>928.0</ele><time>2026-05-05T12:32:27Z</time></trkpt><trkpt lat="30.690383145481167" lon="-6.446262046904586"><ele>928.0</ele><time>2026-05-05T12:32:28Z</time></trkpt><trkpt lat="30.690476988464805" lon="-6.446293150247774"><ele>928.0</ele><time>2026-05-05T12:32:29Z</time></trkpt><trkpt lat="30.69056676623083" lon="-6.446326574668306"><ele>928.0</ele><time>2026-05-05T12:32:30Z</time></trkpt><trkpt lat="30.690658396376957" lon="-6.446359948866074"><ele>928.0</ele><time>2026-05-05T12:32:31Z</time></trkpt><trkpt lat="30.69075356173125" lon="-6.446391792444628"><ele>928.2</ele><time>2026-05-05T12:32:32Z</time></trkpt><trkpt lat="30.690850721177423" lon="-6.446422367210157"><ele>928.4</ele><time>2026-05-05T12:32:33Z</time></trkpt><trkpt lat="30.690943562319067" lon="-6.446454497827236"><ele>928.6000000000001</ele><time>2026-05-05T12:32:34Z</time></trkpt><trkpt lat="30.691035752994814" lon="-6.446485806235121"><ele>928.8000000000001</ele><time>2026-05-05T12:32:35Z</time></trkpt><trkpt lat="30.691129618462725" lon="-6.446519021867121"><ele>929.0</ele><time>2026-05-05T12:32:36Z</time></trkpt><trkpt lat="30.691221521800987" lon="-6.446549774049796"><ele>929.0</ele><time>2026-05-05T12:32:37Z</time></trkpt><trkpt lat="30.69131169000553" lon="-6.446581411825597"><ele>929.0000000000001</ele><time>2026-05-05T12:32:38Z</time></trkpt><trkpt lat="30.69140069891988" lon="-6.44661425348054"><ele>929.0000000000001</ele><time>2026-05-05T12:32:39Z</time></trkpt><trkpt lat="30.69148902792659" lon="-6.446648380763312"><ele>929.0</ele><time>2026-05-05T12:32:40Z</time></trkpt><trkpt lat="30.69157430926313" lon="-6.446681339423108"><ele>929.0</ele><time>2026-05-05T12:32:41Z</time></trkpt><trkpt lat="30.69165353174872" lon="-6.446714202924371"><ele>929.0</ele><time>2026-05-05T12:32:42Z</time></trkpt><trkpt lat="30.69172059069111" lon="-6.446748259932509"><ele>929.0000000000001</ele><time>2026-05-05T12:32:43Z</time></trkpt><trkpt lat="30.691835105241886" lon="-6.446816519520529"><ele>929.0000000000001</ele><time>2026-05-05T12:32:45Z</time></trkpt><trkpt lat="30.69190009507281" lon="-6.446863062497275"><ele>929.0</ele><time>2026-05-05T12:32:46Z</time></trkpt><trkpt lat="30.69197229400015" lon="-6.446924094771175"><ele>929.0</ele><time>2026-05-05T12:32:47Z</time></trkpt><trkpt lat="30.69203574430674" lon="-6.446989482731008"><ele>929.8333333333334</ele><time>2026-05-05T12:32:48Z</time></trkpt><trkpt lat="30.69208589370996" lon="-6.4470550485419285"><ele>930.6666666666667</ele><time>2026-05-05T12:32:49Z</time></trkpt><trkpt lat="30.692127912136684" lon="-6.44710986143715"><ele>931.5</ele><time>2026-05-05T12:32:50Z</time></trkpt><trkpt lat="30.692165258902087" lon="-6.4471711594336885"><ele>932.3333333333333</ele><time>2026-05-05T12:32:51Z</time></trkpt><trkpt lat="30.692207832375736" lon="-6.447256714713501"><ele>933.1666666666666</ele><time>2026-05-05T12:32:52Z</time></trkpt><trkpt lat="30.692268002848007" lon="-6.447343481809305"><ele>934.0</ele><time>2026-05-05T12:32:53Z</time></trkpt><trkpt lat="30.69233846925164" lon="-6.447432320944534"><ele>934.1666666666666</ele><time>2026-05-05T12:32:54Z</time></trkpt><trkpt lat="30.69240557236568" lon="-6.447508977270329"><ele>934.3333333333333</ele><time>2026-05-05T12:32:55Z</time></trkpt><trkpt lat="30.692462626317997" lon="-6.447574482899894"><ele>934.5</ele><time>2026-05-05T12:32:56Z</time></trkpt><trkpt lat="30.692517348609304" lon="-6.447634763920806"><ele>934.6666666666667</ele><time>2026-05-05T12:32:57Z</time></trkpt><trkpt lat="30.692571585798035" lon="-6.447691355974707"><ele>934.8333333333334</ele><time>2026-05-05T12:32:58Z</time></trkpt><trkpt lat="30.692630082354196" lon="-6.447739593926563"><ele>935.0</ele><time>2026-05-05T12:32:59Z</time></trkpt><trkpt lat="30.692682520488944" lon="-6.4477860910003235"><ele>935.5000000000001</ele><time>2026-05-05T12:33:00Z</time></trkpt><trkpt lat="30.69278974817282" lon="-6.447870413236521"><ele>936.0</ele><time>2026-05-05T12:33:02Z</time></trkpt><trkpt lat="30.692851265179257" lon="-6.447900623349374"><ele>936.5</ele><time>2026-05-05T12:33:03Z</time></trkpt><trkpt lat="30.69291386986508" lon="-6.447923339189903"><ele>937.0</ele><time>2026-05-05T12:33:04Z</time></trkpt><trkpt lat="30.69297811892425" lon="-6.447941468069282"><ele>937.5000000000001</ele><time>2026-05-05T12:33:05Z</time></trkpt><trkpt lat="30.693050124159978" lon="-6.447961247434491"><ele>938.0</ele><time>2026-05-05T12:33:06Z</time></trkpt><trkpt lat="30.693123133056005" lon="-6.447978006641321"><ele>937.8333333333334</ele><time>2026-05-05T12:33:07Z</time></trkpt><trkpt lat="30.693198234490303" lon="-6.447991097062112"><ele>937.6666666666667</ele><time>2026-05-05T12:33:08Z</time></trkpt><trkpt lat="30.693269852230095" lon="-6.448003161853077"><ele>937.5</ele><time>2026-05-05T12:33:09Z</time></trkpt><trkpt lat="30.69333665219663" lon="-6.44801041873798"><ele>937.3333333333333</ele><time>2026-05-05T12:33:10Z</time></trkpt><trkpt lat="30.693400484949453" lon="-6.448018072021236"><ele>937.1666666666666</ele><time>2026-05-05T12:33:11Z</time></trkpt><trkpt lat="30.69352030089296" lon="-6.448036783852634"><ele>937.0</ele><time>2026-05-05T12:33:13Z</time></trkpt><trkpt lat="30.693631720396862" lon="-6.448033031392459"><ele>937.0</ele><time>2026-05-05T12:33:15Z</time></trkpt><trkpt lat="30.69374612904468" lon="-6.448039739422155"><ele>937.0</ele><time>2026-05-05T12:33:17Z</time></trkpt><trkpt lat="30.693819250691565" lon="-6.448134274318685"><ele>937.0</ele><time>2026-05-05T12:33:19Z</time></trkpt><trkpt lat="30.693812120529902" lon="-6.4482780977229535"><ele>937.0</ele><time>2026-05-05T12:33:21Z</time></trkpt><trkpt lat="30.693797315800676" lon="-6.448413032763645"><ele>937.0</ele><time>2026-05-05T12:33:23Z</time></trkpt><trkpt lat="30.693794452844468" lon="-6.448493770316834"><ele>937.0</ele><time>2026-05-05T12:33:24Z</time></trkpt><trkpt lat="30.693796473402745" lon="-6.448623061807382"><ele>937.0</ele><time>2026-05-05T12:33:26Z</time></trkpt><trkpt lat="30.69379449593172" lon="-6.448755718182827"><ele>937.0</ele><time>2026-05-05T12:33:28Z</time></trkpt><trkpt lat="30.693797140690037" lon="-6.44890916074749"><ele>937.0</ele><time>2026-05-05T12:33:30Z</time></trkpt><trkpt lat="30.693795035315013" lon="-6.44899604547684"><ele>936.9999999999999</ele><time>2026-05-05T12:33:31Z</time></trkpt><trkpt lat="30.693782927984383" lon="-6.449087780609365"><ele>937.0</ele><time>2026-05-05T12:33:32Z</time></trkpt><trkpt lat="30.693781738754936" lon="-6.4491821915487755"><ele>937.0</ele><time>2026-05-05T12:33:33Z</time></trkpt><trkpt lat="30.693774115473623" lon="-6.449280062617389"><ele>937.0</ele><time>2026-05-05T12:33:34Z</time></trkpt><trkpt lat="30.693764958475622" lon="-6.449380937885228"><ele>936.9999999999999</ele><time>2026-05-05T12:33:35Z</time></trkpt><trkpt lat="30.693753003598903" lon="-6.4494903130455725"><ele>937.0</ele><time>2026-05-05T12:33:36Z</time></trkpt><trkpt lat="30.693745771103835" lon="-6.449596810350152"><ele>936.9999999999999</ele><time>2026-05-05T12:33:37Z</time></trkpt><trkpt lat="30.693738803347486" lon="-6.449700078896901"><ele>937.0</ele><time>2026-05-05T12:33:38Z</time></trkpt><trkpt lat="30.693723326973522" lon="-6.4498053523440175"><ele>937.0</ele><time>2026-05-05T12:33:39Z</time></trkpt><trkpt lat="30.69370988028961" lon="-6.449905579829774"><ele>937.0</ele><time>2026-05-05T12:33:40Z</time></trkpt><trkpt lat="30.693699445251532" lon="-6.450005542941609"><ele>936.9999999999999</ele><time>2026-05-05T12:33:41Z</time></trkpt><trkpt lat="30.693706315088452" lon="-6.450105736604456"><ele>937.0</ele><time>2026-05-05T12:33:42Z</time></trkpt><trkpt lat="30.69369817528087" lon="-6.450205975840268"><ele>937.0</ele><time>2026-05-05T12:33:43Z</time></trkpt><trkpt lat="30.693689168329197" lon="-6.450308566386406"><ele>937.0</ele><time>2026-05-05T12:33:44Z</time></trkpt><trkpt lat="30.693681947260103" lon="-6.450414920716444"><ele>937.0</ele><time>2026-05-05T12:33:45Z</time></trkpt><trkpt lat="30.69367236487312" lon="-6.450528038189632"><ele>937.0</ele><time>2026-05-05T12:33:46Z</time></trkpt><trkpt lat="30.69365947286823" lon="-6.450643069056301"><ele>937.0</ele><time>2026-05-05T12:33:47Z</time></trkpt><trkpt lat="30.693649943875194" lon="-6.450765469216675"><ele>937.0</ele><time>2026-05-05T12:33:48Z</time></trkpt><trkpt lat="30.69364525351118" lon="-6.450892219915678"><ele>937.0</ele><time>2026-05-05T12:33:49Z</time></trkpt><trkpt lat="30.693637982518357" lon="-6.4510192052899615"><ele>937.0</ele><time>2026-05-05T12:33:50Z</time></trkpt><trkpt lat="30.693630383435053" lon="-6.451147670592727"><ele>937.0</ele><time>2026-05-05T12:33:51Z</time></trkpt><trkpt lat="30.69362306503155" lon="-6.451273466010507"><ele>937.0</ele><time>2026-05-05T12:33:52Z</time></trkpt><trkpt lat="30.693610190926567" lon="-6.451390818113137"><ele>937.0</ele><time>2026-05-05T12:33:53Z</time></trkpt><trkpt lat="30.693605031178574" lon="-6.451512182526351"><ele>937.0</ele><time>2026-05-05T12:33:54Z</time></trkpt><trkpt lat="30.693598762963024" lon="-6.451637270526473"><ele>937.0</ele><time>2026-05-05T12:33:55Z</time></trkpt><trkpt lat="30.693591599897097" lon="-6.4517650646577644"><ele>937.0</ele><time>2026-05-05T12:33:56Z</time></trkpt><trkpt lat="30.69358012290977" lon="-6.451892218709558"><ele>937.0</ele><time>2026-05-05T12:33:57Z</time></trkpt><trkpt lat="30.693575182232852" lon="-6.452024163828432"><ele>937.2</ele><time>2026-05-05T12:33:58Z</time></trkpt><trkpt lat="30.69356487408214" lon="-6.452151940594592"><ele>937.4000000000001</ele><time>2026-05-05T12:33:59Z</time></trkpt><trkpt lat="30.69355618387851" lon="-6.452268647132637"><ele>937.5999999999999</ele><time>2026-05-05T12:34:00Z</time></trkpt><trkpt lat="30.69354601978065" lon="-6.452385686260677"><ele>937.8</ele><time>2026-05-05T12:34:01Z</time></trkpt><trkpt lat="30.69353496331306" lon="-6.45251235201444"><ele>938.0</ele><time>2026-05-05T12:34:02Z</time></trkpt><trkpt lat="30.69352741844438" lon="-6.452642086537305"><ele>938.0</ele><time>2026-05-05T12:34:03Z</time></trkpt><trkpt lat="30.693523539313226" lon="-6.452775079221399"><ele>938.0</ele><time>2026-05-05T12:34:04Z</time></trkpt><trkpt lat="30.69351570881912" lon="-6.452911060916657"><ele>938.0</ele><time>2026-05-05T12:34:05Z</time></trkpt><trkpt lat="30.693510934628204" lon="-6.453047803894272"><ele>938.0</ele><time>2026-05-05T12:34:06Z</time></trkpt><trkpt lat="30.69350122562444" lon="-6.453189451259508"><ele>938.75</ele><time>2026-05-05T12:34:07Z</time></trkpt><trkpt lat="30.69349805283249" lon="-6.45332919287646"><ele>939.5</ele><time>2026-05-05T12:34:08Z</time></trkpt><trkpt lat="30.693483413653745" lon="-6.453477730814235"><ele>940.25</ele><time>2026-05-05T12:34:09Z</time></trkpt><trkpt lat="30.693476110131403" lon="-6.453630203156025"><ele>941.0</ele><time>2026-05-05T12:34:10Z</time></trkpt><trkpt lat="30.693467297079373" lon="-6.4537820535115324"><ele>941.75</ele><time>2026-05-05T12:34:11Z</time></trkpt><trkpt lat="30.69346494924733" lon="-6.453933548109885"><ele>942.5</ele><time>2026-05-05T12:34:12Z</time></trkpt><trkpt lat="30.69346306462845" lon="-6.454088453223532"><ele>943.25</ele><time>2026-05-05T12:34:13Z</time></trkpt><trkpt lat="30.693466542871274" lon="-6.454243441370291"><ele>944.0</ele><time>2026-05-05T12:34:14Z</time></trkpt><trkpt lat="30.693476477180155" lon="-6.4543864639085164"><ele>944.0000000000001</ele><time>2026-05-05T12:34:15Z</time></trkpt><trkpt lat="30.693489912978436" lon="-6.454516123532286"><ele>944.0</ele><time>2026-05-05T12:34:16Z</time></trkpt><trkpt lat="30.693505874498012" lon="-6.454624730366739"><ele>944.0</ele><time>2026-05-05T12:34:17Z</time></trkpt><trkpt lat="30.69352222262229" lon="-6.454722077992276"><ele>944.0</ele><time>2026-05-05T12:34:18Z</time></trkpt><trkpt lat="30.693545594848775" lon="-6.454810415429465"><ele>944.0000000000001</ele><time>2026-05-05T12:34:19Z</time></trkpt><trkpt lat="30.693567173225972" lon="-6.454896656277408"><ele>944.0</ele><time>2026-05-05T12:34:20Z</time></trkpt><trkpt lat="30.69358844497107" lon="-6.454985185594977"><ele>943.6</ele><time>2026-05-05T12:34:21Z</time></trkpt><trkpt lat="30.693615575869728" lon="-6.455086644425334"><ele>943.2</ele><time>2026-05-05T12:34:22Z</time></trkpt><trkpt lat="30.69364780630479" lon="-6.4552041166625385"><ele>942.8000000000001</ele><time>2026-05-05T12:34:23Z</time></trkpt><trkpt lat="30.693690720891066" lon="-6.455332761102762"><ele>942.4000000000001</ele><time>2026-05-05T12:34:24Z</time></trkpt><trkpt lat="30.693738171696243" lon="-6.455464435000244"><ele>942.0</ele><time>2026-05-05T12:34:25Z</time></trkpt><trkpt lat="30.693782699076852" lon="-6.455595970576145"><ele>942.0</ele><time>2026-05-05T12:34:26Z</time></trkpt><trkpt lat="30.69382417754755" lon="-6.455717391083119"><ele>942.0</ele><time>2026-05-05T12:34:27Z</time></trkpt><trkpt lat="30.693857551603646" lon="-6.45583969183386"><ele>942.0</ele><time>2026-05-05T12:34:28Z</time></trkpt><trkpt lat="30.693893648536356" lon="-6.455967244935872"><ele>942.0</ele><time>2026-05-05T12:34:29Z</time></trkpt><trkpt lat="30.693934669541093" lon="-6.45609415469932"><ele>942.0</ele><time>2026-05-05T12:34:30Z</time></trkpt><trkpt lat="30.693972943740825" lon="-6.4562204880124066"><ele>942.0</ele><time>2026-05-05T12:34:31Z</time></trkpt><trkpt lat="30.6940105418572" lon="-6.456348059309473"><ele>942.0</ele><time>2026-05-05T12:34:32Z</time></trkpt><trkpt lat="30.694048636776774" lon="-6.456473454032558"><ele>942.0</ele><time>2026-05-05T12:34:33Z</time></trkpt><trkpt lat="30.6940873975952" lon="-6.456599971854895"><ele>942.0</ele><time>2026-05-05T12:34:34Z</time></trkpt><trkpt lat="30.694124978299357" lon="-6.456728348175994"><ele>942.0</ele><time>2026-05-05T12:34:35Z</time></trkpt><trkpt lat="30.694164073591306" lon="-6.45685624828783"><ele>942.0</ele><time>2026-05-05T12:34:36Z</time></trkpt><trkpt lat="30.69420299109128" lon="-6.4569839358030565"><ele>942.0</ele><time>2026-05-05T12:34:37Z</time></trkpt><trkpt lat="30.694243820020247" lon="-6.457110210298452"><ele>941.8</ele><time>2026-05-05T12:34:38Z</time></trkpt><trkpt lat="30.694284896452434" lon="-6.457233528280596"><ele>941.6</ele><time>2026-05-05T12:34:39Z</time></trkpt><trkpt lat="30.694323521774717" lon="-6.457352882416772"><ele>941.3999999999999</ele><time>2026-05-05T12:34:40Z</time></trkpt><trkpt lat="30.694358103534555" lon="-6.457465578671106"><ele>941.1999999999999</ele><time>2026-05-05T12:34:41Z</time></trkpt><trkpt lat="30.694392275795337" lon="-6.457573635161703"><ele>941.0</ele><time>2026-05-05T12:34:42Z</time></trkpt><trkpt lat="30.694424554676253" lon="-6.4576813701017235"><ele>941.4</ele><time>2026-05-05T12:34:43Z</time></trkpt><trkpt lat="30.694430433296024" lon="-6.457808734482261"><ele>941.8</ele><time>2026-05-05T12:34:44Z</time></trkpt><trkpt lat="30.69448315145495" lon="-6.457907223966207"><ele>942.1999999999999</ele><time>2026-05-05T12:34:45Z</time></trkpt><trkpt lat="30.694541566818984" lon="-6.457999758517263"><ele>942.5999999999999</ele><time>2026-05-05T12:34:46Z</time></trkpt><trkpt lat="30.69461193354305" lon="-6.4580837833944456"><ele>943.0</ele><time>2026-05-05T12:34:47Z</time></trkpt><trkpt lat="30.69464145460399" lon="-6.458201704652105"><ele>943.25</ele><time>2026-05-05T12:34:48Z</time></trkpt><trkpt lat="30.694628506252123" lon="-6.45833552207677"><ele>943.5</ele><time>2026-05-05T12:34:49Z</time></trkpt><trkpt lat="30.69464677463089" lon="-6.458471831043845"><ele>943.75</ele><time>2026-05-05T12:34:50Z</time></trkpt><trkpt lat="30.694670986579624" lon="-6.4586103815970874"><ele>944.0</ele><time>2026-05-05T12:34:51Z</time></trkpt><trkpt lat="30.694698060397904" lon="-6.458747191319498"><ele>944.5</ele><time>2026-05-05T12:34:52Z</time></trkpt><trkpt lat="30.69478151688985" lon="-6.458868964448459"><ele>945.0</ele><time>2026-05-05T12:34:53Z</time></trkpt><trkpt lat="30.694821443427468" lon="-6.45900133524846"><ele>945.5</ele><time>2026-05-05T12:34:54Z</time></trkpt><trkpt lat="30.694857726588836" lon="-6.459135468383104"><ele>946.0</ele><time>2026-05-05T12:34:55Z</time></trkpt><trkpt lat="30.694894016616132" lon="-6.459274473745724"><ele>946.0</ele><time>2026-05-05T12:34:56Z</time></trkpt><trkpt lat="30.69493222227588" lon="-6.459413919957068"><ele>946.0</ele><time>2026-05-05T12:34:57Z</time></trkpt><trkpt lat="30.69497587140046" lon="-6.45955448639985"><ele>946.0</ele><time>2026-05-05T12:34:58Z</time></trkpt><trkpt lat="30.695022470088727" lon="-6.4596877912119615"><ele>946.0</ele><time>2026-05-05T12:34:59Z</time></trkpt><trkpt lat="30.695066577004056" lon="-6.459823931253117"><ele>946.0</ele><time>2026-05-05T12:35:00Z</time></trkpt><trkpt lat="30.695110971474445" lon="-6.459961524496342"><ele>946.0</ele><time>2026-05-05T12:35:01Z</time></trkpt><trkpt lat="30.69515459558374" lon="-6.4601045390526455"><ele>946.0</ele><time>2026-05-05T12:35:02Z</time></trkpt><trkpt lat="30.695196811681026" lon="-6.460250701007592"><ele>946.0</ele><time>2026-05-05T12:35:03Z</time></trkpt><trkpt lat="30.695242347241212" lon="-6.460399350856195"><ele>946.5</ele><time>2026-05-05T12:35:04Z</time></trkpt><trkpt lat="30.695286914577046" lon="-6.460551162854792"><ele>947.0</ele><time>2026-05-05T12:35:05Z</time></trkpt><trkpt lat="30.69532690239503" lon="-6.460703794412225"><ele>947.5</ele><time>2026-05-05T12:35:06Z</time></trkpt><trkpt lat="30.695367369692637" lon="-6.460857679225929"><ele>948.0</ele><time>2026-05-05T12:35:07Z</time></trkpt><trkpt lat="30.695408902785278" lon="-6.461015012099709"><ele>948.0</ele><time>2026-05-05T12:35:08Z</time></trkpt><trkpt lat="30.69545327928555" lon="-6.461169942134263"><ele>948.0</ele><time>2026-05-05T12:35:09Z</time></trkpt><trkpt lat="30.69550115683428" lon="-6.461326057275855"><ele>948.0</ele><time>2026-05-05T12:35:10Z</time></trkpt><trkpt lat="30.695546519492325" lon="-6.461481222879904"><ele>948.0</ele><time>2026-05-05T12:35:11Z</time></trkpt><trkpt lat="30.695589241304035" lon="-6.461634351600726"><ele>948.25</ele><time>2026-05-05T12:35:12Z</time></trkpt><trkpt lat="30.69563146602775" lon="-6.4617903335067535"><ele>948.5</ele><time>2026-05-05T12:35:13Z</time></trkpt><trkpt lat="30.695671461138108" lon="-6.461946748940623"><ele>948.75</ele><time>2026-05-05T12:35:14Z</time></trkpt><trkpt lat="30.695719240571215" lon="-6.462104942179288"><ele>949.0</ele><time>2026-05-05T12:35:15Z</time></trkpt><trkpt lat="30.69576935073078" lon="-6.46226266564001"><ele>949.25</ele><time>2026-05-05T12:35:16Z</time></trkpt><trkpt lat="30.695819752600272" lon="-6.462424609538233"><ele>949.5</ele><time>2026-05-05T12:35:17Z</time></trkpt><trkpt lat="30.695867412500004" lon="-6.462587148740069"><ele>949.75</ele><time>2026-05-05T12:35:18Z</time></trkpt><trkpt lat="30.695917322896303" lon="-6.462752024513996"><ele>950.0</ele><time>2026-05-05T12:35:19Z</time></trkpt><trkpt lat="30.695966286788774" lon="-6.462916221416541"><ele>950.3333333333334</ele><time>2026-05-05T12:35:20Z</time></trkpt><trkpt lat="30.69601396753227" lon="-6.463082190783679"><ele>950.6666666666667</ele><time>2026-05-05T12:35:21Z</time></trkpt><trkpt lat="30.696063474830584" lon="-6.463247880488289"><ele>951.0</ele><time>2026-05-05T12:35:22Z</time></trkpt><trkpt lat="30.69611403274764" lon="-6.463412306097283"><ele>951.0</ele><time>2026-05-05T12:35:23Z</time></trkpt><trkpt lat="30.6961634082605" lon="-6.463578950616059"><ele>951.0</ele><time>2026-05-05T12:35:24Z</time></trkpt><trkpt lat="30.69621286420122" lon="-6.46374894702752"><ele>951.0</ele><time>2026-05-05T12:35:25Z</time></trkpt><trkpt lat="30.696264678966198" lon="-6.463917126379995"><ele>951.6666666666667</ele><time>2026-05-05T12:35:26Z</time></trkpt><trkpt lat="30.696316072819414" lon="-6.464086918524414"><ele>952.3333333333334</ele><time>2026-05-05T12:35:27Z</time></trkpt><trkpt lat="30.696364807881263" lon="-6.464257625001658"><ele>953.0</ele><time>2026-05-05T12:35:28Z</time></trkpt><trkpt lat="30.696414484674083" lon="-6.464426951803548"><ele>953.0</ele><time>2026-05-05T12:35:29Z</time></trkpt><trkpt lat="30.69646597043455" lon="-6.46459815054586"><ele>953.0</ele><time>2026-05-05T12:35:30Z</time></trkpt><trkpt lat="30.696517466450306" lon="-6.464769425195868"><ele>953.0</ele><time>2026-05-05T12:35:30.999Z</time></trkpt><trkpt lat="30.696569864863605" lon="-6.464940937027946"><ele>953.0</ele><time>2026-05-05T12:35:31.999Z</time></trkpt><trkpt lat="30.696622585243976" lon="-6.465115045104343"><ele>953.0</ele><time>2026-05-05T12:35:32.999Z</time></trkpt><trkpt lat="30.696674360372604" lon="-6.465282961652837"><ele>953.0</ele><time>2026-05-05T12:35:33.999Z</time></trkpt><trkpt lat="30.696722916727193" lon="-6.465450830220196"><ele>953.0</ele><time>2026-05-05T12:35:34.999Z</time></trkpt><trkpt lat="30.696775712494215" lon="-6.4656277467347785"><ele>953.0</ele><time>2026-05-05T12:35:35.999Z</time></trkpt><trkpt lat="30.696829475462675" lon="-6.46581431858581"><ele>953.0</ele><time>2026-05-05T12:35:36.999Z</time></trkpt><trkpt lat="30.696882349564923" lon="-6.466006976925281"><ele>953.3333333333334</ele><time>2026-05-05T12:35:37.999Z</time></trkpt><trkpt lat="30.696941035457048" lon="-6.466201400085668"><ele>953.6666666666667</ele><time>2026-05-05T12:35:38.999Z</time></trkpt><trkpt lat="30.69700047551657" lon="-6.466400424334624"><ele>954.0</ele><time>2026-05-05T12:35:39.999Z</time></trkpt><trkpt lat="30.697062301713554" lon="-6.466601800694014"><ele>954.6666666666667</ele><time>2026-05-05T12:35:40.999Z</time></trkpt><trkpt lat="30.697124442527603" lon="-6.466800871241021"><ele>955.3333333333334</ele><time>2026-05-05T12:35:41.999Z</time></trkpt><trkpt lat="30.697182959818473" lon="-6.467002425671244"><ele>956.0</ele><time>2026-05-05T12:35:42.999Z</time></trkpt><trkpt lat="30.697242031604812" lon="-6.467203919950286"><ele>956.0</ele><time>2026-05-05T12:35:43.999Z</time></trkpt><trkpt lat="30.697303688102156" lon="-6.467404974707468"><ele>956.0</ele><time>2026-05-05T12:35:44.999Z</time></trkpt><trkpt lat="30.697364430083436" lon="-6.4676053415920505"><ele>956.0</ele><time>2026-05-05T12:35:45.999Z</time></trkpt><trkpt lat="30.69742392729167" lon="-6.467805641981538"><ele>956.6666666666667</ele><time>2026-05-05T12:35:46.999Z</time></trkpt><trkpt lat="30.697481392533952" lon="-6.468003212489978"><ele>957.3333333333333</ele><time>2026-05-05T12:35:47.999Z</time></trkpt><trkpt lat="30.69753821617913" lon="-6.468202754628519"><ele>958.0</ele><time>2026-05-05T12:35:48.999Z</time></trkpt><trkpt lat="30.69759580369747" lon="-6.468403543806469"><ele>958.0</ele><time>2026-05-05T12:35:49.999Z</time></trkpt><trkpt lat="30.69765444424498" lon="-6.468602818415578"><ele>958.0</ele><time>2026-05-05T12:35:50.999Z</time></trkpt><trkpt lat="30.69771145465863" lon="-6.468802033441361"><ele>958.0</ele><time>2026-05-05T12:35:51.999Z</time></trkpt><trkpt lat="30.69776757266633" lon="-6.46900160582636"><ele>958.3333333333333</ele><time>2026-05-05T12:35:52.999Z</time></trkpt><trkpt lat="30.69782020958519" lon="-6.46920670983308"><ele>958.6666666666667</ele><time>2026-05-05T12:35:53.999Z</time></trkpt><trkpt lat="30.697866663083346" lon="-6.469416217371261"><ele>959.0</ele><time>2026-05-05T12:35:54.999Z</time></trkpt><trkpt lat="30.697918542300087" lon="-6.469621615016192"><ele>959.6666666666667</ele><time>2026-05-05T12:35:55.999Z</time></trkpt><trkpt lat="30.6979688552427" lon="-6.469834499058643"><ele>960.3333333333333</ele><time>2026-05-05T12:35:56.999Z</time></trkpt><trkpt lat="30.698018487922848" lon="-6.470048768536635"><ele>961.0</ele><time>2026-05-05T12:35:57.999Z</time></trkpt><trkpt lat="30.698068170352123" lon="-6.470262441935549"><ele>961.3333333333333</ele><time>2026-05-05T12:35:58.999Z</time></trkpt><trkpt lat="30.698113477620943" lon="-6.470473833712863"><ele>961.6666666666667</ele><time>2026-05-05T12:35:59.999Z</time></trkpt><trkpt lat="30.69815990132955" lon="-6.470684106852642"><ele>962.0</ele><time>2026-05-05T12:36:00.999Z</time></trkpt><trkpt lat="30.698210142380432" lon="-6.470895234759202"><ele>962.0</ele><time>2026-05-05T12:36:01.999Z</time></trkpt><trkpt lat="30.69825978697016" lon="-6.4711075377696945"><ele>962.0</ele><time>2026-05-05T12:36:02.999Z</time></trkpt><trkpt lat="30.698308028964973" lon="-6.471316421283151"><ele>962.0</ele><time>2026-05-05T12:36:03.999Z</time></trkpt><trkpt lat="30.698354336690713" lon="-6.471527088341733"><ele>962.3333333333334</ele><time>2026-05-05T12:36:04.999Z</time></trkpt><trkpt lat="30.698400388162877" lon="-6.471738565569466"><ele>962.6666666666667</ele><time>2026-05-05T12:36:05.999Z</time></trkpt><trkpt lat="30.698449203652487" lon="-6.471950406608494"><ele>963.0</ele><time>2026-05-05T12:36:06.999Z</time></trkpt><trkpt lat="30.698496036964563" lon="-6.472163270471232"><ele>963.0</ele><time>2026-05-05T12:36:07.999Z</time></trkpt><trkpt lat="30.698543709396997" lon="-6.4723767089365"><ele>963.0</ele><time>2026-05-05T12:36:08.999Z</time></trkpt><trkpt lat="30.698592377030938" lon="-6.472588426890084"><ele>963.0</ele><time>2026-05-05T12:36:09.999Z</time></trkpt><trkpt lat="30.698639873597617" lon="-6.472800474039178"><ele>963.6666666666667</ele><time>2026-05-05T12:36:10.999Z</time></trkpt><trkpt lat="30.698686444832052" lon="-6.473011629321758"><ele>964.3333333333334</ele><time>2026-05-05T12:36:11.999Z</time></trkpt><trkpt lat="30.698735634854053" lon="-6.473224180114687"><ele>965.0</ele><time>2026-05-05T12:36:12.999Z</time></trkpt><trkpt lat="30.698785618370486" lon="-6.473434600844264"><ele>965.0</ele><time>2026-05-05T12:36:13.999Z</time></trkpt><trkpt lat="30.69883339437931" lon="-6.473648046911973"><ele>965.0</ele><time>2026-05-05T12:36:14.999Z</time></trkpt><trkpt lat="30.698881129784425" lon="-6.473862695189732"><ele>965.0</ele><time>2026-05-05T12:36:15.999Z</time></trkpt><trkpt lat="30.69893041549153" lon="-6.474076567741761"><ele>965.3333333333334</ele><time>2026-05-05T12:36:16.999Z</time></trkpt><trkpt lat="30.6989820831974" lon="-6.474292900395742"><ele>965.6666666666667</ele><time>2026-05-05T12:36:17.999Z</time></trkpt><trkpt lat="30.699033028264246" lon="-6.474511769549254"><ele>966.0</ele><time>2026-05-05T12:36:18.999Z</time></trkpt><trkpt lat="30.699084097838323" lon="-6.474733735022633"><ele>966.0</ele><time>2026-05-05T12:36:19.999Z</time></trkpt><trkpt lat="30.699133985454406" lon="-6.474958330909207"><ele>966.0</ele><time>2026-05-05T12:36:20.999Z</time></trkpt><trkpt lat="30.699183984500383" lon="-6.4751834996900826"><ele>966.0</ele><time>2026-05-05T12:36:21.999Z</time></trkpt><trkpt lat="30.69923326041773" lon="-6.475406783359439"><ele>966.6666666666667</ele><time>2026-05-05T12:36:22.999Z</time></trkpt><trkpt lat="30.69928119483307" lon="-6.475630252118458"><ele>967.3333333333334</ele><time>2026-05-05T12:36:23.999Z</time></trkpt><trkpt lat="30.699332635368624" lon="-6.475851854869562"><ele>968.0</ele><time>2026-05-05T12:36:24.999Z</time></trkpt><trkpt lat="30.699383060689286" lon="-6.476074152657782"><ele>968.6666666666667</ele><time>2026-05-05T12:36:25.999Z</time></trkpt><trkpt lat="30.699431610343208" lon="-6.476296725973871"><ele>969.3333333333333</ele><time>2026-05-05T12:36:26.999Z</time></trkpt><trkpt lat="30.699479388310294" lon="-6.476518407322315"><ele>970.0</ele><time>2026-05-05T12:36:27.999Z</time></trkpt><trkpt lat="30.699527520155762" lon="-6.4767407361199165"><ele>970.0</ele><time>2026-05-05T12:36:28.999Z</time></trkpt><trkpt lat="30.699575599192727" lon="-6.476960854578897"><ele>970.0</ele><time>2026-05-05T12:36:29.999Z</time></trkpt><trkpt lat="30.69962319933039" lon="-6.477181565389677"><ele>970.0</ele><time>2026-05-05T12:36:30.999Z</time></trkpt><trkpt lat="30.69967415327079" lon="-6.477401141897388"><ele>971.0</ele><time>2026-05-05T12:36:31.999Z</time></trkpt><trkpt lat="30.699725777418934" lon="-6.477620801090252"><ele>972.0</ele><time>2026-05-05T12:36:32.999Z</time></trkpt><trkpt lat="30.699776720413965" lon="-6.477840726074401"><ele>973.0</ele><time>2026-05-05T12:36:33.999Z</time></trkpt><trkpt lat="30.699826100094082" lon="-6.478060671249689"><ele>973.3333333333333</ele><time>2026-05-05T12:36:35Z</time></trkpt><trkpt lat="30.699875529146013" lon="-6.478283501750251"><ele>973.6666666666667</ele><time>2026-05-05T12:36:36Z</time></trkpt><trkpt lat="30.69992443667268" lon="-6.478506388420117"><ele>974.0</ele><time>2026-05-05T12:36:37Z</time></trkpt><trkpt lat="30.69997572663479" lon="-6.478729985213823"><ele>974.3333333333334</ele><time>2026-05-05T12:36:38Z</time></trkpt><trkpt lat="30.700028755721362" lon="-6.478954480097444"><ele>974.6666666666667</ele><time>2026-05-05T12:36:39Z</time></trkpt><trkpt lat="30.700081038916842" lon="-6.47917868182436"><ele>975.0</ele><time>2026-05-05T12:36:40Z</time></trkpt><trkpt lat="30.70013432002763" lon="-6.4794023903869755"><ele>975.6666666666667</ele><time>2026-05-05T12:36:41Z</time></trkpt><trkpt lat="30.700186650832066" lon="-6.479627650841075"><ele>976.3333333333334</ele><time>2026-05-05T12:36:42Z</time></trkpt><trkpt lat="30.700238607557367" lon="-6.479853509520446"><ele>977.0</ele><time>2026-05-05T12:36:43Z</time></trkpt><trkpt lat="30.700289443121097" lon="-6.480079030496984"><ele>977.0</ele><time>2026-05-05T12:36:44Z</time></trkpt><trkpt lat="30.70033904959221" lon="-6.480305663710281"><ele>977.0</ele><time>2026-05-05T12:36:45Z</time></trkpt><trkpt lat="30.700388917210358" lon="-6.480531316265059"><ele>977.0</ele><time>2026-05-05T12:36:46Z</time></trkpt><trkpt lat="30.70043837000874" lon="-6.480757398151249"><ele>978.0</ele><time>2026-05-05T12:36:47Z</time></trkpt><trkpt lat="30.70048965710791" lon="-6.480982781144042"><ele>979.0</ele><time>2026-05-05T12:36:48Z</time></trkpt><trkpt lat="30.700544568541513" lon="-6.481207234209774"><ele>980.0</ele><time>2026-05-05T12:36:49Z</time></trkpt><trkpt lat="30.700600204927596" lon="-6.481431681026935"><ele>980.6666666666667</ele><time>2026-05-05T12:36:50Z</time></trkpt><trkpt lat="30.700652183609797" lon="-6.48165761407144"><ele>981.3333333333333</ele><time>2026-05-05T12:36:51Z</time></trkpt><trkpt lat="30.700703852827168" lon="-6.481882235140859"><ele>982.0</ele><time>2026-05-05T12:36:52Z</time></trkpt><trkpt lat="30.7007593789735" lon="-6.482107820145881"><ele>982.3333333333333</ele><time>2026-05-05T12:36:53Z</time></trkpt><trkpt lat="30.700818482589895" lon="-6.482331627740051"><ele>982.6666666666667</ele><time>2026-05-05T12:36:54Z</time></trkpt><trkpt lat="30.700880982753738" lon="-6.482552193953024"><ele>983.0</ele><time>2026-05-05T12:36:55Z</time></trkpt><trkpt lat="30.70094769131118" lon="-6.482772364754167"><ele>983.3333333333334</ele><time>2026-05-05T12:36:56Z</time></trkpt><trkpt lat="30.701015486741014" lon="-6.48298947405667"><ele>983.6666666666667</ele><time>2026-05-05T12:36:57Z</time></trkpt><trkpt lat="30.701050425722304" lon="-6.483215766435443"><ele>984.0</ele><time>2026-05-05T12:36:58Z</time></trkpt><trkpt lat="30.701100520260564" lon="-6.483434706073317"><ele>984.0</ele><time>2026-05-05T12:36:59Z</time></trkpt><trkpt lat="30.701149317046347" lon="-6.483653082569262"><ele>984.0</ele><time>2026-05-05T12:37:00Z</time></trkpt><trkpt lat="30.701198293415157" lon="-6.483872609679821"><ele>984.0</ele><time>2026-05-05T12:37:01Z</time></trkpt><trkpt lat="30.701246874879125" lon="-6.484091831174861"><ele>984.0</ele><time>2026-05-05T12:37:02Z</time></trkpt><trkpt lat="30.701297761006703" lon="-6.4843295554795395"><ele>984.0</ele><time>2026-05-05T12:37:03Z</time></trkpt><trkpt lat="30.701361958118532" lon="-6.484545287308745"><ele>984.0</ele><time>2026-05-05T12:37:04Z</time></trkpt><trkpt lat="30.701449877800563" lon="-6.4847964938193705"><ele>984.6666666666667</ele><time>2026-05-05T12:37:05Z</time></trkpt><trkpt lat="30.701546749212863" lon="-6.484998829124032"><ele>985.3333333333334</ele><time>2026-05-05T12:37:06Z</time></trkpt><trkpt lat="30.701673151636097" lon="-6.485219662711627"><ele>986.0</ele><time>2026-05-05T12:37:07Z</time></trkpt><trkpt lat="30.701811026050056" lon="-6.485423062963574"><ele>986.3333333333334</ele><time>2026-05-05T12:37:08Z</time></trkpt><trkpt lat="30.70194226215251" lon="-6.485607094777521"><ele>986.6666666666667</ele><time>2026-05-05T12:37:09Z</time></trkpt><trkpt lat="30.702076184089396" lon="-6.485794902906198"><ele>987.0</ele><time>2026-05-05T12:37:10Z</time></trkpt><trkpt lat="30.702209179348113" lon="-6.485981424477873"><ele>987.0</ele><time>2026-05-05T12:37:11Z</time></trkpt><trkpt lat="30.702339030782316" lon="-6.486163675310514"><ele>987.0</ele><time>2026-05-05T12:37:12Z</time></trkpt><trkpt lat="30.70246792112847" lon="-6.486345061043961"><ele>987.0</ele><time>2026-05-05T12:37:13Z</time></trkpt><trkpt lat="30.70260116148395" lon="-6.486519219569172"><ele>987.6666666666667</ele><time>2026-05-05T12:37:14Z</time></trkpt><trkpt lat="30.702718026144105" lon="-6.486706964460049"><ele>988.3333333333334</ele><time>2026-05-05T12:37:15Z</time></trkpt><trkpt lat="30.70283566746406" lon="-6.486890512336156"><ele>989.0</ele><time>2026-05-05T12:37:16Z</time></trkpt><trkpt lat="30.702954873777593" lon="-6.487070168197576"><ele>990.0</ele><time>2026-05-05T12:37:17Z</time></trkpt><trkpt lat="30.70307334108503" lon="-6.487247667443576"><ele>991.0</ele><time>2026-05-05T12:37:18Z</time></trkpt><trkpt lat="30.703191613838086" lon="-6.487424700179218"><ele>992.0</ele><time>2026-05-05T12:37:19Z</time></trkpt><trkpt lat="30.70330981319778" lon="-6.487600621068806"><ele>992.0</ele><time>2026-05-05T12:37:20Z</time></trkpt><trkpt lat="30.703430458222517" lon="-6.487772381775547"><ele>992.0</ele><time>2026-05-05T12:37:21Z</time></trkpt><trkpt lat="30.703550096638313" lon="-6.487944320716831"><ele>992.0</ele><time>2026-05-05T12:37:22Z</time></trkpt><trkpt lat="30.703671831253814" lon="-6.488115416594272"><ele>992.3333333333334</ele><time>2026-05-05T12:37:23Z</time></trkpt><trkpt lat="30.703795457792104" lon="-6.488288292686211"><ele>992.6666666666667</ele><time>2026-05-05T12:37:24Z</time></trkpt><trkpt lat="30.703920122939884" lon="-6.488462911992879"><ele>993.0</ele><time>2026-05-05T12:37:25Z</time></trkpt><trkpt lat="30.70404441279599" lon="-6.488638763635167"><ele>994.0</ele><time>2026-05-05T12:37:26Z</time></trkpt><trkpt lat="30.704169952026994" lon="-6.488814973057861"><ele>995.0</ele><time>2026-05-05T12:37:27Z</time></trkpt><trkpt lat="30.704296519439726" lon="-6.488990093592723"><ele>996.0</ele><time>2026-05-05T12:37:28Z</time></trkpt><trkpt lat="30.704423273841872" lon="-6.489167742658293"><ele>996.3333333333333</ele><time>2026-05-05T12:37:29Z</time></trkpt><trkpt lat="30.70454751686662" lon="-6.4893482770463"><ele>996.6666666666666</ele><time>2026-05-05T12:37:30Z</time></trkpt><trkpt lat="30.70467248571924" lon="-6.4895284573190954"><ele>997.0</ele><time>2026-05-05T12:37:31Z</time></trkpt><trkpt lat="30.70479989396752" lon="-6.489706310408495"><ele>997.6666666666666</ele><time>2026-05-05T12:37:32Z</time></trkpt><trkpt lat="30.704926546495898" lon="-6.489885119594491"><ele>998.3333333333333</ele><time>2026-05-05T12:37:33Z</time></trkpt><trkpt lat="30.70505050693693" lon="-6.490065702743867"><ele>999.0</ele><time>2026-05-05T12:37:34Z</time></trkpt><trkpt lat="30.70517683979438" lon="-6.490244832783524"><ele>999.3333333333333</ele><time>2026-05-05T12:37:35Z</time></trkpt><trkpt lat="30.705305318362427" lon="-6.490422014346512"><ele>999.6666666666666</ele><time>2026-05-05T12:37:35.999Z</time></trkpt><trkpt lat="30.70543471309378" lon="-6.490601084121536"><ele>1000.0</ele><time>2026-05-05T12:37:36.999Z</time></trkpt><trkpt lat="30.70556408847283" lon="-6.49077982266651"><ele>1000.6666666666666</ele><time>2026-05-05T12:37:37.999Z</time></trkpt><trkpt lat="30.705691094508225" lon="-6.490958416901888"><ele>1001.3333333333333</ele><time>2026-05-05T12:37:38.999Z</time></trkpt><trkpt lat="30.70581830833368" lon="-6.4911366342513634"><ele>1002.0</ele><time>2026-05-05T12:37:39.999Z</time></trkpt><trkpt lat="30.70594524321416" lon="-6.491316416203043"><ele>1002.0</ele><time>2026-05-05T12:37:40.999Z</time></trkpt><trkpt lat="30.706073940968324" lon="-6.491496823583534"><ele>1002.0</ele><time>2026-05-05T12:37:41.999Z</time></trkpt><trkpt lat="30.70620327494794" lon="-6.491677926150281"><ele>1002.0</ele><time>2026-05-05T12:37:42.999Z</time></trkpt><trkpt lat="30.706332976806678" lon="-6.4918595548230025"><ele>1003.0</ele><time>2026-05-05T12:37:43.999Z</time></trkpt><trkpt lat="30.70646439638081" lon="-6.492043318028571"><ele>1004.0</ele><time>2026-05-05T12:37:44.999Z</time></trkpt><trkpt lat="30.70659533985265" lon="-6.492228411645594"><ele>1005.0</ele><time>2026-05-05T12:37:45.999Z</time></trkpt><trkpt lat="30.70672613109367" lon="-6.492416297828297"><ele>1005.3333333333333</ele><time>2026-05-05T12:37:46.999Z</time></trkpt><trkpt lat="30.706857152835244" lon="-6.492606459877332"><ele>1005.6666666666666</ele><time>2026-05-05T12:37:47.999Z</time></trkpt><trkpt lat="30.706989241675153" lon="-6.492795111612642"><ele>1006.0</ele><time>2026-05-05T12:37:48.999Z</time></trkpt><trkpt lat="30.707122427372944" lon="-6.492985431772018"><ele>1007.0</ele><time>2026-05-05T12:37:49.999Z</time></trkpt><trkpt lat="30.707257152487145" lon="-6.493174057028986"><ele>1008.0</ele><time>2026-05-05T12:37:50.999Z</time></trkpt><trkpt lat="30.70739272343412" lon="-6.49336233622362"><ele>1009.0</ele><time>2026-05-05T12:37:51.999Z</time></trkpt><trkpt lat="30.707529544622158" lon="-6.4935505869149965"><ele>1009.0</ele><time>2026-05-05T12:37:52.999Z</time></trkpt><trkpt lat="30.707664677728868" lon="-6.493734258129444"><ele>1009.0</ele><time>2026-05-05T12:37:53.999Z</time></trkpt><trkpt lat="30.707797327447725" lon="-6.493917260945351"><ele>1009.0</ele><time>2026-05-05T12:37:54.999Z</time></trkpt><trkpt lat="30.707927888774513" lon="-6.494100461521833"><ele>1010.0</ele><time>2026-05-05T12:37:55.999Z</time></trkpt><trkpt lat="30.708057960842616" lon="-6.49428328464927"><ele>1011.0</ele><time>2026-05-05T12:37:56.999Z</time></trkpt><trkpt lat="30.708185946640267" lon="-6.494466864982429"><ele>1012.0</ele><time>2026-05-05T12:37:57.999Z</time></trkpt><trkpt lat="30.708314013513355" lon="-6.494652462980748"><ele>1012.6666666666666</ele><time>2026-05-05T12:37:58.999Z</time></trkpt><trkpt lat="30.708442162908025" lon="-6.494837012833338"><ele>1013.3333333333333</ele><time>2026-05-05T12:37:59.999Z</time></trkpt><trkpt lat="30.70856654329599" lon="-6.495020908329024"><ele>1014.0</ele><time>2026-05-05T12:38:00.999Z</time></trkpt><trkpt lat="30.708687848613103" lon="-6.495203991175688"><ele>1014.0</ele><time>2026-05-05T12:38:01.999Z</time></trkpt><trkpt lat="30.708807292693777" lon="-6.49539155395158"><ele>1014.0</ele><time>2026-05-05T12:38:02.999Z</time></trkpt><trkpt lat="30.708923936595234" lon="-6.495583732918974"><ele>1014.0</ele><time>2026-05-05T12:38:03.999Z</time></trkpt><trkpt lat="30.709039784549486" lon="-6.495775038253325"><ele>1014.0</ele><time>2026-05-05T12:38:04.999Z</time></trkpt><trkpt lat="30.70915598007915" lon="-6.495965105484844"><ele>1014.0</ele><time>2026-05-05T12:38:05.999Z</time></trkpt><trkpt lat="30.709269949819657" lon="-6.496155969492316"><ele>1014.0</ele><time>2026-05-05T12:38:06.999Z</time></trkpt><trkpt lat="30.709383846550093" lon="-6.496349550053555"><ele>1015.6666666666667</ele><time>2026-05-05T12:38:07.999Z</time></trkpt><trkpt lat="30.70949749327593" lon="-6.496543650530089"><ele>1017.3333333333334</ele><time>2026-05-05T12:38:08.999Z</time></trkpt><trkpt lat="30.7096124655501" lon="-6.496740036253423"><ele>1019.0</ele><time>2026-05-05T12:38:09.999Z</time></trkpt><trkpt lat="30.709726900345014" lon="-6.496937935545987"><ele>1019.3333333333334</ele><time>2026-05-05T12:38:10.999Z</time></trkpt><trkpt lat="30.709842103857103" lon="-6.49713529235756"><ele>1019.6666666666667</ele><time>2026-05-05T12:38:11.999Z</time></trkpt><trkpt lat="30.709957300461245" lon="-6.49733250174442"><ele>1020.0</ele><time>2026-05-05T12:38:12.999Z</time></trkpt><trkpt lat="30.71007258742674" lon="-6.497532142250327"><ele>1020.0</ele><time>2026-05-05T12:38:13.999Z</time></trkpt><trkpt lat="30.71018708181333" lon="-6.497729975098467"><ele>1020.0</ele><time>2026-05-05T12:38:14.999Z</time></trkpt><trkpt lat="30.710301890017547" lon="-6.4979298958453455"><ele>1020.0</ele><time>2026-05-05T12:38:15.999Z</time></trkpt><trkpt lat="30.71041611459774" lon="-6.498127719786612"><ele>1021.3333333333333</ele><time>2026-05-05T12:38:16.999Z</time></trkpt><trkpt lat="30.710531886668832" lon="-6.498322269482115"><ele>1022.6666666666666</ele><time>2026-05-05T12:38:17.999Z</time></trkpt><trkpt lat="30.710645487885717" lon="-6.498519325701239"><ele>1024.0</ele><time>2026-05-05T12:38:18.999Z</time></trkpt><trkpt lat="30.71075654718188" lon="-6.498716030029947"><ele>1024.3333333333333</ele><time>2026-05-05T12:38:19.999Z</time></trkpt><trkpt lat="30.710867976531606" lon="-6.4989119862512705"><ele>1024.6666666666667</ele><time>2026-05-05T12:38:20.999Z</time></trkpt><trkpt lat="30.71098026001609" lon="-6.4991061751502235"><ele>1025.0</ele><time>2026-05-05T12:38:21.999Z</time></trkpt><trkpt lat="30.71109270924885" lon="-6.4993001554050975"><ele>1027.0</ele><time>2026-05-05T12:38:22.999Z</time></trkpt><trkpt lat="30.71120488439245" lon="-6.4994950624885846"><ele>1029.0</ele><time>2026-05-05T12:38:23.999Z</time></trkpt><trkpt lat="30.71131645583812" lon="-6.499689391145449"><ele>1031.0</ele><time>2026-05-05T12:38:24.999Z</time></trkpt><trkpt lat="30.7114300633358" lon="-6.499882823732398"><ele>1031.0</ele><time>2026-05-05T12:38:25.999Z</time></trkpt><trkpt lat="30.7115421864066" lon="-6.5000741755729985"><ele>1031.0</ele><time>2026-05-05T12:38:26.999Z</time></trkpt><trkpt lat="30.711653395236375" lon="-6.500266852620369"><ele>1031.0</ele><time>2026-05-05T12:38:27.999Z</time></trkpt><trkpt lat="30.711763911475316" lon="-6.500460077317604"><ele>1031.0</ele><time>2026-05-05T12:38:28.999Z</time></trkpt><trkpt lat="30.711875867626986" lon="-6.500652722160889"><ele>1031.0</ele><time>2026-05-05T12:38:29.999Z</time></trkpt><trkpt lat="30.71198602902524" lon="-6.500844180346361"><ele>1031.0</ele><time>2026-05-05T12:38:30.999Z</time></trkpt><trkpt lat="30.71209322256192" lon="-6.501038503279029"><ele>1031.6666666666667</ele><time>2026-05-05T12:38:31.999Z</time></trkpt><trkpt lat="30.712196081542373" lon="-6.501234829685475"><ele>1032.3333333333333</ele><time>2026-05-05T12:38:33Z</time></trkpt><trkpt lat="30.712312592249095" lon="-6.501419534671021"><ele>1033.0</ele><time>2026-05-05T12:38:34Z</time></trkpt><trkpt lat="30.712422311347897" lon="-6.501610427288973"><ele>1033.6666666666665</ele><time>2026-05-05T12:38:35Z</time></trkpt><trkpt lat="30.71252957744018" lon="-6.501800532575942"><ele>1034.3333333333333</ele><time>2026-05-05T12:38:36Z</time></trkpt><trkpt lat="30.712636798009626" lon="-6.501990557114124"><ele>1035.0</ele><time>2026-05-05T12:38:37Z</time></trkpt><trkpt lat="30.712743298922067" lon="-6.502179382303603"><ele>1036.0</ele><time>2026-05-05T12:38:38Z</time></trkpt><trkpt lat="30.712850003956707" lon="-6.502367244809856"><ele>1037.0</ele><time>2026-05-05T12:38:39Z</time></trkpt><trkpt lat="30.712957595533254" lon="-6.502571359643218"><ele>1038.0</ele><time>2026-05-05T12:38:40Z</time></trkpt><trkpt lat="30.713051000825434" lon="-6.502768680505954"><ele>1039.0</ele><time>2026-05-05T12:38:41Z</time></trkpt><trkpt lat="30.71313974073385" lon="-6.503002002189812"><ele>1040.0</ele><time>2026-05-05T12:38:42Z</time></trkpt><trkpt lat="30.71320783316971" lon="-6.503210535157712"><ele>1041.0</ele><time>2026-05-05T12:38:43Z</time></trkpt><trkpt lat="30.71326050130815" lon="-6.5034614614736626"><ele>1041.0</ele><time>2026-05-05T12:38:44Z</time></trkpt><trkpt lat="30.71329147216147" lon="-6.5037011459730705"><ele>1041.0</ele><time>2026-05-05T12:38:45Z</time></trkpt><trkpt lat="30.713310502654128" lon="-6.5039182442503956"><ele>1041.0</ele><time>2026-05-05T12:38:46Z</time></trkpt><trkpt lat="30.71331977102636" lon="-6.5041395952480645"><ele>1042.0</ele><time>2026-05-05T12:38:47Z</time></trkpt><trkpt lat="30.71333005939288" lon="-6.504352836986021"><ele>1043.0</ele><time>2026-05-05T12:38:48Z</time></trkpt><trkpt lat="30.713340337735033" lon="-6.504565870942333"><ele>1044.0</ele><time>2026-05-05T12:38:49Z</time></trkpt><trkpt lat="30.71332037857483" lon="-6.504779791278431"><ele>1045.6666666666667</ele><time>2026-05-05T12:38:50Z</time></trkpt><trkpt lat="30.7133473088811" lon="-6.504989870548845"><ele>1047.3333333333335</ele><time>2026-05-05T12:38:51Z</time></trkpt><trkpt lat="30.71337316598389" lon="-6.50520044597826"><ele>1049.0</ele><time>2026-05-05T12:38:52Z</time></trkpt><trkpt lat="30.713396999455483" lon="-6.5054093496865395"><ele>1050.3333333333335</ele><time>2026-05-05T12:38:53Z</time></trkpt><trkpt lat="30.71341450363633" lon="-6.505614531919739"><ele>1051.6666666666667</ele><time>2026-05-05T12:38:54Z</time></trkpt><trkpt lat="30.713428183688936" lon="-6.505814134962546"><ele>1053.0</ele><time>2026-05-05T12:38:55Z</time></trkpt><trkpt lat="30.713441177182254" lon="-6.506010706307169"><ele>1053.0</ele><time>2026-05-05T12:38:56Z</time></trkpt><trkpt lat="30.71345148933758" lon="-6.506199974969458"><ele>1053.0</ele><time>2026-05-05T12:38:57Z</time></trkpt><trkpt lat="30.713457996142452" lon="-6.506371125674645"><ele>1053.0</ele><time>2026-05-05T12:38:58Z</time></trkpt><trkpt lat="30.7134602438004" lon="-6.506536002970171"><ele>1053.75</ele><time>2026-05-05T12:38:59Z</time></trkpt><trkpt lat="30.71348512929763" lon="-6.506714430631989"><ele>1054.5</ele><time>2026-05-05T12:39:00Z</time></trkpt><trkpt lat="30.713490729639837" lon="-6.5068796612614594"><ele>1055.25</ele><time>2026-05-05T12:39:01Z</time></trkpt><trkpt lat="30.713499479685268" lon="-6.507038733111887"><ele>1056.0</ele><time>2026-05-05T12:39:02Z</time></trkpt><trkpt lat="30.713506172439686" lon="-6.507213444327307"><ele>1057.3333333333333</ele><time>2026-05-05T12:39:03Z</time></trkpt><trkpt lat="30.713511034690516" lon="-6.507400636831447"><ele>1058.6666666666665</ele><time>2026-05-05T12:39:04Z</time></trkpt><trkpt lat="30.7135210062362" lon="-6.507577929406951"><ele>1060.0</ele><time>2026-05-05T12:39:05Z</time></trkpt><trkpt lat="30.713540694687772" lon="-6.507754570478582"><ele>1061.0</ele><time>2026-05-05T12:39:06Z</time></trkpt><trkpt lat="30.71355319229191" lon="-6.50794361476867"><ele>1062.0</ele><time>2026-05-05T12:39:07Z</time></trkpt><trkpt lat="30.713558816926554" lon="-6.508139214945024"><ele>1063.0</ele><time>2026-05-05T12:39:08Z</time></trkpt><trkpt lat="30.713561884129263" lon="-6.508340246514712"><ele>1063.0</ele><time>2026-05-05T12:39:09Z</time></trkpt><trkpt lat="30.713570774745836" lon="-6.508539413977728"><ele>1063.0</ele><time>2026-05-05T12:39:10Z</time></trkpt><trkpt lat="30.713582428457034" lon="-6.508739430832193"><ele>1063.0</ele><time>2026-05-05T12:39:11Z</time></trkpt><trkpt lat="30.713592609906453" lon="-6.508937541147725"><ele>1066.3333333333333</ele><time>2026-05-05T12:39:12Z</time></trkpt><trkpt lat="30.713602262794506" lon="-6.509140177756646"><ele>1069.6666666666667</ele><time>2026-05-05T12:39:13Z</time></trkpt><trkpt lat="30.713615921817528" lon="-6.509348425272693"><ele>1073.0</ele><time>2026-05-05T12:39:14Z</time></trkpt><trkpt lat="30.713627074327555" lon="-6.509562713788636"><ele>1074.0</ele><time>2026-05-05T12:39:15Z</time></trkpt><trkpt lat="30.71364366803681" lon="-6.509776257011403"><ele>1075.0</ele><time>2026-05-05T12:39:16Z</time></trkpt><trkpt lat="30.713658516561708" lon="-6.509996364520672"><ele>1076.0</ele><time>2026-05-05T12:39:17Z</time></trkpt><trkpt lat="30.71367254200517" lon="-6.510212665300138"><ele>1077.0</ele><time>2026-05-05T12:39:18Z</time></trkpt><trkpt lat="30.71368962152894" lon="-6.510428207543819"><ele>1078.0</ele><time>2026-05-05T12:39:19Z</time></trkpt><trkpt lat="30.713708307588405" lon="-6.510632671295131"><ele>1079.0</ele><time>2026-05-05T12:39:20Z</time></trkpt><trkpt lat="30.713732366675877" lon="-6.5108359400436715"><ele>1079.0</ele><time>2026-05-05T12:39:21Z</time></trkpt><trkpt lat="30.71376785470683" lon="-6.511036276121916"><ele>1079.0</ele><time>2026-05-05T12:39:22Z</time></trkpt><trkpt lat="30.713796606784015" lon="-6.511240754975802"><ele>1079.0</ele><time>2026-05-05T12:39:23Z</time></trkpt><trkpt lat="30.713815429111744" lon="-6.511446022755775"><ele>1081.0</ele><time>2026-05-05T12:39:24Z</time></trkpt><trkpt lat="30.713839718330185" lon="-6.511652409153426"><ele>1083.0</ele><time>2026-05-05T12:39:25Z</time></trkpt><trkpt lat="30.713867880528298" lon="-6.511852017893924"><ele>1085.0</ele><time>2026-05-05T12:39:26Z</time></trkpt><trkpt lat="30.713894699850982" lon="-6.512050320858192"><ele>1085.0</ele><time>2026-05-05T12:39:27Z</time></trkpt><trkpt lat="30.713915445549024" lon="-6.512247934200863"><ele>1085.0</ele><time>2026-05-05T12:39:28Z</time></trkpt><trkpt lat="30.713945821808874" lon="-6.512456035040322"><ele>1085.0</ele><time>2026-05-05T12:39:29Z</time></trkpt><trkpt lat="30.713983511364738" lon="-6.5126594882028"><ele>1085.0</ele><time>2026-05-05T12:39:30Z</time></trkpt><trkpt lat="30.71401282423194" lon="-6.512875150248077"><ele>1085.0</ele><time>2026-05-05T12:39:31Z</time></trkpt><trkpt lat="30.71403665885528" lon="-6.513087814333658"><ele>1085.0</ele><time>2026-05-05T12:39:32Z</time></trkpt><trkpt lat="30.71408133904869" lon="-6.5132913064214994"><ele>1084.6666666666667</ele><time>2026-05-05T12:39:33Z</time></trkpt><trkpt lat="30.714133356225787" lon="-6.513491973558854"><ele>1084.3333333333333</ele><time>2026-05-05T12:39:34Z</time></trkpt><trkpt lat="30.714187901132107" lon="-6.513700686194201"><ele>1084.0</ele><time>2026-05-05T12:39:35Z</time></trkpt><trkpt lat="30.714246677212792" lon="-6.513898368298499"><ele>1083.0</ele><time>2026-05-05T12:39:36Z</time></trkpt><trkpt lat="30.714326958006527" lon="-6.514087336204035"><ele>1082.0</ele><time>2026-05-05T12:39:37Z</time></trkpt><trkpt lat="30.714417169990483" lon="-6.514259143722141"><ele>1081.0</ele><time>2026-05-05T12:39:38Z</time></trkpt><trkpt lat="30.714511057286572" lon="-6.514438058196354"><ele>1085.0</ele><time>2026-05-05T12:39:39Z</time></trkpt><trkpt lat="30.714605725027408" lon="-6.514621746935264"><ele>1089.0</ele><time>2026-05-05T12:39:40Z</time></trkpt><trkpt lat="30.71471162433077" lon="-6.514788314284866"><ele>1093.0</ele><time>2026-05-05T12:39:41Z</time></trkpt><trkpt lat="30.714825932478444" lon="-6.514948522552168"><ele>1093.0</ele><time>2026-05-05T12:39:41.999Z</time></trkpt><trkpt lat="30.714952327455375" lon="-6.515092949631558"><ele>1093.0</ele><time>2026-05-05T12:39:42.999Z</time></trkpt><trkpt lat="30.715086073711444" lon="-6.515235737472507"><ele>1093.0</ele><time>2026-05-05T12:39:43.999Z</time></trkpt><trkpt lat="30.715221113118126" lon="-6.515368803815643"><ele>1094.0</ele><time>2026-05-05T12:39:44.999Z</time></trkpt><trkpt lat="30.715365825773898" lon="-6.515490290358547"><ele>1095.0</ele><time>2026-05-05T12:39:45.999Z</time></trkpt><trkpt lat="30.715519635465636" lon="-6.515598473025963"><ele>1096.0</ele><time>2026-05-05T12:39:46.999Z</time></trkpt><trkpt lat="30.715676217996954" lon="-6.515705262376247"><ele>1096.0</ele><time>2026-05-05T12:39:47.999Z</time></trkpt><trkpt lat="30.715841076770502" lon="-6.515799883840307"><ele>1096.0</ele><time>2026-05-05T12:39:48.999Z</time></trkpt><trkpt lat="30.716011191075385" lon="-6.515880866795831"><ele>1096.0</ele><time>2026-05-05T12:39:49.999Z</time></trkpt><trkpt lat="30.71618731153973" lon="-6.51595219416471"><ele>1097.6666666666665</ele><time>2026-05-05T12:39:50.999Z</time></trkpt><trkpt lat="30.716364440011727" lon="-6.516018069558441"><ele>1099.3333333333333</ele><time>2026-05-05T12:39:51.999Z</time></trkpt><trkpt lat="30.716540528471366" lon="-6.516086802140823"><ele>1101.0</ele><time>2026-05-05T12:39:52.999Z</time></trkpt><trkpt lat="30.71670891470401" lon="-6.516166931140857"><ele>1100.3333333333333</ele><time>2026-05-05T12:39:53.999Z</time></trkpt><trkpt lat="30.716873902160472" lon="-6.51625837946967"><ele>1099.6666666666665</ele><time>2026-05-05T12:39:54.999Z</time></trkpt><trkpt lat="30.717035126526273" lon="-6.516355209305291"><ele>1099.0</ele><time>2026-05-05T12:39:55.999Z</time></trkpt><trkpt lat="30.717185402824693" lon="-6.516465260387409"><ele>1101.6666666666665</ele><time>2026-05-05T12:39:56.999Z</time></trkpt><trkpt lat="30.717330389756373" lon="-6.516584215308698"><ele>1104.3333333333333</ele><time>2026-05-05T12:39:57.999Z</time></trkpt><trkpt lat="30.71746895408685" lon="-6.516715270216934"><ele>1107.0</ele><time>2026-05-05T12:39:58.999Z</time></trkpt><trkpt lat="30.717599384932164" lon="-6.516859359165006"><ele>1107.0</ele><time>2026-05-05T12:39:59.999Z</time></trkpt><trkpt lat="30.717720181658876" lon="-6.517011074897175"><ele>1107.0</ele><time>2026-05-05T12:40:00.999Z</time></trkpt><trkpt lat="30.717829345293122" lon="-6.517174120380321"><ele>1107.0</ele><time>2026-05-05T12:40:01.999Z</time></trkpt><trkpt lat="30.717936325885564" lon="-6.517337500939569"><ele>1109.6666666666667</ele><time>2026-05-05T12:40:02.999Z</time></trkpt><trkpt lat="30.718058939339397" lon="-6.517488863025288"><ele>1112.3333333333335</ele><time>2026-05-05T12:40:03.999Z</time></trkpt><trkpt lat="30.71816173411273" lon="-6.517657486639997"><ele>1115.0</ele><time>2026-05-05T12:40:04.999Z</time></trkpt><trkpt lat="30.71825411086313" lon="-6.51783159598324"><ele>1117.3333333333335</ele><time>2026-05-05T12:40:05.999Z</time></trkpt><trkpt lat="30.718361123853967" lon="-6.517993518636633"><ele>1119.6666666666667</ele><time>2026-05-05T12:40:06.999Z</time></trkpt><trkpt lat="30.718466585428544" lon="-6.518157461063989"><ele>1122.0</ele><time>2026-05-05T12:40:07.999Z</time></trkpt><trkpt lat="30.71857070643158" lon="-6.518321958158892"><ele>1127.6666666666667</ele><time>2026-05-05T12:40:09Z</time></trkpt><trkpt lat="30.718684004480927" lon="-6.518483196510845"><ele>1133.3333333333335</ele><time>2026-05-05T12:40:10Z</time></trkpt><trkpt lat="30.71882536140751" lon="-6.518607781331044"><ele>1139.0</ele><time>2026-05-05T12:40:11Z</time></trkpt><trkpt lat="30.7189660579198" lon="-6.518737789803587"><ele>1139.0</ele><time>2026-05-05T12:40:12Z</time></trkpt><trkpt lat="30.71910951564614" lon="-6.518870983626685"><ele>1139.0</ele><time>2026-05-05T12:40:13Z</time></trkpt><trkpt lat="30.719255997015377" lon="-6.519005848063448"><ele>1139.0</ele><time>2026-05-05T12:40:14Z</time></trkpt><trkpt lat="30.719399227799443" lon="-6.519140020666449"><ele>1142.6666666666667</ele><time>2026-05-05T12:40:15Z</time></trkpt><trkpt lat="30.719558295896118" lon="-6.519245102729006"><ele>1146.3333333333333</ele><time>2026-05-05T12:40:16Z</time></trkpt><trkpt lat="30.71973345026194" lon="-6.519321759823868"><ele>1150.0</ele><time>2026-05-05T12:40:17Z</time></trkpt><trkpt lat="30.71991150426866" lon="-6.519399182798671"><ele>1150.0</ele><time>2026-05-05T12:40:18Z</time></trkpt><trkpt lat="30.720090922450122" lon="-6.519477887061819"><ele>1150.0</ele><time>2026-05-05T12:40:19Z</time></trkpt><trkpt lat="30.720265186889854" lon="-6.5195640559779395"><ele>1150.0</ele><time>2026-05-05T12:40:20Z</time></trkpt><trkpt lat="30.72044087789543" lon="-6.51964067241442"><ele>1151.0</ele><time>2026-05-05T12:40:21Z</time></trkpt><trkpt lat="30.72060943085792" lon="-6.519730360288934"><ele>1152.0</ele><time>2026-05-05T12:40:22Z</time></trkpt><trkpt lat="30.72077121716195" lon="-6.51983296068575"><ele>1153.0</ele><time>2026-05-05T12:40:23Z</time></trkpt><trkpt lat="30.720921359071387" lon="-6.519950426831747"><ele>1154.6666666666665</ele><time>2026-05-05T12:40:24Z</time></trkpt><trkpt lat="30.72106828924099" lon="-6.520077664839923"><ele>1156.3333333333333</ele><time>2026-05-05T12:40:25Z</time></trkpt><trkpt lat="30.721207392603358" lon="-6.520215925143791"><ele>1158.0</ele><time>2026-05-05T12:40:26Z</time></trkpt><trkpt lat="30.721337689518002" lon="-6.520358949155857"><ele>1159.3333333333333</ele><time>2026-05-05T12:40:27Z</time></trkpt><trkpt lat="30.72145674895279" lon="-6.520514335674526"><ele>1160.6666666666665</ele><time>2026-05-05T12:40:28Z</time></trkpt><trkpt lat="30.721563407592296" lon="-6.520681767244538"><ele>1162.0</ele><time>2026-05-05T12:40:29Z</time></trkpt><trkpt lat="30.72166358413044" lon="-6.520851416531555"><ele>1162.0</ele><time>2026-05-05T12:40:30Z</time></trkpt><trkpt lat="30.721754188925324" lon="-6.521031945157471"><ele>1162.0</ele><time>2026-05-05T12:40:31Z</time></trkpt><trkpt lat="30.72183453423874" lon="-6.521219030546626"><ele>1162.0</ele><time>2026-05-05T12:40:32Z</time></trkpt><trkpt lat="30.721909823955656" lon="-6.52141273605044"><ele>1164.3333333333333</ele><time>2026-05-05T12:40:33Z</time></trkpt><trkpt lat="30.72200207293176" lon="-6.521600995549647"><ele>1166.6666666666667</ele><time>2026-05-05T12:40:34Z</time></trkpt><trkpt lat="30.722080845171448" lon="-6.521796341311341"><ele>1169.0</ele><time>2026-05-05T12:40:35Z</time></trkpt><trkpt lat="30.722160398630045" lon="-6.5219944021773895"><ele>1168.0</ele><time>2026-05-05T12:40:36Z</time></trkpt><trkpt lat="30.72224225403289" lon="-6.522197087476748"><ele>1167.0</ele><time>2026-05-05T12:40:37Z</time></trkpt><trkpt lat="30.722270194734616" lon="-6.522455159074357"><ele>1166.0</ele><time>2026-05-05T12:40:38Z</time></trkpt><trkpt lat="30.722299840937392" lon="-6.522674323354617"><ele>1166.0</ele><time>2026-05-05T12:40:39Z</time></trkpt><trkpt lat="30.722371939411683" lon="-6.522889761915859"><ele>1166.0</ele><time>2026-05-05T12:40:40Z</time></trkpt><trkpt lat="30.72244629083584" lon="-6.523112835736193"><ele>1166.0</ele><time>2026-05-05T12:40:41Z</time></trkpt><trkpt lat="30.722515565428058" lon="-6.523333198451412"><ele>1167.0</ele><time>2026-05-05T12:40:42Z</time></trkpt><trkpt lat="30.722580760704403" lon="-6.52355809578427"><ele>1168.0</ele><time>2026-05-05T12:40:43Z</time></trkpt><trkpt lat="30.72264561534529" lon="-6.523784281180637"><ele>1169.0</ele><time>2026-05-05T12:40:44Z</time></trkpt><trkpt lat="30.722709673246865" lon="-6.52400772665791"><ele>1172.0</ele><time>2026-05-05T12:40:45Z</time></trkpt><trkpt lat="30.722771950670314" lon="-6.524230099879251"><ele>1175.0</ele><time>2026-05-05T12:40:46Z</time></trkpt><trkpt lat="30.722834120553557" lon="-6.52445615268141"><ele>1178.0</ele><time>2026-05-05T12:40:47Z</time></trkpt><trkpt lat="30.72289730236221" lon="-6.524681396277486"><ele>1178.0</ele><time>2026-05-05T12:40:48Z</time></trkpt><trkpt lat="30.722963648246182" lon="-6.52490399529495"><ele>1178.0</ele><time>2026-05-05T12:40:49Z</time></trkpt><trkpt lat="30.72303008876599" lon="-6.5251294903058366"><ele>1178.0</ele><time>2026-05-05T12:40:50Z</time></trkpt><trkpt lat="30.723090685969986" lon="-6.525349936729269"><ele>1179.3333333333335</ele><time>2026-05-05T12:40:51Z</time></trkpt><trkpt lat="30.72315067924508" lon="-6.525568250967116"><ele>1180.6666666666667</ele><time>2026-05-05T12:40:52Z</time></trkpt><trkpt lat="30.723210396008763" lon="-6.5257849985918295"><ele>1182.0</ele><time>2026-05-05T12:40:53Z</time></trkpt><trkpt lat="30.723272457798362" lon="-6.526005207047822"><ele>1182.0</ele><time>2026-05-05T12:40:54Z</time></trkpt><trkpt lat="30.723333942644853" lon="-6.526226267488654"><ele>1182.0</ele><time>2026-05-05T12:40:55Z</time></trkpt><trkpt lat="30.72339641160962" lon="-6.52644979924146"><ele>1182.0</ele><time>2026-05-05T12:40:56Z</time></trkpt><trkpt lat="30.723468313567043" lon="-6.526669453005615"><ele>1182.0</ele><time>2026-05-05T12:40:57Z</time></trkpt><trkpt lat="30.723546282793652" lon="-6.526890887172932"><ele>1182.0</ele><time>2026-05-05T12:40:58Z</time></trkpt><trkpt lat="30.723622032385098" lon="-6.52710848301026"><ele>1182.0</ele><time>2026-05-05T12:40:59Z</time></trkpt><trkpt lat="30.723701074612023" lon="-6.5273191359423555"><ele>1184.6666666666667</ele><time>2026-05-05T12:41:00Z</time></trkpt><trkpt lat="30.723793663008873" lon="-6.527527020668796"><ele>1187.3333333333335</ele><time>2026-05-05T12:41:01Z</time></trkpt><trkpt lat="30.72388713090097" lon="-6.527734335696882"><ele>1190.0</ele><time>2026-05-05T12:41:02Z</time></trkpt><trkpt lat="30.72398794146146" lon="-6.527929619105442"><ele>1190.0</ele><time>2026-05-05T12:41:03Z</time></trkpt><trkpt lat="30.72410556916699" lon="-6.528118727550878"><ele>1190.0</ele><time>2026-05-05T12:41:04Z</time></trkpt><trkpt lat="30.724223071940642" lon="-6.528308381131659"><ele>1190.0</ele><time>2026-05-05T12:41:05Z</time></trkpt><trkpt lat="30.724342702359976" lon="-6.5284933587552425"><ele>1193.0</ele><time>2026-05-05T12:41:06Z</time></trkpt><trkpt lat="30.72448008938013" lon="-6.528663141083989"><ele>1196.0</ele><time>2026-05-05T12:41:07Z</time></trkpt><trkpt lat="30.72460948018855" lon="-6.528837400167938"><ele>1199.0</ele><time>2026-05-05T12:41:08Z</time></trkpt><trkpt lat="30.724758564583812" lon="-6.528993116138232"><ele>1199.0</ele><time>2026-05-05T12:41:09Z</time></trkpt><trkpt lat="30.724924356576587" lon="-6.529123326157547"><ele>1199.0</ele><time>2026-05-05T12:41:10Z</time></trkpt><trkpt lat="30.725072992460372" lon="-6.529275088111428"><ele>1199.0</ele><time>2026-05-05T12:41:11Z</time></trkpt><trkpt lat="30.72523584410245" lon="-6.5294058174858725"><ele>1202.3333333333335</ele><time>2026-05-05T12:41:12Z</time></trkpt><trkpt lat="30.725398828392137" lon="-6.529532037251164"><ele>1205.6666666666667</ele><time>2026-05-05T12:41:13Z</time></trkpt><trkpt lat="30.725562763699052" lon="-6.529658984106632"><ele>1209.0</ele><time>2026-05-05T12:41:14Z</time></trkpt><trkpt lat="30.725723014933116" lon="-6.52978694700982"><ele>1209.0</ele><time>2026-05-05T12:41:15Z</time></trkpt><trkpt lat="30.725882047018686" lon="-6.5299178449983035"><ele>1209.0</ele><time>2026-05-05T12:41:16Z</time></trkpt><trkpt lat="30.726041754109314" lon="-6.53004807021614"><ele>1209.0</ele><time>2026-05-05T12:41:17Z</time></trkpt><trkpt lat="30.726201748148398" lon="-6.530176950586163"><ele>1211.3333333333333</ele><time>2026-05-05T12:41:18Z</time></trkpt><trkpt lat="30.726361063333766" lon="-6.530304093056017"><ele>1213.6666666666665</ele><time>2026-05-05T12:41:19Z</time></trkpt><trkpt lat="30.72652085442287" lon="-6.530431991621774"><ele>1216.0</ele><time>2026-05-05T12:41:20Z</time></trkpt><trkpt lat="30.726680506525888" lon="-6.530559671257764"><ele>1216.0</ele><time>2026-05-05T12:41:21Z</time></trkpt><trkpt lat="30.72683722288216" lon="-6.530686800803511"><ele>1216.0</ele><time>2026-05-05T12:41:22Z</time></trkpt><trkpt lat="30.72698783973103" lon="-6.530815805698773"><ele>1216.0</ele><time>2026-05-05T12:41:23Z</time></trkpt><trkpt lat="30.72712494136471" lon="-6.530949115977587"><ele>1216.3333333333333</ele><time>2026-05-05T12:41:24Z</time></trkpt><trkpt lat="30.72724390854266" lon="-6.531100587275204"><ele>1216.6666666666667</ele><time>2026-05-05T12:41:25Z</time></trkpt><trkpt lat="30.727342508835992" lon="-6.531271339027199"><ele>1217.0</ele><time>2026-05-05T12:41:26Z</time></trkpt><trkpt lat="30.727443569225272" lon="-6.531435276744376"><ele>1217.0</ele><time>2026-05-05T12:41:27Z</time></trkpt><trkpt lat="30.72748091505197" lon="-6.531639355070568"><ele>1217.0</ele><time>2026-05-05T12:41:28Z</time></trkpt><trkpt lat="30.727520595889583" lon="-6.531836736615078"><ele>1217.0</ele><time>2026-05-05T12:41:29Z</time></trkpt><trkpt lat="30.72754755766679" lon="-6.532035252333305"><ele>1220.0</ele><time>2026-05-05T12:41:30Z</time></trkpt><trkpt lat="30.727557674958955" lon="-6.532235479806728"><ele>1223.0</ele><time>2026-05-05T12:41:31Z</time></trkpt><trkpt lat="30.72754863851596" lon="-6.532435762208983"><ele>1226.0</ele><time>2026-05-05T12:41:32Z</time></trkpt><trkpt lat="30.727576789553385" lon="-6.532648997163781"><ele>1226.0</ele><time>2026-05-05T12:41:33Z</time></trkpt><trkpt lat="30.727523488344588" lon="-6.532839908451517"><ele>1226.0</ele><time>2026-05-05T12:41:34Z</time></trkpt><trkpt lat="30.727457820859385" lon="-6.533027304785374"><ele>1226.0</ele><time>2026-05-05T12:41:35Z</time></trkpt><trkpt lat="30.727391872700505" lon="-6.5332142022786215"><ele>1227.6666666666667</ele><time>2026-05-05T12:41:36Z</time></trkpt><trkpt lat="30.727308574794378" lon="-6.5333983280649965"><ele>1229.3333333333333</ele><time>2026-05-05T12:41:37Z</time></trkpt><trkpt lat="30.727225250780354" lon="-6.53357503678903"><ele>1231.0</ele><time>2026-05-05T12:41:38Z</time></trkpt><trkpt lat="30.727124497192996" lon="-6.533757150824361"><ele>1231.0</ele><time>2026-05-05T12:41:39Z</time></trkpt><trkpt lat="30.72702978930787" lon="-6.533923828202545"><ele>1231.0</ele><time>2026-05-05T12:41:40Z</time></trkpt><trkpt lat="30.726938548548006" lon="-6.534097276898827"><ele>1231.0</ele><time>2026-05-05T12:41:41Z</time></trkpt><trkpt lat="30.726847628466988" lon="-6.534276164803676"><ele>1231.0</ele><time>2026-05-05T12:41:42Z</time></trkpt><trkpt lat="30.72675016441897" lon="-6.534455750491098"><ele>1231.0</ele><time>2026-05-05T12:41:43Z</time></trkpt><trkpt lat="30.72665280411426" lon="-6.53463630568291"><ele>1231.0</ele><time>2026-05-05T12:41:44Z</time></trkpt><trkpt lat="30.72655519169575" lon="-6.534817303653112"><ele>1234.0</ele><time>2026-05-05T12:41:45Z</time></trkpt><trkpt lat="30.72646001515595" lon="-6.535002790625083"><ele>1237.0</ele><time>2026-05-05T12:41:46Z</time></trkpt><trkpt lat="30.726365792675168" lon="-6.535186269216508"><ele>1240.0</ele><time>2026-05-05T12:41:47Z</time></trkpt><trkpt lat="30.726382931333564" lon="-6.535361040314494"><ele>1244.0</ele><time>2026-05-05T12:41:48Z</time></trkpt><trkpt lat="30.72640270986048" lon="-6.535697600691042"><ele>1248.0</ele><time>2026-05-05T12:41:49Z</time></trkpt><trkpt lat="30.726236875345556" lon="-6.535912569430662"><ele>1249.3333333333333</ele><time>2026-05-05T12:41:50Z</time></trkpt><trkpt lat="30.726015498274037" lon="-6.535947745084046"><ele>1250.6666666666665</ele><time>2026-05-05T12:41:51Z</time></trkpt><trkpt lat="30.725924571113165" lon="-6.536112684095996"><ele>1252.0</ele><time>2026-05-05T12:41:52.001Z</time></trkpt><trkpt lat="30.72586285351859" lon="-6.536316401918239"><ele>1252.0</ele><time>2026-05-05T12:41:53.001Z</time></trkpt><trkpt lat="30.725813503369793" lon="-6.536522203817562"><ele>1252.0</ele><time>2026-05-05T12:41:54.001Z</time></trkpt><trkpt lat="30.72576790343897" lon="-6.536732494779083"><ele>1252.0</ele><time>2026-05-05T12:41:55.001Z</time></trkpt><trkpt lat="30.725720564289286" lon="-6.536943608675509"><ele>1254.0</ele><time>2026-05-05T12:41:56.001Z</time></trkpt><trkpt lat="30.725674665523037" lon="-6.537152683573542"><ele>1256.0</ele><time>2026-05-05T12:41:57.001Z</time></trkpt><trkpt lat="30.725630940330763" lon="-6.537362772909972"><ele>1258.0</ele><time>2026-05-05T12:41:58.001Z</time></trkpt><trkpt lat="30.725649631439378" lon="-6.537560259942708"><ele>1258.0</ele><time>2026-05-05T12:41:59.001Z</time></trkpt><trkpt lat="30.72568440066122" lon="-6.537745481723959"><ele>1258.0</ele><time>2026-05-05T12:42:00.001Z</time></trkpt><trkpt lat="30.72572839195101" lon="-6.537908961794008"><ele>1258.0</ele><time>2026-05-05T12:42:01.001Z</time></trkpt><trkpt lat="30.72580697321575" lon="-6.5383313843393935"><ele>1261.5</ele><time>2026-05-05T12:42:02.001Z</time></trkpt><trkpt lat="30.72574922756623" lon="-6.538533011885066"><ele>1265.0</ele><time>2026-05-05T12:42:03.001Z</time></trkpt><trkpt lat="30.725304078806015" lon="-6.53856908474534"><ele>1266.3333333333335</ele><time>2026-05-05T12:42:04.001Z</time></trkpt><trkpt lat="30.72521523011597" lon="-6.538739315478964"><ele>1267.6666666666667</ele><time>2026-05-05T12:42:05.001Z</time></trkpt><trkpt lat="30.725112883216045" lon="-6.538989705094589"><ele>1269.0</ele><time>2026-05-05T12:42:06.001Z</time></trkpt><trkpt lat="30.725124700323903" lon="-6.539230905191275"><ele>1269.0</ele><time>2026-05-05T12:42:07.001Z</time></trkpt><trkpt lat="30.725142242498453" lon="-6.539427040439517"><ele>1269.0</ele><time>2026-05-05T12:42:08.001Z</time></trkpt><trkpt lat="30.72513421871896" lon="-6.539624819417987"><ele>1269.0</ele><time>2026-05-05T12:42:09.001Z</time></trkpt><trkpt lat="30.72509750015727" lon="-6.539829429388348"><ele>1272.0</ele><time>2026-05-05T12:42:10.001Z</time></trkpt><trkpt lat="30.72499075426596" lon="-6.53999538744782"><ele>1275.0</ele><time>2026-05-05T12:42:11.001Z</time></trkpt><trkpt lat="30.724907375715926" lon="-6.540211782243353"><ele>1278.0</ele><time>2026-05-05T12:42:12.001Z</time></trkpt><trkpt lat="30.724882951056273" lon="-6.5404070581732014"><ele>1280.6666666666667</ele><time>2026-05-05T12:42:13.001Z</time></trkpt><trkpt lat="30.724878252508294" lon="-6.5406163983077725"><ele>1283.3333333333335</ele><time>2026-05-05T12:42:14.001Z</time></trkpt><trkpt lat="30.72487385991312" lon="-6.540814424658595"><ele>1286.0</ele><time>2026-05-05T12:42:15.001Z</time></trkpt><trkpt lat="30.72487258597429" lon="-6.54100958705744"><ele>1286.0</ele><time>2026-05-05T12:42:16.001Z</time></trkpt><trkpt lat="30.72487123541788" lon="-6.541205158209959"><ele>1286.0</ele><time>2026-05-05T12:42:17.001Z</time></trkpt><trkpt lat="30.724871337449926" lon="-6.541404895354465"><ele>1286.0</ele><time>2026-05-05T12:42:18.001Z</time></trkpt><trkpt lat="30.724858059927264" lon="-6.541607535025439"><ele>1289.0</ele><time>2026-05-05T12:42:19.001Z</time></trkpt><trkpt lat="30.724845130499183" lon="-6.541813812254249"><ele>1292.0</ele><time>2026-05-05T12:42:20.001Z</time></trkpt><trkpt lat="30.724829324953127" lon="-6.542022754282319"><ele>1295.0</ele><time>2026-05-05T12:42:21.001Z</time></trkpt><trkpt lat="30.724814851817644" lon="-6.542237127955538"><ele>1296.6666666666667</ele><time>2026-05-05T12:42:22.001Z</time></trkpt><trkpt lat="30.724769591935615" lon="-6.542447162004026"><ele>1298.3333333333333</ele><time>2026-05-05T12:42:23.001Z</time></trkpt><trkpt lat="30.724736739907964" lon="-6.542670754301391"><ele>1300.0</ele><time>2026-05-05T12:42:24.001Z</time></trkpt><trkpt lat="30.72472911953136" lon="-6.542899902584753"><ele>1301.6666666666665</ele><time>2026-05-05T12:42:25.001Z</time></trkpt><trkpt lat="30.724738801767646" lon="-6.54312323994951"><ele>1303.3333333333333</ele><time>2026-05-05T12:42:26.001Z</time></trkpt><trkpt lat="30.72475933937772" lon="-6.54334695782293"><ele>1305.0</ele><time>2026-05-05T12:42:27.001Z</time></trkpt><trkpt lat="30.72476723574121" lon="-6.54357371896202"><ele>1306.6666666666667</ele><time>2026-05-05T12:42:28.001Z</time></trkpt><trkpt lat="30.724785407503187" lon="-6.543800715014858"><ele>1308.3333333333335</ele><time>2026-05-05T12:42:29.001Z</time></trkpt><trkpt lat="30.724812681610494" lon="-6.544025600092589"><ele>1310.0</ele><time>2026-05-05T12:42:30.001Z</time></trkpt><trkpt lat="30.724842427867486" lon="-6.544248083151565"><ele>1310.0</ele><time>2026-05-05T12:42:31.001Z</time></trkpt><trkpt lat="30.7248775667118" lon="-6.5444696531833655"><ele>1310.0</ele><time>2026-05-05T12:42:32.001Z</time></trkpt><trkpt lat="30.724921210552825" lon="-6.544688513290992"><ele>1310.0</ele><time>2026-05-05T12:42:33.001Z</time></trkpt><trkpt lat="30.724934075090577" lon="-6.544914862896862"><ele>1310.6666666666667</ele><time>2026-05-05T12:42:34.001Z</time></trkpt><trkpt lat="30.72498418049692" lon="-6.545127596062818"><ele>1311.3333333333333</ele><time>2026-05-05T12:42:35.001Z</time></trkpt><trkpt lat="30.72503565272023" lon="-6.545341462853527"><ele>1312.0</ele><time>2026-05-05T12:42:36.001Z</time></trkpt><trkpt lat="30.725092001411028" lon="-6.545549235865606"><ele>1313.0</ele><time>2026-05-05T12:42:37.001Z</time></trkpt><trkpt lat="30.72513219575683" lon="-6.545757618969796"><ele>1314.0</ele><time>2026-05-05T12:42:38.001Z</time></trkpt><trkpt lat="30.725100797018687" lon="-6.545955540827561"><ele>1315.0</ele><time>2026-05-05T12:42:39.001Z</time></trkpt><trkpt lat="30.72503969814248" lon="-6.546139140510009"><ele>1318.5</ele><time>2026-05-05T12:42:40.001Z</time></trkpt><trkpt lat="30.72490933087058" lon="-6.546346082153665"><ele>1322.0</ele><time>2026-05-05T12:42:41.001Z</time></trkpt><trkpt lat="30.724870834893213" lon="-6.546619677827664"><ele>1322.0</ele><time>2026-05-05T12:42:42.001Z</time></trkpt><trkpt lat="30.72489518806698" lon="-6.546883902045999"><ele>1322.0</ele><time>2026-05-05T12:42:43.001Z</time></trkpt><trkpt lat="30.724955956202276" lon="-6.54712583770984"><ele>1322.0</ele><time>2026-05-05T12:42:44.001Z</time></trkpt><trkpt lat="30.72504513609614" lon="-6.547357179895361"><ele>1321.3333333333335</ele><time>2026-05-05T12:42:45.001Z</time></trkpt><trkpt lat="30.725185891583926" lon="-6.547569954868516"><ele>1320.6666666666667</ele><time>2026-05-05T12:42:46.001Z</time></trkpt><trkpt lat="30.725307865901172" lon="-6.547733815444051"><ele>1320.0</ele><time>2026-05-05T12:42:47.001Z</time></trkpt><trkpt lat="30.725431668239484" lon="-6.547887953699572"><ele>1327.6666666666667</ele><time>2026-05-05T12:42:48.001Z</time></trkpt><trkpt lat="30.725561307017145" lon="-6.548021559256031"><ele>1335.3333333333335</ele><time>2026-05-05T12:42:49.001Z</time></trkpt><trkpt lat="30.725615316266442" lon="-6.548221586139861"><ele>1343.0</ele><time>2026-05-05T12:42:50.001Z</time></trkpt><trkpt lat="30.725732251138872" lon="-6.548390086168342"><ele>1343.0</ele><time>2026-05-05T12:42:51.001Z</time></trkpt><trkpt lat="30.725775024793755" lon="-6.548630137703364"><ele>1343.0</ele><time>2026-05-05T12:42:52.001Z</time></trkpt><trkpt lat="30.725794152120017" lon="-6.5488387987767895"><ele>1343.0</ele><time>2026-05-05T12:42:53.001Z</time></trkpt><trkpt lat="30.725278215698577" lon="-6.548946356247829"><ele>1347.5</ele><time>2026-05-05T12:42:54.001Z</time></trkpt><trkpt lat="30.725267486267082" lon="-6.54932927313298"><ele>1352.0</ele><time>2026-05-05T12:42:55.001Z</time></trkpt><trkpt lat="30.72532530829913" lon="-6.549547715088266"><ele>1355.3333333333335</ele><time>2026-05-05T12:42:56.001Z</time></trkpt><trkpt lat="30.725365959467876" lon="-6.549736546229247"><ele>1358.6666666666667</ele><time>2026-05-05T12:42:57.001Z</time></trkpt><trkpt lat="30.725407637481176" lon="-6.549936905970845"><ele>1362.0</ele><time>2026-05-05T12:42:58.001Z</time></trkpt><trkpt lat="30.72547029700095" lon="-6.550140481142254"><ele>1362.0</ele><time>2026-05-05T12:42:59.001Z</time></trkpt><trkpt lat="30.72550109057594" lon="-6.5503612057431715"><ele>1362.0</ele><time>2026-05-05T12:43:00.001Z</time></trkpt><trkpt lat="30.725531603406708" lon="-6.5505864629925865"><ele>1362.0</ele><time>2026-05-05T12:43:01.001Z</time></trkpt><trkpt lat="30.72555672405254" lon="-6.5508147727516866"><ele>1364.0</ele><time>2026-05-05T12:43:02.001Z</time></trkpt><trkpt lat="30.725577413061774" lon="-6.551043669519866"><ele>1366.0</ele><time>2026-05-05T12:43:03.001Z</time></trkpt><trkpt lat="30.7255833491188" lon="-6.551275611126722"><ele>1368.0</ele><time>2026-05-05T12:43:04.001Z</time></trkpt><trkpt lat="30.72556608100546" lon="-6.55150647035657"><ele>1370.0</ele><time>2026-05-05T12:43:05.001Z</time></trkpt><trkpt lat="30.72554554694485" lon="-6.551735429288491"><ele>1372.0</ele><time>2026-05-05T12:43:06.001Z</time></trkpt><trkpt lat="30.725527292062456" lon="-6.55195821853504"><ele>1374.0</ele><time>2026-05-05T12:43:07.001Z</time></trkpt><trkpt lat="30.72551104724847" lon="-6.552179121272075"><ele>1376.3333333333333</ele><time>2026-05-05T12:43:08.001Z</time></trkpt><trkpt lat="30.725508831468336" lon="-6.552399503353659"><ele>1378.6666666666665</ele><time>2026-05-05T12:43:09.001Z</time></trkpt><trkpt lat="30.72550014097123" lon="-6.552616847159025"><ele>1381.0</ele><time>2026-05-05T12:43:10.001Z</time></trkpt><trkpt lat="30.725534050598124" lon="-6.552843907100158"><ele>1381.6666666666665</ele><time>2026-05-05T12:43:11.001Z</time></trkpt><trkpt lat="30.725600583663006" lon="-6.5530481793624515"><ele>1382.3333333333333</ele><time>2026-05-05T12:43:12.001Z</time></trkpt><trkpt lat="30.725612011933613" lon="-6.553269383395606"><ele>1383.0</ele><time>2026-05-05T12:43:13.001Z</time></trkpt><trkpt lat="30.725602529641325" lon="-6.553492406962922"><ele>1384.3333333333333</ele><time>2026-05-05T12:43:14.001Z</time></trkpt><trkpt lat="30.725576174329216" lon="-6.5537109363197485"><ele>1385.6666666666665</ele><time>2026-05-05T12:43:15.001Z</time></trkpt><trkpt lat="30.725490678246263" lon="-6.553902903951166"><ele>1387.0</ele><time>2026-05-05T12:43:16.001Z</time></trkpt><trkpt lat="30.72542945685467" lon="-6.554119132359838"><ele>1387.0</ele><time>2026-05-05T12:43:17.001Z</time></trkpt><trkpt lat="30.72542206844768" lon="-6.554347613230492"><ele>1387.0</ele><time>2026-05-05T12:43:18.001Z</time></trkpt><trkpt lat="30.72544428013141" lon="-6.554555409054121"><ele>1387.0</ele><time>2026-05-05T12:43:19.001Z</time></trkpt><trkpt lat="30.725434061760726" lon="-6.55476942974589"><ele>1386.0</ele><time>2026-05-05T12:43:20.001Z</time></trkpt><trkpt lat="30.725433355549974" lon="-6.5549856566383"><ele>1385.0</ele><time>2026-05-05T12:43:21.001Z</time></trkpt><trkpt lat="30.725440472261468" lon="-6.555203548048246"><ele>1384.0</ele><time>2026-05-05T12:43:22.001Z</time></trkpt><trkpt lat="30.72544656488202" lon="-6.555420887065394"><ele>1383.3333333333333</ele><time>2026-05-05T12:43:23.001Z</time></trkpt><trkpt lat="30.72544801995938" lon="-6.555634594134864"><ele>1382.6666666666667</ele><time>2026-05-05T12:43:24.001Z</time></trkpt><trkpt lat="30.72544664350025" lon="-6.55584108068754"><ele>1382.0</ele><time>2026-05-05T12:43:25.001Z</time></trkpt><trkpt lat="30.725432548138702" lon="-6.556041636780806"><ele>1383.3333333333335</ele><time>2026-05-05T12:43:26.001Z</time></trkpt><trkpt lat="30.72539933857751" lon="-6.556239092308778"><ele>1384.6666666666667</ele><time>2026-05-05T12:43:27.001Z</time></trkpt><trkpt lat="30.725350906378598" lon="-6.556435852965952"><ele>1386.0</ele><time>2026-05-05T12:43:28.001Z</time></trkpt><trkpt lat="30.725233443772822" lon="-6.556582871357566"><ele>1387.75</ele><time>2026-05-05T12:43:29.001Z</time></trkpt><trkpt lat="30.725098080044614" lon="-6.556648408695633"><ele>1389.5</ele><time>2026-05-05T12:43:30.001Z</time></trkpt><trkpt lat="30.72495443974506" lon="-6.556748192211611"><ele>1391.25</ele><time>2026-05-05T12:43:31.001Z</time></trkpt><trkpt lat="30.72496719643872" lon="-6.5566088891821614"><ele>1393.0</ele><time>2026-05-05T12:43:32.001Z</time></trkpt><trkpt lat="30.724830879125154" lon="-6.55728614821501"><ele>1399.3333333333333</ele><time>2026-05-05T12:43:33.001Z</time></trkpt><trkpt lat="30.7247130378127" lon="-6.557437079659255"><ele>1405.6666666666667</ele><time>2026-05-05T12:43:34.001Z</time></trkpt><trkpt lat="30.72461113455379" lon="-6.557599024429811"><ele>1412.0</ele><time>2026-05-05T12:43:35.001Z</time></trkpt><trkpt lat="30.724522025072698" lon="-6.557770757140796"><ele>1412.6666666666667</ele><time>2026-05-05T12:43:36.001Z</time></trkpt><trkpt lat="30.72444052461981" lon="-6.557946370033046"><ele>1413.3333333333333</ele><time>2026-05-05T12:43:37.001Z</time></trkpt><trkpt lat="30.724367891278625" lon="-6.5581310348564115"><ele>1414.0</ele><time>2026-05-05T12:43:38.001Z</time></trkpt><trkpt lat="30.724302938867222" lon="-6.558325115928528"><ele>1410.6666666666665</ele><time>2026-05-05T12:43:39.001Z</time></trkpt><trkpt lat="30.72424649374037" lon="-6.558524691703062"><ele>1407.3333333333333</ele><time>2026-05-05T12:43:40.001Z</time></trkpt><trkpt lat="30.724200215353928" lon="-6.558730893228863"><ele>1404.0</ele><time>2026-05-05T12:43:41.001Z</time></trkpt><trkpt lat="30.724159699376067" lon="-6.558928737494936"><ele>1404.0</ele><time>2026-05-05T12:43:42.001Z</time></trkpt><trkpt lat="30.724122404385746" lon="-6.559111124319828"><ele>1404.0</ele><time>2026-05-05T12:43:43.001Z</time></trkpt><trkpt lat="30.724086438615547" lon="-6.559285178207395"><ele>1404.0</ele><time>2026-05-05T12:43:44.001Z</time></trkpt><trkpt lat="30.724045070968657" lon="-6.5594626529898985"><ele>1402.3333333333333</ele><time>2026-05-05T12:43:45.001Z</time></trkpt><trkpt lat="30.724004469447237" lon="-6.55970356306526"><ele>1400.6666666666665</ele><time>2026-05-05T12:43:46.001Z</time></trkpt><trkpt lat="30.72398956435986" lon="-6.559903108688376"><ele>1399.0</ele><time>2026-05-05T12:43:47.001Z</time></trkpt><trkpt lat="30.723992330763068" lon="-6.560092919724872"><ele>1399.0</ele><time>2026-05-05T12:43:48.001Z</time></trkpt><trkpt lat="30.724008666605748" lon="-6.560337329333145"><ele>1399.0</ele><time>2026-05-05T12:43:49.001Z</time></trkpt><trkpt lat="30.72397766495423" lon="-6.560552975289728"><ele>1399.0</ele><time>2026-05-05T12:43:50.001Z</time></trkpt><trkpt lat="30.723931022926184" lon="-6.560780688426976"><ele>1396.6666666666665</ele><time>2026-05-05T12:43:51.001Z</time></trkpt><trkpt lat="30.723855168910355" lon="-6.560990231405337"><ele>1394.3333333333333</ele><time>2026-05-05T12:43:52.001Z</time></trkpt><trkpt lat="30.723796529965195" lon="-6.561184933442417"><ele>1392.0</ele><time>2026-05-05T12:43:53.001Z</time></trkpt><trkpt lat="30.723756594015367" lon="-6.561388154000454"><ele>1389.6666666666667</ele><time>2026-05-05T12:43:54.001Z</time></trkpt><trkpt lat="30.723735433195234" lon="-6.561594178398784"><ele>1387.3333333333335</ele><time>2026-05-05T12:43:55.001Z</time></trkpt><trkpt lat="30.72372799541526" lon="-6.561787859953725"><ele>1385.0</ele><time>2026-05-05T12:43:56.001Z</time></trkpt><trkpt lat="30.723723759010234" lon="-6.561980499635243"><ele>1384.3333333333335</ele><time>2026-05-05T12:43:57.001Z</time></trkpt><trkpt lat="30.72374329014934" lon="-6.562140846600747"><ele>1383.6666666666667</ele><time>2026-05-05T12:43:58.001Z</time></trkpt><trkpt lat="30.723757838569494" lon="-6.562325738130037"><ele>1383.0</ele><time>2026-05-05T12:43:59.001Z</time></trkpt><trkpt lat="30.723755061250777" lon="-6.562634147468956"><ele>1383.0</ele><time>2026-05-05T12:44:00.001Z</time></trkpt><trkpt lat="30.723709256870546" lon="-6.562812234908379"><ele>1383.0</ele><time>2026-05-05T12:44:01.001Z</time></trkpt><trkpt lat="30.723590496073324" lon="-6.563068828326135"><ele>1383.0</ele><time>2026-05-05T12:44:02.001Z</time></trkpt><trkpt lat="30.723342400916803" lon="-6.563260673150085"><ele>1388.6666666666667</ele><time>2026-05-05T12:44:03.001Z</time></trkpt><trkpt lat="30.723186880100073" lon="-6.563355324460555"><ele>1394.3333333333335</ele><time>2026-05-05T12:44:04.001Z</time></trkpt><trkpt lat="30.723035467277604" lon="-6.563445167237161"><ele>1400.0</ele><time>2026-05-05T12:44:05.001Z</time></trkpt><trkpt lat="30.72286197842153" lon="-6.563491972432623"><ele>1397.6666666666667</ele><time>2026-05-05T12:44:06.001Z</time></trkpt><trkpt lat="30.722710966527185" lon="-6.563596751887722"><ele>1395.3333333333333</ele><time>2026-05-05T12:44:07.001Z</time></trkpt><trkpt lat="30.722594499657646" lon="-6.563686387206257"><ele>1393.0</ele><time>2026-05-05T12:44:08.001Z</time></trkpt><trkpt lat="30.722447743964814" lon="-6.563785098431633"><ele>1393.0</ele><time>2026-05-05T12:44:09.001Z</time></trkpt><trkpt lat="30.722291341330003" lon="-6.56389212914886"><ele>1393.0</ele><time>2026-05-05T12:44:10.001Z</time></trkpt><trkpt lat="30.722136041775908" lon="-6.563994196638229"><ele>1393.0</ele><time>2026-05-05T12:44:11.001Z</time></trkpt><trkpt lat="30.72199823160144" lon="-6.564103338495589"><ele>1397.6666666666665</ele><time>2026-05-05T12:44:12.001Z</time></trkpt><trkpt lat="30.721880219365808" lon="-6.564246216550047"><ele>1402.3333333333333</ele><time>2026-05-05T12:44:13.001Z</time></trkpt><trkpt lat="30.721766514639512" lon="-6.5644226972707544"><ele>1407.0</ele><time>2026-05-05T12:44:14.001Z</time></trkpt><trkpt lat="30.721671518548998" lon="-6.564606746434932"><ele>1407.0</ele><time>2026-05-05T12:44:15.001Z</time></trkpt><trkpt lat="30.72155833358622" lon="-6.564789239092474"><ele>1407.0</ele><time>2026-05-05T12:44:16.001Z</time></trkpt><trkpt lat="30.721432026542452" lon="-6.564939200283002"><ele>1407.0</ele><time>2026-05-05T12:44:17.001Z</time></trkpt><trkpt lat="30.72130650784478" lon="-6.565082052410525"><ele>1407.0</ele><time>2026-05-05T12:44:18.001Z</time></trkpt><trkpt lat="30.7211541239375" lon="-6.5652026570812225"><ele>1407.0</ele><time>2026-05-05T12:44:19.001Z</time></trkpt><trkpt lat="30.721022757971728" lon="-6.565329253800502"><ele>1407.0</ele><time>2026-05-05T12:44:20.001Z</time></trkpt><trkpt lat="30.720894881896566" lon="-6.565464525379724"><ele>1408.6666666666667</ele><time>2026-05-05T12:44:21.001Z</time></trkpt><trkpt lat="30.72077045493925" lon="-6.565608131824243"><ele>1410.3333333333335</ele><time>2026-05-05T12:44:22.001Z</time></trkpt><trkpt lat="30.720609217177987" lon="-6.565730345450367"><ele>1412.0</ele><time>2026-05-05T12:44:23.001Z</time></trkpt><trkpt lat="30.72046155155401" lon="-6.565838562682511"><ele>1412.0</ele><time>2026-05-05T12:44:24.001Z</time></trkpt><trkpt lat="30.720307039370628" lon="-6.565944251737028"><ele>1412.0</ele><time>2026-05-05T12:44:25.001Z</time></trkpt><trkpt lat="30.72013821401756" lon="-6.566034605900545"><ele>1412.0</ele><time>2026-05-05T12:44:26.001Z</time></trkpt><trkpt lat="30.719975162210844" lon="-6.566110722775104"><ele>1410.0</ele><time>2026-05-05T12:44:27.001Z</time></trkpt><trkpt lat="30.719813211973733" lon="-6.566192373939054"><ele>1408.0</ele><time>2026-05-05T12:44:28.001Z</time></trkpt><trkpt lat="30.71966198753527" lon="-6.5662897143566505"><ele>1406.0</ele><time>2026-05-05T12:44:29.001Z</time></trkpt><trkpt lat="30.71952102713407" lon="-6.566401187362227"><ele>1420.6666666666667</ele><time>2026-05-05T12:44:30.001Z</time></trkpt><trkpt lat="30.71938917357185" lon="-6.566526716150696"><ele>1435.3333333333333</ele><time>2026-05-05T12:44:31.001Z</time></trkpt><trkpt lat="30.719277873905927" lon="-6.566673396096917"><ele>1450.0</ele><time>2026-05-05T12:44:32.001Z</time></trkpt><trkpt lat="30.719158942827022" lon="-6.5668331570579666"><ele>1450.0</ele><time>2026-05-05T12:44:33.001Z</time></trkpt><trkpt lat="30.719034760510848" lon="-6.566972440040141"><ele>1450.0</ele><time>2026-05-05T12:44:34.001Z</time></trkpt><trkpt lat="30.718908675198225" lon="-6.5671143504458005"><ele>1450.0</ele><time>2026-05-05T12:44:35.001Z</time></trkpt><trkpt lat="30.71876496343068" lon="-6.567245588674805"><ele>1453.3333333333333</ele><time>2026-05-05T12:44:36.001Z</time></trkpt><trkpt lat="30.718625042174335" lon="-6.567370315723345"><ele>1456.6666666666667</ele><time>2026-05-05T12:44:37.001Z</time></trkpt><trkpt lat="30.71852738908386" lon="-6.567520812770532"><ele>1460.0</ele><time>2026-05-05T12:44:38.001Z</time></trkpt><trkpt lat="30.718419531763228" lon="-6.567683547910286"><ele>1460.0</ele><time>2026-05-05T12:44:39.001Z</time></trkpt><trkpt lat="30.718309655046923" lon="-6.56783254412087"><ele>1460.0</ele><time>2026-05-05T12:44:40.001Z</time></trkpt><trkpt lat="30.7181879219221" lon="-6.567985672382672"><ele>1460.0</ele><time>2026-05-05T12:44:41.001Z</time></trkpt><trkpt lat="30.718030577751993" lon="-6.56813868484016"><ele>1454.0</ele><time>2026-05-05T12:44:42.001Z</time></trkpt><trkpt lat="30.717770437304438" lon="-6.568238990772444"><ele>1448.0</ele><time>2026-05-05T12:44:43.001Z</time></trkpt><trkpt lat="30.717516741622546" lon="-6.5681866784338405"><ele>1448.0</ele><time>2026-05-05T12:44:44.001Z</time></trkpt><trkpt lat="30.71735471455882" lon="-6.568154556574236"><ele>1448.0</ele><time>2026-05-05T12:44:45.001Z</time></trkpt><trkpt lat="30.717207863441217" lon="-6.568120018015686"><ele>1448.0</ele><time>2026-05-05T12:44:46.001Z</time></trkpt><trkpt lat="30.717037449974445" lon="-6.568131324606642"><ele>1451.6666666666667</ele><time>2026-05-05T12:44:47.001Z</time></trkpt><trkpt lat="30.71686121991054" lon="-6.568157486649686"><ele>1455.3333333333333</ele><time>2026-05-05T12:44:48.001Z</time></trkpt><trkpt lat="30.71670784347068" lon="-6.568256983871057"><ele>1459.0</ele><time>2026-05-05T12:44:49.001Z</time></trkpt><trkpt lat="30.716564566563246" lon="-6.568375798434753"><ele>1459.0</ele><time>2026-05-05T12:44:50.001Z</time></trkpt><trkpt lat="30.7164096832319" lon="-6.56849565969182"><ele>1459.0</ele><time>2026-05-05T12:44:51.001Z</time></trkpt><trkpt lat="30.716263285261643" lon="-6.568624712670405"><ele>1459.0</ele><time>2026-05-05T12:44:52.001Z</time></trkpt><trkpt lat="30.716116132567635" lon="-6.568755661047292"><ele>1459.3333333333333</ele><time>2026-05-05T12:44:53.001Z</time></trkpt><trkpt lat="30.715987823838486" lon="-6.568886220403579"><ele>1459.6666666666667</ele><time>2026-05-05T12:44:54.001Z</time></trkpt><trkpt lat="30.715864487400754" lon="-6.5690397918544505"><ele>1460.0</ele><time>2026-05-05T12:44:55.001Z</time></trkpt><trkpt lat="30.715741318510396" lon="-6.569191913000186"><ele>1460.0</ele><time>2026-05-05T12:44:56.001Z</time></trkpt><trkpt lat="30.715578735400488" lon="-6.569350334455445"><ele>1460.0</ele><time>2026-05-05T12:44:57.001Z</time></trkpt><trkpt lat="30.715404635742452" lon="-6.569473514439826"><ele>1460.0</ele><time>2026-05-05T12:44:58.001Z</time></trkpt><trkpt lat="30.715270312394075" lon="-6.569573666997861"><ele>1465.3333333333335</ele><time>2026-05-05T12:44:59.001Z</time></trkpt><trkpt lat="30.715157237417312" lon="-6.569708663132874"><ele>1470.6666666666667</ele><time>2026-05-05T12:45:00.001Z</time></trkpt><trkpt lat="30.71508686135663" lon="-6.569876300410806"><ele>1476.0</ele><time>2026-05-05T12:45:01.001Z</time></trkpt><trkpt lat="30.71504119246911" lon="-6.570066720164593"><ele>1476.0</ele><time>2026-05-05T12:45:02.001Z</time></trkpt><trkpt lat="30.715007174200668" lon="-6.570275105574286"><ele>1476.0</ele><time>2026-05-05T12:45:03.001Z</time></trkpt><trkpt lat="30.714958429491183" lon="-6.570516779694631"><ele>1476.0</ele><time>2026-05-05T12:45:04.001Z</time></trkpt><trkpt lat="30.714894034391822" lon="-6.570725538801802"><ele>1474.0</ele><time>2026-05-05T12:45:05.001Z</time></trkpt><trkpt lat="30.714808811980863" lon="-6.570944967947891"><ele>1472.0</ele><time>2026-05-05T12:45:06.001Z</time></trkpt><trkpt lat="30.7147219924811" lon="-6.571143123996209"><ele>1470.0</ele><time>2026-05-05T12:45:07.001Z</time></trkpt><trkpt lat="30.714636846717617" lon="-6.571338382290246"><ele>1468.6666666666667</ele><time>2026-05-05T12:45:08.001Z</time></trkpt><trkpt lat="30.714567846590825" lon="-6.571527218507242"><ele>1467.3333333333335</ele><time>2026-05-05T12:45:09.001Z</time></trkpt><trkpt lat="30.714507050221762" lon="-6.571727583301105"><ele>1466.0</ele><time>2026-05-05T12:45:10.001Z</time></trkpt><trkpt lat="30.714481919281603" lon="-6.571941024370009"><ele>1461.3333333333335</ele><time>2026-05-05T12:45:11.001Z</time></trkpt><trkpt lat="30.714422145666305" lon="-6.572135554087589"><ele>1456.6666666666667</ele><time>2026-05-05T12:45:12.001Z</time></trkpt><trkpt lat="30.714346090232116" lon="-6.572331603827021"><ele>1452.0</ele><time>2026-05-05T12:45:13.001Z</time></trkpt><trkpt lat="30.714287992855223" lon="-6.572498380033936"><ele>1458.0</ele><time>2026-05-05T12:45:14.001Z</time></trkpt><trkpt lat="30.714250816303103" lon="-6.572671093505451"><ele>1464.0</ele><time>2026-05-05T12:45:15.001Z</time></trkpt><trkpt lat="30.714180326607433" lon="-6.572914421653465"><ele>1470.0</ele><time>2026-05-05T12:45:16.001Z</time></trkpt><trkpt lat="30.714002910773818" lon="-6.573113880120451"><ele>1470.0</ele><time>2026-05-05T12:45:17.001Z</time></trkpt><trkpt lat="30.71384440409675" lon="-6.573203050544654"><ele>1470.0</ele><time>2026-05-05T12:45:18.001Z</time></trkpt><trkpt lat="30.713712032619537" lon="-6.573302007209226"><ele>1470.0</ele><time>2026-05-05T12:45:19.001Z</time></trkpt><trkpt lat="30.713590553084362" lon="-6.573444231997393"><ele>1475.3333333333333</ele><time>2026-05-05T12:45:20.001Z</time></trkpt><trkpt lat="30.713466651712928" lon="-6.573588460092367"><ele>1480.6666666666665</ele><time>2026-05-05T12:45:21.001Z</time></trkpt><trkpt lat="30.713406494401756" lon="-6.573759109779773"><ele>1486.0</ele><time>2026-05-05T12:45:22.001Z</time></trkpt><trkpt lat="30.713353493769585" lon="-6.5739219638223805"><ele>1486.0</ele><time>2026-05-05T12:45:23.001Z</time></trkpt><trkpt lat="30.713259948174972" lon="-6.574163331553683"><ele>1486.0</ele><time>2026-05-05T12:45:24.001Z</time></trkpt><trkpt lat="30.7131190636289" lon="-6.574345932441427"><ele>1486.0</ele><time>2026-05-05T12:45:25.001Z</time></trkpt><trkpt lat="30.71293122489656" lon="-6.574489286479958"><ele>1490.3333333333333</ele><time>2026-05-05T12:45:26.001Z</time></trkpt><trkpt lat="30.712799635354482" lon="-6.574597258476024"><ele>1494.6666666666667</ele><time>2026-05-05T12:45:27.001Z</time></trkpt><trkpt lat="30.71266177948889" lon="-6.574720604886296"><ele>1499.0</ele><time>2026-05-05T12:45:28.001Z</time></trkpt><trkpt lat="30.712538162634793" lon="-6.574841654529352"><ele>1499.0</ele><time>2026-05-05T12:45:29.001Z</time></trkpt><trkpt lat="30.712413667599225" lon="-6.574996415036104"><ele>1499.0</ele><time>2026-05-05T12:45:30.001Z</time></trkpt><trkpt lat="30.712308900235556" lon="-6.575158003899253"><ele>1499.0</ele><time>2026-05-05T12:45:31.001Z</time></trkpt><trkpt lat="30.712206980966798" lon="-6.575336642190811"><ele>1494.0</ele><time>2026-05-05T12:45:32.001Z</time></trkpt><trkpt lat="30.712116216650568" lon="-6.575524515959004"><ele>1489.0</ele><time>2026-05-05T12:45:33.001Z</time></trkpt><trkpt lat="30.712046519822966" lon="-6.575724869049533"><ele>1484.0</ele><time>2026-05-05T12:45:34.001Z</time></trkpt><trkpt lat="30.711976371268825" lon="-6.575924250165516"><ele>1495.6666666666667</ele><time>2026-05-05T12:45:35.001Z</time></trkpt><trkpt lat="30.711904407069063" lon="-6.5761229025981995"><ele>1507.3333333333333</ele><time>2026-05-05T12:45:36.001Z</time></trkpt><trkpt lat="30.71182856467431" lon="-6.576317058601065"><ele>1519.0</ele><time>2026-05-05T12:45:37.001Z</time></trkpt><trkpt lat="30.711746962543344" lon="-6.576510283161055"><ele>1519.0</ele><time>2026-05-05T12:45:38.001Z</time></trkpt><trkpt lat="30.711659312019925" lon="-6.576697312490357"><ele>1519.0</ele><time>2026-05-05T12:45:39.001Z</time></trkpt><trkpt lat="30.711567159193052" lon="-6.576881472668835"><ele>1519.0</ele><time>2026-05-05T12:45:40.001Z</time></trkpt><trkpt lat="30.71147832953969" lon="-6.577066047923817"><ele>1515.3333333333333</ele><time>2026-05-05T12:45:41.001Z</time></trkpt><trkpt lat="30.711392728157843" lon="-6.577251446361879"><ele>1511.6666666666667</ele><time>2026-05-05T12:45:42.001Z</time></trkpt><trkpt lat="30.711309358969224" lon="-6.577435749575318"><ele>1508.0</ele><time>2026-05-05T12:45:43.001Z</time></trkpt><trkpt lat="30.711224416301604" lon="-6.577621375991318"><ele>1508.0</ele><time>2026-05-05T12:45:44.001Z</time></trkpt><trkpt lat="30.711137976799986" lon="-6.577804251051861"><ele>1508.0</ele><time>2026-05-05T12:45:45.001Z</time></trkpt><trkpt lat="30.711051436761906" lon="-6.577988105645835"><ele>1508.0</ele><time>2026-05-05T12:45:46.001Z</time></trkpt><trkpt lat="30.710966425121057" lon="-6.578170262786904"><ele>1518.0</ele><time>2026-05-05T12:45:47.001Z</time></trkpt><trkpt lat="30.710868366678923" lon="-6.578348645590974"><ele>1528.0</ele><time>2026-05-05T12:45:48.001Z</time></trkpt><trkpt lat="30.710760119699763" lon="-6.57851240994402"><ele>1538.0</ele><time>2026-05-05T12:45:49.001Z</time></trkpt><trkpt lat="30.710646519985495" lon="-6.578668742856722"><ele>1532.3333333333333</ele><time>2026-05-05T12:45:50.001Z</time></trkpt><trkpt lat="30.71052932126354" lon="-6.578811942348746"><ele>1526.6666666666665</ele><time>2026-05-05T12:45:51.001Z</time></trkpt><trkpt lat="30.710410056340933" lon="-6.578946873554657"><ele>1521.0</ele><time>2026-05-05T12:45:52.001Z</time></trkpt><trkpt lat="30.710298240516224" lon="-6.579089992702586"><ele>1530.3333333333335</ele><time>2026-05-05T12:45:53.001Z</time></trkpt><trkpt lat="30.7102048415739" lon="-6.57925333780096"><ele>1539.6666666666667</ele><time>2026-05-05T12:45:54.001Z</time></trkpt><trkpt lat="30.710167144563034" lon="-6.579440838110593"><ele>1549.0</ele><time>2026-05-05T12:45:55.001Z</time></trkpt><trkpt lat="30.71014259709374" lon="-6.579629614590782"><ele>1549.0</ele><time>2026-05-05T12:45:56.001Z</time></trkpt><trkpt lat="30.71012517947698" lon="-6.579827238099337"><ele>1549.0</ele><time>2026-05-05T12:45:57.001Z</time></trkpt><trkpt lat="30.710146945023276" lon="-6.580023779418216"><ele>1549.0</ele><time>2026-05-05T12:45:58.001Z</time></trkpt><trkpt lat="30.71017468739959" lon="-6.580225737182762"><ele>1555.3333333333335</ele><time>2026-05-05T12:45:59.001Z</time></trkpt><trkpt lat="30.710205039076722" lon="-6.580431395457573"><ele>1561.6666666666665</ele><time>2026-05-05T12:46:00.001Z</time></trkpt><trkpt lat="30.710207321018423" lon="-6.580642408012051"><ele>1568.0</ele><time>2026-05-05T12:46:01.001Z</time></trkpt><trkpt lat="30.710208501875933" lon="-6.580846823794333"><ele>1568.0</ele><time>2026-05-05T12:46:02.001Z</time></trkpt><trkpt lat="30.710190152158695" lon="-6.581048762658006"><ele>1568.0</ele><time>2026-05-05T12:46:03.001Z</time></trkpt><trkpt lat="30.71015256629857" lon="-6.581246088039142"><ele>1568.0</ele><time>2026-05-05T12:46:04.001Z</time></trkpt><trkpt lat="30.71008890260307" lon="-6.581431263357712"><ele>1564.0</ele><time>2026-05-05T12:46:05.001Z</time></trkpt><trkpt lat="30.71000381731228" lon="-6.581606333640182"><ele>1560.0</ele><time>2026-05-05T12:46:06.001Z</time></trkpt><trkpt lat="30.709898595481548" lon="-6.581772045172805"><ele>1556.0</ele><time>2026-05-05T12:46:07.001Z</time></trkpt><trkpt lat="30.709787109026898" lon="-6.581930966441284"><ele>1551.3333333333333</ele><time>2026-05-05T12:46:08.001Z</time></trkpt><trkpt lat="30.709676843231794" lon="-6.582087318099586"><ele>1546.6666666666665</ele><time>2026-05-05T12:46:09.001Z</time></trkpt><trkpt lat="30.709569679383552" lon="-6.582242155672787"><ele>1542.0</ele><time>2026-05-05T12:46:10.001Z</time></trkpt><trkpt lat="30.709460664015985" lon="-6.582394329983459"><ele>1547.6666666666665</ele><time>2026-05-05T12:46:11.001Z</time></trkpt><trkpt lat="30.70935595243868" lon="-6.582538164165808"><ele>1553.3333333333333</ele><time>2026-05-05T12:46:12.001Z</time></trkpt><trkpt lat="30.70928908087183" lon="-6.582698350602791"><ele>1559.0</ele><time>2026-05-05T12:46:13.001Z</time></trkpt><trkpt lat="30.70921948511328" lon="-6.582853785047065"><ele>1559.25</ele><time>2026-05-05T12:46:14.001Z</time></trkpt><trkpt lat="30.709188311868967" lon="-6.583023136734025"><ele>1559.5</ele><time>2026-05-05T12:46:15.001Z</time></trkpt><trkpt lat="30.7092022603843" lon="-6.583190922867235"><ele>1559.75</ele><time>2026-05-05T12:46:16.001Z</time></trkpt><trkpt lat="30.709251785388453" lon="-6.583355168025813"><ele>1560.0</ele><time>2026-05-05T12:46:17.001Z</time></trkpt><trkpt lat="30.709325724026975" lon="-6.583510898100593"><ele>1560.0</ele><time>2026-05-05T12:46:18.001Z</time></trkpt><trkpt lat="30.70940570365389" lon="-6.583670857322152"><ele>1560.0</ele><time>2026-05-05T12:46:19.001Z</time></trkpt><trkpt lat="30.709479081949873" lon="-6.583844526980069"><ele>1560.0</ele><time>2026-05-05T12:46:20.001Z</time></trkpt><trkpt lat="30.709572833351963" lon="-6.584006416330504"><ele>1560.6666666666665</ele><time>2026-05-05T12:46:21.001Z</time></trkpt><trkpt lat="30.709625914579927" lon="-6.5842003755472485"><ele>1561.3333333333333</ele><time>2026-05-05T12:46:22.001Z</time></trkpt><trkpt lat="30.709660369967697" lon="-6.584396769309627"><ele>1562.0</ele><time>2026-05-05T12:46:23.001Z</time></trkpt><trkpt lat="30.709657556812683" lon="-6.584600245160631"><ele>1566.3333333333333</ele><time>2026-05-05T12:46:24.001Z</time></trkpt><trkpt lat="30.70963275862636" lon="-6.584802871762902"><ele>1570.6666666666665</ele><time>2026-05-05T12:46:25.001Z</time></trkpt><trkpt lat="30.709599334710298" lon="-6.585009920009836"><ele>1575.0</ele><time>2026-05-05T12:46:26.001Z</time></trkpt><trkpt lat="30.70956290192512" lon="-6.585216472221269"><ele>1577.3333333333335</ele><time>2026-05-05T12:46:27.001Z</time></trkpt><trkpt lat="30.70954648338312" lon="-6.585431657407531"><ele>1579.6666666666667</ele><time>2026-05-05T12:46:28.001Z</time></trkpt><trkpt lat="30.70949944140014" lon="-6.585640521109494"><ele>1582.0</ele><time>2026-05-05T12:46:29.001Z</time></trkpt><trkpt lat="30.70947522687722" lon="-6.585891344524644"><ele>1582.0</ele><time>2026-05-05T12:46:30.001Z</time></trkpt><trkpt lat="30.709450537655698" lon="-6.586102329337578"><ele>1582.0</ele><time>2026-05-05T12:46:31.001Z</time></trkpt><trkpt lat="30.709435859597942" lon="-6.586316641792975"><ele>1582.0</ele><time>2026-05-05T12:46:32.001Z</time></trkpt><trkpt lat="30.709445795404235" lon="-6.586529667707348"><ele>1586.3333333333335</ele><time>2026-05-05T12:46:33.001Z</time></trkpt><trkpt lat="30.709468661597114" lon="-6.5867333034585425"><ele>1590.6666666666665</ele><time>2026-05-05T12:46:34.001Z</time></trkpt><trkpt lat="30.709513420448907" lon="-6.5869451147466815"><ele>1595.0</ele><time>2026-05-05T12:46:35.001Z</time></trkpt><trkpt lat="30.709559354725027" lon="-6.5871624885444096"><ele>1598.6666666666665</ele><time>2026-05-05T12:46:36.001Z</time></trkpt><trkpt lat="30.709604686462793" lon="-6.587383036068759"><ele>1602.3333333333335</ele><time>2026-05-05T12:46:37.001Z</time></trkpt><trkpt lat="30.709631111806246" lon="-6.587605162188958"><ele>1606.0</ele><time>2026-05-05T12:46:38.001Z</time></trkpt><trkpt lat="30.709653139381174" lon="-6.587813208287622"><ele>1609.3333333333335</ele><time>2026-05-05T12:46:39.001Z</time></trkpt><trkpt lat="30.709658335781185" lon="-6.588021253272662"><ele>1612.6666666666665</ele><time>2026-05-05T12:46:40.001Z</time></trkpt><trkpt lat="30.70966350062397" lon="-6.588217069004441"><ele>1616.0</ele><time>2026-05-05T12:46:41.001Z</time></trkpt><trkpt lat="30.709644999257932" lon="-6.588409481401415"><ele>1616.0</ele><time>2026-05-05T12:46:42.001Z</time></trkpt><trkpt lat="30.709631976239233" lon="-6.588593238918384"><ele>1616.0</ele><time>2026-05-05T12:46:43.001Z</time></trkpt><trkpt lat="30.709592404783827" lon="-6.588771504210362"><ele>1616.0</ele><time>2026-05-05T12:46:44.001Z</time></trkpt><trkpt lat="30.709565874680635" lon="-6.58894352495034"><ele>1616.5</ele><time>2026-05-05T12:46:45.001Z</time></trkpt><trkpt lat="30.709543175993186" lon="-6.589099651259374"><ele>1617.0</ele><time>2026-05-05T12:46:46.001Z</time></trkpt><trkpt lat="30.709510123528304" lon="-6.58923780338662"><ele>1617.5</ele><time>2026-05-05T12:46:47.001Z</time></trkpt><trkpt lat="30.709479183377425" lon="-6.589361832437766"><ele>1618.0</ele><time>2026-05-05T12:46:48.001Z</time></trkpt><trkpt lat="30.709445840069645" lon="-6.5894713984979525"><ele>1618.6666666666667</ele><time>2026-05-05T12:46:49.001Z</time></trkpt><trkpt lat="30.709411526318625" lon="-6.589572777108435"><ele>1619.3333333333335</ele><time>2026-05-05T12:46:50.001Z</time></trkpt><trkpt lat="30.709374156496253" lon="-6.589667803450713"><ele>1620.0</ele><time>2026-05-05T12:46:51.001Z</time></trkpt><trkpt lat="30.709339639740495" lon="-6.589759729610413"><ele>1620.6666666666665</ele><time>2026-05-05T12:46:52.001Z</time></trkpt><trkpt lat="30.70930370948984" lon="-6.58982840639398"><ele>1621.3333333333333</ele><time>2026-05-05T12:46:53.001Z</time></trkpt><trkpt lat="30.709339997822813" lon="-6.5898956054764195"><ele>1622.0</ele><time>2026-05-05T12:46:57.001Z</time></trkpt><trkpt lat="30.709376499466323" lon="-6.589808949686971"><ele>1621.1999999999998</ele><time>2026-05-05T12:46:59.001Z</time></trkpt><trkpt lat="30.709448330478047" lon="-6.589666318799471"><ele>1620.4</ele><time>2026-05-05T12:47:01.001Z</time></trkpt><trkpt lat="30.709494503626168" lon="-6.5895740288504845"><ele>1619.6</ele><time>2026-05-05T12:47:02.001Z</time></trkpt><trkpt lat="30.709548623010356" lon="-6.589481908133298"><ele>1618.8000000000002</ele><time>2026-05-05T12:47:03.001Z</time></trkpt><trkpt lat="30.709595550506933" lon="-6.58940444428092"><ele>1618.0</ele><time>2026-05-05T12:47:04.001Z</time></trkpt><trkpt lat="30.709634408471455" lon="-6.58934157190028"><ele>1618.0000000000002</ele><time>2026-05-05T12:47:05.001Z</time></trkpt><trkpt lat="30.70972105175979" lon="-6.5892964441196895"><ele>1618.0</ele><time>2026-05-05T12:47:06.001Z</time></trkpt><trkpt lat="30.709797623915268" lon="-6.5892576629589295"><ele>1618.0</ele><time>2026-05-05T12:47:07.001Z</time></trkpt><trkpt lat="30.70989728721504" lon="-6.589253881625335"><ele>1618.0</ele><time>2026-05-05T12:47:08.001Z</time></trkpt><trkpt lat="30.709982696952128" lon="-6.589249886529865"><ele>1618.0000000000002</ele><time>2026-05-05T12:47:09.001Z</time></trkpt><trkpt lat="30.710062126274963" lon="-6.589244192917171"><ele>1618.0</ele><time>2026-05-05T12:47:10.001Z</time></trkpt><trkpt lat="30.71016805212138" lon="-6.589237030073449"><ele>1618.0000000000002</ele><time>2026-05-05T12:47:12.001Z</time></trkpt><trkpt lat="30.710236867677082" lon="-6.589188522393639"><ele>1618.0</ele><time>2026-05-05T12:47:14.001Z</time></trkpt><trkpt lat="30.71029326531779" lon="-6.589112438452198"><ele>1618.0</ele><time>2026-05-05T12:47:16.001Z</time></trkpt><trkpt lat="30.710323368665396" lon="-6.5891820696322245"><ele>1618.0</ele><time>2026-05-05T12:48:59.001Z</time></trkpt><trkpt lat="30.710268448208836" lon="-6.589268671920826"><ele>1618.0000000000002</ele><time>2026-05-05T12:49:00.001Z</time></trkpt><trkpt lat="30.71018586729371" lon="-6.589286637160116"><ele>1618.0</ele><time>2026-05-05T12:49:01.001Z</time></trkpt><trkpt lat="30.710111016495667" lon="-6.58929392945813"><ele>1618.0</ele><time>2026-05-05T12:49:02.001Z</time></trkpt><trkpt lat="30.71004029585669" lon="-6.589301883303274"><ele>1618.0</ele><time>2026-05-05T12:49:03.001Z</time></trkpt><trkpt lat="30.70996016141926" lon="-6.589321307532061"><ele>1618.0</ele><time>2026-05-05T12:49:04.001Z</time></trkpt><trkpt lat="30.70989008077069" lon="-6.589334492733952"><ele>1618.0</ele><time>2026-05-05T12:49:05.001Z</time></trkpt><trkpt lat="30.70981860440894" lon="-6.589343865222347"><ele>1618.0</ele><time>2026-05-05T12:49:06.001Z</time></trkpt><trkpt lat="30.70975740810417" lon="-6.589365444061586"><ele>1618.0</ele><time>2026-05-05T12:49:07.001Z</time></trkpt><trkpt lat="30.709700465249167" lon="-6.589399098046817"><ele>1618.0</ele><time>2026-05-05T12:49:08.001Z</time></trkpt><trkpt lat="30.709614635557685" lon="-6.589502650875127"><ele>1618.6666666666667</ele><time>2026-05-05T12:49:10.001Z</time></trkpt><trkpt lat="30.709569437257045" lon="-6.589565045497569"><ele>1619.3333333333335</ele><time>2026-05-05T12:49:11.001Z</time></trkpt><trkpt lat="30.709538652296832" lon="-6.589631448689322"><ele>1620.0</ele><time>2026-05-05T12:49:12.001Z</time></trkpt><trkpt lat="30.709486488837364" lon="-6.589748988152873"><ele>1620.6666666666665</ele><time>2026-05-05T12:49:14.001Z</time></trkpt><trkpt lat="30.70944033978667" lon="-6.589849422694903"><ele>1621.3333333333333</ele><time>2026-05-05T12:49:16.001Z</time></trkpt><trkpt lat="30.70937633273683" lon="-6.58989653977599"><ele>1622.0</ele><time>2026-05-05T12:49:18.001Z</time></trkpt><trkpt lat="30.709281781584423" lon="-6.589937791367817"><ele>1622.0</ele><time>2026-05-05T12:49:21.001Z</time></trkpt><trkpt lat="30.709249734532914" lon="-6.590007757591068"><ele>1622.0</ele><time>2026-05-05T12:49:22.001Z</time></trkpt><trkpt lat="30.709206792999908" lon="-6.590105988600042"><ele>1622.0</ele><time>2026-05-05T12:49:23.001Z</time></trkpt><trkpt lat="30.70915638826547" lon="-6.590207198385302"><ele>1622.0</ele><time>2026-05-05T12:49:24.001Z</time></trkpt><trkpt lat="30.709095681781815" lon="-6.5903211412124"><ele>1622.0</ele><time>2026-05-05T12:49:25.001Z</time></trkpt><trkpt lat="30.709022882746304" lon="-6.59044277508838"><ele>1617.5</ele><time>2026-05-05T12:49:26.001Z</time></trkpt><trkpt lat="30.708942193238315" lon="-6.590553282424343"><ele>1613.0</ele><time>2026-05-05T12:49:27.001Z</time></trkpt><trkpt lat="30.708853383812848" lon="-6.590664107010242"><ele>1608.5</ele><time>2026-05-05T12:49:28.001Z</time></trkpt><trkpt lat="30.708763811569632" lon="-6.590775462039289"><ele>1604.0</ele><time>2026-05-05T12:49:29.001Z</time></trkpt><trkpt lat="30.70867102104027" lon="-6.590885205411842"><ele>1606.5</ele><time>2026-05-05T12:49:30.001Z</time></trkpt><trkpt lat="30.708574146090868" lon="-6.590996267037001"><ele>1609.0</ele><time>2026-05-05T12:49:31.001Z</time></trkpt><trkpt lat="30.708473070450058" lon="-6.591096823396029"><ele>1611.5</ele><time>2026-05-05T12:49:32.001Z</time></trkpt><trkpt lat="30.708370186406633" lon="-6.5912008965889415"><ele>1614.0</ele><time>2026-05-05T12:49:33.001Z</time></trkpt><trkpt lat="30.708265263065538" lon="-6.591305031933332"><ele>1614.0</ele><time>2026-05-05T12:49:34.001Z</time></trkpt><trkpt lat="30.708150791333868" lon="-6.591408287508777"><ele>1614.0</ele><time>2026-05-05T12:49:35.001Z</time></trkpt><trkpt lat="30.708031023985242" lon="-6.591517588726345"><ele>1614.0</ele><time>2026-05-05T12:49:36.001Z</time></trkpt><trkpt lat="30.707912104368194" lon="-6.5916222277703"><ele>1614.0</ele><time>2026-05-05T12:49:37.001Z</time></trkpt><trkpt lat="30.707790148902596" lon="-6.591725139451093"><ele>1615.75</ele><time>2026-05-05T12:49:38.001Z</time></trkpt><trkpt lat="30.707675330634306" lon="-6.591836249363288"><ele>1617.5</ele><time>2026-05-05T12:49:39.001Z</time></trkpt><trkpt lat="30.70757383250396" lon="-6.591959198989556"><ele>1619.25</ele><time>2026-05-05T12:49:40.001Z</time></trkpt><trkpt lat="30.707486697694613" lon="-6.592099434856242"><ele>1621.0</ele><time>2026-05-05T12:49:41.001Z</time></trkpt><trkpt lat="30.707417018594928" lon="-6.592256379625267"><ele>1621.0</ele><time>2026-05-05T12:49:42.001Z</time></trkpt><trkpt lat="30.70736674907713" lon="-6.592423597242223"><ele>1621.0</ele><time>2026-05-05T12:49:43.001Z</time></trkpt><trkpt lat="30.70735718315172" lon="-6.592603002624174"><ele>1621.0</ele><time>2026-05-05T12:49:44.001Z</time></trkpt><trkpt lat="30.707356580674485" lon="-6.592787462103815"><ele>1625.3333333333335</ele><time>2026-05-05T12:49:45.001Z</time></trkpt><trkpt lat="30.7073692336083" lon="-6.592984643541944"><ele>1629.6666666666665</ele><time>2026-05-05T12:49:46.001Z</time></trkpt><trkpt lat="30.707413523569823" lon="-6.593175863440036"><ele>1634.0</ele><time>2026-05-05T12:49:47.001Z</time></trkpt><trkpt lat="30.70745423345427" lon="-6.593369756914068"><ele>1634.0</ele><time>2026-05-05T12:49:48.001Z</time></trkpt><trkpt lat="30.707492471155536" lon="-6.59355446698914"><ele>1634.0</ele><time>2026-05-05T12:49:49.001Z</time></trkpt><trkpt lat="30.707510609796955" lon="-6.593742079648126"><ele>1634.0</ele><time>2026-05-05T12:49:50.001Z</time></trkpt><trkpt lat="30.707517486056567" lon="-6.593915870860022"><ele>1637.0</ele><time>2026-05-05T12:49:51.001Z</time></trkpt><trkpt lat="30.707495348817304" lon="-6.594096459203386"><ele>1640.0</ele><time>2026-05-05T12:49:52.001Z</time></trkpt><trkpt lat="30.70746274657478" lon="-6.594264547131178"><ele>1643.0</ele><time>2026-05-05T12:49:53.001Z</time></trkpt><trkpt lat="30.70740968025626" lon="-6.59443303580673"><ele>1640.5</ele><time>2026-05-05T12:49:54.001Z</time></trkpt><trkpt lat="30.707341924914708" lon="-6.594584391694637"><ele>1638.0</ele><time>2026-05-05T12:49:55.001Z</time></trkpt><trkpt lat="30.70729299197378" lon="-6.594738465900544"><ele>1635.5</ele><time>2026-05-05T12:49:56.001Z</time></trkpt><trkpt lat="30.70727535134795" lon="-6.5948782732037845"><ele>1633.0</ele><time>2026-05-05T12:49:57.001Z</time></trkpt><trkpt lat="30.70725881847975" lon="-6.595014141053172"><ele>1633.0</ele><time>2026-05-05T12:49:58.001Z</time></trkpt><trkpt lat="30.707241358211633" lon="-6.595157631963746"><ele>1633.0</ele><time>2026-05-05T12:49:59.001Z</time></trkpt><trkpt lat="30.70730246766124" lon="-6.595253608469058"><ele>1633.0</ele><time>2026-05-05T12:50:00.001Z</time></trkpt><trkpt lat="30.70734672968795" lon="-6.595351468660804"><ele>1633.0</ele><time>2026-05-05T12:50:01.001Z</time></trkpt><trkpt lat="30.707392123330507" lon="-6.5954665618639705"><ele>1633.0</ele><time>2026-05-05T12:50:02.001Z</time></trkpt><trkpt lat="30.70747414588794" lon="-6.595519582828006"><ele>1632.5</ele><time>2026-05-05T12:50:03.001Z</time></trkpt><trkpt lat="30.707567602912984" lon="-6.595581368837136"><ele>1632.0</ele><time>2026-05-05T12:50:04.001Z</time></trkpt><trkpt lat="30.70767723260253" lon="-6.595607713161954"><ele>1631.5</ele><time>2026-05-05T12:50:05.001Z</time></trkpt><trkpt lat="30.707794216206356" lon="-6.595594547758321"><ele>1631.0</ele><time>2026-05-05T12:50:06.001Z</time></trkpt><trkpt lat="30.707940412454647" lon="-6.595569598143431"><ele>1635.3333333333333</ele><time>2026-05-05T12:50:07.001Z</time></trkpt><trkpt lat="30.7081094715183" lon="-6.595538401606124"><ele>1639.6666666666665</ele><time>2026-05-05T12:50:08.001Z</time></trkpt><trkpt lat="30.70826550510508" lon="-6.595500179210033"><ele>1644.0</ele><time>2026-05-05T12:50:09.001Z</time></trkpt><trkpt lat="30.708428103684113" lon="-6.595456771303277"><ele>1644.0</ele><time>2026-05-05T12:50:10.001Z</time></trkpt><trkpt lat="30.70857258040755" lon="-6.595411138617436"><ele>1644.0</ele><time>2026-05-05T12:50:11Z</time></trkpt><trkpt lat="30.708722440805847" lon="-6.59534392458416"><ele>1644.0</ele><time>2026-05-05T12:50:12Z</time></trkpt><trkpt lat="30.708853009151387" lon="-6.595267374852871"><ele>1641.3333333333335</ele><time>2026-05-05T12:50:13Z</time></trkpt><trkpt lat="30.708987255361112" lon="-6.595178265891014"><ele>1638.6666666666667</ele><time>2026-05-05T12:50:14Z</time></trkpt><trkpt lat="30.709124866232255" lon="-6.5950570180986565"><ele>1636.0</ele><time>2026-05-05T12:50:15Z</time></trkpt><trkpt lat="30.709273620036935" lon="-6.594925478123683"><ele>1636.0</ele><time>2026-05-05T12:50:16Z</time></trkpt><trkpt lat="30.70939179793779" lon="-6.594779962689619"><ele>1636.0</ele><time>2026-05-05T12:50:17Z</time></trkpt><trkpt lat="30.70951646571065" lon="-6.594625988280027"><ele>1636.0</ele><time>2026-05-05T12:50:18Z</time></trkpt><trkpt lat="30.709630972295948" lon="-6.594452469363614"><ele>1636.3333333333335</ele><time>2026-05-05T12:50:19Z</time></trkpt><trkpt lat="30.709746567054236" lon="-6.594278778431611"><ele>1636.6666666666665</ele><time>2026-05-05T12:50:20Z</time></trkpt><trkpt lat="30.709864357670824" lon="-6.594102383404612"><ele>1637.0</ele><time>2026-05-05T12:50:21Z</time></trkpt><trkpt lat="30.709982448295463" lon="-6.5939500274409975"><ele>1637.0</ele><time>2026-05-05T12:50:22Z</time></trkpt><trkpt lat="30.7100991871758" lon="-6.593799758584354"><ele>1637.0</ele><time>2026-05-05T12:50:23Z</time></trkpt><trkpt lat="30.7102159663635" lon="-6.593649831340535"><ele>1637.0</ele><time>2026-05-05T12:50:24Z</time></trkpt><trkpt lat="30.71032613552288" lon="-6.593505791843375"><ele>1639.6666666666665</ele><time>2026-05-05T12:50:25Z</time></trkpt><trkpt lat="30.7104421394459" lon="-6.593354017898516"><ele>1642.3333333333335</ele><time>2026-05-05T12:50:26Z</time></trkpt><trkpt lat="30.71053622085736" lon="-6.593199388547774"><ele>1645.0</ele><time>2026-05-05T12:50:27Z</time></trkpt><trkpt lat="30.710610221436237" lon="-6.593045291926685"><ele>1645.0</ele><time>2026-05-05T12:50:28Z</time></trkpt><trkpt lat="30.71068267452601" lon="-6.592877137354705"><ele>1645.0</ele><time>2026-05-05T12:50:29Z</time></trkpt><trkpt lat="30.710752528685845" lon="-6.592724938741943"><ele>1645.0</ele><time>2026-05-05T12:50:30Z</time></trkpt><trkpt lat="30.71081610494233" lon="-6.592587741395364"><ele>1645.0</ele><time>2026-05-05T12:50:31Z</time></trkpt><trkpt lat="30.71088829830979" lon="-6.592461635511065"><ele>1642.75</ele><time>2026-05-05T12:50:32Z</time></trkpt><trkpt lat="30.710985435240584" lon="-6.59234769463454"><ele>1640.5</ele><time>2026-05-05T12:50:33Z</time></trkpt><trkpt lat="30.711099338863264" lon="-6.592261707544109"><ele>1638.25</ele><time>2026-05-05T12:50:34Z</time></trkpt><trkpt lat="30.711250392796224" lon="-6.592289082728038"><ele>1636.0</ele><time>2026-05-05T12:50:35Z</time></trkpt><trkpt lat="30.711386782619755" lon="-6.5922752038077395"><ele>1636.0</ele><time>2026-05-05T12:50:36Z</time></trkpt><trkpt lat="30.711514168101722" lon="-6.592303416791853"><ele>1636.0</ele><time>2026-05-05T12:50:37Z</time></trkpt><trkpt lat="30.71164495826842" lon="-6.5923617840936135"><ele>1636.0</ele><time>2026-05-05T12:50:38Z</time></trkpt><trkpt lat="30.711763602335644" lon="-6.592444606051033"><ele>1636.0</ele><time>2026-05-05T12:50:39Z</time></trkpt><trkpt lat="30.711862668335986" lon="-6.592573731111207"><ele>1639.0</ele><time>2026-05-05T12:50:40Z</time></trkpt><trkpt lat="30.71191101243279" lon="-6.592727764946244"><ele>1642.0</ele><time>2026-05-05T12:50:41Z</time></trkpt><trkpt lat="30.711938555945682" lon="-6.592891515276529"><ele>1645.0</ele><time>2026-05-05T12:50:42Z</time></trkpt><trkpt lat="30.71187485726246" lon="-6.593223332240091"><ele>1645.0</ele><time>2026-05-05T12:50:43Z</time></trkpt><trkpt lat="30.711841706826778" lon="-6.593427534956843"><ele>1645.0</ele><time>2026-05-05T12:50:44Z</time></trkpt><trkpt lat="30.71180812523655" lon="-6.593638507374313"><ele>1645.0</ele><time>2026-05-05T12:50:45Z</time></trkpt><trkpt lat="30.711780872863933" lon="-6.593853102901904"><ele>1644.0</ele><time>2026-05-05T12:50:46Z</time></trkpt><trkpt lat="30.711755080264954" lon="-6.594074438466995"><ele>1643.0</ele><time>2026-05-05T12:50:47Z</time></trkpt><trkpt lat="30.711738837398944" lon="-6.594297089137264"><ele>1642.0</ele><time>2026-05-05T12:50:48Z</time></trkpt><trkpt lat="30.711746251361685" lon="-6.594519277879741"><ele>1645.0</ele><time>2026-05-05T12:50:49Z</time></trkpt><trkpt lat="30.711771514025827" lon="-6.594736595764984"><ele>1648.0</ele><time>2026-05-05T12:50:50Z</time></trkpt><trkpt lat="30.711800364026256" lon="-6.594945101907304"><ele>1651.0</ele><time>2026-05-05T12:50:51Z</time></trkpt><trkpt lat="30.711817648233144" lon="-6.595149212969271"><ele>1654.0</ele><time>2026-05-05T12:50:52Z</time></trkpt><trkpt lat="30.71183004024058" lon="-6.5953504751795275"><ele>1657.0</ele><time>2026-05-05T12:50:53Z</time></trkpt><trkpt lat="30.711848504927275" lon="-6.59554527561743"><ele>1660.0</ele><time>2026-05-05T12:50:54Z</time></trkpt><trkpt lat="30.711868707470476" lon="-6.595723961161353"><ele>1660.0</ele><time>2026-05-05T12:50:55Z</time></trkpt><trkpt lat="30.711885362796817" lon="-6.5958901804869345"><ele>1660.0</ele><time>2026-05-05T12:50:56Z</time></trkpt><trkpt lat="30.711919554634655" lon="-6.596040929100434"><ele>1660.0</ele><time>2026-05-05T12:50:57Z</time></trkpt><trkpt lat="30.711969511392113" lon="-6.596177354137231"><ele>1660.0</ele><time>2026-05-05T12:50:58Z</time></trkpt><trkpt lat="30.712057814047963" lon="-6.596281034426333"><ele>1655.5</ele><time>2026-05-05T12:50:59Z</time></trkpt><trkpt lat="30.712143483279796" lon="-6.596407479230777"><ele>1651.0</ele><time>2026-05-05T12:51:00Z</time></trkpt><trkpt lat="30.712266039992222" lon="-6.596484460970839"><ele>1646.5</ele><time>2026-05-05T12:51:01Z</time></trkpt><trkpt lat="30.71240416170646" lon="-6.596543056305678"><ele>1642.0</ele><time>2026-05-05T12:51:02Z</time></trkpt><trkpt lat="30.712549028935815" lon="-6.596557388417845"><ele>1642.0</ele><time>2026-05-05T12:51:03Z</time></trkpt><trkpt lat="30.712685151252213" lon="-6.5965177258306875"><ele>1642.0</ele><time>2026-05-05T12:51:04Z</time></trkpt><trkpt lat="30.712823512344873" lon="-6.596455807498642"><ele>1642.0</ele><time>2026-05-05T12:51:05Z</time></trkpt><trkpt lat="30.712923170373816" lon="-6.596348381148671"><ele>1642.0</ele><time>2026-05-05T12:51:06Z</time></trkpt><trkpt lat="30.713016488537026" lon="-6.596219004619589"><ele>1648.3333333333335</ele><time>2026-05-05T12:51:07Z</time></trkpt><trkpt lat="30.71310591972217" lon="-6.596071714094326"><ele>1654.6666666666665</ele><time>2026-05-05T12:51:08Z</time></trkpt><trkpt lat="30.71314964969829" lon="-6.5958842549902705"><ele>1661.0</ele><time>2026-05-05T12:51:09Z</time></trkpt><trkpt lat="30.71318352800592" lon="-6.595677978228217"><ele>1661.0</ele><time>2026-05-05T12:51:10Z</time></trkpt><trkpt lat="30.713217315548345" lon="-6.595455075619511"><ele>1661.0</ele><time>2026-05-05T12:51:11Z</time></trkpt><trkpt lat="30.713251734844842" lon="-6.595230345977106"><ele>1661.0</ele><time>2026-05-05T12:51:12Z</time></trkpt><trkpt lat="30.713293208600888" lon="-6.595012565844097"><ele>1657.3333333333333</ele><time>2026-05-05T12:51:13Z</time></trkpt><trkpt lat="30.713341638850345" lon="-6.594810661660929"><ele>1653.6666666666665</ele><time>2026-05-05T12:51:14Z</time></trkpt><trkpt lat="30.71341005786943" lon="-6.594624266915118"><ele>1650.0</ele><time>2026-05-05T12:51:15Z</time></trkpt><trkpt lat="30.713495865075792" lon="-6.5944473815802205"><ele>1652.0</ele><time>2026-05-05T12:51:16Z</time></trkpt><trkpt lat="30.713585761104973" lon="-6.594273408255111"><ele>1654.0</ele><time>2026-05-05T12:51:17Z</time></trkpt><trkpt lat="30.71370231869341" lon="-6.594111564036031"><ele>1656.0</ele><time>2026-05-05T12:51:18Z</time></trkpt><trkpt lat="30.713820818890397" lon="-6.593965455612806"><ele>1656.0</ele><time>2026-05-05T12:51:19Z</time></trkpt><trkpt lat="30.71396423581377" lon="-6.593839221106001"><ele>1656.0</ele><time>2026-05-05T12:51:20Z</time></trkpt><trkpt lat="30.714115798424242" lon="-6.593724673089588"><ele>1656.0</ele><time>2026-05-05T12:51:21Z</time></trkpt><trkpt lat="30.714274699901367" lon="-6.593625291801051"><ele>1653.3333333333335</ele><time>2026-05-05T12:51:22Z</time></trkpt><trkpt lat="30.714439300835302" lon="-6.593536503167899"><ele>1650.6666666666667</ele><time>2026-05-05T12:51:23Z</time></trkpt><trkpt lat="30.71461776275205" lon="-6.593476232968593"><ele>1648.0</ele><time>2026-05-05T12:51:24Z</time></trkpt><trkpt lat="30.714793651112263" lon="-6.593442682853703"><ele>1648.0</ele><time>2026-05-05T12:51:25Z</time></trkpt><trkpt lat="30.71497417156092" lon="-6.5934122026712325"><ele>1648.0</ele><time>2026-05-05T12:51:26Z</time></trkpt><trkpt lat="30.71517244615095" lon="-6.59347107633659"><ele>1648.0</ele><time>2026-05-05T12:51:27Z</time></trkpt><trkpt lat="30.715358121559326" lon="-6.593500930127397"><ele>1649.3333333333335</ele><time>2026-05-05T12:51:28Z</time></trkpt><trkpt lat="30.715528679174525" lon="-6.593551533184808"><ele>1650.6666666666665</ele><time>2026-05-05T12:51:29Z</time></trkpt><trkpt lat="30.715687002590062" lon="-6.593619975974157"><ele>1652.0</ele><time>2026-05-05T12:51:30Z</time></trkpt><trkpt lat="30.715853489696993" lon="-6.5936722959431755"><ele>1652.6666666666665</ele><time>2026-05-05T12:51:31Z</time></trkpt><trkpt lat="30.71600204396983" lon="-6.593774859010791"><ele>1653.3333333333335</ele><time>2026-05-05T12:51:32Z</time></trkpt><trkpt lat="30.716141793661095" lon="-6.593891650283306"><ele>1654.0</ele><time>2026-05-05T12:51:33Z</time></trkpt><trkpt lat="30.71627219958309" lon="-6.594038650620328"><ele>1654.0</ele><time>2026-05-05T12:51:34Z</time></trkpt><trkpt lat="30.716380200732587" lon="-6.594212027146647"><ele>1654.0</ele><time>2026-05-05T12:51:35Z</time></trkpt><trkpt lat="30.716488117857626" lon="-6.594391652730248"><ele>1654.0</ele><time>2026-05-05T12:51:36Z</time></trkpt><trkpt lat="30.716585047106328" lon="-6.594584314510359"><ele>1655.0</ele><time>2026-05-05T12:51:37Z</time></trkpt><trkpt lat="30.71666806851908" lon="-6.594796849993612"><ele>1656.0</ele><time>2026-05-05T12:51:38Z</time></trkpt><trkpt lat="30.71673051138698" lon="-6.595028580298054"><ele>1657.0</ele><time>2026-05-05T12:51:39Z</time></trkpt><trkpt lat="30.716771467111307" lon="-6.595276406656913"><ele>1659.3333333333335</ele><time>2026-05-05T12:51:40Z</time></trkpt><trkpt lat="30.716781163875236" lon="-6.595512266107613"><ele>1661.6666666666665</ele><time>2026-05-05T12:51:41Z</time></trkpt><trkpt lat="30.71678288929327" lon="-6.595741977424681"><ele>1664.0</ele><time>2026-05-05T12:51:42Z</time></trkpt><trkpt lat="30.71681097390637" lon="-6.595973530124046"><ele>1666.6666666666665</ele><time>2026-05-05T12:51:43Z</time></trkpt><trkpt lat="30.716876981090746" lon="-6.5962050343303105"><ele>1669.3333333333335</ele><time>2026-05-05T12:51:44Z</time></trkpt><trkpt lat="30.71698443538928" lon="-6.596418218132007"><ele>1672.0</ele><time>2026-05-05T12:51:45Z</time></trkpt><trkpt lat="30.717089783037558" lon="-6.596621432853595"><ele>1665.0</ele><time>2026-05-05T12:51:46Z</time></trkpt><trkpt lat="30.717176742975987" lon="-6.596841323786127"><ele>1658.0</ele><time>2026-05-05T12:51:47Z</time></trkpt><trkpt lat="30.717231791616168" lon="-6.597068524694063"><ele>1651.0</ele><time>2026-05-05T12:51:48Z</time></trkpt><trkpt lat="30.71726685812349" lon="-6.597311433468838"><ele>1651.0</ele><time>2026-05-05T12:51:49Z</time></trkpt><trkpt lat="30.71729030834207" lon="-6.597553463133094"><ele>1651.0</ele><time>2026-05-05T12:51:50Z</time></trkpt><trkpt lat="30.717297929710245" lon="-6.597790345014635"><ele>1651.0</ele><time>2026-05-05T12:51:51Z</time></trkpt><trkpt lat="30.71732738520998" lon="-6.598015111185416"><ele>1653.3333333333335</ele><time>2026-05-05T12:51:52Z</time></trkpt><trkpt lat="30.717357605272124" lon="-6.598228315646975"><ele>1655.6666666666665</ele><time>2026-05-05T12:51:53Z</time></trkpt><trkpt lat="30.717394746371465" lon="-6.598431163212443"><ele>1658.0</ele><time>2026-05-05T12:51:54Z</time></trkpt><trkpt lat="30.717435647131413" lon="-6.598619310905019"><ele>1657.5</ele><time>2026-05-05T12:51:55Z</time></trkpt><trkpt lat="30.71747508372866" lon="-6.598793986298006"><ele>1657.0</ele><time>2026-05-05T12:51:56Z</time></trkpt><trkpt lat="30.71755201823693" lon="-6.598947786277161"><ele>1656.5</ele><time>2026-05-05T12:51:57Z</time></trkpt><trkpt lat="30.71763952456826" lon="-6.599072749792606"><ele>1656.0</ele><time>2026-05-05T12:51:58Z</time></trkpt><trkpt lat="30.717744692163798" lon="-6.599184296097011"><ele>1656.0</ele><time>2026-05-05T12:51:59Z</time></trkpt><trkpt lat="30.717879363348604" lon="-6.599244466551392"><ele>1656.0</ele><time>2026-05-05T12:52:00Z</time></trkpt><trkpt lat="30.71802744500548" lon="-6.5992746952614185"><ele>1656.0</ele><time>2026-05-05T12:52:01Z</time></trkpt><trkpt lat="30.718188055016014" lon="-6.59928199164108"><ele>1656.0</ele><time>2026-05-05T12:52:02Z</time></trkpt><trkpt lat="30.718360739681966" lon="-6.599276086587486"><ele>1656.0</ele><time>2026-05-05T12:52:03Z</time></trkpt><trkpt lat="30.718519116924345" lon="-6.599269023888406"><ele>1656.0</ele><time>2026-05-05T12:52:04Z</time></trkpt><trkpt lat="30.718679097853613" lon="-6.599297101814608"><ele>1652.6666666666665</ele><time>2026-05-05T12:52:05Z</time></trkpt><trkpt lat="30.71883935128615" lon="-6.599375951926924"><ele>1649.3333333333333</ele><time>2026-05-05T12:52:06Z</time></trkpt><trkpt lat="30.718968466135316" lon="-6.599518530867043"><ele>1646.0</ele><time>2026-05-05T12:52:07Z</time></trkpt><trkpt lat="30.719098232136982" lon="-6.599658568569868"><ele>1643.0</ele><time>2026-05-05T12:52:08Z</time></trkpt><trkpt lat="30.719236703431626" lon="-6.599802070046913"><ele>1640.0</ele><time>2026-05-05T12:52:09Z</time></trkpt><trkpt lat="30.71936357184534" lon="-6.599950647655074"><ele>1637.0</ele><time>2026-05-05T12:52:10Z</time></trkpt><trkpt lat="30.71949670191947" lon="-6.600078688612722"><ele>1637.0</ele><time>2026-05-05T12:52:11Z</time></trkpt><trkpt lat="30.719626096326348" lon="-6.600213379855406"><ele>1637.0</ele><time>2026-05-05T12:52:12Z</time></trkpt><trkpt lat="30.719741942138754" lon="-6.600346160292637"><ele>1637.0</ele><time>2026-05-05T12:52:13Z</time></trkpt><trkpt lat="30.71983316685117" lon="-6.600520882120357"><ele>1641.3333333333333</ele><time>2026-05-05T12:52:14Z</time></trkpt><trkpt lat="30.719890076470445" lon="-6.600719461259569"><ele>1645.6666666666665</ele><time>2026-05-05T12:52:15.001Z</time></trkpt><trkpt lat="30.719862689402014" lon="-6.600938563229708"><ele>1650.0</ele><time>2026-05-05T12:52:16Z</time></trkpt><trkpt lat="30.71985814437657" lon="-6.6011401528938976"><ele>1649.6666666666665</ele><time>2026-05-05T12:52:17.001Z</time></trkpt><trkpt lat="30.719849368430104" lon="-6.601343994485099"><ele>1649.3333333333333</ele><time>2026-05-05T12:52:18.001Z</time></trkpt><trkpt lat="30.71983782745847" lon="-6.601545269849763"><ele>1649.0</ele><time>2026-05-05T12:52:19.001Z</time></trkpt><trkpt lat="30.7198544306694" lon="-6.601736170350083"><ele>1649.0</ele><time>2026-05-05T12:52:20.001Z</time></trkpt><trkpt lat="30.719867569229606" lon="-6.601931234371146"><ele>1649.0</ele><time>2026-05-05T12:52:21.001Z</time></trkpt><trkpt lat="30.719917394698566" lon="-6.602120616015348"><ele>1649.0</ele><time>2026-05-05T12:52:22.001Z</time></trkpt><trkpt lat="30.719997285444833" lon="-6.602299426582688"><ele>1648.6666666666665</ele><time>2026-05-05T12:52:23.001Z</time></trkpt><trkpt lat="30.720072653309337" lon="-6.602486327440894"><ele>1648.3333333333335</ele><time>2026-05-05T12:52:24.001Z</time></trkpt><trkpt lat="30.720220188914308" lon="-6.602614059655034"><ele>1648.0</ele><time>2026-05-05T12:52:25.001Z</time></trkpt><trkpt lat="30.72036000521809" lon="-6.602746015023978"><ele>1648.6666666666667</ele><time>2026-05-05T12:52:26.001Z</time></trkpt><trkpt lat="30.72052134806063" lon="-6.602847704028608"><ele>1649.3333333333335</ele><time>2026-05-05T12:52:27.001Z</time></trkpt><trkpt lat="30.720702038730593" lon="-6.602911034668522"><ele>1650.0</ele><time>2026-05-05T12:52:28.001Z</time></trkpt><trkpt lat="30.72089063655916" lon="-6.602953147479174"><ele>1651.6666666666665</ele><time>2026-05-05T12:52:29.001Z</time></trkpt><trkpt lat="30.721077532115796" lon="-6.60299076132145"><ele>1653.3333333333333</ele><time>2026-05-05T12:52:30.001Z</time></trkpt><trkpt lat="30.721266890403164" lon="-6.603027782276651"><ele>1655.0</ele><time>2026-05-05T12:52:31.001Z</time></trkpt><trkpt lat="30.72145787103489" lon="-6.603065027772487"><ele>1655.0</ele><time>2026-05-05T12:52:32.001Z</time></trkpt><trkpt lat="30.721652801025506" lon="-6.603102977069339"><ele>1655.0</ele><time>2026-05-05T12:52:33Z</time></trkpt><trkpt lat="30.72184854149729" lon="-6.603141758579349"><ele>1655.0</ele><time>2026-05-05T12:52:34Z</time></trkpt><trkpt lat="30.722045770817218" lon="-6.603183574048454"><ele>1656.6666666666665</ele><time>2026-05-05T12:52:35Z</time></trkpt><trkpt lat="30.722242691436747" lon="-6.603226333949854"><ele>1658.3333333333335</ele><time>2026-05-05T12:52:36Z</time></trkpt><trkpt lat="30.72243889081526" lon="-6.603268831196405"><ele>1660.0</ele><time>2026-05-05T12:52:37Z</time></trkpt><trkpt lat="30.72263345416936" lon="-6.603310974079015"><ele>1661.0</ele><time>2026-05-05T12:52:38Z</time></trkpt><trkpt lat="30.722826072492992" lon="-6.60335269142267"><ele>1662.0</ele><time>2026-05-05T12:52:39Z</time></trkpt><trkpt lat="30.723019587668464" lon="-6.603395333583786"><ele>1663.0</ele><time>2026-05-05T12:52:40Z</time></trkpt><trkpt lat="30.72320829591913" lon="-6.603447760829267"><ele>1663.0</ele><time>2026-05-05T12:52:41Z</time></trkpt><trkpt lat="30.72338919756977" lon="-6.6034905884678095"><ele>1663.0</ele><time>2026-05-05T12:52:42Z</time></trkpt><trkpt lat="30.723564761613357" lon="-6.6035403657571035"><ele>1663.0</ele><time>2026-05-05T12:52:43Z</time></trkpt><trkpt lat="30.723730916136002" lon="-6.603607025399212"><ele>1665.0</ele><time>2026-05-05T12:52:44Z</time></trkpt><trkpt lat="30.723901178348022" lon="-6.603660525897625"><ele>1667.0</ele><time>2026-05-05T12:52:45Z</time></trkpt><trkpt lat="30.72406441161788" lon="-6.603737714548932"><ele>1669.0</ele><time>2026-05-05T12:52:46Z</time></trkpt><trkpt lat="30.724225667001043" lon="-6.603837023804214"><ele>1670.3333333333335</ele><time>2026-05-05T12:52:47Z</time></trkpt><trkpt lat="30.7243780244777" lon="-6.603956052250712"><ele>1671.6666666666665</ele><time>2026-05-05T12:52:48Z</time></trkpt><trkpt lat="30.724520330079073" lon="-6.604091394252047"><ele>1673.0</ele><time>2026-05-05T12:52:49Z</time></trkpt><trkpt lat="30.7246517870033" lon="-6.604250218696615"><ele>1673.6666666666665</ele><time>2026-05-05T12:52:50Z</time></trkpt><trkpt lat="30.724775287002185" lon="-6.604422975658277"><ele>1674.3333333333335</ele><time>2026-05-05T12:52:51Z</time></trkpt><trkpt lat="30.724905087055873" lon="-6.604598202565903"><ele>1675.0</ele><time>2026-05-05T12:52:52Z</time></trkpt><trkpt lat="30.725039098244128" lon="-6.604776337898856"><ele>1674.3333333333335</ele><time>2026-05-05T12:52:53Z</time></trkpt><trkpt lat="30.725170243547396" lon="-6.604958855418563"><ele>1673.6666666666665</ele><time>2026-05-05T12:52:54Z</time></trkpt><trkpt lat="30.72529872799291" lon="-6.605139162644637"><ele>1673.0</ele><time>2026-05-05T12:52:55Z</time></trkpt><trkpt lat="30.72544296529015" lon="-6.605308012030301"><ele>1676.0</ele><time>2026-05-05T12:52:56Z</time></trkpt><trkpt lat="30.725556097153053" lon="-6.605499077486757"><ele>1679.0</ele><time>2026-05-05T12:52:57Z</time></trkpt><trkpt lat="30.725678451287898" lon="-6.605670154008201"><ele>1682.0</ele><time>2026-05-05T12:52:58Z</time></trkpt><trkpt lat="30.72579420172852" lon="-6.605830421466869"><ele>1682.0</ele><time>2026-05-05T12:52:59Z</time></trkpt><trkpt lat="30.725906503778354" lon="-6.605981883950355"><ele>1682.0</ele><time>2026-05-05T12:53:00Z</time></trkpt><trkpt lat="30.726016519241035" lon="-6.606140356524051"><ele>1682.0</ele><time>2026-05-05T12:53:01Z</time></trkpt><trkpt lat="30.7261080613479" lon="-6.6063167506776495"><ele>1678.6666666666665</ele><time>2026-05-05T12:53:02Z</time></trkpt><trkpt lat="30.726177236850642" lon="-6.606512123197003"><ele>1675.3333333333335</ele><time>2026-05-05T12:53:03Z</time></trkpt><trkpt lat="30.726224264093876" lon="-6.606713001425547"><ele>1672.0</ele><time>2026-05-05T12:53:04Z</time></trkpt><trkpt lat="30.726240302912824" lon="-6.606915321200969"><ele>1677.6666666666667</ele><time>2026-05-05T12:53:05Z</time></trkpt><trkpt lat="30.72622777564949" lon="-6.607112126858582"><ele>1683.3333333333335</ele><time>2026-05-05T12:53:06Z</time></trkpt><trkpt lat="30.72619631554904" lon="-6.607296560659588"><ele>1689.0</ele><time>2026-05-05T12:53:07Z</time></trkpt><trkpt lat="30.72613481936723" lon="-6.607527183692968"><ele>1689.0</ele><time>2026-05-05T12:53:09Z</time></trkpt><trkpt lat="30.72606562821735" lon="-6.607682733625137"><ele>1689.0</ele><time>2026-05-05T12:53:10Z</time></trkpt><trkpt lat="30.72596329326204" lon="-6.6078610930579496"><ele>1689.0</ele><time>2026-05-05T12:53:11Z</time></trkpt><trkpt lat="30.725855087060033" lon="-6.608011023021896"><ele>1685.0</ele><time>2026-05-05T12:53:12Z</time></trkpt><trkpt lat="30.72571138360071" lon="-6.608147608108127"><ele>1681.0</ele><time>2026-05-05T12:53:13Z</time></trkpt><trkpt lat="30.725535024459745" lon="-6.608238457312217"><ele>1677.0</ele><time>2026-05-05T12:53:14Z</time></trkpt><trkpt lat="30.725352265155276" lon="-6.608301558527019"><ele>1682.3333333333335</ele><time>2026-05-05T12:53:15Z</time></trkpt><trkpt lat="30.725159085544544" lon="-6.6083674328971"><ele>1687.6666666666667</ele><time>2026-05-05T12:53:16Z</time></trkpt><trkpt lat="30.724959202835226" lon="-6.608418299732713"><ele>1693.0</ele><time>2026-05-05T12:53:17Z</time></trkpt><trkpt lat="30.72476550884452" lon="-6.608493262521854"><ele>1693.0</ele><time>2026-05-05T12:53:18Z</time></trkpt><trkpt lat="30.724573108651615" lon="-6.6085806325500025"><ele>1693.0</ele><time>2026-05-05T12:53:19Z</time></trkpt><trkpt lat="30.72440523658212" lon="-6.608689928113875"><ele>1693.0</ele><time>2026-05-05T12:53:20Z</time></trkpt><trkpt lat="30.72424287681827" lon="-6.608824964944076"><ele>1689.0</ele><time>2026-05-05T12:53:21Z</time></trkpt><trkpt lat="30.72409595734521" lon="-6.608962724787269"><ele>1685.0</ele><time>2026-05-05T12:53:22Z</time></trkpt><trkpt lat="30.723962005905165" lon="-6.609115599953465"><ele>1681.0</ele><time>2026-05-05T12:53:23Z</time></trkpt><trkpt lat="30.723832735440656" lon="-6.609276027222391"><ele>1681.0</ele><time>2026-05-05T12:53:24Z</time></trkpt><trkpt lat="30.72372091824498" lon="-6.609454275443859"><ele>1681.0</ele><time>2026-05-05T12:53:25Z</time></trkpt><trkpt lat="30.723618245966534" lon="-6.609644035195404"><ele>1681.0</ele><time>2026-05-05T12:53:26Z</time></trkpt><trkpt lat="30.723531481909117" lon="-6.609845448109963"><ele>1682.0</ele><time>2026-05-05T12:53:27Z</time></trkpt><trkpt lat="30.723470495724985" lon="-6.610063591415764"><ele>1683.0</ele><time>2026-05-05T12:53:28Z</time></trkpt><trkpt lat="30.723425762078996" lon="-6.610284916462995"><ele>1684.0</ele><time>2026-05-05T12:53:29Z</time></trkpt><trkpt lat="30.723390062900087" lon="-6.610503106569124"><ele>1679.0</ele><time>2026-05-05T12:53:30Z</time></trkpt><trkpt lat="30.723355285045056" lon="-6.610718281795631"><ele>1674.0</ele><time>2026-05-05T12:53:31Z</time></trkpt><trkpt lat="30.723280690063415" lon="-6.610911115340337"><ele>1669.0</ele><time>2026-05-05T12:53:32Z</time></trkpt><trkpt lat="30.723201967430743" lon="-6.6110959174730235"><ele>1660.0</ele><time>2026-05-05T12:53:33Z</time></trkpt><trkpt lat="30.72310585396549" lon="-6.611295312910674"><ele>1651.0</ele><time>2026-05-05T12:53:34Z</time></trkpt><trkpt lat="30.723004274391155" lon="-6.611490807811457"><ele>1642.0</ele><time>2026-05-05T12:53:35Z</time></trkpt><trkpt lat="30.7228879468137" lon="-6.611665169321896"><ele>1642.0</ele><time>2026-05-05T12:53:36Z</time></trkpt><trkpt lat="30.72276129814068" lon="-6.611834661247377"><ele>1642.0</ele><time>2026-05-05T12:53:37Z</time></trkpt><trkpt lat="30.722617485371725" lon="-6.611978196096186"><ele>1642.0</ele><time>2026-05-05T12:53:38Z</time></trkpt><trkpt lat="30.722475988922742" lon="-6.612114887173492"><ele>1645.3333333333335</ele><time>2026-05-05T12:53:39Z</time></trkpt><trkpt lat="30.722343815954815" lon="-6.612257899791547"><ele>1648.6666666666665</ele><time>2026-05-05T12:53:40Z</time></trkpt><trkpt lat="30.722228491310133" lon="-6.6124311628367884"><ele>1652.0</ele><time>2026-05-05T12:53:41Z</time></trkpt><trkpt lat="30.722123899069217" lon="-6.6126372847111545"><ele>1656.0</ele><time>2026-05-05T12:53:42Z</time></trkpt><trkpt lat="30.72204710703522" lon="-6.6128632912436105"><ele>1660.0</ele><time>2026-05-05T12:53:43.001Z</time></trkpt><trkpt lat="30.72197865229321" lon="-6.613089768629136"><ele>1664.0</ele><time>2026-05-05T12:53:44.001Z</time></trkpt><trkpt lat="30.72188908179125" lon="-6.613297181902383"><ele>1664.0</ele><time>2026-05-05T12:53:45.001Z</time></trkpt><trkpt lat="30.721797271821448" lon="-6.6134937682333526"><ele>1664.0</ele><time>2026-05-05T12:53:46.001Z</time></trkpt><trkpt lat="30.721715363253576" lon="-6.613677833098533"><ele>1664.0</ele><time>2026-05-05T12:53:47.001Z</time></trkpt><trkpt lat="30.72162278084234" lon="-6.613875897661427"><ele>1656.6666666666665</ele><time>2026-05-05T12:53:48.001Z</time></trkpt><trkpt lat="30.721543970071306" lon="-6.614063814751237"><ele>1649.3333333333335</ele><time>2026-05-05T12:53:49.001Z</time></trkpt><trkpt lat="30.721465630650894" lon="-6.614248460719056"><ele>1642.0</ele><time>2026-05-05T12:53:50.001Z</time></trkpt><trkpt lat="30.72139379087053" lon="-6.614430219196452"><ele>1636.3333333333335</ele><time>2026-05-05T12:53:51.001Z</time></trkpt><trkpt lat="30.721328821854872" lon="-6.614614687090201"><ele>1630.6666666666665</ele><time>2026-05-05T12:53:52.001Z</time></trkpt><trkpt lat="30.721269685752393" lon="-6.614794730525229"><ele>1625.0</ele><time>2026-05-05T12:53:53.001Z</time></trkpt><trkpt lat="30.721204160850508" lon="-6.614968429036519"><ele>1625.0</ele><time>2026-05-05T12:53:54.001Z</time></trkpt><trkpt lat="30.721122791644305" lon="-6.615128695121609"><ele>1625.0</ele><time>2026-05-05T12:53:55.001Z</time></trkpt><trkpt lat="30.721033668912376" lon="-6.615278602822017"><ele>1625.0</ele><time>2026-05-05T12:53:56.001Z</time></trkpt><trkpt lat="30.72094635819175" lon="-6.615427988699848"><ele>1628.0</ele><time>2026-05-05T12:53:57.001Z</time></trkpt><trkpt lat="30.720866845051177" lon="-6.615573999053491"><ele>1631.0</ele><time>2026-05-05T12:53:58.001Z</time></trkpt><trkpt lat="30.72079486177197" lon="-6.615708682411244"><ele>1634.0</ele><time>2026-05-05T12:53:59.001Z</time></trkpt><trkpt lat="30.720738240197573" lon="-6.615838267556779"><ele>1637.0</ele><time>2026-05-05T12:54:00.001Z</time></trkpt><trkpt lat="30.720700466097565" lon="-6.615974272127893"><ele>1637.0</ele><time>2026-05-05T12:54:01.001Z</time></trkpt><trkpt lat="30.720683029302325" lon="-6.616117819807595"><ele>1637.0</ele><time>2026-05-05T12:54:02.001Z</time></trkpt><trkpt lat="30.720683414770996" lon="-6.6162597263315055"><ele>1637.0</ele><time>2026-05-05T12:54:03.001Z</time></trkpt><trkpt lat="30.720701409277346" lon="-6.616392291708345"><ele>1637.0</ele><time>2026-05-05T12:54:04.001Z</time></trkpt><trkpt lat="30.720730761389515" lon="-6.616521180837119"><ele>1636.25</ele><time>2026-05-05T12:54:05.001Z</time></trkpt><trkpt lat="30.72081745751241" lon="-6.616637866076006"><ele>1635.5</ele><time>2026-05-05T12:54:06.001Z</time></trkpt><trkpt lat="30.720884266407992" lon="-6.616788321647847"><ele>1634.75</ele><time>2026-05-05T12:54:07.001Z</time></trkpt><trkpt lat="30.72095881883159" lon="-6.616926949411208"><ele>1634.0</ele><time>2026-05-05T12:54:08.001Z</time></trkpt><trkpt lat="30.721019624574033" lon="-6.617080667147068"><ele>1634.0</ele><time>2026-05-05T12:54:09.001Z</time></trkpt><trkpt lat="30.72105292832696" lon="-6.617248715818417"><ele>1634.0</ele><time>2026-05-05T12:54:10.001Z</time></trkpt><trkpt lat="30.721053382817505" lon="-6.617426698619281"><ele>1634.0</ele><time>2026-05-05T12:54:11.001Z</time></trkpt><trkpt lat="30.721024511636177" lon="-6.617607324428229"><ele>1634.0</ele><time>2026-05-05T12:54:12.001Z</time></trkpt><trkpt lat="30.720982383186026" lon="-6.617790782184363"><ele>1634.0</ele><time>2026-05-05T12:54:13.001Z</time></trkpt><trkpt lat="30.72093943301377" lon="-6.617974608635879"><ele>1634.0</ele><time>2026-05-05T12:54:14.001Z</time></trkpt><trkpt lat="30.720881112355798" lon="-6.618153301220368"><ele>1627.3333333333333</ele><time>2026-05-05T12:54:15.001Z</time></trkpt><trkpt lat="30.720797168216325" lon="-6.618326334109078"><ele>1620.6666666666665</ele><time>2026-05-05T12:54:16.001Z</time></trkpt><trkpt lat="30.72069480896573" lon="-6.618487036955988"><ele>1614.0</ele><time>2026-05-05T12:54:17.001Z</time></trkpt><trkpt lat="30.720610502046885" lon="-6.618654374451649"><ele>1612.6666666666665</ele><time>2026-05-05T12:54:18.001Z</time></trkpt><trkpt lat="30.72048224828375" lon="-6.618780772627466"><ele>1611.3333333333333</ele><time>2026-05-05T12:54:19.001Z</time></trkpt><trkpt lat="30.72036132632996" lon="-6.618904608856703"><ele>1610.0</ele><time>2026-05-05T12:54:20.001Z</time></trkpt><trkpt lat="30.720218173046664" lon="-6.6190176001146765"><ele>1610.0</ele><time>2026-05-05T12:54:21.001Z</time></trkpt><trkpt lat="30.720048172391024" lon="-6.619084537736487"><ele>1610.0</ele><time>2026-05-05T12:54:22.001Z</time></trkpt><trkpt lat="30.719873633266037" lon="-6.619105080881921"><ele>1610.0</ele><time>2026-05-05T12:54:23.001Z</time></trkpt><trkpt lat="30.71970932183039" lon="-6.619172214442402"><ele>1610.0</ele><time>2026-05-05T12:54:24.001Z</time></trkpt><trkpt lat="30.719592084736735" lon="-6.6193265352937924"><ele>1610.0</ele><time>2026-05-05T12:54:25.001Z</time></trkpt><trkpt lat="30.719456417653895" lon="-6.619465517449251"><ele>1610.0</ele><time>2026-05-05T12:54:26.001Z</time></trkpt><trkpt lat="30.719323989026847" lon="-6.619598936707908"><ele>1607.0</ele><time>2026-05-05T12:54:27.001Z</time></trkpt><trkpt lat="30.719184063438405" lon="-6.6197339521205825"><ele>1604.0</ele><time>2026-05-05T12:54:28.001Z</time></trkpt><trkpt lat="30.71904348944668" lon="-6.619874869634246"><ele>1601.0</ele><time>2026-05-05T12:54:29.001Z</time></trkpt><trkpt lat="30.718910917913437" lon="-6.620033123474696"><ele>1601.0</ele><time>2026-05-05T12:54:30.001Z</time></trkpt><trkpt lat="30.718766921081606" lon="-6.620173324447813"><ele>1601.0</ele><time>2026-05-05T12:54:31.001Z</time></trkpt><trkpt lat="30.718623068538843" lon="-6.620313567251459"><ele>1601.0</ele><time>2026-05-05T12:54:32.001Z</time></trkpt><trkpt lat="30.718478211687053" lon="-6.62045445009205"><ele>1598.6666666666665</ele><time>2026-05-05T12:54:33.001Z</time></trkpt><trkpt lat="30.718334603133194" lon="-6.6205936015915565"><ele>1596.3333333333335</ele><time>2026-05-05T12:54:34.001Z</time></trkpt><trkpt lat="30.71819416530687" lon="-6.62072755633724"><ele>1594.0</ele><time>2026-05-05T12:54:35.001Z</time></trkpt><trkpt lat="30.71805734692098" lon="-6.620854664831768"><ele>1594.0</ele><time>2026-05-05T12:54:36.001Z</time></trkpt><trkpt lat="30.71791361132184" lon="-6.620956461311354"><ele>1594.0</ele><time>2026-05-05T12:54:37.001Z</time></trkpt><trkpt lat="30.717784046512108" lon="-6.6210776132197156"><ele>1594.0</ele><time>2026-05-05T12:54:38.001Z</time></trkpt><trkpt lat="30.717652691197433" lon="-6.621194910785014"><ele>1594.0</ele><time>2026-05-05T12:54:39.001Z</time></trkpt><trkpt lat="30.717535921603456" lon="-6.6213306044404465"><ele>1594.0</ele><time>2026-05-05T12:54:40.001Z</time></trkpt><trkpt lat="30.717415972423787" lon="-6.621454481630447"><ele>1594.0</ele><time>2026-05-05T12:54:41.001Z</time></trkpt><trkpt lat="30.71732189832853" lon="-6.62159784409788"><ele>1594.0</ele><time>2026-05-05T12:54:42.001Z</time></trkpt><trkpt lat="30.717231755683823" lon="-6.621749931392331"><ele>1594.0</ele><time>2026-05-05T12:54:43.001Z</time></trkpt><trkpt lat="30.71715613910732" lon="-6.621900164819042"><ele>1594.0</ele><time>2026-05-05T12:54:44.001Z</time></trkpt><trkpt lat="30.717125758781417" lon="-6.6220759229631225"><ele>1592.0</ele><time>2026-05-05T12:54:45.001Z</time></trkpt><trkpt lat="30.717125145152238" lon="-6.622251441387105"><ele>1590.0</ele><time>2026-05-05T12:54:46.001Z</time></trkpt><trkpt lat="30.71714807707005" lon="-6.622423765845113"><ele>1588.0</ele><time>2026-05-05T12:54:47.001Z</time></trkpt><trkpt lat="30.71719955380625" lon="-6.62259578785304"><ele>1588.0</ele><time>2026-05-05T12:54:48.001Z</time></trkpt><trkpt lat="30.71727749485389" lon="-6.622760430373074"><ele>1588.0</ele><time>2026-05-05T12:54:49.001Z</time></trkpt><trkpt lat="30.71738020322232" lon="-6.62290287078204"><ele>1588.0</ele><time>2026-05-05T12:54:50.001Z</time></trkpt><trkpt lat="30.717510683239784" lon="-6.623027587789123"><ele>1585.3333333333335</ele><time>2026-05-05T12:54:51.001Z</time></trkpt><trkpt lat="30.717657950759822" lon="-6.623124570321525"><ele>1582.6666666666665</ele><time>2026-05-05T12:54:52.001Z</time></trkpt><trkpt lat="30.717820699849817" lon="-6.62319321296756"><ele>1580.0</ele><time>2026-05-05T12:54:53.001Z</time></trkpt><trkpt lat="30.717992895539115" lon="-6.623219048076178"><ele>1577.6666666666665</ele><time>2026-05-05T12:54:54.001Z</time></trkpt><trkpt lat="30.71817245260599" lon="-6.623204760974379"><ele>1575.3333333333335</ele><time>2026-05-05T12:54:55.001Z</time></trkpt><trkpt lat="30.718343875155373" lon="-6.62314826643889"><ele>1573.0</ele><time>2026-05-05T12:54:56.001Z</time></trkpt><trkpt lat="30.718504540460096" lon="-6.623056984002238"><ele>1571.3333333333335</ele><time>2026-05-05T12:54:57.001Z</time></trkpt><trkpt lat="30.718652553318318" lon="-6.622929983453215"><ele>1569.6666666666665</ele><time>2026-05-05T12:54:58.001Z</time></trkpt><trkpt lat="30.718774950633225" lon="-6.62276695365962"><ele>1568.0</ele><time>2026-05-05T12:54:59.001Z</time></trkpt><trkpt lat="30.718874051918252" lon="-6.622578692219954"><ele>1568.0</ele><time>2026-05-05T12:55:00.001Z</time></trkpt><trkpt lat="30.718957190454123" lon="-6.622386026385418"><ele>1568.0</ele><time>2026-05-05T12:55:01.001Z</time></trkpt><trkpt lat="30.71904719000948" lon="-6.622192641223485"><ele>1568.0</ele><time>2026-05-05T12:55:02.001Z</time></trkpt><trkpt lat="30.719154969474392" lon="-6.622003311785528"><ele>1569.3333333333333</ele><time>2026-05-05T12:55:03.001Z</time></trkpt><trkpt lat="30.719282714064153" lon="-6.621827200618919"><ele>1570.6666666666665</ele><time>2026-05-05T12:55:04.001Z</time></trkpt><trkpt lat="30.719434128044956" lon="-6.6216754616602795"><ele>1572.0</ele><time>2026-05-05T12:55:05.001Z</time></trkpt><trkpt lat="30.71960816374902" lon="-6.621551868803449"><ele>1569.0</ele><time>2026-05-05T12:55:06.001Z</time></trkpt><trkpt lat="30.719797737655416" lon="-6.621447749268786"><ele>1566.0</ele><time>2026-05-05T12:55:07.001Z</time></trkpt><trkpt lat="30.719997430618605" lon="-6.621360386625315"><ele>1563.0</ele><time>2026-05-05T12:55:08.001Z</time></trkpt><trkpt lat="30.720200126584754" lon="-6.621281392455124"><ele>1564.3333333333335</ele><time>2026-05-05T12:55:09.001Z</time></trkpt><trkpt lat="30.720404481903756" lon="-6.621202200659366"><ele>1565.6666666666667</ele><time>2026-05-05T12:55:10Z</time></trkpt><trkpt lat="30.72060687502981" lon="-6.6211165832122765"><ele>1567.0</ele><time>2026-05-05T12:55:11Z</time></trkpt><trkpt lat="30.72080868710191" lon="-6.6210268805571575"><ele>1567.0</ele><time>2026-05-05T12:55:12Z</time></trkpt><trkpt lat="30.721010708251555" lon="-6.620939895566337"><ele>1567.0</ele><time>2026-05-05T12:55:13Z</time></trkpt><trkpt lat="30.721208412046167" lon="-6.62083672496958"><ele>1567.0</ele><time>2026-05-05T12:55:14Z</time></trkpt><trkpt lat="30.721422483142263" lon="-6.6207744767684025"><ele>1564.3333333333335</ele><time>2026-05-05T12:55:15Z</time></trkpt><trkpt lat="30.721626923310847" lon="-6.620689447800513"><ele>1561.6666666666665</ele><time>2026-05-05T12:55:16Z</time></trkpt><trkpt lat="30.72183408995334" lon="-6.620613044185594"><ele>1559.0</ele><time>2026-05-05T12:55:17Z</time></trkpt><trkpt lat="30.72204696487513" lon="-6.620563120579475"><ele>1555.6666666666665</ele><time>2026-05-05T12:55:18Z</time></trkpt><trkpt lat="30.72226070130979" lon="-6.620537019075165"><ele>1552.3333333333335</ele><time>2026-05-05T12:55:19Z</time></trkpt><trkpt lat="30.72246843932998" lon="-6.620520077072102"><ele>1549.0</ele><time>2026-05-05T12:55:20Z</time></trkpt><trkpt lat="30.722674425276303" lon="-6.620518674244642"><ele>1550.0</ele><time>2026-05-05T12:55:21Z</time></trkpt><trkpt lat="30.722878732159447" lon="-6.620533796428171"><ele>1551.0</ele><time>2026-05-05T12:55:22Z</time></trkpt><trkpt lat="30.723076692937465" lon="-6.620566898298779"><ele>1552.0</ele><time>2026-05-05T12:55:23Z</time></trkpt><trkpt lat="30.72326669929219" lon="-6.620612673619023"><ele>1552.0</ele><time>2026-05-05T12:55:24Z</time></trkpt><trkpt lat="30.723451633127453" lon="-6.620667693501559"><ele>1552.0</ele><time>2026-05-05T12:55:25Z</time></trkpt><trkpt lat="30.723630121727467" lon="-6.620731116590629"><ele>1552.0</ele><time>2026-05-05T12:55:26Z</time></trkpt><trkpt lat="30.72380995142729" lon="-6.620814087792699"><ele>1550.0</ele><time>2026-05-05T12:55:27Z</time></trkpt><trkpt lat="30.723997155428435" lon="-6.620918563912799"><ele>1548.0</ele><time>2026-05-05T12:55:28Z</time></trkpt><trkpt lat="30.724194645716526" lon="-6.621016896206147"><ele>1546.0</ele><time>2026-05-05T12:55:29Z</time></trkpt><trkpt lat="30.724389738385895" lon="-6.621101701580167"><ele>1542.0</ele><time>2026-05-05T12:55:30Z</time></trkpt><trkpt lat="30.724583153337985" lon="-6.6211865061753885"><ele>1538.0</ele><time>2026-05-05T12:55:31Z</time></trkpt><trkpt lat="30.72477385676016" lon="-6.621277159763861"><ele>1534.0</ele><time>2026-05-05T12:55:32Z</time></trkpt><trkpt lat="30.724963184762984" lon="-6.621370480136784"><ele>1534.0</ele><time>2026-05-05T12:55:33Z</time></trkpt><trkpt lat="30.725149493548795" lon="-6.621464078997303"><ele>1534.0</ele><time>2026-05-05T12:55:34Z</time></trkpt><trkpt lat="30.72533471311632" lon="-6.621557809165847"><ele>1534.0</ele><time>2026-05-05T12:55:35Z</time></trkpt><trkpt lat="30.725518315879935" lon="-6.62165021714835"><ele>1533.0</ele><time>2026-05-05T12:55:36Z</time></trkpt><trkpt lat="30.725699139301742" lon="-6.621741558825063"><ele>1532.0</ele><time>2026-05-05T12:55:37Z</time></trkpt><trkpt lat="30.72588111185885" lon="-6.621829192392227"><ele>1531.0</ele><time>2026-05-05T12:55:38Z</time></trkpt><trkpt lat="30.726059920143744" lon="-6.6219145338484475"><ele>1528.3333333333333</ele><time>2026-05-05T12:55:39Z</time></trkpt><trkpt lat="30.726237351579243" lon="-6.622003840249014"><ele>1525.6666666666667</ele><time>2026-05-05T12:55:40Z</time></trkpt><trkpt lat="30.726418004056065" lon="-6.6220945610089945"><ele>1523.0</ele><time>2026-05-05T12:55:41Z</time></trkpt><trkpt lat="30.72660175333997" lon="-6.622187201111452"><ele>1523.0</ele><time>2026-05-05T12:55:42Z</time></trkpt><trkpt lat="30.726791162569732" lon="-6.622280328589519"><ele>1523.0</ele><time>2026-05-05T12:55:43Z</time></trkpt><trkpt lat="30.726984520458707" lon="-6.622380028033636"><ele>1523.0</ele><time>2026-05-05T12:55:44Z</time></trkpt><trkpt lat="30.727178406267118" lon="-6.6224816888689"><ele>1520.6666666666667</ele><time>2026-05-05T12:55:45Z</time></trkpt><trkpt lat="30.727378808252777" lon="-6.6225802395939475"><ele>1518.3333333333333</ele><time>2026-05-05T12:55:46Z</time></trkpt><trkpt lat="30.727582509579747" lon="-6.622677805186293"><ele>1516.0</ele><time>2026-05-05T12:55:47Z</time></trkpt><trkpt lat="30.72778355584798" lon="-6.622774858699737"><ele>1514.6666666666665</ele><time>2026-05-05T12:55:48Z</time></trkpt><trkpt lat="30.72798529600198" lon="-6.622875754561688"><ele>1513.3333333333333</ele><time>2026-05-05T12:55:49Z</time></trkpt><trkpt lat="30.72818709737292" lon="-6.622977095831908"><ele>1512.0</ele><time>2026-05-05T12:55:50Z</time></trkpt><trkpt lat="30.728389578103307" lon="-6.62307737888046"><ele>1511.0</ele><time>2026-05-05T12:55:51Z</time></trkpt><trkpt lat="30.728593018719078" lon="-6.623177745356788"><ele>1510.0</ele><time>2026-05-05T12:55:52Z</time></trkpt><trkpt lat="30.728791297899843" lon="-6.623281906907858"><ele>1509.0</ele><time>2026-05-05T12:55:53Z</time></trkpt><trkpt lat="30.728989805311542" lon="-6.623382399202566"><ele>1509.0</ele><time>2026-05-05T12:55:54Z</time></trkpt><trkpt lat="30.729190616494915" lon="-6.623477619741331"><ele>1509.0</ele><time>2026-05-05T12:55:55Z</time></trkpt><trkpt lat="30.729392532384132" lon="-6.623577609209469"><ele>1509.0</ele><time>2026-05-05T12:55:56Z</time></trkpt><trkpt lat="30.729588767168156" lon="-6.623693637026577"><ele>1507.0</ele><time>2026-05-05T12:55:57Z</time></trkpt><trkpt lat="30.729765258873165" lon="-6.623832638700961"><ele>1505.0</ele><time>2026-05-05T12:55:58Z</time></trkpt><trkpt lat="30.729923267019224" lon="-6.623987672080793"><ele>1503.0</ele><time>2026-05-05T12:55:59Z</time></trkpt><trkpt lat="30.730072136754103" lon="-6.6241524883839995"><ele>1503.0</ele><time>2026-05-05T12:56:00Z</time></trkpt><trkpt lat="30.73021015152511" lon="-6.6243339173229066"><ele>1503.0</ele><time>2026-05-05T12:56:01Z</time></trkpt><trkpt lat="30.730331620398182" lon="-6.624530597375356"><ele>1503.0</ele><time>2026-05-05T12:56:02Z</time></trkpt><trkpt lat="30.730436956741517" lon="-6.624737826775947"><ele>1503.0</ele><time>2026-05-05T12:56:03Z</time></trkpt><trkpt lat="30.730524419355717" lon="-6.624959985187911"><ele>1503.0</ele><time>2026-05-05T12:56:04Z</time></trkpt><trkpt lat="30.73059535496187" lon="-6.625192792871642"><ele>1503.0</ele><time>2026-05-05T12:56:05Z</time></trkpt><trkpt lat="30.730657093311354" lon="-6.625432305098214"><ele>1502.0</ele><time>2026-05-05T12:56:06Z</time></trkpt><trkpt lat="30.730719318815762" lon="-6.625675412132322"><ele>1501.0</ele><time>2026-05-05T12:56:07Z</time></trkpt><trkpt lat="30.730780017695885" lon="-6.625916822649209"><ele>1500.0</ele><time>2026-05-05T12:56:08Z</time></trkpt><trkpt lat="30.730836754442137" lon="-6.626159415260315"><ele>1498.6666666666667</ele><time>2026-05-05T12:56:09.001Z</time></trkpt><trkpt lat="30.7308914048577" lon="-6.626392032046993"><ele>1497.3333333333335</ele><time>2026-05-05T12:56:10.001Z</time></trkpt><trkpt lat="30.730952141610025" lon="-6.626616419069923"><ele>1496.0</ele><time>2026-05-05T12:56:11.001Z</time></trkpt><trkpt lat="30.731029434078724" lon="-6.626833470438836"><ele>1494.3333333333335</ele><time>2026-05-05T12:56:12.001Z</time></trkpt><trkpt lat="30.731128879358128" lon="-6.627031822540073"><ele>1492.6666666666667</ele><time>2026-05-05T12:56:13.001Z</time></trkpt><trkpt lat="30.731241163136286" lon="-6.627222847915993"><ele>1491.0</ele><time>2026-05-05T12:56:14.001Z</time></trkpt><trkpt lat="30.731358649447255" lon="-6.62740796616064"><ele>1491.0</ele><time>2026-05-05T12:56:15.001Z</time></trkpt><trkpt lat="30.731469485246787" lon="-6.627586779293133"><ele>1491.0</ele><time>2026-05-05T12:56:16.001Z</time></trkpt><trkpt lat="30.73157633020031" lon="-6.627759444496443"><ele>1491.0</ele><time>2026-05-05T12:56:17.001Z</time></trkpt><trkpt lat="30.731680994708213" lon="-6.627925123816367"><ele>1490.6666666666667</ele><time>2026-05-05T12:56:18.001Z</time></trkpt><trkpt lat="30.731775590619087" lon="-6.628074988883026"><ele>1490.3333333333335</ele><time>2026-05-05T12:56:19.001Z</time></trkpt><trkpt lat="30.731850269593625" lon="-6.628228727664512"><ele>1490.0</ele><time>2026-05-05T12:56:20.001Z</time></trkpt><trkpt lat="30.73189752617061" lon="-6.628392328845891"><ele>1489.75</ele><time>2026-05-05T12:56:21.001Z</time></trkpt><trkpt lat="30.731908811854417" lon="-6.628562391746126"><ele>1489.5</ele><time>2026-05-05T12:56:22.001Z</time></trkpt><trkpt lat="30.731896324021573" lon="-6.628733064876558"><ele>1489.25</ele><time>2026-05-05T12:56:23.001Z</time></trkpt><trkpt lat="30.731860749817653" lon="-6.628903182896742"><ele>1489.0</ele><time>2026-05-05T12:56:24.001Z</time></trkpt><trkpt lat="30.731824112086546" lon="-6.629075563198452"><ele>1489.0</ele><time>2026-05-05T12:56:25.001Z</time></trkpt><trkpt lat="30.73179182918348" lon="-6.629246259421056"><ele>1489.0</ele><time>2026-05-05T12:56:26.001Z</time></trkpt><trkpt lat="30.731759586506094" lon="-6.62941326072174"><ele>1489.0</ele><time>2026-05-05T12:56:27.001Z</time></trkpt><trkpt lat="30.73173175975737" lon="-6.629578745873285"><ele>1489.0</ele><time>2026-05-05T12:56:28.001Z</time></trkpt><trkpt lat="30.73170725584928" lon="-6.629744702595906"><ele>1489.25</ele><time>2026-05-05T12:56:29.001Z</time></trkpt><trkpt lat="30.731725174914242" lon="-6.629853408917716"><ele>1489.5</ele><time>2026-05-05T12:56:30.001Z</time></trkpt><trkpt lat="30.73169776912456" lon="-6.630015271706619"><ele>1489.75</ele><time>2026-05-05T12:56:31.001Z</time></trkpt><trkpt lat="30.731694906194637" lon="-6.630176276610868"><ele>1490.0</ele><time>2026-05-05T12:56:32.001Z</time></trkpt><trkpt lat="30.731718831473977" lon="-6.63033318770816"><ele>1491.25</ele><time>2026-05-05T12:56:33.001Z</time></trkpt><trkpt lat="30.731776047848147" lon="-6.630479225249776"><ele>1492.5</ele><time>2026-05-05T12:56:34.001Z</time></trkpt><trkpt lat="30.73186555210203" lon="-6.630598433063584"><ele>1493.75</ele><time>2026-05-05T12:56:35.001Z</time></trkpt><trkpt lat="30.731974778168443" lon="-6.630701707933974"><ele>1495.0</ele><time>2026-05-05T12:56:36.001Z</time></trkpt><trkpt lat="30.732094157901972" lon="-6.630794203273002"><ele>1495.75</ele><time>2026-05-05T12:56:37.001Z</time></trkpt><trkpt lat="30.732221073732184" lon="-6.630891731494409"><ele>1496.5</ele><time>2026-05-05T12:56:38.001Z</time></trkpt><trkpt lat="30.732346540125363" lon="-6.630996016360531"><ele>1497.25</ele><time>2026-05-05T12:56:39.001Z</time></trkpt><trkpt lat="30.73246616413826" lon="-6.631084447960487"><ele>1498.0</ele><time>2026-05-05T12:56:40.001Z</time></trkpt><trkpt lat="30.732578746770418" lon="-6.6311762922530955"><ele>1498.75</ele><time>2026-05-05T12:56:41.001Z</time></trkpt><trkpt lat="30.732656076075614" lon="-6.63130907715514"><ele>1499.5</ele><time>2026-05-05T12:56:42.001Z</time></trkpt><trkpt lat="30.732725545796736" lon="-6.63146057580277"><ele>1500.25</ele><time>2026-05-05T12:56:43.001Z</time></trkpt><trkpt lat="30.732771470981593" lon="-6.631625094433797"><ele>1501.0</ele><time>2026-05-05T12:56:44.001Z</time></trkpt><trkpt lat="30.73280558555448" lon="-6.6318142013024275"><ele>1500.6666666666665</ele><time>2026-05-05T12:56:45.001Z</time></trkpt><trkpt lat="30.732837887420715" lon="-6.632010409870735"><ele>1500.3333333333333</ele><time>2026-05-05T12:56:46.001Z</time></trkpt><trkpt lat="30.73286570031934" lon="-6.6322046904059"><ele>1500.0</ele><time>2026-05-05T12:56:47.001Z</time></trkpt><trkpt lat="30.732882059994687" lon="-6.6324005227268605"><ele>1500.0</ele><time>2026-05-05T12:56:48.001Z</time></trkpt><trkpt lat="30.732904093957718" lon="-6.632595063048908"><ele>1500.0</ele><time>2026-05-05T12:56:49.001Z</time></trkpt><trkpt lat="30.732931304532794" lon="-6.632790115711377"><ele>1500.0</ele><time>2026-05-05T12:56:50.001Z</time></trkpt><trkpt lat="30.732951951110596" lon="-6.632984647947128"><ele>1500.0</ele><time>2026-05-05T12:56:51.001Z</time></trkpt><trkpt lat="30.732978778226794" lon="-6.633185021828761"><ele>1500.0</ele><time>2026-05-05T12:56:52.001Z</time></trkpt><trkpt lat="30.73300133047248" lon="-6.633385897854863"><ele>1500.0</ele><time>2026-05-05T12:56:53.001Z</time></trkpt><trkpt lat="30.733026501214823" lon="-6.633590504164175"><ele>1500.0</ele><time>2026-05-05T12:56:54.001Z</time></trkpt><trkpt lat="30.7330491820723" lon="-6.633802135077644"><ele>1500.0</ele><time>2026-05-05T12:56:55.001Z</time></trkpt><trkpt lat="30.733079983698794" lon="-6.633995981363725"><ele>1500.0</ele><time>2026-05-05T12:56:56.001Z</time></trkpt><trkpt lat="30.733108338516583" lon="-6.634194704991649"><ele>1500.0</ele><time>2026-05-05T12:56:57.001Z</time></trkpt><trkpt lat="30.733137716477042" lon="-6.634388574650898"><ele>1500.0</ele><time>2026-05-05T12:56:58.001Z</time></trkpt><trkpt lat="30.733168069619236" lon="-6.6346064868616805"><ele>1500.0</ele><time>2026-05-05T12:56:59.001Z</time></trkpt><trkpt lat="30.733199759028853" lon="-6.6348129286926865"><ele>1501.0</ele><time>2026-05-05T12:57:00.001Z</time></trkpt><trkpt lat="30.73322680645543" lon="-6.6350235545722605"><ele>1502.0</ele><time>2026-05-05T12:57:01.001Z</time></trkpt><trkpt lat="30.73325502147011" lon="-6.635231644997049"><ele>1503.0</ele><time>2026-05-05T12:57:02.001Z</time></trkpt><trkpt lat="30.733286440689064" lon="-6.635436293288174"><ele>1504.3333333333333</ele><time>2026-05-05T12:57:03.001Z</time></trkpt><trkpt lat="30.733322546369674" lon="-6.6356473503151925"><ele>1505.6666666666665</ele><time>2026-05-05T12:57:04.001Z</time></trkpt><trkpt lat="30.733372338315604" lon="-6.635853220479979"><ele>1507.0</ele><time>2026-05-05T12:57:05.001Z</time></trkpt><trkpt lat="30.733442914585535" lon="-6.636053339406686"><ele>1507.6666666666665</ele><time>2026-05-05T12:57:06Z</time></trkpt><trkpt lat="30.733537638037518" lon="-6.636242418195535"><ele>1508.3333333333333</ele><time>2026-05-05T12:57:07Z</time></trkpt><trkpt lat="30.733646180509364" lon="-6.6364276367863875"><ele>1509.0</ele><time>2026-05-05T12:57:08Z</time></trkpt><trkpt lat="30.733798141376028" lon="-6.636568643566064"><ele>1509.0</ele><time>2026-05-05T12:57:09Z</time></trkpt><trkpt lat="30.73394494917397" lon="-6.636712850627893"><ele>1509.0</ele><time>2026-05-05T12:57:10Z</time></trkpt><trkpt lat="30.734099453298153" lon="-6.636844595605281"><ele>1509.0</ele><time>2026-05-05T12:57:11Z</time></trkpt><trkpt lat="30.73426217003805" lon="-6.63696220214015"><ele>1508.3333333333333</ele><time>2026-05-05T12:57:12Z</time></trkpt><trkpt lat="30.734424760229988" lon="-6.637085488550736"><ele>1507.6666666666665</ele><time>2026-05-05T12:57:13Z</time></trkpt><trkpt lat="30.734588585763642" lon="-6.63722142855356"><ele>1507.0</ele><time>2026-05-05T12:57:14Z</time></trkpt><trkpt lat="30.734748032430996" lon="-6.637359742463141"><ele>1507.0</ele><time>2026-05-05T12:57:15Z</time></trkpt><trkpt lat="30.734911048074256" lon="-6.637499338264422"><ele>1507.0</ele><time>2026-05-05T12:57:16Z</time></trkpt><trkpt lat="30.735082878624773" lon="-6.637638423242716"><ele>1507.0</ele><time>2026-05-05T12:57:17Z</time></trkpt><trkpt lat="30.73525889491048" lon="-6.637780160271178"><ele>1506.0</ele><time>2026-05-05T12:57:18Z</time></trkpt><trkpt lat="30.735437531673607" lon="-6.637927813103327"><ele>1505.0</ele><time>2026-05-05T12:57:19Z</time></trkpt><trkpt lat="30.735615687214484" lon="-6.638072255301851"><ele>1504.0</ele><time>2026-05-05T12:57:20Z</time></trkpt><trkpt lat="30.735783865733097" lon="-6.638212712200762"><ele>1504.0</ele><time>2026-05-05T12:57:21Z</time></trkpt><trkpt lat="30.735951961893768" lon="-6.638346745780468"><ele>1504.0</ele><time>2026-05-05T12:57:22Z</time></trkpt><trkpt lat="30.736119282307435" lon="-6.6384804123314956"><ele>1504.0</ele><time>2026-05-05T12:57:23Z</time></trkpt><trkpt lat="30.73628838834245" lon="-6.638617066188943"><ele>1503.6666666666665</ele><time>2026-05-05T12:57:24Z</time></trkpt><trkpt lat="30.73645483797916" lon="-6.638758037179775"><ele>1503.3333333333333</ele><time>2026-05-05T12:57:25Z</time></trkpt><trkpt lat="30.736617257415144" lon="-6.6389004336315045"><ele>1503.0</ele><time>2026-05-05T12:57:26Z</time></trkpt><trkpt lat="30.736775506798995" lon="-6.6390484037395465"><ele>1498.6666666666667</ele><time>2026-05-05T12:57:27Z</time></trkpt><trkpt lat="30.736906295253625" lon="-6.639223870309468"><ele>1494.3333333333335</ele><time>2026-05-05T12:57:28Z</time></trkpt><trkpt lat="30.73702623434635" lon="-6.639407600830771"><ele>1490.0</ele><time>2026-05-05T12:57:29Z</time></trkpt><trkpt lat="30.73713460314239" lon="-6.639597262416062"><ele>1490.0</ele><time>2026-05-05T12:57:30Z</time></trkpt><trkpt lat="30.737248422491895" lon="-6.639785683330613"><ele>1490.0</ele><time>2026-05-05T12:57:31Z</time></trkpt><trkpt lat="30.737328854883415" lon="-6.639995375314467"><ele>1490.0</ele><time>2026-05-05T12:57:32Z</time></trkpt><trkpt lat="30.737387996920045" lon="-6.640209238463598"><ele>1489.6666666666667</ele><time>2026-05-05T12:57:33Z</time></trkpt><trkpt lat="30.737427960923746" lon="-6.640429236595012"><ele>1489.3333333333333</ele><time>2026-05-05T12:57:34Z</time></trkpt><trkpt lat="30.73745074670658" lon="-6.640654182071427"><ele>1489.0</ele><time>2026-05-05T12:57:35Z</time></trkpt><trkpt lat="30.737459329471154" lon="-6.640884544432125"><ele>1489.0</ele><time>2026-05-05T12:57:36Z</time></trkpt><trkpt lat="30.73745664799632" lon="-6.641115512322421"><ele>1489.0</ele><time>2026-05-05T12:57:37Z</time></trkpt><trkpt lat="30.737459530472567" lon="-6.641347238929859"><ele>1489.0</ele><time>2026-05-05T12:57:38Z</time></trkpt><trkpt lat="30.737482265083713" lon="-6.6415783395159025"><ele>1488.6666666666665</ele><time>2026-05-05T12:57:39Z</time></trkpt><trkpt lat="30.737536125939926" lon="-6.641804547193068"><ele>1488.3333333333333</ele><time>2026-05-05T12:57:40Z</time></trkpt><trkpt lat="30.737618198658506" lon="-6.642018444139123"><ele>1488.0</ele><time>2026-05-05T12:57:41Z</time></trkpt><trkpt lat="30.737705142694566" lon="-6.6422259917925714"><ele>1485.3333333333333</ele><time>2026-05-05T12:57:42Z</time></trkpt><trkpt lat="30.737792890795323" lon="-6.642433545981116"><ele>1482.6666666666665</ele><time>2026-05-05T12:57:43Z</time></trkpt><trkpt lat="30.737876141528595" lon="-6.642643581547224"><ele>1480.0</ele><time>2026-05-05T12:57:44Z</time></trkpt><trkpt lat="30.737958542494624" lon="-6.642860137653634"><ele>1479.3333333333333</ele><time>2026-05-05T12:57:45Z</time></trkpt><trkpt lat="30.738046775462525" lon="-6.643078434748068"><ele>1478.6666666666667</ele><time>2026-05-05T12:57:46Z</time></trkpt><trkpt lat="30.73813976674222" lon="-6.643300181816802"><ele>1478.0</ele><time>2026-05-05T12:57:47Z</time></trkpt><trkpt lat="30.738231536492368" lon="-6.643524527334242"><ele>1478.3333333333335</ele><time>2026-05-05T12:57:48Z</time></trkpt><trkpt lat="30.738322603546443" lon="-6.643751861720696"><ele>1478.6666666666667</ele><time>2026-05-05T12:57:49Z</time></trkpt><trkpt lat="30.73841386630634" lon="-6.6439776673356015"><ele>1479.0</ele><time>2026-05-05T12:57:50Z</time></trkpt><trkpt lat="30.738499936261494" lon="-6.644201506536971"><ele>1477.6666666666667</ele><time>2026-05-05T12:57:51Z</time></trkpt><trkpt lat="30.73857639974593" lon="-6.644420722111394"><ele>1476.3333333333335</ele><time>2026-05-05T12:57:52Z</time></trkpt><trkpt lat="30.73864004477204" lon="-6.644645201109223"><ele>1475.0</ele><time>2026-05-05T12:57:53Z</time></trkpt><trkpt lat="30.73869079645619" lon="-6.6448723769930655"><ele>1474.3333333333335</ele><time>2026-05-05T12:57:54Z</time></trkpt><trkpt lat="30.738734804902997" lon="-6.645104306599413"><ele>1473.6666666666667</ele><time>2026-05-05T12:57:55Z</time></trkpt><trkpt lat="30.738774611030724" lon="-6.645338177792964"><ele>1473.0</ele><time>2026-05-05T12:57:56Z</time></trkpt><trkpt lat="30.73881059861368" lon="-6.645570076910335"><ele>1473.0</ele><time>2026-05-05T12:57:57Z</time></trkpt><trkpt lat="30.738844969828847" lon="-6.645802696127588"><ele>1473.0</ele><time>2026-05-05T12:57:58Z</time></trkpt><trkpt lat="30.738882434621285" lon="-6.6460347360984535"><ele>1473.0</ele><time>2026-05-05T12:57:59Z</time></trkpt><trkpt lat="30.73891826458045" lon="-6.646269041291401"><ele>1474.0</ele><time>2026-05-05T12:58:00Z</time></trkpt><trkpt lat="30.738952141640596" lon="-6.6465031234222955"><ele>1475.0</ele><time>2026-05-05T12:58:01Z</time></trkpt><trkpt lat="30.738989467026027" lon="-6.646738728740217"><ele>1476.0</ele><time>2026-05-05T12:58:02Z</time></trkpt><trkpt lat="30.739023409213914" lon="-6.646976005611229"><ele>1476.6666666666667</ele><time>2026-05-05T12:58:03Z</time></trkpt><trkpt lat="30.73905354118511" lon="-6.647214371329355"><ele>1477.3333333333335</ele><time>2026-05-05T12:58:04Z</time></trkpt><trkpt lat="30.739084245757244" lon="-6.647448483505518"><ele>1478.0</ele><time>2026-05-05T12:58:05Z</time></trkpt><trkpt lat="30.739119747080277" lon="-6.647674128780252"><ele>1479.0</ele><time>2026-05-05T12:58:06Z</time></trkpt><trkpt lat="30.73914361695747" lon="-6.647898735017423"><ele>1480.0</ele><time>2026-05-05T12:58:07Z</time></trkpt><trkpt lat="30.739144612466664" lon="-6.648119425413374"><ele>1481.0</ele><time>2026-05-05T12:58:08Z</time></trkpt><trkpt lat="30.73911851811192" lon="-6.648337361158395"><ele>1481.0</ele><time>2026-05-05T12:58:09Z</time></trkpt><trkpt lat="30.73907658762573" lon="-6.648553642073303"><ele>1481.0</ele><time>2026-05-05T12:58:10Z</time></trkpt><trkpt lat="30.739011279296502" lon="-6.648763712179356"><ele>1481.0</ele><time>2026-05-05T12:58:11Z</time></trkpt><trkpt lat="30.73892586981825" lon="-6.648967999959001"><ele>1479.6666666666667</ele><time>2026-05-05T12:58:12Z</time></trkpt><trkpt lat="30.73882970279847" lon="-6.64916579499551"><ele>1478.3333333333333</ele><time>2026-05-05T12:58:13Z</time></trkpt><trkpt lat="30.738722352214538" lon="-6.649362842052378"><ele>1477.0</ele><time>2026-05-05T12:58:14Z</time></trkpt><trkpt lat="30.738612764004504" lon="-6.649555342832011"><ele>1476.6666666666665</ele><time>2026-05-05T12:58:15Z</time></trkpt><trkpt lat="30.738499514806758" lon="-6.649752020530116"><ele>1476.3333333333333</ele><time>2026-05-05T12:58:16Z</time></trkpt><trkpt lat="30.73838634012372" lon="-6.649951410775745"><ele>1476.0</ele><time>2026-05-05T12:58:17Z</time></trkpt><trkpt lat="30.7382727723637" lon="-6.650154061128542"><ele>1474.6666666666667</ele><time>2026-05-05T12:58:18Z</time></trkpt><trkpt lat="30.738159887475273" lon="-6.650356512532655"><ele>1473.3333333333335</ele><time>2026-05-05T12:58:19Z</time></trkpt><trkpt lat="30.73804639224325" lon="-6.650560552904314"><ele>1472.0</ele><time>2026-05-05T12:58:20Z</time></trkpt><trkpt lat="30.7379320821179" lon="-6.650765195799432"><ele>1472.0</ele><time>2026-05-05T12:58:21Z</time></trkpt><trkpt lat="30.73781915590179" lon="-6.650965385928648"><ele>1472.0</ele><time>2026-05-05T12:58:22Z</time></trkpt><trkpt lat="30.737706684494626" lon="-6.651164981781785"><ele>1472.0</ele><time>2026-05-05T12:58:23Z</time></trkpt><trkpt lat="30.737591088360986" lon="-6.651364879036398"><ele>1471.6666666666667</ele><time>2026-05-05T12:58:24Z</time></trkpt><trkpt lat="30.737475757619396" lon="-6.651564755423302"><ele>1471.3333333333333</ele><time>2026-05-05T12:58:25Z</time></trkpt><trkpt lat="30.73736477117938" lon="-6.651765019280202"><ele>1471.0</ele><time>2026-05-05T12:58:26Z</time></trkpt><trkpt lat="30.73725138440105" lon="-6.651967318886891"><ele>1469.6666666666665</ele><time>2026-05-05T12:58:27Z</time></trkpt><trkpt lat="30.737135869790414" lon="-6.652170710782804"><ele>1468.3333333333333</ele><time>2026-05-05T12:58:28Z</time></trkpt><trkpt lat="30.737020016641395" lon="-6.652372952103906"><ele>1467.0</ele><time>2026-05-05T12:58:29Z</time></trkpt><trkpt lat="30.73690919736183" lon="-6.652581235954619"><ele>1466.0</ele><time>2026-05-05T12:58:30Z</time></trkpt><trkpt lat="30.736809422714195" lon="-6.6527965161222715"><ele>1465.0</ele><time>2026-05-05T12:58:31Z</time></trkpt><trkpt lat="30.736728325113084" lon="-6.6530272620191715"><ele>1464.0</ele><time>2026-05-05T12:58:32Z</time></trkpt><trkpt lat="30.736674537098228" lon="-6.653266375794525"><ele>1464.0</ele><time>2026-05-05T12:58:33Z</time></trkpt><trkpt lat="30.73663540913851" lon="-6.653516446734644"><ele>1464.0</ele><time>2026-05-05T12:58:34Z</time></trkpt><trkpt lat="30.73660965442757" lon="-6.653766760152825"><ele>1464.0</ele><time>2026-05-05T12:58:35.001Z</time></trkpt><trkpt lat="30.736592500329113" lon="-6.654018587550109"><ele>1462.0</ele><time>2026-05-05T12:58:36.001Z</time></trkpt><trkpt lat="30.736571177095524" lon="-6.654267880643192"><ele>1460.0</ele><time>2026-05-05T12:58:37.001Z</time></trkpt><trkpt lat="30.73654253512966" lon="-6.654513075966469"><ele>1458.0</ele><time>2026-05-05T12:58:38.001Z</time></trkpt><trkpt lat="30.736512501179874" lon="-6.654760273732642"><ele>1457.3333333333333</ele><time>2026-05-05T12:58:39.001Z</time></trkpt><trkpt lat="30.73648741590544" lon="-6.655008449209905"><ele>1456.6666666666665</ele><time>2026-05-05T12:58:40.001Z</time></trkpt><trkpt lat="30.73646664086695" lon="-6.655258642530869"><ele>1456.0</ele><time>2026-05-05T12:58:41.001Z</time></trkpt><trkpt lat="30.736443016654896" lon="-6.655508022344026"><ele>1455.6666666666665</ele><time>2026-05-05T12:58:42.001Z</time></trkpt><trkpt lat="30.73641863845595" lon="-6.65575588756068"><ele>1455.3333333333333</ele><time>2026-05-05T12:58:43.001Z</time></trkpt><trkpt lat="30.736391998618952" lon="-6.656005644337075"><ele>1455.0</ele><time>2026-05-05T12:58:44.001Z</time></trkpt><trkpt lat="30.73636753679468" lon="-6.656250697915405"><ele>1455.0</ele><time>2026-05-05T12:58:45.001Z</time></trkpt><trkpt lat="30.736343081670423" lon="-6.656491367827827"><ele>1455.0</ele><time>2026-05-05T12:58:46.001Z</time></trkpt><trkpt lat="30.736318539270908" lon="-6.656725946076183"><ele>1455.0</ele><time>2026-05-05T12:58:47.001Z</time></trkpt><trkpt lat="30.736296352676728" lon="-6.656956118623225"><ele>1455.6666666666667</ele><time>2026-05-05T12:58:48.001Z</time></trkpt><trkpt lat="30.736272115354108" lon="-6.657183213966521"><ele>1456.3333333333335</ele><time>2026-05-05T12:58:49.001Z</time></trkpt><trkpt lat="30.736246566815108" lon="-6.65740937422363"><ele>1457.0</ele><time>2026-05-05T12:58:50.001Z</time></trkpt><trkpt lat="30.736221452888262" lon="-6.657635739457288"><ele>1459.3333333333335</ele><time>2026-05-05T12:58:51.001Z</time></trkpt><trkpt lat="30.73619830170149" lon="-6.657864333785119"><ele>1461.6666666666667</ele><time>2026-05-05T12:58:52.001Z</time></trkpt><trkpt lat="30.736176506225373" lon="-6.658094744321611"><ele>1464.0</ele><time>2026-05-05T12:58:53.001Z</time></trkpt><trkpt lat="30.736153782222605" lon="-6.658323425429057"><ele>1464.0</ele><time>2026-05-05T12:58:54.001Z</time></trkpt><trkpt lat="30.736130742482043" lon="-6.65855052905027"><ele>1464.0</ele><time>2026-05-05T12:58:55Z</time></trkpt><trkpt lat="30.73610442888821" lon="-6.658775899760899"><ele>1464.0</ele><time>2026-05-05T12:58:56Z</time></trkpt><trkpt lat="30.736072188069816" lon="-6.659002856285386"><ele>1464.3333333333333</ele><time>2026-05-05T12:58:57Z</time></trkpt><trkpt lat="30.736042437352918" lon="-6.659233565587109"><ele>1464.6666666666665</ele><time>2026-05-05T12:58:58Z</time></trkpt><trkpt lat="30.736029358533745" lon="-6.659467652386278"><ele>1465.0</ele><time>2026-05-05T12:58:59Z</time></trkpt><trkpt lat="30.736028842456015" lon="-6.65970202013289"><ele>1466.0</ele><time>2026-05-05T12:59:00Z</time></trkpt><trkpt lat="30.73602959514343" lon="-6.659936710674993"><ele>1467.0</ele><time>2026-05-05T12:59:01Z</time></trkpt><trkpt lat="30.73602856505329" lon="-6.660170731178973"><ele>1468.0</ele><time>2026-05-05T12:59:02Z</time></trkpt><trkpt lat="30.736027638218033" lon="-6.66040495141033"><ele>1468.0</ele><time>2026-05-05T12:59:03Z</time></trkpt><trkpt lat="30.736026162806198" lon="-6.660644168442654"><ele>1468.0</ele><time>2026-05-05T12:59:04Z</time></trkpt><trkpt lat="30.73602302231872" lon="-6.660884332818746"><ele>1468.0</ele><time>2026-05-05T12:59:05Z</time></trkpt><trkpt lat="30.736020012599695" lon="-6.661125516984084"><ele>1468.0</ele><time>2026-05-05T12:59:06Z</time></trkpt><trkpt lat="30.73601828151848" lon="-6.661367371700887"><ele>1468.0</ele><time>2026-05-05T12:59:07Z</time></trkpt><trkpt lat="30.736019474245435" lon="-6.6616105171329165"><ele>1468.0</ele><time>2026-05-05T12:59:08Z</time></trkpt><trkpt lat="30.736020446352427" lon="-6.661853119272481"><ele>1468.6666666666665</ele><time>2026-05-05T12:59:09Z</time></trkpt><trkpt lat="30.736017817325575" lon="-6.662099996500868"><ele>1469.3333333333333</ele><time>2026-05-05T12:59:10Z</time></trkpt><trkpt lat="30.7360129267685" lon="-6.662343732230196"><ele>1470.0</ele><time>2026-05-05T12:59:11Z</time></trkpt><trkpt lat="30.736004955940196" lon="-6.662581339763631"><ele>1470.6666666666667</ele><time>2026-05-05T12:59:12Z</time></trkpt><trkpt lat="30.735997592887593" lon="-6.662815326358426"><ele>1471.3333333333335</ele><time>2026-05-05T12:59:13Z</time></trkpt><trkpt lat="30.735997710076894" lon="-6.66304318853258"><ele>1472.0</ele><time>2026-05-05T12:59:14Z</time></trkpt><trkpt lat="30.736017293846132" lon="-6.663265345634199"><ele>1473.0</ele><time>2026-05-05T12:59:15Z</time></trkpt><trkpt lat="30.736061732715672" lon="-6.663480686989827"><ele>1474.0</ele><time>2026-05-05T12:59:16Z</time></trkpt><trkpt lat="30.736096579206198" lon="-6.663696110038556"><ele>1475.0</ele><time>2026-05-05T12:59:17Z</time></trkpt><trkpt lat="30.73619424902841" lon="-6.6639005525574655"><ele>1476.3333333333335</ele><time>2026-05-05T12:59:18Z</time></trkpt><trkpt lat="30.736305842451998" lon="-6.6640788106047095"><ele>1477.6666666666667</ele><time>2026-05-05T12:59:19Z</time></trkpt><trkpt lat="30.736424171198195" lon="-6.66424432710816"><ele>1479.0</ele><time>2026-05-05T12:59:20Z</time></trkpt><trkpt lat="30.7365883599311" lon="-6.664369405142006"><ele>1479.3333333333333</ele><time>2026-05-05T12:59:21Z</time></trkpt><trkpt lat="30.736733451007957" lon="-6.664497044618632"><ele>1479.6666666666665</ele><time>2026-05-05T12:59:22Z</time></trkpt><trkpt lat="30.73688764837507" lon="-6.6646245680711536"><ele>1480.0</ele><time>2026-05-05T12:59:23Z</time></trkpt><trkpt lat="30.73704367913502" lon="-6.664749533029771"><ele>1480.6666666666665</ele><time>2026-05-05T12:59:24Z</time></trkpt><trkpt lat="30.73720072063151" lon="-6.664879769868973"><ele>1481.3333333333333</ele><time>2026-05-05T12:59:25Z</time></trkpt><trkpt lat="30.737360125919007" lon="-6.665015063857221"><ele>1482.0</ele><time>2026-05-05T12:59:26Z</time></trkpt><trkpt lat="30.73752298719205" lon="-6.665154910928244"><ele>1482.3333333333333</ele><time>2026-05-05T12:59:27Z</time></trkpt><trkpt lat="30.737690038445777" lon="-6.665298593497417"><ele>1482.6666666666665</ele><time>2026-05-05T12:59:28Z</time></trkpt><trkpt lat="30.73786177961615" lon="-6.665444126914605"><ele>1483.0</ele><time>2026-05-05T12:59:29Z</time></trkpt><trkpt lat="30.738040536832806" lon="-6.665589329883568"><ele>1482.3333333333333</ele><time>2026-05-05T12:59:30Z</time></trkpt><trkpt lat="30.738222509278273" lon="-6.6657385128342295"><ele>1481.6666666666667</ele><time>2026-05-05T12:59:31Z</time></trkpt><trkpt lat="30.738370645774513" lon="-6.665906928364736"><ele>1481.0</ele><time>2026-05-05T12:59:32Z</time></trkpt><trkpt lat="30.738550147520744" lon="-6.66607161829455"><ele>1483.0</ele><time>2026-05-05T12:59:33Z</time></trkpt><trkpt lat="30.738731431104675" lon="-6.66622437689307"><ele>1485.0</ele><time>2026-05-05T12:59:34Z</time></trkpt><trkpt lat="30.738904314920607" lon="-6.666364052951785"><ele>1487.0</ele><time>2026-05-05T12:59:35Z</time></trkpt><trkpt lat="30.739072188911493" lon="-6.666507194439937"><ele>1487.0</ele><time>2026-05-05T12:59:36Z</time></trkpt><trkpt lat="30.73923475726576" lon="-6.666644832129542"><ele>1487.0</ele><time>2026-05-05T12:59:37Z</time></trkpt><trkpt lat="30.73940046081054" lon="-6.666787056995633"><ele>1487.0</ele><time>2026-05-05T12:59:38Z</time></trkpt><trkpt lat="30.739564464445817" lon="-6.666928202077056"><ele>1489.0</ele><time>2026-05-05T12:59:39Z</time></trkpt><trkpt lat="30.739729805118323" lon="-6.667074443143286"><ele>1491.0</ele><time>2026-05-05T12:59:40Z</time></trkpt><trkpt lat="30.739889679081262" lon="-6.667217739655495"><ele>1493.0</ele><time>2026-05-05T12:59:41Z</time></trkpt><trkpt lat="30.74004328798097" lon="-6.667377613486902"><ele>1493.0</ele><time>2026-05-05T12:59:42Z</time></trkpt><trkpt lat="30.74018246677546" lon="-6.66754900704102"><ele>1493.0</ele><time>2026-05-05T12:59:43Z</time></trkpt><trkpt lat="30.74030899908728" lon="-6.667743100480819"><ele>1493.0</ele><time>2026-05-05T12:59:44Z</time></trkpt><trkpt lat="30.740431357660245" lon="-6.667945314439623"><ele>1492.0</ele><time>2026-05-05T12:59:45Z</time></trkpt><trkpt lat="30.740556553087696" lon="-6.6681404516410545"><ele>1491.0</ele><time>2026-05-05T12:59:46Z</time></trkpt><trkpt lat="30.740681792869204" lon="-6.6683309632305034"><ele>1490.0</ele><time>2026-05-05T12:59:47Z</time></trkpt><trkpt lat="30.740812861745276" lon="-6.668522820860835"><ele>1490.3333333333335</ele><time>2026-05-05T12:59:48Z</time></trkpt><trkpt lat="30.740951644454437" lon="-6.6687043074076495"><ele>1490.6666666666667</ele><time>2026-05-05T12:59:49Z</time></trkpt><trkpt lat="30.741094481684616" lon="-6.6688867349013075"><ele>1491.0</ele><time>2026-05-05T12:59:50Z</time></trkpt><trkpt lat="30.741230893720314" lon="-6.669073391037117"><ele>1491.0</ele><time>2026-05-05T12:59:51Z</time></trkpt><trkpt lat="30.74136802010905" lon="-6.669259552681592"><ele>1491.0</ele><time>2026-05-05T12:59:52Z</time></trkpt><trkpt lat="30.74150571169533" lon="-6.669444534296263"><ele>1491.0</ele><time>2026-05-05T12:59:53Z</time></trkpt><trkpt lat="30.741646542155152" lon="-6.669624009142854"><ele>1490.6666666666667</ele><time>2026-05-05T12:59:54Z</time></trkpt><trkpt lat="30.741770059073993" lon="-6.669823880942392"><ele>1490.3333333333335</ele><time>2026-05-05T12:59:55Z</time></trkpt><trkpt lat="30.741906228493818" lon="-6.670005255437729"><ele>1490.0</ele><time>2026-05-05T12:59:56Z</time></trkpt><trkpt lat="30.74204479279695" lon="-6.670185568965535"><ele>1490.6666666666667</ele><time>2026-05-05T12:59:57Z</time></trkpt><trkpt lat="30.742181395500392" lon="-6.6703677705718825"><ele>1491.3333333333333</ele><time>2026-05-05T12:59:58Z</time></trkpt><trkpt lat="30.74231938045243" lon="-6.670559651123027"><ele>1492.0</ele><time>2026-05-05T12:59:59Z</time></trkpt><trkpt lat="30.742458252125846" lon="-6.670758801701565"><ele>1492.0</ele><time>2026-05-05T13:00:00Z</time></trkpt><trkpt lat="30.742600599096814" lon="-6.670954880908088"><ele>1492.0</ele><time>2026-05-05T13:00:01Z</time></trkpt><trkpt lat="30.742743202054356" lon="-6.671146644613753"><ele>1492.0</ele><time>2026-05-05T13:00:02Z</time></trkpt><trkpt lat="30.742885539413102" lon="-6.671323816026455"><ele>1492.6666666666665</ele><time>2026-05-05T13:00:03Z</time></trkpt><trkpt lat="30.7430265946863" lon="-6.671490921558166"><ele>1493.3333333333333</ele><time>2026-05-05T13:00:04Z</time></trkpt><trkpt lat="30.743162947495087" lon="-6.6716494305532335"><ele>1494.0</ele><time>2026-05-05T13:00:05Z</time></trkpt><trkpt lat="30.743298514967712" lon="-6.671808723562447"><ele>1494.0</ele><time>2026-05-05T13:00:06Z</time></trkpt><trkpt lat="30.74345043923426" lon="-6.671960562046563"><ele>1494.0</ele><time>2026-05-05T13:00:07Z</time></trkpt><trkpt lat="30.743625722337217" lon="-6.672085251782008"><ele>1494.0</ele><time>2026-05-05T13:00:08Z</time></trkpt><trkpt lat="30.74381445933308" lon="-6.672173123881492"><ele>1494.0</ele><time>2026-05-05T13:00:09Z</time></trkpt><trkpt lat="30.744005055315863" lon="-6.672239026147329"><ele>1494.0</ele><time>2026-05-05T13:00:10Z</time></trkpt><trkpt lat="30.74419527353657" lon="-6.672284632986205"><ele>1494.0</ele><time>2026-05-05T13:00:11Z</time></trkpt><trkpt lat="30.744386745448317" lon="-6.67231501098877"><ele>1496.0</ele><time>2026-05-05T13:00:12Z</time></trkpt><trkpt lat="30.744577249261308" lon="-6.672350051880211"><ele>1498.0</ele><time>2026-05-05T13:00:13Z</time></trkpt><trkpt lat="30.74475192698722" lon="-6.672401939457891"><ele>1500.0</ele><time>2026-05-05T13:00:14Z</time></trkpt><trkpt lat="30.744922110570716" lon="-6.672466061960989"><ele>1500.0</ele><time>2026-05-05T13:00:15Z</time></trkpt><trkpt lat="30.745105616438522" lon="-6.672529770366903"><ele>1500.0</ele><time>2026-05-05T13:00:16Z</time></trkpt><trkpt lat="30.745300302896233" lon="-6.672597177758271"><ele>1500.0</ele><time>2026-05-05T13:00:17Z</time></trkpt><trkpt lat="30.745503040900967" lon="-6.67266729763873"><ele>1501.0</ele><time>2026-05-05T13:00:18Z</time></trkpt><trkpt lat="30.745701243558003" lon="-6.672748349607061"><ele>1502.0</ele><time>2026-05-05T13:00:19Z</time></trkpt><trkpt lat="30.745902538166856" lon="-6.672836081617725"><ele>1503.0</ele><time>2026-05-05T13:00:20Z</time></trkpt><trkpt lat="30.746101303573962" lon="-6.67293161244099"><ele>1503.6666666666667</ele><time>2026-05-05T13:00:21Z</time></trkpt><trkpt lat="30.74629907204765" lon="-6.673016690131084"><ele>1504.3333333333335</ele><time>2026-05-05T13:00:22Z</time></trkpt><trkpt lat="30.746493354488077" lon="-6.673087414762219"><ele>1505.0</ele><time>2026-05-05T13:00:23Z</time></trkpt><trkpt lat="30.74669173070951" lon="-6.673142111616796"><ele>1506.6666666666667</ele><time>2026-05-05T13:00:24Z</time></trkpt><trkpt lat="30.74689278924071" lon="-6.673155125808336"><ele>1508.3333333333333</ele><time>2026-05-05T13:00:25Z</time></trkpt><trkpt lat="30.747087587168558" lon="-6.673137909725158"><ele>1510.0</ele><time>2026-05-05T13:00:26Z</time></trkpt><trkpt lat="30.747280975154883" lon="-6.673085765063246"><ele>1510.0</ele><time>2026-05-05T13:00:27Z</time></trkpt><trkpt lat="30.747468321541714" lon="-6.673019404846251"><ele>1510.0</ele><time>2026-05-05T13:00:28Z</time></trkpt><trkpt lat="30.747653632289158" lon="-6.672951532777639"><ele>1510.0</ele><time>2026-05-05T13:00:29Z</time></trkpt><trkpt lat="30.74783722054582" lon="-6.672898726855171"><ele>1511.3333333333333</ele><time>2026-05-05T13:00:30Z</time></trkpt><trkpt lat="30.748019354669267" lon="-6.672861935923837"><ele>1512.6666666666667</ele><time>2026-05-05T13:00:31Z</time></trkpt><trkpt lat="30.748206071242237" lon="-6.672843400338816"><ele>1514.0</ele><time>2026-05-05T13:00:32Z</time></trkpt><trkpt lat="30.7483967609217" lon="-6.67285167162731"><ele>1516.0</ele><time>2026-05-05T13:00:33Z</time></trkpt><trkpt lat="30.74858806068381" lon="-6.672880268661704"><ele>1518.0</ele><time>2026-05-05T13:00:34Z</time></trkpt><trkpt lat="30.7487739001934" lon="-6.672907290987224"><ele>1520.0</ele><time>2026-05-05T13:00:35Z</time></trkpt><trkpt lat="30.748951633606794" lon="-6.672933604669706"><ele>1520.0</ele><time>2026-05-05T13:00:36Z</time></trkpt><trkpt lat="30.749124810551002" lon="-6.672971717168454"><ele>1520.0</ele><time>2026-05-05T13:00:37Z</time></trkpt><trkpt lat="30.74928283851517" lon="-6.673042967541377"><ele>1520.0</ele><time>2026-05-05T13:00:38Z</time></trkpt><trkpt lat="30.74942782681078" lon="-6.673146534992859"><ele>1524.0</ele><time>2026-05-05T13:00:39Z</time></trkpt><trkpt lat="30.749561143576763" lon="-6.673276710957683"><ele>1528.0</ele><time>2026-05-05T13:00:40Z</time></trkpt><trkpt lat="30.74968009836202" lon="-6.673430878446467"><ele>1532.0</ele><time>2026-05-05T13:00:41.001Z</time></trkpt><trkpt lat="30.749784155649838" lon="-6.6736088479756575"><ele>1532.0</ele><time>2026-05-05T13:00:42.001Z</time></trkpt><trkpt lat="30.749872616833237" lon="-6.673805606289791"><ele>1532.0</ele><time>2026-05-05T13:00:43.001Z</time></trkpt><trkpt lat="30.749936529292324" lon="-6.674026294571549"><ele>1532.0</ele><time>2026-05-05T13:00:44.001Z</time></trkpt><trkpt lat="30.749995479944864" lon="-6.674255462547763"><ele>1531.3333333333335</ele><time>2026-05-05T13:00:45.001Z</time></trkpt><trkpt lat="30.750059626878276" lon="-6.674488197679286"><ele>1530.6666666666667</ele><time>2026-05-05T13:00:46.001Z</time></trkpt><trkpt lat="30.75013247300579" lon="-6.674722495520995"><ele>1530.0</ele><time>2026-05-05T13:00:47Z</time></trkpt><trkpt lat="30.750204667307994" lon="-6.674950239709768"><ele>1533.0</ele><time>2026-05-05T13:00:48Z</time></trkpt><trkpt lat="30.75027435431208" lon="-6.675176781669146"><ele>1536.0</ele><time>2026-05-05T13:00:49Z</time></trkpt><trkpt lat="30.75032861075904" lon="-6.675406419849949"><ele>1539.0</ele><time>2026-05-05T13:00:50Z</time></trkpt><trkpt lat="30.750355864282046" lon="-6.675643125009104"><ele>1539.6666666666665</ele><time>2026-05-05T13:00:51Z</time></trkpt><trkpt lat="30.750345785276245" lon="-6.675891158257573"><ele>1540.3333333333333</ele><time>2026-05-05T13:00:52Z</time></trkpt><trkpt lat="30.750308095267012" lon="-6.676140590376418"><ele>1541.0</ele><time>2026-05-05T13:00:53Z</time></trkpt><trkpt lat="30.75024781086923" lon="-6.67638116164272"><ele>1541.3333333333333</ele><time>2026-05-05T13:00:54Z</time></trkpt><trkpt lat="30.75016605116651" lon="-6.676613622280014"><ele>1541.6666666666665</ele><time>2026-05-05T13:00:55Z</time></trkpt><trkpt lat="30.75007189853942" lon="-6.676840741817123"><ele>1542.0</ele><time>2026-05-05T13:00:56Z</time></trkpt><trkpt lat="30.74998070355669" lon="-6.677067669460316"><ele>1542.0</ele><time>2026-05-05T13:00:57Z</time></trkpt><trkpt lat="30.749893003757244" lon="-6.6772976712636005"><ele>1542.0</ele><time>2026-05-05T13:00:58Z</time></trkpt><trkpt lat="30.74980536558805" lon="-6.677527391215132"><ele>1542.0</ele><time>2026-05-05T13:00:59Z</time></trkpt><trkpt lat="30.749720356400683" lon="-6.67775744870307"><ele>1545.0</ele><time>2026-05-05T13:01:00Z</time></trkpt><trkpt lat="30.749640634810806" lon="-6.677985232609247"><ele>1548.0</ele><time>2026-05-05T13:01:01Z</time></trkpt><trkpt lat="30.749560199394192" lon="-6.678209676895443"><ele>1551.0</ele><time>2026-05-05T13:01:02Z</time></trkpt><trkpt lat="30.749476165552622" lon="-6.678434881573438"><ele>1549.6666666666665</ele><time>2026-05-05T13:01:03Z</time></trkpt><trkpt lat="30.749389686884502" lon="-6.678659725681942"><ele>1548.3333333333333</ele><time>2026-05-05T13:01:04Z</time></trkpt><trkpt lat="30.74930729245355" lon="-6.678884656219505"><ele>1547.0</ele><time>2026-05-05T13:01:05Z</time></trkpt><trkpt lat="30.749230246066944" lon="-6.679110208808553"><ele>1547.0</ele><time>2026-05-05T13:01:06Z</time></trkpt><trkpt lat="30.749166857957622" lon="-6.679336458262389"><ele>1547.0</ele><time>2026-05-05T13:01:07Z</time></trkpt><trkpt lat="30.749125880283444" lon="-6.67957062014583"><ele>1547.0</ele><time>2026-05-05T13:01:08Z</time></trkpt><trkpt lat="30.749098370131318" lon="-6.679806957746612"><ele>1551.3333333333333</ele><time>2026-05-05T13:01:09Z</time></trkpt><trkpt lat="30.749069828458566" lon="-6.680046489824733"><ele>1555.6666666666665</ele><time>2026-05-05T13:01:10Z</time></trkpt><trkpt lat="30.749036356353532" lon="-6.680286966196249"><ele>1560.0</ele><time>2026-05-05T13:01:11Z</time></trkpt><trkpt lat="30.749001416615968" lon="-6.680528628023496"><ele>1561.6666666666665</ele><time>2026-05-05T13:01:12Z</time></trkpt><trkpt lat="30.748967683632934" lon="-6.680769753249753"><ele>1563.3333333333333</ele><time>2026-05-05T13:01:13Z</time></trkpt><trkpt lat="30.748937239547303" lon="-6.681013649474824"><ele>1565.0</ele><time>2026-05-05T13:01:14Z</time></trkpt><trkpt lat="30.74890487578725" lon="-6.681258687487033"><ele>1566.3333333333333</ele><time>2026-05-05T13:01:15Z</time></trkpt><trkpt lat="30.74886943725187" lon="-6.681505049014879"><ele>1567.6666666666665</ele><time>2026-05-05T13:01:16Z</time></trkpt><trkpt lat="30.748832318201845" lon="-6.681754336412304"><ele>1569.0</ele><time>2026-05-05T13:01:17Z</time></trkpt><trkpt lat="30.7488002360238" lon="-6.682000889376047"><ele>1570.0</ele><time>2026-05-05T13:01:18Z</time></trkpt><trkpt lat="30.748766703362296" lon="-6.682250820006134"><ele>1571.0</ele><time>2026-05-05T13:01:19Z</time></trkpt><trkpt lat="30.748735553987895" lon="-6.68249849337543"><ele>1572.0</ele><time>2026-05-05T13:01:20Z</time></trkpt><trkpt lat="30.748699235990095" lon="-6.682750620702443"><ele>1573.6666666666665</ele><time>2026-05-05T13:01:21Z</time></trkpt><trkpt lat="30.748666789757184" lon="-6.683002073619589"><ele>1575.3333333333333</ele><time>2026-05-05T13:01:22Z</time></trkpt><trkpt lat="30.748634869807407" lon="-6.683255094368395"><ele>1577.0</ele><time>2026-05-05T13:01:23Z</time></trkpt><trkpt lat="30.748600361266497" lon="-6.683510746609424"><ele>1576.0</ele><time>2026-05-05T13:01:24Z</time></trkpt><trkpt lat="30.748563928606576" lon="-6.6837650343413975"><ele>1575.0</ele><time>2026-05-05T13:01:25Z</time></trkpt><trkpt lat="30.74852767852087" lon="-6.684020236377826"><ele>1574.0</ele><time>2026-05-05T13:01:26Z</time></trkpt><trkpt lat="30.748492911084018" lon="-6.684275261770434"><ele>1575.0</ele><time>2026-05-05T13:01:27Z</time></trkpt><trkpt lat="30.748467010983628" lon="-6.684529828015173"><ele>1576.0</ele><time>2026-05-05T13:01:28Z</time></trkpt><trkpt lat="30.748453296829666" lon="-6.684787276557178"><ele>1577.0</ele><time>2026-05-05T13:01:29Z</time></trkpt><trkpt lat="30.748452423861682" lon="-6.68504365063547"><ele>1578.3333333333333</ele><time>2026-05-05T13:01:30Z</time></trkpt><trkpt lat="30.748465096043255" lon="-6.685301874325146"><ele>1579.6666666666665</ele><time>2026-05-05T13:01:31Z</time></trkpt><trkpt lat="30.748492433664058" lon="-6.685560221179623"><ele>1581.0</ele><time>2026-05-05T13:01:32Z</time></trkpt><trkpt lat="30.74853208865356" lon="-6.685818187225974"><ele>1583.0</ele><time>2026-05-05T13:01:33Z</time></trkpt><trkpt lat="30.748583568726907" lon="-6.686070258964595"><ele>1585.0</ele><time>2026-05-05T13:01:34Z</time></trkpt><trkpt lat="30.74864281068091" lon="-6.6863008565394475"><ele>1587.0</ele><time>2026-05-05T13:01:35Z</time></trkpt><trkpt lat="30.748701733727795" lon="-6.6865167085881945"><ele>1587.0</ele><time>2026-05-05T13:01:36Z</time></trkpt><trkpt lat="30.748756665626356" lon="-6.6867267769890475"><ele>1587.0</ele><time>2026-05-05T13:01:37Z</time></trkpt><trkpt lat="30.748793629526393" lon="-6.686934439323121"><ele>1587.0</ele><time>2026-05-05T13:01:38Z</time></trkpt><trkpt lat="30.748803598172735" lon="-6.687149550527082"><ele>1587.3333333333335</ele><time>2026-05-05T13:01:39Z</time></trkpt><trkpt lat="30.748785432370514" lon="-6.687370167275897"><ele>1587.6666666666667</ele><time>2026-05-05T13:01:40Z</time></trkpt><trkpt lat="30.748730142274027" lon="-6.687582437026872"><ele>1588.0</ele><time>2026-05-05T13:01:41Z</time></trkpt><trkpt lat="30.74864369549789" lon="-6.687792231571172"><ele>1589.3333333333335</ele><time>2026-05-05T13:01:42Z</time></trkpt><trkpt lat="30.74854438029762" lon="-6.687988114110041"><ele>1590.6666666666665</ele><time>2026-05-05T13:01:43Z</time></trkpt><trkpt lat="30.748447095756546" lon="-6.6881745966432975"><ele>1592.0</ele><time>2026-05-05T13:01:44Z</time></trkpt><trkpt lat="30.74835381161371" lon="-6.688354785642044"><ele>1586.6666666666665</ele><time>2026-05-05T13:01:45Z</time></trkpt><trkpt lat="30.748269523219598" lon="-6.688524873988497"><ele>1581.3333333333335</ele><time>2026-05-05T13:01:46Z</time></trkpt><trkpt lat="30.7481991972737" lon="-6.688692772863198"><ele>1576.0</ele><time>2026-05-05T13:01:47Z</time></trkpt><trkpt lat="30.748152762866248" lon="-6.688871248354878"><ele>1576.0</ele><time>2026-05-05T13:01:48Z</time></trkpt><trkpt lat="30.7481487036177" lon="-6.689045854265332"><ele>1576.0</ele><time>2026-05-05T13:01:49Z</time></trkpt><trkpt lat="30.748186259874185" lon="-6.689212369083622"><ele>1576.0</ele><time>2026-05-05T13:01:50Z</time></trkpt><trkpt lat="30.74825397739504" lon="-6.689371730938331"><ele>1570.6666666666667</ele><time>2026-05-05T13:01:51Z</time></trkpt><trkpt lat="30.7483543879427" lon="-6.689514063749159"><ele>1565.3333333333335</ele><time>2026-05-05T13:01:52Z</time></trkpt><trkpt lat="30.748481275799573" lon="-6.689621503427649"><ele>1560.0</ele><time>2026-05-05T13:01:53Z</time></trkpt><trkpt lat="30.74862610541251" lon="-6.689700265710923"><ele>1558.6666666666665</ele><time>2026-05-05T13:01:54Z</time></trkpt><trkpt lat="30.748795995914577" lon="-6.689743579591305"><ele>1557.3333333333333</ele><time>2026-05-05T13:01:55Z</time></trkpt><trkpt lat="30.748992427862007" lon="-6.689758880296549"><ele>1556.0</ele><time>2026-05-05T13:01:56Z</time></trkpt><trkpt lat="30.749198049945285" lon="-6.6897617838021795"><ele>1554.6666666666665</ele><time>2026-05-05T13:01:57Z</time></trkpt><trkpt lat="30.749402661550118" lon="-6.689772280929014"><ele>1553.3333333333335</ele><time>2026-05-05T13:01:58Z</time></trkpt><trkpt lat="30.749608822248412" lon="-6.689793006697666"><ele>1552.0</ele><time>2026-05-05T13:01:59Z</time></trkpt><trkpt lat="30.74980823279538" lon="-6.689812184960913"><ele>1552.0</ele><time>2026-05-05T13:02:00Z</time></trkpt><trkpt lat="30.750001064666446" lon="-6.689833952411981"><ele>1552.0</ele><time>2026-05-05T13:02:01Z</time></trkpt><trkpt lat="30.750188727685035" lon="-6.689854460552112"><ele>1552.0</ele><time>2026-05-05T13:02:02Z</time></trkpt><trkpt lat="30.750379684720293" lon="-6.68985560810377"><ele>1549.0</ele><time>2026-05-05T13:02:03Z</time></trkpt><trkpt lat="30.750573007383977" lon="-6.6898237198147505"><ele>1546.0</ele><time>2026-05-05T13:02:04Z</time></trkpt><trkpt lat="30.750760796928187" lon="-6.689760908633405"><ele>1543.0</ele><time>2026-05-05T13:02:05Z</time></trkpt><trkpt lat="30.750950184141413" lon="-6.689717664578135"><ele>1541.6666666666667</ele><time>2026-05-05T13:02:06Z</time></trkpt><trkpt lat="30.751130889638077" lon="-6.689669944147346"><ele>1540.3333333333335</ele><time>2026-05-05T13:02:07Z</time></trkpt><trkpt lat="30.75130852048305" lon="-6.689632164340062"><ele>1539.0</ele><time>2026-05-05T13:02:08Z</time></trkpt><trkpt lat="30.75149051801402" lon="-6.689612662899025"><ele>1539.0</ele><time>2026-05-05T13:02:09Z</time></trkpt><trkpt lat="30.751681842140524" lon="-6.689600027565802"><ele>1539.0</ele><time>2026-05-05T13:02:10Z</time></trkpt><trkpt lat="30.75188330716215" lon="-6.689665591422886"><ele>1539.0</ele><time>2026-05-05T13:02:11Z</time></trkpt><trkpt lat="30.752091420831842" lon="-6.689704303049705"><ele>1539.3333333333335</ele><time>2026-05-05T13:02:12Z</time></trkpt><trkpt lat="30.752308460718226" lon="-6.689739018343723"><ele>1539.6666666666667</ele><time>2026-05-05T13:02:13Z</time></trkpt><trkpt lat="30.752522566080362" lon="-6.689774187784636"><ele>1540.0</ele><time>2026-05-05T13:02:14Z</time></trkpt><trkpt lat="30.75273819041477" lon="-6.689810486993186"><ele>1540.0</ele><time>2026-05-05T13:02:15Z</time></trkpt><trkpt lat="30.752946332281283" lon="-6.689849505467853"><ele>1540.0</ele><time>2026-05-05T13:02:16Z</time></trkpt><trkpt lat="30.75314960719035" lon="-6.689885697499364"><ele>1540.0</ele><time>2026-05-05T13:02:17Z</time></trkpt><trkpt lat="30.753354112173813" lon="-6.689918943369391"><ele>1540.6666666666667</ele><time>2026-05-05T13:02:18Z</time></trkpt><trkpt lat="30.75356026340262" lon="-6.6899529965235525"><ele>1541.3333333333335</ele><time>2026-05-05T13:02:19Z</time></trkpt><trkpt lat="30.75376470917855" lon="-6.689988132592787"><ele>1542.0</ele><time>2026-05-05T13:02:20Z</time></trkpt><trkpt lat="30.753964553419067" lon="-6.690022386954307"><ele>1542.0</ele><time>2026-05-05T13:02:21Z</time></trkpt><trkpt lat="30.75415896309265" lon="-6.690059939886303"><ele>1542.0</ele><time>2026-05-05T13:02:22Z</time></trkpt><trkpt lat="30.754349808139377" lon="-6.69009928025968"><ele>1542.0</ele><time>2026-05-05T13:02:23Z</time></trkpt><trkpt lat="30.754535295340222" lon="-6.69013083967697"><ele>1538.3333333333333</ele><time>2026-05-05T13:02:24Z</time></trkpt><trkpt lat="30.754705284495184" lon="-6.690141262782847"><ele>1534.6666666666665</ele><time>2026-05-05T13:02:25Z</time></trkpt><trkpt lat="30.754869414757497" lon="-6.690113341660281"><ele>1531.0</ele><time>2026-05-05T13:02:26Z</time></trkpt><trkpt lat="30.755021723201885" lon="-6.69003704150884"><ele>1531.0</ele><time>2026-05-05T13:02:27Z</time></trkpt><trkpt lat="30.75516599025761" lon="-6.689948282509322"><ele>1531.0</ele><time>2026-05-05T13:02:28Z</time></trkpt><trkpt lat="30.75531040834452" lon="-6.6898649156695384"><ele>1531.0</ele><time>2026-05-05T13:02:29Z</time></trkpt><trkpt lat="30.755439711689185" lon="-6.689847003903858"><ele>1527.25</ele><time>2026-05-05T13:02:30Z</time></trkpt><trkpt lat="30.755562794340126" lon="-6.689749806961357"><ele>1523.5</ele><time>2026-05-05T13:02:31Z</time></trkpt><trkpt lat="30.755694521413258" lon="-6.689654997538497"><ele>1519.75</ele><time>2026-05-05T13:02:32Z</time></trkpt><trkpt lat="30.75582649197973" lon="-6.689589053473781"><ele>1516.0</ele><time>2026-05-05T13:02:33Z</time></trkpt><trkpt lat="30.755951659936148" lon="-6.6895532311536305"><ele>1518.0</ele><time>2026-05-05T13:02:34Z</time></trkpt><trkpt lat="30.756085895296888" lon="-6.689549560936358"><ele>1520.0</ele><time>2026-05-05T13:02:35Z</time></trkpt><trkpt lat="30.75623798873591" lon="-6.689587934548143"><ele>1522.0</ele><time>2026-05-05T13:02:36Z</time></trkpt><trkpt lat="30.756375437422474" lon="-6.689664292344715"><ele>1524.0</ele><time>2026-05-05T13:02:37Z</time></trkpt><trkpt lat="30.75651442277063" lon="-6.689780506099571"><ele>1524.0</ele><time>2026-05-05T13:02:38Z</time></trkpt><trkpt lat="30.756646800909785" lon="-6.689922925172391"><ele>1524.0</ele><time>2026-05-05T13:02:39Z</time></trkpt><trkpt lat="30.75678786569093" lon="-6.690057162021894"><ele>1524.0</ele><time>2026-05-05T13:02:40Z</time></trkpt><trkpt lat="30.756921278506322" lon="-6.690191239293413"><ele>1518.0</ele><time>2026-05-05T13:02:41Z</time></trkpt><trkpt lat="30.757051290858076" lon="-6.690324316407937"><ele>1512.0</ele><time>2026-05-05T13:02:42Z</time></trkpt><trkpt lat="30.757183219610127" lon="-6.690434245631587"><ele>1506.0</ele><time>2026-05-05T13:02:43Z</time></trkpt><trkpt lat="30.757336593896873" lon="-6.690493731510812"><ele>1506.0</ele><time>2026-05-05T13:02:44Z</time></trkpt><trkpt lat="30.757493531350054" lon="-6.690529475402721"><ele>1506.0</ele><time>2026-05-05T13:02:45Z</time></trkpt><trkpt lat="30.757646247896414" lon="-6.690533463179443"><ele>1506.0</ele><time>2026-05-05T13:02:46Z</time></trkpt><trkpt lat="30.757803598457834" lon="-6.690496246826223"><ele>1504.3333333333333</ele><time>2026-05-05T13:02:47Z</time></trkpt><trkpt lat="30.757966608097902" lon="-6.690450570955445"><ele>1502.6666666666665</ele><time>2026-05-05T13:02:48Z</time></trkpt><trkpt lat="30.758135179084057" lon="-6.69041807265287"><ele>1501.0</ele><time>2026-05-05T13:02:49Z</time></trkpt><trkpt lat="30.758309400290916" lon="-6.690380714857646"><ele>1501.0</ele><time>2026-05-05T13:02:50Z</time></trkpt><trkpt lat="30.75847343167964" lon="-6.690344762428761"><ele>1501.0</ele><time>2026-05-05T13:02:51Z</time></trkpt><trkpt lat="30.75863811055738" lon="-6.690306039890112"><ele>1501.0</ele><time>2026-05-05T13:02:52Z</time></trkpt><trkpt lat="30.75881259057269" lon="-6.6902812005696335"><ele>1497.6666666666665</ele><time>2026-05-05T13:02:53Z</time></trkpt><trkpt lat="30.75898656538193" lon="-6.690272197938707"><ele>1494.3333333333333</ele><time>2026-05-05T13:02:54Z</time></trkpt><trkpt lat="30.759156418018073" lon="-6.690296875334615"><ele>1491.0</ele><time>2026-05-05T13:02:55Z</time></trkpt><trkpt lat="30.759322282860328" lon="-6.690361472285705"><ele>1494.0</ele><time>2026-05-05T13:02:56Z</time></trkpt><trkpt lat="30.7594762988478" lon="-6.690458901229937"><ele>1497.0</ele><time>2026-05-05T13:02:57Z</time></trkpt><trkpt lat="30.759622588599303" lon="-6.690583297683135"><ele>1500.0</ele><time>2026-05-05T13:02:58Z</time></trkpt><trkpt lat="30.75976154660908" lon="-6.690734523852359"><ele>1500.0</ele><time>2026-05-05T13:02:59Z</time></trkpt><trkpt lat="30.75990837578793" lon="-6.690881164151902"><ele>1500.0</ele><time>2026-05-05T13:03:00Z</time></trkpt><trkpt lat="30.760056615364533" lon="-6.69102210065464"><ele>1500.0</ele><time>2026-05-05T13:03:01Z</time></trkpt><trkpt lat="30.76020123278306" lon="-6.691162180337114"><ele>1499.3333333333333</ele><time>2026-05-05T13:03:02Z</time></trkpt><trkpt lat="30.76034204637898" lon="-6.691296003970173"><ele>1498.6666666666665</ele><time>2026-05-05T13:03:03Z</time></trkpt><trkpt lat="30.76048451258989" lon="-6.691430209109681"><ele>1498.0</ele><time>2026-05-05T13:03:04Z</time></trkpt><trkpt lat="30.760627922057004" lon="-6.6915691743322565"><ele>1498.0</ele><time>2026-05-05T13:03:05Z</time></trkpt><trkpt lat="30.76076653061255" lon="-6.691700816411654"><ele>1498.0</ele><time>2026-05-05T13:03:06Z</time></trkpt><trkpt lat="30.760901212075467" lon="-6.691799794479308"><ele>1498.0</ele><time>2026-05-05T13:03:07Z</time></trkpt><trkpt lat="30.76106620021186" lon="-6.691894533976845"><ele>1495.0</ele><time>2026-05-05T13:03:08Z</time></trkpt><trkpt lat="30.761239904136872" lon="-6.691964566426586"><ele>1492.0</ele><time>2026-05-05T13:03:09Z</time></trkpt><trkpt lat="30.76143216138052" lon="-6.692010823156915"><ele>1489.0</ele><time>2026-05-05T13:03:10Z</time></trkpt><trkpt lat="30.761620779348625" lon="-6.692031497175996"><ele>1489.0</ele><time>2026-05-05T13:03:11Z</time></trkpt><trkpt lat="30.761804360861465" lon="-6.692029547591902"><ele>1489.0</ele><time>2026-05-05T13:03:12Z</time></trkpt><trkpt lat="30.76199908042619" lon="-6.692006350302269"><ele>1489.0</ele><time>2026-05-05T13:03:13Z</time></trkpt><trkpt lat="30.762181229179916" lon="-6.691940695509879"><ele>1489.6666666666665</ele><time>2026-05-05T13:03:14Z</time></trkpt><trkpt lat="30.76236016441696" lon="-6.691856707420131"><ele>1490.3333333333333</ele><time>2026-05-05T13:03:15Z</time></trkpt><trkpt lat="30.762548609542204" lon="-6.691749074350372"><ele>1491.0</ele><time>2026-05-05T13:03:16Z</time></trkpt><trkpt lat="30.762740181554186" lon="-6.691639655324657"><ele>1486.0</ele><time>2026-05-05T13:03:17Z</time></trkpt><trkpt lat="30.762909863894944" lon="-6.69150282353806"><ele>1481.0</ele><time>2026-05-05T13:03:18Z</time></trkpt><trkpt lat="30.76309699569119" lon="-6.691369468620471"><ele>1476.0</ele><time>2026-05-05T13:03:19Z</time></trkpt><trkpt lat="30.763272304335047" lon="-6.691233879383377"><ele>1476.0</ele><time>2026-05-05T13:03:20Z</time></trkpt><trkpt lat="30.763470616480507" lon="-6.691100589645324"><ele>1476.0</ele><time>2026-05-05T13:03:21Z</time></trkpt><trkpt lat="30.76367182439134" lon="-6.691000383268392"><ele>1476.0</ele><time>2026-05-05T13:03:22Z</time></trkpt><trkpt lat="30.763874401744324" lon="-6.690908472524646"><ele>1477.3333333333333</ele><time>2026-05-05T13:03:23Z</time></trkpt><trkpt lat="30.764089118645106" lon="-6.690839739062248"><ele>1478.6666666666665</ele><time>2026-05-05T13:03:24Z</time></trkpt><trkpt lat="30.76429858512291" lon="-6.690752434200762"><ele>1480.0</ele><time>2026-05-05T13:03:25Z</time></trkpt><trkpt lat="30.76450627790306" lon="-6.690665653575104"><ele>1476.3333333333333</ele><time>2026-05-05T13:03:26Z</time></trkpt><trkpt lat="30.76471420918719" lon="-6.690578789877172"><ele>1472.6666666666667</ele><time>2026-05-05T13:03:27Z</time></trkpt><trkpt lat="30.764917957364418" lon="-6.690493599472904"><ele>1469.0</ele><time>2026-05-05T13:03:28Z</time></trkpt><trkpt lat="30.76510297854582" lon="-6.690399489992267"><ele>1467.6666666666667</ele><time>2026-05-05T13:03:29Z</time></trkpt><trkpt lat="30.765294073426375" lon="-6.690288738200356"><ele>1466.3333333333333</ele><time>2026-05-05T13:03:30Z</time></trkpt><trkpt lat="30.765464611004685" lon="-6.690174621038927"><ele>1465.0</ele><time>2026-05-05T13:03:31Z</time></trkpt><trkpt lat="30.765639639669033" lon="-6.690029526393868"><ele>1465.0</ele><time>2026-05-05T13:03:32Z</time></trkpt><trkpt lat="30.76581724691156" lon="-6.689884787620648"><ele>1465.0</ele><time>2026-05-05T13:03:33Z</time></trkpt><trkpt lat="30.765997399858858" lon="-6.689739307280703"><ele>1465.0</ele><time>2026-05-05T13:03:34Z</time></trkpt><trkpt lat="30.766183042199906" lon="-6.689589482243031"><ele>1464.0</ele><time>2026-05-05T13:03:35Z</time></trkpt><trkpt lat="30.766370043530355" lon="-6.689440216883005"><ele>1463.0</ele><time>2026-05-05T13:03:36Z</time></trkpt><trkpt lat="30.766557144513033" lon="-6.689290875248661"><ele>1463.0</ele><time>2026-05-05T13:03:37Z</time></trkpt><trkpt lat="30.76674525601188" lon="-6.689140731212397"><ele>1463.0</ele><time>2026-05-05T13:03:38Z</time></trkpt><trkpt lat="30.766934093962192" lon="-6.688990214108167"><ele>1460.5</ele><time>2026-05-05T13:03:39Z</time></trkpt><trkpt lat="30.767123001685956" lon="-6.688840127644691"><ele>1458.0</ele><time>2026-05-05T13:03:40Z</time></trkpt><trkpt lat="30.767315275899833" lon="-6.6886947374304295"><ele>1458.0</ele><time>2026-05-05T13:03:41Z</time></trkpt><trkpt lat="30.767507812138216" lon="-6.688556509606291"><ele>1458.0</ele><time>2026-05-05T13:03:42Z</time></trkpt><trkpt lat="30.767699949710874" lon="-6.6884176122411985"><ele>1458.0</ele><time>2026-05-05T13:03:43Z</time></trkpt><trkpt lat="30.767894790684064" lon="-6.688276760390737"><ele>1458.0</ele><time>2026-05-05T13:03:44Z</time></trkpt><trkpt lat="30.768086481276193" lon="-6.688138302540912"><ele>1458.0</ele><time>2026-05-05T13:03:45Z</time></trkpt><trkpt lat="30.768279379133094" lon="-6.688002572727788"><ele>1458.0</ele><time>2026-05-05T13:03:46Z</time></trkpt><trkpt lat="30.76847032330406" lon="-6.687868197704155"><ele>1458.0</ele><time>2026-05-05T13:03:47Z</time></trkpt><trkpt lat="30.768657097949237" lon="-6.687736069602391"><ele>1458.0</ele><time>2026-05-05T13:03:48Z</time></trkpt><trkpt lat="30.768861736732024" lon="-6.687628024700847"><ele>1458.0</ele><time>2026-05-05T13:03:49Z</time></trkpt><trkpt lat="30.769063147083166" lon="-6.68753519184491"><ele>1458.0</ele><time>2026-05-05T13:03:50Z</time></trkpt><trkpt lat="30.7692616255003" lon="-6.687464367926978"><ele>1459.0</ele><time>2026-05-05T13:03:51Z</time></trkpt><trkpt lat="30.769475918018923" lon="-6.6874135315512975"><ele>1460.0</ele><time>2026-05-05T13:03:52Z</time></trkpt><trkpt lat="30.769689142927366" lon="-6.687371019360821"><ele>1461.0</ele><time>2026-05-05T13:03:53Z</time></trkpt><trkpt lat="30.76989666393433" lon="-6.687328960425317"><ele>1461.0</ele><time>2026-05-05T13:03:54Z</time></trkpt><trkpt lat="30.770091115038866" lon="-6.6872658236418125"><ele>1461.0</ele><time>2026-05-05T13:03:55Z</time></trkpt><trkpt lat="30.770292403535475" lon="-6.687197878838653"><ele>1461.0</ele><time>2026-05-05T13:03:56Z</time></trkpt><trkpt lat="30.770489959340985" lon="-6.687131193146051"><ele>1464.6666666666667</ele><time>2026-05-05T13:03:57Z</time></trkpt><trkpt lat="30.770690507389766" lon="-6.687081549997464"><ele>1468.3333333333335</ele><time>2026-05-05T13:03:58Z</time></trkpt><trkpt lat="30.770873377137452" lon="-6.68696751133684"><ele>1472.0</ele><time>2026-05-05T13:03:59Z</time></trkpt><trkpt lat="30.771051919159824" lon="-6.686840490569643"><ele>1472.0</ele><time>2026-05-05T13:04:00Z</time></trkpt><trkpt lat="30.77122098826194" lon="-6.686699191397982"><ele>1472.0</ele><time>2026-05-05T13:04:01Z</time></trkpt><trkpt lat="30.771378325738883" lon="-6.6865416720346085"><ele>1472.0</ele><time>2026-05-05T13:04:02Z</time></trkpt><trkpt lat="30.77152426144661" lon="-6.686371351375175"><ele>1472.0</ele><time>2026-05-05T13:04:03Z</time></trkpt><trkpt lat="30.771671700382186" lon="-6.686193136114594"><ele>1472.0</ele><time>2026-05-05T13:04:04Z</time></trkpt><trkpt lat="30.771822914258337" lon="-6.6860171355685285"><ele>1472.0</ele><time>2026-05-05T13:04:05Z</time></trkpt><trkpt lat="30.77197420303301" lon="-6.685839539446387"><ele>1466.6666666666667</ele><time>2026-05-05T13:04:06Z</time></trkpt><trkpt lat="30.77212588959418" lon="-6.685664618773485"><ele>1461.3333333333333</ele><time>2026-05-05T13:04:07Z</time></trkpt><trkpt lat="30.7722712922927" lon="-6.685493164705276"><ele>1456.0</ele><time>2026-05-05T13:04:08Z</time></trkpt><trkpt lat="30.77241109668853" lon="-6.685327458668434"><ele>1454.0</ele><time>2026-05-05T13:04:09Z</time></trkpt><trkpt lat="30.772553994266037" lon="-6.685170560630704"><ele>1452.0</ele><time>2026-05-05T13:04:10Z</time></trkpt><trkpt lat="30.772705788438415" lon="-6.685023967316246"><ele>1450.0</ele><time>2026-05-05T13:04:11Z</time></trkpt><trkpt lat="30.77286885592977" lon="-6.68489472618618"><ele>1450.0</ele><time>2026-05-05T13:04:12Z</time></trkpt><trkpt lat="30.773041857557885" lon="-6.684784152759221"><ele>1450.0</ele><time>2026-05-05T13:04:13Z</time></trkpt><trkpt lat="30.77322330758031" lon="-6.684691265323985"><ele>1450.0</ele><time>2026-05-05T13:04:14Z</time></trkpt><trkpt lat="30.77340659410882" lon="-6.684617128261237"><ele>1450.3333333333333</ele><time>2026-05-05T13:04:15Z</time></trkpt><trkpt lat="30.77359471753221" lon="-6.684558251923956"><ele>1450.6666666666667</ele><time>2026-05-05T13:04:16Z</time></trkpt><trkpt lat="30.773779567788633" lon="-6.684516857608129"><ele>1451.0</ele><time>2026-05-05T13:04:17Z</time></trkpt><trkpt lat="30.7739629134776" lon="-6.684500520335527"><ele>1451.0</ele><time>2026-05-05T13:04:18Z</time></trkpt><trkpt lat="30.774141095226067" lon="-6.684508460536303"><ele>1451.0</ele><time>2026-05-05T13:04:19Z</time></trkpt><trkpt lat="30.77432070207147" lon="-6.684526523394283"><ele>1451.0</ele><time>2026-05-05T13:04:20Z</time></trkpt><trkpt lat="30.77449640716415" lon="-6.68455717698494"><ele>1447.6666666666667</ele><time>2026-05-05T13:04:21Z</time></trkpt><trkpt lat="30.774670162037612" lon="-6.6846029625817645"><ele>1444.3333333333333</ele><time>2026-05-05T13:04:22Z</time></trkpt><trkpt lat="30.774852836564676" lon="-6.684672999734932"><ele>1441.0</ele><time>2026-05-05T13:04:23Z</time></trkpt><trkpt lat="30.77504137231929" lon="-6.684770271214361"><ele>1438.0</ele><time>2026-05-05T13:04:24Z</time></trkpt><trkpt lat="30.775234717868674" lon="-6.6849026495466095"><ele>1435.0</ele><time>2026-05-05T13:04:25Z</time></trkpt><trkpt lat="30.775430726163822" lon="-6.68505878370404"><ele>1435.0</ele><time>2026-05-05T13:04:26Z</time></trkpt><trkpt lat="30.775631531121192" lon="-6.685217661336213"><ele>1435.0</ele><time>2026-05-05T13:04:27Z</time></trkpt><trkpt lat="30.775842959459403" lon="-6.685371234592234"><ele>1438.5</ele><time>2026-05-05T13:04:28Z</time></trkpt><trkpt lat="30.776059492777804" lon="-6.685516978379427"><ele>1442.0</ele><time>2026-05-05T13:04:29Z</time></trkpt><trkpt lat="30.77627164079071" lon="-6.685658673576683"><ele>1442.0</ele><time>2026-05-05T13:04:30Z</time></trkpt><trkpt lat="30.776469654655664" lon="-6.68580678287711"><ele>1442.0</ele><time>2026-05-05T13:04:31Z</time></trkpt><trkpt lat="30.77665861541245" lon="-6.685961753439053"><ele>1445.5</ele><time>2026-05-05T13:04:32Z</time></trkpt><trkpt lat="30.776844519309375" lon="-6.686114076686971"><ele>1449.0</ele><time>2026-05-05T13:04:33Z</time></trkpt><trkpt lat="30.77702791344052" lon="-6.686271073762879"><ele>1449.0</ele><time>2026-05-05T13:04:34Z</time></trkpt><trkpt lat="30.77720293730755" lon="-6.686431853684748"><ele>1449.0</ele><time>2026-05-05T13:04:35Z</time></trkpt><trkpt lat="30.77737699888168" lon="-6.686595105793474"><ele>1449.0</ele><time>2026-05-05T13:04:36Z</time></trkpt><trkpt lat="30.777547935909862" lon="-6.686754403189834"><ele>1448.0</ele><time>2026-05-05T13:04:37Z</time></trkpt><trkpt lat="30.77771888104552" lon="-6.686911068124263"><ele>1447.0</ele><time>2026-05-05T13:04:38Z</time></trkpt><trkpt lat="30.777893306318003" lon="-6.687064307548981"><ele>1446.0</ele><time>2026-05-05T13:04:39Z</time></trkpt><trkpt lat="30.778065476840688" lon="-6.687221964546642"><ele>1448.0</ele><time>2026-05-05T13:04:40Z</time></trkpt><trkpt lat="30.77823746758008" lon="-6.687379808515475"><ele>1450.0</ele><time>2026-05-05T13:04:41Z</time></trkpt><trkpt lat="30.77841194402921" lon="-6.687537725678616"><ele>1452.0</ele><time>2026-05-05T13:04:42Z</time></trkpt><trkpt lat="30.778590015958393" lon="-6.687698983361633"><ele>1450.5</ele><time>2026-05-05T13:04:43Z</time></trkpt><trkpt lat="30.778770118524125" lon="-6.6878641400949785"><ele>1449.0</ele><time>2026-05-05T13:04:44Z</time></trkpt><trkpt lat="30.778951472488007" lon="-6.688030302944937"><ele>1449.0</ele><time>2026-05-05T13:04:45Z</time></trkpt><trkpt lat="30.779135635176353" lon="-6.6882015746885966"><ele>1449.0</ele><time>2026-05-05T13:04:46Z</time></trkpt><trkpt lat="30.779319839642763" lon="-6.688369311557669"><ele>1447.5</ele><time>2026-05-05T13:04:47Z</time></trkpt><trkpt lat="30.779504479204434" lon="-6.688534964659699"><ele>1446.0</ele><time>2026-05-05T13:04:48Z</time></trkpt><trkpt lat="30.77968900261267" lon="-6.6886996568499315"><ele>1443.5</ele><time>2026-05-05T13:04:49Z</time></trkpt><trkpt lat="30.779870266668055" lon="-6.6888644372381485"><ele>1441.0</ele><time>2026-05-05T13:04:50Z</time></trkpt><trkpt lat="30.780052718450214" lon="-6.689028942747834"><ele>1441.5</ele><time>2026-05-05T13:04:51Z</time></trkpt><trkpt lat="30.7802348663638" lon="-6.689194621234182"><ele>1442.0</ele><time>2026-05-05T13:04:52Z</time></trkpt><trkpt lat="30.78041446076481" lon="-6.689362392046928"><ele>1440.0</ele><time>2026-05-05T13:04:53Z</time></trkpt><trkpt lat="30.780591704290796" lon="-6.689525853276533"><ele>1438.0</ele><time>2026-05-05T13:04:54Z</time></trkpt><trkpt lat="30.78077545442745" lon="-6.689688998427802"><ele>1438.0</ele><time>2026-05-05T13:04:55Z</time></trkpt><trkpt lat="30.78095607945059" lon="-6.689855690924849"><ele>1438.0</ele><time>2026-05-05T13:04:56Z</time></trkpt><trkpt lat="30.781137362303536" lon="-6.6900249411604324"><ele>1438.0</ele><time>2026-05-05T13:04:57Z</time></trkpt><trkpt lat="30.781319883629404" lon="-6.6901936744987145"><ele>1438.0</ele><time>2026-05-05T13:04:58Z</time></trkpt><trkpt lat="30.781508503465357" lon="-6.6903636711190595"><ele>1435.5</ele><time>2026-05-05T13:04:59Z</time></trkpt><trkpt lat="30.781694103388936" lon="-6.690538071158587"><ele>1433.0</ele><time>2026-05-05T13:05:00Z</time></trkpt><trkpt lat="30.78187742776012" lon="-6.69071761023562"><ele>1433.0</ele><time>2026-05-05T13:05:01Z</time></trkpt><trkpt lat="30.78206042762554" lon="-6.690904210401206"><ele>1433.0</ele><time>2026-05-05T13:05:02Z</time></trkpt><trkpt lat="30.78224010424013" lon="-6.691100247201247"><ele>1428.5</ele><time>2026-05-05T13:05:03Z</time></trkpt><trkpt lat="30.782418389099544" lon="-6.691300254382809"><ele>1424.0</ele><time>2026-05-05T13:05:04Z</time></trkpt><trkpt lat="30.782600368232448" lon="-6.691500184052507"><ele>1427.0</ele><time>2026-05-05T13:05:05Z</time></trkpt><trkpt lat="30.7828081230848" lon="-6.691672145599959"><ele>1430.0</ele><time>2026-05-05T13:05:06Z</time></trkpt><trkpt lat="30.782989173217775" lon="-6.6918768268305815"><ele>1425.0</ele><time>2026-05-05T13:05:07Z</time></trkpt><trkpt lat="30.783150977980064" lon="-6.692099875053843"><ele>1420.0</ele><time>2026-05-05T13:05:08Z</time></trkpt><trkpt lat="30.783321798676898" lon="-6.692305044349872"><ele>1420.0</ele><time>2026-05-05T13:05:09Z</time></trkpt><trkpt lat="30.78347722801743" lon="-6.692524477783115"><ele>1420.0</ele><time>2026-05-05T13:05:10Z</time></trkpt><trkpt lat="30.78361344808308" lon="-6.692760214309838"><ele>1418.5</ele><time>2026-05-05T13:05:11Z</time></trkpt><trkpt lat="30.783735602924956" lon="-6.693010396059535"><ele>1417.0</ele><time>2026-05-05T13:05:12Z</time></trkpt><trkpt lat="30.783852691469786" lon="-6.693267253999752"><ele>1417.0</ele><time>2026-05-05T13:05:13Z</time></trkpt><trkpt lat="30.78397318782687" lon="-6.693525782157385"><ele>1417.0</ele><time>2026-05-05T13:05:14Z</time></trkpt><trkpt lat="30.784093491993726" lon="-6.693779186988442"><ele>1415.5</ele><time>2026-05-05T13:05:15Z</time></trkpt><trkpt lat="30.784215358076935" lon="-6.6940359226297845"><ele>1414.0</ele><time>2026-05-05T13:05:16Z</time></trkpt><trkpt lat="30.784334564590253" lon="-6.69429182007507"><ele>1413.0</ele><time>2026-05-05T13:05:17Z</time></trkpt><trkpt lat="30.784455332667854" lon="-6.694543390980787"><ele>1412.0</ele><time>2026-05-05T13:05:18Z</time></trkpt><trkpt lat="30.78457723695661" lon="-6.694795833197592"><ele>1412.0</ele><time>2026-05-05T13:05:19Z</time></trkpt><trkpt lat="30.784697249589307" lon="-6.695046225852249"><ele>1412.0</ele><time>2026-05-05T13:05:20Z</time></trkpt><trkpt lat="30.784818756640497" lon="-6.695297168265883"><ele>1410.0</ele><time>2026-05-05T13:05:21Z</time></trkpt><trkpt lat="30.784938278585557" lon="-6.695544217679856"><ele>1408.0</ele><time>2026-05-05T13:05:22Z</time></trkpt><trkpt lat="30.785056434556413" lon="-6.69578904885172"><ele>1408.0</ele><time>2026-05-05T13:05:23Z</time></trkpt><trkpt lat="30.785171784080482" lon="-6.696034208501122"><ele>1408.0</ele><time>2026-05-05T13:05:24Z</time></trkpt><trkpt lat="30.78528672241699" lon="-6.69627767683974"><ele>1406.5</ele><time>2026-05-05T13:05:25Z</time></trkpt><trkpt lat="30.78540180160523" lon="-6.69652166743123"><ele>1405.0</ele><time>2026-05-05T13:05:26Z</time></trkpt><trkpt lat="30.785515981577454" lon="-6.696762425151688"><ele>1405.5</ele><time>2026-05-05T13:05:27Z</time></trkpt><trkpt lat="30.78562656373618" lon="-6.697001912189284"><ele>1406.0</ele><time>2026-05-05T13:05:28Z</time></trkpt><trkpt lat="30.785733732134435" lon="-6.697242337367363"><ele>1406.0</ele><time>2026-05-05T13:05:29Z</time></trkpt><trkpt lat="30.78583562926069" lon="-6.697485890762955"><ele>1406.0</ele><time>2026-05-05T13:05:30Z</time></trkpt><trkpt lat="30.785921146129056" lon="-6.697737347024171"><ele>1405.5</ele><time>2026-05-05T13:05:31Z</time></trkpt><trkpt lat="30.7859833903247" lon="-6.69799704099526"><ele>1405.0</ele><time>2026-05-05T13:05:32Z</time></trkpt><trkpt lat="30.786037912715592" lon="-6.698263926976136"><ele>1403.0</ele><time>2026-05-05T13:05:33Z</time></trkpt><trkpt lat="30.786090646780995" lon="-6.6985380483562205"><ele>1401.0</ele><time>2026-05-05T13:05:34Z</time></trkpt><trkpt lat="30.78614435976862" lon="-6.698816744202043"><ele>1400.0</ele><time>2026-05-05T13:05:35Z</time></trkpt><trkpt lat="30.786199495323316" lon="-6.699095146921068"><ele>1399.0</ele><time>2026-05-05T13:05:36Z</time></trkpt><trkpt lat="30.78625148056071" lon="-6.699369744041275"><ele>1398.5</ele><time>2026-05-05T13:05:37Z</time></trkpt><trkpt lat="30.786303606709303" lon="-6.699642875124342"><ele>1398.0</ele><time>2026-05-05T13:05:38Z</time></trkpt><trkpt lat="30.78635480089125" lon="-6.6999100592627405"><ele>1398.0</ele><time>2026-05-05T13:05:39Z</time></trkpt><trkpt lat="30.786404730075194" lon="-6.700174817870607"><ele>1398.0</ele><time>2026-05-05T13:05:40Z</time></trkpt><trkpt lat="30.78645264987968" lon="-6.700435054627874"><ele>1397.6666666666667</ele><time>2026-05-05T13:05:41Z</time></trkpt><trkpt lat="30.78649764471521" lon="-6.7006896885406295"><ele>1397.3333333333335</ele><time>2026-05-05T13:05:42Z</time></trkpt><trkpt lat="30.78654310686382" lon="-6.7009394308223635"><ele>1397.0</ele><time>2026-05-05T13:05:43Z</time></trkpt><trkpt lat="30.786589122081722" lon="-6.7011935527375135"><ele>1395.5</ele><time>2026-05-05T13:05:44Z</time></trkpt><trkpt lat="30.786636622911175" lon="-6.701450102211636"><ele>1394.0</ele><time>2026-05-05T13:05:45Z</time></trkpt><trkpt lat="30.78669209718837" lon="-6.701705666950468"><ele>1393.0</ele><time>2026-05-05T13:05:46Z</time></trkpt><trkpt lat="30.78675864669288" lon="-6.701960847372079"><ele>1392.0</ele><time>2026-05-05T13:05:47Z</time></trkpt><trkpt lat="30.78683829114862" lon="-6.702208882204751"><ele>1394.5</ele><time>2026-05-05T13:05:48Z</time></trkpt><trkpt lat="30.786925049917734" lon="-6.70245197218022"><ele>1397.0</ele><time>2026-05-05T13:05:49Z</time></trkpt><trkpt lat="30.787016137995273" lon="-6.702692925534842"><ele>1395.0</ele><time>2026-05-05T13:05:50Z</time></trkpt><trkpt lat="30.787107143469044" lon="-6.702933744554221"><ele>1393.0</ele><time>2026-05-05T13:05:51Z</time></trkpt><trkpt lat="30.78719594424922" lon="-6.703176916292239"><ele>1393.0</ele><time>2026-05-05T13:05:52Z</time></trkpt><trkpt lat="30.78728715017271" lon="-6.703418075104436"><ele>1393.0</ele><time>2026-05-05T13:05:53Z</time></trkpt><trkpt lat="30.78737976903763" lon="-6.703658160364614"><ele>1391.5</ele><time>2026-05-05T13:05:54Z</time></trkpt><trkpt lat="30.78747112046189" lon="-6.703899519486919"><ele>1390.0</ele><time>2026-05-05T13:05:55Z</time></trkpt><trkpt lat="30.78756230784817" lon="-6.704143252703553"><ele>1390.0</ele><time>2026-05-05T13:05:56Z</time></trkpt><trkpt lat="30.78765430100457" lon="-6.704384915561723"><ele>1390.0</ele><time>2026-05-05T13:05:57Z</time></trkpt><trkpt lat="30.787745379864873" lon="-6.70462748916747"><ele>1390.0</ele><time>2026-05-05T13:05:58Z</time></trkpt><trkpt lat="30.787835008066587" lon="-6.704870688896293"><ele>1390.0</ele><time>2026-05-05T13:05:59Z</time></trkpt><trkpt lat="30.78792029284721" lon="-6.705115768489002"><ele>1389.3333333333333</ele><time>2026-05-05T13:06:00Z</time></trkpt><trkpt lat="30.78800795946342" lon="-6.705352912411695"><ele>1388.6666666666667</ele><time>2026-05-05T13:06:01Z</time></trkpt><trkpt lat="30.788097147065088" lon="-6.705587563570389"><ele>1388.0</ele><time>2026-05-05T13:06:02Z</time></trkpt><trkpt lat="30.78818674775599" lon="-6.705823329058055"><ele>1388.0</ele><time>2026-05-05T13:06:03Z</time></trkpt><trkpt lat="30.78827878988381" lon="-6.706059354623154"><ele>1388.0</ele><time>2026-05-05T13:06:04Z</time></trkpt><trkpt lat="30.78836749819326" lon="-6.7062959666278"><ele>1388.0</ele><time>2026-05-05T13:06:05Z</time></trkpt><trkpt lat="30.78845607789307" lon="-6.7065331767855625"><ele>1386.6666666666667</ele><time>2026-05-05T13:06:06Z</time></trkpt><trkpt lat="30.78854646502924" lon="-6.706771742868167"><ele>1385.3333333333333</ele><time>2026-05-05T13:06:07Z</time></trkpt><trkpt lat="30.788635806461265" lon="-6.707010706304879"><ele>1384.0</ele><time>2026-05-05T13:06:08Z</time></trkpt><trkpt lat="30.788716914305333" lon="-6.707252866546325"><ele>1384.0</ele><time>2026-05-05T13:06:09Z</time></trkpt><trkpt lat="30.78879334693055" lon="-6.707499920975618"><ele>1384.0</ele><time>2026-05-05T13:06:10Z</time></trkpt><trkpt lat="30.788866270124064" lon="-6.707749742908709"><ele>1386.0</ele><time>2026-05-05T13:06:11Z</time></trkpt><trkpt lat="30.788936958523372" lon="-6.708001641427187"><ele>1388.0</ele><time>2026-05-05T13:06:12Z</time></trkpt><trkpt lat="30.789004086224214" lon="-6.708256027170088"><ele>1388.0</ele><time>2026-05-05T13:06:13Z</time></trkpt><trkpt lat="30.78906814964535" lon="-6.708511412266491"><ele>1388.0</ele><time>2026-05-05T13:06:14Z</time></trkpt><trkpt lat="30.789134175426856" lon="-6.70876455072961"><ele>1388.6666666666667</ele><time>2026-05-05T13:06:15Z</time></trkpt><trkpt lat="30.789202139920963" lon="-6.709015704847321"><ele>1389.3333333333333</ele><time>2026-05-05T13:06:16Z</time></trkpt><trkpt lat="30.789268166929283" lon="-6.709261268554055"><ele>1390.0</ele><time>2026-05-05T13:06:17Z</time></trkpt><trkpt lat="30.789333226270248" lon="-6.709507930992794"><ele>1386.5</ele><time>2026-05-05T13:06:18Z</time></trkpt><trkpt lat="30.78940305226442" lon="-6.709761103750094"><ele>1383.0</ele><time>2026-05-05T13:06:19Z</time></trkpt><trkpt lat="30.789472695379725" lon="-6.710023004789381"><ele>1380.0</ele><time>2026-05-05T13:06:20Z</time></trkpt><trkpt lat="30.789542961106598" lon="-6.710290796447291"><ele>1377.0</ele><time>2026-05-05T13:06:21Z</time></trkpt><trkpt lat="30.78961281266164" lon="-6.710560334697589"><ele>1377.0</ele><time>2026-05-05T13:06:22Z</time></trkpt><trkpt lat="30.789682971058987" lon="-6.710829010577396"><ele>1377.0</ele><time>2026-05-05T13:06:23Z</time></trkpt><trkpt lat="30.789752552396045" lon="-6.711093061964394"><ele>1375.5</ele><time>2026-05-05T13:06:24Z</time></trkpt><trkpt lat="30.789821628650035" lon="-6.711354569864315"><ele>1374.0</ele><time>2026-05-05T13:06:25Z</time></trkpt><trkpt lat="30.789890948081702" lon="-6.711612739503192"><ele>1374.0</ele><time>2026-05-05T13:06:26Z</time></trkpt><trkpt lat="30.78995963333195" lon="-6.711867999013352"><ele>1374.0</ele><time>2026-05-05T13:06:27Z</time></trkpt><trkpt lat="30.790028526054677" lon="-6.71212683299609"><ele>1373.0</ele><time>2026-05-05T13:06:28Z</time></trkpt><trkpt lat="30.790097125643616" lon="-6.7123861417745285"><ele>1372.0</ele><time>2026-05-05T13:06:29Z</time></trkpt><trkpt lat="30.790163037387497" lon="-6.712642128799922"><ele>1372.5</ele><time>2026-05-05T13:06:30Z</time></trkpt><trkpt lat="30.790222602323745" lon="-6.712897980795669"><ele>1373.0</ele><time>2026-05-05T13:06:31Z</time></trkpt><trkpt lat="30.790269590551016" lon="-6.713154998042957"><ele>1373.0</ele><time>2026-05-05T13:06:32Z</time></trkpt><trkpt lat="30.790303967474426" lon="-6.71341030206146"><ele>1373.0</ele><time>2026-05-05T13:06:33Z</time></trkpt><trkpt lat="30.790316356115984" lon="-6.713668884491867"><ele>1373.0</ele><time>2026-05-05T13:06:34Z</time></trkpt><trkpt lat="30.790310341719856" lon="-6.713926037291061"><ele>1376.6666666666667</ele><time>2026-05-05T13:06:35Z</time></trkpt><trkpt lat="30.790285967312954" lon="-6.71418089380566"><ele>1380.3333333333333</ele><time>2026-05-05T13:06:36Z</time></trkpt><trkpt lat="30.79024397174301" lon="-6.714431753960925"><ele>1384.0</ele><time>2026-05-05T13:06:37Z</time></trkpt><trkpt lat="30.790181696856727" lon="-6.714676118392668"><ele>1384.0</ele><time>2026-05-05T13:06:38Z</time></trkpt><trkpt lat="30.79010276160954" lon="-6.714914546505893"><ele>1384.0</ele><time>2026-05-05T13:06:39Z</time></trkpt><trkpt lat="30.790007960172026" lon="-6.715143678854933"><ele>1384.0</ele><time>2026-05-05T13:06:40Z</time></trkpt><trkpt lat="30.78989578156582" lon="-6.7153596889294125"><ele>1384.0</ele><time>2026-05-05T13:06:41Z</time></trkpt><trkpt lat="30.789769079675143" lon="-6.715568695426447"><ele>1384.0</ele><time>2026-05-05T13:06:42Z</time></trkpt><trkpt lat="30.789639224750477" lon="-6.715773929970006"><ele>1384.0</ele><time>2026-05-05T13:06:43Z</time></trkpt><trkpt lat="30.789509216305408" lon="-6.7159772437474246"><ele>1383.0</ele><time>2026-05-05T13:06:44Z</time></trkpt><trkpt lat="30.789378095619046" lon="-6.716173391981038"><ele>1382.0</ele><time>2026-05-05T13:06:45Z</time></trkpt><trkpt lat="30.789264887815044" lon="-6.7163764635463234"><ele>1381.0</ele><time>2026-05-05T13:06:46Z</time></trkpt><trkpt lat="30.78917717324826" lon="-6.7165885208816105"><ele>1378.6666666666665</ele><time>2026-05-05T13:06:47Z</time></trkpt><trkpt lat="30.789104154221782" lon="-6.716810916258962"><ele>1376.3333333333333</ele><time>2026-05-05T13:06:48Z</time></trkpt><trkpt lat="30.78904802474499" lon="-6.717041102856334"><ele>1374.0</ele><time>2026-05-05T13:06:49Z</time></trkpt><trkpt lat="30.789009825565167" lon="-6.71727615348524"><ele>1373.3333333333333</ele><time>2026-05-05T13:06:50Z</time></trkpt><trkpt lat="30.78898973257442" lon="-6.7175154152256695"><ele>1372.6666666666665</ele><time>2026-05-05T13:06:51Z</time></trkpt><trkpt lat="30.788985145545592" lon="-6.7177586299580225"><ele>1372.0</ele><time>2026-05-05T13:06:52Z</time></trkpt><trkpt lat="30.78900104201285" lon="-6.718005538780506"><ele>1369.6666666666665</ele><time>2026-05-05T13:06:53Z</time></trkpt><trkpt lat="30.789039722209655" lon="-6.718248093142764"><ele>1367.3333333333333</ele><time>2026-05-05T13:06:54Z</time></trkpt><trkpt lat="30.789100605177385" lon="-6.71848867609892"><ele>1365.0</ele><time>2026-05-05T13:06:55Z</time></trkpt><trkpt lat="30.789178197466136" lon="-6.718722562157557"><ele>1362.6666666666667</ele><time>2026-05-05T13:06:56Z</time></trkpt><trkpt lat="30.78927653258953" lon="-6.7189493124740265"><ele>1360.3333333333335</ele><time>2026-05-05T13:06:57Z</time></trkpt><trkpt lat="30.78939554786815" lon="-6.719167380601216"><ele>1358.0</ele><time>2026-05-05T13:06:58Z</time></trkpt><trkpt lat="30.789534612338265" lon="-6.719375361412807"><ele>1356.0</ele><time>2026-05-05T13:06:59Z</time></trkpt><trkpt lat="30.789690931297404" lon="-6.719569515697846"><ele>1354.0</ele><time>2026-05-05T13:07:00Z</time></trkpt><trkpt lat="30.78986050386886" lon="-6.719746996352187"><ele>1354.0</ele><time>2026-05-05T13:07:01Z</time></trkpt><trkpt lat="30.79004862730195" lon="-6.71990324140951"><ele>1354.0</ele><time>2026-05-05T13:07:02Z</time></trkpt><trkpt lat="30.79024773957101" lon="-6.720040271129285"><ele>1353.0</ele><time>2026-05-05T13:07:03Z</time></trkpt><trkpt lat="30.79044769506737" lon="-6.720173506105162"><ele>1352.0</ele><time>2026-05-05T13:07:04Z</time></trkpt><trkpt lat="30.79064524475222" lon="-6.720309603508704"><ele>1350.5</ele><time>2026-05-05T13:07:05Z</time></trkpt><trkpt lat="30.790841306647238" lon="-6.720448957444408"><ele>1349.0</ele><time>2026-05-05T13:07:06Z</time></trkpt><trkpt lat="30.791036092115665" lon="-6.7205891061817855"><ele>1349.0</ele><time>2026-05-05T13:07:07Z</time></trkpt><trkpt lat="30.791232267813587" lon="-6.720724287987336"><ele>1349.0</ele><time>2026-05-05T13:07:08Z</time></trkpt><trkpt lat="30.791426828085136" lon="-6.720861156553398"><ele>1349.0</ele><time>2026-05-05T13:07:09Z</time></trkpt><trkpt lat="30.7916126659439" lon="-6.721011299037538"><ele>1349.0</ele><time>2026-05-05T13:07:10Z</time></trkpt><trkpt lat="30.79178904919266" lon="-6.721177608837943"><ele>1348.0</ele><time>2026-05-05T13:07:11Z</time></trkpt><trkpt lat="30.791956257186303" lon="-6.721358582857174"><ele>1347.0</ele><time>2026-05-05T13:07:12Z</time></trkpt><trkpt lat="30.792120023294952" lon="-6.721540202027478"><ele>1347.0</ele><time>2026-05-05T13:07:13Z</time></trkpt><trkpt lat="30.792282932771254" lon="-6.721716635278403"><ele>1347.0</ele><time>2026-05-05T13:07:14Z</time></trkpt><trkpt lat="30.79244831709244" lon="-6.72188686016048"><ele>1347.0</ele><time>2026-05-05T13:07:15Z</time></trkpt><trkpt lat="30.79262082351237" lon="-6.72204298030573"><ele>1345.3333333333333</ele><time>2026-05-05T13:07:16Z</time></trkpt><trkpt lat="30.792802671847188" lon="-6.72217954815069"><ele>1343.6666666666665</ele><time>2026-05-05T13:07:17Z</time></trkpt><trkpt lat="30.792996168899165" lon="-6.7222961354839015"><ele>1342.0</ele><time>2026-05-05T13:07:18Z</time></trkpt><trkpt lat="30.793198167219042" lon="-6.72239895476334"><ele>1342.0</ele><time>2026-05-05T13:07:19Z</time></trkpt><trkpt lat="30.793407708877133" lon="-6.722489600831491"><ele>1342.0</ele><time>2026-05-05T13:07:20Z</time></trkpt><trkpt lat="30.7936200357989" lon="-6.722571884324021"><ele>1342.0</ele><time>2026-05-05T13:07:21Z</time></trkpt><trkpt lat="30.79382100265762" lon="-6.722664909739022"><ele>1341.3333333333333</ele><time>2026-05-05T13:07:22Z</time></trkpt><trkpt lat="30.794019185292086" lon="-6.722770677098305"><ele>1340.6666666666667</ele><time>2026-05-05T13:07:23Z</time></trkpt><trkpt lat="30.794214583440922" lon="-6.722886130524886"><ele>1340.0</ele><time>2026-05-05T13:07:24Z</time></trkpt><trkpt lat="30.794405797004366" lon="-6.723013158226623"><ele>1338.5</ele><time>2026-05-05T13:07:25Z</time></trkpt><trkpt lat="30.79462729945803" lon="-6.723087374717113"><ele>1337.0</ele><time>2026-05-05T13:07:26Z</time></trkpt><trkpt lat="30.794810975582724" lon="-6.723232657572993"><ele>1337.0</ele><time>2026-05-05T13:07:27Z</time></trkpt><trkpt lat="30.794997351845463" lon="-6.723366555124169"><ele>1337.0</ele><time>2026-05-05T13:07:28Z</time></trkpt><trkpt lat="30.79517685411937" lon="-6.723500872886047"><ele>1337.0</ele><time>2026-05-05T13:07:29Z</time></trkpt><trkpt lat="30.795358413265344" lon="-6.723627464763917"><ele>1337.3333333333335</ele><time>2026-05-05T13:07:30Z</time></trkpt><trkpt lat="30.795537600437967" lon="-6.723753903453092"><ele>1337.6666666666667</ele><time>2026-05-05T13:07:31Z</time></trkpt><trkpt lat="30.795718801319335" lon="-6.723874860342781"><ele>1338.0</ele><time>2026-05-05T13:07:32Z</time></trkpt><trkpt lat="30.795887357008926" lon="-6.724004767271419"><ele>1338.0</ele><time>2026-05-05T13:07:33Z</time></trkpt><trkpt lat="30.796054127083337" lon="-6.724128638637639"><ele>1338.0</ele><time>2026-05-05T13:07:34Z</time></trkpt><trkpt lat="30.79622098560266" lon="-6.724273673074981"><ele>1338.0</ele><time>2026-05-05T13:07:35Z</time></trkpt><trkpt lat="30.79638118575643" lon="-6.724420068618371"><ele>1336.3333333333333</ele><time>2026-05-05T13:07:36Z</time></trkpt><trkpt lat="30.796533060860487" lon="-6.7245768576826235"><ele>1334.6666666666665</ele><time>2026-05-05T13:07:37Z</time></trkpt><trkpt lat="30.796671414973893" lon="-6.724746519463704"><ele>1333.0</ele><time>2026-05-05T13:07:38Z</time></trkpt><trkpt lat="30.7967956835773" lon="-6.72494330982819"><ele>1333.3333333333333</ele><time>2026-05-05T13:07:39Z</time></trkpt><trkpt lat="30.7969157084315" lon="-6.725131820482642"><ele>1333.6666666666667</ele><time>2026-05-05T13:07:40Z</time></trkpt><trkpt lat="30.79702359260631" lon="-6.725331965644414"><ele>1334.0</ele><time>2026-05-05T13:07:41Z</time></trkpt><trkpt lat="30.797110440858596" lon="-6.725545560003662"><ele>1332.6666666666667</ele><time>2026-05-05T13:07:42Z</time></trkpt><trkpt lat="30.797165455801128" lon="-6.725768590351055"><ele>1331.3333333333333</ele><time>2026-05-05T13:07:43Z</time></trkpt><trkpt lat="30.797203567731934" lon="-6.726002181359142"><ele>1330.0</ele><time>2026-05-05T13:07:44Z</time></trkpt><trkpt lat="30.797229364943863" lon="-6.726231006552174"><ele>1330.0</ele><time>2026-05-05T13:07:45Z</time></trkpt><trkpt lat="30.797243675783278" lon="-6.726467807975995"><ele>1330.0</ele><time>2026-05-05T13:07:46Z</time></trkpt><trkpt lat="30.797257889084626" lon="-6.726700714813131"><ele>1330.0</ele><time>2026-05-05T13:07:47Z</time></trkpt><trkpt lat="30.797272273262926" lon="-6.726937076850189"><ele>1330.0</ele><time>2026-05-05T13:07:48Z</time></trkpt><trkpt lat="30.797280720649933" lon="-6.727195625394751"><ele>1330.0</ele><time>2026-05-05T13:07:49Z</time></trkpt><trkpt lat="30.797294114722988" lon="-6.727424376287299"><ele>1330.0</ele><time>2026-05-05T13:07:50Z</time></trkpt><trkpt lat="30.797305286219945" lon="-6.727650236103097"><ele>1332.0</ele><time>2026-05-05T13:07:51Z</time></trkpt><trkpt lat="30.79731210364343" lon="-6.727876209421972"><ele>1334.0</ele><time>2026-05-05T13:07:52Z</time></trkpt><trkpt lat="30.797317311640207" lon="-6.728107132400995"><ele>1336.0</ele><time>2026-05-05T13:07:53Z</time></trkpt><trkpt lat="30.797323549658817" lon="-6.728344613836573"><ele>1336.6666666666665</ele><time>2026-05-05T13:07:54Z</time></trkpt><trkpt lat="30.79733323167675" lon="-6.728586570501375"><ele>1337.3333333333333</ele><time>2026-05-05T13:07:55Z</time></trkpt><trkpt lat="30.79734309548964" lon="-6.728831360706873"><ele>1338.0</ele><time>2026-05-05T13:07:56Z</time></trkpt><trkpt lat="30.797354043866864" lon="-6.729073496158308"><ele>1338.0</ele><time>2026-05-05T13:07:57Z</time></trkpt><trkpt lat="30.797366285768664" lon="-6.729315927064304"><ele>1338.0</ele><time>2026-05-05T13:07:58Z</time></trkpt><trkpt lat="30.797374310853634" lon="-6.72955994853426"><ele>1338.0</ele><time>2026-05-05T13:07:59Z</time></trkpt><trkpt lat="30.797384234292053" lon="-6.729805114529425"><ele>1336.6666666666667</ele><time>2026-05-05T13:08:00Z</time></trkpt><trkpt lat="30.797403060345857" lon="-6.730051123959052"><ele>1335.3333333333335</ele><time>2026-05-05T13:08:01Z</time></trkpt><trkpt lat="30.79743399701536" lon="-6.730302161445353"><ele>1334.0</ele><time>2026-05-05T13:08:02Z</time></trkpt><trkpt lat="30.7974760070029" lon="-6.730556628792286"><ele>1334.0</ele><time>2026-05-05T13:08:03Z</time></trkpt><trkpt lat="30.79752264767961" lon="-6.730814050531065"><ele>1334.0</ele><time>2026-05-05T13:08:04Z</time></trkpt><trkpt lat="30.797578230726604" lon="-6.731071915938972"><ele>1333.0</ele><time>2026-05-05T13:08:05Z</time></trkpt><trkpt lat="30.79764120015972" lon="-6.731330064022174"><ele>1332.0</ele><time>2026-05-05T13:08:06Z</time></trkpt><trkpt lat="30.7977033075954" lon="-6.73159245455713"><ele>1331.5</ele><time>2026-05-05T13:08:07Z</time></trkpt><trkpt lat="30.797761408061838" lon="-6.731861336550803"><ele>1331.0</ele><time>2026-05-05T13:08:08Z</time></trkpt><trkpt lat="30.797821166157128" lon="-6.732134689762918"><ele>1327.5</ele><time>2026-05-05T13:08:09Z</time></trkpt><trkpt lat="30.79788586527767" lon="-6.7324054451125095"><ele>1324.0</ele><time>2026-05-05T13:08:10Z</time></trkpt><trkpt lat="30.797951618106325" lon="-6.732678432749698"><ele>1322.0</ele><time>2026-05-05T13:08:11Z</time></trkpt><trkpt lat="30.798015871956164" lon="-6.732954971853798"><ele>1320.0</ele><time>2026-05-05T13:08:12Z</time></trkpt><trkpt lat="30.798079828416846" lon="-6.7332307669641445"><ele>1320.0</ele><time>2026-05-05T13:08:13Z</time></trkpt><trkpt lat="30.798143899158873" lon="-6.733506832927742"><ele>1320.0</ele><time>2026-05-05T13:08:14Z</time></trkpt><trkpt lat="30.798206537854632" lon="-6.7337806053372535"><ele>1321.5</ele><time>2026-05-05T13:08:15Z</time></trkpt><trkpt lat="30.79826943304925" lon="-6.734047627942329"><ele>1323.0</ele><time>2026-05-05T13:08:16Z</time></trkpt><trkpt lat="30.798329902433437" lon="-6.734311199360675"><ele>1326.5</ele><time>2026-05-05T13:08:17Z</time></trkpt><trkpt lat="30.798390296429865" lon="-6.73457200497535"><ele>1330.0</ele><time>2026-05-05T13:08:18Z</time></trkpt><trkpt lat="30.7984479388063" lon="-6.734823897925974"><ele>1329.0</ele><time>2026-05-05T13:08:19Z</time></trkpt><trkpt lat="30.798501796680437" lon="-6.735055433580115"><ele>1328.0</ele><time>2026-05-05T13:08:20Z</time></trkpt><trkpt lat="30.79854839096854" lon="-6.735271107920884"><ele>1327.0</ele><time>2026-05-05T13:08:21Z</time></trkpt><trkpt lat="30.798595116692276" lon="-6.735483292768999"><ele>1327.0</ele><time>2026-05-05T13:08:22Z</time></trkpt><trkpt lat="30.798641075797082" lon="-6.735699424281161"><ele>1327.0</ele><time>2026-05-05T13:08:23Z</time></trkpt><trkpt lat="30.79868582460956" lon="-6.735917795901191"><ele>1327.0</ele><time>2026-05-05T13:08:24Z</time></trkpt><trkpt lat="30.79873259065021" lon="-6.73612268222216"><ele>1327.6666666666665</ele><time>2026-05-05T13:08:25Z</time></trkpt><trkpt lat="30.798777830187777" lon="-6.736315032523931"><ele>1328.3333333333333</ele><time>2026-05-05T13:08:26Z</time></trkpt><trkpt lat="30.798823364178684" lon="-6.7365077983320045"><ele>1329.0</ele><time>2026-05-05T13:08:27Z</time></trkpt><trkpt lat="30.79886740530355" lon="-6.736701919196618"><ele>1329.6666666666667</ele><time>2026-05-05T13:08:28Z</time></trkpt><trkpt lat="30.798908342350657" lon="-6.736899119889727"><ele>1330.3333333333335</ele><time>2026-05-05T13:08:29Z</time></trkpt><trkpt lat="30.79895329767011" lon="-6.737093440904535"><ele>1331.0</ele><time>2026-05-05T13:08:30Z</time></trkpt><trkpt lat="30.799003215657013" lon="-6.73728534114309"><ele>1331.0</ele><time>2026-05-05T13:08:31Z</time></trkpt><trkpt lat="30.799053789232406" lon="-6.737475095956452"><ele>1331.0</ele><time>2026-05-05T13:08:32Z</time></trkpt><trkpt lat="30.79910680509679" lon="-6.737657659842223"><ele>1331.0</ele><time>2026-05-05T13:08:33Z</time></trkpt><trkpt lat="30.799163433853387" lon="-6.737829336796357"><ele>1330.3333333333335</ele><time>2026-05-05T13:08:34Z</time></trkpt><trkpt lat="30.799224924533117" lon="-6.738004704032897"><ele>1329.6666666666667</ele><time>2026-05-05T13:08:35Z</time></trkpt><trkpt lat="30.799281851745928" lon="-6.7381877262447"><ele>1329.0</ele><time>2026-05-05T13:08:36Z</time></trkpt><trkpt lat="30.799344203929216" lon="-6.738373199100813"><ele>1326.6666666666667</ele><time>2026-05-05T13:08:37Z</time></trkpt><trkpt lat="30.79940280702693" lon="-6.738567220697474"><ele>1324.3333333333335</ele><time>2026-05-05T13:08:38Z</time></trkpt><trkpt lat="30.799442979046706" lon="-6.738760552822056"><ele>1322.0</ele><time>2026-05-05T13:08:39Z</time></trkpt><trkpt lat="30.799462174213627" lon="-6.738955830000501"><ele>1322.0</ele><time>2026-05-05T13:08:40Z</time></trkpt><trkpt lat="30.7994619749032" lon="-6.739165519046271"><ele>1322.0</ele><time>2026-05-05T13:08:41Z</time></trkpt><trkpt lat="30.79944428223328" lon="-6.739382714647657"><ele>1322.0</ele><time>2026-05-05T13:08:42Z</time></trkpt><trkpt lat="30.799406705779948" lon="-6.739602112577383"><ele>1321.0</ele><time>2026-05-05T13:08:43Z</time></trkpt><trkpt lat="30.79936331668056" lon="-6.739822923325237"><ele>1320.0</ele><time>2026-05-05T13:08:44Z</time></trkpt><trkpt lat="30.7993249177558" lon="-6.74004125362582"><ele>1319.0</ele><time>2026-05-05T13:08:45Z</time></trkpt><trkpt lat="30.799290151187474" lon="-6.740248164374239"><ele>1319.0</ele><time>2026-05-05T13:08:46Z</time></trkpt><trkpt lat="30.799258896101147" lon="-6.740447755887866"><ele>1319.0</ele><time>2026-05-05T13:08:47Z</time></trkpt><trkpt lat="30.799226849273992" lon="-6.740644686156676"><ele>1319.0</ele><time>2026-05-05T13:08:48Z</time></trkpt><trkpt lat="30.799194530339154" lon="-6.740845997017208"><ele>1319.0</ele><time>2026-05-05T13:08:49Z</time></trkpt><trkpt lat="30.799163786825297" lon="-6.741048567402212"><ele>1319.0</ele><time>2026-05-05T13:08:50Z</time></trkpt><trkpt lat="30.799130833171724" lon="-6.741259089927383"><ele>1319.0</ele><time>2026-05-05T13:08:51Z</time></trkpt><trkpt lat="30.799095746954453" lon="-6.741470758445165"><ele>1319.0</ele><time>2026-05-05T13:08:52Z</time></trkpt><trkpt lat="30.799061669928662" lon="-6.741678655694718"><ele>1319.0</ele><time>2026-05-05T13:08:53Z</time></trkpt><trkpt lat="30.79902556644809" lon="-6.741888424429681"><ele>1319.0</ele><time>2026-05-05T13:08:54Z</time></trkpt><trkpt lat="30.79899160407436" lon="-6.742094434684928"><ele>1321.3333333333335</ele><time>2026-05-05T13:08:55Z</time></trkpt><trkpt lat="30.798962542793706" lon="-6.742303190555732"><ele>1323.6666666666667</ele><time>2026-05-05T13:08:56Z</time></trkpt><trkpt lat="30.79894341445117" lon="-6.742511024806899"><ele>1326.0</ele><time>2026-05-05T13:08:57Z</time></trkpt><trkpt lat="30.798938568999187" lon="-6.742722548442066"><ele>1328.0</ele><time>2026-05-05T13:08:58Z</time></trkpt><trkpt lat="30.798952274529256" lon="-6.742945212924003"><ele>1330.0</ele><time>2026-05-05T13:08:59Z</time></trkpt><trkpt lat="30.79897659122011" lon="-6.743178939655254"><ele>1332.0</ele><time>2026-05-05T13:09:00Z</time></trkpt><trkpt lat="30.799006944851463" lon="-6.7434203579091045"><ele>1334.0</ele><time>2026-05-05T13:09:01Z</time></trkpt><trkpt lat="30.799030311237775" lon="-6.743667132458101"><ele>1336.0</ele><time>2026-05-05T13:09:02Z</time></trkpt><trkpt lat="30.79905603765227" lon="-6.743921993130803"><ele>1338.0</ele><time>2026-05-05T13:09:03Z</time></trkpt><trkpt lat="30.7990841832778" lon="-6.744185183034742"><ele>1340.0</ele><time>2026-05-05T13:09:04Z</time></trkpt><trkpt lat="30.799118823231872" lon="-6.744453065252556"><ele>1342.0</ele><time>2026-05-05T13:09:05Z</time></trkpt><trkpt lat="30.799162162619545" lon="-6.744720274594302"><ele>1342.0</ele><time>2026-05-05T13:09:06Z</time></trkpt><trkpt lat="30.79921151289178" lon="-6.744978774808011"><ele>1342.0</ele><time>2026-05-05T13:09:07Z</time></trkpt><trkpt lat="30.799271045014986" lon="-6.745227540606535"><ele>1342.0</ele><time>2026-05-05T13:09:08Z</time></trkpt><trkpt lat="30.79934583258967" lon="-6.7454689179415315"><ele>1340.3333333333333</ele><time>2026-05-05T13:09:09Z</time></trkpt><trkpt lat="30.799431408160512" lon="-6.74570171167588"><ele>1338.6666666666667</ele><time>2026-05-05T13:09:10Z</time></trkpt><trkpt lat="30.799528518435103" lon="-6.745917899816298"><ele>1337.0</ele><time>2026-05-05T13:09:11Z</time></trkpt><trkpt lat="30.799633865364953" lon="-6.746117119678476"><ele>1337.0</ele><time>2026-05-05T13:09:12Z</time></trkpt><trkpt lat="30.79974660044592" lon="-6.746304122313285"><ele>1337.0</ele><time>2026-05-05T13:09:13Z</time></trkpt><trkpt lat="30.799868649674316" lon="-6.746479103543524"><ele>1337.0</ele><time>2026-05-05T13:09:14Z</time></trkpt><trkpt lat="30.800001255875653" lon="-6.746655111207448"><ele>1337.0</ele><time>2026-05-05T13:09:15Z</time></trkpt><trkpt lat="30.80014636555508" lon="-6.746827276201516"><ele>1337.0</ele><time>2026-05-05T13:09:16Z</time></trkpt><trkpt lat="30.80030439587523" lon="-6.7469854292782"><ele>1337.0</ele><time>2026-05-05T13:09:17Z</time></trkpt><trkpt lat="30.800472609863583" lon="-6.747133619057421"><ele>1334.6666666666667</ele><time>2026-05-05T13:09:18Z</time></trkpt><trkpt lat="30.80064872154018" lon="-6.747274365059538"><ele>1332.3333333333333</ele><time>2026-05-05T13:09:19Z</time></trkpt><trkpt lat="30.80083568340953" lon="-6.747400645886343"><ele>1330.0</ele><time>2026-05-05T13:09:20Z</time></trkpt><trkpt lat="30.80103417139322" lon="-6.747510572868145"><ele>1328.6666666666665</ele><time>2026-05-05T13:09:21Z</time></trkpt><trkpt lat="30.80124106313129" lon="-6.747610211910199"><ele>1327.3333333333333</ele><time>2026-05-05T13:09:22Z</time></trkpt><trkpt lat="30.801451575699332" lon="-6.747701631438155"><ele>1326.0</ele><time>2026-05-05T13:09:23Z</time></trkpt><trkpt lat="30.80166672488814" lon="-6.74778396481106"><ele>1324.0</ele><time>2026-05-05T13:09:24Z</time></trkpt><trkpt lat="30.8018844039767" lon="-6.747865457270842"><ele>1322.0</ele><time>2026-05-05T13:09:25Z</time></trkpt><trkpt lat="30.802099543918573" lon="-6.747950925165544"><ele>1322.0</ele><time>2026-05-05T13:09:26Z</time></trkpt><trkpt lat="30.802312878755483" lon="-6.748042244405724"><ele>1322.0</ele><time>2026-05-05T13:09:27Z</time></trkpt><trkpt lat="30.802525074946566" lon="-6.74813133129248"><ele>1323.6666666666667</ele><time>2026-05-05T13:09:28Z</time></trkpt><trkpt lat="30.802732548908434" lon="-6.748225959044802"><ele>1325.3333333333333</ele><time>2026-05-05T13:09:29Z</time></trkpt><trkpt lat="30.802935389584064" lon="-6.748335220084298"><ele>1327.0</ele><time>2026-05-05T13:09:30Z</time></trkpt><trkpt lat="30.803129083982935" lon="-6.7484667936118"><ele>1327.0</ele><time>2026-05-05T13:09:31Z</time></trkpt><trkpt lat="30.803315349659243" lon="-6.748614871866233"><ele>1327.0</ele><time>2026-05-05T13:09:32Z</time></trkpt><trkpt lat="30.803498003016134" lon="-6.748769005249599"><ele>1325.0</ele><time>2026-05-05T13:09:33Z</time></trkpt><trkpt lat="30.803680720825902" lon="-6.7489267632846435"><ele>1323.0</ele><time>2026-05-05T13:09:34Z</time></trkpt><trkpt lat="30.80385769799859" lon="-6.74908445717935"><ele>1323.0</ele><time>2026-05-05T13:09:35Z</time></trkpt><trkpt lat="30.80403150339075" lon="-6.749245442519514"><ele>1323.0</ele><time>2026-05-05T13:09:36Z</time></trkpt><trkpt lat="30.804205636124514" lon="-6.749407656425459"><ele>1323.0</ele><time>2026-05-05T13:09:37Z</time></trkpt><trkpt lat="30.804382733196025" lon="-6.749565931220256"><ele>1322.6666666666667</ele><time>2026-05-05T13:09:38Z</time></trkpt><trkpt lat="30.80455738265571" lon="-6.7497210906903655"><ele>1322.3333333333335</ele><time>2026-05-05T13:09:39Z</time></trkpt><trkpt lat="30.804735869376035" lon="-6.749880752683836"><ele>1322.0</ele><time>2026-05-05T13:09:40Z</time></trkpt><trkpt lat="30.80491438882974" lon="-6.750040197534946"><ele>1322.0</ele><time>2026-05-05T13:09:41Z</time></trkpt><trkpt lat="30.805093996881983" lon="-6.750201674311392"><ele>1322.0</ele><time>2026-05-05T13:09:42Z</time></trkpt><trkpt lat="30.805275506996114" lon="-6.750366749838225"><ele>1320.0</ele><time>2026-05-05T13:09:43Z</time></trkpt><trkpt lat="30.805457638530484" lon="-6.750531155727428"><ele>1318.0</ele><time>2026-05-05T13:09:44Z</time></trkpt><trkpt lat="30.805644568823585" lon="-6.750695954362264"><ele>1318.0</ele><time>2026-05-05T13:09:45Z</time></trkpt><trkpt lat="30.805833502083193" lon="-6.750857841826367"><ele>1318.0</ele><time>2026-05-05T13:09:46Z</time></trkpt><trkpt lat="30.80602012609008" lon="-6.7510212730826336"><ele>1316.5</ele><time>2026-05-05T13:09:47Z</time></trkpt><trkpt lat="30.806207037546855" lon="-6.751189577606097"><ele>1315.0</ele><time>2026-05-05T13:09:48Z</time></trkpt><trkpt lat="30.806390459502456" lon="-6.751357585379991"><ele>1315.0</ele><time>2026-05-05T13:09:49Z</time></trkpt><trkpt lat="30.80657459541214" lon="-6.751524491531706"><ele>1315.0</ele><time>2026-05-05T13:09:50Z</time></trkpt><trkpt lat="30.806758100569372" lon="-6.751691728037918"><ele>1316.0</ele><time>2026-05-05T13:09:51Z</time></trkpt><trkpt lat="30.80693495903554" lon="-6.751866472322355"><ele>1317.0</ele><time>2026-05-05T13:09:52Z</time></trkpt><trkpt lat="30.807102609950743" lon="-6.752055853746302"><ele>1318.5</ele><time>2026-05-05T13:09:53Z</time></trkpt><trkpt lat="30.807260466540303" lon="-6.752254260637468"><ele>1320.0</ele><time>2026-05-05T13:09:54Z</time></trkpt><trkpt lat="30.807411361641307" lon="-6.752460195879456"><ele>1320.0</ele><time>2026-05-05T13:09:55Z</time></trkpt><trkpt lat="30.807556551827705" lon="-6.752671496424676"><ele>1320.0</ele><time>2026-05-05T13:09:56Z</time></trkpt><trkpt lat="30.807700485465165" lon="-6.752883266651753"><ele>1321.3333333333333</ele><time>2026-05-05T13:09:57Z</time></trkpt><trkpt lat="30.807838863761077" lon="-6.753084211938942"><ele>1322.6666666666665</ele><time>2026-05-05T13:09:58Z</time></trkpt><trkpt lat="30.807980786233486" lon="-6.753286714205417"><ele>1324.0</ele><time>2026-05-05T13:09:59Z</time></trkpt><trkpt lat="30.80812441542343" lon="-6.753497784536835"><ele>1324.0</ele><time>2026-05-05T13:10:00Z</time></trkpt><trkpt lat="30.808270022494668" lon="-6.753707059450787"><ele>1324.0</ele><time>2026-05-05T13:10:01Z</time></trkpt><trkpt lat="30.8084151070113" lon="-6.753918411468651"><ele>1327.0</ele><time>2026-05-05T13:10:02Z</time></trkpt><trkpt lat="30.808560069005402" lon="-6.754132709865007"><ele>1330.0</ele><time>2026-05-05T13:10:03Z</time></trkpt><trkpt lat="30.80870711819802" lon="-6.754347288099935"><ele>1330.5</ele><time>2026-05-05T13:10:04Z</time></trkpt><trkpt lat="30.808852400042248" lon="-6.7545595666210945"><ele>1331.0</ele><time>2026-05-05T13:10:05Z</time></trkpt><trkpt lat="30.808998115238456" lon="-6.754772223499416"><ele>1331.0</ele><time>2026-05-05T13:10:06Z</time></trkpt><trkpt lat="30.80914316426631" lon="-6.754982332896988"><ele>1331.0</ele><time>2026-05-05T13:10:07Z</time></trkpt><trkpt lat="30.80928694134838" lon="-6.75519133928867"><ele>1335.0</ele><time>2026-05-05T13:10:08Z</time></trkpt><trkpt lat="30.809427422109035" lon="-6.755398520662768"><ele>1339.0</ele><time>2026-05-05T13:10:09Z</time></trkpt><trkpt lat="30.80956601622744" lon="-6.755603374226116"><ele>1339.0</ele><time>2026-05-05T13:10:10Z</time></trkpt><trkpt lat="30.80970241721771" lon="-6.755806133639184"><ele>1339.0</ele><time>2026-05-05T13:10:11Z</time></trkpt><trkpt lat="30.80983935617494" lon="-6.756006546849374"><ele>1339.0</ele><time>2026-05-05T13:10:12Z</time></trkpt><trkpt lat="30.809979986569576" lon="-6.756206655335143"><ele>1339.3333333333333</ele><time>2026-05-05T13:10:13Z</time></trkpt><trkpt lat="30.810112646578652" lon="-6.756407592490897"><ele>1339.6666666666667</ele><time>2026-05-05T13:10:14Z</time></trkpt><trkpt lat="30.81024533393517" lon="-6.756604953477573"><ele>1340.0</ele><time>2026-05-05T13:10:15Z</time></trkpt><trkpt lat="30.8103798398557" lon="-6.7567997869734295"><ele>1335.6666666666667</ele><time>2026-05-05T13:10:16Z</time></trkpt><trkpt lat="30.810515848438392" lon="-6.756995835535672"><ele>1331.3333333333333</ele><time>2026-05-05T13:10:17Z</time></trkpt><trkpt lat="30.810654657717972" lon="-6.757193974753659"><ele>1327.0</ele><time>2026-05-05T13:10:18Z</time></trkpt><trkpt lat="30.810793830898024" lon="-6.757394699933477"><ele>1327.0</ele><time>2026-05-05T13:10:19Z</time></trkpt><trkpt lat="30.8109330653951" lon="-6.757595627873086"><ele>1327.0</ele><time>2026-05-05T13:10:20Z</time></trkpt><trkpt lat="30.811066414900925" lon="-6.757794706324911"><ele>1327.0</ele><time>2026-05-05T13:10:21Z</time></trkpt><trkpt lat="30.811196228847596" lon="-6.757987732471151"><ele>1324.0</ele><time>2026-05-05T13:10:22Z</time></trkpt><trkpt lat="30.811327376952228" lon="-6.758176454466823"><ele>1321.0</ele><time>2026-05-05T13:10:23Z</time></trkpt><trkpt lat="30.811452643009737" lon="-6.758377692124799"><ele>1318.0</ele><time>2026-05-05T13:10:24Z</time></trkpt><trkpt lat="30.81161346392647" lon="-6.75855242816598"><ele>1318.0</ele><time>2026-05-05T13:10:25Z</time></trkpt><trkpt lat="30.81177351539131" lon="-6.758730521458046"><ele>1318.0</ele><time>2026-05-05T13:10:26Z</time></trkpt><trkpt lat="30.811951573052593" lon="-6.758888531577176"><ele>1318.0</ele><time>2026-05-05T13:10:27Z</time></trkpt><trkpt lat="30.812141509501213" lon="-6.759031790707846"><ele>1315.5</ele><time>2026-05-05T13:10:28Z</time></trkpt><trkpt lat="30.812337620660212" lon="-6.759165855641949"><ele>1313.0</ele><time>2026-05-05T13:10:29Z</time></trkpt><trkpt lat="30.812541822753722" lon="-6.75928528677131"><ele>1310.5</ele><time>2026-05-05T13:10:30Z</time></trkpt><trkpt lat="30.812754860333296" lon="-6.75938534273672"><ele>1308.0</ele><time>2026-05-05T13:10:31Z</time></trkpt><trkpt lat="30.81297138193293" lon="-6.759477630970649"><ele>1308.0</ele><time>2026-05-05T13:10:32Z</time></trkpt><trkpt lat="30.813187215381927" lon="-6.759570183573171"><ele>1308.0</ele><time>2026-05-05T13:10:33Z</time></trkpt><trkpt lat="30.8134012477554" lon="-6.759662578901558"><ele>1305.5</ele><time>2026-05-05T13:10:34Z</time></trkpt><trkpt lat="30.81361431283048" lon="-6.759755361050646"><ele>1303.0</ele><time>2026-05-05T13:10:35Z</time></trkpt><trkpt lat="30.81382437608099" lon="-6.759848490032569"><ele>1303.0</ele><time>2026-05-05T13:10:36Z</time></trkpt><trkpt lat="30.81402902829337" lon="-6.759935392233306"><ele>1303.0</ele><time>2026-05-05T13:10:37Z</time></trkpt><trkpt lat="30.814227054484167" lon="-6.76001960988184"><ele>1303.0</ele><time>2026-05-05T13:10:38Z</time></trkpt><trkpt lat="30.814424305352603" lon="-6.7601118469894885"><ele>1301.3333333333333</ele><time>2026-05-05T13:10:39Z</time></trkpt><trkpt lat="30.814619691649227" lon="-6.760212802399831"><ele>1299.6666666666667</ele><time>2026-05-05T13:10:40Z</time></trkpt><trkpt lat="30.81481161880301" lon="-6.760329622161923"><ele>1298.0</ele><time>2026-05-05T13:10:41Z</time></trkpt><trkpt lat="30.81499677387134" lon="-6.760463432655992"><ele>1295.6666666666667</ele><time>2026-05-05T13:10:42Z</time></trkpt><trkpt lat="30.815173803572968" lon="-6.760611164492447"><ele>1293.3333333333333</ele><time>2026-05-05T13:10:43Z</time></trkpt><trkpt lat="30.815344863313577" lon="-6.760769869535802"><ele>1291.0</ele><time>2026-05-05T13:10:44Z</time></trkpt><trkpt lat="30.8155049703285" lon="-6.760943560425705"><ele>1293.3333333333333</ele><time>2026-05-05T13:10:45Z</time></trkpt><trkpt lat="30.815657753575362" lon="-6.76112940208675"><ele>1295.6666666666667</ele><time>2026-05-05T13:10:46Z</time></trkpt><trkpt lat="30.81579491599529" lon="-6.761329163576123"><ele>1298.0</ele><time>2026-05-05T13:10:47Z</time></trkpt><trkpt lat="30.815925215310937" lon="-6.76153993689315"><ele>1293.5</ele><time>2026-05-05T13:10:48Z</time></trkpt><trkpt lat="30.816053906962583" lon="-6.7617570897016295"><ele>1289.0</ele><time>2026-05-05T13:10:49Z</time></trkpt><trkpt lat="30.816181926398507" lon="-6.761973658543414"><ele>1289.0</ele><time>2026-05-05T13:10:50Z</time></trkpt><trkpt lat="30.816302291328267" lon="-6.762178259265563"><ele>1289.0</ele><time>2026-05-05T13:10:51Z</time></trkpt><trkpt lat="30.816421749042878" lon="-6.762387084916732"><ele>1289.0</ele><time>2026-05-05T13:10:52Z</time></trkpt><trkpt lat="30.816540479287923" lon="-6.762599636847842"><ele>1288.3333333333335</ele><time>2026-05-05T13:10:53Z</time></trkpt><trkpt lat="30.81665697495478" lon="-6.762816843008549"><ele>1287.6666666666667</ele><time>2026-05-05T13:10:54Z</time></trkpt><trkpt lat="30.816768406880406" lon="-6.763038855160367"><ele>1287.0</ele><time>2026-05-05T13:10:55Z</time></trkpt><trkpt lat="30.816859829548935" lon="-6.7632768633578"><ele>1281.0</ele><time>2026-05-05T13:10:56Z</time></trkpt><trkpt lat="30.816979997017157" lon="-6.76350039330316"><ele>1275.0</ele><time>2026-05-05T13:10:57Z</time></trkpt><trkpt lat="30.81707729661286" lon="-6.763738995181782"><ele>1275.0</ele><time>2026-05-05T13:10:58Z</time></trkpt><trkpt lat="30.817171140845495" lon="-6.763980577610644"><ele>1275.0</ele><time>2026-05-05T13:10:59Z</time></trkpt><trkpt lat="30.817259826784184" lon="-6.764225535761525"><ele>1275.5</ele><time>2026-05-05T13:11:00Z</time></trkpt><trkpt lat="30.817347118548728" lon="-6.7644702096463805"><ele>1276.0</ele><time>2026-05-05T13:11:01Z</time></trkpt><trkpt lat="30.817434028417605" lon="-6.764711541713785"><ele>1276.0</ele><time>2026-05-05T13:11:02Z</time></trkpt><trkpt lat="30.81751592411807" lon="-6.76495169671737"><ele>1276.0</ele><time>2026-05-05T13:11:03Z</time></trkpt><trkpt lat="30.81759559161682" lon="-6.765198144544545"><ele>1276.0</ele><time>2026-05-05T13:11:04Z</time></trkpt><trkpt lat="30.817657428575966" lon="-6.76545087534184"><ele>1272.3333333333333</ele><time>2026-05-05T13:11:05Z</time></trkpt><trkpt lat="30.817758207957056" lon="-6.765686497151197"><ele>1268.6666666666667</ele><time>2026-05-05T13:11:06Z</time></trkpt><trkpt lat="30.817855445910563" lon="-6.765912220404452"><ele>1265.0</ele><time>2026-05-05T13:11:07Z</time></trkpt><trkpt lat="30.817967343951864" lon="-6.766135726949056"><ele>1265.0</ele><time>2026-05-05T13:11:08Z</time></trkpt><trkpt lat="30.818092451939776" lon="-6.7663502392551935"><ele>1265.0</ele><time>2026-05-05T13:11:09Z</time></trkpt><trkpt lat="30.81823149863074" lon="-6.7665577236205126"><ele>1265.0</ele><time>2026-05-05T13:11:10Z</time></trkpt><trkpt lat="30.818385700105445" lon="-6.766755539354978"><ele>1262.5</ele><time>2026-05-05T13:11:11Z</time></trkpt><trkpt lat="30.81855444663771" lon="-6.7669398873350195"><ele>1260.0</ele><time>2026-05-05T13:11:12Z</time></trkpt><trkpt lat="30.818737028126755" lon="-6.767111600818535"><ele>1260.0</ele><time>2026-05-05T13:11:13Z</time></trkpt><trkpt lat="30.818931899513643" lon="-6.767268253698743"><ele>1260.0</ele><time>2026-05-05T13:11:14Z</time></trkpt><trkpt lat="30.819137596940397" lon="-6.767409372841106"><ele>1257.0</ele><time>2026-05-05T13:11:15Z</time></trkpt><trkpt lat="30.81935157504327" lon="-6.767538621755083"><ele>1254.0</ele><time>2026-05-05T13:11:16Z</time></trkpt><trkpt lat="30.819569866419815" lon="-6.767663405110009"><ele>1258.0</ele><time>2026-05-05T13:11:17Z</time></trkpt><trkpt lat="30.819790124745495" lon="-6.767787420419516"><ele>1262.0</ele><time>2026-05-05T13:11:18Z</time></trkpt><trkpt lat="30.820013382218367" lon="-6.767916652479934"><ele>1257.0</ele><time>2026-05-05T13:11:19Z</time></trkpt><trkpt lat="30.82023696961109" lon="-6.768047167651068"><ele>1252.0</ele><time>2026-05-05T13:11:20Z</time></trkpt><trkpt lat="30.820455352787313" lon="-6.768181091245472"><ele>1252.0</ele><time>2026-05-05T13:11:21Z</time></trkpt><trkpt lat="30.82066353357872" lon="-6.768329323930449"><ele>1252.0</ele><time>2026-05-05T13:11:22Z</time></trkpt><trkpt lat="30.820862863727257" lon="-6.76849073890865"><ele>1251.0</ele><time>2026-05-05T13:11:23Z</time></trkpt><trkpt lat="30.821059030177008" lon="-6.768658126047874"><ele>1250.0</ele><time>2026-05-05T13:11:24Z</time></trkpt><trkpt lat="30.82124935932116" lon="-6.768831009483009"><ele>1250.0</ele><time>2026-05-05T13:11:25Z</time></trkpt><trkpt lat="30.821429591177253" lon="-6.769012982112963"><ele>1250.0</ele><time>2026-05-05T13:11:26Z</time></trkpt><trkpt lat="30.82160726290668" lon="-6.769200737472513"><ele>1250.5</ele><time>2026-05-05T13:11:27Z</time></trkpt><trkpt lat="30.821787835459613" lon="-6.769386782929607"><ele>1251.0</ele><time>2026-05-05T13:11:28Z</time></trkpt><trkpt lat="30.8219667794682" lon="-6.769574116987756"><ele>1248.0</ele><time>2026-05-05T13:11:29Z</time></trkpt><trkpt lat="30.82214708871818" lon="-6.769762982142156"><ele>1245.0</ele><time>2026-05-05T13:11:30Z</time></trkpt><trkpt lat="30.822327956357668" lon="-6.769951858498514"><ele>1245.0</ele><time>2026-05-05T13:11:31Z</time></trkpt><trkpt lat="30.822510325620506" lon="-6.770138514685663"><ele>1245.0</ele><time>2026-05-05T13:11:32Z</time></trkpt><trkpt lat="30.822693410401477" lon="-6.770325789916722"><ele>1244.0</ele><time>2026-05-05T13:11:33Z</time></trkpt><trkpt lat="30.8228786248735" lon="-6.770513371893679"><ele>1243.0</ele><time>2026-05-05T13:11:34Z</time></trkpt><trkpt lat="30.823061543329445" lon="-6.770701510789614"><ele>1243.0</ele><time>2026-05-05T13:11:35Z</time></trkpt><trkpt lat="30.823245152703237" lon="-6.770891551644842"><ele>1243.0</ele><time>2026-05-05T13:11:36Z</time></trkpt><trkpt lat="30.82342829682907" lon="-6.771080170748087"><ele>1241.0</ele><time>2026-05-05T13:11:37Z</time></trkpt><trkpt lat="30.823608094704937" lon="-6.771273181400817"><ele>1239.0</ele><time>2026-05-05T13:11:38Z</time></trkpt><trkpt lat="30.82377734140718" lon="-6.771478110171802"><ele>1239.0</ele><time>2026-05-05T13:11:39Z</time></trkpt><trkpt lat="30.823933945626845" lon="-6.771700358677966"><ele>1239.0</ele><time>2026-05-05T13:11:40Z</time></trkpt><trkpt lat="30.824075874817854" lon="-6.771931113576795"><ele>1238.0</ele><time>2026-05-05T13:11:41Z</time></trkpt><trkpt lat="30.824205656371944" lon="-6.772170894630366"><ele>1237.0</ele><time>2026-05-05T13:11:42Z</time></trkpt><trkpt lat="30.824323920588217" lon="-6.7724184714593845"><ele>1239.0</ele><time>2026-05-05T13:11:43Z</time></trkpt><trkpt lat="30.824433624467378" lon="-6.77267233527998"><ele>1241.0</ele><time>2026-05-05T13:11:44Z</time></trkpt><trkpt lat="30.824538725124494" lon="-6.77292895134012"><ele>1242.0</ele><time>2026-05-05T13:11:45Z</time></trkpt><trkpt lat="30.824646533377834" lon="-6.773181667500204"><ele>1243.0</ele><time>2026-05-05T13:11:46Z</time></trkpt><trkpt lat="30.824756059723388" lon="-6.77343007635842"><ele>1243.0</ele><time>2026-05-05T13:11:47Z</time></trkpt><trkpt lat="30.824862911015405" lon="-6.773674764099303"><ele>1243.0</ele><time>2026-05-05T13:11:48Z</time></trkpt><trkpt lat="30.824969256806778" lon="-6.773921596301389"><ele>1243.0</ele><time>2026-05-05T13:11:49Z</time></trkpt><trkpt lat="30.825074867334077" lon="-6.774168706661875"><ele>1243.0</ele><time>2026-05-05T13:11:50Z</time></trkpt><trkpt lat="30.82518156871621" lon="-6.774414584671142"><ele>1243.0</ele><time>2026-05-05T13:11:51Z</time></trkpt><trkpt lat="30.82528586138884" lon="-6.774657309856032"><ele>1243.0</ele><time>2026-05-05T13:11:52Z</time></trkpt><trkpt lat="30.825389275512645" lon="-6.774901226463575"><ele>1243.0</ele><time>2026-05-05T13:11:53Z</time></trkpt><trkpt lat="30.825493419036928" lon="-6.775147163583262"><ele>1243.0</ele><time>2026-05-05T13:11:54Z</time></trkpt><trkpt lat="30.825600847245095" lon="-6.775392398848474"><ele>1242.5</ele><time>2026-05-05T13:11:55Z</time></trkpt><trkpt lat="30.82570976458851" lon="-6.7756378491099625"><ele>1242.0</ele><time>2026-05-05T13:11:56Z</time></trkpt><trkpt lat="30.825818787698825" lon="-6.775887165420128"><ele>1240.5</ele><time>2026-05-05T13:11:57Z</time></trkpt><trkpt lat="30.82592808932794" lon="-6.776142426233803"><ele>1239.0</ele><time>2026-05-05T13:11:58Z</time></trkpt><trkpt lat="30.826034802578803" lon="-6.776398019760022"><ele>1239.0</ele><time>2026-05-05T13:11:59Z</time></trkpt><trkpt lat="30.826140102504706" lon="-6.776652434402237"><ele>1239.0</ele><time>2026-05-05T13:12:00Z</time></trkpt><trkpt lat="30.826248318356363" lon="-6.77690363650786"><ele>1238.0</ele><time>2026-05-05T13:12:01Z</time></trkpt><trkpt lat="30.82636374474309" lon="-6.777151338642497"><ele>1237.0</ele><time>2026-05-05T13:12:02Z</time></trkpt><trkpt lat="30.826489675877266" lon="-6.777394723862565"><ele>1237.0</ele><time>2026-05-05T13:12:03Z</time></trkpt><trkpt lat="30.82662480751991" lon="-6.7776321889306965"><ele>1237.0</ele><time>2026-05-05T13:12:04Z</time></trkpt><trkpt lat="30.826767600740173" lon="-6.777863532644182"><ele>1234.5</ele><time>2026-05-05T13:12:05Z</time></trkpt><trkpt lat="30.826914612315537" lon="-6.778092667313458"><ele>1232.0</ele><time>2026-05-05T13:12:06Z</time></trkpt><trkpt lat="30.827065144309774" lon="-6.778321586283219"><ele>1229.0</ele><time>2026-05-05T13:12:07Z</time></trkpt><trkpt lat="30.82722049010415" lon="-6.778545706221216"><ele>1226.0</ele><time>2026-05-05T13:12:08Z</time></trkpt><trkpt lat="30.827377611496644" lon="-6.778766959345425"><ele>1226.0</ele><time>2026-05-05T13:12:09Z</time></trkpt><trkpt lat="30.827534524066696" lon="-6.778991558777648"><ele>1226.0</ele><time>2026-05-05T13:12:10Z</time></trkpt><trkpt lat="30.827690527667873" lon="-6.779217310505455"><ele>1228.5</ele><time>2026-05-05T13:12:11Z</time></trkpt><trkpt lat="30.82784491778424" lon="-6.7794426627797515"><ele>1231.0</ele><time>2026-05-05T13:12:12Z</time></trkpt><trkpt lat="30.827996979358183" lon="-6.779667726333161"><ele>1231.0</ele><time>2026-05-05T13:12:13Z</time></trkpt><trkpt lat="30.828147047417012" lon="-6.779887771746298"><ele>1231.0</ele><time>2026-05-05T13:12:14Z</time></trkpt><trkpt lat="30.828295051216514" lon="-6.780103459910388"><ele>1230.0</ele><time>2026-05-05T13:12:15Z</time></trkpt><trkpt lat="30.828440934164366" lon="-6.780315710575137"><ele>1229.0</ele><time>2026-05-05T13:12:16Z</time></trkpt><trkpt lat="30.82858567514562" lon="-6.780525175617452"><ele>1232.0</ele><time>2026-05-05T13:12:17Z</time></trkpt><trkpt lat="30.82872870419722" lon="-6.780735130530472"><ele>1235.0</ele><time>2026-05-05T13:12:18Z</time></trkpt><trkpt lat="30.8288698382899" lon="-6.78094541702639"><ele>1230.0</ele><time>2026-05-05T13:12:19Z</time></trkpt><trkpt lat="30.82901465192805" lon="-6.781156089584264"><ele>1225.0</ele><time>2026-05-05T13:12:20Z</time></trkpt><trkpt lat="30.829161425430357" lon="-6.781369734711651"><ele>1225.5</ele><time>2026-05-05T13:12:21Z</time></trkpt><trkpt lat="30.829310623857854" lon="-6.781586207951335"><ele>1226.0</ele><time>2026-05-05T13:12:22Z</time></trkpt><trkpt lat="30.829461123914342" lon="-6.7818071137166696"><ele>1225.0</ele><time>2026-05-05T13:12:23Z</time></trkpt><trkpt lat="30.82961581307651" lon="-6.7820317434377495"><ele>1224.0</ele><time>2026-05-05T13:12:24Z</time></trkpt><trkpt lat="30.829771270264224" lon="-6.7822574061832"><ele>1224.0</ele><time>2026-05-05T13:12:25Z</time></trkpt><trkpt lat="30.82992694559636" lon="-6.782485469152169"><ele>1224.0</ele><time>2026-05-05T13:12:26Z</time></trkpt><trkpt lat="30.8300829747537" lon="-6.782715879628863"><ele>1223.0</ele><time>2026-05-05T13:12:27Z</time></trkpt><trkpt lat="30.83023878192537" lon="-6.7829491500664725"><ele>1222.0</ele><time>2026-05-05T13:12:28Z</time></trkpt><trkpt lat="30.8303948044692" lon="-6.783175751616667"><ele>1222.0</ele><time>2026-05-05T13:12:29Z</time></trkpt><trkpt lat="30.830546528986336" lon="-6.783392598480608"><ele>1222.0</ele><time>2026-05-05T13:12:30Z</time></trkpt><trkpt lat="30.83070731934802" lon="-6.783607605796166"><ele>1220.5</ele><time>2026-05-05T13:12:31Z</time></trkpt><trkpt lat="30.830878289600324" lon="-6.783812682121466"><ele>1219.0</ele><time>2026-05-05T13:12:32Z</time></trkpt><trkpt lat="30.831059074996798" lon="-6.784010819181191"><ele>1217.0</ele><time>2026-05-05T13:12:33Z</time></trkpt><trkpt lat="30.831262388226794" lon="-6.784183943810218"><ele>1215.0</ele><time>2026-05-05T13:12:34Z</time></trkpt><trkpt lat="30.831474596690207" lon="-6.784348635738737"><ele>1212.5</ele><time>2026-05-05T13:12:35Z</time></trkpt><trkpt lat="30.831692773219185" lon="-6.784505587282039"><ele>1210.0</ele><time>2026-05-05T13:12:36Z</time></trkpt><trkpt lat="30.83191168283879" lon="-6.7846557291813445"><ele>1209.5</ele><time>2026-05-05T13:12:37Z</time></trkpt><trkpt lat="30.832127295649475" lon="-6.7848106615093045"><ele>1209.0</ele><time>2026-05-05T13:12:38Z</time></trkpt><trkpt lat="30.832338867198562" lon="-6.784971086009451"><ele>1209.0</ele><time>2026-05-05T13:12:39Z</time></trkpt><trkpt lat="30.832544227457614" lon="-6.785128917282493"><ele>1209.0</ele><time>2026-05-05T13:12:40Z</time></trkpt><trkpt lat="30.832745079070776" lon="-6.7852812266787685"><ele>1210.0</ele><time>2026-05-05T13:12:41Z</time></trkpt><trkpt lat="30.832943927453606" lon="-6.785435956889106"><ele>1211.0</ele><time>2026-05-05T13:12:42Z</time></trkpt><trkpt lat="30.833139060378976" lon="-6.7855946789578985"><ele>1211.0</ele><time>2026-05-05T13:12:43Z</time></trkpt><trkpt lat="30.833321201608122" lon="-6.785794731872256"><ele>1211.0</ele><time>2026-05-05T13:12:44Z</time></trkpt><trkpt lat="30.833505886082943" lon="-6.785963734182702"><ele>1210.5</ele><time>2026-05-05T13:12:45Z</time></trkpt><trkpt lat="30.83369442695647" lon="-6.7861441149430854"><ele>1210.0</ele><time>2026-05-05T13:12:46Z</time></trkpt><trkpt lat="30.8338786939072" lon="-6.786330815944861"><ele>1210.0</ele><time>2026-05-05T13:12:47Z</time></trkpt><trkpt lat="30.83405953086608" lon="-6.786508918682383"><ele>1210.0</ele><time>2026-05-05T13:12:48Z</time></trkpt><trkpt lat="30.834235505559427" lon="-6.786685599630083"><ele>1208.0</ele><time>2026-05-05T13:12:49Z</time></trkpt><trkpt lat="30.834417975122577" lon="-6.786855810906423"><ele>1206.0</ele><time>2026-05-05T13:12:50Z</time></trkpt><trkpt lat="30.834591708441383" lon="-6.787033190487115"><ele>1206.0</ele><time>2026-05-05T13:12:51Z</time></trkpt><trkpt lat="30.834759214689374" lon="-6.787224005609677"><ele>1206.0</ele><time>2026-05-05T13:12:52Z</time></trkpt><trkpt lat="30.834930221988067" lon="-6.787420008956725"><ele>1206.0</ele><time>2026-05-05T13:12:53Z</time></trkpt><trkpt lat="30.835092216183558" lon="-6.7876302146514735"><ele>1206.0</ele><time>2026-05-05T13:12:54Z</time></trkpt><trkpt lat="30.835243528652956" lon="-6.787848430422887"><ele>1203.0</ele><time>2026-05-05T13:12:55Z</time></trkpt><trkpt lat="30.83538535271442" lon="-6.788071070764794"><ele>1200.0</ele><time>2026-05-05T13:12:56Z</time></trkpt><trkpt lat="30.835523874080383" lon="-6.788301327978056"><ele>1203.5</ele><time>2026-05-05T13:12:57Z</time></trkpt><trkpt lat="30.83565471320657" lon="-6.788530992858501"><ele>1207.0</ele><time>2026-05-05T13:12:58Z</time></trkpt><trkpt lat="30.835791402623226" lon="-6.788764329627282"><ele>1207.0</ele><time>2026-05-05T13:12:59Z</time></trkpt><trkpt lat="30.835916057544686" lon="-6.788986334335436"><ele>1207.0</ele><time>2026-05-05T13:13:00Z</time></trkpt><trkpt lat="30.8360369608935" lon="-6.789219215025824"><ele>1202.0</ele><time>2026-05-05T13:13:01Z</time></trkpt><trkpt lat="30.836166171280098" lon="-6.789444460207538"><ele>1197.0</ele><time>2026-05-05T13:13:02Z</time></trkpt><trkpt lat="30.836294987666022" lon="-6.789667969426868"><ele>1197.0</ele><time>2026-05-05T13:13:03Z</time></trkpt><trkpt lat="30.836418616447393" lon="-6.789897003737036"><ele>1197.0</ele><time>2026-05-05T13:13:04Z</time></trkpt><trkpt lat="30.83654398651424" lon="-6.790122998904244"><ele>1199.5</ele><time>2026-05-05T13:13:05Z</time></trkpt><trkpt lat="30.8366381881724" lon="-6.7903977873553805"><ele>1202.0</ele><time>2026-05-05T13:13:06Z</time></trkpt><trkpt lat="30.836736999750023" lon="-6.790648136645251"><ele>1200.5</ele><time>2026-05-05T13:13:07Z</time></trkpt><trkpt lat="30.83682818841093" lon="-6.790903458101146"><ele>1199.0</ele><time>2026-05-05T13:13:08Z</time></trkpt><trkpt lat="30.836917462974995" lon="-6.791162506041059"><ele>1199.0</ele><time>2026-05-05T13:13:09Z</time></trkpt><trkpt lat="30.837008357036083" lon="-6.791419832736716"><ele>1199.0</ele><time>2026-05-05T13:13:10Z</time></trkpt><trkpt lat="30.8371001250556" lon="-6.791680222598153"><ele>1198.0</ele><time>2026-05-05T13:13:11Z</time></trkpt><trkpt lat="30.837196806025673" lon="-6.791940280979153"><ele>1197.0</ele><time>2026-05-05T13:13:12Z</time></trkpt><trkpt lat="30.837294936405986" lon="-6.792200003166793"><ele>1197.0</ele><time>2026-05-05T13:13:13Z</time></trkpt><trkpt lat="30.837389249005202" lon="-6.7924632406725705"><ele>1197.0</ele><time>2026-05-05T13:13:14Z</time></trkpt><trkpt lat="30.837477395664497" lon="-6.792731344639499"><ele>1196.0</ele><time>2026-05-05T13:13:15Z</time></trkpt><trkpt lat="30.83757111156069" lon="-6.792991977304559"><ele>1195.0</ele><time>2026-05-05T13:13:16Z</time></trkpt><trkpt lat="30.837665440616902" lon="-6.793252192803247"><ele>1194.5</ele><time>2026-05-05T13:13:17Z</time></trkpt><trkpt lat="30.837759563378167" lon="-6.793515720674754"><ele>1194.0</ele><time>2026-05-05T13:13:18Z</time></trkpt><trkpt lat="30.83785628078138" lon="-6.793779230047304"><ele>1194.0</ele><time>2026-05-05T13:13:19Z</time></trkpt><trkpt lat="30.837948979117066" lon="-6.7940448546166285"><ele>1194.0</ele><time>2026-05-05T13:13:20Z</time></trkpt><trkpt lat="30.83804143405263" lon="-6.794314213657791"><ele>1193.5</ele><time>2026-05-05T13:13:21Z</time></trkpt><trkpt lat="30.838135680700113" lon="-6.794578282958494"><ele>1193.0</ele><time>2026-05-05T13:13:22Z</time></trkpt><trkpt lat="30.83822927733291" lon="-6.794843132351067"><ele>1193.0</ele><time>2026-05-05T13:13:23Z</time></trkpt><trkpt lat="30.83832304404258" lon="-6.795108353430643"><ele>1193.0</ele><time>2026-05-05T13:13:24Z</time></trkpt><trkpt lat="30.838417149183908" lon="-6.795375957904467"><ele>1192.5</ele><time>2026-05-05T13:13:25Z</time></trkpt><trkpt lat="30.838511009044975" lon="-6.795642156100764"><ele>1192.0</ele><time>2026-05-05T13:13:26Z</time></trkpt><trkpt lat="30.838607046388255" lon="-6.795906567358586"><ele>1191.5</ele><time>2026-05-05T13:13:27Z</time></trkpt><trkpt lat="30.838699967469456" lon="-6.796169708981326"><ele>1191.0</ele><time>2026-05-05T13:13:28Z</time></trkpt><trkpt lat="30.83879331193714" lon="-6.796428656558772"><ele>1191.0</ele><time>2026-05-05T13:13:29Z</time></trkpt><trkpt lat="30.838886112741605" lon="-6.796694704966347"><ele>1191.0</ele><time>2026-05-05T13:13:30Z</time></trkpt><trkpt lat="30.838979362029868" lon="-6.796958476619649"><ele>1190.5</ele><time>2026-05-05T13:13:31Z</time></trkpt><trkpt lat="30.839071818758136" lon="-6.797217884442227"><ele>1190.0</ele><time>2026-05-05T13:13:32Z</time></trkpt><trkpt lat="30.839165177667777" lon="-6.797475314410791"><ele>1190.0</ele><time>2026-05-05T13:13:33Z</time></trkpt><trkpt lat="30.839258521980913" lon="-6.797744310627119"><ele>1190.0</ele><time>2026-05-05T13:13:34Z</time></trkpt><trkpt lat="30.839352018253805" lon="-6.798012173653699"><ele>1188.5</ele><time>2026-05-05T13:13:35Z</time></trkpt><trkpt lat="30.839446855981265" lon="-6.798274147265345"><ele>1187.0</ele><time>2026-05-05T13:13:36Z</time></trkpt><trkpt lat="30.83954093391057" lon="-6.798539825658678"><ele>1187.0</ele><time>2026-05-05T13:13:37Z</time></trkpt><trkpt lat="30.839633621165987" lon="-6.798810501456519"><ele>1187.0</ele><time>2026-05-05T13:13:38Z</time></trkpt><trkpt lat="30.839727636555857" lon="-6.799076692495805"><ele>1186.5</ele><time>2026-05-05T13:13:39Z</time></trkpt><trkpt lat="30.839821901297363" lon="-6.799347502881767"><ele>1186.0</ele><time>2026-05-05T13:13:40Z</time></trkpt><trkpt lat="30.839920561390386" lon="-6.799615337354952"><ele>1186.0</ele><time>2026-05-05T13:13:41Z</time></trkpt><trkpt lat="30.84001216008264" lon="-6.799874202097831"><ele>1186.0</ele><time>2026-05-05T13:13:42Z</time></trkpt><trkpt lat="30.840101816372627" lon="-6.80013738505084"><ele>1185.0</ele><time>2026-05-05T13:13:43Z</time></trkpt><trkpt lat="30.840192683104252" lon="-6.800394855536895"><ele>1184.0</ele><time>2026-05-05T13:13:44Z</time></trkpt><trkpt lat="30.84028650485512" lon="-6.800651861240949"><ele>1184.0</ele><time>2026-05-05T13:13:45Z</time></trkpt><trkpt lat="30.840377570588046" lon="-6.800910281981188"><ele>1184.0</ele><time>2026-05-05T13:13:46Z</time></trkpt><trkpt lat="30.84046893983454" lon="-6.80116884607025"><ele>1183.5</ele><time>2026-05-05T13:13:47Z</time></trkpt><trkpt lat="30.840562191718472" lon="-6.80142989747304"><ele>1183.0</ele><time>2026-05-05T13:13:48Z</time></trkpt><trkpt lat="30.840654782682233" lon="-6.801692007842612"><ele>1182.5</ele><time>2026-05-05T13:13:49Z</time></trkpt><trkpt lat="30.840748147801193" lon="-6.801958257150552"><ele>1182.0</ele><time>2026-05-05T13:13:50Z</time></trkpt><trkpt lat="30.84083982730015" lon="-6.802225596682427"><ele>1182.0</ele><time>2026-05-05T13:13:51Z</time></trkpt><trkpt lat="30.84093407149109" lon="-6.802492167440608"><ele>1182.0</ele><time>2026-05-05T13:13:52Z</time></trkpt><trkpt lat="30.841030317795973" lon="-6.80275471513734"><ele>1181.5</ele><time>2026-05-05T13:13:53Z</time></trkpt><trkpt lat="30.84112410735982" lon="-6.803021578519651"><ele>1181.0</ele><time>2026-05-05T13:13:54Z</time></trkpt><trkpt lat="30.84121772833103" lon="-6.803284492630167"><ele>1181.5</ele><time>2026-05-05T13:13:55Z</time></trkpt><trkpt lat="30.841310515089692" lon="-6.803549260692374"><ele>1182.0</ele><time>2026-05-05T13:13:56Z</time></trkpt><trkpt lat="30.8414029925998" lon="-6.803811671852066"><ele>1182.0</ele><time>2026-05-05T13:13:57Z</time></trkpt><trkpt lat="30.84149633473323" lon="-6.804070696049867"><ele>1182.0</ele><time>2026-05-05T13:13:58Z</time></trkpt><trkpt lat="30.841588488007744" lon="-6.804330433614476"><ele>1182.0</ele><time>2026-05-05T13:13:59Z</time></trkpt><trkpt lat="30.841679086440212" lon="-6.804592706665703"><ele>1182.0</ele><time>2026-05-05T13:14:00Z</time></trkpt><trkpt lat="30.841772232813778" lon="-6.804849859147667"><ele>1181.5</ele><time>2026-05-05T13:14:01Z</time></trkpt><trkpt lat="30.841866754176106" lon="-6.805106121133507"><ele>1181.0</ele><time>2026-05-05T13:14:02Z</time></trkpt><trkpt lat="30.841958619340026" lon="-6.805364039617734"><ele>1182.0</ele><time>2026-05-05T13:14:03Z</time></trkpt><trkpt lat="30.842047692251892" lon="-6.805620413426448"><ele>1183.0</ele><time>2026-05-05T13:14:04Z</time></trkpt><trkpt lat="30.84213357638108" lon="-6.805877862238184"><ele>1186.0</ele><time>2026-05-05T13:14:05Z</time></trkpt><trkpt lat="30.842218852341297" lon="-6.806133718566066"><ele>1189.0</ele><time>2026-05-05T13:14:06Z</time></trkpt><trkpt lat="30.842307180584562" lon="-6.80638519204299"><ele>1189.0</ele><time>2026-05-05T13:14:07Z</time></trkpt><trkpt lat="30.842395095210822" lon="-6.806633232324654"><ele>1189.0</ele><time>2026-05-05T13:14:08Z</time></trkpt><trkpt lat="30.84248246195347" lon="-6.80687953991457"><ele>1190.5</ele><time>2026-05-05T13:14:09Z</time></trkpt><trkpt lat="30.842569737965377" lon="-6.807125068526726"><ele>1192.0</ele><time>2026-05-05T13:14:10Z</time></trkpt><trkpt lat="30.842656114602608" lon="-6.807369489810078"><ele>1192.0</ele><time>2026-05-05T13:14:11Z</time></trkpt><trkpt lat="30.842740727074894" lon="-6.8076146009924114"><ele>1192.0</ele><time>2026-05-05T13:14:12Z</time></trkpt><trkpt lat="30.84282636986554" lon="-6.807861102567042"><ele>1192.5</ele><time>2026-05-05T13:14:13Z</time></trkpt><trkpt lat="30.842916361319276" lon="-6.808109215758976"><ele>1193.0</ele><time>2026-05-05T13:14:14Z</time></trkpt><trkpt lat="30.843004309523" lon="-6.808360810406472"><ele>1191.5</ele><time>2026-05-05T13:14:15Z</time></trkpt><trkpt lat="30.84309453532915" lon="-6.808615729890512"><ele>1190.0</ele><time>2026-05-05T13:14:16Z</time></trkpt><trkpt lat="30.84318038988729" lon="-6.808871488604819"><ele>1190.0</ele><time>2026-05-05T13:14:17Z</time></trkpt><trkpt lat="30.843260680433364" lon="-6.809123123781562"><ele>1190.0</ele><time>2026-05-05T13:14:18Z</time></trkpt><trkpt lat="30.843337050714567" lon="-6.80937786544604"><ele>1189.0</ele><time>2026-05-05T13:14:19Z</time></trkpt><trkpt lat="30.843392246346543" lon="-6.809635050647492"><ele>1188.0</ele><time>2026-05-05T13:14:20Z</time></trkpt><trkpt lat="30.843423433774188" lon="-6.809893962005586"><ele>1187.0</ele><time>2026-05-05T13:14:21Z</time></trkpt><trkpt lat="30.843441936991418" lon="-6.810159101450126"><ele>1186.0</ele><time>2026-05-05T13:14:22Z</time></trkpt><trkpt lat="30.84344796290912" lon="-6.810427854776947"><ele>1186.0</ele><time>2026-05-05T13:14:23Z</time></trkpt><trkpt lat="30.843437321789484" lon="-6.810702032359012"><ele>1186.0</ele><time>2026-05-05T13:14:24Z</time></trkpt><trkpt lat="30.843417301414384" lon="-6.810976043677336"><ele>1183.5</ele><time>2026-05-05T13:14:25Z</time></trkpt><trkpt lat="30.84340046315909" lon="-6.811248754624191"><ele>1181.0</ele><time>2026-05-05T13:14:26Z</time></trkpt><trkpt lat="30.843385239047674" lon="-6.811520089873537"><ele>1181.0</ele><time>2026-05-05T13:14:27Z</time></trkpt><trkpt lat="30.843368879749185" lon="-6.811788394967512"><ele>1181.0</ele><time>2026-05-05T13:14:28Z</time></trkpt><trkpt lat="30.84335486538897" lon="-6.812056044903838"><ele>1178.5</ele><time>2026-05-05T13:14:29Z</time></trkpt><trkpt lat="30.843348916896655" lon="-6.81232106818244"><ele>1176.0</ele><time>2026-05-05T13:14:30Z</time></trkpt><trkpt lat="30.843356232186913" lon="-6.812585197266019"><ele>1175.5</ele><time>2026-05-05T13:14:31Z</time></trkpt><trkpt lat="30.843383307043347" lon="-6.812847268885999"><ele>1175.0</ele><time>2026-05-05T13:14:32Z</time></trkpt><trkpt lat="30.84342665568123" lon="-6.813108766148027"><ele>1173.5</ele><time>2026-05-05T13:14:33Z</time></trkpt><trkpt lat="30.84348389931804" lon="-6.813361619006607"><ele>1172.0</ele><time>2026-05-05T13:14:34Z</time></trkpt><trkpt lat="30.843554929577145" lon="-6.813611264386882"><ele>1171.0</ele><time>2026-05-05T13:14:35Z</time></trkpt><trkpt lat="30.843642116510487" lon="-6.813851699721082"><ele>1170.0</ele><time>2026-05-05T13:14:36Z</time></trkpt><trkpt lat="30.843742231718398" lon="-6.814080716144171"><ele>1169.0</ele><time>2026-05-05T13:14:37Z</time></trkpt><trkpt lat="30.843846110570386" lon="-6.814302600267163"><ele>1168.0</ele><time>2026-05-05T13:14:38Z</time></trkpt><trkpt lat="30.843951350413064" lon="-6.814523001458802"><ele>1167.0</ele><time>2026-05-05T13:14:39Z</time></trkpt><trkpt lat="30.84405589151323" lon="-6.8147406266283586"><ele>1166.0</ele><time>2026-05-05T13:14:40Z</time></trkpt><trkpt lat="30.84416275393303" lon="-6.814955794477128"><ele>1166.6666666666667</ele><time>2026-05-05T13:14:41Z</time></trkpt><trkpt lat="30.844280657896476" lon="-6.815159080395126"><ele>1167.3333333333333</ele><time>2026-05-05T13:14:42Z</time></trkpt><trkpt lat="30.844417979853265" lon="-6.815346681588836"><ele>1168.0</ele><time>2026-05-05T13:14:43Z</time></trkpt><trkpt lat="30.844567460622205" lon="-6.815515657271738"><ele>1165.3333333333333</ele><time>2026-05-05T13:14:44Z</time></trkpt><trkpt lat="30.844725870641977" lon="-6.8156681167187"><ele>1162.6666666666667</ele><time>2026-05-05T13:14:45Z</time></trkpt><trkpt lat="30.84488965969261" lon="-6.815814552893026"><ele>1160.0</ele><time>2026-05-05T13:14:46Z</time></trkpt><trkpt lat="30.845054837874677" lon="-6.815961618753619"><ele>1158.0</ele><time>2026-05-05T13:14:47Z</time></trkpt><trkpt lat="30.845225178111477" lon="-6.816110340458692"><ele>1156.0</ele><time>2026-05-05T13:14:48Z</time></trkpt><trkpt lat="30.845395550378022" lon="-6.816259124126479"><ele>1154.0</ele><time>2026-05-05T13:14:49Z</time></trkpt><trkpt lat="30.8455651539393" lon="-6.816405510256592"><ele>1154.0</ele><time>2026-05-05T13:14:50Z</time></trkpt><trkpt lat="30.845729974576617" lon="-6.816545114894371"><ele>1154.0</ele><time>2026-05-05T13:14:51Z</time></trkpt><trkpt lat="30.84589388367253" lon="-6.816688038105475"><ele>1154.0</ele><time>2026-05-05T13:14:52Z</time></trkpt><trkpt lat="30.846059476639276" lon="-6.8168371143335085"><ele>1154.3333333333335</ele><time>2026-05-05T13:14:53Z</time></trkpt><trkpt lat="30.84622508331775" lon="-6.816985462596176"><ele>1154.6666666666667</ele><time>2026-05-05T13:14:54Z</time></trkpt><trkpt lat="30.846391677757545" lon="-6.81713485699566"><ele>1155.0</ele><time>2026-05-05T13:14:55Z</time></trkpt><trkpt lat="30.846557634494317" lon="-6.817293238185076"><ele>1155.0</ele><time>2026-05-05T13:14:56Z</time></trkpt><trkpt lat="30.846720706062595" lon="-6.817457720775027"><ele>1155.0</ele><time>2026-05-05T13:14:57Z</time></trkpt><trkpt lat="30.846879928237144" lon="-6.817632766198587"><ele>1155.0</ele><time>2026-05-05T13:14:58Z</time></trkpt><trkpt lat="30.847035892203838" lon="-6.8178149534472325"><ele>1156.3333333333333</ele><time>2026-05-05T13:14:59Z</time></trkpt><trkpt lat="30.84719538984823" lon="-6.817996688515534"><ele>1157.6666666666665</ele><time>2026-05-05T13:15:00Z</time></trkpt><trkpt lat="30.84735781671392" lon="-6.818180148431716"><ele>1159.0</ele><time>2026-05-05T13:15:01Z</time></trkpt><trkpt lat="30.847517070937553" lon="-6.818360749541694"><ele>1161.0</ele><time>2026-05-05T13:15:02Z</time></trkpt><trkpt lat="30.84767655405784" lon="-6.818544019816022"><ele>1163.0</ele><time>2026-05-05T13:15:03Z</time></trkpt><trkpt lat="30.84783372727664" lon="-6.818722323750575"><ele>1165.0</ele><time>2026-05-05T13:15:04Z</time></trkpt><trkpt lat="30.847990426259546" lon="-6.818902158884242"><ele>1165.0</ele><time>2026-05-05T13:15:05Z</time></trkpt><trkpt lat="30.84814649322655" lon="-6.8190780005739375"><ele>1165.0</ele><time>2026-05-05T13:15:06Z</time></trkpt><trkpt lat="30.848301579523884" lon="-6.8192551260601935"><ele>1165.0</ele><time>2026-05-05T13:15:07Z</time></trkpt><trkpt lat="30.848440845878425" lon="-6.8194376158865015"><ele>1165.3333333333333</ele><time>2026-05-05T13:15:08Z</time></trkpt><trkpt lat="30.84855546348447" lon="-6.819624788871393"><ele>1165.6666666666667</ele><time>2026-05-05T13:15:09Z</time></trkpt><trkpt lat="30.848650180273847" lon="-6.819827718204839"><ele>1166.0</ele><time>2026-05-05T13:15:10Z</time></trkpt><trkpt lat="30.848725224451716" lon="-6.820053372006527"><ele>1165.6666666666667</ele><time>2026-05-05T13:15:11Z</time></trkpt><trkpt lat="30.84878180122761" lon="-6.82029313744445"><ele>1165.3333333333333</ele><time>2026-05-05T13:15:12Z</time></trkpt><trkpt lat="30.848826659637737" lon="-6.820540688439161"><ele>1165.0</ele><time>2026-05-05T13:15:13Z</time></trkpt><trkpt lat="30.84887219422318" lon="-6.820784627430677"><ele>1165.6666666666665</ele><time>2026-05-05T13:15:14Z</time></trkpt><trkpt lat="30.84892374220957" lon="-6.821024532961317"><ele>1166.3333333333333</ele><time>2026-05-05T13:15:15Z</time></trkpt><trkpt lat="30.848978232196867" lon="-6.821265858017132"><ele>1167.0</ele><time>2026-05-05T13:15:16Z</time></trkpt><trkpt lat="30.849030818406085" lon="-6.821496984361981"><ele>1167.0</ele><time>2026-05-05T13:15:17Z</time></trkpt><trkpt lat="30.849082171301806" lon="-6.821732420743675"><ele>1167.0</ele><time>2026-05-05T13:15:18Z</time></trkpt><trkpt lat="30.8491308079337" lon="-6.821968959297034"><ele>1167.0</ele><time>2026-05-05T13:15:19Z</time></trkpt><trkpt lat="30.84918331474124" lon="-6.822205693181465"><ele>1165.6666666666667</ele><time>2026-05-05T13:15:20Z</time></trkpt><trkpt lat="30.849241571918217" lon="-6.822435330021449"><ele>1164.3333333333335</ele><time>2026-05-05T13:15:21Z</time></trkpt><trkpt lat="30.849304799239714" lon="-6.822661513581265"><ele>1163.0</ele><time>2026-05-05T13:15:22Z</time></trkpt><trkpt lat="30.849371063426116" lon="-6.822879267902427"><ele>1162.0</ele><time>2026-05-05T13:15:23Z</time></trkpt><trkpt lat="30.849440048034793" lon="-6.823090590933768"><ele>1161.0</ele><time>2026-05-05T13:15:24Z</time></trkpt><trkpt lat="30.849508035966473" lon="-6.82329778374122"><ele>1160.0</ele><time>2026-05-05T13:15:25Z</time></trkpt><trkpt lat="30.849573711685284" lon="-6.82350048278525"><ele>1159.6666666666667</ele><time>2026-05-05T13:15:26Z</time></trkpt><trkpt lat="30.849635385893514" lon="-6.823702548721914"><ele>1159.3333333333333</ele><time>2026-05-05T13:15:27Z</time></trkpt><trkpt lat="30.849699571829955" lon="-6.823910047239519"><ele>1159.0</ele><time>2026-05-05T13:15:28Z</time></trkpt><trkpt lat="30.849765944284393" lon="-6.824116447067145"><ele>1157.6666666666665</ele><time>2026-05-05T13:15:29Z</time></trkpt><trkpt lat="30.849827602695054" lon="-6.824317582726949"><ele>1156.3333333333333</ele><time>2026-05-05T13:15:30Z</time></trkpt><trkpt lat="30.84988838867048" lon="-6.824513097733227"><ele>1155.0</ele><time>2026-05-05T13:15:31Z</time></trkpt><trkpt lat="30.849953385163666" lon="-6.82469064598919"><ele>1155.0</ele><time>2026-05-05T13:15:32Z</time></trkpt><trkpt lat="30.850033783226742" lon="-6.824848298026982"><ele>1155.0</ele><time>2026-05-05T13:15:33Z</time></trkpt><trkpt lat="30.850128697779493" lon="-6.824993509687672"><ele>1155.0</ele><time>2026-05-05T13:15:34Z</time></trkpt><trkpt lat="30.850237208432954" lon="-6.8251232490275235"><ele>1154.0</ele><time>2026-05-05T13:15:35Z</time></trkpt><trkpt lat="30.85035482504992" lon="-6.825241811692663"><ele>1153.0</ele><time>2026-05-05T13:15:36Z</time></trkpt><trkpt lat="30.850479970071042" lon="-6.825352730937233"><ele>1152.0</ele><time>2026-05-05T13:15:37Z</time></trkpt><trkpt lat="30.850601627475633" lon="-6.825458479093465"><ele>1152.0</ele><time>2026-05-05T13:15:38Z</time></trkpt><trkpt lat="30.85071967380663" lon="-6.825566841176484"><ele>1152.0</ele><time>2026-05-05T13:15:39Z</time></trkpt><trkpt lat="30.85082447233446" lon="-6.825689146882173"><ele>1152.0</ele><time>2026-05-05T13:15:40Z</time></trkpt><trkpt lat="30.850914118055336" lon="-6.825826302110113"><ele>1152.0</ele><time>2026-05-05T13:15:41Z</time></trkpt><trkpt lat="30.85098909778972" lon="-6.825977033081496"><ele>1151.0</ele><time>2026-05-05T13:15:42Z</time></trkpt><trkpt lat="30.851057518406783" lon="-6.826135766013989"><ele>1150.0</ele><time>2026-05-05T13:15:43Z</time></trkpt><trkpt lat="30.85112422391774" lon="-6.826299286602719"><ele>1149.0</ele><time>2026-05-05T13:15:44Z</time></trkpt><trkpt lat="30.851192025995793" lon="-6.826463866246118"><ele>1149.0</ele><time>2026-05-05T13:15:45Z</time></trkpt><trkpt lat="30.851262168692415" lon="-6.826624504740361"><ele>1149.0</ele><time>2026-05-05T13:15:46Z</time></trkpt><trkpt lat="30.851329469273868" lon="-6.826783163426464"><ele>1149.0</ele><time>2026-05-05T13:15:47Z</time></trkpt><trkpt lat="30.85139357471884" lon="-6.8269432202563065"><ele>1148.0</ele><time>2026-05-05T13:15:48Z</time></trkpt><trkpt lat="30.85145921696621" lon="-6.827115982887169"><ele>1147.0</ele><time>2026-05-05T13:15:49Z</time></trkpt><trkpt lat="30.851507553466412" lon="-6.8273128433385475"><ele>1146.0</ele><time>2026-05-05T13:15:50Z</time></trkpt><trkpt lat="30.851547047045862" lon="-6.827537883512238"><ele>1144.3333333333333</ele><time>2026-05-05T13:15:51Z</time></trkpt><trkpt lat="30.85159640757461" lon="-6.82777832537594"><ele>1142.6666666666665</ele><time>2026-05-05T13:15:52Z</time></trkpt><trkpt lat="30.85165448526948" lon="-6.828016338957563"><ele>1141.0</ele><time>2026-05-05T13:15:53Z</time></trkpt><trkpt lat="30.85171048665801" lon="-6.828242699178542"><ele>1141.0</ele><time>2026-05-05T13:15:54Z</time></trkpt><trkpt lat="30.85175919781723" lon="-6.828467154673535"><ele>1141.0</ele><time>2026-05-05T13:15:55Z</time></trkpt><trkpt lat="30.8517978753643" lon="-6.828694598302823"><ele>1141.0</ele><time>2026-05-05T13:15:56Z</time></trkpt><trkpt lat="30.851827891800344" lon="-6.828930191891642"><ele>1140.3333333333333</ele><time>2026-05-05T13:15:57Z</time></trkpt><trkpt lat="30.851845864913475" lon="-6.8291753912886515"><ele>1139.6666666666667</ele><time>2026-05-05T13:15:58Z</time></trkpt><trkpt lat="30.851846796865658" lon="-6.829428851784178"><ele>1139.0</ele><time>2026-05-05T13:15:59Z</time></trkpt><trkpt lat="30.851839929392717" lon="-6.82968598908655"><ele>1138.0</ele><time>2026-05-05T13:16:00Z</time></trkpt><trkpt lat="30.85183781446769" lon="-6.829949613184041"><ele>1137.0</ele><time>2026-05-05T13:16:01Z</time></trkpt><trkpt lat="30.851838082171895" lon="-6.830209233733839"><ele>1136.0</ele><time>2026-05-05T13:16:02Z</time></trkpt><trkpt lat="30.851838308413928" lon="-6.83046225305016"><ele>1135.0</ele><time>2026-05-05T13:16:03Z</time></trkpt><trkpt lat="30.851836497533302" lon="-6.830708279385497"><ele>1134.0</ele><time>2026-05-05T13:16:04Z</time></trkpt><trkpt lat="30.85183608456795" lon="-6.83094548074265"><ele>1133.0</ele><time>2026-05-05T13:16:05Z</time></trkpt><trkpt lat="30.85185555996379" lon="-6.83116841722439"><ele>1133.0</ele><time>2026-05-05T13:16:06Z</time></trkpt><trkpt lat="30.85190983422421" lon="-6.831381503563169"><ele>1133.0</ele><time>2026-05-05T13:16:07Z</time></trkpt><trkpt lat="30.851999138530847" lon="-6.831570548353757"><ele>1133.0</ele><time>2026-05-05T13:16:08Z</time></trkpt><trkpt lat="30.85211535817342" lon="-6.831745424614007"><ele>1133.3333333333335</ele><time>2026-05-05T13:16:09Z</time></trkpt><trkpt lat="30.85225358251233" lon="-6.831909582557409"><ele>1133.6666666666667</ele><time>2026-05-05T13:16:10Z</time></trkpt><trkpt lat="30.852407608815533" lon="-6.83207189223329"><ele>1134.0</ele><time>2026-05-05T13:16:11Z</time></trkpt><trkpt lat="30.852567759384726" lon="-6.832238727503514"><ele>1132.3333333333333</ele><time>2026-05-05T13:16:12Z</time></trkpt><trkpt lat="30.852728961841624" lon="-6.83241472720006"><ele>1130.6666666666665</ele><time>2026-05-05T13:16:13Z</time></trkpt><trkpt lat="30.852890940442514" lon="-6.832597033867585"><ele>1129.0</ele><time>2026-05-05T13:16:14Z</time></trkpt><trkpt lat="30.853015617014837" lon="-6.832804731622519"><ele>1129.0</ele><time>2026-05-05T13:16:15Z</time></trkpt><trkpt lat="30.853170885851707" lon="-6.833005383394212"><ele>1129.0</ele><time>2026-05-05T13:16:16Z</time></trkpt><trkpt lat="30.853322611574427" lon="-6.833211225938768"><ele>1129.0</ele><time>2026-05-05T13:16:17Z</time></trkpt><trkpt lat="30.853479790363068" lon="-6.833418239793077"><ele>1129.0</ele><time>2026-05-05T13:16:18Z</time></trkpt><trkpt lat="30.853631307398537" lon="-6.833618651696341"><ele>1129.0</ele><time>2026-05-05T13:16:19Z</time></trkpt><trkpt lat="30.853785981807118" lon="-6.8338345422736495"><ele>1129.0</ele><time>2026-05-05T13:16:20Z</time></trkpt><trkpt lat="30.853935639829288" lon="-6.8340545606675205"><ele>1129.0</ele><time>2026-05-05T13:16:21Z</time></trkpt><trkpt lat="30.854091005702838" lon="-6.834274458271704"><ele>1129.0</ele><time>2026-05-05T13:16:22Z</time></trkpt><trkpt lat="30.854248708943775" lon="-6.834492899808359"><ele>1127.5</ele><time>2026-05-05T13:16:23Z</time></trkpt><trkpt lat="30.854402039483244" lon="-6.834713824560811"><ele>1126.0</ele><time>2026-05-05T13:16:24Z</time></trkpt><trkpt lat="30.854561073532842" lon="-6.834937626876979"><ele>1127.5</ele><time>2026-05-05T13:16:25Z</time></trkpt><trkpt lat="30.854720969196233" lon="-6.835160908775017"><ele>1129.0</ele><time>2026-05-05T13:16:26Z</time></trkpt><trkpt lat="30.854881302066307" lon="-6.835383657130667"><ele>1129.0</ele><time>2026-05-05T13:16:27Z</time></trkpt><trkpt lat="30.855043994787604" lon="-6.835589488435448"><ele>1129.0</ele><time>2026-05-05T13:16:28Z</time></trkpt><trkpt lat="30.855211842253922" lon="-6.835783107034517"><ele>1128.0</ele><time>2026-05-05T13:16:29Z</time></trkpt><trkpt lat="30.85538819010141" lon="-6.835969900089934"><ele>1127.0</ele><time>2026-05-05T13:16:30Z</time></trkpt><trkpt lat="30.85556530068369" lon="-6.836136632581709"><ele>1126.5</ele><time>2026-05-05T13:16:31Z</time></trkpt><trkpt lat="30.85574644073862" lon="-6.8362945096259615"><ele>1126.0</ele><time>2026-05-05T13:16:32Z</time></trkpt><trkpt lat="30.855919039752962" lon="-6.836461525532775"><ele>1125.0</ele><time>2026-05-05T13:16:33Z</time></trkpt><trkpt lat="30.856087861590236" lon="-6.8366286581716995"><ele>1124.0</ele><time>2026-05-05T13:16:34Z</time></trkpt><trkpt lat="30.856271657896134" lon="-6.836777397897712"><ele>1123.0</ele><time>2026-05-05T13:16:35Z</time></trkpt><trkpt lat="30.856454560510088" lon="-6.836934934098639"><ele>1125.0</ele><time>2026-05-05T13:16:36Z</time></trkpt><trkpt lat="30.856625988016358" lon="-6.837104033211859"><ele>1127.0</ele><time>2026-05-05T13:16:37Z</time></trkpt><trkpt lat="30.85681995227816" lon="-6.83724394589401"><ele>1127.0</ele><time>2026-05-05T13:16:38Z</time></trkpt><trkpt lat="30.857011938927524" lon="-6.8373804747255384"><ele>1127.0</ele><time>2026-05-05T13:16:39Z</time></trkpt><trkpt lat="30.857211617230696" lon="-6.837503398788921"><ele>1127.0</ele><time>2026-05-05T13:16:40Z</time></trkpt><trkpt lat="30.857414819912538" lon="-6.837619594032624"><ele>1127.0</ele><time>2026-05-05T13:16:41Z</time></trkpt><trkpt lat="30.85761748322253" lon="-6.8377360548196755"><ele>1126.5</ele><time>2026-05-05T13:16:42Z</time></trkpt><trkpt lat="30.85781815123052" lon="-6.837856210604488"><ele>1126.0</ele><time>2026-05-05T13:16:43Z</time></trkpt><trkpt lat="30.858021719054957" lon="-6.837975727884736"><ele>1126.0</ele><time>2026-05-05T13:16:44Z</time></trkpt><trkpt lat="30.858229206939757" lon="-6.838093513628739"><ele>1126.0</ele><time>2026-05-05T13:16:45Z</time></trkpt><trkpt lat="30.85843252381184" lon="-6.838209726530671"><ele>1125.0</ele><time>2026-05-05T13:16:46Z</time></trkpt><trkpt lat="30.85864026954084" lon="-6.838323898159618"><ele>1124.0</ele><time>2026-05-05T13:16:47Z</time></trkpt><trkpt lat="30.85884318780963" lon="-6.838437455788003"><ele>1127.5</ele><time>2026-05-05T13:16:48Z</time></trkpt><trkpt lat="30.859046981262996" lon="-6.838553153329364"><ele>1131.0</ele><time>2026-05-05T13:16:49Z</time></trkpt><trkpt lat="30.859248041992686" lon="-6.838669847600328"><ele>1131.0</ele><time>2026-05-05T13:16:50Z</time></trkpt><trkpt lat="30.859445935789243" lon="-6.838785308703084"><ele>1131.0</ele><time>2026-05-05T13:16:51Z</time></trkpt><trkpt lat="30.859642530257386" lon="-6.838905261009722"><ele>1131.0</ele><time>2026-05-05T13:16:52Z</time></trkpt><trkpt lat="30.85984054501249" lon="-6.839024854532318"><ele>1131.0</ele><time>2026-05-05T13:16:53Z</time></trkpt><trkpt lat="30.860040697926173" lon="-6.839138598876593"><ele>1131.0</ele><time>2026-05-05T13:16:54Z</time></trkpt><trkpt lat="30.860238719783208" lon="-6.839249738904033"><ele>1131.0</ele><time>2026-05-05T13:16:55Z</time></trkpt><trkpt lat="30.86043400129776" lon="-6.839360073078984"><ele>1133.3333333333333</ele><time>2026-05-05T13:16:56Z</time></trkpt><trkpt lat="30.86062721976423" lon="-6.8394784990684405"><ele>1135.6666666666665</ele><time>2026-05-05T13:16:57Z</time></trkpt><trkpt lat="30.860813362789827" lon="-6.839610644443593"><ele>1138.0</ele><time>2026-05-05T13:16:58Z</time></trkpt><trkpt lat="30.860989769862414" lon="-6.83976077350308"><ele>1138.0</ele><time>2026-05-05T13:16:59Z</time></trkpt><trkpt lat="30.861159347563888" lon="-6.8399290590473925"><ele>1138.0</ele><time>2026-05-05T13:17:00Z</time></trkpt><trkpt lat="30.861324130325272" lon="-6.840111583718251"><ele>1138.6666666666665</ele><time>2026-05-05T13:17:01Z</time></trkpt><trkpt lat="30.86147517578067" lon="-6.840303643388375"><ele>1139.3333333333333</ele><time>2026-05-05T13:17:02Z</time></trkpt><trkpt lat="30.86161284306858" lon="-6.840509934908757"><ele>1140.0</ele><time>2026-05-05T13:17:03Z</time></trkpt><trkpt lat="30.86173961889406" lon="-6.840727427884852"><ele>1138.0</ele><time>2026-05-05T13:17:04Z</time></trkpt><trkpt lat="30.861854991564705" lon="-6.8409551901170715"><ele>1136.0</ele><time>2026-05-05T13:17:05Z</time></trkpt><trkpt lat="30.86195549139768" lon="-6.8411923416495855"><ele>1133.5</ele><time>2026-05-05T13:17:06Z</time></trkpt><trkpt lat="30.862041003368816" lon="-6.841440203334758"><ele>1131.0</ele><time>2026-05-05T13:17:07Z</time></trkpt><trkpt lat="30.86211359806222" lon="-6.8416945471210635"><ele>1128.0</ele><time>2026-05-05T13:17:08Z</time></trkpt><trkpt lat="30.86217027743785" lon="-6.841959595657893"><ele>1125.0</ele><time>2026-05-05T13:17:09Z</time></trkpt><trkpt lat="30.862216753938178" lon="-6.842229922373622"><ele>1125.0</ele><time>2026-05-05T13:17:10Z</time></trkpt><trkpt lat="30.862254669280592" lon="-6.8425007331578"><ele>1125.0</ele><time>2026-05-05T13:17:11Z</time></trkpt><trkpt lat="30.86229448776591" lon="-6.842774799834503"><ele>1127.5</ele><time>2026-05-05T13:17:12Z</time></trkpt><trkpt lat="30.862336128096175" lon="-6.843043474471058"><ele>1130.0</ele><time>2026-05-05T13:17:13Z</time></trkpt><trkpt lat="30.86237651932058" lon="-6.843314545149214"><ele>1128.0</ele><time>2026-05-05T13:17:14Z</time></trkpt><trkpt lat="30.862416873996537" lon="-6.84358630554893"><ele>1126.0</ele><time>2026-05-05T13:17:15Z</time></trkpt><trkpt lat="30.86245636342206" lon="-6.843862052140955"><ele>1126.0</ele><time>2026-05-05T13:17:16Z</time></trkpt><trkpt lat="30.86249550659123" lon="-6.844139230954597"><ele>1126.0</ele><time>2026-05-05T13:17:17Z</time></trkpt><trkpt lat="30.862536147288438" lon="-6.8444182574319585"><ele>1125.5</ele><time>2026-05-05T13:17:18Z</time></trkpt><trkpt lat="30.86257729776671" lon="-6.844700338529734"><ele>1125.0</ele><time>2026-05-05T13:17:19Z</time></trkpt><trkpt lat="30.862562960370457" lon="-6.844981235687794"><ele>1125.5</ele><time>2026-05-05T13:17:20Z</time></trkpt><trkpt lat="30.86256825982513" lon="-6.84526404749397"><ele>1126.0</ele><time>2026-05-05T13:17:21Z</time></trkpt><trkpt lat="30.86270991506226" lon="-6.8455461653992025"><ele>1124.0</ele><time>2026-05-05T13:17:22Z</time></trkpt><trkpt lat="30.862750876145583" lon="-6.845822275517233"><ele>1122.0</ele><time>2026-05-05T13:17:23Z</time></trkpt><trkpt lat="30.862791596647366" lon="-6.846094302316789"><ele>1122.0</ele><time>2026-05-05T13:17:24Z</time></trkpt><trkpt lat="30.862832552889966" lon="-6.8463642103084155"><ele>1122.0</ele><time>2026-05-05T13:17:25Z</time></trkpt><trkpt lat="30.862870819712274" lon="-6.846633854294857"><ele>1122.5</ele><time>2026-05-05T13:17:26Z</time></trkpt><trkpt lat="30.86290826947219" lon="-6.846902184587312"><ele>1123.0</ele><time>2026-05-05T13:17:27Z</time></trkpt><trkpt lat="30.86294692478693" lon="-6.847171933801882"><ele>1123.0</ele><time>2026-05-05T13:17:28Z</time></trkpt><trkpt lat="30.862986426123346" lon="-6.847441078500479"><ele>1123.0</ele><time>2026-05-05T13:17:29Z</time></trkpt><trkpt lat="30.863024913010683" lon="-6.847706768402539"><ele>1124.5</ele><time>2026-05-05T13:17:30Z</time></trkpt><trkpt lat="30.863065315883368" lon="-6.847968907269897"><ele>1126.0</ele><time>2026-05-05T13:17:31Z</time></trkpt><trkpt lat="30.863105111349185" lon="-6.8482301991541075"><ele>1127.0</ele><time>2026-05-05T13:17:32Z</time></trkpt><trkpt lat="30.863145125634365" lon="-6.84849115895084"><ele>1128.0</ele><time>2026-05-05T13:17:33Z</time></trkpt><trkpt lat="30.863186072163305" lon="-6.848756966151063"><ele>1128.0</ele><time>2026-05-05T13:17:34Z</time></trkpt><trkpt lat="30.863227014343284" lon="-6.849022880820661"><ele>1128.0</ele><time>2026-05-05T13:17:35Z</time></trkpt><trkpt lat="30.86326685945089" lon="-6.849288449936527"><ele>1129.0</ele><time>2026-05-05T13:17:36Z</time></trkpt><trkpt lat="30.863304118398375" lon="-6.849556608979986"><ele>1130.0</ele><time>2026-05-05T13:17:37Z</time></trkpt><trkpt lat="30.86334591642012" lon="-6.84982496350394"><ele>1130.0</ele><time>2026-05-05T13:17:38Z</time></trkpt><trkpt lat="30.86339396954964" lon="-6.850089380959457"><ele>1130.0</ele><time>2026-05-05T13:17:39Z</time></trkpt><trkpt lat="30.86344686672582" lon="-6.850354004619373"><ele>1129.0</ele><time>2026-05-05T13:17:40Z</time></trkpt><trkpt lat="30.863504205858707" lon="-6.8506116816755505"><ele>1128.0</ele><time>2026-05-05T13:17:41Z</time></trkpt><trkpt lat="30.863562317126206" lon="-6.850871770884238"><ele>1128.5</ele><time>2026-05-05T13:17:42Z</time></trkpt><trkpt lat="30.863615713054546" lon="-6.851129647272351"><ele>1129.0</ele><time>2026-05-05T13:17:43Z</time></trkpt><trkpt lat="30.863670914593737" lon="-6.851391098412407"><ele>1129.0</ele><time>2026-05-05T13:17:44Z</time></trkpt><trkpt lat="30.863726930464125" lon="-6.851654864964001"><ele>1129.0</ele><time>2026-05-05T13:17:45Z</time></trkpt><trkpt lat="30.863783615911576" lon="-6.851915053192805"><ele>1130.0</ele><time>2026-05-05T13:17:46Z</time></trkpt><trkpt lat="30.863842236226375" lon="-6.852179282087794"><ele>1131.0</ele><time>2026-05-05T13:17:47Z</time></trkpt><trkpt lat="30.86390101078991" lon="-6.852441416482481"><ele>1130.5</ele><time>2026-05-05T13:17:48Z</time></trkpt><trkpt lat="30.863959169896866" lon="-6.8527035201783155"><ele>1130.0</ele><time>2026-05-05T13:17:49Z</time></trkpt><trkpt lat="30.86401460167818" lon="-6.852968736248613"><ele>1130.0</ele><time>2026-05-05T13:17:50Z</time></trkpt><trkpt lat="30.864070815692962" lon="-6.8532352217363695"><ele>1130.0</ele><time>2026-05-05T13:17:51Z</time></trkpt><trkpt lat="30.864127248583493" lon="-6.8534999601757365"><ele>1131.0</ele><time>2026-05-05T13:17:52Z</time></trkpt><trkpt lat="30.86418405636657" lon="-6.853768354057246"><ele>1132.0</ele><time>2026-05-05T13:17:53Z</time></trkpt><trkpt lat="30.864243821716126" lon="-6.854036716246999"><ele>1131.5</ele><time>2026-05-05T13:17:54Z</time></trkpt><trkpt lat="30.86430482870773" lon="-6.8543054552048135"><ele>1131.0</ele><time>2026-05-05T13:17:55Z</time></trkpt><trkpt lat="30.864363930316838" lon="-6.854575069508991"><ele>1131.0</ele><time>2026-05-05T13:17:56Z</time></trkpt><trkpt lat="30.864422443516634" lon="-6.854843944464328"><ele>1131.0</ele><time>2026-05-05T13:17:57Z</time></trkpt><trkpt lat="30.864483916143058" lon="-6.855117702690767"><ele>1131.0</ele><time>2026-05-05T13:17:58Z</time></trkpt><trkpt lat="30.86454283147639" lon="-6.855391369495822"><ele>1131.0</ele><time>2026-05-05T13:17:59Z</time></trkpt><trkpt lat="30.864600167201573" lon="-6.855665846172958"><ele>1131.0</ele><time>2026-05-05T13:18:00Z</time></trkpt><trkpt lat="30.86465898404146" lon="-6.855937112760784"><ele>1131.0</ele><time>2026-05-05T13:18:01Z</time></trkpt><trkpt lat="30.8647192011211" lon="-6.856208415193068"><ele>1131.0</ele><time>2026-05-05T13:18:02Z</time></trkpt><trkpt lat="30.864775336851093" lon="-6.8564764348987834"><ele>1131.0</ele><time>2026-05-05T13:18:03Z</time></trkpt><trkpt lat="30.864820575010587" lon="-6.856741148707447"><ele>1131.0</ele><time>2026-05-05T13:18:04Z</time></trkpt><trkpt lat="30.864848937119806" lon="-6.857008114445733"><ele>1131.0</ele><time>2026-05-05T13:18:05Z</time></trkpt><trkpt lat="30.864854946387496" lon="-6.8572796857991705"><ele>1131.0</ele><time>2026-05-05T13:18:06Z</time></trkpt><trkpt lat="30.864852261797367" lon="-6.857550425260101"><ele>1131.0</ele><time>2026-05-05T13:18:07Z</time></trkpt><trkpt lat="30.864835083546414" lon="-6.857814574525833"><ele>1131.0</ele><time>2026-05-05T13:18:08Z</time></trkpt><trkpt lat="30.864816399116304" lon="-6.858066826108011"><ele>1131.0</ele><time>2026-05-05T13:18:09Z</time></trkpt><trkpt lat="30.864793509271387" lon="-6.858314658716747"><ele>1131.0</ele><time>2026-05-05T13:18:10Z</time></trkpt><trkpt lat="30.864769928365856" lon="-6.858556551537066"><ele>1131.0</ele><time>2026-05-05T13:18:11Z</time></trkpt><trkpt lat="30.864745453521035" lon="-6.858795602053756"><ele>1131.0</ele><time>2026-05-05T13:18:12Z</time></trkpt><trkpt lat="30.86472572314789" lon="-6.859037376964533"><ele>1131.0</ele><time>2026-05-05T13:18:13Z</time></trkpt><trkpt lat="30.864719199394262" lon="-6.859283295692941"><ele>1131.3333333333333</ele><time>2026-05-05T13:18:14Z</time></trkpt><trkpt lat="30.864726605793336" lon="-6.859532458091342"><ele>1131.6666666666665</ele><time>2026-05-05T13:18:15Z</time></trkpt><trkpt lat="30.864749546391618" lon="-6.859780426157266"><ele>1132.0</ele><time>2026-05-05T13:18:16Z</time></trkpt><trkpt lat="30.864784403876634" lon="-6.860026514610716"><ele>1131.3333333333333</ele><time>2026-05-05T13:18:17Z</time></trkpt><trkpt lat="30.86483509135117" lon="-6.8602685018631355"><ele>1130.6666666666667</ele><time>2026-05-05T13:18:18Z</time></trkpt><trkpt lat="30.864902445598997" lon="-6.860502536339014"><ele>1130.0</ele><time>2026-05-05T13:18:19Z</time></trkpt><trkpt lat="30.864977673949504" lon="-6.8607269271454525"><ele>1130.0</ele><time>2026-05-05T13:18:20Z</time></trkpt><trkpt lat="30.865057752615325" lon="-6.860935445859296"><ele>1130.0</ele><time>2026-05-05T13:18:21Z</time></trkpt><trkpt lat="30.86513303753814" lon="-6.861135202669255"><ele>1130.0</ele><time>2026-05-05T13:18:22Z</time></trkpt><trkpt lat="30.86520594687185" lon="-6.861327021213695"><ele>1126.6666666666667</ele><time>2026-05-05T13:18:23Z</time></trkpt><trkpt lat="30.86527487541901" lon="-6.86150981713504"><ele>1123.3333333333333</ele><time>2026-05-05T13:18:24Z</time></trkpt><trkpt lat="30.86534292559689" lon="-6.861686386836949"><ele>1120.0</ele><time>2026-05-05T13:18:25Z</time></trkpt><trkpt lat="30.865410818688147" lon="-6.861861995015204"><ele>1119.3333333333333</ele><time>2026-05-05T13:18:26Z</time></trkpt><trkpt lat="30.86548090448465" lon="-6.862035680704007"><ele>1118.6666666666667</ele><time>2026-05-05T13:18:27Z</time></trkpt><trkpt lat="30.865549419052567" lon="-6.862205816333007"><ele>1118.0</ele><time>2026-05-05T13:18:28Z</time></trkpt><trkpt lat="30.865608277708887" lon="-6.862367685802223"><ele>1118.0</ele><time>2026-05-05T13:18:29Z</time></trkpt><trkpt lat="30.865666144906875" lon="-6.862524101696738"><ele>1118.0</ele><time>2026-05-05T13:18:30Z</time></trkpt><trkpt lat="30.865725028962288" lon="-6.862670944251561"><ele>1118.0</ele><time>2026-05-05T13:18:31Z</time></trkpt><trkpt lat="30.86578272578893" lon="-6.862817502841951"><ele>1118.0</ele><time>2026-05-05T13:18:32Z</time></trkpt><trkpt lat="30.865840039276804" lon="-6.862965222389084"><ele>1118.5</ele><time>2026-05-05T13:18:33Z</time></trkpt><trkpt lat="30.865894948556917" lon="-6.863107547792096"><ele>1119.0</ele><time>2026-05-05T13:18:34Z</time></trkpt><trkpt lat="30.86594556480156" lon="-6.863241639111391"><ele>1119.5</ele><time>2026-05-05T13:18:35Z</time></trkpt><trkpt lat="30.865995780912435" lon="-6.8633688638796535"><ele>1120.0</ele><time>2026-05-05T13:18:36Z</time></trkpt><trkpt lat="30.866046412675043" lon="-6.86349539555416"><ele>1121.25</ele><time>2026-05-05T13:18:37Z</time></trkpt><trkpt lat="30.86609182130539" lon="-6.863623802724939"><ele>1122.5</ele><time>2026-05-05T13:18:38Z</time></trkpt><trkpt lat="30.866138137428987" lon="-6.863749294341248"><ele>1123.75</ele><time>2026-05-05T13:18:39Z</time></trkpt><trkpt lat="30.86618404258859" lon="-6.863871301333941"><ele>1125.0</ele><time>2026-05-05T13:18:40Z</time></trkpt><trkpt lat="30.866227225243172" lon="-6.863978057459068"><ele>1125.0</ele><time>2026-05-05T13:18:41Z</time></trkpt><trkpt lat="30.8662666492697" lon="-6.864084512430886"><ele>1125.0</ele><time>2026-05-05T13:18:42Z</time></trkpt><trkpt lat="30.866307839941197" lon="-6.864183697381191"><ele>1125.0</ele><time>2026-05-05T13:18:43Z</time></trkpt><trkpt lat="30.86634359740797" lon="-6.864274495919132"><ele>1125.0</ele><time>2026-05-05T13:18:44Z</time></trkpt><trkpt lat="30.866379070919933" lon="-6.864366396982327"><ele>1125.0</ele><time>2026-05-05T13:18:45Z</time></trkpt><trkpt lat="30.866409948745257" lon="-6.86445324774139"><ele>1125.0</ele><time>2026-05-05T13:18:46Z</time></trkpt><trkpt lat="30.866443166755523" lon="-6.864549681124646"><ele>1125.75</ele><time>2026-05-05T13:18:47Z</time></trkpt><trkpt lat="30.866484062936635" lon="-6.864661636521397"><ele>1126.5</ele><time>2026-05-05T13:18:48Z</time></trkpt><trkpt lat="30.866540566651295" lon="-6.864795360228469"><ele>1127.25</ele><time>2026-05-05T13:18:49Z</time></trkpt><trkpt lat="30.866601004390212" lon="-6.864943247342088"><ele>1128.0</ele><time>2026-05-05T13:18:50Z</time></trkpt><trkpt lat="30.86666200828945" lon="-6.865098573196433"><ele>1127.6666666666667</ele><time>2026-05-05T13:18:51Z</time></trkpt><trkpt lat="30.866727661455872" lon="-6.865274153537393"><ele>1127.3333333333335</ele><time>2026-05-05T13:18:52Z</time></trkpt><trkpt lat="30.86679602524241" lon="-6.865463644767467"><ele>1127.0</ele><time>2026-05-05T13:18:53Z</time></trkpt><trkpt lat="30.86686818790595" lon="-6.8656575248061715"><ele>1127.0</ele><time>2026-05-05T13:18:54Z</time></trkpt><trkpt lat="30.866924053946267" lon="-6.865834823104562"><ele>1127.0</ele><time>2026-05-05T13:18:55Z</time></trkpt><trkpt lat="30.867000400502732" lon="-6.866040565229716"><ele>1127.0</ele><time>2026-05-05T13:18:56Z</time></trkpt><trkpt lat="30.867074937177843" lon="-6.86624443670668"><ele>1127.6666666666667</ele><time>2026-05-05T13:18:57Z</time></trkpt><trkpt lat="30.867152331540122" lon="-6.866452852537144"><ele>1128.3333333333333</ele><time>2026-05-05T13:18:58Z</time></trkpt><trkpt lat="30.867238519681116" lon="-6.866657768775991"><ele>1129.0</ele><time>2026-05-05T13:18:59Z</time></trkpt><trkpt lat="30.86729897355601" lon="-6.86688067320949"><ele>1130.0</ele><time>2026-05-05T13:19:00Z</time></trkpt><trkpt lat="30.867344463046685" lon="-6.867118206646513"><ele>1131.0</ele><time>2026-05-05T13:19:01Z</time></trkpt><trkpt lat="30.867379872337775" lon="-6.867356714991822"><ele>1132.0</ele><time>2026-05-05T13:19:02Z</time></trkpt><trkpt lat="30.867405409761446" lon="-6.867591087222285"><ele>1133.0</ele><time>2026-05-05T13:19:03Z</time></trkpt><trkpt lat="30.86742308736915" lon="-6.86783632088068"><ele>1134.0</ele><time>2026-05-05T13:19:04Z</time></trkpt><trkpt lat="30.867423241768016" lon="-6.8680738070815694"><ele>1135.0</ele><time>2026-05-05T13:19:05Z</time></trkpt><trkpt lat="30.867417681354112" lon="-6.868308625800167"><ele>1135.6666666666665</ele><time>2026-05-05T13:19:06Z</time></trkpt><trkpt lat="30.867395169774205" lon="-6.868554991019448"><ele>1136.3333333333333</ele><time>2026-05-05T13:19:07Z</time></trkpt><trkpt lat="30.8673645659033" lon="-6.86881101436488"><ele>1137.0</ele><time>2026-05-05T13:19:08Z</time></trkpt><trkpt lat="30.867346614256668" lon="-6.869056780971819"><ele>1138.3333333333333</ele><time>2026-05-05T13:19:09Z</time></trkpt><trkpt lat="30.867328083738318" lon="-6.869312764047364"><ele>1139.6666666666665</ele><time>2026-05-05T13:19:10Z</time></trkpt><trkpt lat="30.867309893653875" lon="-6.869566878982424"><ele>1141.0</ele><time>2026-05-05T13:19:11Z</time></trkpt><trkpt lat="30.86729088990521" lon="-6.869823499381056"><ele>1141.0</ele><time>2026-05-05T13:19:12Z</time></trkpt><trkpt lat="30.867274052208288" lon="-6.870069901620702"><ele>1141.0</ele><time>2026-05-05T13:19:12.999Z</time></trkpt><trkpt lat="30.86726628523332" lon="-6.8703232428611445"><ele>1141.0</ele><time>2026-05-05T13:19:13.999Z</time></trkpt><trkpt lat="30.867277094616405" lon="-6.870581687717163"><ele>1141.3333333333333</ele><time>2026-05-05T13:19:14.999Z</time></trkpt><trkpt lat="30.867307778605927" lon="-6.870825433624144"><ele>1141.6666666666667</ele><time>2026-05-05T13:19:15.999Z</time></trkpt><trkpt lat="30.867357808241884" lon="-6.87106617032493"><ele>1142.0</ele><time>2026-05-05T13:19:16.999Z</time></trkpt><trkpt lat="30.867424776487635" lon="-6.871303434868227"><ele>1141.6666666666667</ele><time>2026-05-05T13:19:17.999Z</time></trkpt><trkpt lat="30.867488853596825" lon="-6.871538447706183"><ele>1141.3333333333333</ele><time>2026-05-05T13:19:18.999Z</time></trkpt><trkpt lat="30.86757533816413" lon="-6.871768977869686"><ele>1141.0</ele><time>2026-05-05T13:19:19.999Z</time></trkpt><trkpt lat="30.867684934904773" lon="-6.871993148790419"><ele>1141.0</ele><time>2026-05-05T13:19:20.999Z</time></trkpt><trkpt lat="30.8678059059192" lon="-6.8722033328221155"><ele>1141.0</ele><time>2026-05-05T13:19:21.999Z</time></trkpt><trkpt lat="30.867921569484853" lon="-6.872418106398455"><ele>1141.0</ele><time>2026-05-05T13:19:22.999Z</time></trkpt><trkpt lat="30.86803831649982" lon="-6.872637169539024"><ele>1140.6666666666665</ele><time>2026-05-05T13:19:23.999Z</time></trkpt><trkpt lat="30.86819059051103" lon="-6.872829116771568"><ele>1140.3333333333333</ele><time>2026-05-05T13:19:24.999Z</time></trkpt><trkpt lat="30.868307023307747" lon="-6.873049654940167"><ele>1140.0</ele><time>2026-05-05T13:19:25.999Z</time></trkpt><trkpt lat="30.868426939617585" lon="-6.873265436469415"><ele>1141.6666666666667</ele><time>2026-05-05T13:19:26.999Z</time></trkpt><trkpt lat="30.868549664135678" lon="-6.873480253240553"><ele>1143.3333333333335</ele><time>2026-05-05T13:19:27.999Z</time></trkpt><trkpt lat="30.868676187757806" lon="-6.8736915476889004"><ele>1145.0</ele><time>2026-05-05T13:19:28.999Z</time></trkpt><trkpt lat="30.868801457702407" lon="-6.87390108900499"><ele>1145.0</ele><time>2026-05-05T13:19:29.999Z</time></trkpt><trkpt lat="30.868927504747013" lon="-6.874113005874226"><ele>1145.0</ele><time>2026-05-05T13:19:30.999Z</time></trkpt><trkpt lat="30.869054147944322" lon="-6.874323456210027"><ele>1145.0</ele><time>2026-05-05T13:19:31.999Z</time></trkpt><trkpt lat="30.869185053298498" lon="-6.874533258435107"><ele>1145.6666666666667</ele><time>2026-05-05T13:19:32.999Z</time></trkpt><trkpt lat="30.869318023744675" lon="-6.87474258968053"><ele>1146.3333333333333</ele><time>2026-05-05T13:19:33.999Z</time></trkpt><trkpt lat="30.869452322457256" lon="-6.874951954846448"><ele>1147.0</ele><time>2026-05-05T13:19:34.999Z</time></trkpt><trkpt lat="30.869587640751686" lon="-6.875163606704126"><ele>1147.0</ele><time>2026-05-05T13:19:35.999Z</time></trkpt><trkpt lat="30.869720368492292" lon="-6.875378103342348"><ele>1147.0</ele><time>2026-05-05T13:19:36.999Z</time></trkpt><trkpt lat="30.86984988166799" lon="-6.8755962934033885"><ele>1147.0</ele><time>2026-05-05T13:19:37.999Z</time></trkpt><trkpt lat="30.869975993910785" lon="-6.87582104128058"><ele>1147.0</ele><time>2026-05-05T13:19:38.999Z</time></trkpt><trkpt lat="30.870099576451217" lon="-6.876048306789989"><ele>1147.0</ele><time>2026-05-05T13:19:39.999Z</time></trkpt><trkpt lat="30.870219921409912" lon="-6.87627853235739"><ele>1147.0</ele><time>2026-05-05T13:19:40.999Z</time></trkpt><trkpt lat="30.870336852105954" lon="-6.876513581593466"><ele>1147.0</ele><time>2026-05-05T13:19:41.999Z</time></trkpt><trkpt lat="30.870450043424416" lon="-6.8767485407255355"><ele>1147.0</ele><time>2026-05-05T13:19:42.999Z</time></trkpt><trkpt lat="30.87056418530418" lon="-6.8769786951211325"><ele>1147.0</ele><time>2026-05-05T13:19:43.999Z</time></trkpt><trkpt lat="30.870682659345043" lon="-6.8772057717422195"><ele>1147.0</ele><time>2026-05-05T13:19:44.999Z</time></trkpt><trkpt lat="30.87080565794793" lon="-6.87742743399606"><ele>1148.0</ele><time>2026-05-05T13:19:45.999Z</time></trkpt><trkpt lat="30.870935817432915" lon="-6.8776534626767205"><ele>1149.0</ele><time>2026-05-05T13:19:46.999Z</time></trkpt><trkpt lat="30.871066849106054" lon="-6.877859745972738"><ele>1149.0</ele><time>2026-05-05T13:19:47.999Z</time></trkpt><trkpt lat="30.871203309278016" lon="-6.878070253032969"><ele>1149.0</ele><time>2026-05-05T13:19:48.999Z</time></trkpt><trkpt lat="30.87133941705818" lon="-6.87827889403788"><ele>1151.0</ele><time>2026-05-05T13:19:49.999Z</time></trkpt><trkpt lat="30.87147718215411" lon="-6.87849044526753"><ele>1153.0</ele><time>2026-05-05T13:19:51Z</time></trkpt><trkpt lat="30.871614737258124" lon="-6.878702495698112"><ele>1153.0</ele><time>2026-05-05T13:19:52Z</time></trkpt><trkpt lat="30.871753835048" lon="-6.878914101948729"><ele>1153.0</ele><time>2026-05-05T13:19:53Z</time></trkpt><trkpt lat="30.871894694494802" lon="-6.879125872127128"><ele>1153.5</ele><time>2026-05-05T13:19:54Z</time></trkpt><trkpt lat="30.872031681731723" lon="-6.879335384897123"><ele>1154.0</ele><time>2026-05-05T13:19:55Z</time></trkpt><trkpt lat="30.872167005802822" lon="-6.87955026820592"><ele>1154.0</ele><time>2026-05-05T13:19:56Z</time></trkpt><trkpt lat="30.872300212666854" lon="-6.879766162053667"><ele>1154.0</ele><time>2026-05-05T13:19:57Z</time></trkpt><trkpt lat="30.87242818440928" lon="-6.8799869839993235"><ele>1154.5</ele><time>2026-05-05T13:19:58Z</time></trkpt><trkpt lat="30.872550941353477" lon="-6.8802095706196145"><ele>1155.0</ele><time>2026-05-05T13:19:59Z</time></trkpt><trkpt lat="30.872671863222173" lon="-6.880434253130538"><ele>1155.0</ele><time>2026-05-05T13:20:00Z</time></trkpt><trkpt lat="30.872792217847127" lon="-6.880656787183162"><ele>1155.0</ele><time>2026-05-05T13:20:01Z</time></trkpt><trkpt lat="30.87291472626387" lon="-6.880878117323794"><ele>1155.6666666666667</ele><time>2026-05-05T13:20:02Z</time></trkpt><trkpt lat="30.873036531884964" lon="-6.88109313283162"><ele>1156.3333333333335</ele><time>2026-05-05T13:20:03Z</time></trkpt><trkpt lat="30.873158942289297" lon="-6.881307976387438"><ele>1157.0</ele><time>2026-05-05T13:20:04Z</time></trkpt><trkpt lat="30.873280163314103" lon="-6.881522882704432"><ele>1157.0</ele><time>2026-05-05T13:20:05Z</time></trkpt><trkpt lat="30.873403814264876" lon="-6.8817337175668545"><ele>1157.0</ele><time>2026-05-05T13:20:06Z</time></trkpt><trkpt lat="30.873540025626248" lon="-6.881938476539989"><ele>1157.0</ele><time>2026-05-05T13:20:07Z</time></trkpt><trkpt lat="30.87368630847462" lon="-6.882129116962928"><ele>1158.0</ele><time>2026-05-05T13:20:08Z</time></trkpt><trkpt lat="30.87384521771561" lon="-6.882307045437472"><ele>1159.0</ele><time>2026-05-05T13:20:09Z</time></trkpt><trkpt lat="30.874014236707524" lon="-6.882479217309443"><ele>1160.0</ele><time>2026-05-05T13:20:10Z</time></trkpt><trkpt lat="30.87418942387171" lon="-6.882643202504231"><ele>1160.6666666666667</ele><time>2026-05-05T13:20:11Z</time></trkpt><trkpt lat="30.874371607323692" lon="-6.882795413001409"><ele>1161.3333333333333</ele><time>2026-05-05T13:20:12Z</time></trkpt><trkpt lat="30.8745608161444" lon="-6.882934794127455"><ele>1162.0</ele><time>2026-05-05T13:20:13Z</time></trkpt><trkpt lat="30.874755365805814" lon="-6.883061887370398"><ele>1162.0</ele><time>2026-05-05T13:20:14Z</time></trkpt><trkpt lat="30.874954788125123" lon="-6.883176518911806"><ele>1162.0</ele><time>2026-05-05T13:20:15Z</time></trkpt><trkpt lat="30.875155940215482" lon="-6.883285592616884"><ele>1162.0</ele><time>2026-05-05T13:20:16Z</time></trkpt><trkpt lat="30.87535466165271" lon="-6.883394822207772"><ele>1163.6666666666665</ele><time>2026-05-05T13:20:17Z</time></trkpt><trkpt lat="30.87555135302469" lon="-6.883504308188514"><ele>1165.3333333333333</ele><time>2026-05-05T13:20:18Z</time></trkpt><trkpt lat="30.87574590930442" lon="-6.8836177177871845"><ele>1167.0</ele><time>2026-05-05T13:20:19Z</time></trkpt><trkpt lat="30.87593984810655" lon="-6.883726964505527"><ele>1170.6666666666667</ele><time>2026-05-05T13:20:20Z</time></trkpt><trkpt lat="30.876130910370552" lon="-6.88384537071874"><ele>1174.3333333333335</ele><time>2026-05-05T13:20:21Z</time></trkpt><trkpt lat="30.876323102361415" lon="-6.883958158408739"><ele>1178.0</ele><time>2026-05-05T13:20:22Z</time></trkpt><trkpt lat="30.876523855392815" lon="-6.884077934913927"><ele>1178.0</ele><time>2026-05-05T13:20:23Z</time></trkpt><trkpt lat="30.87670521794413" lon="-6.884200525783867"><ele>1178.0</ele><time>2026-05-05T13:20:24Z</time></trkpt><trkpt lat="30.876891961174486" lon="-6.884334545826676"><ele>1178.0</ele><time>2026-05-05T13:20:25Z</time></trkpt><trkpt lat="30.877074645007962" lon="-6.884476380525238"><ele>1179.3333333333335</ele><time>2026-05-05T13:20:26Z</time></trkpt><trkpt lat="30.877255781690703" lon="-6.884616329977341"><ele>1180.6666666666667</ele><time>2026-05-05T13:20:27Z</time></trkpt><trkpt lat="30.877439142669303" lon="-6.884757413462799"><ele>1182.0</ele><time>2026-05-05T13:20:28Z</time></trkpt><trkpt lat="30.877619833882985" lon="-6.8848972234937"><ele>1182.3333333333333</ele><time>2026-05-05T13:20:29Z</time></trkpt><trkpt lat="30.8777985306161" lon="-6.885039420904255"><ele>1182.6666666666665</ele><time>2026-05-05T13:20:30Z</time></trkpt><trkpt lat="30.877978735003325" lon="-6.885183405206353"><ele>1183.0</ele><time>2026-05-05T13:20:31Z</time></trkpt><trkpt lat="30.878154999295738" lon="-6.885327799351934"><ele>1183.0</ele><time>2026-05-05T13:20:32Z</time></trkpt><trkpt lat="30.878314054841667" lon="-6.885488744677606"><ele>1183.0</ele><time>2026-05-05T13:20:33Z</time></trkpt><trkpt lat="30.878495901911396" lon="-6.885632698831524"><ele>1183.0</ele><time>2026-05-05T13:20:34Z</time></trkpt><trkpt lat="30.878689250137008" lon="-6.885770934982297"><ele>1183.0</ele><time>2026-05-05T13:20:35Z</time></trkpt><trkpt lat="30.878871832234545" lon="-6.885914210748685"><ele>1183.0</ele><time>2026-05-05T13:20:36Z</time></trkpt><trkpt lat="30.879052096744132" lon="-6.886054673283176"><ele>1183.0</ele><time>2026-05-05T13:20:37Z</time></trkpt><trkpt lat="30.87923095189055" lon="-6.88619050550349"><ele>1185.3333333333333</ele><time>2026-05-05T13:20:38Z</time></trkpt><trkpt lat="30.879403774088125" lon="-6.886332773182536"><ele>1187.6666666666667</ele><time>2026-05-05T13:20:39Z</time></trkpt><trkpt lat="30.879593272049526" lon="-6.886469644205878"><ele>1190.0</ele><time>2026-05-05T13:20:40Z</time></trkpt><trkpt lat="30.879763137939477" lon="-6.88661036876702"><ele>1190.0</ele><time>2026-05-05T13:20:41Z</time></trkpt><trkpt lat="30.879941925666174" lon="-6.886751722860072"><ele>1190.0</ele><time>2026-05-05T13:20:42Z</time></trkpt><trkpt lat="30.8801244012959" lon="-6.886890032088063"><ele>1190.0</ele><time>2026-05-05T13:20:43Z</time></trkpt><trkpt lat="30.880307411923013" lon="-6.88703254632603"><ele>1191.3333333333335</ele><time>2026-05-05T13:20:44Z</time></trkpt><trkpt lat="30.880492983137906" lon="-6.8871709721769285"><ele>1192.6666666666667</ele><time>2026-05-05T13:20:45Z</time></trkpt><trkpt lat="30.88067658537494" lon="-6.887310191512928"><ele>1194.0</ele><time>2026-05-05T13:20:46Z</time></trkpt><trkpt lat="30.880865686611312" lon="-6.887449715759455"><ele>1195.0</ele><time>2026-05-05T13:20:47Z</time></trkpt><trkpt lat="30.881062108466438" lon="-6.887584610151066"><ele>1196.0</ele><time>2026-05-05T13:20:48Z</time></trkpt><trkpt lat="30.881247061875523" lon="-6.887720990496942"><ele>1197.0</ele><time>2026-05-05T13:20:49Z</time></trkpt><trkpt lat="30.88143066022662" lon="-6.887864582065333"><ele>1197.0</ele><time>2026-05-05T13:20:50Z</time></trkpt><trkpt lat="30.881613255559966" lon="-6.888010124002767"><ele>1197.0</ele><time>2026-05-05T13:20:50.999Z</time></trkpt><trkpt lat="30.881799904752903" lon="-6.888161945563109"><ele>1197.0</ele><time>2026-05-05T13:20:51.999Z</time></trkpt><trkpt lat="30.881992682332005" lon="-6.888306889279051"><ele>1195.6666666666667</ele><time>2026-05-05T13:20:52.999Z</time></trkpt><trkpt lat="30.88217800203689" lon="-6.88845103524186"><ele>1194.3333333333335</ele><time>2026-05-05T13:20:53.999Z</time></trkpt><trkpt lat="30.88232452016168" lon="-6.888592164575185"><ele>1193.0</ele><time>2026-05-05T13:20:54.999Z</time></trkpt><trkpt lat="30.882502526199566" lon="-6.888705918788386"><ele>1189.3333333333335</ele><time>2026-05-05T13:20:55.999Z</time></trkpt><trkpt lat="30.88266679414966" lon="-6.888831585517482"><ele>1185.6666666666667</ele><time>2026-05-05T13:20:56.999Z</time></trkpt><trkpt lat="30.882835563905896" lon="-6.888961268209533"><ele>1182.0</ele><time>2026-05-05T13:20:57.999Z</time></trkpt><trkpt lat="30.88301404003836" lon="-6.889094797021399"><ele>1182.0</ele><time>2026-05-05T13:20:58.999Z</time></trkpt><trkpt lat="30.883198976926614" lon="-6.88923315944048"><ele>1182.0</ele><time>2026-05-05T13:20:59.999Z</time></trkpt><trkpt lat="30.883382806523734" lon="-6.889371198368895"><ele>1182.0</ele><time>2026-05-05T13:21:00.999Z</time></trkpt><trkpt lat="30.883568117044838" lon="-6.889510440915321"><ele>1178.0</ele><time>2026-05-05T13:21:01.999Z</time></trkpt><trkpt lat="30.88374986307969" lon="-6.889646699508555"><ele>1174.0</ele><time>2026-05-05T13:21:02.999Z</time></trkpt><trkpt lat="30.88392615471459" lon="-6.88977999019154"><ele>1170.0</ele><time>2026-05-05T13:21:03.999Z</time></trkpt><trkpt lat="30.88409849401596" lon="-6.8899119156268"><ele>1170.6666666666667</ele><time>2026-05-05T13:21:04.999Z</time></trkpt><trkpt lat="30.884265348580975" lon="-6.890040745211082"><ele>1171.3333333333335</ele><time>2026-05-05T13:21:05.999Z</time></trkpt><trkpt lat="30.884426702115746" lon="-6.890165736470119"><ele>1172.0</ele><time>2026-05-05T13:21:06.999Z</time></trkpt><trkpt lat="30.884584479764523" lon="-6.890290326367537"><ele>1172.0</ele><time>2026-05-05T13:21:07.999Z</time></trkpt><trkpt lat="30.884732341572278" lon="-6.8904187656517975"><ele>1172.0</ele><time>2026-05-05T13:21:08.999Z</time></trkpt><trkpt lat="30.884877515912063" lon="-6.890544870458258"><ele>1172.0</ele><time>2026-05-05T13:21:09.999Z</time></trkpt><trkpt lat="30.88501764020891" lon="-6.890665903090883"><ele>1172.3333333333335</ele><time>2026-05-05T13:21:10.999Z</time></trkpt><trkpt lat="30.885147642773347" lon="-6.89079684145288"><ele>1172.6666666666667</ele><time>2026-05-05T13:21:11.999Z</time></trkpt><trkpt lat="30.88528688077003" lon="-6.890902066630846"><ele>1173.0</ele><time>2026-05-05T13:21:12.999Z</time></trkpt><trkpt lat="30.885422236659448" lon="-6.8910077356139"><ele>1170.0</ele><time>2026-05-05T13:21:13.999Z</time></trkpt><trkpt lat="30.885554570516284" lon="-6.891111273729085"><ele>1167.0</ele><time>2026-05-05T13:21:14.999Z</time></trkpt><trkpt lat="30.88568392280355" lon="-6.891214760997991"><ele>1164.0</ele><time>2026-05-05T13:21:15.999Z</time></trkpt><trkpt lat="30.885816331111627" lon="-6.891321485194355"><ele>1164.0</ele><time>2026-05-05T13:21:16.999Z</time></trkpt><trkpt lat="30.885954507889654" lon="-6.89143339878662"><ele>1164.0</ele><time>2026-05-05T13:21:17.999Z</time></trkpt><trkpt lat="30.886105255974748" lon="-6.891532159221277"><ele>1164.0</ele><time>2026-05-05T13:21:18.999Z</time></trkpt><trkpt lat="30.886252605066016" lon="-6.8916452361371014"><ele>1162.3333333333333</ele><time>2026-05-05T13:21:19.999Z</time></trkpt><trkpt lat="30.886398545506168" lon="-6.8917645861046894"><ele>1160.6666666666665</ele><time>2026-05-05T13:21:20.999Z</time></trkpt><trkpt lat="30.886528429729207" lon="-6.891890063673033"><ele>1159.0</ele><time>2026-05-05T13:21:21.999Z</time></trkpt><trkpt lat="30.886662559492702" lon="-6.891995924487369"><ele>1159.3333333333333</ele><time>2026-05-05T13:21:22.999Z</time></trkpt><trkpt lat="30.886794517844468" lon="-6.892103718046636"><ele>1159.6666666666667</ele><time>2026-05-05T13:21:23.999Z</time></trkpt><trkpt lat="30.8869309542911" lon="-6.892209763597463"><ele>1160.0</ele><time>2026-05-05T13:21:24.999Z</time></trkpt><trkpt lat="30.887074042948438" lon="-6.8923172733215345"><ele>1160.0</ele><time>2026-05-05T13:21:25.999Z</time></trkpt><trkpt lat="30.887218288349104" lon="-6.892422771068975"><ele>1160.0</ele><time>2026-05-05T13:21:26.999Z</time></trkpt><trkpt lat="30.88736266143262" lon="-6.892537069791183"><ele>1160.0</ele><time>2026-05-05T13:21:27.999Z</time></trkpt><trkpt lat="30.88750650392782" lon="-6.89264768377386"><ele>1158.3333333333335</ele><time>2026-05-05T13:21:28.999Z</time></trkpt><trkpt lat="30.88764217930954" lon="-6.8927531753550655"><ele>1156.6666666666667</ele><time>2026-05-05T13:21:29.999Z</time></trkpt><trkpt lat="30.887772414145477" lon="-6.892854438349471"><ele>1155.0</ele><time>2026-05-05T13:21:30.999Z</time></trkpt><trkpt lat="30.887894804168663" lon="-6.892946868200013"><ele>1155.0</ele><time>2026-05-05T13:21:31.999Z</time></trkpt><trkpt lat="30.88800826000215" lon="-6.893035753827337"><ele>1155.0</ele><time>2026-05-05T13:21:32.999Z</time></trkpt><trkpt lat="30.88811504268463" lon="-6.893120244417813"><ele>1155.0</ele><time>2026-05-05T13:21:33.999Z</time></trkpt><trkpt lat="30.888205870970335" lon="-6.893196546012382"><ele>1155.0</ele><time>2026-05-05T13:21:34.999Z</time></trkpt><trkpt lat="30.888273552002882" lon="-6.893248496056293"><ele>1155.0</ele><time>2026-05-05T13:21:35.999Z</time></trkpt><trkpt lat="30.888352566555223" lon="-6.893275570086772"><ele>1155.0</ele><time>2026-05-05T13:21:37.999Z</time></trkpt><trkpt lat="30.888465951492066" lon="-6.893172708976334"><ele>1155.0</ele><time>2026-05-05T13:21:40.999Z</time></trkpt><trkpt lat="30.888532092945447" lon="-6.893112382957209"><ele>1155.0</ele><time>2026-05-05T13:21:42.999Z</time></trkpt><trkpt lat="30.88859865828158" lon="-6.893103969713312"><ele>1155.0</ele><time>2026-05-05T13:21:44.999Z</time></trkpt><trkpt lat="30.888659813604768" lon="-6.893188222328172"><ele>1154.4</ele><time>2026-05-05T13:29:25Z</time></trkpt><trkpt lat="30.888707158464356" lon="-6.893297394252937"><ele>1153.8</ele><time>2026-05-05T13:29:28Z</time></trkpt><trkpt lat="30.888729890890726" lon="-6.893412999931455"><ele>1153.2</ele><time>2026-05-05T13:29:30Z</time></trkpt><trkpt lat="30.888750014220083" lon="-6.893512128952529"><ele>1152.6</ele><time>2026-05-05T13:29:32Z</time></trkpt><trkpt lat="30.888801855099153" lon="-6.89359309108697"><ele>1152.0</ele><time>2026-05-05T13:29:34Z</time></trkpt><trkpt lat="30.888865434116667" lon="-6.893657139704811"><ele>1152.0</ele><time>2026-05-05T13:29:35Z</time></trkpt><trkpt lat="30.888952601356554" lon="-6.893725294351688"><ele>1152.0</ele><time>2026-05-05T13:29:36Z</time></trkpt><trkpt lat="30.889055956735096" lon="-6.89380177825612"><ele>1152.0</ele><time>2026-05-05T13:29:37Z</time></trkpt><trkpt lat="30.889180348132086" lon="-6.893896954717985"><ele>1152.0</ele><time>2026-05-05T13:29:38Z</time></trkpt><trkpt lat="30.889307480072905" lon="-6.893999819250725"><ele>1152.6666666666667</ele><time>2026-05-05T13:29:39Z</time></trkpt><trkpt lat="30.889450480915702" lon="-6.894101439083864"><ele>1153.3333333333335</ele><time>2026-05-05T13:29:40Z</time></trkpt><trkpt lat="30.889600912147532" lon="-6.894215162446885"><ele>1154.0</ele><time>2026-05-05T13:29:41Z</time></trkpt><trkpt lat="30.88974874047572" lon="-6.894341462206332"><ele>1154.0</ele><time>2026-05-05T13:29:42Z</time></trkpt><trkpt lat="30.889901428722784" lon="-6.8944638772811695"><ele>1154.0</ele><time>2026-05-05T13:29:43Z</time></trkpt><trkpt lat="30.89005934926818" lon="-6.894590718353827"><ele>1154.0</ele><time>2026-05-05T13:29:44Z</time></trkpt><trkpt lat="30.890217798251676" lon="-6.894704517849401"><ele>1152.6666666666667</ele><time>2026-05-05T13:29:45Z</time></trkpt><trkpt lat="30.890369378976214" lon="-6.894826433446657"><ele>1151.3333333333333</ele><time>2026-05-05T13:29:46Z</time></trkpt><trkpt lat="30.890516858477614" lon="-6.894944336495914"><ele>1150.0</ele><time>2026-05-05T13:29:47Z</time></trkpt><trkpt lat="30.890661558366155" lon="-6.895053785821546"><ele>1150.0</ele><time>2026-05-05T13:29:48Z</time></trkpt><trkpt lat="30.89079517898688" lon="-6.895153895570819"><ele>1150.0</ele><time>2026-05-05T13:29:49Z</time></trkpt><trkpt lat="30.890928383820807" lon="-6.895255187626226"><ele>1150.0</ele><time>2026-05-05T13:29:50Z</time></trkpt><trkpt lat="30.89106125470897" lon="-6.895355906429313"><ele>1148.0</ele><time>2026-05-05T13:29:51Z</time></trkpt><trkpt lat="30.891189841696406" lon="-6.895454110597774"><ele>1146.0</ele><time>2026-05-05T13:29:52Z</time></trkpt><trkpt lat="30.891320156348264" lon="-6.895552650499192"><ele>1144.0</ele><time>2026-05-05T13:29:53Z</time></trkpt><trkpt lat="30.891443755276644" lon="-6.895656071732713"><ele>1144.0</ele><time>2026-05-05T13:29:54Z</time></trkpt><trkpt lat="30.891575073365747" lon="-6.8957553108360115"><ele>1144.0</ele><time>2026-05-05T13:29:55Z</time></trkpt><trkpt lat="30.89170994977556" lon="-6.89585615272686"><ele>1144.0</ele><time>2026-05-05T13:29:56Z</time></trkpt><trkpt lat="30.891833046357966" lon="-6.89595579966855"><ele>1144.0</ele><time>2026-05-05T13:29:57Z</time></trkpt><trkpt lat="30.891944903623155" lon="-6.896056051090473"><ele>1144.0</ele><time>2026-05-05T13:29:58Z</time></trkpt><trkpt lat="30.892068536257668" lon="-6.8961532053258985"><ele>1144.0</ele><time>2026-05-05T13:29:59Z</time></trkpt><trkpt lat="30.892195122564605" lon="-6.896250880433711"><ele>1144.0</ele><time>2026-05-05T13:30:00Z</time></trkpt><trkpt lat="30.89232169809028" lon="-6.896348760410577"><ele>1144.0</ele><time>2026-05-05T13:30:01Z</time></trkpt><trkpt lat="30.89245157405181" lon="-6.896448159601011"><ele>1144.0</ele><time>2026-05-05T13:30:02Z</time></trkpt><trkpt lat="30.892584982928103" lon="-6.896554111379154"><ele>1144.0</ele><time>2026-05-05T13:30:03Z</time></trkpt><trkpt lat="30.892716203910094" lon="-6.896661084740695"><ele>1143.6666666666665</ele><time>2026-05-05T13:30:04Z</time></trkpt><trkpt lat="30.892845927869708" lon="-6.896768995487895"><ele>1143.3333333333333</ele><time>2026-05-05T13:30:05Z</time></trkpt><trkpt lat="30.892972151757572" lon="-6.89686861518216"><ele>1143.0</ele><time>2026-05-05T13:30:06Z</time></trkpt><trkpt lat="30.89309488970672" lon="-6.896964242628953"><ele>1143.0</ele><time>2026-05-05T13:30:07Z</time></trkpt><trkpt lat="30.893215272751153" lon="-6.897062032271022"><ele>1143.0</ele><time>2026-05-05T13:30:08Z</time></trkpt><trkpt lat="30.893329142233902" lon="-6.897159118219855"><ele>1143.0</ele><time>2026-05-05T13:30:09Z</time></trkpt><trkpt lat="30.893439449629607" lon="-6.897256351724297"><ele>1143.0</ele><time>2026-05-05T13:30:10Z</time></trkpt><trkpt lat="30.893555412677866" lon="-6.897353527272387"><ele>1142.5</ele><time>2026-05-05T13:30:11Z</time></trkpt><trkpt lat="30.89367122657489" lon="-6.897449165959905"><ele>1142.0</ele><time>2026-05-05T13:30:12Z</time></trkpt><trkpt lat="30.893783308721936" lon="-6.897554322106878"><ele>1141.5</ele><time>2026-05-05T13:30:13Z</time></trkpt><trkpt lat="30.89388978913395" lon="-6.897661233654104"><ele>1141.0</ele><time>2026-05-05T13:30:14Z</time></trkpt><trkpt lat="30.89399324079552" lon="-6.897767226910833"><ele>1141.0</ele><time>2026-05-05T13:30:15Z</time></trkpt><trkpt lat="30.894092281993007" lon="-6.89787064381911"><ele>1141.0</ele><time>2026-05-05T13:30:16Z</time></trkpt><trkpt lat="30.894190574439417" lon="-6.8979774589192555"><ele>1141.0</ele><time>2026-05-05T13:30:17Z</time></trkpt><trkpt lat="30.894289502341728" lon="-6.89808283731499"><ele>1141.0</ele><time>2026-05-05T13:30:18Z</time></trkpt><trkpt lat="30.894379459039246" lon="-6.8981947402037225"><ele>1139.5</ele><time>2026-05-05T13:30:19Z</time></trkpt><trkpt lat="30.89446338435036" lon="-6.8983075624038"><ele>1138.0</ele><time>2026-05-05T13:30:20Z</time></trkpt><trkpt lat="30.89454918559217" lon="-6.898414776754301"><ele>1136.5</ele><time>2026-05-05T13:30:21Z</time></trkpt><trkpt lat="30.894634762075622" lon="-6.898513402108099"><ele>1135.0</ele><time>2026-05-05T13:30:22Z</time></trkpt><trkpt lat="30.894716692663657" lon="-6.898618056174553"><ele>1135.0</ele><time>2026-05-05T13:30:23Z</time></trkpt><trkpt lat="30.894802001631838" lon="-6.898721175187352"><ele>1135.0</ele><time>2026-05-05T13:30:24Z</time></trkpt><trkpt lat="30.894886990354227" lon="-6.8988302583091885"><ele>1135.0</ele><time>2026-05-05T13:30:25Z</time></trkpt><trkpt lat="30.894976330252398" lon="-6.898944750121251"><ele>1135.0</ele><time>2026-05-05T13:30:26Z</time></trkpt><trkpt lat="30.895066935063326" lon="-6.899062686463438"><ele>1135.0</ele><time>2026-05-05T13:30:27Z</time></trkpt><trkpt lat="30.895161777010276" lon="-6.8991780912058145"><ele>1135.0</ele><time>2026-05-05T13:30:28Z</time></trkpt><trkpt lat="30.89525407135921" lon="-6.8992913368933095"><ele>1135.0</ele><time>2026-05-05T13:30:29Z</time></trkpt><trkpt lat="30.895341836307974" lon="-6.89940366267529"><ele>1135.0</ele><time>2026-05-05T13:30:30Z</time></trkpt><trkpt lat="30.89542362957785" lon="-6.899511483714364"><ele>1135.0</ele><time>2026-05-05T13:30:31Z</time></trkpt><trkpt lat="30.895503546207124" lon="-6.899613813219269"><ele>1135.0</ele><time>2026-05-05T13:30:32Z</time></trkpt><trkpt lat="30.895579904693353" lon="-6.899721331181029"><ele>1135.0</ele><time>2026-05-05T13:30:33Z</time></trkpt><trkpt lat="30.89566158995255" lon="-6.899828875139704"><ele>1135.0</ele><time>2026-05-05T13:30:34Z</time></trkpt><trkpt lat="30.895735419196534" lon="-6.899922868254686"><ele>1135.0</ele><time>2026-05-05T13:30:35Z</time></trkpt><trkpt lat="30.89580982734998" lon="-6.900034101367257"><ele>1135.0</ele><time>2026-05-05T13:30:36Z</time></trkpt><trkpt lat="30.895875656436296" lon="-6.900150980969972"><ele>1135.0</ele><time>2026-05-05T13:30:37Z</time></trkpt><trkpt lat="30.89594867408393" lon="-6.900262627974813"><ele>1135.0</ele><time>2026-05-05T13:30:38Z</time></trkpt><trkpt lat="30.89601943693269" lon="-6.900383462556086"><ele>1134.8</ele><time>2026-05-05T13:30:39Z</time></trkpt><trkpt lat="30.896081950467735" lon="-6.900501530396602"><ele>1134.6</ele><time>2026-05-05T13:30:40Z</time></trkpt><trkpt lat="30.896138993122662" lon="-6.900615904885748"><ele>1134.4</ele><time>2026-05-05T13:30:41Z</time></trkpt><trkpt lat="30.89619643354208" lon="-6.900720973827289"><ele>1134.2</ele><time>2026-05-05T13:30:42Z</time></trkpt><trkpt lat="30.896241837248077" lon="-6.900831386297068"><ele>1134.0</ele><time>2026-05-05T13:30:43Z</time></trkpt><trkpt lat="30.896286735572964" lon="-6.90094485568793"><ele>1133.6000000000001</ele><time>2026-05-05T13:30:44Z</time></trkpt><trkpt lat="30.89632905875783" lon="-6.901055800738955"><ele>1133.2</ele><time>2026-05-05T13:30:45Z</time></trkpt><trkpt lat="30.89636833212378" lon="-6.901171160538477"><ele>1132.8000000000002</ele><time>2026-05-05T13:30:46Z</time></trkpt><trkpt lat="30.896406606689418" lon="-6.9012879062369885"><ele>1132.4</ele><time>2026-05-05T13:30:47Z</time></trkpt><trkpt lat="30.896446796378225" lon="-6.901404917631245"><ele>1132.0</ele><time>2026-05-05T13:30:48Z</time></trkpt><trkpt lat="30.896478863574128" lon="-6.901524188791673"><ele>1132.0</ele><time>2026-05-05T13:30:49Z</time></trkpt><trkpt lat="30.896510375307592" lon="-6.901640507730546"><ele>1132.0</ele><time>2026-05-05T13:30:50Z</time></trkpt><trkpt lat="30.896548750588586" lon="-6.901761353662386"><ele>1132.0</ele><time>2026-05-05T13:30:51Z</time></trkpt><trkpt lat="30.896583925644887" lon="-6.901876848557071"><ele>1132.0</ele><time>2026-05-05T13:30:52Z</time></trkpt><trkpt lat="30.89662162206688" lon="-6.9019978298908855"><ele>1132.0</ele><time>2026-05-05T13:30:53Z</time></trkpt><trkpt lat="30.89665994925549" lon="-6.902124699457707"><ele>1131.25</ele><time>2026-05-05T13:30:54Z</time></trkpt><trkpt lat="30.896698188365693" lon="-6.902258833839807"><ele>1130.5</ele><time>2026-05-05T13:30:55Z</time></trkpt><trkpt lat="30.896744922629825" lon="-6.902399297886139"><ele>1129.75</ele><time>2026-05-05T13:30:56Z</time></trkpt><trkpt lat="30.89679323667197" lon="-6.902544921524522"><ele>1129.0</ele><time>2026-05-05T13:30:57Z</time></trkpt><trkpt lat="30.89685140310393" lon="-6.902688444335185"><ele>1127.75</ele><time>2026-05-05T13:30:58Z</time></trkpt><trkpt lat="30.896900074898227" lon="-6.902839722182442"><ele>1126.5</ele><time>2026-05-05T13:30:59Z</time></trkpt><trkpt lat="30.896950434194682" lon="-6.902989450573015"><ele>1125.25</ele><time>2026-05-05T13:31:00Z</time></trkpt><trkpt lat="30.896996360374157" lon="-6.903131491103981"><ele>1124.0</ele><time>2026-05-05T13:31:01Z</time></trkpt><trkpt lat="30.897039738616385" lon="-6.903264890493106"><ele>1124.0</ele><time>2026-05-05T13:31:02Z</time></trkpt><trkpt lat="30.89707890212637" lon="-6.903395739725015"><ele>1124.0</ele><time>2026-05-05T13:31:03Z</time></trkpt><trkpt lat="30.8971195106465" lon="-6.903519985527678"><ele>1124.0</ele><time>2026-05-05T13:31:04Z</time></trkpt><trkpt lat="30.897158788710925" lon="-6.903638045524686"><ele>1124.0</ele><time>2026-05-05T13:31:05Z</time></trkpt><trkpt lat="30.89719689945239" lon="-6.90375542950223"><ele>1124.0</ele><time>2026-05-05T13:31:06Z</time></trkpt><trkpt lat="30.8972346459909" lon="-6.903873322795208"><ele>1124.2</ele><time>2026-05-05T13:31:07Z</time></trkpt><trkpt lat="30.89725575612611" lon="-6.904000013156338"><ele>1124.4</ele><time>2026-05-05T13:31:08Z</time></trkpt><trkpt lat="30.897292454250245" lon="-6.904120990047368"><ele>1124.6</ele><time>2026-05-05T13:31:09Z</time></trkpt><trkpt lat="30.897329346972427" lon="-6.904242609112648"><ele>1124.8</ele><time>2026-05-05T13:31:10Z</time></trkpt><trkpt lat="30.897369612151156" lon="-6.904368885901155"><ele>1125.0</ele><time>2026-05-05T13:31:11Z</time></trkpt><trkpt lat="30.89740942392224" lon="-6.904495602543017"><ele>1125.0</ele><time>2026-05-05T13:31:12Z</time></trkpt><trkpt lat="30.89745018472966" lon="-6.904624143316568"><ele>1125.0</ele><time>2026-05-05T13:31:13Z</time></trkpt><trkpt lat="30.897492090967678" lon="-6.904756697723811"><ele>1125.0</ele><time>2026-05-05T13:31:14Z</time></trkpt><trkpt lat="30.897534323380203" lon="-6.904886166923817"><ele>1125.0</ele><time>2026-05-05T13:31:15Z</time></trkpt><trkpt lat="30.897592289388996" lon="-6.905010381370556"><ele>1125.75</ele><time>2026-05-05T13:31:16Z</time></trkpt><trkpt lat="30.897634799020206" lon="-6.905140251928459"><ele>1126.5</ele><time>2026-05-05T13:31:17Z</time></trkpt><trkpt lat="30.8976785178023" lon="-6.905268825070994"><ele>1127.25</ele><time>2026-05-05T13:31:18Z</time></trkpt><trkpt lat="30.89772450306551" lon="-6.905396101882399"><ele>1128.0</ele><time>2026-05-05T13:31:19Z</time></trkpt><trkpt lat="30.89776745410465" lon="-6.905520452805592"><ele>1128.0</ele><time>2026-05-05T13:31:20Z</time></trkpt><trkpt lat="30.897810162604703" lon="-6.905646126040192"><ele>1128.0</ele><time>2026-05-05T13:31:21Z</time></trkpt><trkpt lat="30.89785304415944" lon="-6.905771598773907"><ele>1128.0</ele><time>2026-05-05T13:31:22Z</time></trkpt><trkpt lat="30.897893656435553" lon="-6.905903728622494"><ele>1128.0</ele><time>2026-05-05T13:31:23Z</time></trkpt><trkpt lat="30.89793370081644" lon="-6.906030046622552"><ele>1128.0</ele><time>2026-05-05T13:31:24Z</time></trkpt><trkpt lat="30.89795991725165" lon="-6.906160009357999"><ele>1128.0</ele><time>2026-05-05T13:31:25Z</time></trkpt><trkpt lat="30.898009537059103" lon="-6.906267182689745"><ele>1128.0</ele><time>2026-05-05T13:31:26Z</time></trkpt><trkpt lat="30.89804284860319" lon="-6.906369042879608"><ele>1128.0</ele><time>2026-05-05T13:31:27Z</time></trkpt><trkpt lat="30.89807529069971" lon="-6.906485127303673"><ele>1128.0</ele><time>2026-05-05T13:31:29Z</time></trkpt><trkpt lat="30.898097163979934" lon="-6.906572754852201"><ele>1128.0</ele><time>2026-05-05T13:31:31Z</time></trkpt><trkpt lat="30.89814847240622" lon="-6.906721128201921"><ele>1128.0</ele><time>2026-05-05T13:31:33Z</time></trkpt><trkpt lat="30.898180885732817" lon="-6.906806174834647"><ele>1128.0</ele><time>2026-05-05T13:31:34Z</time></trkpt><trkpt lat="30.898203959434312" lon="-6.906887969081967"><ele>1128.0</ele><time>2026-05-05T13:31:35Z</time></trkpt><trkpt lat="30.898228730360543" lon="-6.906964744376885"><ele>1128.0</ele><time>2026-05-05T13:31:36Z</time></trkpt><trkpt lat="30.898258236383175" lon="-6.907042530392957"><ele>1128.0</ele><time>2026-05-05T13:31:37Z</time></trkpt><trkpt lat="30.8982885494991" lon="-6.907113511816308"><ele>1128.1666666666667</ele><time>2026-05-05T13:31:38Z</time></trkpt><trkpt lat="30.898312508473282" lon="-6.907189728212418"><ele>1128.3333333333333</ele><time>2026-05-05T13:31:39Z</time></trkpt><trkpt lat="30.89835040265996" lon="-6.907321706672951"><ele>1128.5</ele><time>2026-05-05T13:31:41Z</time></trkpt><trkpt lat="30.89838660669798" lon="-6.907435093224468"><ele>1128.6666666666665</ele><time>2026-05-05T13:31:43Z</time></trkpt><trkpt lat="30.89840993426349" lon="-6.907506648394095"><ele>1128.8333333333333</ele><time>2026-05-05T13:31:46Z</time></trkpt><trkpt lat="30.898442911495252" lon="-6.907603243147739"><ele>1129.0</ele><time>2026-05-05T13:32:02Z</time></trkpt><trkpt lat="30.898492673851376" lon="-6.907744001632302"><ele>1129.3333333333333</ele><time>2026-05-05T13:32:04Z</time></trkpt><trkpt lat="30.89851928818513" lon="-6.907831706931765"><ele>1129.6666666666665</ele><time>2026-05-05T13:32:05Z</time></trkpt><trkpt lat="30.898545828513747" lon="-6.907926810885813"><ele>1130.0</ele><time>2026-05-05T13:32:06Z</time></trkpt><trkpt lat="30.898574447939993" lon="-6.908014333086294"><ele>1130.3333333333333</ele><time>2026-05-05T13:32:07Z</time></trkpt><trkpt lat="30.89860678775902" lon="-6.908109195771147"><ele>1130.6666666666667</ele><time>2026-05-05T13:32:08Z</time></trkpt><trkpt lat="30.898636037732967" lon="-6.908210119398331"><ele>1131.0</ele><time>2026-05-05T13:32:09Z</time></trkpt><trkpt lat="30.898661942337824" lon="-6.908307367485614"><ele>1131.3999999999999</ele><time>2026-05-05T13:32:10Z</time></trkpt><trkpt lat="30.89868990047748" lon="-6.908410528497258"><ele>1131.8</ele><time>2026-05-05T13:32:11Z</time></trkpt><trkpt lat="30.898721604720343" lon="-6.908511577891123"><ele>1132.1999999999998</ele><time>2026-05-05T13:32:12Z</time></trkpt><trkpt lat="30.89875382100968" lon="-6.90860863657513"><ele>1132.6</ele><time>2026-05-05T13:32:13Z</time></trkpt><trkpt lat="30.898789335505416" lon="-6.908700789371115"><ele>1133.0</ele><time>2026-05-05T13:32:14Z</time></trkpt><trkpt lat="30.89882370163256" lon="-6.9087958171183725"><ele>1133.0</ele><time>2026-05-05T13:32:15Z</time></trkpt><trkpt lat="30.8988565524911" lon="-6.908887056329318"><ele>1133.0</ele><time>2026-05-05T13:32:16Z</time></trkpt><trkpt lat="30.89889078284114" lon="-6.908975095276228"><ele>1133.0</ele><time>2026-05-05T13:32:17Z</time></trkpt><trkpt lat="30.898918633122864" lon="-6.909064257331694"><ele>1133.0</ele><time>2026-05-05T13:32:18Z</time></trkpt><trkpt lat="30.898943269875172" lon="-6.9091526108936705"><ele>1133.0</ele><time>2026-05-05T13:32:19Z</time></trkpt><trkpt lat="30.89897087300803" lon="-6.909242236808983"><ele>1133.0</ele><time>2026-05-05T13:32:20Z</time></trkpt><trkpt lat="30.899001272267103" lon="-6.9093325624978235"><ele>1132.8333333333335</ele><time>2026-05-05T13:32:21Z</time></trkpt><trkpt lat="30.89903283808614" lon="-6.909415903562181"><ele>1132.6666666666667</ele><time>2026-05-05T13:32:22Z</time></trkpt><trkpt lat="30.89904697841181" lon="-6.909502597553126"><ele>1132.5</ele><time>2026-05-05T13:32:23Z</time></trkpt><trkpt lat="30.899072325893506" lon="-6.909581910584424"><ele>1132.3333333333333</ele><time>2026-05-05T13:32:24Z</time></trkpt><trkpt lat="30.899123947729983" lon="-6.909673249889401"><ele>1132.1666666666665</ele><time>2026-05-05T13:32:25Z</time></trkpt><trkpt lat="30.899180241797186" lon="-6.909755893848188"><ele>1132.0</ele><time>2026-05-05T13:32:26Z</time></trkpt><trkpt lat="30.89924485473632" lon="-6.909849972322108"><ele>1131.6</ele><time>2026-05-05T13:32:27Z</time></trkpt><trkpt lat="30.899308520405395" lon="-6.909938640998989"><ele>1131.2</ele><time>2026-05-05T13:32:28Z</time></trkpt><trkpt lat="30.89937159005125" lon="-6.910024400329919"><ele>1130.8</ele><time>2026-05-05T13:32:29Z</time></trkpt><trkpt lat="30.899434507921608" lon="-6.910111511267297"><ele>1130.4</ele><time>2026-05-05T13:32:30Z</time></trkpt><trkpt lat="30.899501120992344" lon="-6.910201447706893"><ele>1130.0</ele><time>2026-05-05T13:32:31Z</time></trkpt><trkpt lat="30.899567492205847" lon="-6.910280803005802"><ele>1130.0</ele><time>2026-05-05T13:32:32Z</time></trkpt><trkpt lat="30.89962895780843" lon="-6.910354292992197"><ele>1130.0</ele><time>2026-05-05T13:32:33Z</time></trkpt><trkpt lat="30.8996857171281" lon="-6.910422560059146"><ele>1130.0</ele><time>2026-05-05T13:32:34Z</time></trkpt><trkpt lat="30.899748671717692" lon="-6.910480658983463"><ele>1130.0</ele><time>2026-05-05T13:32:35Z</time></trkpt><trkpt lat="30.89982681935834" lon="-6.910558226535446"><ele>1130.0</ele><time>2026-05-05T13:32:37Z</time></trkpt><trkpt lat="30.899881989564687" lon="-6.91061629638136"><ele>1130.0</ele><time>2026-05-05T13:32:39Z</time></trkpt><trkpt lat="30.89995672653743" lon="-6.91069140573611"><ele>1130.0</ele><time>2026-05-05T13:32:41Z</time></trkpt><trkpt lat="30.900010028591172" lon="-6.910741335593127"><ele>1130.0</ele><time>2026-05-05T13:32:42Z</time></trkpt><trkpt lat="30.90008795815683" lon="-6.910777393895339"><ele>1130.0</ele><time>2026-05-05T13:32:43Z</time></trkpt><trkpt lat="30.90014623548732" lon="-6.910840566091187"><ele>1130.0</ele><time>2026-05-05T13:32:44Z</time></trkpt><trkpt lat="30.900251606438324" lon="-6.91086778539217"><ele>1130.0</ele><time>2026-05-05T13:32:45Z</time></trkpt><trkpt lat="30.9003405430584" lon="-6.910917682017303"><ele>1130.0</ele><time>2026-05-05T13:32:46Z</time></trkpt><trkpt lat="30.900427744648926" lon="-6.910967498226559"><ele>1130.2</ele><time>2026-05-05T13:32:47Z</time></trkpt><trkpt lat="30.900517826378348" lon="-6.911023952087459"><ele>1130.4</ele><time>2026-05-05T13:32:48Z</time></trkpt><trkpt lat="30.900614447825927" lon="-6.911079958096605"><ele>1130.6</ele><time>2026-05-05T13:32:49Z</time></trkpt><trkpt lat="30.900707615400254" lon="-6.911119656011048"><ele>1130.8</ele><time>2026-05-05T13:32:50Z</time></trkpt><trkpt lat="30.90080204450111" lon="-6.911159137745457"><ele>1131.0</ele><time>2026-05-05T13:32:51Z</time></trkpt><trkpt lat="30.900901526356616" lon="-6.911195717485099"><ele>1130.0</ele><time>2026-05-05T13:32:52Z</time></trkpt><trkpt lat="30.901006863407655" lon="-6.911227918772299"><ele>1129.0</ele><time>2026-05-05T13:32:53Z</time></trkpt><trkpt lat="30.90111752064471" lon="-6.9112545324695605"><ele>1128.0</ele><time>2026-05-05T13:32:54Z</time></trkpt><trkpt lat="30.901229547381487" lon="-6.911285808935023"><ele>1127.0</ele><time>2026-05-05T13:32:55Z</time></trkpt><trkpt lat="30.901339093424653" lon="-6.91130677407459"><ele>1126.0</ele><time>2026-05-05T13:32:56Z</time></trkpt><trkpt lat="30.90143936251359" lon="-6.911321958541453"><ele>1126.0</ele><time>2026-05-05T13:32:57Z</time></trkpt><trkpt lat="30.901529135787587" lon="-6.911333702143656"><ele>1126.0</ele><time>2026-05-05T13:32:58Z</time></trkpt><trkpt lat="30.901610758007887" lon="-6.911352995407287"><ele>1126.0</ele><time>2026-05-05T13:32:59Z</time></trkpt><trkpt lat="30.90168799731499" lon="-6.911341349734232"><ele>1126.0</ele><time>2026-05-05T13:33:00Z</time></trkpt><trkpt lat="30.901753988030688" lon="-6.91133618247088"><ele>1126.0</ele><time>2026-05-05T13:33:01Z</time></trkpt><trkpt lat="30.901876392474207" lon="-6.911339832645033"><ele>1126.0</ele><time>2026-05-05T13:33:03Z</time></trkpt><trkpt lat="30.90200544134385" lon="-6.9113494669068904"><ele>1126.2</ele><time>2026-05-05T13:33:05Z</time></trkpt><trkpt lat="30.902084191228536" lon="-6.911369114842777"><ele>1126.3999999999999</ele><time>2026-05-05T13:33:06Z</time></trkpt><trkpt lat="30.90218694208072" lon="-6.911381547786321"><ele>1126.6</ele><time>2026-05-05T13:33:07Z</time></trkpt><trkpt lat="30.902302757545236" lon="-6.911376248623612"><ele>1126.8</ele><time>2026-05-05T13:33:08Z</time></trkpt><trkpt lat="30.90239702754864" lon="-6.911380480278273"><ele>1127.0</ele><time>2026-05-05T13:33:09Z</time></trkpt><trkpt lat="30.90250435488549" lon="-6.911384191610795"><ele>1126.0</ele><time>2026-05-05T13:33:10Z</time></trkpt><trkpt lat="30.90260961181721" lon="-6.911387269408725"><ele>1125.0</ele><time>2026-05-05T13:33:11Z</time></trkpt><trkpt lat="30.902716533759968" lon="-6.911381377594789"><ele>1124.0</ele><time>2026-05-05T13:33:12Z</time></trkpt><trkpt lat="30.902828629864693" lon="-6.911364181164394"><ele>1123.0</ele><time>2026-05-05T13:33:13Z</time></trkpt><trkpt lat="30.902944133988537" lon="-6.911360598402745"><ele>1122.0</ele><time>2026-05-05T13:33:14Z</time></trkpt><trkpt lat="30.903057747229195" lon="-6.91135728610904"><ele>1122.0</ele><time>2026-05-05T13:33:15Z</time></trkpt><trkpt lat="30.903173839022045" lon="-6.911360569893152"><ele>1122.0</ele><time>2026-05-05T13:33:16Z</time></trkpt><trkpt lat="30.903293133003608" lon="-6.911365944523593"><ele>1122.0</ele><time>2026-05-05T13:33:17Z</time></trkpt><trkpt lat="30.90341524245453" lon="-6.911369783384645"><ele>1122.0</ele><time>2026-05-05T13:33:18Z</time></trkpt><trkpt lat="30.903540085353622" lon="-6.911377961829245"><ele>1121.75</ele><time>2026-05-05T13:33:19Z</time></trkpt><trkpt lat="30.903668626725622" lon="-6.911387174783037"><ele>1121.5</ele><time>2026-05-05T13:33:20Z</time></trkpt><trkpt lat="30.903825490875374" lon="-6.911362919391074"><ele>1121.25</ele><time>2026-05-05T13:33:21Z</time></trkpt><trkpt lat="30.90396732480818" lon="-6.911362993658371"><ele>1121.0</ele><time>2026-05-05T13:33:22Z</time></trkpt><trkpt lat="30.90410161884567" lon="-6.911363450319786"><ele>1121.0</ele><time>2026-05-05T13:33:23Z</time></trkpt><trkpt lat="30.904235913476846" lon="-6.911365555990976"><ele>1121.0</ele><time>2026-05-05T13:33:24Z</time></trkpt><trkpt lat="30.904361456254563" lon="-6.911363938901187"><ele>1121.0</ele><time>2026-05-05T13:33:25Z</time></trkpt><trkpt lat="30.90448497013903" lon="-6.91137051113237"><ele>1121.0</ele><time>2026-05-05T13:33:26Z</time></trkpt><trkpt lat="30.904614080723057" lon="-6.911376353085842"><ele>1121.0</ele><time>2026-05-05T13:33:27Z</time></trkpt><trkpt lat="30.904751694861513" lon="-6.911373362749701"><ele>1121.0</ele><time>2026-05-05T13:33:28Z</time></trkpt><trkpt lat="30.904877317588216" lon="-6.91137507907738"><ele>1121.0</ele><time>2026-05-05T13:33:29Z</time></trkpt><trkpt lat="30.905005571751992" lon="-6.911376084068281"><ele>1121.0</ele><time>2026-05-05T13:33:30Z</time></trkpt><trkpt lat="30.905134916838524" lon="-6.911376455690236"><ele>1120.75</ele><time>2026-05-05T13:33:31Z</time></trkpt><trkpt lat="30.905256503100443" lon="-6.91138185775346"><ele>1120.5</ele><time>2026-05-05T13:33:32Z</time></trkpt><trkpt lat="30.905372600627707" lon="-6.911395401015087"><ele>1120.25</ele><time>2026-05-05T13:33:33Z</time></trkpt><trkpt lat="30.905495543632878" lon="-6.911405241681171"><ele>1120.0</ele><time>2026-05-05T13:33:34Z</time></trkpt><trkpt lat="30.905617397388045" lon="-6.91140119101706"><ele>1120.0</ele><time>2026-05-05T13:33:35Z</time></trkpt><trkpt lat="30.90574324359396" lon="-6.911399484733498"><ele>1120.0</ele><time>2026-05-05T13:33:36Z</time></trkpt><trkpt lat="30.905867216377555" lon="-6.911400744339252"><ele>1120.0</ele><time>2026-05-05T13:33:37Z</time></trkpt><trkpt lat="30.905992280262154" lon="-6.911409030102818"><ele>1120.0</ele><time>2026-05-05T13:33:38Z</time></trkpt><trkpt lat="30.906123476208798" lon="-6.911415855865026"><ele>1119.25</ele><time>2026-05-05T13:33:39Z</time></trkpt><trkpt lat="30.906248041018216" lon="-6.911414250230037"><ele>1118.5</ele><time>2026-05-05T13:33:40Z</time></trkpt><trkpt lat="30.9063784824149" lon="-6.911410037409537"><ele>1117.75</ele><time>2026-05-05T13:33:41Z</time></trkpt><trkpt lat="30.906501099408164" lon="-6.911410000400738"><ele>1117.0</ele><time>2026-05-05T13:33:42Z</time></trkpt><trkpt lat="30.90662498419967" lon="-6.911413317264421"><ele>1117.0</ele><time>2026-05-05T13:33:43Z</time></trkpt><trkpt lat="30.90670506674374" lon="-6.911432018637379"><ele>1117.0</ele><time>2026-05-05T13:33:44Z</time></trkpt><trkpt lat="30.90682359191293" lon="-6.911431904479081"><ele>1117.0</ele><time>2026-05-05T13:33:45Z</time></trkpt><trkpt lat="30.906943984876815" lon="-6.911438452310526"><ele>1117.0</ele><time>2026-05-05T13:33:46Z</time></trkpt><trkpt lat="30.907067648479806" lon="-6.91144382669614"><ele>1117.0</ele><time>2026-05-05T13:33:47Z</time></trkpt><trkpt lat="30.90719422965088" lon="-6.911446364299338"><ele>1116.75</ele><time>2026-05-05T13:33:48Z</time></trkpt><trkpt lat="30.90732013494488" lon="-6.9114435510442975"><ele>1116.5</ele><time>2026-05-05T13:33:49Z</time></trkpt><trkpt lat="30.907447217787425" lon="-6.911449570551688"><ele>1116.25</ele><time>2026-05-05T13:33:50Z</time></trkpt><trkpt lat="30.907573652322707" lon="-6.911455355917559"><ele>1116.0</ele><time>2026-05-05T13:33:51Z</time></trkpt><trkpt lat="30.907700864307568" lon="-6.911458305481682"><ele>1115.75</ele><time>2026-05-05T13:33:52Z</time></trkpt><trkpt lat="30.9078214479742" lon="-6.911450169447215"><ele>1115.5</ele><time>2026-05-05T13:33:53Z</time></trkpt><trkpt lat="30.907982059473316" lon="-6.911432553968205"><ele>1115.25</ele><time>2026-05-05T13:33:54Z</time></trkpt><trkpt lat="30.908096153807776" lon="-6.911430460848596"><ele>1115.0</ele><time>2026-05-05T13:33:55Z</time></trkpt><trkpt lat="30.908210289997232" lon="-6.911434783682901"><ele>1115.0</ele><time>2026-05-05T13:33:56Z</time></trkpt><trkpt lat="30.90832357720382" lon="-6.911436942200809"><ele>1115.0</ele><time>2026-05-05T13:33:57Z</time></trkpt><trkpt lat="30.908434626665237" lon="-6.91143981927721"><ele>1115.0</ele><time>2026-05-05T13:33:58Z</time></trkpt><trkpt lat="30.908542459631597" lon="-6.911443366104769"><ele>1115.0</ele><time>2026-05-05T13:33:59Z</time></trkpt><trkpt lat="30.90864439955815" lon="-6.91144103554437"><ele>1115.0</ele><time>2026-05-05T13:34:00Z</time></trkpt><trkpt lat="30.908746653495577" lon="-6.911429083329572"><ele>1115.5</ele><time>2026-05-05T13:34:01Z</time></trkpt><trkpt lat="30.908855473935617" lon="-6.911410154822164"><ele>1116.0</ele><time>2026-05-05T13:34:02Z</time></trkpt><trkpt lat="30.908963651942422" lon="-6.911387768686537"><ele>1116.5</ele><time>2026-05-05T13:34:03Z</time></trkpt><trkpt lat="30.909070475579725" lon="-6.911375878503594"><ele>1117.0</ele><time>2026-05-05T13:34:04Z</time></trkpt><trkpt lat="30.909170838665965" lon="-6.911473511287284"><ele>1116.75</ele><time>2026-05-05T13:34:05Z</time></trkpt><trkpt lat="30.90928745562696" lon="-6.911489827793823"><ele>1116.5</ele><time>2026-05-05T13:34:06Z</time></trkpt><trkpt lat="30.909395038628542" lon="-6.911504880306533"><ele>1116.25</ele><time>2026-05-05T13:34:07Z</time></trkpt><trkpt lat="30.909518240823253" lon="-6.911522118202327"><ele>1116.0</ele><time>2026-05-05T13:34:08Z</time></trkpt><trkpt lat="30.90965327091856" lon="-6.911465695126428"><ele>1116.0</ele><time>2026-05-05T13:34:09Z</time></trkpt><trkpt lat="30.909790491983802" lon="-6.9114709916700905"><ele>1116.0</ele><time>2026-05-05T13:34:10Z</time></trkpt><trkpt lat="30.909937116355547" lon="-6.9114734764439385"><ele>1116.0</ele><time>2026-05-05T13:34:11Z</time></trkpt><trkpt lat="30.910083124080685" lon="-6.911469599927552"><ele>1116.0</ele><time>2026-05-05T13:34:12Z</time></trkpt><trkpt lat="30.91023822432356" lon="-6.9114674532363285"><ele>1115.6666666666667</ele><time>2026-05-05T13:34:13Z</time></trkpt><trkpt lat="30.910395154872074" lon="-6.91145957966573"><ele>1115.3333333333335</ele><time>2026-05-05T13:34:14Z</time></trkpt><trkpt lat="30.910545851122446" lon="-6.911445496871201"><ele>1115.0</ele><time>2026-05-05T13:34:15Z</time></trkpt><trkpt lat="30.910690471813766" lon="-6.9114265561768375"><ele>1115.0</ele><time>2026-05-05T13:34:16Z</time></trkpt><trkpt lat="30.910828936305304" lon="-6.911401101000681"><ele>1115.0</ele><time>2026-05-05T13:34:17Z</time></trkpt><trkpt lat="30.910968043238206" lon="-6.911368108867112"><ele>1115.0</ele><time>2026-05-05T13:34:18Z</time></trkpt><trkpt lat="30.91110606586212" lon="-6.911328136539455"><ele>1115.0</ele><time>2026-05-05T13:34:19Z</time></trkpt><trkpt lat="30.911241839524127" lon="-6.9112835337789305"><ele>1115.0</ele><time>2026-05-05T13:34:20Z</time></trkpt><trkpt lat="30.91137699526297" lon="-6.91123431156958"><ele>1115.0</ele><time>2026-05-05T13:34:21Z</time></trkpt><trkpt lat="30.911511545917726" lon="-6.911179137655721"><ele>1115.0</ele><time>2026-05-05T13:34:22Z</time></trkpt><trkpt lat="30.91164489182883" lon="-6.9111175024265705"><ele>1115.0</ele><time>2026-05-05T13:34:23Z</time></trkpt><trkpt lat="30.91177381354347" lon="-6.911045812476038"><ele>1115.0</ele><time>2026-05-05T13:34:24Z</time></trkpt><trkpt lat="30.91189776851113" lon="-6.910973280240768"><ele>1115.0</ele><time>2026-05-05T13:34:25Z</time></trkpt><trkpt lat="30.91202568334714" lon="-6.91089250065874"><ele>1115.0</ele><time>2026-05-05T13:34:26Z</time></trkpt><trkpt lat="30.91215019731247" lon="-6.910806691144602"><ele>1115.0</ele><time>2026-05-05T13:34:27Z</time></trkpt><trkpt lat="30.912274871154896" lon="-6.910707568223865"><ele>1114.3333333333335</ele><time>2026-05-05T13:34:28Z</time></trkpt><trkpt lat="30.9123953484323" lon="-6.910603821188828"><ele>1113.6666666666667</ele><time>2026-05-05T13:34:29Z</time></trkpt><trkpt lat="30.912514904089736" lon="-6.910496191645204"><ele>1113.0</ele><time>2026-05-05T13:34:30Z</time></trkpt><trkpt lat="30.912631081833624" lon="-6.910383999023537"><ele>1113.0</ele><time>2026-05-05T13:34:31Z</time></trkpt><trkpt lat="30.912747955012566" lon="-6.910271350185227"><ele>1113.0</ele><time>2026-05-05T13:34:32Z</time></trkpt><trkpt lat="30.91286221111492" lon="-6.9101581730323955"><ele>1113.0</ele><time>2026-05-05T13:34:33Z</time></trkpt><trkpt lat="30.912977649878158" lon="-6.910047905550554"><ele>1113.0</ele><time>2026-05-05T13:34:34Z</time></trkpt><trkpt lat="30.913095338492564" lon="-6.909937734758785"><ele>1113.0</ele><time>2026-05-05T13:34:35Z</time></trkpt><trkpt lat="30.913213197394995" lon="-6.909828899346394"><ele>1113.0</ele><time>2026-05-05T13:34:36Z</time></trkpt><trkpt lat="30.91332958596699" lon="-6.909717068808063"><ele>1113.0</ele><time>2026-05-05T13:34:37Z</time></trkpt><trkpt lat="30.91344063393592" lon="-6.909607126476571"><ele>1113.0</ele><time>2026-05-05T13:34:38Z</time></trkpt><trkpt lat="30.91355086480079" lon="-6.909498257197551"><ele>1113.0</ele><time>2026-05-05T13:34:39Z</time></trkpt><trkpt lat="30.91366549350301" lon="-6.909394598786218"><ele>1113.0</ele><time>2026-05-05T13:34:40Z</time></trkpt><trkpt lat="30.913778440041153" lon="-6.909283221417561"><ele>1113.0</ele><time>2026-05-05T13:34:41Z</time></trkpt><trkpt lat="30.91387714163153" lon="-6.909159910907112"><ele>1113.0</ele><time>2026-05-05T13:34:42Z</time></trkpt><trkpt lat="30.913989748818242" lon="-6.909051665785311"><ele>1113.0</ele><time>2026-05-05T13:34:43Z</time></trkpt><trkpt lat="30.91411032499704" lon="-6.908960870297767"><ele>1113.0</ele><time>2026-05-05T13:34:44Z</time></trkpt><trkpt lat="30.91420806102015" lon="-6.908841809646262"><ele>1113.25</ele><time>2026-05-05T13:34:45Z</time></trkpt><trkpt lat="30.91431820710951" lon="-6.908735930289006"><ele>1113.5</ele><time>2026-05-05T13:34:46Z</time></trkpt><trkpt lat="30.91442817473864" lon="-6.908630222499479"><ele>1113.75</ele><time>2026-05-05T13:34:47Z</time></trkpt><trkpt lat="30.914539306494305" lon="-6.908523395667612"><ele>1114.0</ele><time>2026-05-05T13:34:48Z</time></trkpt><trkpt lat="30.914661007392073" lon="-6.908430617742408"><ele>1114.0</ele><time>2026-05-05T13:34:49Z</time></trkpt><trkpt lat="30.91476060715362" lon="-6.908310667587646"><ele>1114.0</ele><time>2026-05-05T13:34:50Z</time></trkpt><trkpt lat="30.914873295812452" lon="-6.9082023441470115"><ele>1114.0</ele><time>2026-05-05T13:34:51Z</time></trkpt><trkpt lat="30.914983238620014" lon="-6.908096861652964"><ele>1114.0</ele><time>2026-05-05T13:34:52Z</time></trkpt><trkpt lat="30.915098911749315" lon="-6.90801106271361"><ele>1114.0</ele><time>2026-05-05T13:34:53Z</time></trkpt><trkpt lat="30.915191715616825" lon="-6.907897013103491"><ele>1114.0</ele><time>2026-05-05T13:34:54Z</time></trkpt><trkpt lat="30.915303208758786" lon="-6.907815135628665"><ele>1114.0</ele><time>2026-05-05T13:34:55Z</time></trkpt><trkpt lat="30.915405334129034" lon="-6.907718056074207"><ele>1114.0</ele><time>2026-05-05T13:34:56Z</time></trkpt><trkpt lat="30.915499182695406" lon="-6.907627843661907"><ele>1114.0</ele><time>2026-05-05T13:34:57Z</time></trkpt><trkpt lat="30.915582349175068" lon="-6.907543751039602"><ele>1114.0</ele><time>2026-05-05T13:34:58Z</time></trkpt><trkpt lat="30.91566568818254" lon="-6.907469212502021"><ele>1114.0</ele><time>2026-05-05T13:34:59Z</time></trkpt><trkpt lat="30.91574533654258" lon="-6.907395616489886"><ele>1114.0</ele><time>2026-05-05T13:35:00Z</time></trkpt><trkpt lat="30.91581225034228" lon="-6.907327913931496"><ele>1114.0</ele><time>2026-05-05T13:35:01Z</time></trkpt><trkpt lat="30.915872669706484" lon="-6.907265430569345"><ele>1114.8</ele><time>2026-05-05T13:35:02Z</time></trkpt><trkpt lat="30.915930591571954" lon="-6.907209709721282"><ele>1115.6000000000001</ele><time>2026-05-05T13:35:03Z</time></trkpt><trkpt lat="30.915986646595933" lon="-6.907158311562158"><ele>1116.4</ele><time>2026-05-05T13:35:04Z</time></trkpt><trkpt lat="30.916036285393446" lon="-6.907110541667055"><ele>1117.2</ele><time>2026-05-05T13:35:05Z</time></trkpt><trkpt lat="30.91612222483223" lon="-6.9070157628370845"><ele>1118.0</ele><time>2026-05-05T13:35:07Z</time></trkpt><trkpt lat="30.916213690594528" lon="-6.9069220526976745"><ele>1118.0</ele><time>2026-05-05T13:35:09Z</time></trkpt><trkpt lat="30.91631949725623" lon="-6.906902547628457"><ele>1118.0</ele><time>2026-05-05T13:35:11Z</time></trkpt><trkpt lat="30.91640925263167" lon="-6.906989854900085"><ele>1118.0</ele><time>2026-05-05T13:35:13Z</time></trkpt><trkpt lat="30.916432479050503" lon="-6.907061866258786"><ele>1118.0</ele><time>2026-05-05T13:35:14Z</time></trkpt><trkpt lat="30.91648633105511" lon="-6.907116060241106"><ele>1118.0</ele><time>2026-05-05T13:35:15Z</time></trkpt><trkpt lat="30.91653802863466" lon="-6.907188994648468"><ele>1118.0</ele><time>2026-05-05T13:35:16Z</time></trkpt><trkpt lat="30.91655413291337" lon="-6.907290507234579"><ele>1118.0</ele><time>2026-05-05T13:35:17Z</time></trkpt><trkpt lat="30.91666884702937" lon="-6.907338012035071"><ele>1118.0</ele><time>2026-05-05T13:35:18Z</time></trkpt><trkpt lat="30.916742938391575" lon="-6.907407078450371"><ele>1118.0</ele><time>2026-05-05T13:35:19Z</time></trkpt><trkpt lat="30.91681438532139" lon="-6.907482174165791"><ele>1118.0</ele><time>2026-05-05T13:35:20Z</time></trkpt><trkpt lat="30.91689058120814" lon="-6.90755673426096"><ele>1118.0</ele><time>2026-05-05T13:35:21Z</time></trkpt><trkpt lat="30.91696697042914" lon="-6.907630659056576"><ele>1118.4</ele><time>2026-05-05T13:35:22Z</time></trkpt><trkpt lat="30.91703738362862" lon="-6.9077100068428665"><ele>1118.8</ele><time>2026-05-05T13:35:23Z</time></trkpt><trkpt lat="30.917093182064768" lon="-6.907785479117267"><ele>1119.2</ele><time>2026-05-05T13:35:24Z</time></trkpt><trkpt lat="30.917162344304764" lon="-6.907862008324475"><ele>1119.6</ele><time>2026-05-05T13:35:25Z</time></trkpt><trkpt lat="30.917222351807776" lon="-6.907918069667132"><ele>1120.0</ele><time>2026-05-05T13:35:26Z</time></trkpt><trkpt lat="30.917314713778506" lon="-6.908007467506648"><ele>1120.0</ele><time>2026-05-05T13:35:28Z</time></trkpt><trkpt lat="30.917366032725486" lon="-6.908057139501236"><ele>1120.0</ele><time>2026-05-05T13:35:30Z</time></trkpt><trkpt lat="30.917319695768054" lon="-6.908125703655009"><ele>1120.0</ele><time>2026-05-05T13:38:34.999Z</time></trkpt><trkpt lat="30.917399324250173" lon="-6.90820277673066"><ele>1120.0</ele><time>2026-05-05T13:38:36.999Z</time></trkpt><trkpt lat="30.917479223210563" lon="-6.908302608617692"><ele>1120.0</ele><time>2026-05-05T13:38:38.999Z</time></trkpt><trkpt lat="30.917554835586937" lon="-6.908328566561564"><ele>1120.0</ele><time>2026-05-05T13:38:40.999Z</time></trkpt><trkpt lat="30.91745974708458" lon="-6.90826483050694"><ele>1120.0</ele><time>2026-05-05T13:38:54Z</time></trkpt><trkpt lat="30.917339600354605" lon="-6.908280134490982"><ele>1120.0</ele><time>2026-05-05T13:38:55Z</time></trkpt><trkpt lat="30.917271980992695" lon="-6.9082014899775634"><ele>1120.0</ele><time>2026-05-05T13:38:56Z</time></trkpt><trkpt lat="30.91719088494182" lon="-6.908107807380846"><ele>1120.0</ele><time>2026-05-05T13:38:57Z</time></trkpt><trkpt lat="30.91710417188387" lon="-6.908016168875973"><ele>1120.0</ele><time>2026-05-05T13:38:58Z</time></trkpt><trkpt lat="30.91701888242016" lon="-6.9079232164642805"><ele>1120.0</ele><time>2026-05-05T13:38:59Z</time></trkpt><trkpt lat="30.916933042027992" lon="-6.907830420846298"><ele>1120.0</ele><time>2026-05-05T13:39:00Z</time></trkpt><trkpt lat="30.916852378355255" lon="-6.90774603871487"><ele>1120.0</ele><time>2026-05-05T13:39:01Z</time></trkpt><trkpt lat="30.916779270252295" lon="-6.90767083141511"><ele>1120.0</ele><time>2026-05-05T13:39:02Z</time></trkpt><trkpt lat="30.916713011707078" lon="-6.9076001728405645"><ele>1120.0</ele><time>2026-05-05T13:39:03Z</time></trkpt><trkpt lat="30.916650540683776" lon="-6.907529644231351"><ele>1119.6666666666665</ele><time>2026-05-05T13:39:04Z</time></trkpt><trkpt lat="30.916587504912428" lon="-6.9074656946655075"><ele>1119.3333333333333</ele><time>2026-05-05T13:39:05Z</time></trkpt><trkpt lat="30.916531459745098" lon="-6.907408450303005"><ele>1119.0</ele><time>2026-05-05T13:39:06Z</time></trkpt><trkpt lat="30.916481780031877" lon="-6.907356240935092"><ele>1118.6666666666667</ele><time>2026-05-05T13:39:07Z</time></trkpt><trkpt lat="30.916431560647176" lon="-6.907309545250896"><ele>1118.3333333333335</ele><time>2026-05-05T13:39:08Z</time></trkpt><trkpt lat="30.91637924760814" lon="-6.907263704551407"><ele>1118.0</ele><time>2026-05-05T13:39:09Z</time></trkpt><trkpt lat="30.91627589797379" lon="-6.907184454523712"><ele>1118.0</ele><time>2026-05-05T13:39:11Z</time></trkpt><trkpt lat="30.91621614253609" lon="-6.907158694408867"><ele>1118.0</ele><time>2026-05-05T13:39:12Z</time></trkpt><trkpt lat="30.916096614615412" lon="-6.907162262448117"><ele>1118.0</ele><time>2026-05-05T13:39:14Z</time></trkpt><trkpt lat="30.916000034070098" lon="-6.907218333689932"><ele>1118.0</ele><time>2026-05-05T13:39:16Z</time></trkpt><trkpt lat="30.915905243345875" lon="-6.907317150725736"><ele>1118.0</ele><time>2026-05-05T13:39:18Z</time></trkpt><trkpt lat="30.915847545983063" lon="-6.907374685641397"><ele>1117.2</ele><time>2026-05-05T13:39:19Z</time></trkpt><trkpt lat="30.91578225462298" lon="-6.907434708521972"><ele>1116.4</ele><time>2026-05-05T13:39:20Z</time></trkpt><trkpt lat="30.915710521017832" lon="-6.907499682093315"><ele>1115.6000000000001</ele><time>2026-05-05T13:39:21Z</time></trkpt><trkpt lat="30.91563451565173" lon="-6.907576419327036"><ele>1114.8</ele><time>2026-05-05T13:39:22Z</time></trkpt><trkpt lat="30.915551724824496" lon="-6.907659099072677"><ele>1114.0</ele><time>2026-05-05T13:39:23Z</time></trkpt><trkpt lat="30.915469597943" lon="-6.907736435163453"><ele>1114.0</ele><time>2026-05-05T13:39:24Z</time></trkpt><trkpt lat="30.91538421249725" lon="-6.907817420790075"><ele>1114.0</ele><time>2026-05-05T13:39:25Z</time></trkpt><trkpt lat="30.915295704586118" lon="-6.907901394952741"><ele>1114.0</ele><time>2026-05-05T13:39:26Z</time></trkpt><trkpt lat="30.915202875382978" lon="-6.907987958328689"><ele>1114.0</ele><time>2026-05-05T13:39:27Z</time></trkpt><trkpt lat="30.91510696598423" lon="-6.908077887452391"><ele>1114.0</ele><time>2026-05-05T13:39:28Z</time></trkpt><trkpt lat="30.91501115749521" lon="-6.908167787719611"><ele>1114.0</ele><time>2026-05-05T13:39:29Z</time></trkpt><trkpt lat="30.914914822143572" lon="-6.908264192970027"><ele>1114.0</ele><time>2026-05-05T13:39:30Z</time></trkpt><trkpt lat="30.91481385219991" lon="-6.908362994578963"><ele>1114.0</ele><time>2026-05-05T13:39:31Z</time></trkpt><trkpt lat="30.914709778083267" lon="-6.90846336959048"><ele>1114.0</ele><time>2026-05-05T13:39:32Z</time></trkpt><trkpt lat="30.91460096724739" lon="-6.908564273222196"><ele>1114.0</ele><time>2026-05-05T13:39:33Z</time></trkpt><trkpt lat="30.91449037391899" lon="-6.908667732189407"><ele>1114.0</ele><time>2026-05-05T13:39:34Z</time></trkpt><trkpt lat="30.91437849375156" lon="-6.908773409875207"><ele>1114.0</ele><time>2026-05-05T13:39:35Z</time></trkpt><trkpt lat="30.914267765525103" lon="-6.90888106115756"><ele>1113.75</ele><time>2026-05-05T13:39:36Z</time></trkpt><trkpt lat="30.91416334740813" lon="-6.908991335356422"><ele>1113.5</ele><time>2026-05-05T13:39:37Z</time></trkpt><trkpt lat="30.914041747658406" lon="-6.9090944865090895"><ele>1113.25</ele><time>2026-05-05T13:39:38Z</time></trkpt><trkpt lat="30.913923792161793" lon="-6.909211094519124"><ele>1113.0</ele><time>2026-05-05T13:39:39Z</time></trkpt><trkpt lat="30.913802658353102" lon="-6.909324610955881"><ele>1113.0</ele><time>2026-05-05T13:39:40Z</time></trkpt><trkpt lat="30.91368352339836" lon="-6.909443707682595"><ele>1113.0</ele><time>2026-05-05T13:39:41Z</time></trkpt><trkpt lat="30.913562613395616" lon="-6.909562792838724"><ele>1113.0</ele><time>2026-05-05T13:39:42Z</time></trkpt><trkpt lat="30.91343953225163" lon="-6.909683303612261"><ele>1113.0</ele><time>2026-05-05T13:39:43Z</time></trkpt><trkpt lat="30.91331512481542" lon="-6.9098023239414985"><ele>1113.0</ele><time>2026-05-05T13:39:44Z</time></trkpt><trkpt lat="30.913189127241512" lon="-6.909920718710076"><ele>1113.0</ele><time>2026-05-05T13:39:45Z</time></trkpt><trkpt lat="30.913062847295443" lon="-6.910038292747016"><ele>1113.0</ele><time>2026-05-05T13:39:46Z</time></trkpt><trkpt lat="30.912938136156296" lon="-6.910158008277353"><ele>1113.0</ele><time>2026-05-05T13:39:47Z</time></trkpt><trkpt lat="30.9128123299924" lon="-6.910277657250837"><ele>1113.0</ele><time>2026-05-05T13:39:48Z</time></trkpt><trkpt lat="30.912685114389333" lon="-6.9103941008884675"><ele>1113.0</ele><time>2026-05-05T13:39:49Z</time></trkpt><trkpt lat="30.912563812593998" lon="-6.910509420010165"><ele>1113.0</ele><time>2026-05-05T13:39:50Z</time></trkpt><trkpt lat="30.912444204894253" lon="-6.91062307007975"><ele>1113.0</ele><time>2026-05-05T13:39:51Z</time></trkpt><trkpt lat="30.91231951800069" lon="-6.910730514221013"><ele>1113.0</ele><time>2026-05-05T13:39:52Z</time></trkpt><trkpt lat="30.91219424210571" lon="-6.9108348741616075"><ele>1113.0</ele><time>2026-05-05T13:39:53Z</time></trkpt><trkpt lat="30.912064866477937" lon="-6.910931178635786"><ele>1113.0</ele><time>2026-05-05T13:39:54Z</time></trkpt><trkpt lat="30.911930339270462" lon="-6.911020679144335"><ele>1113.6666666666667</ele><time>2026-05-05T13:39:55Z</time></trkpt><trkpt lat="30.911793458078577" lon="-6.911105875759926"><ele>1114.3333333333335</ele><time>2026-05-05T13:39:56Z</time></trkpt><trkpt lat="30.911652734633616" lon="-6.911184718535814"><ele>1115.0</ele><time>2026-05-05T13:39:57Z</time></trkpt><trkpt lat="30.911509202635205" lon="-6.911258086803003"><ele>1115.0</ele><time>2026-05-05T13:39:58Z</time></trkpt><trkpt lat="30.911362463639584" lon="-6.911324032948538"><ele>1115.0</ele><time>2026-05-05T13:39:59Z</time></trkpt><trkpt lat="30.911215030143936" lon="-6.911383370233467"><ele>1115.0</ele><time>2026-05-05T13:40:00Z</time></trkpt><trkpt lat="30.911064086321616" lon="-6.911433505960613"><ele>1115.0</ele><time>2026-05-05T13:40:01Z</time></trkpt><trkpt lat="30.91091203547326" lon="-6.911473531190468"><ele>1115.0</ele><time>2026-05-05T13:40:02Z</time></trkpt><trkpt lat="30.910759799510576" lon="-6.911505493948137"><ele>1115.0</ele><time>2026-05-05T13:40:03Z</time></trkpt><trkpt lat="30.910610398092828" lon="-6.911532285057611"><ele>1115.0</ele><time>2026-05-05T13:40:04Z</time></trkpt><trkpt lat="30.91046190008133" lon="-6.911552667974389"><ele>1115.0</ele><time>2026-05-05T13:40:05Z</time></trkpt><trkpt lat="30.910315448432357" lon="-6.911563922761417"><ele>1115.0</ele><time>2026-05-05T13:40:06Z</time></trkpt><trkpt lat="30.910172692649663" lon="-6.9115658504126465"><ele>1115.0</ele><time>2026-05-05T13:40:07Z</time></trkpt><trkpt lat="30.91003583837807" lon="-6.91156854119971"><ele>1115.25</ele><time>2026-05-05T13:40:08Z</time></trkpt><trkpt lat="30.909904318164614" lon="-6.91157061438714"><ele>1115.5</ele><time>2026-05-05T13:40:09Z</time></trkpt><trkpt lat="30.909779582966028" lon="-6.911571182169403"><ele>1115.75</ele><time>2026-05-05T13:40:10Z</time></trkpt><trkpt lat="30.909660237203227" lon="-6.911574189745096"><ele>1116.0</ele><time>2026-05-05T13:40:11Z</time></trkpt><trkpt lat="30.909545606260114" lon="-6.911577322649591"><ele>1116.0</ele><time>2026-05-05T13:40:12Z</time></trkpt><trkpt lat="30.90943711549809" lon="-6.911583438972042"><ele>1116.0</ele><time>2026-05-05T13:40:13Z</time></trkpt><trkpt lat="30.90933333079219" lon="-6.911592508290631"><ele>1116.0</ele><time>2026-05-05T13:40:14Z</time></trkpt><trkpt lat="30.90923130076469" lon="-6.911604039354288"><ele>1116.0</ele><time>2026-05-05T13:40:15Z</time></trkpt><trkpt lat="30.909125230017" lon="-6.911619611998276"><ele>1116.0</ele><time>2026-05-05T13:40:16Z</time></trkpt><trkpt lat="30.909018511576466" lon="-6.911642558107042"><ele>1116.2</ele><time>2026-05-05T13:40:17Z</time></trkpt><trkpt lat="30.908908416794397" lon="-6.911656993751217"><ele>1116.3999999999999</ele><time>2026-05-05T13:40:18Z</time></trkpt><trkpt lat="30.90879315791044" lon="-6.911644556452461"><ele>1116.6</ele><time>2026-05-05T13:40:19Z</time></trkpt><trkpt lat="30.908703796476154" lon="-6.911621751962705"><ele>1116.8</ele><time>2026-05-05T13:40:20Z</time></trkpt><trkpt lat="30.908593978666868" lon="-6.911589146482939"><ele>1117.0</ele><time>2026-05-05T13:40:21Z</time></trkpt><trkpt lat="30.90848656065197" lon="-6.911575167518714"><ele>1116.6</ele><time>2026-05-05T13:40:22Z</time></trkpt><trkpt lat="30.90837986993598" lon="-6.911574215287793"><ele>1116.2</ele><time>2026-05-05T13:40:23Z</time></trkpt><trkpt lat="30.908273549663225" lon="-6.911564815641531"><ele>1115.8</ele><time>2026-05-05T13:40:24Z</time></trkpt><trkpt lat="30.908160281897715" lon="-6.911563896572087"><ele>1115.4</ele><time>2026-05-05T13:40:25Z</time></trkpt><trkpt lat="30.908041886908578" lon="-6.911559906095286"><ele>1115.0</ele><time>2026-05-05T13:40:26Z</time></trkpt><trkpt lat="30.907920394080023" lon="-6.911563239968811"><ele>1115.0</ele><time>2026-05-05T13:40:27Z</time></trkpt><trkpt lat="30.90779142549099" lon="-6.911552369090906"><ele>1115.0</ele><time>2026-05-05T13:40:28Z</time></trkpt><trkpt lat="30.907664755877526" lon="-6.9115423749032265"><ele>1115.0</ele><time>2026-05-05T13:40:29Z</time></trkpt><trkpt lat="30.907537214370592" lon="-6.911536565829137"><ele>1115.0</ele><time>2026-05-05T13:40:30Z</time></trkpt><trkpt lat="30.907412729405557" lon="-6.9115293409610485"><ele>1115.25</ele><time>2026-05-05T13:40:31Z</time></trkpt><trkpt lat="30.90728760573056" lon="-6.911525569488028"><ele>1115.5</ele><time>2026-05-05T13:40:32Z</time></trkpt><trkpt lat="30.90716078651294" lon="-6.911520207267371"><ele>1115.75</ele><time>2026-05-05T13:40:33Z</time></trkpt><trkpt lat="30.907040798408882" lon="-6.911516613115981"><ele>1116.0</ele><time>2026-05-05T13:40:34Z</time></trkpt><trkpt lat="30.906927082087176" lon="-6.911513663143682"><ele>1116.0</ele><time>2026-05-05T13:40:34.999Z</time></trkpt><trkpt lat="30.906817934771002" lon="-6.911510748517045"><ele>1116.0</ele><time>2026-05-05T13:40:35.999Z</time></trkpt><trkpt lat="30.906713560227296" lon="-6.911507533609908"><ele>1116.0</ele><time>2026-05-05T13:40:36.999Z</time></trkpt><trkpt lat="30.906607630124487" lon="-6.911508508990375"><ele>1116.0</ele><time>2026-05-05T13:40:37.999Z</time></trkpt><trkpt lat="30.90650473222979" lon="-6.9115054914753555"><ele>1116.0</ele><time>2026-05-05T13:40:38.999Z</time></trkpt><trkpt lat="30.90640002881162" lon="-6.911502831921966"><ele>1116.2</ele><time>2026-05-05T13:40:39.999Z</time></trkpt><trkpt lat="30.906294458999085" lon="-6.911501999773417"><ele>1116.3999999999999</ele><time>2026-05-05T13:40:40.999Z</time></trkpt><trkpt lat="30.906188599451216" lon="-6.911502027685163"><ele>1116.6</ele><time>2026-05-05T13:40:41.999Z</time></trkpt><trkpt lat="30.906071119444164" lon="-6.911503288587851"><ele>1116.8</ele><time>2026-05-05T13:40:42.999Z</time></trkpt><trkpt lat="30.905957074126057" lon="-6.9114994072365965"><ele>1117.0</ele><time>2026-05-05T13:40:43.999Z</time></trkpt><trkpt lat="30.905845785807134" lon="-6.911497111584513"><ele>1117.6</ele><time>2026-05-05T13:40:44.999Z</time></trkpt><trkpt lat="30.90573981490157" lon="-6.911491825270386"><ele>1118.2</ele><time>2026-05-05T13:40:45.999Z</time></trkpt><trkpt lat="30.90563945604041" lon="-6.91148820873748"><ele>1118.8</ele><time>2026-05-05T13:40:46.999Z</time></trkpt><trkpt lat="30.905543217800023" lon="-6.911486385205896"><ele>1119.4</ele><time>2026-05-05T13:40:47.999Z</time></trkpt><trkpt lat="30.905445556086267" lon="-6.911485949754935"><ele>1120.0</ele><time>2026-05-05T13:40:48.999Z</time></trkpt><trkpt lat="30.905346214094322" lon="-6.91148618150612"><ele>1120.0</ele><time>2026-05-05T13:40:49.999Z</time></trkpt><trkpt lat="30.905242954832435" lon="-6.911485277843877"><ele>1120.0</ele><time>2026-05-05T13:40:50.999Z</time></trkpt><trkpt lat="30.90513578939535" lon="-6.911477710423102"><ele>1120.0</ele><time>2026-05-05T13:40:51.999Z</time></trkpt><trkpt lat="30.905022643522166" lon="-6.9114779627486"><ele>1120.0</ele><time>2026-05-05T13:40:52.999Z</time></trkpt><trkpt lat="30.904910369866727" lon="-6.911474173070201"><ele>1120.0</ele><time>2026-05-05T13:40:53.999Z</time></trkpt><trkpt lat="30.904799606145932" lon="-6.911469990311804"><ele>1120.2</ele><time>2026-05-05T13:40:54.999Z</time></trkpt><trkpt lat="30.90469441500559" lon="-6.911466999505355"><ele>1120.4</ele><time>2026-05-05T13:40:55.999Z</time></trkpt><trkpt lat="30.90459606300374" lon="-6.911464450325712"><ele>1120.6</ele><time>2026-05-05T13:40:56.999Z</time></trkpt><trkpt lat="30.9045014917509" lon="-6.911460847826431"><ele>1120.8</ele><time>2026-05-05T13:40:57.999Z</time></trkpt><trkpt lat="30.904405569943897" lon="-6.91145993607343"><ele>1121.0</ele><time>2026-05-05T13:40:58.999Z</time></trkpt><trkpt lat="30.904303638883498" lon="-6.911460702395162"><ele>1121.0</ele><time>2026-05-05T13:40:59.999Z</time></trkpt><trkpt lat="30.90419769814493" lon="-6.91145735645335"><ele>1121.0</ele><time>2026-05-05T13:41:00.999Z</time></trkpt><trkpt lat="30.90408597226342" lon="-6.91147397251839"><ele>1121.0</ele><time>2026-05-05T13:41:01.999Z</time></trkpt><trkpt lat="30.90398346553422" lon="-6.911473362448883"><ele>1121.0</ele><time>2026-05-05T13:41:02.999Z</time></trkpt><trkpt lat="30.903881462957898" lon="-6.911472755379398"><ele>1121.0</ele><time>2026-05-05T13:41:04Z</time></trkpt><trkpt lat="30.90378963390315" lon="-6.9114722917907585"><ele>1121.0</ele><time>2026-05-05T13:41:05Z</time></trkpt><trkpt lat="30.903705077922634" lon="-6.911471883587232"><ele>1121.0</ele><time>2026-05-05T13:41:06Z</time></trkpt><trkpt lat="30.903627047587367" lon="-6.911471506888524"><ele>1121.0</ele><time>2026-05-05T13:41:07Z</time></trkpt><trkpt lat="30.903553265034247" lon="-6.911471113669589"><ele>1121.0</ele><time>2026-05-05T13:41:08Z</time></trkpt><trkpt lat="30.90348474460016" lon="-6.9114706569832425"><ele>1121.0</ele><time>2026-05-05T13:41:09Z</time></trkpt><trkpt lat="30.903364735147015" lon="-6.911469857124179"><ele>1121.0</ele><time>2026-05-05T13:41:11Z</time></trkpt><trkpt lat="30.903242962653145" lon="-6.911469045512999"><ele>1121.25</ele><time>2026-05-05T13:41:13Z</time></trkpt><trkpt lat="30.903163412842016" lon="-6.911242563225579"><ele>1121.5</ele><time>2026-05-05T13:41:15Z</time></trkpt><trkpt lat="30.903137457552827" lon="-6.911137079560656"><ele>1121.75</ele><time>2026-05-05T13:41:16Z</time></trkpt><trkpt lat="30.90310733679309" lon="-6.911032657282612"><ele>1122.0</ele><time>2026-05-05T13:41:17Z</time></trkpt><trkpt lat="30.903084569025125" lon="-6.910940723138521"><ele>1121.8333333333333</ele><time>2026-05-05T13:41:18Z</time></trkpt><trkpt lat="30.903069296185507" lon="-6.9108601322500505"><ele>1121.6666666666667</ele><time>2026-05-05T13:41:19Z</time></trkpt><trkpt lat="30.9030451183551" lon="-6.910789925598739"><ele>1121.5</ele><time>2026-05-05T13:41:20Z</time></trkpt><trkpt lat="30.902985856112384" lon="-6.910750402300751"><ele>1121.3333333333335</ele><time>2026-05-05T13:41:21Z</time></trkpt><trkpt lat="30.902934702185977" lon="-6.9106379392388515"><ele>1121.1666666666667</ele><time>2026-05-05T13:41:23Z</time></trkpt><trkpt lat="30.902873239157273" lon="-6.910594864040688"><ele>1121.0</ele><time>2026-05-05T13:41:25Z</time></trkpt><trkpt lat="30.902767785014703" lon="-6.910585220244031"><ele>1121.0</ele><time>2026-05-05T13:41:27Z</time></trkpt><trkpt lat="30.90264479344311" lon="-6.910606009494333"><ele>1121.0</ele><time>2026-05-05T13:41:29Z</time></trkpt><trkpt lat="30.902529153526647" lon="-6.910625556105427"><ele>1121.0</ele><time>2026-05-05T13:41:31Z</time></trkpt><trkpt lat="30.902429547361173" lon="-6.910642461294329"><ele>1121.0</ele><time>2026-05-05T13:41:33Z</time></trkpt><trkpt lat="30.90234959291414" lon="-6.910656273776392"><ele>1121.0</ele><time>2026-05-05T13:41:35Z</time></trkpt><trkpt lat="30.902261177710034" lon="-6.910704114024204"><ele>1122.0</ele><time>2026-05-05T13:41:37Z</time></trkpt><trkpt lat="30.9021708157462" lon="-6.910724663463125"><ele>1123.0</ele><time>2026-05-05T13:41:39Z</time></trkpt><trkpt lat="30.90210555671327" lon="-6.910727306152806"><ele>1124.0</ele><time>2026-05-05T13:41:41Z</time></trkpt><trkpt lat="30.90204059882731" lon="-6.910716562245936"><ele>1125.0</ele><time>2026-05-05T13:41:50Z</time></trkpt><trkpt lat="30.901973567612" lon="-6.910613791592682"><ele>1126.0</ele><time>2026-05-05T13:41:52Z</time></trkpt><trkpt lat="30.901963886386945" lon="-6.9105210383439415"><ele>1127.0</ele><time>2026-05-05T13:41:53Z</time></trkpt><trkpt lat="30.901955161952568" lon="-6.910437451593329"><ele>1127.0</ele><time>2026-05-05T13:41:54Z</time></trkpt><trkpt lat="30.901945520597277" lon="-6.910346461075885"><ele>1127.0</ele><time>2026-05-05T13:41:55Z</time></trkpt><trkpt lat="30.90193414269151" lon="-6.910240062231621"><ele>1127.0</ele><time>2026-05-05T13:41:56Z</time></trkpt><trkpt lat="30.901923422667224" lon="-6.91013325393126"><ele>1127.0</ele><time>2026-05-05T13:41:57Z</time></trkpt><trkpt lat="30.90191408353886" lon="-6.91003954516787"><ele>1127.0</ele><time>2026-05-05T13:41:58Z</time></trkpt><trkpt lat="30.9019050055043" lon="-6.909948456063544"><ele>1127.0</ele><time>2026-05-05T13:41:59Z</time></trkpt><trkpt lat="30.901895103575416" lon="-6.909849100034289"><ele>1126.8333333333335</ele><time>2026-05-05T13:42:00Z</time></trkpt><trkpt lat="30.901885163835097" lon="-6.909749364665792"><ele>1126.6666666666667</ele><time>2026-05-05T13:42:01Z</time></trkpt><trkpt lat="30.901874410980824" lon="-6.909641470501971"><ele>1126.5</ele><time>2026-05-05T13:42:02Z</time></trkpt><trkpt lat="30.90186516858069" lon="-6.909548732245442"><ele>1126.3333333333333</ele><time>2026-05-05T13:42:03Z</time></trkpt><trkpt lat="30.901856713126797" lon="-6.909463890086616"><ele>1126.1666666666665</ele><time>2026-05-05T13:42:04Z</time></trkpt><trkpt lat="30.901848190480724" lon="-6.909378218928419"><ele>1126.0</ele><time>2026-05-05T13:42:05Z</time></trkpt><trkpt lat="30.901838950925903" lon="-6.909285243884801"><ele>1125.6</ele><time>2026-05-05T13:42:06Z</time></trkpt><trkpt lat="30.901840253570413" lon="-6.9091766890123285"><ele>1125.1999999999998</ele><time>2026-05-05T13:42:07Z</time></trkpt><trkpt lat="30.901838760967674" lon="-6.909069634127825"><ele>1124.8000000000002</ele><time>2026-05-05T13:42:08Z</time></trkpt><trkpt lat="30.90183734144769" lon="-6.908959528589776"><ele>1124.4</ele><time>2026-05-05T13:42:09Z</time></trkpt><trkpt lat="30.901875020203683" lon="-6.908830650456527"><ele>1124.0</ele><time>2026-05-05T13:42:10Z</time></trkpt><trkpt lat="30.90190797614272" lon="-6.908715468928892"><ele>1124.0</ele><time>2026-05-05T13:42:11Z</time></trkpt><trkpt lat="30.901929692469047" lon="-6.9085955914521895"><ele>1124.0</ele><time>2026-05-05T13:42:12Z</time></trkpt><trkpt lat="30.901956279016066" lon="-6.908474905319078"><ele>1124.0</ele><time>2026-05-05T13:42:13Z</time></trkpt><trkpt lat="30.901983234963076" lon="-6.908352542376187"><ele>1124.0</ele><time>2026-05-05T13:42:14Z</time></trkpt><trkpt lat="30.9020109434795" lon="-6.908226761076809"><ele>1124.0</ele><time>2026-05-05T13:42:15Z</time></trkpt><trkpt lat="30.902046842574414" lon="-6.908114563894874"><ele>1124.0</ele><time>2026-05-05T13:42:16Z</time></trkpt><trkpt lat="30.90207959221484" lon="-6.908000089961904"><ele>1124.0</ele><time>2026-05-05T13:42:17Z</time></trkpt><trkpt lat="30.902101328132506" lon="-6.907890917829784"><ele>1124.0</ele><time>2026-05-05T13:42:18Z</time></trkpt><trkpt lat="30.902117143049747" lon="-6.907772018449415"><ele>1124.0</ele><time>2026-05-05T13:42:19Z</time></trkpt><trkpt lat="30.902127945789537" lon="-6.907650417136482"><ele>1124.0</ele><time>2026-05-05T13:42:20Z</time></trkpt><trkpt lat="30.902154692233456" lon="-6.90753418265195"><ele>1124.2</ele><time>2026-05-05T13:42:21Z</time></trkpt><trkpt lat="30.902160638621076" lon="-6.907413773328805"><ele>1124.4</ele><time>2026-05-05T13:42:22Z</time></trkpt><trkpt lat="30.902135960670595" lon="-6.907291939772792"><ele>1124.6</ele><time>2026-05-05T13:42:23Z</time></trkpt><trkpt lat="30.902131846360557" lon="-6.907171588121456"><ele>1124.8</ele><time>2026-05-05T13:42:24Z</time></trkpt><trkpt lat="30.902127615819495" lon="-6.907055451952232"><ele>1125.0</ele><time>2026-05-05T13:42:25Z</time></trkpt><trkpt lat="30.90211520785427" lon="-6.906950720905155"><ele>1125.0</ele><time>2026-05-05T13:42:26Z</time></trkpt><trkpt lat="30.90210367656524" lon="-6.906855763157598"><ele>1125.0</ele><time>2026-05-05T13:42:27Z</time></trkpt><trkpt lat="30.902092760075526" lon="-6.90676586822699"><ele>1125.0</ele><time>2026-05-05T13:42:28Z</time></trkpt><trkpt lat="30.902082385645457" lon="-6.906680437182179"><ele>1125.0</ele><time>2026-05-05T13:42:29Z</time></trkpt><trkpt lat="30.902072540060587" lon="-6.906599360829419"><ele>1125.0</ele><time>2026-05-05T13:42:30Z</time></trkpt><trkpt lat="30.902056763141537" lon="-6.906460856277251"><ele>1125.0</ele><time>2026-05-05T13:42:32Z</time></trkpt><trkpt lat="30.90204933631577" lon="-6.906370559876021"><ele>1124.6666666666667</ele><time>2026-05-05T13:42:34Z</time></trkpt><trkpt lat="30.90204076952773" lon="-6.906266403725004"><ele>1124.3333333333333</ele><time>2026-05-05T13:42:36Z</time></trkpt><trkpt lat="30.902034651436953" lon="-6.906192019142697"><ele>1124.0</ele><time>2026-05-05T13:42:37Z</time></trkpt><trkpt lat="30.90202733348308" lon="-6.906103046608436"><ele>1123.6666666666665</ele><time>2026-05-05T13:42:38Z</time></trkpt><trkpt lat="30.90201931538329" lon="-6.906005561473963"><ele>1123.3333333333333</ele><time>2026-05-05T13:42:39Z</time></trkpt><trkpt lat="30.902010733277862" lon="-6.905902551065355"><ele>1123.0</ele><time>2026-05-05T13:42:40Z</time></trkpt><trkpt lat="30.90200067621705" lon="-6.905801610709483"><ele>1122.6</ele><time>2026-05-05T13:42:40.999Z</time></trkpt><trkpt lat="30.90198890854344" lon="-6.905692030328651"><ele>1122.1999999999998</ele><time>2026-05-05T13:42:41.999Z</time></trkpt><trkpt lat="30.901976165018066" lon="-6.905573362898912"><ele>1121.8</ele><time>2026-05-05T13:42:42.999Z</time></trkpt><trkpt lat="30.901963635451445" lon="-6.90545668767642"><ele>1121.3999999999999</ele><time>2026-05-05T13:42:43.999Z</time></trkpt><trkpt lat="30.901953676128105" lon="-6.905337518080006"><ele>1121.0</ele><time>2026-05-05T13:42:44.999Z</time></trkpt><trkpt lat="30.90194564913426" lon="-6.905226361729461"><ele>1121.0</ele><time>2026-05-05T13:42:45.999Z</time></trkpt><trkpt lat="30.901944133913958" lon="-6.905109252679317"><ele>1121.0</ele><time>2026-05-05T13:42:46.999Z</time></trkpt><trkpt lat="30.901951162499543" lon="-6.904993213481907"><ele>1121.0</ele><time>2026-05-05T13:42:47.999Z</time></trkpt><trkpt lat="30.90196715637201" lon="-6.904864922949561"><ele>1121.0</ele><time>2026-05-05T13:42:48.999Z</time></trkpt><trkpt lat="30.901984855999377" lon="-6.9047262116826555"><ele>1121.0</ele><time>2026-05-05T13:42:49.999Z</time></trkpt><trkpt lat="30.902000534759495" lon="-6.9045842920018075"><ele>1121.0</ele><time>2026-05-05T13:42:50.999Z</time></trkpt><trkpt lat="30.90201467836094" lon="-6.90445130916029"><ele>1121.0</ele><time>2026-05-05T13:42:51.999Z</time></trkpt><trkpt lat="30.902019122518492" lon="-6.904310700403922"><ele>1121.0</ele><time>2026-05-05T13:42:52.999Z</time></trkpt><trkpt lat="30.902025248264767" lon="-6.904166178110565"><ele>1121.0</ele><time>2026-05-05T13:42:53.999Z</time></trkpt><trkpt lat="30.902026060148607" lon="-6.904016085338938"><ele>1120.5</ele><time>2026-05-05T13:42:54.999Z</time></trkpt><trkpt lat="30.9020269237003" lon="-6.903856440810831"><ele>1120.0</ele><time>2026-05-05T13:42:55.999Z</time></trkpt><trkpt lat="30.902027757621113" lon="-6.9037022742442575"><ele>1119.5</ele><time>2026-05-05T13:42:56.999Z</time></trkpt><trkpt lat="30.90202858517203" lon="-6.90354928492095"><ele>1119.0</ele><time>2026-05-05T13:42:57.999Z</time></trkpt><trkpt lat="30.902029363226383" lon="-6.903405446206166"><ele>1119.0</ele><time>2026-05-05T13:42:58.999Z</time></trkpt><trkpt lat="30.90203054951102" lon="-6.903261627754218"><ele>1119.0</ele><time>2026-05-05T13:42:59.999Z</time></trkpt><trkpt lat="30.902021820536866" lon="-6.903116260324988"><ele>1119.0</ele><time>2026-05-05T13:43:00.999Z</time></trkpt><trkpt lat="30.901998161914143" lon="-6.902971802837395"><ele>1119.0</ele><time>2026-05-05T13:43:01.999Z</time></trkpt><trkpt lat="30.901971091657988" lon="-6.902827612657943"><ele>1119.0</ele><time>2026-05-05T13:43:02.999Z</time></trkpt><trkpt lat="30.901986688690698" lon="-6.902657784729967"><ele>1119.0</ele><time>2026-05-05T13:43:04Z</time></trkpt><trkpt lat="30.90201635441737" lon="-6.9025016928389995"><ele>1119.0</ele><time>2026-05-05T13:43:05Z</time></trkpt><trkpt lat="30.902050226315517" lon="-6.902358133729369"><ele>1119.0</ele><time>2026-05-05T13:43:06Z</time></trkpt><trkpt lat="30.902081419014085" lon="-6.902235339794206"><ele>1118.8</ele><time>2026-05-05T13:43:07Z</time></trkpt><trkpt lat="30.902112412305605" lon="-6.902116354448122"><ele>1118.6000000000001</ele><time>2026-05-05T13:43:08Z</time></trkpt><trkpt lat="30.902122448071122" lon="-6.902012261782748"><ele>1118.4</ele><time>2026-05-05T13:43:09Z</time></trkpt><trkpt lat="30.902122164438335" lon="-6.901912550546999"><ele>1118.2</ele><time>2026-05-05T13:43:10Z</time></trkpt><trkpt lat="30.902093705826154" lon="-6.901822834502557"><ele>1118.0</ele><time>2026-05-05T13:43:11Z</time></trkpt><trkpt lat="30.902071132325993" lon="-6.901726445823952"><ele>1118.0</ele><time>2026-05-05T13:43:12Z</time></trkpt><trkpt lat="30.901979498199037" lon="-6.901707638632773"><ele>1118.0</ele><time>2026-05-05T13:43:13Z</time></trkpt><trkpt lat="30.901910261884794" lon="-6.9016337741352425"><ele>1118.0</ele><time>2026-05-05T13:43:14Z</time></trkpt><trkpt lat="30.901819514498225" lon="-6.9016042382237295"><ele>1118.0</ele><time>2026-05-05T13:43:15Z</time></trkpt><trkpt lat="30.90174228337506" lon="-6.901551343346163"><ele>1118.0</ele><time>2026-05-05T13:43:16Z</time></trkpt><trkpt lat="30.901675589918018" lon="-6.9014769311253295"><ele>1118.6666666666667</ele><time>2026-05-05T13:43:17Z</time></trkpt><trkpt lat="30.901613090770965" lon="-6.9013973881370045"><ele>1119.3333333333335</ele><time>2026-05-05T13:43:18Z</time></trkpt><trkpt lat="30.90155195952943" lon="-6.901345725513677"><ele>1120.0</ele><time>2026-05-05T13:43:19Z</time></trkpt><trkpt lat="30.90149392513142" lon="-6.901286936654471"><ele>1120.6666666666667</ele><time>2026-05-05T13:43:20Z</time></trkpt><trkpt lat="30.901421271077478" lon="-6.901223558776111"><ele>1121.3333333333333</ele><time>2026-05-05T13:43:21Z</time></trkpt><trkpt lat="30.901345571771298" lon="-6.901157433974722"><ele>1122.0</ele><time>2026-05-05T13:43:22Z</time></trkpt><trkpt lat="30.901274100835398" lon="-6.901098223464692"><ele>1122.0</ele><time>2026-05-05T13:43:23Z</time></trkpt><trkpt lat="30.90121106859924" lon="-6.901014715348446"><ele>1122.0</ele><time>2026-05-05T13:43:24Z</time></trkpt><trkpt lat="30.901142038835857" lon="-6.900943973221213"><ele>1122.0</ele><time>2026-05-05T13:43:25Z</time></trkpt><trkpt lat="30.90106667925352" lon="-6.900891138370426"><ele>1122.0</ele><time>2026-05-05T13:43:26Z</time></trkpt><trkpt lat="30.901027437525926" lon="-6.900759168017991"><ele>1122.0</ele><time>2026-05-05T13:43:27Z</time></trkpt><trkpt lat="30.900996806441857" lon="-6.900618997995623"><ele>1122.2</ele><time>2026-05-05T13:43:28Z</time></trkpt><trkpt lat="30.900964145999442" lon="-6.90049395296173"><ele>1122.4</ele><time>2026-05-05T13:43:29Z</time></trkpt><trkpt lat="30.900928486554204" lon="-6.900380781924397"><ele>1122.6</ele><time>2026-05-05T13:43:30Z</time></trkpt><trkpt lat="30.900891486564177" lon="-6.90026611320188"><ele>1122.8</ele><time>2026-05-05T13:43:31Z</time></trkpt><trkpt lat="30.90085457274576" lon="-6.900151501141167"><ele>1123.0</ele><time>2026-05-05T13:43:32Z</time></trkpt><trkpt lat="30.90084784828759" lon="-6.900006745285389"><ele>1123.0</ele><time>2026-05-05T13:43:33Z</time></trkpt><trkpt lat="30.90084336659669" lon="-6.899871708269669"><ele>1123.0</ele><time>2026-05-05T13:43:34Z</time></trkpt><trkpt lat="30.90086255286605" lon="-6.899748662532336"><ele>1123.0</ele><time>2026-05-05T13:43:35Z</time></trkpt><trkpt lat="30.900867357451993" lon="-6.8996576361285715"><ele>1123.0</ele><time>2026-05-05T13:43:36Z</time></trkpt><trkpt lat="30.900873113216196" lon="-6.899578356783248"><ele>1123.0</ele><time>2026-05-05T13:43:37Z</time></trkpt><trkpt lat="30.900885322474494" lon="-6.89945221522337"><ele>1123.0</ele><time>2026-05-05T13:43:39Z</time></trkpt><trkpt lat="30.900901904311254" lon="-6.899295376300109"><ele>1123.0</ele><time>2026-05-05T13:43:41Z</time></trkpt><trkpt lat="30.900911431421022" lon="-6.899207829374223"><ele>1123.0</ele><time>2026-05-05T13:43:42Z</time></trkpt><trkpt lat="30.900975274799904" lon="-6.899095499192525"><ele>1123.0</ele><time>2026-05-05T13:43:43Z</time></trkpt><trkpt lat="30.901084849061416" lon="-6.899027882018839"><ele>1122.8333333333333</ele><time>2026-05-05T13:43:44Z</time></trkpt><trkpt lat="30.901140007499144" lon="-6.898952922882229"><ele>1122.6666666666665</ele><time>2026-05-05T13:43:45Z</time></trkpt><trkpt lat="30.90119898569883" lon="-6.8988759359563945"><ele>1122.5</ele><time>2026-05-05T13:43:46Z</time></trkpt><trkpt lat="30.901253943864216" lon="-6.898804196524699"><ele>1122.3333333333333</ele><time>2026-05-05T13:43:47Z</time></trkpt><trkpt lat="30.90131133842336" lon="-6.898729276692204"><ele>1122.1666666666667</ele><time>2026-05-05T13:43:48Z</time></trkpt><trkpt lat="30.90137658751886" lon="-6.898665363104228"><ele>1122.0</ele><time>2026-05-05T13:43:49Z</time></trkpt><trkpt lat="30.90140972034234" lon="-6.898570487803903"><ele>1122.0</ele><time>2026-05-05T13:43:50Z</time></trkpt><trkpt lat="30.90146155862174" lon="-6.898491166391808"><ele>1122.0</ele><time>2026-05-05T13:43:51Z</time></trkpt><trkpt lat="30.901513136038826" lon="-6.898412544210732"><ele>1122.0</ele><time>2026-05-05T13:43:52Z</time></trkpt><trkpt lat="30.90156835095445" lon="-6.898328376390534"><ele>1122.0</ele><time>2026-05-05T13:43:53Z</time></trkpt><trkpt lat="30.901652542359326" lon="-6.898272692635674"><ele>1122.0</ele><time>2026-05-05T13:43:54Z</time></trkpt><trkpt lat="30.901708268377106" lon="-6.898190797029826"><ele>1122.0</ele><time>2026-05-05T13:43:55Z</time></trkpt><trkpt lat="30.901777892660665" lon="-6.89811975441298"><ele>1121.8333333333333</ele><time>2026-05-05T13:43:56Z</time></trkpt><trkpt lat="30.901846690034162" lon="-6.898050841629616"><ele>1121.6666666666667</ele><time>2026-05-05T13:43:57Z</time></trkpt><trkpt lat="30.90191602175738" lon="-6.897986107520826"><ele>1121.5</ele><time>2026-05-05T13:43:58Z</time></trkpt><trkpt lat="30.90197824131642" lon="-6.8979280138960615"><ele>1121.3333333333335</ele><time>2026-05-05T13:43:59Z</time></trkpt><trkpt lat="30.902036380968255" lon="-6.897873769192117"><ele>1121.1666666666667</ele><time>2026-05-05T13:44:00Z</time></trkpt><trkpt lat="30.902086048118257" lon="-6.8978274323789535"><ele>1121.0</ele><time>2026-05-05T13:44:01Z</time></trkpt><trkpt lat="30.902173310430545" lon="-6.897769737211568"><ele>1121.0</ele><time>2026-05-05T13:44:03Z</time></trkpt><trkpt lat="30.9022518972461" lon="-6.897700818407617"><ele>1121.0</ele><time>2026-05-05T13:44:05Z</time></trkpt><trkpt lat="30.902369536728543" lon="-6.897636505030069"><ele>1121.0</ele><time>2026-05-05T13:44:07Z</time></trkpt><trkpt lat="30.90242279545515" lon="-6.8975897643478365"><ele>1121.0</ele><time>2026-05-05T13:44:08Z</time></trkpt><trkpt lat="30.902525162093532" lon="-6.897524816209157"><ele>1121.0</ele><time>2026-05-05T13:44:10Z</time></trkpt><trkpt lat="30.9026116024686" lon="-6.897435608699283"><ele>1120.8</ele><time>2026-05-05T13:44:12Z</time></trkpt><trkpt lat="30.90269560288863" lon="-6.897318654049101"><ele>1120.6</ele><time>2026-05-05T13:44:14Z</time></trkpt><trkpt lat="30.90274706851795" lon="-6.897249887627096"><ele>1120.4</ele><time>2026-05-05T13:44:15Z</time></trkpt><trkpt lat="30.902805965658498" lon="-6.897171191577307"><ele>1120.2</ele><time>2026-05-05T13:44:16Z</time></trkpt><trkpt lat="30.902891271073145" lon="-6.897057209960842"><ele>1120.0</ele><time>2026-05-05T13:44:18Z</time></trkpt><trkpt lat="30.90295758718514" lon="-6.896968600069174"><ele>1120.0</ele><time>2026-05-05T13:44:20Z</time></trkpt><trkpt lat="30.90301435593787" lon="-6.8969014279076015"><ele>1120.0</ele><time>2026-05-05T13:44:22Z</time></trkpt><trkpt lat="30.90307804001483" lon="-6.896825194731906"><ele>1120.0</ele><time>2026-05-05T13:44:25Z</time></trkpt><trkpt lat="30.903130058383375" lon="-6.896762925365318"><ele>1120.0</ele><time>2026-05-05T13:44:27Z</time></trkpt><trkpt lat="30.903186682641074" lon="-6.896641285508944"><ele>1120.0</ele><time>2026-05-05T13:44:29Z</time></trkpt><trkpt lat="30.90322884707859" lon="-6.896556600397047"><ele>1120.0</ele><time>2026-05-05T13:44:30Z</time></trkpt><trkpt lat="30.903272424926904" lon="-6.896459174957805"><ele>1119.8333333333333</ele><time>2026-05-05T13:44:31Z</time></trkpt><trkpt lat="30.903311407115574" lon="-6.896372023961475"><ele>1119.6666666666665</ele><time>2026-05-05T13:44:32Z</time></trkpt><trkpt lat="30.90334160699379" lon="-6.896292398216586"><ele>1119.5</ele><time>2026-05-05T13:44:33Z</time></trkpt><trkpt lat="30.903365678342656" lon="-6.896218705888187"><ele>1119.3333333333333</ele><time>2026-05-05T13:44:34Z</time></trkpt><trkpt lat="30.903404606648113" lon="-6.896099530138898"><ele>1119.1666666666667</ele><time>2026-05-05T13:44:36Z</time></trkpt><trkpt lat="30.90349529422538" lon="-6.8961741818300455"><ele>1119.0</ele><time>2026-05-05T13:44:41Z</time></trkpt><trkpt lat="30.9034116964775" lon="-6.8962700781051245"><ele>1119.0</ele><time>2026-05-05T13:44:43Z</time></trkpt><trkpt lat="30.90336749030405" lon="-6.896331408239563"><ele>1119.0</ele><time>2026-05-05T13:44:44Z</time></trkpt><trkpt lat="30.903330827959422" lon="-6.896420869977313"><ele>1119.0</ele><time>2026-05-05T13:44:45Z</time></trkpt><trkpt lat="30.903295774673612" lon="-6.896533950101299"><ele>1119.0</ele><time>2026-05-05T13:44:46Z</time></trkpt><trkpt lat="30.903248454521467" lon="-6.896639328045175"><ele>1119.0</ele><time>2026-05-05T13:44:46.999Z</time></trkpt><trkpt lat="30.90320382360315" lon="-6.896740677750955"><ele>1119.1666666666667</ele><time>2026-05-05T13:44:47.999Z</time></trkpt><trkpt lat="30.903154943264248" lon="-6.896835861842118"><ele>1119.3333333333333</ele><time>2026-05-05T13:44:48.999Z</time></trkpt><trkpt lat="30.903096333390522" lon="-6.8969198948080015"><ele>1119.5</ele><time>2026-05-05T13:44:49.999Z</time></trkpt><trkpt lat="30.903033998554804" lon="-6.896987041072274"><ele>1119.6666666666665</ele><time>2026-05-05T13:44:50.999Z</time></trkpt><trkpt lat="30.902977086395317" lon="-6.8970450107150105"><ele>1119.8333333333333</ele><time>2026-05-05T13:44:51.999Z</time></trkpt><trkpt lat="30.902928181274454" lon="-6.89710664095237"><ele>1120.0</ele><time>2026-05-05T13:44:52.999Z</time></trkpt><trkpt lat="30.9028781200305" lon="-6.897180461513407"><ele>1120.0</ele><time>2026-05-05T13:44:53.999Z</time></trkpt><trkpt lat="30.90282179526478" lon="-6.897262987655178"><ele>1120.0</ele><time>2026-05-05T13:44:54.999Z</time></trkpt><trkpt lat="30.90276530018402" lon="-6.897335868811701"><ele>1120.0</ele><time>2026-05-05T13:44:55.999Z</time></trkpt><trkpt lat="30.902713691568202" lon="-6.8973915112146615"><ele>1120.0</ele><time>2026-05-05T13:44:56.999Z</time></trkpt><trkpt lat="30.902630328790035" lon="-6.897478628768939"><ele>1120.0</ele><time>2026-05-05T13:44:58.999Z</time></trkpt><trkpt lat="30.902682424861165" lon="-6.897535894049086"><ele>1120.0</ele><time>2026-05-05T13:45:01.999Z</time></trkpt><trkpt lat="30.902756686331614" lon="-6.897527143993056"><ele>1120.0</ele><time>2026-05-05T13:45:03.999Z</time></trkpt><trkpt lat="30.902845138986223" lon="-6.897507332025231"><ele>1120.0</ele><time>2026-05-05T13:45:05.999Z</time></trkpt><trkpt lat="30.90294430595693" lon="-6.897482649795758"><ele>1120.0</ele><time>2026-05-05T13:45:07.999Z</time></trkpt><trkpt lat="30.90300793201237" lon="-6.897456544089005"><ele>1120.0</ele><time>2026-05-05T13:45:08.999Z</time></trkpt><trkpt lat="30.903076123407907" lon="-6.897440580603984"><ele>1120.0</ele><time>2026-05-05T13:45:09.999Z</time></trkpt><trkpt lat="30.903146848237856" lon="-6.897478535197166"><ele>1120.0</ele><time>2026-05-05T13:45:10.999Z</time></trkpt><trkpt lat="30.903212501519867" lon="-6.897469203173274"><ele>1120.0</ele><time>2026-05-05T13:45:11.999Z</time></trkpt><trkpt lat="30.903281025266374" lon="-6.897474327336349"><ele>1120.0</ele><time>2026-05-05T13:45:12.999Z</time></trkpt><trkpt lat="30.903350566822134" lon="-6.897479527611483"><ele>1120.0</ele><time>2026-05-05T13:45:13.999Z</time></trkpt><trkpt lat="30.903423044710667" lon="-6.897487928500425"><ele>1120.0</ele><time>2026-05-05T13:45:14.999Z</time></trkpt><trkpt lat="30.903501924724598" lon="-6.897498739845894"><ele>1120.0</ele><time>2026-05-05T13:45:15.999Z</time></trkpt><trkpt lat="30.903569601140095" lon="-6.897508015617441"><ele>1120.0</ele><time>2026-05-05T13:45:16.999Z</time></trkpt><trkpt lat="30.903683181318303" lon="-6.89753457041547"><ele>1120.0</ele><time>2026-05-05T13:45:19Z</time></trkpt><trkpt lat="30.903781952041705" lon="-6.897555874086514"><ele>1120.0</ele><time>2026-05-05T13:45:21Z</time></trkpt><trkpt lat="30.90389162713785" lon="-6.897572502655384"><ele>1120.0</ele><time>2026-05-05T13:45:23Z</time></trkpt><trkpt lat="30.903957083448535" lon="-6.8975895545734165"><ele>1120.0</ele><time>2026-05-05T13:45:24Z</time></trkpt><trkpt lat="30.904024098355958" lon="-6.897604512987383"><ele>1120.0</ele><time>2026-05-05T13:45:25Z</time></trkpt><trkpt lat="30.904105454988304" lon="-6.897616602705305"><ele>1120.0</ele><time>2026-05-05T13:45:27Z</time></trkpt><trkpt lat="30.904167861681103" lon="-6.897633330145476"><ele>1120.0</ele><time>2026-05-05T13:45:30Z</time></trkpt><trkpt lat="30.904236496829867" lon="-6.897668362639844"><ele>1120.0</ele><time>2026-05-05T13:45:48Z</time></trkpt><trkpt lat="30.904302578614914" lon="-6.897674219254271"><ele>1120.0</ele><time>2026-05-05T13:46:45.001Z</time></trkpt><trkpt lat="30.904241549152616" lon="-6.897654556780431"><ele>1120.0</ele><time>2026-05-05T13:47:20.999Z</time></trkpt><trkpt lat="30.904209261349983" lon="-6.897744191191373"><ele>1120.0</ele><time>2026-05-05T13:47:25Z</time></trkpt><trkpt lat="30.90419987467512" lon="-6.897819526713937"><ele>1120.0</ele><time>2026-05-05T13:47:32Z</time></trkpt><trkpt lat="30.90420557465122" lon="-6.89790025506199"><ele>1120.0</ele><time>2026-05-05T13:47:38Z</time></trkpt><trkpt lat="30.904186239416724" lon="-6.89797781298823"><ele>1120.0</ele><time>2026-05-05T13:47:45Z</time></trkpt><trkpt lat="30.904226695507678" lon="-6.898050561646897"><ele>1120.0</ele><time>2026-05-05T13:52:32.001Z</time></trkpt><trkpt lat="30.90417939970345" lon="-6.898107260668392"><ele>1120.0</ele><time>2026-05-05T13:52:42.001Z</time></trkpt><trkpt lat="30.904217751384035" lon="-6.898171814114065"><ele>1120.0</ele><time>2026-05-05T13:52:50.001Z</time></trkpt><trkpt lat="30.904167727096993" lon="-6.898221188715717"><ele>1120.0</ele><time>2026-05-05T13:53:00.001Z</time></trkpt><trkpt lat="30.904099954228823" lon="-6.8982087333952595"><ele>1120.0</ele><time>2026-05-05T13:53:07.001Z</time></trkpt><trkpt lat="30.904030939409164" lon="-6.898201890815402"><ele>1120.0</ele><time>2026-05-05T13:53:12.001Z</time></trkpt><trkpt lat="30.903966690023864" lon="-6.898206846688981"><ele>1120.0</ele><time>2026-05-05T13:53:18.001Z</time></trkpt><trkpt lat="30.90390213273774" lon="-6.898209307826974"><ele>1120.0</ele><time>2026-05-05T13:53:26Z</time></trkpt><trkpt lat="30.903836575616968" lon="-6.898197360638695"><ele>1120.0</ele><time>2026-05-05T13:53:34Z</time></trkpt></trkseg></trk></gpx>